<?xml version='1.0' encoding='UTF-8'?><gpx version="1.1" creator="JPX - https://github.com/jenetics/jpx" xmlns="http://www.topografix.com/GPX/1/1"><trk><trkseg><trkpt lat="45.8632226" lon="8.6825369"><ele>264.0</ele><time>2026-03-22T07:48:53.558Z</time></trkpt><trkpt lat="45.8632886" lon="8.6825604"><ele>264.0</ele><time>2026-03-22T07:48:56.558Z</time></trkpt><trkpt lat="45.8632075" lon="8.6825671"><ele>264.0</ele><time>2026-03-22T07:49:02.652Z</time></trkpt><trkpt lat="45.8631385" lon="8.6825598"><ele>264.0</ele><time>2026-03-22T07:49:09.152Z</time></trkpt><trkpt lat="45.8631017" lon="8.68265"><ele>264.0</ele><time>2026-03-22T07:51:14.153Z</time></trkpt><trkpt lat="45.8631417" lon="8.682525"><ele>264.0</ele><time>2026-03-22T07:51:35.153Z</time></trkpt><trkpt lat="45.8631867" lon="8.682455"><ele>264.0</ele><time>2026-03-22T07:51:36.152Z</time></trkpt><trkpt lat="45.8632367" lon="8.6823717"><ele>264.0</ele><time>2026-03-22T07:51:37.152Z</time></trkpt><trkpt lat="45.8632917" lon="8.68229"><ele>264.0</ele><time>2026-03-22T07:51:38.153Z</time></trkpt><trkpt lat="45.8633533" lon="8.6821867"><ele>264.0</ele><time>2026-03-22T07:51:39.153Z</time></trkpt><trkpt lat="45.86343" lon="8.6820517"><ele>264.0</ele><time>2026-03-22T07:51:40.152Z</time></trkpt><trkpt lat="45.86351" lon="8.6819017"><ele>264.0</ele><time>2026-03-22T07:51:41.152Z</time></trkpt><trkpt lat="45.8636" lon="8.6817517"><ele>264.0</ele><time>2026-03-22T07:51:42.152Z</time></trkpt><trkpt lat="45.863695" lon="8.6815917"><ele>264.0</ele><time>2026-03-22T07:51:43.152Z</time></trkpt><trkpt lat="45.8637767" lon="8.6814467"><ele>264.0</ele><time>2026-03-22T07:51:44.153Z</time></trkpt><trkpt lat="45.8638683" lon="8.681305"><ele>264.0</ele><time>2026-03-22T07:51:45.153Z</time></trkpt><trkpt lat="45.8639583" lon="8.681175"><ele>264.0</ele><time>2026-03-22T07:51:46.153Z</time></trkpt><trkpt lat="45.86406" lon="8.68105"><ele>264.0</ele><time>2026-03-22T07:51:47.153Z</time></trkpt><trkpt lat="45.86417" lon="8.6809317"><ele>264.0</ele><time>2026-03-22T07:51:48.153Z</time></trkpt><trkpt lat="45.8642883" lon="8.680825"><ele>263.0</ele><time>2026-03-22T07:51:49.152Z</time></trkpt><trkpt lat="45.8644167" lon="8.6807233"><ele>262.0</ele><time>2026-03-22T07:51:50.153Z</time></trkpt><trkpt lat="45.8645583" lon="8.6806417"><ele>261.0</ele><time>2026-03-22T07:51:51.152Z</time></trkpt><trkpt lat="45.8647083" lon="8.6805783"><ele>261.0</ele><time>2026-03-22T07:51:52.153Z</time></trkpt><trkpt lat="45.864855" lon="8.68053"><ele>261.0</ele><time>2026-03-22T07:51:53.152Z</time></trkpt><trkpt lat="45.8650017" lon="8.6805067"><ele>261.0</ele><time>2026-03-22T07:51:54.152Z</time></trkpt><trkpt lat="45.865145" lon="8.680495"><ele>261.0</ele><time>2026-03-22T07:51:55.152Z</time></trkpt><trkpt lat="45.865295" lon="8.6805"><ele>261.25</ele><time>2026-03-22T07:51:56.152Z</time></trkpt><trkpt lat="45.8654467" lon="8.680505"><ele>261.5</ele><time>2026-03-22T07:51:57.153Z</time></trkpt><trkpt lat="45.8655933" lon="8.680545"><ele>261.75</ele><time>2026-03-22T07:51:58.152Z</time></trkpt><trkpt lat="45.865735" lon="8.6805317"><ele>262.0</ele><time>2026-03-22T07:51:59.153Z</time></trkpt><trkpt lat="45.865885" lon="8.6805217"><ele>261.66666666666663</ele><time>2026-03-22T07:52:00.152Z</time></trkpt><trkpt lat="45.86604" lon="8.68052"><ele>261.3333333333333</ele><time>2026-03-22T07:52:01.152Z</time></trkpt><trkpt lat="45.8661917" lon="8.6805033"><ele>261.0</ele><time>2026-03-22T07:52:02.153Z</time></trkpt><trkpt lat="45.8663383" lon="8.680485"><ele>261.0</ele><time>2026-03-22T07:52:03.152Z</time></trkpt><trkpt lat="45.866495" lon="8.6804733"><ele>261.0</ele><time>2026-03-22T07:52:04.152Z</time></trkpt><trkpt lat="45.8666517" lon="8.68046"><ele>261.0</ele><time>2026-03-22T07:52:05.152Z</time></trkpt><trkpt lat="45.8668017" lon="8.680445"><ele>261.6666666666667</ele><time>2026-03-22T07:52:06.152Z</time></trkpt><trkpt lat="45.8669583" lon="8.6804217"><ele>262.33333333333337</ele><time>2026-03-22T07:52:07.153Z</time></trkpt><trkpt lat="45.8671117" lon="8.68041"><ele>263.0</ele><time>2026-03-22T07:52:08.153Z</time></trkpt><trkpt lat="45.8672683" lon="8.68041"><ele>263.0</ele><time>2026-03-22T07:52:09.152Z</time></trkpt><trkpt lat="45.8674217" lon="8.6804033"><ele>263.0</ele><time>2026-03-22T07:52:10.152Z</time></trkpt><trkpt lat="45.867585" lon="8.6803967"><ele>263.0</ele><time>2026-03-22T07:52:11.153Z</time></trkpt><trkpt lat="45.8677433" lon="8.68039"><ele>263.5</ele><time>2026-03-22T07:52:12.152Z</time></trkpt><trkpt lat="45.8678983" lon="8.6803767"><ele>264.0</ele><time>2026-03-22T07:52:13.153Z</time></trkpt><trkpt lat="45.8680417" lon="8.6803667"><ele>264.5</ele><time>2026-03-22T07:52:14.152Z</time></trkpt><trkpt lat="45.8681883" lon="8.68034"><ele>265.0</ele><time>2026-03-22T07:52:15.153Z</time></trkpt><trkpt lat="45.8683333" lon="8.6803167"><ele>264.5</ele><time>2026-03-22T07:52:16.152Z</time></trkpt><trkpt lat="45.8684767" lon="8.6802817"><ele>264.0</ele><time>2026-03-22T07:52:17.153Z</time></trkpt><trkpt lat="45.8686217" lon="8.6802467"><ele>263.5</ele><time>2026-03-22T07:52:18.152Z</time></trkpt><trkpt lat="45.8687683" lon="8.6801933"><ele>263.0</ele><time>2026-03-22T07:52:19.153Z</time></trkpt><trkpt lat="45.8689033" lon="8.6801267"><ele>262.6666666666667</ele><time>2026-03-22T07:52:20.153Z</time></trkpt><trkpt lat="45.8690633" lon="8.6800467"><ele>262.3333333333333</ele><time>2026-03-22T07:52:21.152Z</time></trkpt><trkpt lat="45.8692183" lon="8.67995"><ele>262.0</ele><time>2026-03-22T07:52:22.153Z</time></trkpt><trkpt lat="45.86937" lon="8.6798667"><ele>263.0</ele><time>2026-03-22T07:52:23.152Z</time></trkpt><trkpt lat="45.8695133" lon="8.6797833"><ele>264.0</ele><time>2026-03-22T07:52:24.152Z</time></trkpt><trkpt lat="45.869655" lon="8.6796983"><ele>265.0</ele><time>2026-03-22T07:52:25.152Z</time></trkpt><trkpt lat="45.8698" lon="8.6796017"><ele>265.0</ele><time>2026-03-22T07:52:26.152Z</time></trkpt><trkpt lat="45.8699483" lon="8.679515"><ele>265.0</ele><time>2026-03-22T07:52:27.152Z</time></trkpt><trkpt lat="45.8700917" lon="8.6794283"><ele>265.0</ele><time>2026-03-22T07:52:28.153Z</time></trkpt><trkpt lat="45.870235" lon="8.6793417"><ele>265.25</ele><time>2026-03-22T07:52:29.153Z</time></trkpt><trkpt lat="45.8703817" lon="8.6792517"><ele>265.5</ele><time>2026-03-22T07:52:30.152Z</time></trkpt><trkpt lat="45.8705217" lon="8.6791733"><ele>265.75</ele><time>2026-03-22T07:52:31.152Z</time></trkpt><trkpt lat="45.8706417" lon="8.6791083"><ele>266.0</ele><time>2026-03-22T07:52:32.153Z</time></trkpt><trkpt lat="45.8707483" lon="8.679045"><ele>266.0</ele><time>2026-03-22T07:52:33.152Z</time></trkpt><trkpt lat="45.8708117" lon="8.679005"><ele>266.0</ele><time>2026-03-22T07:52:34.153Z</time></trkpt><trkpt lat="45.8709033" lon="8.678965"><ele>266.0</ele><time>2026-03-22T07:52:36.152Z</time></trkpt><trkpt lat="45.8709767" lon="8.6789983"><ele>266.0</ele><time>2026-03-22T07:52:38.152Z</time></trkpt><trkpt lat="45.8710067" lon="8.67911"><ele>266.0</ele><time>2026-03-22T07:52:39.152Z</time></trkpt><trkpt lat="45.8710433" lon="8.6792433"><ele>266.0</ele><time>2026-03-22T07:52:40.152Z</time></trkpt><trkpt lat="45.8710933" lon="8.6793467"><ele>266.8</ele><time>2026-03-22T07:52:41.152Z</time></trkpt><trkpt lat="45.8711333" lon="8.6794333"><ele>267.6</ele><time>2026-03-22T07:52:42.153Z</time></trkpt><trkpt lat="45.871215" lon="8.6795167"><ele>268.4</ele><time>2026-03-22T07:52:44.152Z</time></trkpt><trkpt lat="45.8713317" lon="8.6794367"><ele>269.2</ele><time>2026-03-22T07:52:46.152Z</time></trkpt><trkpt lat="45.87141" lon="8.6793583"><ele>270.0</ele><time>2026-03-22T07:52:47.152Z</time></trkpt><trkpt lat="45.8715017" lon="8.67927"><ele>270.0</ele><time>2026-03-22T07:52:48.152Z</time></trkpt><trkpt lat="45.8715967" lon="8.6791867"><ele>270.0</ele><time>2026-03-22T07:52:49.153Z</time></trkpt><trkpt lat="45.871685" lon="8.6790933"><ele>270.0</ele><time>2026-03-22T07:52:50.153Z</time></trkpt><trkpt lat="45.8717617" lon="8.6790067"><ele>270.0</ele><time>2026-03-22T07:52:51.153Z</time></trkpt><trkpt lat="45.87183" lon="8.678945"><ele>270.0</ele><time>2026-03-22T07:52:52.152Z</time></trkpt><trkpt lat="45.8719033" lon="8.6789117"><ele>272.6</ele><time>2026-03-22T07:52:53.152Z</time></trkpt><trkpt lat="45.872005" lon="8.6789233"><ele>275.2</ele><time>2026-03-22T07:52:55.152Z</time></trkpt><trkpt lat="45.8720117" lon="8.6790517"><ele>277.8</ele><time>2026-03-22T07:52:57.152Z</time></trkpt><trkpt lat="45.872005" lon="8.679185"><ele>280.4</ele><time>2026-03-22T07:52:58.152Z</time></trkpt><trkpt lat="45.8720117" lon="8.6793333"><ele>283.0</ele><time>2026-03-22T07:52:59.152Z</time></trkpt><trkpt lat="45.8720317" lon="8.6794483"><ele>284.4</ele><time>2026-03-22T07:53:00.152Z</time></trkpt><trkpt lat="45.8720733" lon="8.67954"><ele>285.8</ele><time>2026-03-22T07:53:01.152Z</time></trkpt><trkpt lat="45.8721683" lon="8.6795583"><ele>287.2</ele><time>2026-03-22T07:53:02.152Z</time></trkpt><trkpt lat="45.8722583" lon="8.679575"><ele>288.6</ele><time>2026-03-22T07:53:03.153Z</time></trkpt><trkpt lat="45.8723717" lon="8.6796"><ele>290.0</ele><time>2026-03-22T07:53:04.152Z</time></trkpt><trkpt lat="45.8724867" lon="8.6796283"><ele>290.5</ele><time>2026-03-22T07:53:05.152Z</time></trkpt><trkpt lat="45.8726267" lon="8.679665"><ele>291.0</ele><time>2026-03-22T07:53:06.152Z</time></trkpt><trkpt lat="45.8727717" lon="8.6797167"><ele>291.5</ele><time>2026-03-22T07:53:07.153Z</time></trkpt><trkpt lat="45.872915" lon="8.6797767"><ele>292.0</ele><time>2026-03-22T07:53:08.152Z</time></trkpt><trkpt lat="45.87306" lon="8.67984"><ele>292.0</ele><time>2026-03-22T07:53:09.152Z</time></trkpt><trkpt lat="45.8732" lon="8.6799"><ele>292.0</ele><time>2026-03-22T07:53:10.152Z</time></trkpt><trkpt lat="45.8733217" lon="8.6799633"><ele>292.0</ele><time>2026-03-22T07:53:11.152Z</time></trkpt><trkpt lat="45.8734367" lon="8.6800117"><ele>292.0</ele><time>2026-03-22T07:53:12.152Z</time></trkpt><trkpt lat="45.8735467" lon="8.68006"><ele>292.75</ele><time>2026-03-22T07:53:13.153Z</time></trkpt><trkpt lat="45.8736617" lon="8.6800983"><ele>293.5</ele><time>2026-03-22T07:53:14.152Z</time></trkpt><trkpt lat="45.8737867" lon="8.68012"><ele>294.25</ele><time>2026-03-22T07:53:15.152Z</time></trkpt><trkpt lat="45.8739283" lon="8.68014"><ele>295.0</ele><time>2026-03-22T07:53:16.153Z</time></trkpt><trkpt lat="45.8740817" lon="8.6801733"><ele>295.0</ele><time>2026-03-22T07:53:17.152Z</time></trkpt><trkpt lat="45.87423" lon="8.680205"><ele>295.0</ele><time>2026-03-22T07:53:18.152Z</time></trkpt><trkpt lat="45.8743717" lon="8.6802217"><ele>295.0</ele><time>2026-03-22T07:53:19.153Z</time></trkpt><trkpt lat="45.8744983" lon="8.6802117"><ele>295.0</ele><time>2026-03-22T07:53:20.153Z</time></trkpt><trkpt lat="45.8746" lon="8.6802083"><ele>293.8</ele><time>2026-03-22T07:53:21.152Z</time></trkpt><trkpt lat="45.8746967" lon="8.680215"><ele>292.6</ele><time>2026-03-22T07:53:22.153Z</time></trkpt><trkpt lat="45.8747683" lon="8.6802417"><ele>291.4</ele><time>2026-03-22T07:53:23.152Z</time></trkpt><trkpt lat="45.874845" lon="8.68029"><ele>290.2</ele><time>2026-03-22T07:53:24.152Z</time></trkpt><trkpt lat="45.87493" lon="8.68036"><ele>289.0</ele><time>2026-03-22T07:53:25.152Z</time></trkpt><trkpt lat="45.8750133" lon="8.6804583"><ele>289.8</ele><time>2026-03-22T07:53:26.152Z</time></trkpt><trkpt lat="45.875095" lon="8.6805817"><ele>290.59999999999997</ele><time>2026-03-22T07:53:27.152Z</time></trkpt><trkpt lat="45.875155" lon="8.6806783"><ele>291.4</ele><time>2026-03-22T07:53:28.152Z</time></trkpt><trkpt lat="45.8752067" lon="8.6807767"><ele>292.2</ele><time>2026-03-22T07:53:29.152Z</time></trkpt><trkpt lat="45.8752483" lon="8.6808833"><ele>293.0</ele><time>2026-03-22T07:53:30.152Z</time></trkpt><trkpt lat="45.8752733" lon="8.68099"><ele>295.1666666666667</ele><time>2026-03-22T07:53:31.153Z</time></trkpt><trkpt lat="45.8752783" lon="8.681105"><ele>297.33333333333337</ele><time>2026-03-22T07:53:32.152Z</time></trkpt><trkpt lat="45.87528" lon="8.6811967"><ele>299.5</ele><time>2026-03-22T07:53:33.153Z</time></trkpt><trkpt lat="45.8752717" lon="8.6813317"><ele>301.6666666666667</ele><time>2026-03-22T07:53:34.152Z</time></trkpt><trkpt lat="45.8752383" lon="8.6814683"><ele>303.8333333333333</ele><time>2026-03-22T07:53:35.152Z</time></trkpt><trkpt lat="45.8751983" lon="8.6815667"><ele>306.0</ele><time>2026-03-22T07:53:36.152Z</time></trkpt><trkpt lat="45.8751267" lon="8.6816417"><ele>306.8333333333333</ele><time>2026-03-22T07:53:37.152Z</time></trkpt><trkpt lat="45.8750833" lon="8.6817167"><ele>307.6666666666667</ele><time>2026-03-22T07:53:38.152Z</time></trkpt><trkpt lat="45.874995" lon="8.681845"><ele>308.5</ele><time>2026-03-22T07:53:40.152Z</time></trkpt><trkpt lat="45.8749433" lon="8.6819183"><ele>309.33333333333337</ele><time>2026-03-22T07:53:41.153Z</time></trkpt><trkpt lat="45.8748717" lon="8.6819583"><ele>310.1666666666667</ele><time>2026-03-22T07:53:42.152Z</time></trkpt><trkpt lat="45.8748033" lon="8.68199"><ele>311.0</ele><time>2026-03-22T07:53:43.152Z</time></trkpt><trkpt lat="45.87471" lon="8.68201"><ele>312.6</ele><time>2026-03-22T07:53:44.152Z</time></trkpt><trkpt lat="45.874615" lon="8.6820217"><ele>314.20000000000005</ele><time>2026-03-22T07:53:45.152Z</time></trkpt><trkpt lat="45.8744667" lon="8.6820483"><ele>315.79999999999995</ele><time>2026-03-22T07:53:47.152Z</time></trkpt><trkpt lat="45.874375" lon="8.6820717"><ele>317.4</ele><time>2026-03-22T07:53:48.152Z</time></trkpt><trkpt lat="45.87429" lon="8.68209"><ele>319.0</ele><time>2026-03-22T07:53:49.152Z</time></trkpt><trkpt lat="45.8742" lon="8.6821167"><ele>319.79999999999995</ele><time>2026-03-22T07:53:51.152Z</time></trkpt><trkpt lat="45.8741167" lon="8.6822083"><ele>320.59999999999997</ele><time>2026-03-22T07:53:53.152Z</time></trkpt><trkpt lat="45.8740833" lon="8.68238"><ele>321.4</ele><time>2026-03-22T07:53:55.153Z</time></trkpt><trkpt lat="45.8740967" lon="8.6824733"><ele>322.2</ele><time>2026-03-22T07:53:56.152Z</time></trkpt><trkpt lat="45.874135" lon="8.68257"><ele>323.0</ele><time>2026-03-22T07:53:57.152Z</time></trkpt><trkpt lat="45.8742217" lon="8.6826967"><ele>324.75</ele><time>2026-03-22T07:53:58.153Z</time></trkpt><trkpt lat="45.8743333" lon="8.6828517"><ele>326.5</ele><time>2026-03-22T07:53:59.152Z</time></trkpt><trkpt lat="45.8744217" lon="8.68299"><ele>328.25</ele><time>2026-03-22T07:54:00.152Z</time></trkpt><trkpt lat="45.87446" lon="8.6831233"><ele>330.0</ele><time>2026-03-22T07:54:01.153Z</time></trkpt><trkpt lat="45.87446" lon="8.683235"><ele>330.0</ele><time>2026-03-22T07:54:02.152Z</time></trkpt><trkpt lat="45.8744067" lon="8.6833733"><ele>330.0</ele><time>2026-03-22T07:54:04.152Z</time></trkpt><trkpt lat="45.8743533" lon="8.6834467"><ele>330.0</ele><time>2026-03-22T07:54:06.152Z</time></trkpt><trkpt lat="45.874285" lon="8.683505"><ele>330.0</ele><time>2026-03-22T07:54:08.152Z</time></trkpt><trkpt lat="45.87423" lon="8.683595"><ele>330.0</ele><time>2026-03-22T07:54:10.153Z</time></trkpt><trkpt lat="45.8741767" lon="8.6836917"><ele>330.0</ele><time>2026-03-22T07:54:13.152Z</time></trkpt><trkpt lat="45.874195" lon="8.6838583"><ele>330.8333333333333</ele><time>2026-03-22T07:54:24.152Z</time></trkpt><trkpt lat="45.8742683" lon="8.6839417"><ele>331.6666666666667</ele><time>2026-03-22T07:54:26.152Z</time></trkpt><trkpt lat="45.8743467" lon="8.6840283"><ele>332.5</ele><time>2026-03-22T07:54:28.152Z</time></trkpt><trkpt lat="45.8744017" lon="8.684075"><ele>333.33333333333337</ele><time>2026-03-22T07:54:29.153Z</time></trkpt><trkpt lat="45.87447" lon="8.6841367"><ele>334.1666666666667</ele><time>2026-03-22T07:54:30.152Z</time></trkpt><trkpt lat="45.87454" lon="8.6841983"><ele>335.0</ele><time>2026-03-22T07:54:31.152Z</time></trkpt><trkpt lat="45.8746133" lon="8.6842617"><ele>335.2</ele><time>2026-03-22T07:54:32.152Z</time></trkpt><trkpt lat="45.8747" lon="8.6843333"><ele>335.4</ele><time>2026-03-22T07:54:33.153Z</time></trkpt><trkpt lat="45.8747933" lon="8.6844267"><ele>335.6</ele><time>2026-03-22T07:54:34.153Z</time></trkpt><trkpt lat="45.8748817" lon="8.6845017"><ele>335.8</ele><time>2026-03-22T07:54:35.152Z</time></trkpt><trkpt lat="45.8749733" lon="8.6845583"><ele>336.0</ele><time>2026-03-22T07:54:36.152Z</time></trkpt><trkpt lat="45.875065" lon="8.6845983"><ele>337.0</ele><time>2026-03-22T07:54:37.153Z</time></trkpt><trkpt lat="45.8751517" lon="8.6846433"><ele>338.0</ele><time>2026-03-22T07:54:38.152Z</time></trkpt><trkpt lat="45.8752533" lon="8.6846933"><ele>339.0</ele><time>2026-03-22T07:54:39.152Z</time></trkpt><trkpt lat="45.8753633" lon="8.684755"><ele>340.0</ele><time>2026-03-22T07:54:40.152Z</time></trkpt><trkpt lat="45.87548" lon="8.684805"><ele>341.0</ele><time>2026-03-22T07:54:41.152Z</time></trkpt><trkpt lat="45.8755883" lon="8.68486"><ele>341.0</ele><time>2026-03-22T07:54:42.152Z</time></trkpt><trkpt lat="45.8756883" lon="8.6849183"><ele>341.0</ele><time>2026-03-22T07:54:43.152Z</time></trkpt><trkpt lat="45.875785" lon="8.6849883"><ele>341.0</ele><time>2026-03-22T07:54:44.152Z</time></trkpt><trkpt lat="45.8758783" lon="8.68507"><ele>341.0</ele><time>2026-03-22T07:54:45.152Z</time></trkpt><trkpt lat="45.875975" lon="8.6851767"><ele>341.0</ele><time>2026-03-22T07:54:46.152Z</time></trkpt><trkpt lat="45.8760733" lon="8.68529"><ele>340.5</ele><time>2026-03-22T07:54:47.152Z</time></trkpt><trkpt lat="45.87617" lon="8.6854067"><ele>340.0</ele><time>2026-03-22T07:54:48.152Z</time></trkpt><trkpt lat="45.8762567" lon="8.685505"><ele>339.5</ele><time>2026-03-22T07:54:49.152Z</time></trkpt><trkpt lat="45.8763467" lon="8.68562"><ele>339.0</ele><time>2026-03-22T07:54:50.153Z</time></trkpt><trkpt lat="45.8764283" lon="8.68573"><ele>339.0</ele><time>2026-03-22T07:54:51.152Z</time></trkpt><trkpt lat="45.8765" lon="8.6858567"><ele>339.0</ele><time>2026-03-22T07:54:52.152Z</time></trkpt><trkpt lat="45.8765683" lon="8.68598"><ele>339.0</ele><time>2026-03-22T07:54:53.152Z</time></trkpt><trkpt lat="45.8766233" lon="8.6860933"><ele>339.0</ele><time>2026-03-22T07:54:54.152Z</time></trkpt><trkpt lat="45.876675" lon="8.68619"><ele>339.0</ele><time>2026-03-22T07:54:55.152Z</time></trkpt><trkpt lat="45.8767267" lon="8.68627"><ele>336.1666666666667</ele><time>2026-03-22T07:54:56.152Z</time></trkpt><trkpt lat="45.8767883" lon="8.68637"><ele>333.3333333333333</ele><time>2026-03-22T07:54:57.153Z</time></trkpt><trkpt lat="45.876855" lon="8.68647"><ele>330.5</ele><time>2026-03-22T07:54:58.152Z</time></trkpt><trkpt lat="45.8769183" lon="8.6865583"><ele>327.66666666666663</ele><time>2026-03-22T07:54:59.152Z</time></trkpt><trkpt lat="45.8769717" lon="8.6866533"><ele>324.8333333333333</ele><time>2026-03-22T07:55:00.153Z</time></trkpt><trkpt lat="45.877015" lon="8.6867467"><ele>322.0</ele><time>2026-03-22T07:55:01.153Z</time></trkpt><trkpt lat="45.8770667" lon="8.6868683"><ele>325.0</ele><time>2026-03-22T07:55:02.153Z</time></trkpt><trkpt lat="45.8771117" lon="8.6869917"><ele>328.0</ele><time>2026-03-22T07:55:03.152Z</time></trkpt><trkpt lat="45.8771733" lon="8.687135"><ele>331.0</ele><time>2026-03-22T07:55:04.152Z</time></trkpt><trkpt lat="45.8772417" lon="8.6872767"><ele>334.0</ele><time>2026-03-22T07:55:05.152Z</time></trkpt><trkpt lat="45.87732" lon="8.68742"><ele>334.0</ele><time>2026-03-22T07:55:06.152Z</time></trkpt><trkpt lat="45.8773867" lon="8.6875417"><ele>334.0</ele><time>2026-03-22T07:55:07.152Z</time></trkpt><trkpt lat="45.8774367" lon="8.6876617"><ele>334.0</ele><time>2026-03-22T07:55:08.153Z</time></trkpt><trkpt lat="45.87748" lon="8.687775"><ele>334.0</ele><time>2026-03-22T07:55:09.152Z</time></trkpt><trkpt lat="45.87752" lon="8.6878883"><ele>334.0</ele><time>2026-03-22T07:55:10.152Z</time></trkpt><trkpt lat="45.8775583" lon="8.6879783"><ele>333.66666666666663</ele><time>2026-03-22T07:55:11.152Z</time></trkpt><trkpt lat="45.877605" lon="8.688055"><ele>333.3333333333333</ele><time>2026-03-22T07:55:12.152Z</time></trkpt><trkpt lat="45.8776567" lon="8.68815"><ele>333.0</ele><time>2026-03-22T07:55:13.153Z</time></trkpt><trkpt lat="45.8777133" lon="8.6882567"><ele>332.6666666666667</ele><time>2026-03-22T07:55:14.152Z</time></trkpt><trkpt lat="45.87776" lon="8.6883733"><ele>332.33333333333337</ele><time>2026-03-22T07:55:15.152Z</time></trkpt><trkpt lat="45.8777983" lon="8.6885033"><ele>332.0</ele><time>2026-03-22T07:55:16.152Z</time></trkpt><trkpt lat="45.8778383" lon="8.6886267"><ele>332.0</ele><time>2026-03-22T07:55:17.152Z</time></trkpt><trkpt lat="45.8778883" lon="8.6887633"><ele>332.0</ele><time>2026-03-22T07:55:18.152Z</time></trkpt><trkpt lat="45.877955" lon="8.688905"><ele>332.0</ele><time>2026-03-22T07:55:19.152Z</time></trkpt><trkpt lat="45.878035" lon="8.6890483"><ele>332.0</ele><time>2026-03-22T07:55:20.152Z</time></trkpt><trkpt lat="45.8781167" lon="8.6891867"><ele>332.0</ele><time>2026-03-22T07:55:21.153Z</time></trkpt><trkpt lat="45.87819" lon="8.6893117"><ele>332.0</ele><time>2026-03-22T07:55:22.153Z</time></trkpt><trkpt lat="45.87826" lon="8.6894433"><ele>332.0</ele><time>2026-03-22T07:55:23.152Z</time></trkpt><trkpt lat="45.87831" lon="8.6895533"><ele>332.0</ele><time>2026-03-22T07:55:24.152Z</time></trkpt><trkpt lat="45.87836" lon="8.6896467"><ele>332.0</ele><time>2026-03-22T07:55:25.152Z</time></trkpt><trkpt lat="45.87839" lon="8.6897383"><ele>332.0</ele><time>2026-03-22T07:55:26.153Z</time></trkpt><trkpt lat="45.8784217" lon="8.6898233"><ele>332.0</ele><time>2026-03-22T07:55:27.152Z</time></trkpt><trkpt lat="45.8784567" lon="8.6899033"><ele>332.0</ele><time>2026-03-22T07:55:28.152Z</time></trkpt><trkpt lat="45.8784933" lon="8.6899883"><ele>332.0</ele><time>2026-03-22T07:55:29.152Z</time></trkpt><trkpt lat="45.8785333" lon="8.6900667"><ele>332.0</ele><time>2026-03-22T07:55:30.152Z</time></trkpt><trkpt lat="45.8785917" lon="8.6901317"><ele>332.0</ele><time>2026-03-22T07:55:31.152Z</time></trkpt><trkpt lat="45.878655" lon="8.6902067"><ele>332.0</ele><time>2026-03-22T07:55:32.152Z</time></trkpt><trkpt lat="45.87873" lon="8.6902767"><ele>332.0</ele><time>2026-03-22T07:55:33.152Z</time></trkpt><trkpt lat="45.8788033" lon="8.690345"><ele>332.0</ele><time>2026-03-22T07:55:34.152Z</time></trkpt><trkpt lat="45.878885" lon="8.6904133"><ele>332.0</ele><time>2026-03-22T07:55:35.153Z</time></trkpt><trkpt lat="45.8789667" lon="8.690505"><ele>332.0</ele><time>2026-03-22T07:55:36.153Z</time></trkpt><trkpt lat="45.8790483" lon="8.690615"><ele>332.0</ele><time>2026-03-22T07:55:37.152Z</time></trkpt><trkpt lat="45.8791083" lon="8.6907617"><ele>332.0</ele><time>2026-03-22T07:55:38.152Z</time></trkpt><trkpt lat="45.8791783" lon="8.6909233"><ele>332.0</ele><time>2026-03-22T07:55:39.153Z</time></trkpt><trkpt lat="45.879245" lon="8.6911"><ele>332.0</ele><time>2026-03-22T07:55:40.153Z</time></trkpt><trkpt lat="45.87932" lon="8.6912667"><ele>332.0</ele><time>2026-03-22T07:55:41.152Z</time></trkpt><trkpt lat="45.8794033" lon="8.691425"><ele>331.6</ele><time>2026-03-22T07:55:42.152Z</time></trkpt><trkpt lat="45.8794783" lon="8.6915617"><ele>331.20000000000005</ele><time>2026-03-22T07:55:43.153Z</time></trkpt><trkpt lat="45.8795483" lon="8.6916917"><ele>330.8</ele><time>2026-03-22T07:55:44.152Z</time></trkpt><trkpt lat="45.8796067" lon="8.6918033"><ele>330.4</ele><time>2026-03-22T07:55:45.153Z</time></trkpt><trkpt lat="45.879665" lon="8.6919083"><ele>330.0</ele><time>2026-03-22T07:55:46.153Z</time></trkpt><trkpt lat="45.8796983" lon="8.6919867"><ele>330.6666666666667</ele><time>2026-03-22T07:55:47.153Z</time></trkpt><trkpt lat="45.8797383" lon="8.6920933"><ele>331.3333333333333</ele><time>2026-03-22T07:55:49.152Z</time></trkpt><trkpt lat="45.8797633" lon="8.6922017"><ele>332.0</ele><time>2026-03-22T07:55:50.152Z</time></trkpt><trkpt lat="45.8797183" lon="8.692265"><ele>332.66666666666663</ele><time>2026-03-22T07:55:54.152Z</time></trkpt><trkpt lat="45.8796283" lon="8.69221"><ele>333.3333333333333</ele><time>2026-03-22T07:55:56.152Z</time></trkpt><trkpt lat="45.8795517" lon="8.692155"><ele>334.0</ele><time>2026-03-22T07:55:57.152Z</time></trkpt><trkpt lat="45.879495" lon="8.6921133"><ele>334.0</ele><time>2026-03-22T07:55:58.152Z</time></trkpt><trkpt lat="45.879415" lon="8.6920383"><ele>334.0</ele><time>2026-03-22T07:56:00.152Z</time></trkpt><trkpt lat="45.8793333" lon="8.6919667"><ele>334.0</ele><time>2026-03-22T07:56:02.152Z</time></trkpt><trkpt lat="45.8792683" lon="8.6919133"><ele>334.0</ele><time>2026-03-22T07:56:04.152Z</time></trkpt><trkpt lat="45.87921" lon="8.6918633"><ele>334.0</ele><time>2026-03-22T07:56:06.152Z</time></trkpt><trkpt lat="45.8791467" lon="8.691805"><ele>334.0</ele><time>2026-03-22T07:56:09.152Z</time></trkpt><trkpt lat="45.8790833" lon="8.691755"><ele>335.2</ele><time>2026-03-22T07:56:12.152Z</time></trkpt><trkpt lat="45.879035" lon="8.691665"><ele>336.4</ele><time>2026-03-22T07:56:14.152Z</time></trkpt><trkpt lat="45.878915" lon="8.6915567"><ele>337.6</ele><time>2026-03-22T07:56:16.152Z</time></trkpt><trkpt lat="45.8788533" lon="8.6915033"><ele>338.8</ele><time>2026-03-22T07:56:17.152Z</time></trkpt><trkpt lat="45.87877" lon="8.69145"><ele>340.0</ele><time>2026-03-22T07:56:18.153Z</time></trkpt><trkpt lat="45.8787" lon="8.6914033"><ele>340.0</ele><time>2026-03-22T07:56:19.152Z</time></trkpt><trkpt lat="45.8786383" lon="8.6913567"><ele>340.0</ele><time>2026-03-22T07:56:20.152Z</time></trkpt><trkpt lat="45.8785567" lon="8.6912667"><ele>340.0</ele><time>2026-03-22T07:56:22.152Z</time></trkpt><trkpt lat="45.878495" lon="8.691215"><ele>340.0</ele><time>2026-03-22T07:56:23.152Z</time></trkpt><trkpt lat="45.8784383" lon="8.6911683"><ele>340.0</ele><time>2026-03-22T07:56:24.152Z</time></trkpt><trkpt lat="45.878375" lon="8.6911267"><ele>340.0</ele><time>2026-03-22T07:56:25.152Z</time></trkpt><trkpt lat="45.8783183" lon="8.6910867"><ele>340.0</ele><time>2026-03-22T07:56:26.152Z</time></trkpt><trkpt lat="45.87826" lon="8.6910467"><ele>342.2</ele><time>2026-03-22T07:56:27.152Z</time></trkpt><trkpt lat="45.8781983" lon="8.6910133"><ele>344.4</ele><time>2026-03-22T07:56:28.153Z</time></trkpt><trkpt lat="45.8781183" lon="8.6909517"><ele>346.6</ele><time>2026-03-22T07:56:30.152Z</time></trkpt><trkpt lat="45.8780517" lon="8.6908683"><ele>348.8</ele><time>2026-03-22T07:56:32.152Z</time></trkpt><trkpt lat="45.8780117" lon="8.690725"><ele>351.0</ele><time>2026-03-22T07:56:35.153Z</time></trkpt><trkpt lat="45.87796" lon="8.690575"><ele>351.0</ele><time>2026-03-22T07:56:37.152Z</time></trkpt><trkpt lat="45.8779267" lon="8.6904967"><ele>351.0</ele><time>2026-03-22T07:56:38.153Z</time></trkpt><trkpt lat="45.8778467" lon="8.69036"><ele>351.0</ele><time>2026-03-22T07:56:40.153Z</time></trkpt><trkpt lat="45.8778" lon="8.6902867"><ele>351.0</ele><time>2026-03-22T07:56:41.153Z</time></trkpt><trkpt lat="45.877745" lon="8.6902133"><ele>351.0</ele><time>2026-03-22T07:56:42.152Z</time></trkpt><trkpt lat="45.8776833" lon="8.6901267"><ele>351.0</ele><time>2026-03-22T07:56:43.152Z</time></trkpt><trkpt lat="45.8776317" lon="8.6900417"><ele>354.6666666666667</ele><time>2026-03-22T07:56:44.152Z</time></trkpt><trkpt lat="45.8775867" lon="8.68997"><ele>358.3333333333333</ele><time>2026-03-22T07:56:45.152Z</time></trkpt><trkpt lat="45.8775433" lon="8.689895"><ele>362.0</ele><time>2026-03-22T07:56:46.152Z</time></trkpt><trkpt lat="45.8775017" lon="8.6898183"><ele>365.66666666666663</ele><time>2026-03-22T07:56:47.152Z</time></trkpt><trkpt lat="45.87745" lon="8.6896767"><ele>369.3333333333333</ele><time>2026-03-22T07:56:49.152Z</time></trkpt><trkpt lat="45.8773983" lon="8.6895633"><ele>373.0</ele><time>2026-03-22T07:56:51.152Z</time></trkpt><trkpt lat="45.8773433" lon="8.6894667"><ele>373.0</ele><time>2026-03-22T07:56:53.153Z</time></trkpt><trkpt lat="45.877295" lon="8.6894033"><ele>373.0</ele><time>2026-03-22T07:56:55.153Z</time></trkpt><trkpt lat="45.87721" lon="8.6893483"><ele>373.0</ele><time>2026-03-22T07:57:02.152Z</time></trkpt><trkpt lat="45.877165" lon="8.6894317"><ele>373.0</ele><time>2026-03-22T07:57:08.152Z</time></trkpt><trkpt lat="45.8771767" lon="8.6895817"><ele>373.0</ele><time>2026-03-22T07:57:10.153Z</time></trkpt><trkpt lat="45.87721" lon="8.6897267"><ele>373.0</ele><time>2026-03-22T07:57:12.152Z</time></trkpt><trkpt lat="45.8772367" lon="8.6898617"><ele>373.0</ele><time>2026-03-22T07:57:14.153Z</time></trkpt><trkpt lat="45.8772417" lon="8.689985"><ele>373.0</ele><time>2026-03-22T07:57:16.152Z</time></trkpt><trkpt lat="45.8772683" lon="8.6901167"><ele>373.0</ele><time>2026-03-22T07:57:18.153Z</time></trkpt><trkpt lat="45.87728" lon="8.690265"><ele>373.0</ele><time>2026-03-22T07:57:20.152Z</time></trkpt><trkpt lat="45.8772967" lon="8.6904417"><ele>373.0</ele><time>2026-03-22T07:57:22.152Z</time></trkpt><trkpt lat="45.8772917" lon="8.6905417"><ele>375.2</ele><time>2026-03-22T07:57:23.153Z</time></trkpt><trkpt lat="45.87729" lon="8.69066"><ele>377.4</ele><time>2026-03-22T07:57:24.152Z</time></trkpt><trkpt lat="45.8772833" lon="8.690775"><ele>379.59999999999997</ele><time>2026-03-22T07:57:25.152Z</time></trkpt><trkpt lat="45.8772533" lon="8.6909583"><ele>381.79999999999995</ele><time>2026-03-22T07:57:27.152Z</time></trkpt><trkpt lat="45.8771783" lon="8.691135"><ele>384.0</ele><time>2026-03-22T07:57:29.152Z</time></trkpt><trkpt lat="45.87714" lon="8.6912133"><ele>385.79999999999995</ele><time>2026-03-22T07:57:30.152Z</time></trkpt><trkpt lat="45.8770767" lon="8.691315"><ele>387.59999999999997</ele><time>2026-03-22T07:57:32.152Z</time></trkpt><trkpt lat="45.8770533" lon="8.6914183"><ele>389.4</ele><time>2026-03-22T07:57:36.152Z</time></trkpt><trkpt lat="45.8770917" lon="8.6915133"><ele>391.2</ele><time>2026-03-22T07:57:38.152Z</time></trkpt><trkpt lat="45.87718" lon="8.69166"><ele>393.0</ele><time>2026-03-22T07:57:40.152Z</time></trkpt><trkpt lat="45.8772367" lon="8.691745"><ele>393.0</ele><time>2026-03-22T07:57:41.152Z</time></trkpt><trkpt lat="45.877285" lon="8.6918267"><ele>393.0</ele><time>2026-03-22T07:57:42.152Z</time></trkpt><trkpt lat="45.87733" lon="8.6919283"><ele>393.0</ele><time>2026-03-22T07:57:43.152Z</time></trkpt><trkpt lat="45.8773767" lon="8.6920333"><ele>393.0</ele><time>2026-03-22T07:57:44.153Z</time></trkpt><trkpt lat="45.877425" lon="8.6921383"><ele>393.0</ele><time>2026-03-22T07:57:45.153Z</time></trkpt><trkpt lat="45.8774683" lon="8.6922433"><ele>393.0</ele><time>2026-03-22T07:57:46.152Z</time></trkpt><trkpt lat="45.877515" lon="8.6923417"><ele>392.6666666666667</ele><time>2026-03-22T07:57:47.152Z</time></trkpt><trkpt lat="45.87757" lon="8.6924383"><ele>392.33333333333337</ele><time>2026-03-22T07:57:48.152Z</time></trkpt><trkpt lat="45.8776117" lon="8.69252"><ele>392.0</ele><time>2026-03-22T07:57:49.152Z</time></trkpt><trkpt lat="45.8776483" lon="8.6926083"><ele>391.6666666666667</ele><time>2026-03-22T07:57:50.152Z</time></trkpt><trkpt lat="45.8776867" lon="8.6927017"><ele>391.33333333333337</ele><time>2026-03-22T07:57:51.153Z</time></trkpt><trkpt lat="45.8777167" lon="8.6927933"><ele>391.0</ele><time>2026-03-22T07:57:52.153Z</time></trkpt><trkpt lat="45.8777483" lon="8.6929017"><ele>391.00000000000006</ele><time>2026-03-22T07:57:53.152Z</time></trkpt><trkpt lat="45.8777817" lon="8.693005"><ele>391.0</ele><time>2026-03-22T07:57:54.153Z</time></trkpt><trkpt lat="45.8778133" lon="8.6931033"><ele>391.0</ele><time>2026-03-22T07:57:55.153Z</time></trkpt><trkpt lat="45.8778483" lon="8.6931967"><ele>391.0</ele><time>2026-03-22T07:57:56.152Z</time></trkpt><trkpt lat="45.8779117" lon="8.69332"><ele>391.00000000000006</ele><time>2026-03-22T07:57:58.153Z</time></trkpt><trkpt lat="45.87795" lon="8.693395"><ele>391.0</ele><time>2026-03-22T07:57:59.152Z</time></trkpt><trkpt lat="45.878025" lon="8.6935283"><ele>391.83333333333337</ele><time>2026-03-22T07:58:01.152Z</time></trkpt><trkpt lat="45.8780633" lon="8.6936117"><ele>392.6666666666667</ele><time>2026-03-22T07:58:02.152Z</time></trkpt><trkpt lat="45.8780967" lon="8.6937083"><ele>393.5</ele><time>2026-03-22T07:58:03.153Z</time></trkpt><trkpt lat="45.87812" lon="8.6938067"><ele>394.33333333333337</ele><time>2026-03-22T07:58:04.152Z</time></trkpt><trkpt lat="45.878155" lon="8.69391"><ele>395.1666666666667</ele><time>2026-03-22T07:58:05.152Z</time></trkpt><trkpt lat="45.8782033" lon="8.6940383"><ele>396.0</ele><time>2026-03-22T07:58:07.153Z</time></trkpt><trkpt lat="45.8782567" lon="8.6941867"><ele>396.0</ele><time>2026-03-22T07:58:09.153Z</time></trkpt><trkpt lat="45.878285" lon="8.6942983"><ele>396.0</ele><time>2026-03-22T07:58:10.152Z</time></trkpt><trkpt lat="45.8783283" lon="8.6944017"><ele>396.0</ele><time>2026-03-22T07:58:11.152Z</time></trkpt><trkpt lat="45.878385" lon="8.69452"><ele>396.0</ele><time>2026-03-22T07:58:12.153Z</time></trkpt><trkpt lat="45.8784433" lon="8.6946433"><ele>396.0</ele><time>2026-03-22T07:58:13.152Z</time></trkpt><trkpt lat="45.8785033" lon="8.6947667"><ele>395.25</ele><time>2026-03-22T07:58:14.152Z</time></trkpt><trkpt lat="45.8785667" lon="8.6949"><ele>394.5</ele><time>2026-03-22T07:58:15.152Z</time></trkpt><trkpt lat="45.8786367" lon="8.6950333"><ele>393.75</ele><time>2026-03-22T07:58:16.152Z</time></trkpt><trkpt lat="45.878715" lon="8.6951683"><ele>393.0</ele><time>2026-03-22T07:58:17.152Z</time></trkpt><trkpt lat="45.8787967" lon="8.6952967"><ele>393.0</ele><time>2026-03-22T07:58:18.152Z</time></trkpt><trkpt lat="45.8788783" lon="8.6954167"><ele>393.0</ele><time>2026-03-22T07:58:19.153Z</time></trkpt><trkpt lat="45.8789533" lon="8.69553"><ele>393.0</ele><time>2026-03-22T07:58:20.152Z</time></trkpt><trkpt lat="45.8790267" lon="8.6956483"><ele>393.0</ele><time>2026-03-22T07:58:21.152Z</time></trkpt><trkpt lat="45.8790917" lon="8.6957417"><ele>393.0</ele><time>2026-03-22T07:58:22.152Z</time></trkpt><trkpt lat="45.8791567" lon="8.6958317"><ele>393.00000000000006</ele><time>2026-03-22T07:58:23.152Z</time></trkpt><trkpt lat="45.8792033" lon="8.6959167"><ele>393.0</ele><time>2026-03-22T07:58:24.152Z</time></trkpt><trkpt lat="45.879245" lon="8.6960083"><ele>393.0</ele><time>2026-03-22T07:58:25.153Z</time></trkpt><trkpt lat="45.879275" lon="8.6960967"><ele>393.0</ele><time>2026-03-22T07:58:26.152Z</time></trkpt><trkpt lat="45.8792917" lon="8.696205"><ele>393.0</ele><time>2026-03-22T07:58:27.152Z</time></trkpt><trkpt lat="45.8793" lon="8.69631"><ele>393.00000000000006</ele><time>2026-03-22T07:58:28.152Z</time></trkpt><trkpt lat="45.879305" lon="8.6964017"><ele>393.0</ele><time>2026-03-22T07:58:29.152Z</time></trkpt><trkpt lat="45.8792967" lon="8.696555"><ele>390.0</ele><time>2026-03-22T07:58:31.153Z</time></trkpt><trkpt lat="45.87929" lon="8.6966633"><ele>387.0</ele><time>2026-03-22T07:58:32.152Z</time></trkpt><trkpt lat="45.8793" lon="8.6967967"><ele>384.0</ele><time>2026-03-22T07:58:33.152Z</time></trkpt><trkpt lat="45.8793183" lon="8.696955"><ele>381.0</ele><time>2026-03-22T07:58:34.152Z</time></trkpt><trkpt lat="45.8793383" lon="8.6971"><ele>378.0</ele><time>2026-03-22T07:58:35.152Z</time></trkpt><trkpt lat="45.8793633" lon="8.697225"><ele>378.0</ele><time>2026-03-22T07:58:36.153Z</time></trkpt><trkpt lat="45.87938" lon="8.69733"><ele>378.0</ele><time>2026-03-22T07:58:37.152Z</time></trkpt><trkpt lat="45.8793733" lon="8.6974917"><ele>378.0</ele><time>2026-03-22T07:58:39.152Z</time></trkpt><trkpt lat="45.87943" lon="8.697565"><ele>378.0</ele><time>2026-03-22T07:58:45.152Z</time></trkpt><trkpt lat="45.879505" lon="8.6975567"><ele>378.0</ele><time>2026-03-22T07:58:47.152Z</time></trkpt><trkpt lat="45.87959" lon="8.6975767"><ele>378.0</ele><time>2026-03-22T07:58:49.152Z</time></trkpt><trkpt lat="45.8796667" lon="8.6976033"><ele>378.0</ele><time>2026-03-22T07:58:51.153Z</time></trkpt><trkpt lat="45.8797517" lon="8.69763"><ele>378.0</ele><time>2026-03-22T07:58:53.152Z</time></trkpt><trkpt lat="45.8798183" lon="8.6976517"><ele>378.0</ele><time>2026-03-22T07:58:55.153Z</time></trkpt><trkpt lat="45.879895" lon="8.6976967"><ele>378.0</ele><time>2026-03-22T07:58:59.152Z</time></trkpt><trkpt lat="45.8799567" lon="8.6977583"><ele>378.0</ele><time>2026-03-22T07:59:03.153Z</time></trkpt><trkpt lat="45.8800017" lon="8.697845"><ele>378.0</ele><time>2026-03-22T07:59:05.152Z</time></trkpt><trkpt lat="45.8800467" lon="8.6979217"><ele>378.5</ele><time>2026-03-22T07:59:07.152Z</time></trkpt><trkpt lat="45.8800783" lon="8.698025"><ele>379.0</ele><time>2026-03-22T07:59:09.152Z</time></trkpt><trkpt lat="45.8801117" lon="8.698115"><ele>379.5</ele><time>2026-03-22T07:59:11.152Z</time></trkpt><trkpt lat="45.8801583" lon="8.6982283"><ele>380.0</ele><time>2026-03-22T07:59:14.152Z</time></trkpt><trkpt lat="45.8802133" lon="8.6983367"><ele>380.5</ele><time>2026-03-22T07:59:17.152Z</time></trkpt><trkpt lat="45.88024" lon="8.698425"><ele>381.0</ele><time>2026-03-22T07:59:19.152Z</time></trkpt><trkpt lat="45.880255" lon="8.69853"><ele>377.1666666666667</ele><time>2026-03-22T07:59:21.152Z</time></trkpt><trkpt lat="45.88026" lon="8.6986467"><ele>373.3333333333333</ele><time>2026-03-22T07:59:23.152Z</time></trkpt><trkpt lat="45.8802583" lon="8.69879"><ele>369.5</ele><time>2026-03-22T07:59:25.152Z</time></trkpt><trkpt lat="45.88026" lon="8.6989417"><ele>365.66666666666663</ele><time>2026-03-22T07:59:27.153Z</time></trkpt><trkpt lat="45.8802817" lon="8.69906"><ele>361.8333333333333</ele><time>2026-03-22T07:59:29.153Z</time></trkpt><trkpt lat="45.8803133" lon="8.69915"><ele>358.0</ele><time>2026-03-22T07:59:31.152Z</time></trkpt><trkpt lat="45.880355" lon="8.6992667"><ele>358.0</ele><time>2026-03-22T07:59:33.153Z</time></trkpt><trkpt lat="45.8803983" lon="8.6994033"><ele>358.0</ele><time>2026-03-22T07:59:35.152Z</time></trkpt><trkpt lat="45.8804583" lon="8.699545"><ele>358.0</ele><time>2026-03-22T07:59:37.152Z</time></trkpt><trkpt lat="45.8805167" lon="8.6996983"><ele>358.0</ele><time>2026-03-22T07:59:39.152Z</time></trkpt><trkpt lat="45.8805883" lon="8.699855"><ele>357.59999999999997</ele><time>2026-03-22T07:59:41.152Z</time></trkpt><trkpt lat="45.8806267" lon="8.6999283"><ele>357.2</ele><time>2026-03-22T07:59:42.152Z</time></trkpt><trkpt lat="45.880715" lon="8.7000383"><ele>356.8</ele><time>2026-03-22T07:59:44.153Z</time></trkpt><trkpt lat="45.8808283" lon="8.7001367"><ele>356.4</ele><time>2026-03-22T07:59:46.152Z</time></trkpt><trkpt lat="45.880905" lon="8.700185"><ele>356.0</ele><time>2026-03-22T07:59:47.152Z</time></trkpt><trkpt lat="45.88098" lon="8.7002267"><ele>356.4</ele><time>2026-03-22T07:59:48.152Z</time></trkpt><trkpt lat="45.88108" lon="8.70027"><ele>356.8</ele><time>2026-03-22T07:59:49.152Z</time></trkpt><trkpt lat="45.8811883" lon="8.7003183"><ele>357.2</ele><time>2026-03-22T07:59:50.152Z</time></trkpt><trkpt lat="45.88128" lon="8.70036"><ele>357.59999999999997</ele><time>2026-03-22T07:59:51.153Z</time></trkpt><trkpt lat="45.8813717" lon="8.7003917"><ele>358.0</ele><time>2026-03-22T07:59:52.152Z</time></trkpt><trkpt lat="45.8814667" lon="8.70042"><ele>358.0</ele><time>2026-03-22T07:59:53.152Z</time></trkpt><trkpt lat="45.8815633" lon="8.7004567"><ele>358.0</ele><time>2026-03-22T07:59:54.152Z</time></trkpt><trkpt lat="45.8816817" lon="8.7005217"><ele>358.0</ele><time>2026-03-22T07:59:55.152Z</time></trkpt><trkpt lat="45.8818" lon="8.700595"><ele>358.0</ele><time>2026-03-22T07:59:56.152Z</time></trkpt><trkpt lat="45.88191" lon="8.7006633"><ele>357.16666666666663</ele><time>2026-03-22T07:59:57.152Z</time></trkpt><trkpt lat="45.8820033" lon="8.7007517"><ele>356.3333333333333</ele><time>2026-03-22T07:59:58.153Z</time></trkpt><trkpt lat="45.882085" lon="8.7007967"><ele>355.5</ele><time>2026-03-22T07:59:59.152Z</time></trkpt><trkpt lat="45.8821667" lon="8.7008283"><ele>354.6666666666667</ele><time>2026-03-22T08:00:00.153Z</time></trkpt><trkpt lat="45.88224" lon="8.7008933"><ele>353.83333333333337</ele><time>2026-03-22T08:00:01.153Z</time></trkpt><trkpt lat="45.8822967" lon="8.7009367"><ele>353.0</ele><time>2026-03-22T08:00:02.152Z</time></trkpt><trkpt lat="45.8823683" lon="8.700965"><ele>353.0</ele><time>2026-03-22T08:00:04.152Z</time></trkpt><trkpt lat="45.882355" lon="8.7008317"><ele>353.0</ele><time>2026-03-22T08:00:16.153Z</time></trkpt><trkpt lat="45.88228" lon="8.700745"><ele>353.0</ele><time>2026-03-22T08:00:18.152Z</time></trkpt><trkpt lat="45.8822383" lon="8.70063"><ele>353.0</ele><time>2026-03-22T08:00:20.152Z</time></trkpt><trkpt lat="45.8822367" lon="8.7004833"><ele>353.0</ele><time>2026-03-22T08:00:22.153Z</time></trkpt><trkpt lat="45.8822517" lon="8.7003933"><ele>353.0</ele><time>2026-03-22T08:00:23.152Z</time></trkpt><trkpt lat="45.8822567" lon="8.70024"><ele>353.59999999999997</ele><time>2026-03-22T08:00:25.153Z</time></trkpt><trkpt lat="45.88226" lon="8.70012"><ele>354.2</ele><time>2026-03-22T08:00:27.152Z</time></trkpt><trkpt lat="45.882195" lon="8.700015"><ele>354.8</ele><time>2026-03-22T08:00:32.152Z</time></trkpt><trkpt lat="45.8821033" lon="8.6999133"><ele>355.4</ele><time>2026-03-22T08:00:33.152Z</time></trkpt><trkpt lat="45.88202" lon="8.69982"><ele>356.0</ele><time>2026-03-22T08:00:34.152Z</time></trkpt><trkpt lat="45.8819067" lon="8.6997133"><ele>356.0</ele><time>2026-03-22T08:00:35.153Z</time></trkpt><trkpt lat="45.8818117" lon="8.6996383"><ele>356.0</ele><time>2026-03-22T08:00:36.152Z</time></trkpt><trkpt lat="45.8817017" lon="8.699565"><ele>356.0</ele><time>2026-03-22T08:00:37.153Z</time></trkpt><trkpt lat="45.8816017" lon="8.6995017"><ele>356.0</ele><time>2026-03-22T08:00:38.152Z</time></trkpt><trkpt lat="45.88151" lon="8.699455"><ele>356.0</ele><time>2026-03-22T08:00:39.152Z</time></trkpt><trkpt lat="45.881435" lon="8.6993683"><ele>356.6</ele><time>2026-03-22T08:00:40.153Z</time></trkpt><trkpt lat="45.8813667" lon="8.6992733"><ele>357.20000000000005</ele><time>2026-03-22T08:00:41.152Z</time></trkpt><trkpt lat="45.881305" lon="8.699185"><ele>357.79999999999995</ele><time>2026-03-22T08:00:42.152Z</time></trkpt><trkpt lat="45.8812533" lon="8.6990867"><ele>358.4</ele><time>2026-03-22T08:00:43.152Z</time></trkpt><trkpt lat="45.881205" lon="8.6989683"><ele>359.0</ele><time>2026-03-22T08:00:44.152Z</time></trkpt><trkpt lat="45.881155" lon="8.6988283"><ele>359.0</ele><time>2026-03-22T08:00:45.152Z</time></trkpt><trkpt lat="45.8811083" lon="8.6987033"><ele>359.0</ele><time>2026-03-22T08:00:46.152Z</time></trkpt><trkpt lat="45.8810767" lon="8.698605"><ele>359.0</ele><time>2026-03-22T08:00:47.153Z</time></trkpt><trkpt lat="45.8810583" lon="8.6985133"><ele>359.0</ele><time>2026-03-22T08:00:48.152Z</time></trkpt><trkpt lat="45.881075" lon="8.698345"><ele>359.0</ele><time>2026-03-22T08:00:50.153Z</time></trkpt><trkpt lat="45.881105" lon="8.69823"><ele>359.0</ele><time>2026-03-22T08:00:51.153Z</time></trkpt><trkpt lat="45.8811467" lon="8.6981317"><ele>359.8571428571429</ele><time>2026-03-22T08:00:52.152Z</time></trkpt><trkpt lat="45.8811817" lon="8.698025"><ele>360.7142857142857</ele><time>2026-03-22T08:00:53.152Z</time></trkpt><trkpt lat="45.8812" lon="8.6979133"><ele>361.57142857142856</ele><time>2026-03-22T08:00:54.152Z</time></trkpt><trkpt lat="45.88121" lon="8.697805"><ele>362.42857142857144</ele><time>2026-03-22T08:00:55.153Z</time></trkpt><trkpt lat="45.88121" lon="8.6977033"><ele>363.2857142857143</ele><time>2026-03-22T08:00:56.153Z</time></trkpt><trkpt lat="45.881205" lon="8.6976083"><ele>364.14285714285717</ele><time>2026-03-22T08:00:57.152Z</time></trkpt><trkpt lat="45.8811967" lon="8.6975083"><ele>365.0</ele><time>2026-03-22T08:00:58.152Z</time></trkpt><trkpt lat="45.8811867" lon="8.6973967"><ele>364.75</ele><time>2026-03-22T08:00:59.152Z</time></trkpt><trkpt lat="45.8811783" lon="8.6972617"><ele>364.5</ele><time>2026-03-22T08:01:00.153Z</time></trkpt><trkpt lat="45.8811817" lon="8.697085"><ele>364.25</ele><time>2026-03-22T08:01:01.152Z</time></trkpt><trkpt lat="45.8811917" lon="8.6968883"><ele>364.0</ele><time>2026-03-22T08:01:02.153Z</time></trkpt><trkpt lat="45.88121" lon="8.69671"><ele>364.0</ele><time>2026-03-22T08:01:03.152Z</time></trkpt><trkpt lat="45.8812167" lon="8.6965483"><ele>364.0</ele><time>2026-03-22T08:01:04.152Z</time></trkpt><trkpt lat="45.8812167" lon="8.6964067"><ele>364.0</ele><time>2026-03-22T08:01:05.153Z</time></trkpt><trkpt lat="45.881215" lon="8.696285"><ele>364.0</ele><time>2026-03-22T08:01:06.152Z</time></trkpt><trkpt lat="45.8812033" lon="8.6961917"><ele>364.0</ele><time>2026-03-22T08:01:07.152Z</time></trkpt><trkpt lat="45.8811617" lon="8.696055"><ele>363.8333333333333</ele><time>2026-03-22T08:01:09.152Z</time></trkpt><trkpt lat="45.8811467" lon="8.6959517"><ele>363.66666666666663</ele><time>2026-03-22T08:01:10.153Z</time></trkpt><trkpt lat="45.88113" lon="8.6958217"><ele>363.5</ele><time>2026-03-22T08:01:11.152Z</time></trkpt><trkpt lat="45.8811133" lon="8.6956933"><ele>363.3333333333333</ele><time>2026-03-22T08:01:12.152Z</time></trkpt><trkpt lat="45.8810983" lon="8.6955783"><ele>363.1666666666667</ele><time>2026-03-22T08:01:13.152Z</time></trkpt><trkpt lat="45.8810983" lon="8.69546"><ele>363.0</ele><time>2026-03-22T08:01:14.152Z</time></trkpt><trkpt lat="45.8811183" lon="8.69535"><ele>362.59999999999997</ele><time>2026-03-22T08:01:15.153Z</time></trkpt><trkpt lat="45.88114" lon="8.6952317"><ele>362.2</ele><time>2026-03-22T08:01:16.152Z</time></trkpt><trkpt lat="45.8811667" lon="8.6950933"><ele>361.8</ele><time>2026-03-22T08:01:17.153Z</time></trkpt><trkpt lat="45.8811833" lon="8.694925"><ele>361.4</ele><time>2026-03-22T08:01:18.153Z</time></trkpt><trkpt lat="45.8811867" lon="8.6947283"><ele>361.0</ele><time>2026-03-22T08:01:19.153Z</time></trkpt><trkpt lat="45.88118" lon="8.6945467"><ele>361.0</ele><time>2026-03-22T08:01:20.152Z</time></trkpt><trkpt lat="45.8811767" lon="8.6944217"><ele>361.0</ele><time>2026-03-22T08:01:21.152Z</time></trkpt><trkpt lat="45.8811633" lon="8.6943117"><ele>361.0</ele><time>2026-03-22T08:01:22.152Z</time></trkpt><trkpt lat="45.8811067" lon="8.694165"><ele>361.0</ele><time>2026-03-22T08:01:24.153Z</time></trkpt><trkpt lat="45.88108" lon="8.6940617"><ele>361.0</ele><time>2026-03-22T08:01:25.152Z</time></trkpt><trkpt lat="45.88105" lon="8.693935"><ele>360.6</ele><time>2026-03-22T08:01:26.152Z</time></trkpt><trkpt lat="45.881015" lon="8.693785"><ele>360.20000000000005</ele><time>2026-03-22T08:01:27.153Z</time></trkpt><trkpt lat="45.8809867" lon="8.6936533"><ele>359.79999999999995</ele><time>2026-03-22T08:01:28.152Z</time></trkpt><trkpt lat="45.8809633" lon="8.6935267"><ele>359.4</ele><time>2026-03-22T08:01:29.152Z</time></trkpt><trkpt lat="45.8809367" lon="8.6934167"><ele>359.0</ele><time>2026-03-22T08:01:31.152Z</time></trkpt><trkpt lat="45.880915" lon="8.6932717"><ele>356.1666666666667</ele><time>2026-03-22T08:01:33.152Z</time></trkpt><trkpt lat="45.8808983" lon="8.69317"><ele>353.33333333333337</ele><time>2026-03-22T08:01:34.152Z</time></trkpt><trkpt lat="45.8808817" lon="8.6930517"><ele>350.5</ele><time>2026-03-22T08:01:35.152Z</time></trkpt><trkpt lat="45.8808617" lon="8.692925"><ele>347.6666666666667</ele><time>2026-03-22T08:01:36.152Z</time></trkpt><trkpt lat="45.8808517" lon="8.6927983"><ele>344.8333333333333</ele><time>2026-03-22T08:01:37.153Z</time></trkpt><trkpt lat="45.880845" lon="8.6926867"><ele>342.0</ele><time>2026-03-22T08:01:38.152Z</time></trkpt><trkpt lat="45.8808467" lon="8.692595"><ele>342.0</ele><time>2026-03-22T08:01:39.152Z</time></trkpt><trkpt lat="45.88086" lon="8.6924583"><ele>342.0</ele><time>2026-03-22T08:01:41.152Z</time></trkpt><trkpt lat="45.8808967" lon="8.6923683"><ele>342.0</ele><time>2026-03-22T08:01:43.153Z</time></trkpt><trkpt lat="45.8809583" lon="8.6923233"><ele>342.0</ele><time>2026-03-22T08:01:45.153Z</time></trkpt><trkpt lat="45.8810467" lon="8.6922783"><ele>342.0</ele><time>2026-03-22T08:01:47.152Z</time></trkpt><trkpt lat="45.88112" lon="8.6922867"><ele>342.0</ele><time>2026-03-22T08:01:50.152Z</time></trkpt><trkpt lat="45.881225" lon="8.6922283"><ele>344.5</ele><time>2026-03-22T08:02:31.152Z</time></trkpt><trkpt lat="45.88129" lon="8.692225"><ele>347.0</ele><time>2026-03-22T08:02:33.152Z</time></trkpt><trkpt lat="45.8813683" lon="8.692215"><ele>349.5</ele><time>2026-03-22T08:02:39.152Z</time></trkpt><trkpt lat="45.881455" lon="8.6921833"><ele>352.0</ele><time>2026-03-22T08:02:42.152Z</time></trkpt><trkpt lat="45.8815167" lon="8.69214"><ele>354.5</ele><time>2026-03-22T08:02:44.152Z</time></trkpt><trkpt lat="45.8815583" lon="8.692045"><ele>357.0</ele><time>2026-03-22T08:02:46.152Z</time></trkpt><trkpt lat="45.88159" lon="8.6919317"><ele>356.3333333333333</ele><time>2026-03-22T08:02:48.153Z</time></trkpt><trkpt lat="45.881585" lon="8.691835"><ele>355.6666666666667</ele><time>2026-03-22T08:02:50.152Z</time></trkpt><trkpt lat="45.8815767" lon="8.6917317"><ele>355.0</ele><time>2026-03-22T08:02:52.152Z</time></trkpt><trkpt lat="45.8815683" lon="8.6916317"><ele>354.33333333333337</ele><time>2026-03-22T08:02:54.152Z</time></trkpt><trkpt lat="45.8815667" lon="8.6915317"><ele>353.6666666666667</ele><time>2026-03-22T08:02:56.153Z</time></trkpt><trkpt lat="45.8815867" lon="8.69143"><ele>353.0</ele><time>2026-03-22T08:03:05.153Z</time></trkpt><trkpt lat="45.8815517" lon="8.6912967"><ele>353.0</ele><time>2026-03-22T08:03:06.152Z</time></trkpt><trkpt lat="45.88162" lon="8.6911833"><ele>353.0</ele><time>2026-03-22T08:03:19.152Z</time></trkpt><trkpt lat="45.881705" lon="8.6911883"><ele>353.0</ele><time>2026-03-22T08:03:21.153Z</time></trkpt><trkpt lat="45.8817617" lon="8.6912283"><ele>353.0</ele><time>2026-03-22T08:03:22.153Z</time></trkpt><trkpt lat="45.8818383" lon="8.691305"><ele>353.0</ele><time>2026-03-22T08:03:23.153Z</time></trkpt><trkpt lat="45.8819367" lon="8.6913933"><ele>349.5</ele><time>2026-03-22T08:03:24.152Z</time></trkpt><trkpt lat="45.8820083" lon="8.6915133"><ele>346.0</ele><time>2026-03-22T08:03:25.153Z</time></trkpt><trkpt lat="45.8820867" lon="8.69165"><ele>342.5</ele><time>2026-03-22T08:03:26.153Z</time></trkpt><trkpt lat="45.8821667" lon="8.6917767"><ele>339.0</ele><time>2026-03-22T08:03:27.152Z</time></trkpt><trkpt lat="45.88224" lon="8.69189"><ele>339.79999999999995</ele><time>2026-03-22T08:03:28.152Z</time></trkpt><trkpt lat="45.8823117" lon="8.6919983"><ele>340.59999999999997</ele><time>2026-03-22T08:03:29.152Z</time></trkpt><trkpt lat="45.8823783" lon="8.6920867"><ele>341.4</ele><time>2026-03-22T08:03:30.152Z</time></trkpt><trkpt lat="45.882435" lon="8.6921667"><ele>342.2</ele><time>2026-03-22T08:03:31.153Z</time></trkpt><trkpt lat="45.8824933" lon="8.6922283"><ele>343.0</ele><time>2026-03-22T08:03:32.153Z</time></trkpt><trkpt lat="45.8825883" lon="8.69232"><ele>341.59999999999997</ele><time>2026-03-22T08:03:34.153Z</time></trkpt><trkpt lat="45.88271" lon="8.6922767"><ele>340.2</ele><time>2026-03-22T08:03:36.152Z</time></trkpt><trkpt lat="45.8828017" lon="8.6922133"><ele>338.8</ele><time>2026-03-22T08:03:37.152Z</time></trkpt><trkpt lat="45.88289" lon="8.692145"><ele>337.4</ele><time>2026-03-22T08:03:38.152Z</time></trkpt><trkpt lat="45.88298" lon="8.6920817"><ele>336.0</ele><time>2026-03-22T08:03:39.152Z</time></trkpt><trkpt lat="45.8830767" lon="8.6920117"><ele>336.0</ele><time>2026-03-22T08:03:40.152Z</time></trkpt><trkpt lat="45.8831533" lon="8.6919733"><ele>336.0</ele><time>2026-03-22T08:03:41.152Z</time></trkpt><trkpt lat="45.883225" lon="8.6919533"><ele>336.0</ele><time>2026-03-22T08:03:42.152Z</time></trkpt><trkpt lat="45.8832983" lon="8.6919717"><ele>336.0</ele><time>2026-03-22T08:03:43.152Z</time></trkpt><trkpt lat="45.8833667" lon="8.6920217"><ele>336.0</ele><time>2026-03-22T08:03:44.152Z</time></trkpt><trkpt lat="45.88345" lon="8.6921033"><ele>336.0</ele><time>2026-03-22T08:03:45.152Z</time></trkpt><trkpt lat="45.8835533" lon="8.6922233"><ele>335.8</ele><time>2026-03-22T08:03:46.153Z</time></trkpt><trkpt lat="45.8836583" lon="8.69235"><ele>335.6</ele><time>2026-03-22T08:03:47.152Z</time></trkpt><trkpt lat="45.8837533" lon="8.69245"><ele>335.4</ele><time>2026-03-22T08:03:48.152Z</time></trkpt><trkpt lat="45.8838333" lon="8.6925333"><ele>335.2</ele><time>2026-03-22T08:03:49.152Z</time></trkpt><trkpt lat="45.8839067" lon="8.692605"><ele>335.0</ele><time>2026-03-22T08:03:50.152Z</time></trkpt><trkpt lat="45.883975" lon="8.6926683"><ele>335.0</ele><time>2026-03-22T08:03:51.152Z</time></trkpt><trkpt lat="45.8841033" lon="8.6926717"><ele>335.0</ele><time>2026-03-22T08:03:53.152Z</time></trkpt><trkpt lat="45.8841767" lon="8.6926233"><ele>335.0</ele><time>2026-03-22T08:03:54.152Z</time></trkpt><trkpt lat="45.884245" lon="8.6925467"><ele>335.0</ele><time>2026-03-22T08:03:55.152Z</time></trkpt><trkpt lat="45.8843017" lon="8.6924633"><ele>335.0</ele><time>2026-03-22T08:03:56.153Z</time></trkpt><trkpt lat="45.88436" lon="8.6923933"><ele>335.33333333333337</ele><time>2026-03-22T08:03:57.152Z</time></trkpt><trkpt lat="45.8844233" lon="8.6923533"><ele>335.6666666666667</ele><time>2026-03-22T08:03:58.152Z</time></trkpt><trkpt lat="45.8844883" lon="8.69236"><ele>336.0</ele><time>2026-03-22T08:03:59.152Z</time></trkpt><trkpt lat="45.884565" lon="8.6923917"><ele>336.3333333333333</ele><time>2026-03-22T08:04:00.152Z</time></trkpt><trkpt lat="45.8846417" lon="8.692445"><ele>336.66666666666663</ele><time>2026-03-22T08:04:01.152Z</time></trkpt><trkpt lat="45.8847133" lon="8.6925017"><ele>337.0</ele><time>2026-03-22T08:04:02.153Z</time></trkpt><trkpt lat="45.8847783" lon="8.6925433"><ele>337.0</ele><time>2026-03-22T08:04:03.152Z</time></trkpt><trkpt lat="45.8848417" lon="8.6925567"><ele>337.0</ele><time>2026-03-22T08:04:04.152Z</time></trkpt><trkpt lat="45.8849" lon="8.6925117"><ele>337.0</ele><time>2026-03-22T08:04:05.152Z</time></trkpt><trkpt lat="45.8849583" lon="8.692425"><ele>337.0</ele><time>2026-03-22T08:04:06.152Z</time></trkpt><trkpt lat="45.8850217" lon="8.6923083"><ele>337.0</ele><time>2026-03-22T08:04:07.152Z</time></trkpt><trkpt lat="45.8850767" lon="8.6921617"><ele>337.0</ele><time>2026-03-22T08:04:08.153Z</time></trkpt><trkpt lat="45.88513" lon="8.6920283"><ele>338.40000000000003</ele><time>2026-03-22T08:04:09.152Z</time></trkpt><trkpt lat="45.885185" lon="8.6918933"><ele>339.8</ele><time>2026-03-22T08:04:10.152Z</time></trkpt><trkpt lat="45.8852467" lon="8.6917583"><ele>341.2</ele><time>2026-03-22T08:04:11.152Z</time></trkpt><trkpt lat="45.8853033" lon="8.69163"><ele>342.6</ele><time>2026-03-22T08:04:12.152Z</time></trkpt><trkpt lat="45.885355" lon="8.6915183"><ele>344.0</ele><time>2026-03-22T08:04:13.152Z</time></trkpt><trkpt lat="45.8854017" lon="8.69141"><ele>344.0</ele><time>2026-03-22T08:04:14.152Z</time></trkpt><trkpt lat="45.8854367" lon="8.6913083"><ele>344.0</ele><time>2026-03-22T08:04:15.152Z</time></trkpt><trkpt lat="45.8854683" lon="8.6912283"><ele>344.0</ele><time>2026-03-22T08:04:16.153Z</time></trkpt><trkpt lat="45.8855017" lon="8.691135"><ele>344.0</ele><time>2026-03-22T08:04:18.152Z</time></trkpt><trkpt lat="45.8855467" lon="8.6909833"><ele>344.0</ele><time>2026-03-22T08:04:29.153Z</time></trkpt><trkpt lat="45.8855867" lon="8.6908717"><ele>344.0</ele><time>2026-03-22T08:04:30.152Z</time></trkpt><trkpt lat="45.8856183" lon="8.6907633"><ele>344.6666666666667</ele><time>2026-03-22T08:04:31.152Z</time></trkpt><trkpt lat="45.8856483" lon="8.6906667"><ele>345.33333333333337</ele><time>2026-03-22T08:04:32.153Z</time></trkpt><trkpt lat="45.8856817" lon="8.69054"><ele>346.0</ele><time>2026-03-22T08:04:34.153Z</time></trkpt><trkpt lat="45.8857683" lon="8.6905067"><ele>346.6666666666667</ele><time>2026-03-22T08:04:38.152Z</time></trkpt><trkpt lat="45.8858783" lon="8.6905633"><ele>347.3333333333333</ele><time>2026-03-22T08:04:40.153Z</time></trkpt><trkpt lat="45.88594" lon="8.6905833"><ele>348.0</ele><time>2026-03-22T08:04:41.153Z</time></trkpt><trkpt lat="45.8860283" lon="8.6906133"><ele>349.79999999999995</ele><time>2026-03-22T08:04:43.152Z</time></trkpt><trkpt lat="45.8861333" lon="8.6906317"><ele>351.6</ele><time>2026-03-22T08:04:45.153Z</time></trkpt><trkpt lat="45.88621" lon="8.6905317"><ele>353.4</ele><time>2026-03-22T08:04:47.152Z</time></trkpt><trkpt lat="45.88627" lon="8.690415"><ele>355.20000000000005</ele><time>2026-03-22T08:04:49.152Z</time></trkpt><trkpt lat="45.886315" lon="8.6903117"><ele>357.0</ele><time>2026-03-22T08:04:52.152Z</time></trkpt><trkpt lat="45.8863056" lon="8.6902084"><ele>357.8</ele><time>2026-03-22T08:04:58.204Z</time></trkpt><trkpt lat="45.8862664" lon="8.6901326"><ele>358.6</ele><time>2026-03-22T08:04:59.231Z</time></trkpt><trkpt lat="45.8861954" lon="8.6900936"><ele>359.40000000000003</ele><time>2026-03-22T08:05:01.225Z</time></trkpt><trkpt lat="45.8861181" lon="8.6900786"><ele>360.20000000000005</ele><time>2026-03-22T08:05:03.219Z</time></trkpt><trkpt lat="45.886064" lon="8.6899829"><ele>361.0</ele><time>2026-03-22T08:05:04.183Z</time></trkpt><trkpt lat="45.8859477" lon="8.6898267"><ele>360.3333333333333</ele><time>2026-03-22T08:05:05.152Z</time></trkpt><trkpt lat="45.8858663" lon="8.6897379"><ele>359.66666666666663</ele><time>2026-03-22T08:05:06.153Z</time></trkpt><trkpt lat="45.8858087" lon="8.689671"><ele>359.0</ele><time>2026-03-22T08:05:07.152Z</time></trkpt><trkpt lat="45.8857526" lon="8.6896184"><ele>358.3333333333333</ele><time>2026-03-22T08:05:08.152Z</time></trkpt><trkpt lat="45.8856904" lon="8.6895465"><ele>357.6666666666667</ele><time>2026-03-22T08:05:10.152Z</time></trkpt><trkpt lat="45.8856967" lon="8.68943"><ele>357.0</ele><time>2026-03-22T08:05:13.152Z</time></trkpt><trkpt lat="45.8857317" lon="8.6893133"><ele>359.20000000000005</ele><time>2026-03-22T08:05:15.152Z</time></trkpt><trkpt lat="45.885775" lon="8.689195"><ele>361.4</ele><time>2026-03-22T08:05:17.152Z</time></trkpt><trkpt lat="45.8858017" lon="8.6890733"><ele>363.6</ele><time>2026-03-22T08:05:19.153Z</time></trkpt><trkpt lat="45.8857833" lon="8.688925"><ele>365.79999999999995</ele><time>2026-03-22T08:05:21.152Z</time></trkpt><trkpt lat="45.8857583" lon="8.6888383"><ele>368.0</ele><time>2026-03-22T08:05:22.152Z</time></trkpt><trkpt lat="45.885725" lon="8.6887"><ele>369.59999999999997</ele><time>2026-03-22T08:05:24.153Z</time></trkpt><trkpt lat="45.88573" lon="8.68851"><ele>371.2</ele><time>2026-03-22T08:05:26.153Z</time></trkpt><trkpt lat="45.88578" lon="8.6884133"><ele>372.8</ele><time>2026-03-22T08:05:28.152Z</time></trkpt><trkpt lat="45.8858267" lon="8.6882933"><ele>374.4</ele><time>2026-03-22T08:05:31.152Z</time></trkpt><trkpt lat="45.8858383" lon="8.6881533"><ele>376.0</ele><time>2026-03-22T08:05:33.152Z</time></trkpt><trkpt lat="45.8858217" lon="8.6880133"><ele>376.0</ele><time>2026-03-22T08:05:35.152Z</time></trkpt><trkpt lat="45.8858067" lon="8.6878867"><ele>376.0</ele><time>2026-03-22T08:05:37.152Z</time></trkpt><trkpt lat="45.8858017" lon="8.6877783"><ele>376.0</ele><time>2026-03-22T08:05:39.153Z</time></trkpt><trkpt lat="45.8858217" lon="8.6876417"><ele>376.0</ele><time>2026-03-22T08:05:41.152Z</time></trkpt><trkpt lat="45.8858567" lon="8.6875583"><ele>376.0</ele><time>2026-03-22T08:05:42.152Z</time></trkpt><trkpt lat="45.8859033" lon="8.68748"><ele>376.0</ele><time>2026-03-22T08:05:43.152Z</time></trkpt><trkpt lat="45.8859483" lon="8.6873717"><ele>377.20000000000005</ele><time>2026-03-22T08:05:45.152Z</time></trkpt><trkpt lat="45.88592" lon="8.6872167"><ele>378.40000000000003</ele><time>2026-03-22T08:05:48.152Z</time></trkpt><trkpt lat="45.8858583" lon="8.6871267"><ele>379.6</ele><time>2026-03-22T08:05:49.152Z</time></trkpt><trkpt lat="45.88578" lon="8.687025"><ele>380.8</ele><time>2026-03-22T08:05:50.152Z</time></trkpt><trkpt lat="45.8856967" lon="8.6869383"><ele>382.0</ele><time>2026-03-22T08:05:51.153Z</time></trkpt><trkpt lat="45.8855917" lon="8.68685"><ele>383.0</ele><time>2026-03-22T08:05:52.153Z</time></trkpt><trkpt lat="45.8854733" lon="8.6867583"><ele>384.0</ele><time>2026-03-22T08:05:53.152Z</time></trkpt><trkpt lat="45.88536" lon="8.6866533"><ele>385.0</ele><time>2026-03-22T08:05:54.152Z</time></trkpt><trkpt lat="45.88527" lon="8.6865667"><ele>386.0</ele><time>2026-03-22T08:05:55.153Z</time></trkpt><trkpt lat="45.8852067" lon="8.686455"><ele>385.99999999999994</ele><time>2026-03-22T08:05:56.152Z</time></trkpt><trkpt lat="45.88512" lon="8.6863767"><ele>386.0</ele><time>2026-03-22T08:05:57.152Z</time></trkpt><trkpt lat="45.8850467" lon="8.6863117"><ele>386.0</ele><time>2026-03-22T08:05:58.152Z</time></trkpt><trkpt lat="45.8849783" lon="8.686265"><ele>386.0</ele><time>2026-03-22T08:05:59.152Z</time></trkpt><trkpt lat="45.8849167" lon="8.6862267"><ele>385.99999999999994</ele><time>2026-03-22T08:06:00.152Z</time></trkpt><trkpt lat="45.88486" lon="8.6861817"><ele>386.0</ele><time>2026-03-22T08:06:01.152Z</time></trkpt><trkpt lat="45.8848117" lon="8.686115"><ele>384.66666666666663</ele><time>2026-03-22T08:06:02.152Z</time></trkpt><trkpt lat="45.8847817" lon="8.6860317"><ele>383.3333333333333</ele><time>2026-03-22T08:06:03.153Z</time></trkpt><trkpt lat="45.8847633" lon="8.685935"><ele>382.0</ele><time>2026-03-22T08:06:04.152Z</time></trkpt><trkpt lat="45.884745" lon="8.685835"><ele>380.66666666666663</ele><time>2026-03-22T08:06:05.152Z</time></trkpt><trkpt lat="45.8846967" lon="8.6856833"><ele>379.3333333333333</ele><time>2026-03-22T08:06:07.152Z</time></trkpt><trkpt lat="45.8846517" lon="8.685595"><ele>378.0</ele><time>2026-03-22T08:06:09.152Z</time></trkpt><trkpt lat="45.8846217" lon="8.6854733"><ele>378.0</ele><time>2026-03-22T08:06:11.153Z</time></trkpt><trkpt lat="45.884595" lon="8.6853883"><ele>378.0</ele><time>2026-03-22T08:06:12.152Z</time></trkpt><trkpt lat="45.884555" lon="8.6852333"><ele>378.0</ele><time>2026-03-22T08:06:14.152Z</time></trkpt><trkpt lat="45.884575" lon="8.6850417"><ele>378.0</ele><time>2026-03-22T08:06:16.152Z</time></trkpt><trkpt lat="45.884605" lon="8.6849033"><ele>378.0</ele><time>2026-03-22T08:06:17.152Z</time></trkpt><trkpt lat="45.884635" lon="8.6847567"><ele>378.2</ele><time>2026-03-22T08:06:18.153Z</time></trkpt><trkpt lat="45.884675" lon="8.6846"><ele>378.4</ele><time>2026-03-22T08:06:19.152Z</time></trkpt><trkpt lat="45.8847133" lon="8.6844517"><ele>378.59999999999997</ele><time>2026-03-22T08:06:20.152Z</time></trkpt><trkpt lat="45.8847533" lon="8.684305"><ele>378.79999999999995</ele><time>2026-03-22T08:06:21.152Z</time></trkpt><trkpt lat="45.8847867" lon="8.6841583"><ele>379.0</ele><time>2026-03-22T08:06:22.152Z</time></trkpt><trkpt lat="45.884815" lon="8.6840267"><ele>379.3333333333333</ele><time>2026-03-22T08:06:23.152Z</time></trkpt><trkpt lat="45.8848367" lon="8.6839067"><ele>379.66666666666663</ele><time>2026-03-22T08:06:24.152Z</time></trkpt><trkpt lat="45.8848617" lon="8.683805"><ele>380.0</ele><time>2026-03-22T08:06:25.153Z</time></trkpt><trkpt lat="45.8848867" lon="8.6837183"><ele>380.3333333333333</ele><time>2026-03-22T08:06:26.152Z</time></trkpt><trkpt lat="45.88493" lon="8.683555"><ele>380.6666666666667</ele><time>2026-03-22T08:06:28.152Z</time></trkpt><trkpt lat="45.88496" lon="8.683425"><ele>381.0</ele><time>2026-03-22T08:06:30.153Z</time></trkpt><trkpt lat="45.8849617" lon="8.6832983"><ele>381.0</ele><time>2026-03-22T08:06:33.152Z</time></trkpt><trkpt lat="45.8849583" lon="8.6831683"><ele>381.0</ele><time>2026-03-22T08:06:35.152Z</time></trkpt><trkpt lat="45.8849517" lon="8.6830433"><ele>381.0</ele><time>2026-03-22T08:06:37.152Z</time></trkpt><trkpt lat="45.884945" lon="8.68292"><ele>381.0</ele><time>2026-03-22T08:06:39.152Z</time></trkpt><trkpt lat="45.8849167" lon="8.682755"><ele>381.0</ele><time>2026-03-22T08:06:41.152Z</time></trkpt><trkpt lat="45.8848833" lon="8.6826"><ele>380.4</ele><time>2026-03-22T08:06:43.152Z</time></trkpt><trkpt lat="45.8848483" lon="8.682465"><ele>379.8</ele><time>2026-03-22T08:06:45.152Z</time></trkpt><trkpt lat="45.8848333" lon="8.6823567"><ele>379.2</ele><time>2026-03-22T08:06:47.152Z</time></trkpt><trkpt lat="45.8848517" lon="8.6822517"><ele>378.59999999999997</ele><time>2026-03-22T08:06:50.152Z</time></trkpt><trkpt lat="45.8849933" lon="8.6822667"><ele>378.0</ele><time>2026-03-22T08:06:59.153Z</time></trkpt><trkpt lat="45.8850583" lon="8.6822917"><ele>374.0</ele><time>2026-03-22T08:07:00.152Z</time></trkpt><trkpt lat="45.8851283" lon="8.68234"><ele>370.0</ele><time>2026-03-22T08:07:01.153Z</time></trkpt><trkpt lat="45.8851933" lon="8.68241"><ele>366.0</ele><time>2026-03-22T08:07:02.152Z</time></trkpt><trkpt lat="45.8852617" lon="8.682495"><ele>362.0</ele><time>2026-03-22T08:07:03.153Z</time></trkpt><trkpt lat="45.88534" lon="8.6826083"><ele>358.0</ele><time>2026-03-22T08:07:04.153Z</time></trkpt><trkpt lat="45.88542" lon="8.6827283"><ele>359.79999999999995</ele><time>2026-03-22T08:07:05.152Z</time></trkpt><trkpt lat="45.8854817" lon="8.6828317"><ele>361.6</ele><time>2026-03-22T08:07:06.152Z</time></trkpt><trkpt lat="45.8855367" lon="8.68294"><ele>363.4</ele><time>2026-03-22T08:07:07.153Z</time></trkpt><trkpt lat="45.8856217" lon="8.68309"><ele>365.20000000000005</ele><time>2026-03-22T08:07:08.153Z</time></trkpt><trkpt lat="45.8856783" lon="8.683205"><ele>367.0</ele><time>2026-03-22T08:07:09.152Z</time></trkpt><trkpt lat="45.885735" lon="8.6833117"><ele>367.0</ele><time>2026-03-22T08:07:10.152Z</time></trkpt><trkpt lat="45.885775" lon="8.6833967"><ele>367.0</ele><time>2026-03-22T08:07:11.152Z</time></trkpt><trkpt lat="45.8858267" lon="8.6835117"><ele>367.0</ele><time>2026-03-22T08:07:12.152Z</time></trkpt><trkpt lat="45.885855" lon="8.6835967"><ele>367.0</ele><time>2026-03-22T08:07:13.152Z</time></trkpt><trkpt lat="45.8858767" lon="8.6836833"><ele>367.0</ele><time>2026-03-22T08:07:14.152Z</time></trkpt><trkpt lat="45.885915" lon="8.6838467"><ele>367.0</ele><time>2026-03-22T08:07:16.152Z</time></trkpt><trkpt lat="45.8859733" lon="8.6839717"><ele>366.8</ele><time>2026-03-22T08:07:18.152Z</time></trkpt><trkpt lat="45.8860333" lon="8.6840583"><ele>366.6</ele><time>2026-03-22T08:07:20.153Z</time></trkpt><trkpt lat="45.886115" lon="8.684165"><ele>366.40000000000003</ele><time>2026-03-22T08:07:22.152Z</time></trkpt><trkpt lat="45.8862083" lon="8.6842617"><ele>366.20000000000005</ele><time>2026-03-22T08:07:24.153Z</time></trkpt><trkpt lat="45.886275" lon="8.6843233"><ele>366.0</ele><time>2026-03-22T08:07:26.152Z</time></trkpt><trkpt lat="45.886405" lon="8.68447"><ele>366.0</ele><time>2026-03-22T08:07:39.152Z</time></trkpt><trkpt lat="45.8864267" lon="8.6846133"><ele>366.0</ele><time>2026-03-22T08:07:59.152Z</time></trkpt><trkpt lat="45.8864733" lon="8.68473"><ele>366.0</ele><time>2026-03-22T08:08:18.153Z</time></trkpt><trkpt lat="45.8865467" lon="8.6847933"><ele>366.0</ele><time>2026-03-22T08:08:35.152Z</time></trkpt><trkpt lat="45.886645" lon="8.68484"><ele>366.0</ele><time>2026-03-22T08:08:38.152Z</time></trkpt><trkpt lat="45.8867183" lon="8.6848883"><ele>364.6666666666667</ele><time>2026-03-22T08:08:40.153Z</time></trkpt><trkpt lat="45.8867867" lon="8.68499"><ele>363.3333333333333</ele><time>2026-03-22T08:08:42.152Z</time></trkpt><trkpt lat="45.8868383" lon="8.6850567"><ele>362.0</ele><time>2026-03-22T08:08:43.152Z</time></trkpt><trkpt lat="45.8868967" lon="8.685125"><ele>360.66666666666663</ele><time>2026-03-22T08:08:44.152Z</time></trkpt><trkpt lat="45.88695" lon="8.6851783"><ele>359.3333333333333</ele><time>2026-03-22T08:08:45.152Z</time></trkpt><trkpt lat="45.88703" lon="8.6852633"><ele>358.0</ele><time>2026-03-22T08:08:47.153Z</time></trkpt><trkpt lat="45.8871017" lon="8.685345"><ele>358.00000000000006</ele><time>2026-03-22T08:08:49.152Z</time></trkpt><trkpt lat="45.8871317" lon="8.6854333"><ele>358.0</ele><time>2026-03-22T08:08:53.152Z</time></trkpt><trkpt lat="45.8871533" lon="8.6855267"><ele>358.0</ele><time>2026-03-22T08:08:58.153Z</time></trkpt><trkpt lat="45.8871933" lon="8.6856183"><ele>358.0</ele><time>2026-03-22T08:09:05.152Z</time></trkpt><trkpt lat="45.8872417" lon="8.6856867"><ele>358.0</ele><time>2026-03-22T08:09:08.153Z</time></trkpt><trkpt lat="45.8873217" lon="8.6856717"><ele>358.00000000000006</ele><time>2026-03-22T08:09:11.152Z</time></trkpt><trkpt lat="45.8873883" lon="8.6856317"><ele>358.0</ele><time>2026-03-22T08:09:13.152Z</time></trkpt><trkpt lat="45.8874667" lon="8.6855717"><ele>358.0</ele><time>2026-03-22T08:09:15.153Z</time></trkpt><trkpt lat="45.88755" lon="8.6855183"><ele>358.0</ele><time>2026-03-22T08:09:17.152Z</time></trkpt><trkpt lat="45.887655" lon="8.6854683"><ele>358.0</ele><time>2026-03-22T08:09:19.152Z</time></trkpt><trkpt lat="45.8877617" lon="8.68541"><ele>358.0</ele><time>2026-03-22T08:09:21.152Z</time></trkpt><trkpt lat="45.8878817" lon="8.6853517"><ele>358.0</ele><time>2026-03-22T08:09:23.152Z</time></trkpt><trkpt lat="45.8879867" lon="8.68527"><ele>353.59999999999997</ele><time>2026-03-22T08:09:25.152Z</time></trkpt><trkpt lat="45.8880817" lon="8.6851917"><ele>349.2</ele><time>2026-03-22T08:09:27.152Z</time></trkpt><trkpt lat="45.8881483" lon="8.685115"><ele>344.8</ele><time>2026-03-22T08:09:29.153Z</time></trkpt><trkpt lat="45.8882" lon="8.6850617"><ele>340.4</ele><time>2026-03-22T08:09:32.152Z</time></trkpt><trkpt lat="45.8882683" lon="8.6850883"><ele>336.0</ele><time>2026-03-22T08:09:34.152Z</time></trkpt><trkpt lat="45.8883367" lon="8.6852483"><ele>336.6666666666667</ele><time>2026-03-22T08:09:36.152Z</time></trkpt><trkpt lat="45.8883733" lon="8.6853567"><ele>337.3333333333333</ele><time>2026-03-22T08:09:37.152Z</time></trkpt><trkpt lat="45.8884033" lon="8.68547"><ele>338.0</ele><time>2026-03-22T08:09:38.152Z</time></trkpt><trkpt lat="45.8884267" lon="8.6855983"><ele>338.66666666666663</ele><time>2026-03-22T08:09:39.152Z</time></trkpt><trkpt lat="45.8884467" lon="8.6857217"><ele>339.3333333333333</ele><time>2026-03-22T08:09:40.153Z</time></trkpt><trkpt lat="45.8884733" lon="8.6858283"><ele>340.0</ele><time>2026-03-22T08:09:41.152Z</time></trkpt><trkpt lat="45.8885083" lon="8.6859283"><ele>337.8</ele><time>2026-03-22T08:09:42.153Z</time></trkpt><trkpt lat="45.888555" lon="8.686035"><ele>335.6</ele><time>2026-03-22T08:09:43.152Z</time></trkpt><trkpt lat="45.8886083" lon="8.6861583"><ele>333.4</ele><time>2026-03-22T08:09:44.152Z</time></trkpt><trkpt lat="45.8886517" lon="8.68628"><ele>331.2</ele><time>2026-03-22T08:09:45.153Z</time></trkpt><trkpt lat="45.8886783" lon="8.6863967"><ele>329.0</ele><time>2026-03-22T08:09:46.152Z</time></trkpt><trkpt lat="45.888695" lon="8.6865117"><ele>329.0</ele><time>2026-03-22T08:09:47.153Z</time></trkpt><trkpt lat="45.88871" lon="8.6866283"><ele>329.0</ele><time>2026-03-22T08:09:48.153Z</time></trkpt><trkpt lat="45.8887217" lon="8.686735"><ele>329.0</ele><time>2026-03-22T08:09:49.152Z</time></trkpt><trkpt lat="45.888735" lon="8.68683"><ele>329.0</ele><time>2026-03-22T08:09:50.152Z</time></trkpt><trkpt lat="45.888735" lon="8.6869933"><ele>329.0</ele><time>2026-03-22T08:09:52.152Z</time></trkpt><trkpt lat="45.88873" lon="8.6871117"><ele>329.0</ele><time>2026-03-22T08:09:54.152Z</time></trkpt><trkpt lat="45.8887317" lon="8.687205"><ele>328.83333333333337</ele><time>2026-03-22T08:09:56.152Z</time></trkpt><trkpt lat="45.8887233" lon="8.687295"><ele>328.6666666666667</ele><time>2026-03-22T08:09:58.152Z</time></trkpt><trkpt lat="45.8887233" lon="8.6874017"><ele>328.5</ele><time>2026-03-22T08:10:00.153Z</time></trkpt><trkpt lat="45.8887233" lon="8.687505"><ele>328.3333333333333</ele><time>2026-03-22T08:10:02.152Z</time></trkpt><trkpt lat="45.8887267" lon="8.6876433"><ele>328.16666666666663</ele><time>2026-03-22T08:10:04.152Z</time></trkpt><trkpt lat="45.888735" lon="8.6877717"><ele>328.0</ele><time>2026-03-22T08:10:06.153Z</time></trkpt><trkpt lat="45.88876" lon="8.68791"><ele>328.4</ele><time>2026-03-22T08:10:08.152Z</time></trkpt><trkpt lat="45.888785" lon="8.6880017"><ele>328.79999999999995</ele><time>2026-03-22T08:10:09.152Z</time></trkpt><trkpt lat="45.8888017" lon="8.6881167"><ele>329.2</ele><time>2026-03-22T08:10:10.152Z</time></trkpt><trkpt lat="45.888815" lon="8.6882483"><ele>329.6</ele><time>2026-03-22T08:10:11.153Z</time></trkpt><trkpt lat="45.8888233" lon="8.6883983"><ele>330.0</ele><time>2026-03-22T08:10:12.152Z</time></trkpt><trkpt lat="45.8888417" lon="8.6885467"><ele>330.0</ele><time>2026-03-22T08:10:13.152Z</time></trkpt><trkpt lat="45.88887" lon="8.6886883"><ele>330.0</ele><time>2026-03-22T08:10:14.152Z</time></trkpt><trkpt lat="45.8888933" lon="8.68882"><ele>330.0</ele><time>2026-03-22T08:10:15.153Z</time></trkpt><trkpt lat="45.8889167" lon="8.6889467"><ele>330.0</ele><time>2026-03-22T08:10:16.153Z</time></trkpt><trkpt lat="45.88894" lon="8.689085"><ele>330.0</ele><time>2026-03-22T08:10:17.153Z</time></trkpt><trkpt lat="45.8889583" lon="8.6892333"><ele>330.0</ele><time>2026-03-22T08:10:18.153Z</time></trkpt><trkpt lat="45.8889733" lon="8.6893917"><ele>330.0</ele><time>2026-03-22T08:10:19.152Z</time></trkpt><trkpt lat="45.8889833" lon="8.68956"><ele>330.0</ele><time>2026-03-22T08:10:20.153Z</time></trkpt><trkpt lat="45.8889933" lon="8.689725"><ele>330.0</ele><time>2026-03-22T08:10:21.152Z</time></trkpt><trkpt lat="45.8890067" lon="8.6898983"><ele>330.5</ele><time>2026-03-22T08:10:22.152Z</time></trkpt><trkpt lat="45.8890167" lon="8.6900767"><ele>331.0</ele><time>2026-03-22T08:10:23.152Z</time></trkpt><trkpt lat="45.8890317" lon="8.6902467"><ele>331.5</ele><time>2026-03-22T08:10:24.153Z</time></trkpt><trkpt lat="45.8890533" lon="8.690405"><ele>332.0</ele><time>2026-03-22T08:10:25.152Z</time></trkpt><trkpt lat="45.8890833" lon="8.690545"><ele>332.0</ele><time>2026-03-22T08:10:26.153Z</time></trkpt><trkpt lat="45.88911" lon="8.6906817"><ele>332.0</ele><time>2026-03-22T08:10:27.152Z</time></trkpt><trkpt lat="45.8891283" lon="8.6908083"><ele>332.0</ele><time>2026-03-22T08:10:28.152Z</time></trkpt><trkpt lat="45.8891383" lon="8.6909117"><ele>332.0</ele><time>2026-03-22T08:10:29.153Z</time></trkpt><trkpt lat="45.8891417" lon="8.6910067"><ele>332.0</ele><time>2026-03-22T08:10:30.152Z</time></trkpt><trkpt lat="45.8890983" lon="8.69115"><ele>332.0</ele><time>2026-03-22T08:10:32.152Z</time></trkpt><trkpt lat="45.88906" lon="8.69126"><ele>332.0</ele><time>2026-03-22T08:10:33.153Z</time></trkpt><trkpt lat="45.8890217" lon="8.6913417"><ele>332.0</ele><time>2026-03-22T08:10:34.152Z</time></trkpt><trkpt lat="45.88899" lon="8.6914217"><ele>332.0</ele><time>2026-03-22T08:10:35.153Z</time></trkpt><trkpt lat="45.8889633" lon="8.69153"><ele>332.0</ele><time>2026-03-22T08:10:37.152Z</time></trkpt><trkpt lat="45.8889317" lon="8.69162"><ele>332.0</ele><time>2026-03-22T08:10:39.152Z</time></trkpt><trkpt lat="45.8889117" lon="8.691725"><ele>332.0</ele><time>2026-03-22T08:10:46.153Z</time></trkpt><trkpt lat="45.8889233" lon="8.691825"><ele>332.0</ele><time>2026-03-22T08:10:48.153Z</time></trkpt><trkpt lat="45.8889417" lon="8.6919667"><ele>332.0</ele><time>2026-03-22T08:10:50.152Z</time></trkpt><trkpt lat="45.8889583" lon="8.692155"><ele>332.0</ele><time>2026-03-22T08:10:52.152Z</time></trkpt><trkpt lat="45.8889733" lon="8.6922533"><ele>332.0</ele><time>2026-03-22T08:10:53.153Z</time></trkpt><trkpt lat="45.8889883" lon="8.6923417"><ele>332.0</ele><time>2026-03-22T08:10:54.153Z</time></trkpt><trkpt lat="45.889015" lon="8.6924933"><ele>332.0</ele><time>2026-03-22T08:10:56.152Z</time></trkpt><trkpt lat="45.8890383" lon="8.6925933"><ele>332.0</ele><time>2026-03-22T08:10:57.152Z</time></trkpt><trkpt lat="45.8890417" lon="8.692755"><ele>332.40000000000003</ele><time>2026-03-22T08:10:59.152Z</time></trkpt><trkpt lat="45.88904" lon="8.6928583"><ele>332.8</ele><time>2026-03-22T08:11:00.152Z</time></trkpt><trkpt lat="45.8890467" lon="8.693045"><ele>333.2</ele><time>2026-03-22T08:11:02.153Z</time></trkpt><trkpt lat="45.889045" lon="8.693205"><ele>333.6</ele><time>2026-03-22T08:11:04.152Z</time></trkpt><trkpt lat="45.8890383" lon="8.69334"><ele>334.0</ele><time>2026-03-22T08:11:06.152Z</time></trkpt><trkpt lat="45.88901" lon="8.6934383"><ele>334.0</ele><time>2026-03-22T08:11:08.152Z</time></trkpt><trkpt lat="45.88899" lon="8.6935533"><ele>334.0</ele><time>2026-03-22T08:11:10.152Z</time></trkpt><trkpt lat="45.8889733" lon="8.6937067"><ele>334.0</ele><time>2026-03-22T08:11:12.152Z</time></trkpt><trkpt lat="45.8889533" lon="8.6938433"><ele>334.0</ele><time>2026-03-22T08:11:14.152Z</time></trkpt><trkpt lat="45.8889183" lon="8.6939583"><ele>334.0</ele><time>2026-03-22T08:11:16.153Z</time></trkpt><trkpt lat="45.888865" lon="8.69401"><ele>334.0</ele><time>2026-03-22T08:11:17.152Z</time></trkpt><trkpt lat="45.88881" lon="8.6940617"><ele>334.3333333333333</ele><time>2026-03-22T08:11:19.152Z</time></trkpt><trkpt lat="45.8888067" lon="8.6941783"><ele>334.66666666666663</ele><time>2026-03-22T08:11:24.152Z</time></trkpt><trkpt lat="45.888785" lon="8.6942667"><ele>335.0</ele><time>2026-03-22T08:11:27.152Z</time></trkpt><trkpt lat="45.8887383" lon="8.6943983"><ele>335.3333333333333</ele><time>2026-03-22T08:11:32.152Z</time></trkpt><trkpt lat="45.8887233" lon="8.69449"><ele>335.6666666666667</ele><time>2026-03-22T08:11:34.152Z</time></trkpt><trkpt lat="45.8886733" lon="8.6945867"><ele>336.0</ele><time>2026-03-22T08:11:36.152Z</time></trkpt><trkpt lat="45.8886383" lon="8.69474"><ele>336.20000000000005</ele><time>2026-03-22T08:11:38.152Z</time></trkpt><trkpt lat="45.888595" lon="8.694905"><ele>336.40000000000003</ele><time>2026-03-22T08:11:40.152Z</time></trkpt><trkpt lat="45.8885733" lon="8.6950467"><ele>336.6</ele><time>2026-03-22T08:11:41.152Z</time></trkpt><trkpt lat="45.888535" lon="8.6951733"><ele>336.8</ele><time>2026-03-22T08:11:42.153Z</time></trkpt><trkpt lat="45.888485" lon="8.69526"><ele>337.0</ele><time>2026-03-22T08:11:43.153Z</time></trkpt><trkpt lat="45.8884133" lon="8.69536"><ele>337.16666666666663</ele><time>2026-03-22T08:11:45.152Z</time></trkpt><trkpt lat="45.8883617" lon="8.69545"><ele>337.3333333333333</ele><time>2026-03-22T08:11:47.152Z</time></trkpt><trkpt lat="45.8883767" lon="8.69554"><ele>337.5</ele><time>2026-03-22T08:11:49.152Z</time></trkpt><trkpt lat="45.8884083" lon="8.6956683"><ele>337.6666666666667</ele><time>2026-03-22T08:11:51.152Z</time></trkpt><trkpt lat="45.8884533" lon="8.6957933"><ele>337.83333333333337</ele><time>2026-03-22T08:11:53.153Z</time></trkpt><trkpt lat="45.8885" lon="8.6959133"><ele>338.0</ele><time>2026-03-22T08:11:55.152Z</time></trkpt><trkpt lat="45.88853" lon="8.695995"><ele>337.83333333333337</ele><time>2026-03-22T08:11:56.152Z</time></trkpt><trkpt lat="45.8885517" lon="8.6960867"><ele>337.6666666666667</ele><time>2026-03-22T08:11:57.153Z</time></trkpt><trkpt lat="45.888595" lon="8.6962"><ele>337.5</ele><time>2026-03-22T08:11:58.152Z</time></trkpt><trkpt lat="45.8886267" lon="8.696305"><ele>337.3333333333333</ele><time>2026-03-22T08:11:59.152Z</time></trkpt><trkpt lat="45.8886617" lon="8.696415"><ele>337.16666666666663</ele><time>2026-03-22T08:12:00.152Z</time></trkpt><trkpt lat="45.8886967" lon="8.6965233"><ele>337.0</ele><time>2026-03-22T08:12:01.153Z</time></trkpt><trkpt lat="45.888735" lon="8.69663"><ele>337.0</ele><time>2026-03-22T08:12:02.153Z</time></trkpt><trkpt lat="45.8887767" lon="8.69674"><ele>337.0</ele><time>2026-03-22T08:12:03.153Z</time></trkpt><trkpt lat="45.8888183" lon="8.696865"><ele>337.0</ele><time>2026-03-22T08:12:04.152Z</time></trkpt><trkpt lat="45.8888667" lon="8.6969867"><ele>337.0</ele><time>2026-03-22T08:12:05.152Z</time></trkpt><trkpt lat="45.8889083" lon="8.697125"><ele>337.0</ele><time>2026-03-22T08:12:06.153Z</time></trkpt><trkpt lat="45.8889583" lon="8.6972567"><ele>337.3333333333333</ele><time>2026-03-22T08:12:07.152Z</time></trkpt><trkpt lat="45.8889783" lon="8.69737"><ele>337.66666666666663</ele><time>2026-03-22T08:12:08.152Z</time></trkpt><trkpt lat="45.8890017" lon="8.6974767"><ele>338.0</ele><time>2026-03-22T08:12:09.152Z</time></trkpt><trkpt lat="45.8890183" lon="8.6975883"><ele>338.3333333333333</ele><time>2026-03-22T08:12:10.152Z</time></trkpt><trkpt lat="45.88903" lon="8.6976817"><ele>338.6666666666667</ele><time>2026-03-22T08:12:11.153Z</time></trkpt><trkpt lat="45.88904" lon="8.6977783"><ele>339.0</ele><time>2026-03-22T08:12:12.152Z</time></trkpt><trkpt lat="45.8890433" lon="8.69789"><ele>339.4</ele><time>2026-03-22T08:12:13.153Z</time></trkpt><trkpt lat="45.8890617" lon="8.6980483"><ele>339.79999999999995</ele><time>2026-03-22T08:12:15.153Z</time></trkpt><trkpt lat="45.88908" lon="8.69821"><ele>340.20000000000005</ele><time>2026-03-22T08:12:17.152Z</time></trkpt><trkpt lat="45.88909" lon="8.6983367"><ele>340.6</ele><time>2026-03-22T08:12:19.152Z</time></trkpt><trkpt lat="45.8891017" lon="8.6984517"><ele>341.0</ele><time>2026-03-22T08:12:21.152Z</time></trkpt><trkpt lat="45.8891117" lon="8.698575"><ele>340.83333333333337</ele><time>2026-03-22T08:12:23.152Z</time></trkpt><trkpt lat="45.88913" lon="8.6986883"><ele>340.6666666666667</ele><time>2026-03-22T08:12:25.152Z</time></trkpt><trkpt lat="45.8891433" lon="8.6987933"><ele>340.5</ele><time>2026-03-22T08:12:27.152Z</time></trkpt><trkpt lat="45.8891617" lon="8.6989083"><ele>340.3333333333333</ele><time>2026-03-22T08:12:29.152Z</time></trkpt><trkpt lat="45.8891733" lon="8.6990467"><ele>340.16666666666663</ele><time>2026-03-22T08:12:31.152Z</time></trkpt><trkpt lat="45.88917" lon="8.6991917"><ele>340.0</ele><time>2026-03-22T08:12:33.152Z</time></trkpt><trkpt lat="45.889155" lon="8.6992833"><ele>340.0</ele><time>2026-03-22T08:12:34.153Z</time></trkpt><trkpt lat="45.889135" lon="8.6993933"><ele>340.0</ele><time>2026-03-22T08:12:35.152Z</time></trkpt><trkpt lat="45.88912" lon="8.6994933"><ele>340.0</ele><time>2026-03-22T08:12:36.152Z</time></trkpt><trkpt lat="45.8891083" lon="8.699645"><ele>340.0</ele><time>2026-03-22T08:12:38.152Z</time></trkpt><trkpt lat="45.8890867" lon="8.6997617"><ele>340.0</ele><time>2026-03-22T08:12:40.152Z</time></trkpt><trkpt lat="45.8890817" lon="8.6998933"><ele>340.0</ele><time>2026-03-22T08:12:42.152Z</time></trkpt><trkpt lat="45.8890683" lon="8.6999983"><ele>340.2</ele><time>2026-03-22T08:12:44.152Z</time></trkpt><trkpt lat="45.8890633" lon="8.700105"><ele>340.4</ele><time>2026-03-22T08:12:47.152Z</time></trkpt><trkpt lat="45.8890617" lon="8.7002617"><ele>340.6</ele><time>2026-03-22T08:12:49.152Z</time></trkpt><trkpt lat="45.8890817" lon="8.700465"><ele>340.8</ele><time>2026-03-22T08:12:51.152Z</time></trkpt><trkpt lat="45.8890983" lon="8.7005783"><ele>341.0</ele><time>2026-03-22T08:12:52.152Z</time></trkpt><trkpt lat="45.8891167" lon="8.70068"><ele>341.0</ele><time>2026-03-22T08:12:53.152Z</time></trkpt><trkpt lat="45.88914" lon="8.7008"><ele>341.0</ele><time>2026-03-22T08:12:54.152Z</time></trkpt><trkpt lat="45.889155" lon="8.7008933"><ele>341.0</ele><time>2026-03-22T08:12:55.152Z</time></trkpt><trkpt lat="45.889165" lon="8.7010383"><ele>341.0</ele><time>2026-03-22T08:12:57.153Z</time></trkpt><trkpt lat="45.889165" lon="8.70118"><ele>341.0</ele><time>2026-03-22T08:12:59.153Z</time></trkpt><trkpt lat="45.8891867" lon="8.701285"><ele>341.0</ele><time>2026-03-22T08:13:02.152Z</time></trkpt><trkpt lat="45.8892483" lon="8.7013567"><ele>341.57142857142856</ele><time>2026-03-22T08:13:09.153Z</time></trkpt><trkpt lat="45.88932" lon="8.7013683"><ele>342.14285714285717</ele><time>2026-03-22T08:13:11.152Z</time></trkpt><trkpt lat="45.8893883" lon="8.7013667"><ele>342.7142857142857</ele><time>2026-03-22T08:13:13.152Z</time></trkpt><trkpt lat="45.889465" lon="8.701345"><ele>343.2857142857143</ele><time>2026-03-22T08:13:15.152Z</time></trkpt><trkpt lat="45.8895333" lon="8.70134"><ele>343.85714285714283</ele><time>2026-03-22T08:13:17.152Z</time></trkpt><trkpt lat="45.8896" lon="8.7013383"><ele>344.42857142857144</ele><time>2026-03-22T08:13:19.152Z</time></trkpt><trkpt lat="45.8896867" lon="8.701345"><ele>345.0</ele><time>2026-03-22T08:13:21.152Z</time></trkpt><trkpt lat="45.8897917" lon="8.7013367"><ele>345.0</ele><time>2026-03-22T08:13:23.152Z</time></trkpt><trkpt lat="45.8898617" lon="8.7013067"><ele>345.0</ele><time>2026-03-22T08:13:24.152Z</time></trkpt><trkpt lat="45.88993" lon="8.701265"><ele>345.0</ele><time>2026-03-22T08:13:25.153Z</time></trkpt><trkpt lat="45.89" lon="8.7012167"><ele>345.0</ele><time>2026-03-22T08:13:26.152Z</time></trkpt><trkpt lat="45.8900683" lon="8.70116"><ele>345.0</ele><time>2026-03-22T08:13:27.152Z</time></trkpt><trkpt lat="45.8901333" lon="8.70111"><ele>345.0</ele><time>2026-03-22T08:13:28.153Z</time></trkpt><trkpt lat="45.8902183" lon="8.701055"><ele>344.0</ele><time>2026-03-22T08:13:30.152Z</time></trkpt><trkpt lat="45.89029" lon="8.7010183"><ele>343.0</ele><time>2026-03-22T08:13:34.153Z</time></trkpt><trkpt lat="45.8903833" lon="8.70098"><ele>342.0</ele><time>2026-03-22T08:13:37.153Z</time></trkpt><trkpt lat="45.89045" lon="8.700965"><ele>341.0</ele><time>2026-03-22T08:13:39.154Z</time></trkpt><trkpt lat="45.890535" lon="8.7009533"><ele>340.0</ele><time>2026-03-22T08:13:41.153Z</time></trkpt><trkpt lat="45.8905983" lon="8.7009867"><ele>339.0</ele><time>2026-03-22T08:13:43.154Z</time></trkpt><trkpt lat="45.8906617" lon="8.7010883"><ele>339.0</ele><time>2026-03-22T08:13:45.153Z</time></trkpt><trkpt lat="45.8906983" lon="8.7011633"><ele>339.0</ele><time>2026-03-22T08:13:46.154Z</time></trkpt><trkpt lat="45.8907367" lon="8.701255"><ele>339.0</ele><time>2026-03-22T08:13:47.153Z</time></trkpt><trkpt lat="45.8907667" lon="8.70134"><ele>339.0</ele><time>2026-03-22T08:13:48.153Z</time></trkpt><trkpt lat="45.8908083" lon="8.7014267"><ele>339.0</ele><time>2026-03-22T08:13:49.154Z</time></trkpt><trkpt lat="45.8908567" lon="8.7015633"><ele>339.0</ele><time>2026-03-22T08:13:51.153Z</time></trkpt><trkpt lat="45.8909017" lon="8.7016383"><ele>337.0</ele><time>2026-03-22T08:13:52.153Z</time></trkpt><trkpt lat="45.8909533" lon="8.70172"><ele>335.0</ele><time>2026-03-22T08:13:53.153Z</time></trkpt><trkpt lat="45.891" lon="8.7017983"><ele>333.0</ele><time>2026-03-22T08:13:54.153Z</time></trkpt><trkpt lat="45.8910417" lon="8.70189"><ele>331.0</ele><time>2026-03-22T08:13:55.153Z</time></trkpt><trkpt lat="45.8910733" lon="8.7019783"><ele>329.0</ele><time>2026-03-22T08:13:56.153Z</time></trkpt><trkpt lat="45.8911033" lon="8.7020783"><ele>327.0</ele><time>2026-03-22T08:13:57.153Z</time></trkpt><trkpt lat="45.8911317" lon="8.7021967"><ele>327.0</ele><time>2026-03-22T08:13:58.153Z</time></trkpt><trkpt lat="45.891155" lon="8.7023367"><ele>327.0</ele><time>2026-03-22T08:13:59.153Z</time></trkpt><trkpt lat="45.891185" lon="8.7024417"><ele>327.0</ele><time>2026-03-22T08:14:00.153Z</time></trkpt><trkpt lat="45.8912133" lon="8.7025767"><ele>327.0</ele><time>2026-03-22T08:14:02.154Z</time></trkpt><trkpt lat="45.8912317" lon="8.702675"><ele>327.0</ele><time>2026-03-22T08:14:05.153Z</time></trkpt><trkpt lat="45.891275" lon="8.7027633"><ele>327.0</ele><time>2026-03-22T08:14:07.153Z</time></trkpt><trkpt lat="45.8913383" lon="8.7029667"><ele>328.8</ele><time>2026-03-22T08:14:09.153Z</time></trkpt><trkpt lat="45.8913667" lon="8.7030933"><ele>330.6</ele><time>2026-03-22T08:14:10.153Z</time></trkpt><trkpt lat="45.891405" lon="8.7032233"><ele>332.40000000000003</ele><time>2026-03-22T08:14:11.154Z</time></trkpt><trkpt lat="45.8914417" lon="8.7033483"><ele>334.20000000000005</ele><time>2026-03-22T08:14:12.153Z</time></trkpt><trkpt lat="45.8914817" lon="8.7035083"><ele>336.0</ele><time>2026-03-22T08:14:13.153Z</time></trkpt><trkpt lat="45.8915167" lon="8.7036283"><ele>337.4</ele><time>2026-03-22T08:14:14.153Z</time></trkpt><trkpt lat="45.891545" lon="8.703735"><ele>338.8</ele><time>2026-03-22T08:14:15.154Z</time></trkpt><trkpt lat="45.8915817" lon="8.7038583"><ele>340.2</ele><time>2026-03-22T08:14:16.153Z</time></trkpt><trkpt lat="45.8916167" lon="8.7040133"><ele>341.59999999999997</ele><time>2026-03-22T08:14:17.153Z</time></trkpt><trkpt lat="45.8916567" lon="8.704195"><ele>343.0</ele><time>2026-03-22T08:14:18.153Z</time></trkpt><trkpt lat="45.891695" lon="8.7043483"><ele>345.16666666666663</ele><time>2026-03-22T08:14:19.153Z</time></trkpt><trkpt lat="45.8917217" lon="8.70449"><ele>347.3333333333333</ele><time>2026-03-22T08:14:20.154Z</time></trkpt><trkpt lat="45.8917467" lon="8.7046167"><ele>349.5</ele><time>2026-03-22T08:14:21.154Z</time></trkpt><trkpt lat="45.8917683" lon="8.7047333"><ele>351.6666666666667</ele><time>2026-03-22T08:14:22.153Z</time></trkpt><trkpt lat="45.8917883" lon="8.7048433"><ele>353.83333333333337</ele><time>2026-03-22T08:14:23.154Z</time></trkpt><trkpt lat="45.8918033" lon="8.7049683"><ele>356.0</ele><time>2026-03-22T08:14:24.153Z</time></trkpt><trkpt lat="45.8918267" lon="8.7051033"><ele>352.1666666666667</ele><time>2026-03-22T08:14:25.153Z</time></trkpt><trkpt lat="45.8918333" lon="8.7052267"><ele>348.33333333333337</ele><time>2026-03-22T08:14:26.153Z</time></trkpt><trkpt lat="45.8918517" lon="8.7053383"><ele>344.5</ele><time>2026-03-22T08:14:27.153Z</time></trkpt><trkpt lat="45.8918783" lon="8.7054383"><ele>340.6666666666667</ele><time>2026-03-22T08:14:28.153Z</time></trkpt><trkpt lat="45.89191" lon="8.70553"><ele>336.8333333333333</ele><time>2026-03-22T08:14:29.153Z</time></trkpt><trkpt lat="45.8919367" lon="8.7056267"><ele>333.0</ele><time>2026-03-22T08:14:30.153Z</time></trkpt><trkpt lat="45.89195" lon="8.70573"><ele>333.0</ele><time>2026-03-22T08:14:31.154Z</time></trkpt><trkpt lat="45.8919683" lon="8.7058367"><ele>333.0</ele><time>2026-03-22T08:14:32.154Z</time></trkpt><trkpt lat="45.89199" lon="8.7059417"><ele>333.0</ele><time>2026-03-22T08:14:33.154Z</time></trkpt><trkpt lat="45.892015" lon="8.7060417"><ele>333.0</ele><time>2026-03-22T08:14:34.153Z</time></trkpt><trkpt lat="45.8920717" lon="8.7062067"><ele>333.0</ele><time>2026-03-22T08:14:36.153Z</time></trkpt><trkpt lat="45.8921233" lon="8.70633"><ele>335.2</ele><time>2026-03-22T08:14:38.153Z</time></trkpt><trkpt lat="45.8921917" lon="8.70643"><ele>337.4</ele><time>2026-03-22T08:14:40.153Z</time></trkpt><trkpt lat="45.8922683" lon="8.7065017"><ele>339.59999999999997</ele><time>2026-03-22T08:14:42.154Z</time></trkpt><trkpt lat="45.8923617" lon="8.7066133"><ele>341.79999999999995</ele><time>2026-03-22T08:14:44.153Z</time></trkpt><trkpt lat="45.892415" lon="8.7066933"><ele>344.0</ele><time>2026-03-22T08:14:45.153Z</time></trkpt><trkpt lat="45.8924733" lon="8.70679"><ele>344.0</ele><time>2026-03-22T08:14:46.153Z</time></trkpt><trkpt lat="45.8925283" lon="8.7068867"><ele>344.0</ele><time>2026-03-22T08:14:47.153Z</time></trkpt><trkpt lat="45.8925833" lon="8.7069733"><ele>344.0</ele><time>2026-03-22T08:14:48.153Z</time></trkpt><trkpt lat="45.8926367" lon="8.707045"><ele>344.0</ele><time>2026-03-22T08:14:49.153Z</time></trkpt><trkpt lat="45.892725" lon="8.70722"><ele>344.0</ele><time>2026-03-22T08:14:51.154Z</time></trkpt><trkpt lat="45.8927933" lon="8.7073017"><ele>343.6666666666667</ele><time>2026-03-22T08:14:52.153Z</time></trkpt><trkpt lat="45.8928533" lon="8.7073567"><ele>343.33333333333337</ele><time>2026-03-22T08:14:53.154Z</time></trkpt><trkpt lat="45.8929117" lon="8.7074133"><ele>343.0</ele><time>2026-03-22T08:14:54.153Z</time></trkpt><trkpt lat="45.8929783" lon="8.7074467"><ele>342.6666666666667</ele><time>2026-03-22T08:14:56.153Z</time></trkpt><trkpt lat="45.8930583" lon="8.7074667"><ele>342.3333333333333</ele><time>2026-03-22T08:14:59.153Z</time></trkpt><trkpt lat="45.8931667" lon="8.7074867"><ele>342.0</ele><time>2026-03-22T08:15:10.153Z</time></trkpt><trkpt lat="45.8932267" lon="8.7075583"><ele>341.99999999999994</ele><time>2026-03-22T08:15:14.153Z</time></trkpt><trkpt lat="45.893315" lon="8.70754"><ele>342.0</ele><time>2026-03-22T08:15:24.153Z</time></trkpt><trkpt lat="45.8933483" lon="8.7074533"><ele>342.0</ele><time>2026-03-22T08:15:26.153Z</time></trkpt><trkpt lat="45.8933817" lon="8.707365"><ele>342.0</ele><time>2026-03-22T08:15:28.153Z</time></trkpt><trkpt lat="45.8934233" lon="8.707255"><ele>342.0</ele><time>2026-03-22T08:15:31.154Z</time></trkpt><trkpt lat="45.8934633" lon="8.7071717"><ele>341.99999999999994</ele><time>2026-03-22T08:15:33.154Z</time></trkpt><trkpt lat="45.8934917" lon="8.70709"><ele>342.0</ele><time>2026-03-22T08:15:35.154Z</time></trkpt><trkpt lat="45.8935133" lon="8.706995"><ele>337.6666666666667</ele><time>2026-03-22T08:15:38.154Z</time></trkpt><trkpt lat="45.8935467" lon="8.7068733"><ele>333.3333333333333</ele><time>2026-03-22T08:15:41.153Z</time></trkpt><trkpt lat="45.893575" lon="8.7067767"><ele>329.0</ele><time>2026-03-22T08:15:44.153Z</time></trkpt><trkpt lat="45.8936167" lon="8.7067083"><ele>324.66666666666663</ele><time>2026-03-22T08:15:47.153Z</time></trkpt><trkpt lat="45.89365" lon="8.7065817"><ele>320.3333333333333</ele><time>2026-03-22T08:15:55.153Z</time></trkpt><trkpt lat="45.89371" lon="8.7066233"><ele>316.0</ele><time>2026-03-22T08:16:00.153Z</time></trkpt><trkpt lat="45.8937467" lon="8.7066983"><ele>316.0</ele><time>2026-03-22T08:16:02.154Z</time></trkpt><trkpt lat="45.893785" lon="8.7067833"><ele>316.0</ele><time>2026-03-22T08:16:04.153Z</time></trkpt><trkpt lat="45.8938467" lon="8.7068617"><ele>316.0</ele><time>2026-03-22T08:16:07.154Z</time></trkpt><trkpt lat="45.89391" lon="8.7069167"><ele>316.0</ele><time>2026-03-22T08:16:11.153Z</time></trkpt><trkpt lat="45.8939717" lon="8.706945"><ele>316.0</ele><time>2026-03-22T08:16:13.153Z</time></trkpt><trkpt lat="45.8940367" lon="8.7070067"><ele>316.0</ele><time>2026-03-22T08:16:15.153Z</time></trkpt><trkpt lat="45.8941017" lon="8.7071083"><ele>315.6</ele><time>2026-03-22T08:16:17.153Z</time></trkpt><trkpt lat="45.89416" lon="8.7072933"><ele>315.20000000000005</ele><time>2026-03-22T08:16:19.154Z</time></trkpt><trkpt lat="45.894175" lon="8.70744"><ele>314.79999999999995</ele><time>2026-03-22T08:16:20.153Z</time></trkpt><trkpt lat="45.8941833" lon="8.7075683"><ele>314.4</ele><time>2026-03-22T08:16:21.153Z</time></trkpt><trkpt lat="45.8941833" lon="8.7077333"><ele>314.0</ele><time>2026-03-22T08:16:22.153Z</time></trkpt><trkpt lat="45.89418" lon="8.7078733"><ele>313.5</ele><time>2026-03-22T08:16:23.153Z</time></trkpt><trkpt lat="45.8941667" lon="8.70804"><ele>313.0</ele><time>2026-03-22T08:16:24.153Z</time></trkpt><trkpt lat="45.8941717" lon="8.7082067"><ele>312.5</ele><time>2026-03-22T08:16:25.154Z</time></trkpt><trkpt lat="45.8941433" lon="8.7083933"><ele>312.0</ele><time>2026-03-22T08:16:26.153Z</time></trkpt><trkpt lat="45.8941017" lon="8.7085883"><ele>311.75</ele><time>2026-03-22T08:16:27.153Z</time></trkpt><trkpt lat="45.8940917" lon="8.7087567"><ele>311.5</ele><time>2026-03-22T08:16:28.154Z</time></trkpt><trkpt lat="45.894085" lon="8.7089767"><ele>311.25</ele><time>2026-03-22T08:16:29.154Z</time></trkpt><trkpt lat="45.8940767" lon="8.7091483"><ele>311.0</ele><time>2026-03-22T08:16:30.153Z</time></trkpt><trkpt lat="45.8940667" lon="8.7093167"><ele>310.6666666666667</ele><time>2026-03-22T08:16:31.153Z</time></trkpt><trkpt lat="45.8940617" lon="8.7094267"><ele>310.33333333333337</ele><time>2026-03-22T08:16:32.153Z</time></trkpt><trkpt lat="45.8940617" lon="8.7095217"><ele>310.0</ele><time>2026-03-22T08:16:33.153Z</time></trkpt><trkpt lat="45.8940667" lon="8.7097083"><ele>309.6666666666667</ele><time>2026-03-22T08:16:35.153Z</time></trkpt><trkpt lat="45.8940517" lon="8.7097967"><ele>309.3333333333333</ele><time>2026-03-22T08:16:36.153Z</time></trkpt><trkpt lat="45.8940467" lon="8.70994"><ele>309.0</ele><time>2026-03-22T08:16:38.154Z</time></trkpt><trkpt lat="45.894015" lon="8.7101067"><ele>309.0</ele><time>2026-03-22T08:16:40.153Z</time></trkpt><trkpt lat="45.8939967" lon="8.710215"><ele>309.0</ele><time>2026-03-22T08:16:42.153Z</time></trkpt><trkpt lat="45.894065" lon="8.710155"><ele>309.0</ele><time>2026-03-22T08:16:51.153Z</time></trkpt><trkpt lat="45.8941017" lon="8.7100667"><ele>309.0</ele><time>2026-03-22T08:16:53.153Z</time></trkpt><trkpt lat="45.894145" lon="8.709965"><ele>309.0</ele><time>2026-03-22T08:16:55.153Z</time></trkpt><trkpt lat="45.8942083" lon="8.709865"><ele>309.0</ele><time>2026-03-22T08:16:57.153Z</time></trkpt><trkpt lat="45.8942583" lon="8.709805"><ele>305.3333333333333</ele><time>2026-03-22T08:16:59.153Z</time></trkpt><trkpt lat="45.8943183" lon="8.7097733"><ele>301.6666666666667</ele><time>2026-03-22T08:17:02.153Z</time></trkpt><trkpt lat="45.8944033" lon="8.70973"><ele>298.0</ele><time>2026-03-22T08:17:05.153Z</time></trkpt><trkpt lat="45.8944917" lon="8.7097"><ele>294.33333333333337</ele><time>2026-03-22T08:17:08.154Z</time></trkpt><trkpt lat="45.8945767" lon="8.70968"><ele>290.6666666666667</ele><time>2026-03-22T08:17:10.153Z</time></trkpt><trkpt lat="45.89467" lon="8.7096683"><ele>287.0</ele><time>2026-03-22T08:17:13.153Z</time></trkpt><trkpt lat="45.894645" lon="8.7097817"><ele>287.0</ele><time>2026-03-22T08:17:16.153Z</time></trkpt><trkpt lat="45.8946833" lon="8.7099017"><ele>287.0</ele><time>2026-03-22T08:17:18.153Z</time></trkpt><trkpt lat="45.8947317" lon="8.7099683"><ele>287.0</ele><time>2026-03-22T08:17:19.153Z</time></trkpt><trkpt lat="45.8947917" lon="8.7100417"><ele>287.0</ele><time>2026-03-22T08:17:20.154Z</time></trkpt><trkpt lat="45.8948717" lon="8.71017"><ele>287.0</ele><time>2026-03-22T08:17:22.153Z</time></trkpt><trkpt lat="45.894935" lon="8.7102867"><ele>286.6666666666667</ele><time>2026-03-22T08:17:24.153Z</time></trkpt><trkpt lat="45.8949733" lon="8.710395"><ele>286.33333333333337</ele><time>2026-03-22T08:17:27.153Z</time></trkpt><trkpt lat="45.8949883" lon="8.7104967"><ele>286.0</ele><time>2026-03-22T08:17:31.154Z</time></trkpt><trkpt lat="45.8950233" lon="8.71058"><ele>285.6666666666667</ele><time>2026-03-22T08:17:59.153Z</time></trkpt><trkpt lat="45.8950783" lon="8.71064"><ele>285.3333333333333</ele><time>2026-03-22T08:18:32.153Z</time></trkpt><trkpt lat="45.89514" lon="8.71052"><ele>285.0</ele><time>2026-03-22T08:28:54.153Z</time></trkpt><trkpt lat="45.895095" lon="8.7106033"><ele>285.0</ele><time>2026-03-22T08:29:40.153Z</time></trkpt><trkpt lat="45.8949967" lon="8.710685"><ele>285.0</ele><time>2026-03-22T08:32:00.153Z</time></trkpt><trkpt lat="45.8950683" lon="8.710765"><ele>285.0</ele><time>2026-03-22T08:32:34.153Z</time></trkpt><trkpt lat="45.8951317" lon="8.7108683"><ele>285.0</ele><time>2026-03-22T08:32:35.153Z</time></trkpt><trkpt lat="45.8951917" lon="8.710985"><ele>285.0</ele><time>2026-03-22T08:32:36.153Z</time></trkpt><trkpt lat="45.8952367" lon="8.7111117"><ele>283.6</ele><time>2026-03-22T08:32:37.154Z</time></trkpt><trkpt lat="45.8952817" lon="8.7112583"><ele>282.2</ele><time>2026-03-22T08:32:38.153Z</time></trkpt><trkpt lat="45.8953" lon="8.71141"><ele>280.8</ele><time>2026-03-22T08:32:39.153Z</time></trkpt><trkpt lat="45.89529" lon="8.7115683"><ele>279.4</ele><time>2026-03-22T08:32:40.154Z</time></trkpt><trkpt lat="45.89526" lon="8.7117333"><ele>278.0</ele><time>2026-03-22T08:32:41.153Z</time></trkpt><trkpt lat="45.8952" lon="8.7119267"><ele>277.25</ele><time>2026-03-22T08:32:42.154Z</time></trkpt><trkpt lat="45.8951283" lon="8.7121017"><ele>276.5</ele><time>2026-03-22T08:32:43.153Z</time></trkpt><trkpt lat="45.8950567" lon="8.7122567"><ele>275.75</ele><time>2026-03-22T08:32:44.153Z</time></trkpt><trkpt lat="45.8949833" lon="8.7124167"><ele>275.0</ele><time>2026-03-22T08:32:45.153Z</time></trkpt><trkpt lat="45.8949083" lon="8.7125767"><ele>276.75</ele><time>2026-03-22T08:32:46.153Z</time></trkpt><trkpt lat="45.89483" lon="8.7127433"><ele>278.5</ele><time>2026-03-22T08:32:47.153Z</time></trkpt><trkpt lat="45.8947617" lon="8.712905"><ele>280.25</ele><time>2026-03-22T08:32:48.153Z</time></trkpt><trkpt lat="45.89471" lon="8.7130517"><ele>282.0</ele><time>2026-03-22T08:32:49.153Z</time></trkpt><trkpt lat="45.894665" lon="8.7131967"><ele>282.0</ele><time>2026-03-22T08:32:50.154Z</time></trkpt><trkpt lat="45.8946267" lon="8.713345"><ele>282.0</ele><time>2026-03-22T08:32:51.153Z</time></trkpt><trkpt lat="45.8945933" lon="8.7134733"><ele>282.0</ele><time>2026-03-22T08:32:52.153Z</time></trkpt><trkpt lat="45.8945567" lon="8.7135817"><ele>282.0</ele><time>2026-03-22T08:32:53.153Z</time></trkpt><trkpt lat="45.8945167" lon="8.7136883"><ele>282.0</ele><time>2026-03-22T08:32:54.153Z</time></trkpt><trkpt lat="45.8944817" lon="8.7137967"><ele>281.8333333333333</ele><time>2026-03-22T08:32:55.153Z</time></trkpt><trkpt lat="45.8944517" lon="8.713905"><ele>281.6666666666667</ele><time>2026-03-22T08:32:56.153Z</time></trkpt><trkpt lat="45.8944233" lon="8.7140067"><ele>281.5</ele><time>2026-03-22T08:32:57.154Z</time></trkpt><trkpt lat="45.89439" lon="8.71411"><ele>281.33333333333337</ele><time>2026-03-22T08:32:58.154Z</time></trkpt><trkpt lat="45.8943617" lon="8.7142133"><ele>281.1666666666667</ele><time>2026-03-22T08:32:59.153Z</time></trkpt><trkpt lat="45.894325" lon="8.7143217"><ele>281.0</ele><time>2026-03-22T08:33:00.153Z</time></trkpt><trkpt lat="45.894285" lon="8.714465"><ele>283.25</ele><time>2026-03-22T08:33:01.154Z</time></trkpt><trkpt lat="45.8942233" lon="8.7146217"><ele>285.5</ele><time>2026-03-22T08:33:02.154Z</time></trkpt><trkpt lat="45.8941567" lon="8.714785"><ele>287.75</ele><time>2026-03-22T08:33:03.154Z</time></trkpt><trkpt lat="45.8940867" lon="8.7149333"><ele>290.0</ele><time>2026-03-22T08:33:04.153Z</time></trkpt><trkpt lat="45.8940117" lon="8.7150867"><ele>290.0</ele><time>2026-03-22T08:33:05.153Z</time></trkpt><trkpt lat="45.8939383" lon="8.715225"><ele>290.0</ele><time>2026-03-22T08:33:06.153Z</time></trkpt><trkpt lat="45.8938633" lon="8.7153317"><ele>290.0</ele><time>2026-03-22T08:33:07.153Z</time></trkpt><trkpt lat="45.8938" lon="8.71544"><ele>290.0</ele><time>2026-03-22T08:33:08.154Z</time></trkpt><trkpt lat="45.89374" lon="8.7155333"><ele>290.0</ele><time>2026-03-22T08:33:09.153Z</time></trkpt><trkpt lat="45.8936983" lon="8.71563"><ele>289.0</ele><time>2026-03-22T08:33:10.153Z</time></trkpt><trkpt lat="45.8936767" lon="8.7157167"><ele>288.0</ele><time>2026-03-22T08:33:11.153Z</time></trkpt><trkpt lat="45.8936517" lon="8.7158683"><ele>287.0</ele><time>2026-03-22T08:33:13.153Z</time></trkpt><trkpt lat="45.89363" lon="8.7159533"><ele>286.0</ele><time>2026-03-22T08:33:14.153Z</time></trkpt><trkpt lat="45.8936167" lon="8.71607"><ele>285.0</ele><time>2026-03-22T08:33:15.153Z</time></trkpt><trkpt lat="45.8936183" lon="8.7162217"><ele>284.0</ele><time>2026-03-22T08:33:16.153Z</time></trkpt><trkpt lat="45.8936183" lon="8.7163783"><ele>283.0</ele><time>2026-03-22T08:33:17.153Z</time></trkpt><trkpt lat="45.89362" lon="8.7165433"><ele>282.0</ele><time>2026-03-22T08:33:18.153Z</time></trkpt><trkpt lat="45.893625" lon="8.7167067"><ele>281.0</ele><time>2026-03-22T08:33:19.153Z</time></trkpt><trkpt lat="45.893625" lon="8.7168517"><ele>280.0</ele><time>2026-03-22T08:33:20.154Z</time></trkpt><trkpt lat="45.8936483" lon="8.717"><ele>279.0</ele><time>2026-03-22T08:33:21.153Z</time></trkpt><trkpt lat="45.8936733" lon="8.7171383"><ele>278.6666666666667</ele><time>2026-03-22T08:33:22.153Z</time></trkpt><trkpt lat="45.8937083" lon="8.7172683"><ele>278.3333333333333</ele><time>2026-03-22T08:33:23.154Z</time></trkpt><trkpt lat="45.8937417" lon="8.717385"><ele>278.0</ele><time>2026-03-22T08:33:24.153Z</time></trkpt><trkpt lat="45.8937617" lon="8.7174917"><ele>277.66666666666663</ele><time>2026-03-22T08:33:25.154Z</time></trkpt><trkpt lat="45.89378" lon="8.717615"><ele>277.3333333333333</ele><time>2026-03-22T08:33:26.153Z</time></trkpt><trkpt lat="45.8937933" lon="8.7177517"><ele>277.0</ele><time>2026-03-22T08:33:27.153Z</time></trkpt><trkpt lat="45.893805" lon="8.7179067"><ele>276.25</ele><time>2026-03-22T08:33:28.153Z</time></trkpt><trkpt lat="45.8938117" lon="8.7180933"><ele>275.5</ele><time>2026-03-22T08:33:29.153Z</time></trkpt><trkpt lat="45.8938217" lon="8.7182933"><ele>274.75</ele><time>2026-03-22T08:33:30.153Z</time></trkpt><trkpt lat="45.893845" lon="8.71848"><ele>274.0</ele><time>2026-03-22T08:33:31.153Z</time></trkpt><trkpt lat="45.893855" lon="8.7186433"><ele>273.25</ele><time>2026-03-22T08:33:32.153Z</time></trkpt><trkpt lat="45.893865" lon="8.718795"><ele>272.5</ele><time>2026-03-22T08:33:33.154Z</time></trkpt><trkpt lat="45.8938683" lon="8.71897"><ele>271.75</ele><time>2026-03-22T08:33:34.153Z</time></trkpt><trkpt lat="45.8938533" lon="8.719145"><ele>271.0</ele><time>2026-03-22T08:33:35.153Z</time></trkpt><trkpt lat="45.8938383" lon="8.7193233"><ele>271.8</ele><time>2026-03-22T08:33:36.153Z</time></trkpt><trkpt lat="45.8938267" lon="8.7194767"><ele>272.6</ele><time>2026-03-22T08:33:37.154Z</time></trkpt><trkpt lat="45.8938167" lon="8.71964"><ele>273.4</ele><time>2026-03-22T08:33:38.153Z</time></trkpt><trkpt lat="45.893805" lon="8.719805"><ele>274.2</ele><time>2026-03-22T08:33:39.154Z</time></trkpt><trkpt lat="45.8937967" lon="8.7199567"><ele>275.0</ele><time>2026-03-22T08:33:40.154Z</time></trkpt><trkpt lat="45.8937883" lon="8.72012"><ele>275.8</ele><time>2026-03-22T08:33:41.155Z</time></trkpt><trkpt lat="45.8937883" lon="8.72028"><ele>276.6</ele><time>2026-03-22T08:33:42.154Z</time></trkpt><trkpt lat="45.89378" lon="8.720425"><ele>277.4</ele><time>2026-03-22T08:33:43.155Z</time></trkpt><trkpt lat="45.8937667" lon="8.7205717"><ele>278.2</ele><time>2026-03-22T08:33:44.155Z</time></trkpt><trkpt lat="45.8937467" lon="8.72073"><ele>279.0</ele><time>2026-03-22T08:33:45.154Z</time></trkpt><trkpt lat="45.893725" lon="8.72089"><ele>279.0</ele><time>2026-03-22T08:33:46.154Z</time></trkpt><trkpt lat="45.8937133" lon="8.7210533"><ele>279.0</ele><time>2026-03-22T08:33:47.154Z</time></trkpt><trkpt lat="45.8937017" lon="8.72121"><ele>279.0</ele><time>2026-03-22T08:33:48.155Z</time></trkpt><trkpt lat="45.8937083" lon="8.72137"><ele>279.0</ele><time>2026-03-22T08:33:49.154Z</time></trkpt><trkpt lat="45.89372" lon="8.7215267"><ele>279.0</ele><time>2026-03-22T08:33:50.155Z</time></trkpt><trkpt lat="45.8937283" lon="8.721685"><ele>279.59999999999997</ele><time>2026-03-22T08:33:51.154Z</time></trkpt><trkpt lat="45.89374" lon="8.7218333"><ele>280.2</ele><time>2026-03-22T08:33:52.154Z</time></trkpt><trkpt lat="45.893755" lon="8.7220017"><ele>280.79999999999995</ele><time>2026-03-22T08:33:53.154Z</time></trkpt><trkpt lat="45.8937683" lon="8.7221467"><ele>281.4</ele><time>2026-03-22T08:33:54.154Z</time></trkpt><trkpt lat="45.8937733" lon="8.722305"><ele>282.0</ele><time>2026-03-22T08:33:55.154Z</time></trkpt><trkpt lat="45.893775" lon="8.72245"><ele>283.2</ele><time>2026-03-22T08:33:56.154Z</time></trkpt><trkpt lat="45.8937733" lon="8.7225983"><ele>284.4</ele><time>2026-03-22T08:33:57.154Z</time></trkpt><trkpt lat="45.8937917" lon="8.7227517"><ele>285.6</ele><time>2026-03-22T08:33:58.154Z</time></trkpt><trkpt lat="45.893805" lon="8.722915"><ele>286.8</ele><time>2026-03-22T08:33:59.155Z</time></trkpt><trkpt lat="45.89382" lon="8.7230817"><ele>288.0</ele><time>2026-03-22T08:34:00.154Z</time></trkpt><trkpt lat="45.8938333" lon="8.7232517"><ele>288.0</ele><time>2026-03-22T08:34:01.154Z</time></trkpt><trkpt lat="45.8938883" lon="8.7234383"><ele>288.0</ele><time>2026-03-22T08:34:02.155Z</time></trkpt><trkpt lat="45.89391" lon="8.7236433"><ele>288.0</ele><time>2026-03-22T08:34:03.154Z</time></trkpt><trkpt lat="45.893935" lon="8.7238433"><ele>288.0</ele><time>2026-03-22T08:34:04.154Z</time></trkpt><trkpt lat="45.8939517" lon="8.7240167"><ele>288.8</ele><time>2026-03-22T08:34:05.154Z</time></trkpt><trkpt lat="45.8939817" lon="8.724165"><ele>289.6</ele><time>2026-03-22T08:34:06.154Z</time></trkpt><trkpt lat="45.894" lon="8.7242783"><ele>290.4</ele><time>2026-03-22T08:34:07.154Z</time></trkpt><trkpt lat="45.8939983" lon="8.7243783"><ele>291.2</ele><time>2026-03-22T08:34:08.154Z</time></trkpt><trkpt lat="45.89401" lon="8.72448"><ele>292.0</ele><time>2026-03-22T08:34:09.155Z</time></trkpt><trkpt lat="45.8940317" lon="8.72465"><ele>293.3333333333333</ele><time>2026-03-22T08:34:11.154Z</time></trkpt><trkpt lat="45.8940383" lon="8.7247433"><ele>294.66666666666663</ele><time>2026-03-22T08:34:12.154Z</time></trkpt><trkpt lat="45.8940417" lon="8.72484"><ele>296.0</ele><time>2026-03-22T08:34:13.154Z</time></trkpt><trkpt lat="45.8940567" lon="8.7250267"><ele>297.3333333333333</ele><time>2026-03-22T08:34:15.154Z</time></trkpt><trkpt lat="45.894065" lon="8.7251283"><ele>298.6666666666667</ele><time>2026-03-22T08:34:16.154Z</time></trkpt><trkpt lat="45.8940783" lon="8.7252433"><ele>300.0</ele><time>2026-03-22T08:34:17.154Z</time></trkpt><trkpt lat="45.89408" lon="8.7253467"><ele>301.1666666666667</ele><time>2026-03-22T08:34:18.155Z</time></trkpt><trkpt lat="45.894085" lon="8.72545"><ele>302.3333333333333</ele><time>2026-03-22T08:34:19.154Z</time></trkpt><trkpt lat="45.89408" lon="8.7256067"><ele>303.5</ele><time>2026-03-22T08:34:21.155Z</time></trkpt><trkpt lat="45.89411" lon="8.7257033"><ele>304.66666666666663</ele><time>2026-03-22T08:34:23.155Z</time></trkpt><trkpt lat="45.89408" lon="8.72579"><ele>305.8333333333333</ele><time>2026-03-22T08:34:35.154Z</time></trkpt><trkpt lat="45.8940833" lon="8.7258867"><ele>307.0</ele><time>2026-03-22T08:34:37.154Z</time></trkpt><trkpt lat="45.8939983" lon="8.7258617"><ele>307.0</ele><time>2026-03-22T08:34:43.155Z</time></trkpt><trkpt lat="45.8939517" lon="8.7257883"><ele>307.0</ele><time>2026-03-22T08:34:46.154Z</time></trkpt><trkpt lat="45.8938983" lon="8.72571"><ele>307.0</ele><time>2026-03-22T08:34:49.155Z</time></trkpt><trkpt lat="45.8938467" lon="8.7256167"><ele>307.0</ele><time>2026-03-22T08:34:51.155Z</time></trkpt><trkpt lat="45.8937967" lon="8.72554"><ele>307.0</ele><time>2026-03-22T08:34:53.154Z</time></trkpt><trkpt lat="45.8937533" lon="8.7254667"><ele>307.0</ele><time>2026-03-22T08:34:55.154Z</time></trkpt><trkpt lat="45.8936883" lon="8.725355"><ele>306.99999999999994</ele><time>2026-03-22T08:34:57.154Z</time></trkpt><trkpt lat="45.8936333" lon="8.7252983"><ele>307.0</ele><time>2026-03-22T08:35:00.154Z</time></trkpt><trkpt lat="45.8935633" lon="8.7253367"><ele>307.0</ele><time>2026-03-22T08:35:03.154Z</time></trkpt><trkpt lat="45.8935483" lon="8.7254283"><ele>307.0</ele><time>2026-03-22T08:35:09.154Z</time></trkpt><trkpt lat="45.89352" lon="8.7255183"><ele>307.0</ele><time>2026-03-22T08:35:11.154Z</time></trkpt><trkpt lat="45.8934817" lon="8.7256083"><ele>306.99999999999994</ele><time>2026-03-22T08:35:15.154Z</time></trkpt><trkpt lat="45.8934233" lon="8.725675"><ele>307.0</ele><time>2026-03-22T08:35:18.154Z</time></trkpt><trkpt lat="45.8933717" lon="8.7257567"><ele>307.66666666666663</ele><time>2026-03-22T08:35:21.154Z</time></trkpt><trkpt lat="45.8933217" lon="8.7258317"><ele>308.3333333333333</ele><time>2026-03-22T08:35:25.154Z</time></trkpt><trkpt lat="45.8933217" lon="8.7259583"><ele>309.0</ele><time>2026-03-22T08:35:31.155Z</time></trkpt><trkpt lat="45.8933567" lon="8.7260933"><ele>309.6666666666667</ele><time>2026-03-22T08:35:34.154Z</time></trkpt><trkpt lat="45.8934" lon="8.72619"><ele>310.33333333333337</ele><time>2026-03-22T08:35:37.155Z</time></trkpt><trkpt lat="45.8934417" lon="8.7262833"><ele>311.0</ele><time>2026-03-22T08:35:40.154Z</time></trkpt><trkpt lat="45.89344" lon="8.7264"><ele>318.33333333333337</ele><time>2026-03-22T08:35:57.154Z</time></trkpt><trkpt lat="45.8933867" lon="8.7264617"><ele>325.6666666666667</ele><time>2026-03-22T08:36:02.154Z</time></trkpt><trkpt lat="45.8933483" lon="8.726565"><ele>333.0</ele><time>2026-03-22T08:36:06.155Z</time></trkpt><trkpt lat="45.8933167" lon="8.7266483"><ele>340.3333333333333</ele><time>2026-03-22T08:36:10.154Z</time></trkpt><trkpt lat="45.893265" lon="8.726855"><ele>347.66666666666663</ele><time>2026-03-22T08:36:26.155Z</time></trkpt><trkpt lat="45.893235" lon="8.7269417"><ele>355.0</ele><time>2026-03-22T08:36:28.154Z</time></trkpt><trkpt lat="45.8932217" lon="8.7270383"><ele>356.16666666666663</ele><time>2026-03-22T08:36:31.154Z</time></trkpt><trkpt lat="45.8932417" lon="8.727125"><ele>357.3333333333333</ele><time>2026-03-22T08:36:34.154Z</time></trkpt><trkpt lat="45.8932967" lon="8.7272183"><ele>358.5</ele><time>2026-03-22T08:36:37.154Z</time></trkpt><trkpt lat="45.8933717" lon="8.727275"><ele>359.6666666666667</ele><time>2026-03-22T08:36:41.154Z</time></trkpt><trkpt lat="45.8934317" lon="8.7273317"><ele>360.83333333333337</ele><time>2026-03-22T08:36:44.154Z</time></trkpt><trkpt lat="45.8934983" lon="8.7274183"><ele>362.0</ele><time>2026-03-22T08:36:47.155Z</time></trkpt><trkpt lat="45.893535" lon="8.7275083"><ele>357.42857142857144</ele><time>2026-03-22T08:36:51.154Z</time></trkpt><trkpt lat="45.8935733" lon="8.7275967"><ele>352.85714285714283</ele><time>2026-03-22T08:36:56.155Z</time></trkpt><trkpt lat="45.8936133" lon="8.72769"><ele>348.28571428571433</ele><time>2026-03-22T08:36:59.154Z</time></trkpt><trkpt lat="45.893645" lon="8.7277733"><ele>343.7142857142857</ele><time>2026-03-22T08:37:01.154Z</time></trkpt><trkpt lat="45.8936717" lon="8.7278883"><ele>339.14285714285717</ele><time>2026-03-22T08:37:03.155Z</time></trkpt><trkpt lat="45.8937" lon="8.7279817"><ele>334.5714285714286</ele><time>2026-03-22T08:37:04.154Z</time></trkpt><trkpt lat="45.893735" lon="8.7280717"><ele>330.0</ele><time>2026-03-22T08:37:05.154Z</time></trkpt><trkpt lat="45.8937783" lon="8.7281717"><ele>330.0</ele><time>2026-03-22T08:37:06.154Z</time></trkpt><trkpt lat="45.8938083" lon="8.7282867"><ele>330.0</ele><time>2026-03-22T08:37:07.154Z</time></trkpt><trkpt lat="45.893845" lon="8.7283983"><ele>330.0</ele><time>2026-03-22T08:37:08.154Z</time></trkpt><trkpt lat="45.8938783" lon="8.7285083"><ele>330.0</ele><time>2026-03-22T08:37:09.154Z</time></trkpt><trkpt lat="45.893925" lon="8.728645"><ele>330.0</ele><time>2026-03-22T08:37:10.155Z</time></trkpt><trkpt lat="45.8939617" lon="8.7287767"><ele>331.14285714285717</ele><time>2026-03-22T08:37:11.154Z</time></trkpt><trkpt lat="45.8939867" lon="8.7288933"><ele>332.2857142857143</ele><time>2026-03-22T08:37:12.155Z</time></trkpt><trkpt lat="45.8939983" lon="8.7290033"><ele>333.42857142857144</ele><time>2026-03-22T08:37:13.154Z</time></trkpt><trkpt lat="45.8940067" lon="8.7291083"><ele>334.57142857142856</ele><time>2026-03-22T08:37:14.155Z</time></trkpt><trkpt lat="45.8940167" lon="8.7292067"><ele>335.7142857142857</ele><time>2026-03-22T08:37:15.154Z</time></trkpt><trkpt lat="45.8940283" lon="8.7292983"><ele>336.8571428571429</ele><time>2026-03-22T08:37:16.154Z</time></trkpt><trkpt lat="45.8940467" lon="8.72939"><ele>338.0</ele><time>2026-03-22T08:37:17.154Z</time></trkpt><trkpt lat="45.8940667" lon="8.7294833"><ele>338.5</ele><time>2026-03-22T08:37:18.154Z</time></trkpt><trkpt lat="45.8940833" lon="8.7295717"><ele>339.0</ele><time>2026-03-22T08:37:19.154Z</time></trkpt><trkpt lat="45.89409" lon="8.7296617"><ele>339.5</ele><time>2026-03-22T08:37:20.154Z</time></trkpt><trkpt lat="45.8941033" lon="8.729755"><ele>340.0</ele><time>2026-03-22T08:37:21.154Z</time></trkpt><trkpt lat="45.8941033" lon="8.72992"><ele>340.5</ele><time>2026-03-22T08:37:23.154Z</time></trkpt><trkpt lat="45.8941267" lon="8.7300833"><ele>341.0</ele><time>2026-03-22T08:37:25.154Z</time></trkpt><trkpt lat="45.89412" lon="8.7302233"><ele>340.0</ele><time>2026-03-22T08:37:27.154Z</time></trkpt><trkpt lat="45.8941467" lon="8.730365"><ele>339.0</ele><time>2026-03-22T08:37:29.155Z</time></trkpt><trkpt lat="45.8942017" lon="8.73048"><ele>338.0</ele><time>2026-03-22T08:37:31.154Z</time></trkpt><trkpt lat="45.8942467" lon="8.7306017"><ele>337.0</ele><time>2026-03-22T08:37:33.154Z</time></trkpt><trkpt lat="45.8942933" lon="8.73072"><ele>336.0</ele><time>2026-03-22T08:37:35.155Z</time></trkpt><trkpt lat="45.8943417" lon="8.7308733"><ele>328.0</ele><time>2026-03-22T08:37:37.154Z</time></trkpt><trkpt lat="45.8943717" lon="8.7310667"><ele>320.0</ele><time>2026-03-22T08:37:39.155Z</time></trkpt><trkpt lat="45.89438" lon="8.7311883"><ele>312.0</ele><time>2026-03-22T08:37:40.155Z</time></trkpt><trkpt lat="45.8944133" lon="8.7313833"><ele>304.0</ele><time>2026-03-22T08:37:41.154Z</time></trkpt><trkpt lat="45.894445" lon="8.7315833"><ele>304.0</ele><time>2026-03-22T08:37:42.155Z</time></trkpt><trkpt lat="45.894475" lon="8.7317767"><ele>304.0</ele><time>2026-03-22T08:37:43.154Z</time></trkpt><trkpt lat="45.8945067" lon="8.7319567"><ele>304.0</ele><time>2026-03-22T08:37:44.154Z</time></trkpt><trkpt lat="45.89453" lon="8.7321183"><ele>304.0</ele><time>2026-03-22T08:37:45.154Z</time></trkpt><trkpt lat="45.8945567" lon="8.7322517"><ele>304.2</ele><time>2026-03-22T08:37:46.155Z</time></trkpt><trkpt lat="45.8945783" lon="8.7323667"><ele>304.4</ele><time>2026-03-22T08:37:47.154Z</time></trkpt><trkpt lat="45.894595" lon="8.7324717"><ele>304.6</ele><time>2026-03-22T08:37:48.154Z</time></trkpt><trkpt lat="45.89463" lon="8.732635"><ele>304.8</ele><time>2026-03-22T08:37:50.154Z</time></trkpt><trkpt lat="45.89459" lon="8.7327667"><ele>305.0</ele><time>2026-03-22T08:37:53.154Z</time></trkpt><trkpt lat="45.8946117" lon="8.7328933"><ele>305.5</ele><time>2026-03-22T08:37:55.154Z</time></trkpt><trkpt lat="45.894655" lon="8.7329867"><ele>306.0</ele><time>2026-03-22T08:37:57.154Z</time></trkpt><trkpt lat="45.894665" lon="8.733105"><ele>306.5</ele><time>2026-03-22T08:37:59.154Z</time></trkpt><trkpt lat="45.8946017" lon="8.7331533"><ele>307.0</ele><time>2026-03-22T08:38:00.154Z</time></trkpt><trkpt lat="45.8945133" lon="8.733215"><ele>307.5</ele><time>2026-03-22T08:38:01.154Z</time></trkpt><trkpt lat="45.8944283" lon="8.7332783"><ele>308.0</ele><time>2026-03-22T08:38:02.154Z</time></trkpt><trkpt lat="45.8943567" lon="8.7333133"><ele>308.0</ele><time>2026-03-22T08:38:03.154Z</time></trkpt><trkpt lat="45.894285" lon="8.7333667"><ele>308.0</ele><time>2026-03-22T08:38:05.154Z</time></trkpt><trkpt lat="45.89424" lon="8.73346"><ele>308.0</ele><time>2026-03-22T08:38:07.154Z</time></trkpt><trkpt lat="45.894225" lon="8.7335633"><ele>308.0</ele><time>2026-03-22T08:38:08.154Z</time></trkpt><trkpt lat="45.89421" lon="8.73369"><ele>308.0</ele><time>2026-03-22T08:38:09.154Z</time></trkpt><trkpt lat="45.894205" lon="8.7338317"><ele>308.0</ele><time>2026-03-22T08:38:10.155Z</time></trkpt><trkpt lat="45.8942033" lon="8.7339833"><ele>309.75</ele><time>2026-03-22T08:38:11.154Z</time></trkpt><trkpt lat="45.8942033" lon="8.73416"><ele>311.5</ele><time>2026-03-22T08:38:12.154Z</time></trkpt><trkpt lat="45.894195" lon="8.734345"><ele>313.25</ele><time>2026-03-22T08:38:13.154Z</time></trkpt><trkpt lat="45.894195" lon="8.7345267"><ele>315.0</ele><time>2026-03-22T08:38:14.154Z</time></trkpt><trkpt lat="45.8942" lon="8.734695"><ele>313.8</ele><time>2026-03-22T08:38:15.154Z</time></trkpt><trkpt lat="45.89421" lon="8.73485"><ele>312.6</ele><time>2026-03-22T08:38:16.154Z</time></trkpt><trkpt lat="45.8942217" lon="8.7349833"><ele>311.4</ele><time>2026-03-22T08:38:17.154Z</time></trkpt><trkpt lat="45.894235" lon="8.7351017"><ele>310.2</ele><time>2026-03-22T08:38:18.154Z</time></trkpt><trkpt lat="45.8942667" lon="8.7352383"><ele>309.0</ele><time>2026-03-22T08:38:20.154Z</time></trkpt><trkpt lat="45.8943067" lon="8.7353217"><ele>309.0</ele><time>2026-03-22T08:38:22.155Z</time></trkpt><trkpt lat="45.8944167" lon="8.73534"><ele>309.0</ele><time>2026-03-22T08:38:25.154Z</time></trkpt><trkpt lat="45.8945233" lon="8.7352917"><ele>309.0</ele><time>2026-03-22T08:38:26.154Z</time></trkpt><trkpt lat="45.89461" lon="8.7352367"><ele>309.0</ele><time>2026-03-22T08:38:27.154Z</time></trkpt><trkpt lat="45.8946867" lon="8.7351917"><ele>309.0</ele><time>2026-03-22T08:38:28.154Z</time></trkpt><trkpt lat="45.894755" lon="8.7351483"><ele>308.3333333333333</ele><time>2026-03-22T08:38:29.154Z</time></trkpt><trkpt lat="45.89481" lon="8.7350967"><ele>307.6666666666667</ele><time>2026-03-22T08:38:30.154Z</time></trkpt><trkpt lat="45.894905" lon="8.73498"><ele>307.0</ele><time>2026-03-22T08:38:32.154Z</time></trkpt><trkpt lat="45.8949383" lon="8.7349017"><ele>306.33333333333337</ele><time>2026-03-22T08:38:33.155Z</time></trkpt><trkpt lat="45.8949817" lon="8.7348167"><ele>305.6666666666667</ele><time>2026-03-22T08:38:34.154Z</time></trkpt><trkpt lat="45.8950233" lon="8.7347383"><ele>305.0</ele><time>2026-03-22T08:38:35.154Z</time></trkpt><trkpt lat="45.8950683" lon="8.73467"><ele>304.5</ele><time>2026-03-22T08:38:36.154Z</time></trkpt><trkpt lat="45.895145" lon="8.734595"><ele>304.0</ele><time>2026-03-22T08:38:38.154Z</time></trkpt><trkpt lat="45.8952633" lon="8.7345533"><ele>303.5</ele><time>2026-03-22T08:38:40.154Z</time></trkpt><trkpt lat="45.8953267" lon="8.7345417"><ele>303.0</ele><time>2026-03-22T08:38:41.154Z</time></trkpt><trkpt lat="45.8954233" lon="8.7345417"><ele>302.5</ele><time>2026-03-22T08:38:43.154Z</time></trkpt><trkpt lat="45.8954933" lon="8.73457"><ele>302.0</ele><time>2026-03-22T08:38:45.154Z</time></trkpt><trkpt lat="45.895555" lon="8.7345417"><ele>302.0</ele><time>2026-03-22T08:38:46.154Z</time></trkpt><trkpt lat="45.895605" lon="8.7347167"><ele>302.0</ele><time>2026-03-22T08:38:48.154Z</time></trkpt><trkpt lat="45.8956233" lon="8.734865"><ele>302.0</ele><time>2026-03-22T08:38:49.155Z</time></trkpt><trkpt lat="45.8956483" lon="8.7350083"><ele>302.0</ele><time>2026-03-22T08:38:50.154Z</time></trkpt><trkpt lat="45.8956817" lon="8.7351483"><ele>302.0</ele><time>2026-03-22T08:38:51.154Z</time></trkpt><trkpt lat="45.8957283" lon="8.735275"><ele>302.2</ele><time>2026-03-22T08:38:52.155Z</time></trkpt><trkpt lat="45.8957483" lon="8.7354183"><ele>302.4</ele><time>2026-03-22T08:38:53.154Z</time></trkpt><trkpt lat="45.8957567" lon="8.735555"><ele>302.6</ele><time>2026-03-22T08:38:54.154Z</time></trkpt><trkpt lat="45.8957683" lon="8.7356883"><ele>302.8</ele><time>2026-03-22T08:38:55.154Z</time></trkpt><trkpt lat="45.8958033" lon="8.7358033"><ele>303.0</ele><time>2026-03-22T08:38:56.154Z</time></trkpt><trkpt lat="45.89585" lon="8.7359183"><ele>303.5</ele><time>2026-03-22T08:38:57.155Z</time></trkpt><trkpt lat="45.89588" lon="8.7360633"><ele>304.0</ele><time>2026-03-22T08:38:58.154Z</time></trkpt><trkpt lat="45.89592" lon="8.7361783"><ele>304.5</ele><time>2026-03-22T08:38:59.154Z</time></trkpt><trkpt lat="45.89595" lon="8.7362817"><ele>305.0</ele><time>2026-03-22T08:39:00.154Z</time></trkpt><trkpt lat="45.8959783" lon="8.736375"><ele>305.5</ele><time>2026-03-22T08:39:01.154Z</time></trkpt><trkpt lat="45.8960067" lon="8.73646"><ele>306.0</ele><time>2026-03-22T08:39:02.154Z</time></trkpt><trkpt lat="45.8960833" lon="8.7365317"><ele>306.5</ele><time>2026-03-22T08:39:04.154Z</time></trkpt><trkpt lat="45.89616" lon="8.7365617"><ele>307.0</ele><time>2026-03-22T08:39:07.154Z</time></trkpt><trkpt lat="45.8962517" lon="8.7366417"><ele>307.5</ele><time>2026-03-22T08:39:10.154Z</time></trkpt><trkpt lat="45.8962367" lon="8.736745"><ele>308.0</ele><time>2026-03-22T08:39:11.154Z</time></trkpt><trkpt lat="45.8962017" lon="8.7368267"><ele>308.5</ele><time>2026-03-22T08:39:12.154Z</time></trkpt><trkpt lat="45.8961383" lon="8.7368733"><ele>309.0</ele><time>2026-03-22T08:39:13.154Z</time></trkpt><trkpt lat="45.89609" lon="8.73701"><ele>309.0</ele><time>2026-03-22T08:39:15.154Z</time></trkpt><trkpt lat="45.8961383" lon="8.7371083"><ele>309.0</ele><time>2026-03-22T08:39:16.154Z</time></trkpt><trkpt lat="45.8961833" lon="8.7372283"><ele>309.0</ele><time>2026-03-22T08:39:17.154Z</time></trkpt><trkpt lat="45.8962167" lon="8.7373433"><ele>309.0</ele><time>2026-03-22T08:39:18.154Z</time></trkpt><trkpt lat="45.8962467" lon="8.7374783"><ele>309.0</ele><time>2026-03-22T08:39:19.155Z</time></trkpt><trkpt lat="45.8962733" lon="8.737645"><ele>311.0</ele><time>2026-03-22T08:39:20.154Z</time></trkpt><trkpt lat="45.896295" lon="8.737805"><ele>313.0</ele><time>2026-03-22T08:39:21.154Z</time></trkpt><trkpt lat="45.896325" lon="8.7379667"><ele>315.0</ele><time>2026-03-22T08:39:22.154Z</time></trkpt><trkpt lat="45.8963233" lon="8.738085"><ele>317.0</ele><time>2026-03-22T08:39:23.154Z</time></trkpt><trkpt lat="45.896325" lon="8.7381867"><ele>319.0</ele><time>2026-03-22T08:39:24.154Z</time></trkpt><trkpt lat="45.8962983" lon="8.73835"><ele>319.0</ele><time>2026-03-22T08:39:26.154Z</time></trkpt><trkpt lat="45.8962733" lon="8.73849"><ele>319.0</ele><time>2026-03-22T08:39:28.154Z</time></trkpt><trkpt lat="45.8962833" lon="8.7386667"><ele>319.0</ele><time>2026-03-22T08:39:30.155Z</time></trkpt><trkpt lat="45.8962967" lon="8.73876"><ele>319.0</ele><time>2026-03-22T08:39:31.155Z</time></trkpt><trkpt lat="45.89632" lon="8.738915"><ele>319.0</ele><time>2026-03-22T08:39:33.154Z</time></trkpt><trkpt lat="45.8963267" lon="8.7390133"><ele>320.0</ele><time>2026-03-22T08:39:35.155Z</time></trkpt><trkpt lat="45.8962867" lon="8.7391583"><ele>321.0</ele><time>2026-03-22T08:39:37.154Z</time></trkpt><trkpt lat="45.8962667" lon="8.7393517"><ele>322.0</ele><time>2026-03-22T08:39:39.154Z</time></trkpt><trkpt lat="45.8962667" lon="8.739465"><ele>323.0</ele><time>2026-03-22T08:39:40.154Z</time></trkpt><trkpt lat="45.89627" lon="8.7395967"><ele>324.0</ele><time>2026-03-22T08:39:41.154Z</time></trkpt><trkpt lat="45.896265" lon="8.7397367"><ele>324.2</ele><time>2026-03-22T08:39:42.154Z</time></trkpt><trkpt lat="45.8962783" lon="8.7399"><ele>324.4</ele><time>2026-03-22T08:39:43.154Z</time></trkpt><trkpt lat="45.8963" lon="8.7400667"><ele>324.6</ele><time>2026-03-22T08:39:44.154Z</time></trkpt><trkpt lat="45.896325" lon="8.7402117"><ele>324.8</ele><time>2026-03-22T08:39:45.154Z</time></trkpt><trkpt lat="45.8963517" lon="8.7403583"><ele>325.0</ele><time>2026-03-22T08:39:46.154Z</time></trkpt><trkpt lat="45.8963833" lon="8.7404883"><ele>326.5</ele><time>2026-03-22T08:39:47.154Z</time></trkpt><trkpt lat="45.8964133" lon="8.740625"><ele>328.0</ele><time>2026-03-22T08:39:48.154Z</time></trkpt><trkpt lat="45.89644" lon="8.7407533"><ele>329.5</ele><time>2026-03-22T08:39:49.154Z</time></trkpt><trkpt lat="45.8964717" lon="8.740845"><ele>331.0</ele><time>2026-03-22T08:39:50.155Z</time></trkpt><trkpt lat="45.8964817" lon="8.7409617"><ele>332.5</ele><time>2026-03-22T08:39:51.154Z</time></trkpt><trkpt lat="45.8965" lon="8.7410783"><ele>334.0</ele><time>2026-03-22T08:39:52.154Z</time></trkpt><trkpt lat="45.89651" lon="8.74119"><ele>332.66666666666663</ele><time>2026-03-22T08:39:53.154Z</time></trkpt><trkpt lat="45.8965267" lon="8.7412933"><ele>331.3333333333333</ele><time>2026-03-22T08:39:54.154Z</time></trkpt><trkpt lat="45.8965617" lon="8.7414"><ele>330.0</ele><time>2026-03-22T08:39:55.155Z</time></trkpt><trkpt lat="45.8966117" lon="8.7415"><ele>328.6666666666667</ele><time>2026-03-22T08:39:56.154Z</time></trkpt><trkpt lat="45.896665" lon="8.7415833"><ele>327.33333333333337</ele><time>2026-03-22T08:39:57.154Z</time></trkpt><trkpt lat="45.8967133" lon="8.74165"><ele>326.0</ele><time>2026-03-22T08:39:58.154Z</time></trkpt><trkpt lat="45.8967633" lon="8.741715"><ele>326.0</ele><time>2026-03-22T08:39:59.154Z</time></trkpt><trkpt lat="45.8968233" lon="8.7417917"><ele>326.0</ele><time>2026-03-22T08:40:00.154Z</time></trkpt><trkpt lat="45.8968867" lon="8.74187"><ele>326.0</ele><time>2026-03-22T08:40:01.154Z</time></trkpt><trkpt lat="45.89695" lon="8.7419567"><ele>326.0</ele><time>2026-03-22T08:40:02.154Z</time></trkpt><trkpt lat="45.8970033" lon="8.74205"><ele>326.0</ele><time>2026-03-22T08:40:03.154Z</time></trkpt><trkpt lat="45.89706" lon="8.74216"><ele>326.0</ele><time>2026-03-22T08:40:04.155Z</time></trkpt><trkpt lat="45.89711" lon="8.7422933"><ele>327.5</ele><time>2026-03-22T08:40:05.154Z</time></trkpt><trkpt lat="45.8971533" lon="8.7424183"><ele>329.0</ele><time>2026-03-22T08:40:06.154Z</time></trkpt><trkpt lat="45.8971933" lon="8.742555"><ele>330.5</ele><time>2026-03-22T08:40:07.154Z</time></trkpt><trkpt lat="45.8972283" lon="8.742675"><ele>332.0</ele><time>2026-03-22T08:40:08.154Z</time></trkpt><trkpt lat="45.8972683" lon="8.7427917"><ele>333.5</ele><time>2026-03-22T08:40:09.154Z</time></trkpt><trkpt lat="45.8973033" lon="8.7428683"><ele>335.0</ele><time>2026-03-22T08:40:10.154Z</time></trkpt><trkpt lat="45.8973367" lon="8.7429517"><ele>336.5</ele><time>2026-03-22T08:40:11.155Z</time></trkpt><trkpt lat="45.8973583" lon="8.7430467"><ele>338.0</ele><time>2026-03-22T08:40:12.154Z</time></trkpt><trkpt lat="45.89739" lon="8.7431617"><ele>339.5</ele><time>2026-03-22T08:40:13.154Z</time></trkpt><trkpt lat="45.89742" lon="8.743275"><ele>341.0</ele><time>2026-03-22T08:40:14.155Z</time></trkpt><trkpt lat="45.897455" lon="8.7434083"><ele>342.5</ele><time>2026-03-22T08:40:15.155Z</time></trkpt><trkpt lat="45.8974867" lon="8.7435283"><ele>344.0</ele><time>2026-03-22T08:40:16.154Z</time></trkpt><trkpt lat="45.8975167" lon="8.7436617"><ele>341.6</ele><time>2026-03-22T08:40:17.154Z</time></trkpt><trkpt lat="45.8975667" lon="8.7438267"><ele>339.2</ele><time>2026-03-22T08:40:18.154Z</time></trkpt><trkpt lat="45.897595" lon="8.7439617"><ele>336.8</ele><time>2026-03-22T08:40:19.154Z</time></trkpt><trkpt lat="45.89765" lon="8.7441033"><ele>334.40000000000003</ele><time>2026-03-22T08:40:20.155Z</time></trkpt><trkpt lat="45.89769" lon="8.7442367"><ele>332.0</ele><time>2026-03-22T08:40:21.154Z</time></trkpt><trkpt lat="45.8977167" lon="8.74435"><ele>332.83333333333337</ele><time>2026-03-22T08:40:22.155Z</time></trkpt><trkpt lat="45.897735" lon="8.744465"><ele>333.6666666666667</ele><time>2026-03-22T08:40:23.154Z</time></trkpt><trkpt lat="45.89774" lon="8.7445717"><ele>334.5</ele><time>2026-03-22T08:40:24.154Z</time></trkpt><trkpt lat="45.8977567" lon="8.7446817"><ele>335.3333333333333</ele><time>2026-03-22T08:40:25.154Z</time></trkpt><trkpt lat="45.8977683" lon="8.7447733"><ele>336.16666666666663</ele><time>2026-03-22T08:40:26.155Z</time></trkpt><trkpt lat="45.8977967" lon="8.7449217"><ele>337.0</ele><time>2026-03-22T08:40:28.154Z</time></trkpt><trkpt lat="45.89782" lon="8.7450467"><ele>337.0</ele><time>2026-03-22T08:40:30.155Z</time></trkpt><trkpt lat="45.89778" lon="8.7451417"><ele>337.0</ele><time>2026-03-22T08:40:37.154Z</time></trkpt><trkpt lat="45.897765" lon="8.7452617"><ele>337.0</ele><time>2026-03-22T08:40:40.154Z</time></trkpt><trkpt lat="45.8978133" lon="8.7454083"><ele>337.0</ele><time>2026-03-22T08:41:36.154Z</time></trkpt><trkpt lat="45.897815" lon="8.745505"><ele>337.0</ele><time>2026-03-22T08:41:53.154Z</time></trkpt><trkpt lat="45.8978417" lon="8.7456017"><ele>337.0</ele><time>2026-03-22T08:41:56.155Z</time></trkpt><trkpt lat="45.89789" lon="8.7457233"><ele>337.66666666666663</ele><time>2026-03-22T08:41:59.154Z</time></trkpt><trkpt lat="45.89793" lon="8.74582"><ele>338.3333333333333</ele><time>2026-03-22T08:42:01.155Z</time></trkpt><trkpt lat="45.8979683" lon="8.7459083"><ele>339.0</ele><time>2026-03-22T08:42:03.154Z</time></trkpt><trkpt lat="45.8980167" lon="8.746035"><ele>339.6666666666667</ele><time>2026-03-22T08:42:05.154Z</time></trkpt><trkpt lat="45.8980417" lon="8.74612"><ele>340.33333333333337</ele><time>2026-03-22T08:42:06.154Z</time></trkpt><trkpt lat="45.8981017" lon="8.74626"><ele>341.0</ele><time>2026-03-22T08:42:08.154Z</time></trkpt><trkpt lat="45.8981283" lon="8.7463517"><ele>342.20000000000005</ele><time>2026-03-22T08:42:09.154Z</time></trkpt><trkpt lat="45.8981533" lon="8.7464833"><ele>343.40000000000003</ele><time>2026-03-22T08:42:11.154Z</time></trkpt><trkpt lat="45.8981883" lon="8.74663"><ele>344.6</ele><time>2026-03-22T08:42:13.154Z</time></trkpt><trkpt lat="45.8982317" lon="8.74678"><ele>345.8</ele><time>2026-03-22T08:42:15.155Z</time></trkpt><trkpt lat="45.8982633" lon="8.7469333"><ele>347.0</ele><time>2026-03-22T08:42:17.155Z</time></trkpt><trkpt lat="45.8983067" lon="8.747095"><ele>347.6666666666667</ele><time>2026-03-22T08:42:19.154Z</time></trkpt><trkpt lat="45.8983083" lon="8.74719"><ele>348.33333333333337</ele><time>2026-03-22T08:42:21.155Z</time></trkpt><trkpt lat="45.8982833" lon="8.7472833"><ele>349.0</ele><time>2026-03-22T08:42:23.155Z</time></trkpt><trkpt lat="45.8982683" lon="8.7473933"><ele>349.6666666666667</ele><time>2026-03-22T08:42:25.154Z</time></trkpt><trkpt lat="45.8982617" lon="8.7475267"><ele>350.3333333333333</ele><time>2026-03-22T08:42:27.155Z</time></trkpt><trkpt lat="45.8982467" lon="8.7476217"><ele>351.0</ele><time>2026-03-22T08:42:29.154Z</time></trkpt><trkpt lat="45.8982267" lon="8.74773"><ele>351.8333333333333</ele><time>2026-03-22T08:42:31.154Z</time></trkpt><trkpt lat="45.8982333" lon="8.747845"><ele>352.6666666666667</ele><time>2026-03-22T08:42:34.154Z</time></trkpt><trkpt lat="45.8982417" lon="8.747965"><ele>353.5</ele><time>2026-03-22T08:42:36.154Z</time></trkpt><trkpt lat="45.8982983" lon="8.7480983"><ele>354.33333333333337</ele><time>2026-03-22T08:42:38.154Z</time></trkpt><trkpt lat="45.8983417" lon="8.748185"><ele>355.1666666666667</ele><time>2026-03-22T08:42:40.154Z</time></trkpt><trkpt lat="45.8983667" lon="8.7482683"><ele>356.0</ele><time>2026-03-22T08:42:42.155Z</time></trkpt><trkpt lat="45.8983933" lon="8.7484083"><ele>346.6</ele><time>2026-03-22T08:42:45.154Z</time></trkpt><trkpt lat="45.8984667" lon="8.74852"><ele>337.20000000000005</ele><time>2026-03-22T08:42:47.154Z</time></trkpt><trkpt lat="45.898505" lon="8.7486517"><ele>327.79999999999995</ele><time>2026-03-22T08:42:50.154Z</time></trkpt><trkpt lat="45.8985583" lon="8.7487633"><ele>318.4</ele><time>2026-03-22T08:42:52.155Z</time></trkpt><trkpt lat="45.8986017" lon="8.7488633"><ele>309.0</ele><time>2026-03-22T08:42:55.154Z</time></trkpt><trkpt lat="45.8986517" lon="8.7489667"><ele>309.0</ele><time>2026-03-22T08:42:58.154Z</time></trkpt><trkpt lat="45.8987133" lon="8.74906"><ele>309.0</ele><time>2026-03-22T08:43:01.154Z</time></trkpt><trkpt lat="45.8987783" lon="8.7491467"><ele>309.0</ele><time>2026-03-22T08:43:03.154Z</time></trkpt><trkpt lat="45.8988383" lon="8.7491933"><ele>309.0</ele><time>2026-03-22T08:43:05.155Z</time></trkpt><trkpt lat="45.8988817" lon="8.7492683"><ele>309.0</ele><time>2026-03-22T08:43:09.155Z</time></trkpt><trkpt lat="45.898945" lon="8.74937"><ele>309.0</ele><time>2026-03-22T08:43:13.155Z</time></trkpt><trkpt lat="45.89898" lon="8.74949"><ele>310.0</ele><time>2026-03-22T08:43:15.155Z</time></trkpt><trkpt lat="45.8990083" lon="8.74959"><ele>311.0</ele><time>2026-03-22T08:43:17.154Z</time></trkpt><trkpt lat="45.8990283" lon="8.749685"><ele>312.0</ele><time>2026-03-22T08:43:19.155Z</time></trkpt><trkpt lat="45.8990867" lon="8.749775"><ele>313.0</ele><time>2026-03-22T08:43:21.155Z</time></trkpt><trkpt lat="45.8991717" lon="8.749865"><ele>314.0</ele><time>2026-03-22T08:43:25.154Z</time></trkpt><trkpt lat="45.8992233" lon="8.749955"><ele>315.0</ele><time>2026-03-22T08:43:27.154Z</time></trkpt><trkpt lat="45.8992633" lon="8.7500567"><ele>311.2</ele><time>2026-03-22T08:43:29.155Z</time></trkpt><trkpt lat="45.8993233" lon="8.75018"><ele>307.4</ele><time>2026-03-22T08:43:31.154Z</time></trkpt><trkpt lat="45.8993733" lon="8.7503033"><ele>303.6</ele><time>2026-03-22T08:43:33.155Z</time></trkpt><trkpt lat="45.8994067" lon="8.7504317"><ele>299.8</ele><time>2026-03-22T08:43:35.154Z</time></trkpt><trkpt lat="45.8994283" lon="8.7505983"><ele>296.0</ele><time>2026-03-22T08:43:37.154Z</time></trkpt><trkpt lat="45.89946" lon="8.7507483"><ele>296.0</ele><time>2026-03-22T08:43:39.154Z</time></trkpt><trkpt lat="45.8995067" lon="8.7508983"><ele>296.0</ele><time>2026-03-22T08:43:41.154Z</time></trkpt><trkpt lat="45.8995317" lon="8.7509867"><ele>296.0</ele><time>2026-03-22T08:43:42.154Z</time></trkpt><trkpt lat="45.89956" lon="8.75107"><ele>296.0</ele><time>2026-03-22T08:43:43.154Z</time></trkpt><trkpt lat="45.8996017" lon="8.751175"><ele>296.0</ele><time>2026-03-22T08:43:45.155Z</time></trkpt><trkpt lat="45.8996433" lon="8.7512783"><ele>296.0</ele><time>2026-03-22T08:43:48.154Z</time></trkpt><trkpt lat="45.89968" lon="8.7513867"><ele>296.6666666666667</ele><time>2026-03-22T08:43:51.154Z</time></trkpt><trkpt lat="45.8997333" lon="8.7514767"><ele>297.33333333333337</ele><time>2026-03-22T08:43:54.154Z</time></trkpt><trkpt lat="45.8997767" lon="8.75156"><ele>298.0</ele><time>2026-03-22T08:43:56.154Z</time></trkpt><trkpt lat="45.8998117" lon="8.7516417"><ele>298.6666666666667</ele><time>2026-03-22T08:43:58.154Z</time></trkpt><trkpt lat="45.8998467" lon="8.7517567"><ele>299.3333333333333</ele><time>2026-03-22T08:44:01.154Z</time></trkpt><trkpt lat="45.8998967" lon="8.7518567"><ele>300.0</ele><time>2026-03-22T08:44:04.154Z</time></trkpt><trkpt lat="45.8999667" lon="8.7520133"><ele>298.6</ele><time>2026-03-22T08:44:06.154Z</time></trkpt><trkpt lat="45.9000133" lon="8.7521333"><ele>297.2</ele><time>2026-03-22T08:44:07.155Z</time></trkpt><trkpt lat="45.9000683" lon="8.7522633"><ele>295.8</ele><time>2026-03-22T08:44:08.154Z</time></trkpt><trkpt lat="45.9001167" lon="8.752375"><ele>294.4</ele><time>2026-03-22T08:44:09.155Z</time></trkpt><trkpt lat="45.9001867" lon="8.7524983"><ele>293.0</ele><time>2026-03-22T08:44:10.154Z</time></trkpt><trkpt lat="45.9002583" lon="8.7526333"><ele>293.0</ele><time>2026-03-22T08:44:11.154Z</time></trkpt><trkpt lat="45.90033" lon="8.7527733"><ele>293.0</ele><time>2026-03-22T08:44:12.155Z</time></trkpt><trkpt lat="45.9003933" lon="8.752965"><ele>293.0</ele><time>2026-03-22T08:44:13.154Z</time></trkpt><trkpt lat="45.90044" lon="8.7530933"><ele>293.0</ele><time>2026-03-22T08:44:14.154Z</time></trkpt><trkpt lat="45.9004933" lon="8.753225"><ele>293.0</ele><time>2026-03-22T08:44:15.154Z</time></trkpt><trkpt lat="45.90053" lon="8.7533383"><ele>293.0</ele><time>2026-03-22T08:44:16.154Z</time></trkpt><trkpt lat="45.9005733" lon="8.75343"><ele>293.0</ele><time>2026-03-22T08:44:17.154Z</time></trkpt><trkpt lat="45.90061" lon="8.7535117"><ele>293.0</ele><time>2026-03-22T08:44:18.154Z</time></trkpt><trkpt lat="45.9006567" lon="8.7536367"><ele>293.0</ele><time>2026-03-22T08:44:19.155Z</time></trkpt><trkpt lat="45.900685" lon="8.7537417"><ele>293.0</ele><time>2026-03-22T08:44:20.154Z</time></trkpt><trkpt lat="45.90071" lon="8.7538417"><ele>294.5</ele><time>2026-03-22T08:44:21.154Z</time></trkpt><trkpt lat="45.900735" lon="8.753965"><ele>296.0</ele><time>2026-03-22T08:44:22.154Z</time></trkpt><trkpt lat="45.9007633" lon="8.7540883"><ele>297.5</ele><time>2026-03-22T08:44:23.154Z</time></trkpt><trkpt lat="45.9007917" lon="8.754205"><ele>299.0</ele><time>2026-03-22T08:44:24.154Z</time></trkpt><trkpt lat="45.9008117" lon="8.7543133"><ele>300.5</ele><time>2026-03-22T08:44:25.155Z</time></trkpt><trkpt lat="45.9008233" lon="8.75442"><ele>302.0</ele><time>2026-03-22T08:44:26.154Z</time></trkpt><trkpt lat="45.90085" lon="8.7545833"><ele>301.5</ele><time>2026-03-22T08:44:28.155Z</time></trkpt><trkpt lat="45.9009117" lon="8.7547367"><ele>301.0</ele><time>2026-03-22T08:44:30.154Z</time></trkpt><trkpt lat="45.9009483" lon="8.7548283"><ele>300.5</ele><time>2026-03-22T08:44:31.154Z</time></trkpt><trkpt lat="45.9009883" lon="8.7549317"><ele>300.0</ele><time>2026-03-22T08:44:32.154Z</time></trkpt><trkpt lat="45.9010317" lon="8.75504"><ele>299.5</ele><time>2026-03-22T08:44:33.154Z</time></trkpt><trkpt lat="45.9010617" lon="8.7551367"><ele>299.0</ele><time>2026-03-22T08:44:34.154Z</time></trkpt><trkpt lat="45.90109" lon="8.7552283"><ele>299.0</ele><time>2026-03-22T08:44:35.155Z</time></trkpt><trkpt lat="45.90112" lon="8.7553133"><ele>299.0</ele><time>2026-03-22T08:44:36.154Z</time></trkpt><trkpt lat="45.9011583" lon="8.7554017"><ele>299.0</ele><time>2026-03-22T08:44:37.155Z</time></trkpt><trkpt lat="45.901205" lon="8.755485"><ele>299.0</ele><time>2026-03-22T08:44:38.154Z</time></trkpt><trkpt lat="45.90127" lon="8.7556067"><ele>299.0</ele><time>2026-03-22T08:44:39.154Z</time></trkpt><trkpt lat="45.9013483" lon="8.7557333"><ele>299.0</ele><time>2026-03-22T08:44:40.154Z</time></trkpt><trkpt lat="45.901435" lon="8.7558733"><ele>299.0</ele><time>2026-03-22T08:44:41.154Z</time></trkpt><trkpt lat="45.9015217" lon="8.7559933"><ele>299.0</ele><time>2026-03-22T08:44:42.154Z</time></trkpt><trkpt lat="45.9016017" lon="8.756085"><ele>299.0</ele><time>2026-03-22T08:44:43.154Z</time></trkpt><trkpt lat="45.9016717" lon="8.7561633"><ele>299.0</ele><time>2026-03-22T08:44:44.155Z</time></trkpt><trkpt lat="45.90173" lon="8.75624"><ele>299.0</ele><time>2026-03-22T08:44:45.154Z</time></trkpt><trkpt lat="45.9018167" lon="8.7563367"><ele>298.1666666666667</ele><time>2026-03-22T08:44:47.154Z</time></trkpt><trkpt lat="45.9018967" lon="8.7564183"><ele>297.33333333333337</ele><time>2026-03-22T08:44:48.154Z</time></trkpt><trkpt lat="45.9019717" lon="8.7564517"><ele>296.5</ele><time>2026-03-22T08:44:49.155Z</time></trkpt><trkpt lat="45.9020367" lon="8.7564733"><ele>295.6666666666667</ele><time>2026-03-22T08:44:50.155Z</time></trkpt><trkpt lat="45.9021083" lon="8.7564783"><ele>294.8333333333333</ele><time>2026-03-22T08:44:51.154Z</time></trkpt><trkpt lat="45.9021717" lon="8.7564617"><ele>294.0</ele><time>2026-03-22T08:44:52.154Z</time></trkpt><trkpt lat="45.9022767" lon="8.7564567"><ele>294.0</ele><time>2026-03-22T08:44:54.154Z</time></trkpt><trkpt lat="45.9024017" lon="8.7564583"><ele>294.0</ele><time>2026-03-22T08:44:56.154Z</time></trkpt><trkpt lat="45.9024717" lon="8.7564667"><ele>294.0</ele><time>2026-03-22T08:44:57.154Z</time></trkpt><trkpt lat="45.9025383" lon="8.7564783"><ele>294.0</ele><time>2026-03-22T08:44:58.154Z</time></trkpt><trkpt lat="45.9026067" lon="8.7564983"><ele>294.0</ele><time>2026-03-22T08:44:59.154Z</time></trkpt><trkpt lat="45.9026783" lon="8.756515"><ele>294.0</ele><time>2026-03-22T08:45:00.154Z</time></trkpt><trkpt lat="45.902745" lon="8.756535"><ele>294.0</ele><time>2026-03-22T08:45:01.155Z</time></trkpt><trkpt lat="45.902855" lon="8.7565667"><ele>294.0</ele><time>2026-03-22T08:45:03.155Z</time></trkpt><trkpt lat="45.9029417" lon="8.7565217"><ele>294.0</ele><time>2026-03-22T08:45:05.155Z</time></trkpt><trkpt lat="45.9030083" lon="8.7564583"><ele>294.0</ele><time>2026-03-22T08:45:07.154Z</time></trkpt><trkpt lat="45.903075" lon="8.7564283"><ele>294.0</ele><time>2026-03-22T08:45:10.154Z</time></trkpt><trkpt lat="45.90314" lon="8.756505"><ele>294.0</ele><time>2026-03-22T08:45:13.154Z</time></trkpt><trkpt lat="45.9032717" lon="8.75667"><ele>294.0</ele><time>2026-03-22T08:45:15.154Z</time></trkpt><trkpt lat="45.90339" lon="8.7568283"><ele>294.0</ele><time>2026-03-22T08:45:16.155Z</time></trkpt><trkpt lat="45.9034983" lon="8.756955"><ele>294.0</ele><time>2026-03-22T08:45:17.155Z</time></trkpt><trkpt lat="45.90359" lon="8.7570783"><ele>294.0</ele><time>2026-03-22T08:45:18.154Z</time></trkpt><trkpt lat="45.9036683" lon="8.7571633"><ele>294.2</ele><time>2026-03-22T08:45:19.154Z</time></trkpt><trkpt lat="45.90373" lon="8.7572367"><ele>294.4</ele><time>2026-03-22T08:45:20.154Z</time></trkpt><trkpt lat="45.9038017" lon="8.757335"><ele>294.6</ele><time>2026-03-22T08:45:21.154Z</time></trkpt><trkpt lat="45.9038667" lon="8.757455"><ele>294.8</ele><time>2026-03-22T08:45:22.154Z</time></trkpt><trkpt lat="45.9039433" lon="8.757595"><ele>295.0</ele><time>2026-03-22T08:45:23.155Z</time></trkpt><trkpt lat="45.9040167" lon="8.7577383"><ele>295.0</ele><time>2026-03-22T08:45:24.154Z</time></trkpt><trkpt lat="45.9040917" lon="8.7578633"><ele>295.0</ele><time>2026-03-22T08:45:25.154Z</time></trkpt><trkpt lat="45.9041883" lon="8.7579933"><ele>295.0</ele><time>2026-03-22T08:45:26.154Z</time></trkpt><trkpt lat="45.9043" lon="8.7581367"><ele>295.0</ele><time>2026-03-22T08:45:27.154Z</time></trkpt><trkpt lat="45.9044183" lon="8.758285"><ele>295.25</ele><time>2026-03-22T08:45:28.155Z</time></trkpt><trkpt lat="45.9045283" lon="8.758425"><ele>295.5</ele><time>2026-03-22T08:45:29.155Z</time></trkpt><trkpt lat="45.9046283" lon="8.7585583"><ele>295.75</ele><time>2026-03-22T08:45:30.154Z</time></trkpt><trkpt lat="45.90471" lon="8.7586783"><ele>296.0</ele><time>2026-03-22T08:45:31.154Z</time></trkpt><trkpt lat="45.90478" lon="8.7588033"><ele>296.2</ele><time>2026-03-22T08:45:32.155Z</time></trkpt><trkpt lat="45.9048483" lon="8.7589383"><ele>296.40000000000003</ele><time>2026-03-22T08:45:33.155Z</time></trkpt><trkpt lat="45.90491" lon="8.7590633"><ele>296.6</ele><time>2026-03-22T08:45:34.154Z</time></trkpt><trkpt lat="45.90497" lon="8.7591883"><ele>296.8</ele><time>2026-03-22T08:45:35.154Z</time></trkpt><trkpt lat="45.9050217" lon="8.7593067"><ele>297.0</ele><time>2026-03-22T08:45:36.155Z</time></trkpt><trkpt lat="45.9050733" lon="8.759415"><ele>297.6666666666667</ele><time>2026-03-22T08:45:37.155Z</time></trkpt><trkpt lat="45.905115" lon="8.7595133"><ele>298.3333333333333</ele><time>2026-03-22T08:45:38.154Z</time></trkpt><trkpt lat="45.9051583" lon="8.7596217"><ele>299.0</ele><time>2026-03-22T08:45:39.155Z</time></trkpt><trkpt lat="45.9051967" lon="8.7597217"><ele>299.66666666666663</ele><time>2026-03-22T08:45:40.154Z</time></trkpt><trkpt lat="45.9052367" lon="8.75981"><ele>300.3333333333333</ele><time>2026-03-22T08:45:41.154Z</time></trkpt><trkpt lat="45.905295" lon="8.7599433"><ele>301.0</ele><time>2026-03-22T08:45:43.155Z</time></trkpt><trkpt lat="45.9053533" lon="8.75998"><ele>301.0</ele><time>2026-03-22T08:45:46.154Z</time></trkpt><trkpt lat="45.90551" lon="8.7599233"><ele>301.0</ele><time>2026-03-22T08:46:48.155Z</time></trkpt><trkpt lat="45.90563" lon="8.759875"><ele>301.0</ele><time>2026-03-22T08:46:49.155Z</time></trkpt><trkpt lat="45.90574" lon="8.7598267"><ele>301.0</ele><time>2026-03-22T08:46:50.154Z</time></trkpt><trkpt lat="45.9058433" lon="8.759775"><ele>303.40000000000003</ele><time>2026-03-22T08:46:51.155Z</time></trkpt><trkpt lat="45.90593" lon="8.7597367"><ele>305.8</ele><time>2026-03-22T08:46:52.154Z</time></trkpt><trkpt lat="45.9060017" lon="8.7597033"><ele>308.20000000000005</ele><time>2026-03-22T08:46:53.154Z</time></trkpt><trkpt lat="45.9060983" lon="8.75966"><ele>310.6</ele><time>2026-03-22T08:46:55.155Z</time></trkpt><trkpt lat="45.9061867" lon="8.7596983"><ele>313.0</ele><time>2026-03-22T08:46:58.155Z</time></trkpt><trkpt lat="45.9062583" lon="8.7598633"><ele>313.0</ele><time>2026-03-22T08:47:00.154Z</time></trkpt><trkpt lat="45.9063117" lon="8.759985"><ele>313.0</ele><time>2026-03-22T08:47:01.154Z</time></trkpt><trkpt lat="45.9063767" lon="8.7601183"><ele>313.0</ele><time>2026-03-22T08:47:02.154Z</time></trkpt><trkpt lat="45.9064267" lon="8.760235"><ele>313.0</ele><time>2026-03-22T08:47:03.154Z</time></trkpt><trkpt lat="45.9064733" lon="8.760355"><ele>313.0</ele><time>2026-03-22T08:47:04.154Z</time></trkpt><trkpt lat="45.9065067" lon="8.7604617"><ele>312.0</ele><time>2026-03-22T08:47:05.155Z</time></trkpt><trkpt lat="45.906545" lon="8.7605733"><ele>311.0</ele><time>2026-03-22T08:47:06.154Z</time></trkpt><trkpt lat="45.906575" lon="8.7606983"><ele>310.0</ele><time>2026-03-22T08:47:07.154Z</time></trkpt><trkpt lat="45.9066133" lon="8.7608217"><ele>309.0</ele><time>2026-03-22T08:47:08.154Z</time></trkpt><trkpt lat="45.9066767" lon="8.7609467"><ele>308.0</ele><time>2026-03-22T08:47:09.154Z</time></trkpt><trkpt lat="45.9067367" lon="8.7610633"><ele>310.4</ele><time>2026-03-22T08:47:10.154Z</time></trkpt><trkpt lat="45.90679" lon="8.761185"><ele>312.8</ele><time>2026-03-22T08:47:11.154Z</time></trkpt><trkpt lat="45.9068383" lon="8.761315"><ele>315.2</ele><time>2026-03-22T08:47:12.154Z</time></trkpt><trkpt lat="45.9068733" lon="8.7614517"><ele>317.6</ele><time>2026-03-22T08:47:13.154Z</time></trkpt><trkpt lat="45.9069317" lon="8.761585"><ele>320.0</ele><time>2026-03-22T08:47:14.154Z</time></trkpt><trkpt lat="45.9070017" lon="8.7617367"><ele>318.8</ele><time>2026-03-22T08:47:15.154Z</time></trkpt><trkpt lat="45.9070767" lon="8.7618733"><ele>317.6</ele><time>2026-03-22T08:47:16.154Z</time></trkpt><trkpt lat="45.9071483" lon="8.7619783"><ele>316.4</ele><time>2026-03-22T08:47:17.154Z</time></trkpt><trkpt lat="45.9072133" lon="8.7620717"><ele>315.2</ele><time>2026-03-22T08:47:18.154Z</time></trkpt><trkpt lat="45.9072717" lon="8.7621583"><ele>314.0</ele><time>2026-03-22T08:47:19.154Z</time></trkpt><trkpt lat="45.90732" lon="8.76225"><ele>314.0</ele><time>2026-03-22T08:47:20.154Z</time></trkpt><trkpt lat="45.907365" lon="8.7623417"><ele>314.0</ele><time>2026-03-22T08:47:21.155Z</time></trkpt><trkpt lat="45.9074383" lon="8.7624783"><ele>314.0</ele><time>2026-03-22T08:47:23.154Z</time></trkpt><trkpt lat="45.9075267" lon="8.762545"><ele>314.0</ele><time>2026-03-22T08:47:25.154Z</time></trkpt><trkpt lat="45.9075917" lon="8.7625733"><ele>314.0</ele><time>2026-03-22T08:47:26.154Z</time></trkpt><trkpt lat="45.9076683" lon="8.7625867"><ele>314.0</ele><time>2026-03-22T08:47:27.155Z</time></trkpt><trkpt lat="45.9077483" lon="8.7626067"><ele>316.0</ele><time>2026-03-22T08:47:28.154Z</time></trkpt><trkpt lat="45.90782" lon="8.7626133"><ele>318.0</ele><time>2026-03-22T08:47:29.154Z</time></trkpt><trkpt lat="45.907895" lon="8.762615"><ele>320.0</ele><time>2026-03-22T08:47:30.154Z</time></trkpt><trkpt lat="45.907965" lon="8.7626133"><ele>322.0</ele><time>2026-03-22T08:47:31.154Z</time></trkpt><trkpt lat="45.9080717" lon="8.762565"><ele>324.0</ele><time>2026-03-22T08:47:33.154Z</time></trkpt><trkpt lat="45.90816" lon="8.7624917"><ele>326.0</ele><time>2026-03-22T08:47:35.155Z</time></trkpt><trkpt lat="45.908165" lon="8.7623933"><ele>326.0</ele><time>2026-03-22T08:47:41.154Z</time></trkpt><trkpt lat="45.9082117" lon="8.7622983"><ele>326.0</ele><time>2026-03-22T08:47:44.154Z</time></trkpt><trkpt lat="45.908265" lon="8.7622067"><ele>326.0</ele><time>2026-03-22T08:47:45.154Z</time></trkpt><trkpt lat="45.9083333" lon="8.76211"><ele>326.0</ele><time>2026-03-22T08:47:46.154Z</time></trkpt><trkpt lat="45.9084117" lon="8.7620383"><ele>326.0</ele><time>2026-03-22T08:47:47.154Z</time></trkpt><trkpt lat="45.9084733" lon="8.76198"><ele>326.0</ele><time>2026-03-22T08:47:48.155Z</time></trkpt><trkpt lat="45.9085567" lon="8.7618967"><ele>327.83333333333337</ele><time>2026-03-22T08:47:50.155Z</time></trkpt><trkpt lat="45.9086033" lon="8.7617967"><ele>329.6666666666667</ele><time>2026-03-22T08:47:52.154Z</time></trkpt><trkpt lat="45.9086517" lon="8.7616883"><ele>331.5</ele><time>2026-03-22T08:47:54.154Z</time></trkpt><trkpt lat="45.9086867" lon="8.7615817"><ele>333.3333333333333</ele><time>2026-03-22T08:47:56.154Z</time></trkpt><trkpt lat="45.90875" lon="8.7614967"><ele>335.16666666666663</ele><time>2026-03-22T08:47:58.155Z</time></trkpt><trkpt lat="45.9088133" lon="8.7614433"><ele>337.0</ele><time>2026-03-22T08:48:00.154Z</time></trkpt><trkpt lat="45.9088783" lon="8.76147"><ele>337.0</ele><time>2026-03-22T08:48:04.154Z</time></trkpt><trkpt lat="45.9089517" lon="8.7614967"><ele>337.0</ele><time>2026-03-22T08:48:07.154Z</time></trkpt><trkpt lat="45.9090283" lon="8.7615217"><ele>337.0</ele><time>2026-03-22T08:48:10.154Z</time></trkpt><trkpt lat="45.9091183" lon="8.7614583"><ele>337.0</ele><time>2026-03-22T08:48:13.154Z</time></trkpt><trkpt lat="45.909205" lon="8.76142"><ele>337.0</ele><time>2026-03-22T08:48:15.154Z</time></trkpt><trkpt lat="45.90929" lon="8.76142"><ele>337.0</ele><time>2026-03-22T08:48:17.155Z</time></trkpt><trkpt lat="45.9093583" lon="8.7614133"><ele>337.16666666666663</ele><time>2026-03-22T08:48:20.154Z</time></trkpt><trkpt lat="45.9094333" lon="8.7614483"><ele>337.3333333333333</ele><time>2026-03-22T08:48:25.154Z</time></trkpt><trkpt lat="45.9095633" lon="8.7615567"><ele>337.5</ele><time>2026-03-22T08:48:30.154Z</time></trkpt><trkpt lat="45.9096183" lon="8.7616117"><ele>337.6666666666667</ele><time>2026-03-22T08:48:31.154Z</time></trkpt><trkpt lat="45.9096717" lon="8.76168"><ele>337.83333333333337</ele><time>2026-03-22T08:48:32.154Z</time></trkpt><trkpt lat="45.9097183" lon="8.7617567"><ele>338.0</ele><time>2026-03-22T08:48:33.154Z</time></trkpt><trkpt lat="45.9097983" lon="8.7618917"><ele>338.79999999999995</ele><time>2026-03-22T08:48:35.155Z</time></trkpt><trkpt lat="45.9098417" lon="8.76196"><ele>339.6</ele><time>2026-03-22T08:48:36.155Z</time></trkpt><trkpt lat="45.9098983" lon="8.7620317"><ele>340.4</ele><time>2026-03-22T08:48:37.154Z</time></trkpt><trkpt lat="45.9099817" lon="8.76213"><ele>341.20000000000005</ele><time>2026-03-22T08:48:39.154Z</time></trkpt><trkpt lat="45.9100633" lon="8.7622283"><ele>342.0</ele><time>2026-03-22T08:48:41.154Z</time></trkpt><trkpt lat="45.9101317" lon="8.7623283"><ele>341.0</ele><time>2026-03-22T08:48:43.155Z</time></trkpt><trkpt lat="45.9102117" lon="8.762435"><ele>340.0</ele><time>2026-03-22T08:48:45.154Z</time></trkpt><trkpt lat="45.9102617" lon="8.76251"><ele>339.0</ele><time>2026-03-22T08:48:46.154Z</time></trkpt><trkpt lat="45.910325" lon="8.7626067"><ele>338.0</ele><time>2026-03-22T08:48:47.154Z</time></trkpt><trkpt lat="45.910385" lon="8.7626833"><ele>337.0</ele><time>2026-03-22T08:48:48.154Z</time></trkpt><trkpt lat="45.910445" lon="8.7627583"><ele>336.0</ele><time>2026-03-22T08:48:49.154Z</time></trkpt><trkpt lat="45.910495" lon="8.7628233"><ele>336.0</ele><time>2026-03-22T08:48:50.154Z</time></trkpt><trkpt lat="45.9105783" lon="8.7629417"><ele>336.0</ele><time>2026-03-22T08:48:52.154Z</time></trkpt><trkpt lat="45.9106733" lon="8.763075"><ele>336.0</ele><time>2026-03-22T08:48:54.155Z</time></trkpt><trkpt lat="45.9107267" lon="8.763175"><ele>336.0</ele><time>2026-03-22T08:48:55.154Z</time></trkpt><trkpt lat="45.9107867" lon="8.7633"><ele>336.0</ele><time>2026-03-22T08:48:56.155Z</time></trkpt><trkpt lat="45.91085" lon="8.76344"><ele>335.4</ele><time>2026-03-22T08:48:57.154Z</time></trkpt><trkpt lat="45.9109233" lon="8.763585"><ele>334.8</ele><time>2026-03-22T08:48:58.155Z</time></trkpt><trkpt lat="45.9109817" lon="8.763705"><ele>334.2</ele><time>2026-03-22T08:48:59.155Z</time></trkpt><trkpt lat="45.9110367" lon="8.7638117"><ele>333.59999999999997</ele><time>2026-03-22T08:49:00.154Z</time></trkpt><trkpt lat="45.91108" lon="8.76391"><ele>333.0</ele><time>2026-03-22T08:49:01.154Z</time></trkpt><trkpt lat="45.9111117" lon="8.764005"><ele>333.0</ele><time>2026-03-22T08:49:02.155Z</time></trkpt><trkpt lat="45.9111383" lon="8.7641117"><ele>333.0</ele><time>2026-03-22T08:49:03.154Z</time></trkpt><trkpt lat="45.9111533" lon="8.7642183"><ele>333.0</ele><time>2026-03-22T08:49:04.154Z</time></trkpt><trkpt lat="45.9111667" lon="8.76432"><ele>333.0</ele><time>2026-03-22T08:49:05.154Z</time></trkpt><trkpt lat="45.91118" lon="8.764415"><ele>333.0</ele><time>2026-03-22T08:49:06.154Z</time></trkpt><trkpt lat="45.9112067" lon="8.764575"><ele>333.0</ele><time>2026-03-22T08:49:08.155Z</time></trkpt><trkpt lat="45.9112433" lon="8.7647617"><ele>335.4</ele><time>2026-03-22T08:49:10.155Z</time></trkpt><trkpt lat="45.9112733" lon="8.7649367"><ele>337.79999999999995</ele><time>2026-03-22T08:49:12.154Z</time></trkpt><trkpt lat="45.91132" lon="8.76507"><ele>340.2</ele><time>2026-03-22T08:49:14.155Z</time></trkpt><trkpt lat="45.9114117" lon="8.765195"><ele>342.6</ele><time>2026-03-22T08:49:16.154Z</time></trkpt><trkpt lat="45.911465" lon="8.76525"><ele>345.0</ele><time>2026-03-22T08:49:17.154Z</time></trkpt><trkpt lat="45.9115333" lon="8.765295"><ele>345.42857142857144</ele><time>2026-03-22T08:49:18.155Z</time></trkpt><trkpt lat="45.9115967" lon="8.76531"><ele>345.85714285714283</ele><time>2026-03-22T08:49:19.154Z</time></trkpt><trkpt lat="45.91167" lon="8.7653417"><ele>346.2857142857143</ele><time>2026-03-22T08:49:20.154Z</time></trkpt><trkpt lat="45.9117333" lon="8.7653683"><ele>346.7142857142857</ele><time>2026-03-22T08:49:21.154Z</time></trkpt><trkpt lat="45.9118133" lon="8.765445"><ele>347.14285714285717</ele><time>2026-03-22T08:49:23.154Z</time></trkpt><trkpt lat="45.9118633" lon="8.7655067"><ele>347.57142857142856</ele><time>2026-03-22T08:49:24.155Z</time></trkpt><trkpt lat="45.9119067" lon="8.7655817"><ele>348.0</ele><time>2026-03-22T08:49:25.154Z</time></trkpt><trkpt lat="45.9119817" lon="8.765715"><ele>346.2</ele><time>2026-03-22T08:49:27.154Z</time></trkpt><trkpt lat="45.9120333" lon="8.765855"><ele>344.4</ele><time>2026-03-22T08:49:29.154Z</time></trkpt><trkpt lat="45.9120883" lon="8.76598"><ele>342.59999999999997</ele><time>2026-03-22T08:49:31.154Z</time></trkpt><trkpt lat="45.9121483" lon="8.7661033"><ele>340.79999999999995</ele><time>2026-03-22T08:49:33.155Z</time></trkpt><trkpt lat="45.91222" lon="8.7662317"><ele>339.0</ele><time>2026-03-22T08:49:35.155Z</time></trkpt><trkpt lat="45.9122867" lon="8.766385"><ele>339.0</ele><time>2026-03-22T08:49:37.154Z</time></trkpt><trkpt lat="45.9123167" lon="8.766475"><ele>339.0</ele><time>2026-03-22T08:49:38.155Z</time></trkpt><trkpt lat="45.9123467" lon="8.766565"><ele>339.0</ele><time>2026-03-22T08:49:39.154Z</time></trkpt><trkpt lat="45.91238" lon="8.76665"><ele>339.0</ele><time>2026-03-22T08:49:40.155Z</time></trkpt><trkpt lat="45.9124567" lon="8.7668083"><ele>339.0</ele><time>2026-03-22T08:49:42.155Z</time></trkpt><trkpt lat="45.9125" lon="8.7668983"><ele>339.0</ele><time>2026-03-22T08:49:43.154Z</time></trkpt><trkpt lat="45.912545" lon="8.7669883"><ele>337.6666666666667</ele><time>2026-03-22T08:49:44.154Z</time></trkpt><trkpt lat="45.9125917" lon="8.767095"><ele>336.3333333333333</ele><time>2026-03-22T08:49:45.155Z</time></trkpt><trkpt lat="45.91264" lon="8.7671933"><ele>335.0</ele><time>2026-03-22T08:49:46.154Z</time></trkpt><trkpt lat="45.9126867" lon="8.7672683"><ele>333.66666666666663</ele><time>2026-03-22T08:49:47.155Z</time></trkpt><trkpt lat="45.9127283" lon="8.76734"><ele>332.3333333333333</ele><time>2026-03-22T08:49:48.154Z</time></trkpt><trkpt lat="45.9128083" lon="8.76747"><ele>331.0</ele><time>2026-03-22T08:49:50.155Z</time></trkpt><trkpt lat="45.9128783" lon="8.7675817"><ele>331.0</ele><time>2026-03-22T08:49:52.155Z</time></trkpt><trkpt lat="45.912925" lon="8.7677"><ele>331.0</ele><time>2026-03-22T08:49:54.154Z</time></trkpt><trkpt lat="45.9129617" lon="8.7677983"><ele>331.0</ele><time>2026-03-22T08:49:57.154Z</time></trkpt><trkpt lat="45.9130483" lon="8.7677617"><ele>331.0</ele><time>2026-03-22T08:50:02.154Z</time></trkpt><trkpt lat="45.91312" lon="8.767705"><ele>331.0</ele><time>2026-03-22T08:50:04.154Z</time></trkpt><trkpt lat="45.9132067" lon="8.7675967"><ele>331.0</ele><time>2026-03-22T08:50:06.154Z</time></trkpt><trkpt lat="45.9132867" lon="8.7675067"><ele>331.0</ele><time>2026-03-22T08:50:08.155Z</time></trkpt><trkpt lat="45.9133483" lon="8.76743"><ele>331.0</ele><time>2026-03-22T08:50:10.154Z</time></trkpt><trkpt lat="45.9133717" lon="8.7673333"><ele>331.0</ele><time>2026-03-22T08:50:12.154Z</time></trkpt><trkpt lat="45.913375" lon="8.7672033"><ele>331.0</ele><time>2026-03-22T08:50:14.154Z</time></trkpt><trkpt lat="45.91338" lon="8.7671067"><ele>331.0</ele><time>2026-03-22T08:50:16.155Z</time></trkpt><trkpt lat="45.9134233" lon="8.7670267"><ele>327.7142857142857</ele><time>2026-03-22T08:50:20.154Z</time></trkpt><trkpt lat="45.913495" lon="8.7670667"><ele>324.42857142857144</ele><time>2026-03-22T08:50:24.155Z</time></trkpt><trkpt lat="45.9135433" lon="8.7671533"><ele>321.1428571428571</ele><time>2026-03-22T08:50:27.154Z</time></trkpt><trkpt lat="45.9135833" lon="8.7672267"><ele>317.8571428571429</ele><time>2026-03-22T08:50:29.155Z</time></trkpt><trkpt lat="45.9136417" lon="8.7672917"><ele>314.57142857142856</ele><time>2026-03-22T08:50:32.154Z</time></trkpt><trkpt lat="45.913685" lon="8.7673817"><ele>311.2857142857143</ele><time>2026-03-22T08:50:35.155Z</time></trkpt><trkpt lat="45.9137133" lon="8.7674633"><ele>308.0</ele><time>2026-03-22T08:50:37.154Z</time></trkpt><trkpt lat="45.9137567" lon="8.767555"><ele>308.0</ele><time>2026-03-22T08:50:40.155Z</time></trkpt><trkpt lat="45.9138167" lon="8.7675917"><ele>308.0</ele><time>2026-03-22T08:50:42.154Z</time></trkpt><trkpt lat="45.9138983" lon="8.7676517"><ele>308.0</ele><time>2026-03-22T08:50:45.154Z</time></trkpt><trkpt lat="45.913985" lon="8.767735"><ele>308.0</ele><time>2026-03-22T08:50:48.155Z</time></trkpt><trkpt lat="45.9140517" lon="8.7678233"><ele>308.0</ele><time>2026-03-22T08:50:49.155Z</time></trkpt><trkpt lat="45.9141383" lon="8.7679083"><ele>304.75</ele><time>2026-03-22T08:50:50.154Z</time></trkpt><trkpt lat="45.9142467" lon="8.7680033"><ele>301.5</ele><time>2026-03-22T08:50:51.155Z</time></trkpt><trkpt lat="45.9143533" lon="8.768085"><ele>298.25</ele><time>2026-03-22T08:50:52.154Z</time></trkpt><trkpt lat="45.9144583" lon="8.7681683"><ele>295.0</ele><time>2026-03-22T08:50:53.154Z</time></trkpt><trkpt lat="45.91455" lon="8.7682483"><ele>295.0</ele><time>2026-03-22T08:50:54.154Z</time></trkpt><trkpt lat="45.9146433" lon="8.76835"><ele>295.0</ele><time>2026-03-22T08:50:55.154Z</time></trkpt><trkpt lat="45.9147133" lon="8.768455"><ele>295.0</ele><time>2026-03-22T08:50:56.155Z</time></trkpt><trkpt lat="45.9147883" lon="8.7685717"><ele>295.0</ele><time>2026-03-22T08:50:57.155Z</time></trkpt><trkpt lat="45.914855" lon="8.7686733"><ele>295.0</ele><time>2026-03-22T08:50:58.155Z</time></trkpt><trkpt lat="45.9149133" lon="8.7687667"><ele>295.5</ele><time>2026-03-22T08:50:59.154Z</time></trkpt><trkpt lat="45.9149683" lon="8.7688517"><ele>296.0</ele><time>2026-03-22T08:51:00.155Z</time></trkpt><trkpt lat="45.9150483" lon="8.7689817"><ele>296.5</ele><time>2026-03-22T08:51:02.154Z</time></trkpt><trkpt lat="45.9151017" lon="8.7690333"><ele>297.0</ele><time>2026-03-22T08:51:03.155Z</time></trkpt><trkpt lat="45.9151933" lon="8.7691233"><ele>297.5</ele><time>2026-03-22T08:51:05.155Z</time></trkpt><trkpt lat="45.9152383" lon="8.769195"><ele>298.0</ele><time>2026-03-22T08:51:06.154Z</time></trkpt><trkpt lat="45.9153133" lon="8.76933"><ele>296.8333333333333</ele><time>2026-03-22T08:51:08.154Z</time></trkpt><trkpt lat="45.9153633" lon="8.7694083"><ele>295.66666666666663</ele><time>2026-03-22T08:51:09.154Z</time></trkpt><trkpt lat="45.9154133" lon="8.7694817"><ele>294.5</ele><time>2026-03-22T08:51:10.154Z</time></trkpt><trkpt lat="45.9154717" lon="8.7695533"><ele>293.3333333333333</ele><time>2026-03-22T08:51:11.154Z</time></trkpt><trkpt lat="45.9155817" lon="8.769665"><ele>292.1666666666667</ele><time>2026-03-22T08:51:13.155Z</time></trkpt><trkpt lat="45.9156417" lon="8.7697167"><ele>291.0</ele><time>2026-03-22T08:51:14.155Z</time></trkpt><trkpt lat="45.9156933" lon="8.7697767"><ele>291.0</ele><time>2026-03-22T08:51:15.154Z</time></trkpt><trkpt lat="45.9157633" lon="8.76985"><ele>291.0</ele><time>2026-03-22T08:51:16.154Z</time></trkpt><trkpt lat="45.9158233" lon="8.76993"><ele>291.0</ele><time>2026-03-22T08:51:17.154Z</time></trkpt><trkpt lat="45.9158683" lon="8.770005"><ele>291.0</ele><time>2026-03-22T08:51:18.155Z</time></trkpt><trkpt lat="45.9159383" lon="8.7701467"><ele>291.0</ele><time>2026-03-22T08:51:20.154Z</time></trkpt><trkpt lat="45.9160433" lon="8.7703083"><ele>291.1666666666667</ele><time>2026-03-22T08:51:22.154Z</time></trkpt><trkpt lat="45.9161283" lon="8.7702983"><ele>291.3333333333333</ele><time>2026-03-22T08:51:24.155Z</time></trkpt><trkpt lat="45.91619" lon="8.7702617"><ele>291.5</ele><time>2026-03-22T08:51:25.154Z</time></trkpt><trkpt lat="45.91625" lon="8.7702167"><ele>291.66666666666663</ele><time>2026-03-22T08:51:26.155Z</time></trkpt><trkpt lat="45.9163233" lon="8.7701133"><ele>291.8333333333333</ele><time>2026-03-22T08:51:27.154Z</time></trkpt><trkpt lat="45.91641" lon="8.7700083"><ele>292.0</ele><time>2026-03-22T08:51:28.154Z</time></trkpt><trkpt lat="45.91653" lon="8.769875"><ele>290.3333333333333</ele><time>2026-03-22T08:51:29.154Z</time></trkpt><trkpt lat="45.91667" lon="8.7697433"><ele>288.6666666666667</ele><time>2026-03-22T08:51:30.154Z</time></trkpt><trkpt lat="45.916795" lon="8.7696367"><ele>287.0</ele><time>2026-03-22T08:51:31.154Z</time></trkpt><trkpt lat="45.91695" lon="8.7695167"><ele>286.0</ele><time>2026-03-22T08:51:32.154Z</time></trkpt><trkpt lat="45.9170617" lon="8.7694167"><ele>285.0</ele><time>2026-03-22T08:51:33.154Z</time></trkpt><trkpt lat="45.9171667" lon="8.7693233"><ele>284.0</ele><time>2026-03-22T08:51:34.154Z</time></trkpt><trkpt lat="45.9172767" lon="8.76922"><ele>283.0</ele><time>2026-03-22T08:51:35.155Z</time></trkpt><trkpt lat="45.9173867" lon="8.7691333"><ele>282.8</ele><time>2026-03-22T08:51:36.154Z</time></trkpt><trkpt lat="45.9175" lon="8.76906"><ele>282.6</ele><time>2026-03-22T08:51:37.154Z</time></trkpt><trkpt lat="45.9176067" lon="8.7689933"><ele>282.4</ele><time>2026-03-22T08:51:38.155Z</time></trkpt><trkpt lat="45.917705" lon="8.7689483"><ele>282.2</ele><time>2026-03-22T08:51:39.154Z</time></trkpt><trkpt lat="45.9177983" lon="8.7689117"><ele>282.0</ele><time>2026-03-22T08:51:40.154Z</time></trkpt><trkpt lat="45.917875" lon="8.7688967"><ele>280.2</ele><time>2026-03-22T08:51:41.154Z</time></trkpt><trkpt lat="45.91799" lon="8.7689233"><ele>278.4</ele><time>2026-03-22T08:51:43.154Z</time></trkpt><trkpt lat="45.9180633" lon="8.7690033"><ele>276.6</ele><time>2026-03-22T08:51:44.155Z</time></trkpt><trkpt lat="45.9181417" lon="8.7691067"><ele>274.8</ele><time>2026-03-22T08:51:45.154Z</time></trkpt><trkpt lat="45.918215" lon="8.769195"><ele>273.0</ele><time>2026-03-22T08:51:46.155Z</time></trkpt><trkpt lat="45.9182667" lon="8.7692917"><ele>273.0</ele><time>2026-03-22T08:51:47.154Z</time></trkpt><trkpt lat="45.9183217" lon="8.769395"><ele>273.0</ele><time>2026-03-22T08:51:48.155Z</time></trkpt><trkpt lat="45.9183683" lon="8.7694933"><ele>273.0</ele><time>2026-03-22T08:51:49.154Z</time></trkpt><trkpt lat="45.9184033" lon="8.7695833"><ele>273.0</ele><time>2026-03-22T08:51:50.154Z</time></trkpt><trkpt lat="45.9184417" lon="8.7696667"><ele>273.0</ele><time>2026-03-22T08:51:51.154Z</time></trkpt><trkpt lat="45.9184917" lon="8.7697383"><ele>273.0</ele><time>2026-03-22T08:51:52.154Z</time></trkpt><trkpt lat="45.9185733" lon="8.7697933"><ele>271.25</ele><time>2026-03-22T08:51:53.154Z</time></trkpt><trkpt lat="45.9186933" lon="8.7698383"><ele>269.5</ele><time>2026-03-22T08:51:54.154Z</time></trkpt><trkpt lat="45.918825" lon="8.7698933"><ele>267.75</ele><time>2026-03-22T08:51:55.154Z</time></trkpt><trkpt lat="45.9189417" lon="8.7699417"><ele>266.0</ele><time>2026-03-22T08:51:56.154Z</time></trkpt><trkpt lat="45.9190467" lon="8.76998"><ele>266.0</ele><time>2026-03-22T08:51:57.154Z</time></trkpt><trkpt lat="45.91915" lon="8.7700117"><ele>266.0</ele><time>2026-03-22T08:51:58.154Z</time></trkpt><trkpt lat="45.91926" lon="8.7700417"><ele>266.0</ele><time>2026-03-22T08:51:59.154Z</time></trkpt><trkpt lat="45.91938" lon="8.7700683"><ele>266.0</ele><time>2026-03-22T08:52:00.154Z</time></trkpt><trkpt lat="45.919505" lon="8.7701033"><ele>265.0</ele><time>2026-03-22T08:52:01.154Z</time></trkpt><trkpt lat="45.919615" lon="8.77013"><ele>264.0</ele><time>2026-03-22T08:52:02.154Z</time></trkpt><trkpt lat="45.9197183" lon="8.77015"><ele>263.0</ele><time>2026-03-22T08:52:03.155Z</time></trkpt><trkpt lat="45.9198167" lon="8.7701683"><ele>262.0</ele><time>2026-03-22T08:52:04.154Z</time></trkpt><trkpt lat="45.9199083" lon="8.7701917"><ele>261.0</ele><time>2026-03-22T08:52:05.154Z</time></trkpt><trkpt lat="45.9199917" lon="8.7702"><ele>260.6</ele><time>2026-03-22T08:52:06.154Z</time></trkpt><trkpt lat="45.9201083" lon="8.7702067"><ele>260.20000000000005</ele><time>2026-03-22T08:52:08.154Z</time></trkpt><trkpt lat="45.9201733" lon="8.770225"><ele>259.79999999999995</ele><time>2026-03-22T08:52:09.154Z</time></trkpt><trkpt lat="45.9202683" lon="8.770245"><ele>259.4</ele><time>2026-03-22T08:52:11.155Z</time></trkpt><trkpt lat="45.92038" lon="8.7703083"><ele>259.0</ele><time>2026-03-22T08:52:19.154Z</time></trkpt><trkpt lat="45.9204617" lon="8.7703183"><ele>259.0</ele><time>2026-03-22T08:52:21.154Z</time></trkpt><trkpt lat="45.92053" lon="8.7703083"><ele>259.0</ele><time>2026-03-22T08:52:22.155Z</time></trkpt><trkpt lat="45.9206317" lon="8.770305"><ele>259.0</ele><time>2026-03-22T08:52:23.154Z</time></trkpt><trkpt lat="45.920755" lon="8.7703067"><ele>259.0</ele><time>2026-03-22T08:52:24.154Z</time></trkpt><trkpt lat="45.9208817" lon="8.770325"><ele>259.0</ele><time>2026-03-22T08:52:25.155Z</time></trkpt><trkpt lat="45.921005" lon="8.7703567"><ele>258.5</ele><time>2026-03-22T08:52:26.155Z</time></trkpt><trkpt lat="45.9211317" lon="8.7703917"><ele>258.0</ele><time>2026-03-22T08:52:27.155Z</time></trkpt><trkpt lat="45.9212433" lon="8.7704233"><ele>257.5</ele><time>2026-03-22T08:52:28.155Z</time></trkpt><trkpt lat="45.9213483" lon="8.7704567"><ele>257.0</ele><time>2026-03-22T08:52:29.155Z</time></trkpt><trkpt lat="45.9214467" lon="8.7704883"><ele>257.0</ele><time>2026-03-22T08:52:30.155Z</time></trkpt><trkpt lat="45.92155" lon="8.770505"><ele>257.0</ele><time>2026-03-22T08:52:31.154Z</time></trkpt><trkpt lat="45.9216517" lon="8.7705017"><ele>257.0</ele><time>2026-03-22T08:52:32.154Z</time></trkpt><trkpt lat="45.9217483" lon="8.7704833"><ele>257.0</ele><time>2026-03-22T08:52:33.154Z</time></trkpt><trkpt lat="45.92184" lon="8.770455"><ele>257.0</ele><time>2026-03-22T08:52:34.155Z</time></trkpt><trkpt lat="45.921915" lon="8.7704183"><ele>256.85714285714283</ele><time>2026-03-22T08:52:35.154Z</time></trkpt><trkpt lat="45.9219817" lon="8.7703667"><ele>256.7142857142857</ele><time>2026-03-22T08:52:36.154Z</time></trkpt><trkpt lat="45.92205" lon="8.7703183"><ele>256.57142857142856</ele><time>2026-03-22T08:52:37.154Z</time></trkpt><trkpt lat="45.92212" lon="8.770275"><ele>256.42857142857144</ele><time>2026-03-22T08:52:38.154Z</time></trkpt><trkpt lat="45.9221833" lon="8.7702433"><ele>256.2857142857143</ele><time>2026-03-22T08:52:39.154Z</time></trkpt><trkpt lat="45.922255" lon="8.7702267"><ele>256.1428571428571</ele><time>2026-03-22T08:52:40.155Z</time></trkpt><trkpt lat="45.9223233" lon="8.7702233"><ele>256.0</ele><time>2026-03-22T08:52:41.154Z</time></trkpt><trkpt lat="45.9223933" lon="8.77022"><ele>256.0</ele><time>2026-03-22T08:52:42.154Z</time></trkpt><trkpt lat="45.9224783" lon="8.7702"><ele>256.0</ele><time>2026-03-22T08:52:43.155Z</time></trkpt><trkpt lat="45.9225633" lon="8.7701883"><ele>256.0</ele><time>2026-03-22T08:52:44.155Z</time></trkpt><trkpt lat="45.92266" lon="8.7701767"><ele>256.0</ele><time>2026-03-22T08:52:45.154Z</time></trkpt><trkpt lat="45.9227533" lon="8.7701817"><ele>256.0</ele><time>2026-03-22T08:52:46.154Z</time></trkpt><trkpt lat="45.9228533" lon="8.7701817"><ele>256.0</ele><time>2026-03-22T08:52:47.154Z</time></trkpt><trkpt lat="45.9229533" lon="8.7701767"><ele>256.0</ele><time>2026-03-22T08:52:48.154Z</time></trkpt><trkpt lat="45.923065" lon="8.7701683"><ele>256.0</ele><time>2026-03-22T08:52:49.154Z</time></trkpt><trkpt lat="45.9231733" lon="8.7701583"><ele>256.0</ele><time>2026-03-22T08:52:50.155Z</time></trkpt><trkpt lat="45.923275" lon="8.77014"><ele>256.0</ele><time>2026-03-22T08:52:51.154Z</time></trkpt><trkpt lat="45.92336" lon="8.770135"><ele>256.5</ele><time>2026-03-22T08:52:52.154Z</time></trkpt><trkpt lat="45.923445" lon="8.7701333"><ele>257.0</ele><time>2026-03-22T08:52:53.155Z</time></trkpt><trkpt lat="45.9235333" lon="8.7701233"><ele>257.5</ele><time>2026-03-22T08:52:54.154Z</time></trkpt><trkpt lat="45.9236017" lon="8.7701133"><ele>258.0</ele><time>2026-03-22T08:52:55.155Z</time></trkpt><trkpt lat="45.9237167" lon="8.7700617"><ele>258.5</ele><time>2026-03-22T08:52:57.154Z</time></trkpt><trkpt lat="45.9237783" lon="8.77001"><ele>259.0</ele><time>2026-03-22T08:52:58.155Z</time></trkpt><trkpt lat="45.9238433" lon="8.7699433"><ele>259.0</ele><time>2026-03-22T08:52:59.154Z</time></trkpt><trkpt lat="45.9239033" lon="8.7698767"><ele>259.0</ele><time>2026-03-22T08:53:00.155Z</time></trkpt><trkpt lat="45.92395" lon="8.769815"><ele>259.0</ele><time>2026-03-22T08:53:01.155Z</time></trkpt><trkpt lat="45.9240333" lon="8.76971"><ele>259.0</ele><time>2026-03-22T08:53:03.154Z</time></trkpt><trkpt lat="45.924095" lon="8.7696733"><ele>259.0</ele><time>2026-03-22T08:53:04.154Z</time></trkpt><trkpt lat="45.9241683" lon="8.7696367"><ele>259.0</ele><time>2026-03-22T08:53:05.154Z</time></trkpt><trkpt lat="45.9242483" lon="8.7695933"><ele>260.16666666666663</ele><time>2026-03-22T08:53:06.154Z</time></trkpt><trkpt lat="45.9243367" lon="8.769535"><ele>261.3333333333333</ele><time>2026-03-22T08:53:07.154Z</time></trkpt><trkpt lat="45.9244083" lon="8.769485"><ele>262.5</ele><time>2026-03-22T08:53:08.154Z</time></trkpt><trkpt lat="45.9244733" lon="8.769455"><ele>263.6666666666667</ele><time>2026-03-22T08:53:09.154Z</time></trkpt><trkpt lat="45.92455" lon="8.769425"><ele>264.83333333333337</ele><time>2026-03-22T08:53:11.154Z</time></trkpt><trkpt lat="45.9246217" lon="8.76936"><ele>266.0</ele><time>2026-03-22T08:53:14.155Z</time></trkpt><trkpt lat="45.924705" lon="8.76935"><ele>266.6</ele><time>2026-03-22T08:53:17.154Z</time></trkpt><trkpt lat="45.9248067" lon="8.769315"><ele>267.20000000000005</ele><time>2026-03-22T08:53:19.155Z</time></trkpt><trkpt lat="45.9249333" lon="8.7693067"><ele>267.79999999999995</ele><time>2026-03-22T08:53:21.155Z</time></trkpt><trkpt lat="45.9249967" lon="8.7692967"><ele>268.4</ele><time>2026-03-22T08:53:22.154Z</time></trkpt><trkpt lat="45.9251167" lon="8.7692917"><ele>269.0</ele><time>2026-03-22T08:53:24.154Z</time></trkpt><trkpt lat="45.9251883" lon="8.769305"><ele>269.8</ele><time>2026-03-22T08:53:25.155Z</time></trkpt><trkpt lat="45.925265" lon="8.769315"><ele>270.59999999999997</ele><time>2026-03-22T08:53:26.154Z</time></trkpt><trkpt lat="45.92535" lon="8.769335"><ele>271.4</ele><time>2026-03-22T08:53:27.154Z</time></trkpt><trkpt lat="45.92545" lon="8.7693617"><ele>272.2</ele><time>2026-03-22T08:53:28.154Z</time></trkpt><trkpt lat="45.9255483" lon="8.7693767"><ele>273.0</ele><time>2026-03-22T08:53:29.154Z</time></trkpt><trkpt lat="45.92565" lon="8.7693983"><ele>273.0</ele><time>2026-03-22T08:53:30.155Z</time></trkpt><trkpt lat="45.9257317" lon="8.7694233"><ele>273.0</ele><time>2026-03-22T08:53:31.154Z</time></trkpt><trkpt lat="45.9258183" lon="8.7694517"><ele>273.0</ele><time>2026-03-22T08:53:32.155Z</time></trkpt><trkpt lat="45.92591" lon="8.76948"><ele>273.0</ele><time>2026-03-22T08:53:33.154Z</time></trkpt><trkpt lat="45.9260067" lon="8.7694983"><ele>273.0</ele><time>2026-03-22T08:53:34.155Z</time></trkpt><trkpt lat="45.9261167" lon="8.7695133"><ele>275.25</ele><time>2026-03-22T08:53:35.155Z</time></trkpt><trkpt lat="45.9262817" lon="8.7695233"><ele>277.5</ele><time>2026-03-22T08:53:36.155Z</time></trkpt><trkpt lat="45.926425" lon="8.7695283"><ele>279.75</ele><time>2026-03-22T08:53:37.155Z</time></trkpt><trkpt lat="45.92656" lon="8.7695367"><ele>282.0</ele><time>2026-03-22T08:53:38.155Z</time></trkpt><trkpt lat="45.9266733" lon="8.7695417"><ele>282.0</ele><time>2026-03-22T08:53:39.155Z</time></trkpt><trkpt lat="45.926785" lon="8.76953"><ele>282.0</ele><time>2026-03-22T08:53:40.155Z</time></trkpt><trkpt lat="45.9269033" lon="8.769505"><ele>282.0</ele><time>2026-03-22T08:53:41.155Z</time></trkpt><trkpt lat="45.9270233" lon="8.76949"><ele>282.0</ele><time>2026-03-22T08:53:42.156Z</time></trkpt><trkpt lat="45.9271433" lon="8.76946"><ele>282.0</ele><time>2026-03-22T08:53:43.155Z</time></trkpt><trkpt lat="45.92725" lon="8.7694267"><ele>282.0</ele><time>2026-03-22T08:53:44.155Z</time></trkpt><trkpt lat="45.9273633" lon="8.7694283"><ele>282.0</ele><time>2026-03-22T08:53:45.155Z</time></trkpt><trkpt lat="45.9274683" lon="8.7694283"><ele>282.0</ele><time>2026-03-22T08:53:46.155Z</time></trkpt><trkpt lat="45.9275783" lon="8.7694"><ele>282.0</ele><time>2026-03-22T08:53:47.155Z</time></trkpt><trkpt lat="45.9276917" lon="8.7693717"><ele>281.5</ele><time>2026-03-22T08:53:48.155Z</time></trkpt><trkpt lat="45.927795" lon="8.7693317"><ele>281.0</ele><time>2026-03-22T08:53:49.155Z</time></trkpt><trkpt lat="45.9279083" lon="8.7692983"><ele>280.5</ele><time>2026-03-22T08:53:50.155Z</time></trkpt><trkpt lat="45.9280467" lon="8.7692767"><ele>280.0</ele><time>2026-03-22T08:53:51.155Z</time></trkpt><trkpt lat="45.928175" lon="8.7692583"><ele>280.0</ele><time>2026-03-22T08:53:52.155Z</time></trkpt><trkpt lat="45.9282817" lon="8.7692317"><ele>280.0</ele><time>2026-03-22T08:53:53.155Z</time></trkpt><trkpt lat="45.9283683" lon="8.7691917"><ele>280.0</ele><time>2026-03-22T08:53:54.155Z</time></trkpt><trkpt lat="45.9284483" lon="8.769175"><ele>280.0</ele><time>2026-03-22T08:53:55.155Z</time></trkpt><trkpt lat="45.9285383" lon="8.76917"><ele>280.0</ele><time>2026-03-22T08:53:56.156Z</time></trkpt><trkpt lat="45.928645" lon="8.76919"><ele>280.6</ele><time>2026-03-22T08:53:57.156Z</time></trkpt><trkpt lat="45.92876" lon="8.769225"><ele>281.2</ele><time>2026-03-22T08:53:58.155Z</time></trkpt><trkpt lat="45.9288833" lon="8.7692633"><ele>281.8</ele><time>2026-03-22T08:53:59.156Z</time></trkpt><trkpt lat="45.9289817" lon="8.7692933"><ele>282.4</ele><time>2026-03-22T08:54:00.155Z</time></trkpt><trkpt lat="45.92908" lon="8.769315"><ele>283.0</ele><time>2026-03-22T08:54:01.155Z</time></trkpt><trkpt lat="45.9291767" lon="8.7693183"><ele>284.2</ele><time>2026-03-22T08:54:02.155Z</time></trkpt><trkpt lat="45.9292767" lon="8.7692967"><ele>285.4</ele><time>2026-03-22T08:54:03.156Z</time></trkpt><trkpt lat="45.929375" lon="8.769265"><ele>286.59999999999997</ele><time>2026-03-22T08:54:04.155Z</time></trkpt><trkpt lat="45.929465" lon="8.7692233"><ele>287.8</ele><time>2026-03-22T08:54:05.156Z</time></trkpt><trkpt lat="45.9295483" lon="8.76918"><ele>289.0</ele><time>2026-03-22T08:54:06.156Z</time></trkpt><trkpt lat="45.929625" lon="8.76914"><ele>289.0</ele><time>2026-03-22T08:54:07.156Z</time></trkpt><trkpt lat="45.9297083" lon="8.7691083"><ele>289.0</ele><time>2026-03-22T08:54:08.155Z</time></trkpt><trkpt lat="45.9297967" lon="8.7690883"><ele>289.0</ele><time>2026-03-22T08:54:09.155Z</time></trkpt><trkpt lat="45.9298783" lon="8.76907"><ele>289.0</ele><time>2026-03-22T08:54:10.156Z</time></trkpt><trkpt lat="45.9299567" lon="8.7690567"><ele>289.0</ele><time>2026-03-22T08:54:11.156Z</time></trkpt><trkpt lat="45.930025" lon="8.7690417"><ele>289.0</ele><time>2026-03-22T08:54:12.155Z</time></trkpt><trkpt lat="45.93009" lon="8.7690167"><ele>290.2</ele><time>2026-03-22T08:54:13.155Z</time></trkpt><trkpt lat="45.9301617" lon="8.7690033"><ele>291.4</ele><time>2026-03-22T08:54:14.155Z</time></trkpt><trkpt lat="45.93023" lon="8.76899"><ele>292.6</ele><time>2026-03-22T08:54:15.156Z</time></trkpt><trkpt lat="45.9302933" lon="8.7689817"><ele>293.8</ele><time>2026-03-22T08:54:16.156Z</time></trkpt><trkpt lat="45.9304067" lon="8.768925"><ele>295.0</ele><time>2026-03-22T08:54:18.156Z</time></trkpt><trkpt lat="45.9305367" lon="8.7688683"><ele>295.0</ele><time>2026-03-22T08:54:20.155Z</time></trkpt><trkpt lat="45.9306317" lon="8.768845"><ele>295.0</ele><time>2026-03-22T08:54:21.155Z</time></trkpt><trkpt lat="45.9307367" lon="8.7688333"><ele>295.0</ele><time>2026-03-22T08:54:22.155Z</time></trkpt><trkpt lat="45.9308417" lon="8.76883"><ele>295.0</ele><time>2026-03-22T08:54:23.156Z</time></trkpt><trkpt lat="45.930935" lon="8.76883"><ele>295.0</ele><time>2026-03-22T08:54:24.155Z</time></trkpt><trkpt lat="45.931025" lon="8.768825"><ele>296.2</ele><time>2026-03-22T08:54:25.155Z</time></trkpt><trkpt lat="45.931115" lon="8.768815"><ele>297.4</ele><time>2026-03-22T08:54:26.156Z</time></trkpt><trkpt lat="45.93127" lon="8.7688317"><ele>298.6</ele><time>2026-03-22T08:54:28.155Z</time></trkpt><trkpt lat="45.931365" lon="8.7688567"><ele>299.8</ele><time>2026-03-22T08:54:29.155Z</time></trkpt><trkpt lat="45.9314633" lon="8.7688817"><ele>301.0</ele><time>2026-03-22T08:54:30.156Z</time></trkpt><trkpt lat="45.93156" lon="8.7689"><ele>301.0</ele><time>2026-03-22T08:54:31.156Z</time></trkpt><trkpt lat="45.931645" lon="8.7688917"><ele>301.0</ele><time>2026-03-22T08:54:32.156Z</time></trkpt><trkpt lat="45.93172" lon="8.7688433"><ele>301.0</ele><time>2026-03-22T08:54:33.155Z</time></trkpt><trkpt lat="45.9317967" lon="8.7688317"><ele>301.0</ele><time>2026-03-22T08:54:34.155Z</time></trkpt><trkpt lat="45.9318683" lon="8.7688683"><ele>301.0</ele><time>2026-03-22T08:54:35.155Z</time></trkpt><trkpt lat="45.9319967" lon="8.768935"><ele>301.3333333333333</ele><time>2026-03-22T08:54:37.155Z</time></trkpt><trkpt lat="45.9320717" lon="8.7690383"><ele>301.66666666666663</ele><time>2026-03-22T08:54:38.155Z</time></trkpt><trkpt lat="45.93213" lon="8.769145"><ele>302.0</ele><time>2026-03-22T08:54:39.156Z</time></trkpt><trkpt lat="45.9321783" lon="8.7692167"><ele>302.3333333333333</ele><time>2026-03-22T08:54:40.155Z</time></trkpt><trkpt lat="45.9322417" lon="8.7692517"><ele>302.6666666666667</ele><time>2026-03-22T08:54:41.155Z</time></trkpt><trkpt lat="45.93233" lon="8.7693283"><ele>303.0</ele><time>2026-03-22T08:54:43.155Z</time></trkpt><trkpt lat="45.9323733" lon="8.7694083"><ele>302.1666666666667</ele><time>2026-03-22T08:54:45.155Z</time></trkpt><trkpt lat="45.9324033" lon="8.769305"><ele>301.3333333333333</ele><time>2026-03-22T08:54:47.155Z</time></trkpt><trkpt lat="45.93242" lon="8.7692067"><ele>300.5</ele><time>2026-03-22T08:54:48.155Z</time></trkpt><trkpt lat="45.9324367" lon="8.7690933"><ele>299.66666666666663</ele><time>2026-03-22T08:54:49.156Z</time></trkpt><trkpt lat="45.9324533" lon="8.768975"><ele>298.8333333333333</ele><time>2026-03-22T08:54:50.155Z</time></trkpt><trkpt lat="45.932475" lon="8.7688683"><ele>298.0</ele><time>2026-03-22T08:54:51.155Z</time></trkpt><trkpt lat="45.932505" lon="8.7687717"><ele>298.0</ele><time>2026-03-22T08:54:52.155Z</time></trkpt><trkpt lat="45.932545" lon="8.76869"><ele>298.0</ele><time>2026-03-22T08:54:53.155Z</time></trkpt><trkpt lat="45.9326083" lon="8.7686133"><ele>298.0</ele><time>2026-03-22T08:54:54.155Z</time></trkpt><trkpt lat="45.9326617" lon="8.7685233"><ele>298.0</ele><time>2026-03-22T08:54:55.155Z</time></trkpt><trkpt lat="45.9326967" lon="8.7684367"><ele>298.0</ele><time>2026-03-22T08:54:56.155Z</time></trkpt><trkpt lat="45.93273" lon="8.768275"><ele>298.0</ele><time>2026-03-22T08:54:58.156Z</time></trkpt><trkpt lat="45.9327617" lon="8.7681517"><ele>300.2</ele><time>2026-03-22T08:55:00.156Z</time></trkpt><trkpt lat="45.93288" lon="8.7681467"><ele>302.4</ele><time>2026-03-22T08:55:03.156Z</time></trkpt><trkpt lat="45.93295" lon="8.7682"><ele>304.59999999999997</ele><time>2026-03-22T08:55:04.155Z</time></trkpt><trkpt lat="45.93303" lon="8.76825"><ele>306.8</ele><time>2026-03-22T08:55:05.155Z</time></trkpt><trkpt lat="45.933105" lon="8.7683083"><ele>309.0</ele><time>2026-03-22T08:55:06.155Z</time></trkpt><trkpt lat="45.9331733" lon="8.7683817"><ele>309.0</ele><time>2026-03-22T08:55:07.155Z</time></trkpt><trkpt lat="45.9332467" lon="8.7684417"><ele>309.0</ele><time>2026-03-22T08:55:08.155Z</time></trkpt><trkpt lat="45.9333183" lon="8.7684867"><ele>309.0</ele><time>2026-03-22T08:55:09.155Z</time></trkpt><trkpt lat="45.9333917" lon="8.768515"><ele>309.0</ele><time>2026-03-22T08:55:10.155Z</time></trkpt><trkpt lat="45.933475" lon="8.7685233"><ele>309.0</ele><time>2026-03-22T08:55:11.155Z</time></trkpt><trkpt lat="45.9335683" lon="8.7685067"><ele>309.0</ele><time>2026-03-22T08:55:12.155Z</time></trkpt><trkpt lat="45.9336767" lon="8.7684433"><ele>311.6</ele><time>2026-03-22T08:55:13.155Z</time></trkpt><trkpt lat="45.93378" lon="8.7683533"><ele>314.2</ele><time>2026-03-22T08:55:14.155Z</time></trkpt><trkpt lat="45.9338733" lon="8.7682783"><ele>316.8</ele><time>2026-03-22T08:55:15.155Z</time></trkpt><trkpt lat="45.933955" lon="8.7682067"><ele>319.40000000000003</ele><time>2026-03-22T08:55:16.155Z</time></trkpt><trkpt lat="45.9340367" lon="8.76815"><ele>322.0</ele><time>2026-03-22T08:55:17.156Z</time></trkpt><trkpt lat="45.9341233" lon="8.7680983"><ele>322.0</ele><time>2026-03-22T08:55:18.155Z</time></trkpt><trkpt lat="45.9342117" lon="8.7680583"><ele>322.0</ele><time>2026-03-22T08:55:19.155Z</time></trkpt><trkpt lat="45.9342817" lon="8.76804"><ele>322.0</ele><time>2026-03-22T08:55:20.155Z</time></trkpt><trkpt lat="45.9343667" lon="8.767985"><ele>322.0</ele><time>2026-03-22T08:55:21.156Z</time></trkpt><trkpt lat="45.9344467" lon="8.7679217"><ele>322.0</ele><time>2026-03-22T08:55:22.155Z</time></trkpt><trkpt lat="45.93452" lon="8.7678433"><ele>322.0</ele><time>2026-03-22T08:55:23.155Z</time></trkpt><trkpt lat="45.9346017" lon="8.7677367"><ele>324.0</ele><time>2026-03-22T08:55:24.155Z</time></trkpt><trkpt lat="45.934675" lon="8.7676233"><ele>326.0</ele><time>2026-03-22T08:55:25.155Z</time></trkpt><trkpt lat="45.934745" lon="8.76751"><ele>328.0</ele><time>2026-03-22T08:55:26.155Z</time></trkpt><trkpt lat="45.934805" lon="8.76742"><ele>330.0</ele><time>2026-03-22T08:55:27.155Z</time></trkpt><trkpt lat="45.9348783" lon="8.7673233"><ele>332.0</ele><time>2026-03-22T08:55:28.155Z</time></trkpt><trkpt lat="45.9349533" lon="8.767235"><ele>332.0</ele><time>2026-03-22T08:55:29.155Z</time></trkpt><trkpt lat="45.9350233" lon="8.76716"><ele>332.0</ele><time>2026-03-22T08:55:30.156Z</time></trkpt><trkpt lat="45.935095" lon="8.7670867"><ele>332.0</ele><time>2026-03-22T08:55:31.155Z</time></trkpt><trkpt lat="45.93515" lon="8.7670217"><ele>332.0</ele><time>2026-03-22T08:55:32.155Z</time></trkpt><trkpt lat="45.9351983" lon="8.76694"><ele>332.0</ele><time>2026-03-22T08:55:33.155Z</time></trkpt><trkpt lat="45.935235" lon="8.7668417"><ele>332.0</ele><time>2026-03-22T08:55:34.155Z</time></trkpt><trkpt lat="45.9352633" lon="8.76673"><ele>334.6</ele><time>2026-03-22T08:55:35.155Z</time></trkpt><trkpt lat="45.9352833" lon="8.7665967"><ele>337.20000000000005</ele><time>2026-03-22T08:55:36.155Z</time></trkpt><trkpt lat="45.9352883" lon="8.7664583"><ele>339.8</ele><time>2026-03-22T08:55:37.155Z</time></trkpt><trkpt lat="45.9352867" lon="8.766345"><ele>342.4</ele><time>2026-03-22T08:55:38.155Z</time></trkpt><trkpt lat="45.9352917" lon="8.76625"><ele>345.0</ele><time>2026-03-22T08:55:39.155Z</time></trkpt><trkpt lat="45.9353367" lon="8.7660883"><ele>347.0</ele><time>2026-03-22T08:55:41.155Z</time></trkpt><trkpt lat="45.93539" lon="8.7659817"><ele>349.0</ele><time>2026-03-22T08:55:42.155Z</time></trkpt><trkpt lat="45.9354383" lon="8.7658633"><ele>351.0</ele><time>2026-03-22T08:55:43.155Z</time></trkpt><trkpt lat="45.9354883" lon="8.7657467"><ele>353.0</ele><time>2026-03-22T08:55:44.155Z</time></trkpt><trkpt lat="45.9355533" lon="8.7656383"><ele>355.0</ele><time>2026-03-22T08:55:45.155Z</time></trkpt><trkpt lat="45.9356133" lon="8.7655333"><ele>355.0</ele><time>2026-03-22T08:55:46.156Z</time></trkpt><trkpt lat="45.9356767" lon="8.7654617"><ele>355.0</ele><time>2026-03-22T08:55:47.155Z</time></trkpt><trkpt lat="45.9357583" lon="8.7653867"><ele>355.0</ele><time>2026-03-22T08:55:48.155Z</time></trkpt><trkpt lat="45.9358283" lon="8.7653133"><ele>355.0</ele><time>2026-03-22T08:55:49.155Z</time></trkpt><trkpt lat="45.935875" lon="8.7652517"><ele>355.0</ele><time>2026-03-22T08:55:50.156Z</time></trkpt><trkpt lat="45.935925" lon="8.7651783"><ele>355.0</ele><time>2026-03-22T08:55:51.155Z</time></trkpt><trkpt lat="45.93598" lon="8.76508"><ele>352.25</ele><time>2026-03-22T08:55:52.155Z</time></trkpt><trkpt lat="45.9360617" lon="8.7649667"><ele>349.5</ele><time>2026-03-22T08:55:53.155Z</time></trkpt><trkpt lat="45.9361417" lon="8.7648167"><ele>346.75</ele><time>2026-03-22T08:55:54.155Z</time></trkpt><trkpt lat="45.9362083" lon="8.7646883"><ele>344.0</ele><time>2026-03-22T08:55:55.155Z</time></trkpt><trkpt lat="45.9362683" lon="8.76457"><ele>344.0</ele><time>2026-03-22T08:55:56.156Z</time></trkpt><trkpt lat="45.936305" lon="8.7644667"><ele>344.0</ele><time>2026-03-22T08:55:57.155Z</time></trkpt><trkpt lat="45.936325" lon="8.7643667"><ele>344.0</ele><time>2026-03-22T08:55:58.155Z</time></trkpt><trkpt lat="45.9363317" lon="8.76426"><ele>344.0</ele><time>2026-03-22T08:55:59.155Z</time></trkpt><trkpt lat="45.93635" lon="8.7641233"><ele>344.0</ele><time>2026-03-22T08:56:00.155Z</time></trkpt><trkpt lat="45.9363783" lon="8.7639883"><ele>344.0</ele><time>2026-03-22T08:56:01.156Z</time></trkpt><trkpt lat="45.9364233" lon="8.763845"><ele>345.6</ele><time>2026-03-22T08:56:02.155Z</time></trkpt><trkpt lat="45.9364583" lon="8.7637117"><ele>347.2</ele><time>2026-03-22T08:56:03.155Z</time></trkpt><trkpt lat="45.9364817" lon="8.7635583"><ele>348.8</ele><time>2026-03-22T08:56:04.155Z</time></trkpt><trkpt lat="45.9364833" lon="8.7634"><ele>350.40000000000003</ele><time>2026-03-22T08:56:05.156Z</time></trkpt><trkpt lat="45.9364683" lon="8.7632517"><ele>352.0</ele><time>2026-03-22T08:56:06.155Z</time></trkpt><trkpt lat="45.9364633" lon="8.7631167"><ele>353.5</ele><time>2026-03-22T08:56:07.156Z</time></trkpt><trkpt lat="45.9364583" lon="8.763005"><ele>355.0</ele><time>2026-03-22T08:56:08.156Z</time></trkpt><trkpt lat="45.9364533" lon="8.7629117"><ele>356.5</ele><time>2026-03-22T08:56:09.155Z</time></trkpt><trkpt lat="45.936485" lon="8.7628133"><ele>358.0</ele><time>2026-03-22T08:56:12.155Z</time></trkpt><trkpt lat="45.9363967" lon="8.76269"><ele>359.5</ele><time>2026-03-22T08:56:45.155Z</time></trkpt><trkpt lat="45.9364633" lon="8.76265"><ele>361.0</ele><time>2026-03-22T08:57:21.156Z</time></trkpt><trkpt lat="45.9365267" lon="8.762595"><ele>361.0</ele><time>2026-03-22T08:57:24.155Z</time></trkpt><trkpt lat="45.9366033" lon="8.7626183"><ele>361.0</ele><time>2026-03-22T08:57:29.155Z</time></trkpt><trkpt lat="45.9366283" lon="8.76271"><ele>361.0</ele><time>2026-03-22T08:57:33.155Z</time></trkpt><trkpt lat="45.9366933" lon="8.7627833"><ele>361.0</ele><time>2026-03-22T08:57:38.155Z</time></trkpt><trkpt lat="45.9367517" lon="8.76283"><ele>361.0</ele><time>2026-03-22T08:57:40.155Z</time></trkpt><trkpt lat="45.9368267" lon="8.7629233"><ele>361.0</ele><time>2026-03-22T08:57:42.155Z</time></trkpt><trkpt lat="45.93688" lon="8.76299"><ele>361.8</ele><time>2026-03-22T08:57:43.156Z</time></trkpt><trkpt lat="45.936945" lon="8.76307"><ele>362.6</ele><time>2026-03-22T08:57:44.155Z</time></trkpt><trkpt lat="45.9370117" lon="8.7631583"><ele>363.4</ele><time>2026-03-22T08:57:45.156Z</time></trkpt><trkpt lat="45.9370733" lon="8.76325"><ele>364.2</ele><time>2026-03-22T08:57:46.155Z</time></trkpt><trkpt lat="45.9371533" lon="8.76336"><ele>365.0</ele><time>2026-03-22T08:57:47.155Z</time></trkpt><trkpt lat="45.937215" lon="8.76344"><ele>365.0</ele><time>2026-03-22T08:57:48.155Z</time></trkpt><trkpt lat="45.937275" lon="8.7634967"><ele>365.0</ele><time>2026-03-22T08:57:49.155Z</time></trkpt><trkpt lat="45.937335" lon="8.7635467"><ele>365.0</ele><time>2026-03-22T08:57:50.155Z</time></trkpt><trkpt lat="45.9373933" lon="8.7635967"><ele>365.0</ele><time>2026-03-22T08:57:51.155Z</time></trkpt><trkpt lat="45.9374933" lon="8.7636767"><ele>365.0</ele><time>2026-03-22T08:57:53.156Z</time></trkpt><trkpt lat="45.93757" lon="8.7637267"><ele>365.0</ele><time>2026-03-22T08:57:55.155Z</time></trkpt><trkpt lat="45.9376317" lon="8.7637483"><ele>362.8</ele><time>2026-03-22T08:57:57.156Z</time></trkpt><trkpt lat="45.9377217" lon="8.76369"><ele>360.6</ele><time>2026-03-22T08:58:00.155Z</time></trkpt><trkpt lat="45.9378167" lon="8.7636467"><ele>358.4</ele><time>2026-03-22T08:58:03.156Z</time></trkpt><trkpt lat="45.9379083" lon="8.7636333"><ele>356.2</ele><time>2026-03-22T08:58:06.156Z</time></trkpt><trkpt lat="45.937985" lon="8.7637033"><ele>354.0</ele><time>2026-03-22T08:58:09.155Z</time></trkpt><trkpt lat="45.9380233" lon="8.763835"><ele>354.0</ele><time>2026-03-22T08:58:11.156Z</time></trkpt><trkpt lat="45.9380567" lon="8.7639467"><ele>354.0</ele><time>2026-03-22T08:58:13.155Z</time></trkpt><trkpt lat="45.9380933" lon="8.7640417"><ele>354.0</ele><time>2026-03-22T08:58:15.155Z</time></trkpt><trkpt lat="45.9381183" lon="8.7641267"><ele>354.0</ele><time>2026-03-22T08:58:17.155Z</time></trkpt><trkpt lat="45.938145" lon="8.7642117"><ele>354.0</ele><time>2026-03-22T08:58:22.155Z</time></trkpt><trkpt lat="45.9382017" lon="8.7642933"><ele>354.0</ele><time>2026-03-22T08:58:27.155Z</time></trkpt><trkpt lat="45.938275" lon="8.7643283"><ele>354.0</ele><time>2026-03-22T08:58:30.155Z</time></trkpt><trkpt lat="45.9383283" lon="8.7643767"><ele>350.8571428571429</ele><time>2026-03-22T08:58:33.155Z</time></trkpt><trkpt lat="45.938385" lon="8.764425"><ele>347.71428571428567</ele><time>2026-03-22T08:58:38.156Z</time></trkpt><trkpt lat="45.93845" lon="8.7645083"><ele>344.57142857142856</ele><time>2026-03-22T08:58:43.156Z</time></trkpt><trkpt lat="45.9385283" lon="8.7645417"><ele>341.42857142857144</ele><time>2026-03-22T08:58:46.156Z</time></trkpt><trkpt lat="45.938595" lon="8.76455"><ele>338.28571428571433</ele><time>2026-03-22T08:58:50.155Z</time></trkpt><trkpt lat="45.9386583" lon="8.7645433"><ele>335.1428571428571</ele><time>2026-03-22T08:58:55.155Z</time></trkpt><trkpt lat="45.9387283" lon="8.7645533"><ele>332.0</ele><time>2026-03-22T08:58:59.155Z</time></trkpt><trkpt lat="45.9387583" lon="8.76445"><ele>332.0</ele><time>2026-03-22T08:59:02.155Z</time></trkpt><trkpt lat="45.9387967" lon="8.76437"><ele>332.0</ele><time>2026-03-22T08:59:05.155Z</time></trkpt><trkpt lat="45.9388533" lon="8.7643283"><ele>332.0</ele><time>2026-03-22T08:59:08.155Z</time></trkpt><trkpt lat="45.9389183" lon="8.764305"><ele>332.0</ele><time>2026-03-22T08:59:13.155Z</time></trkpt><trkpt lat="45.9389917" lon="8.7643217"><ele>332.0</ele><time>2026-03-22T08:59:18.155Z</time></trkpt><trkpt lat="45.9390433" lon="8.7644033"><ele>332.0</ele><time>2026-03-22T08:59:26.156Z</time></trkpt><trkpt lat="45.939035" lon="8.76451"><ele>332.0</ele><time>2026-03-22T08:59:30.155Z</time></trkpt><trkpt lat="45.9390183" lon="8.7646233"><ele>332.0</ele><time>2026-03-22T08:59:32.155Z</time></trkpt><trkpt lat="45.93902" lon="8.7647317"><ele>332.0</ele><time>2026-03-22T08:59:34.155Z</time></trkpt><trkpt lat="45.9390633" lon="8.764845"><ele>332.0</ele><time>2026-03-22T08:59:37.155Z</time></trkpt><trkpt lat="45.9390733" lon="8.764975"><ele>332.0</ele><time>2026-03-22T08:59:40.155Z</time></trkpt><trkpt lat="45.9390967" lon="8.7650817"><ele>332.0</ele><time>2026-03-22T08:59:42.155Z</time></trkpt><trkpt lat="45.939105" lon="8.7651783"><ele>332.0</ele><time>2026-03-22T08:59:44.155Z</time></trkpt><trkpt lat="45.9391033" lon="8.7652967"><ele>330.2857142857143</ele><time>2026-03-22T08:59:47.155Z</time></trkpt><trkpt lat="45.9391233" lon="8.7653833"><ele>328.5714285714286</ele><time>2026-03-22T08:59:54.155Z</time></trkpt><trkpt lat="45.93913" lon="8.76548"><ele>326.8571428571429</ele><time>2026-03-22T09:00:04.155Z</time></trkpt><trkpt lat="45.9391467" lon="8.7655933"><ele>325.1428571428571</ele><time>2026-03-22T09:00:11.155Z</time></trkpt><trkpt lat="45.939135" lon="8.7657017"><ele>323.42857142857144</ele><time>2026-03-22T09:00:15.155Z</time></trkpt><trkpt lat="45.9391217" lon="8.7657917"><ele>321.7142857142857</ele><time>2026-03-22T09:00:18.155Z</time></trkpt><trkpt lat="45.93919" lon="8.765805"><ele>320.0</ele><time>2026-03-22T09:00:23.155Z</time></trkpt><trkpt lat="45.9392567" lon="8.7658083"><ele>319.6666666666667</ele><time>2026-03-22T09:00:26.155Z</time></trkpt><trkpt lat="45.9393333" lon="8.765805"><ele>319.33333333333337</ele><time>2026-03-22T09:00:29.155Z</time></trkpt><trkpt lat="45.9394233" lon="8.7658117"><ele>319.0</ele><time>2026-03-22T09:00:32.155Z</time></trkpt><trkpt lat="45.9395033" lon="8.7658633"><ele>318.6666666666667</ele><time>2026-03-22T09:00:34.156Z</time></trkpt><trkpt lat="45.9395617" lon="8.76592"><ele>318.3333333333333</ele><time>2026-03-22T09:00:36.156Z</time></trkpt><trkpt lat="45.93962" lon="8.7659817"><ele>318.0</ele><time>2026-03-22T09:00:38.155Z</time></trkpt><trkpt lat="45.9396667" lon="8.7660433"><ele>318.0</ele><time>2026-03-22T09:00:40.155Z</time></trkpt><trkpt lat="45.939715" lon="8.76611"><ele>318.0</ele><time>2026-03-22T09:00:42.156Z</time></trkpt><trkpt lat="45.939785" lon="8.76613"><ele>318.0</ele><time>2026-03-22T09:00:44.155Z</time></trkpt><trkpt lat="45.93985" lon="8.766085"><ele>318.0</ele><time>2026-03-22T09:00:46.155Z</time></trkpt><trkpt lat="45.9398933" lon="8.76601"><ele>318.0</ele><time>2026-03-22T09:00:48.155Z</time></trkpt><trkpt lat="45.93992" lon="8.7658583"><ele>318.0</ele><time>2026-03-22T09:00:51.155Z</time></trkpt><trkpt lat="45.9399417" lon="8.7657633"><ele>318.0</ele><time>2026-03-22T09:00:52.155Z</time></trkpt><trkpt lat="45.9399767" lon="8.765655"><ele>318.0</ele><time>2026-03-22T09:00:53.155Z</time></trkpt><trkpt lat="45.9400017" lon="8.76555"><ele>318.0</ele><time>2026-03-22T09:00:54.156Z</time></trkpt><trkpt lat="45.940035" lon="8.7654433"><ele>318.0</ele><time>2026-03-22T09:00:55.155Z</time></trkpt><trkpt lat="45.94007" lon="8.7653417"><ele>318.0</ele><time>2026-03-22T09:00:56.156Z</time></trkpt><trkpt lat="45.9401017" lon="8.7652583"><ele>318.0</ele><time>2026-03-22T09:00:57.156Z</time></trkpt><trkpt lat="45.94017" lon="8.765115"><ele>319.8</ele><time>2026-03-22T09:00:59.155Z</time></trkpt><trkpt lat="45.940255" lon="8.76501"><ele>321.6</ele><time>2026-03-22T09:01:01.155Z</time></trkpt><trkpt lat="45.9403467" lon="8.764985"><ele>323.40000000000003</ele><time>2026-03-22T09:01:03.155Z</time></trkpt><trkpt lat="45.9404633" lon="8.764955"><ele>325.20000000000005</ele><time>2026-03-22T09:01:05.155Z</time></trkpt><trkpt lat="45.94053" lon="8.764935"><ele>327.0</ele><time>2026-03-22T09:01:06.156Z</time></trkpt><trkpt lat="45.94063" lon="8.76491"><ele>327.0</ele><time>2026-03-22T09:01:08.156Z</time></trkpt><trkpt lat="45.9407033" lon="8.7649633"><ele>327.0</ele><time>2026-03-22T09:01:10.155Z</time></trkpt><trkpt lat="45.9407883" lon="8.765"><ele>327.0</ele><time>2026-03-22T09:01:12.156Z</time></trkpt><trkpt lat="45.9408733" lon="8.7650133"><ele>327.0</ele><time>2026-03-22T09:01:14.155Z</time></trkpt><trkpt lat="45.9409467" lon="8.7650167"><ele>327.0</ele><time>2026-03-22T09:01:16.155Z</time></trkpt><trkpt lat="45.9410167" lon="8.7650017"><ele>327.0</ele><time>2026-03-22T09:01:19.156Z</time></trkpt><trkpt lat="45.94108" lon="8.7649683"><ele>326.6666666666667</ele><time>2026-03-22T09:01:22.155Z</time></trkpt><trkpt lat="45.94115" lon="8.7648967"><ele>326.3333333333333</ele><time>2026-03-22T09:01:25.155Z</time></trkpt><trkpt lat="45.9411933" lon="8.7647917"><ele>326.0</ele><time>2026-03-22T09:01:27.156Z</time></trkpt><trkpt lat="45.94124" lon="8.76468"><ele>325.66666666666663</ele><time>2026-03-22T09:01:29.156Z</time></trkpt><trkpt lat="45.94128" lon="8.7645917"><ele>325.3333333333333</ele><time>2026-03-22T09:01:31.155Z</time></trkpt><trkpt lat="45.9413267" lon="8.7645267"><ele>325.0</ele><time>2026-03-22T09:01:33.156Z</time></trkpt><trkpt lat="45.94139" lon="8.7644733"><ele>325.0</ele><time>2026-03-22T09:02:31.156Z</time></trkpt><trkpt lat="45.9414483" lon="8.76437"><ele>325.0</ele><time>2026-03-22T09:02:32.155Z</time></trkpt><trkpt lat="45.94151" lon="8.764345"><ele>325.0</ele><time>2026-03-22T09:03:50.156Z</time></trkpt><trkpt lat="45.9415483" lon="8.7642633"><ele>325.0</ele><time>2026-03-22T09:04:15.155Z</time></trkpt><trkpt lat="45.941595" lon="8.7642"><ele>325.0</ele><time>2026-03-22T09:04:19.155Z</time></trkpt><trkpt lat="45.9416883" lon="8.764075"><ele>325.0</ele><time>2026-03-22T09:04:47.155Z</time></trkpt><trkpt lat="45.94173" lon="8.7640017"><ele>326.16666666666663</ele><time>2026-03-22T09:04:50.155Z</time></trkpt><trkpt lat="45.9417383" lon="8.7639033"><ele>327.3333333333333</ele><time>2026-03-22T09:04:54.155Z</time></trkpt><trkpt lat="45.94167" lon="8.7638267"><ele>328.5</ele><time>2026-03-22T09:04:58.156Z</time></trkpt><trkpt lat="45.94162" lon="8.7637433"><ele>329.6666666666667</ele><time>2026-03-22T09:05:01.155Z</time></trkpt><trkpt lat="45.9415467" lon="8.7636967"><ele>330.83333333333337</ele><time>2026-03-22T09:05:03.155Z</time></trkpt><trkpt lat="45.941485" lon="8.763665"><ele>332.0</ele><time>2026-03-22T09:05:05.155Z</time></trkpt><trkpt lat="45.941425" lon="8.7636083"><ele>332.0</ele><time>2026-03-22T09:05:08.156Z</time></trkpt><trkpt lat="45.9413683" lon="8.7635483"><ele>332.0</ele><time>2026-03-22T09:05:10.156Z</time></trkpt><trkpt lat="45.9412983" lon="8.7634967"><ele>332.0</ele><time>2026-03-22T09:05:13.155Z</time></trkpt><trkpt lat="45.9412433" lon="8.76341"><ele>332.0</ele><time>2026-03-22T09:05:15.156Z</time></trkpt><trkpt lat="45.9411733" lon="8.763305"><ele>332.0</ele><time>2026-03-22T09:05:17.155Z</time></trkpt><trkpt lat="45.941085" lon="8.7631933"><ele>332.0</ele><time>2026-03-22T09:05:19.156Z</time></trkpt><trkpt lat="45.9410217" lon="8.763095"><ele>333.8</ele><time>2026-03-22T09:05:21.156Z</time></trkpt><trkpt lat="45.9409633" lon="8.7629283"><ele>335.6</ele><time>2026-03-22T09:05:23.156Z</time></trkpt><trkpt lat="45.94094" lon="8.7628083"><ele>337.40000000000003</ele><time>2026-03-22T09:05:24.155Z</time></trkpt><trkpt lat="45.940915" lon="8.7627"><ele>339.20000000000005</ele><time>2026-03-22T09:05:25.155Z</time></trkpt><trkpt lat="45.9408767" lon="8.7625433"><ele>341.0</ele><time>2026-03-22T09:05:27.155Z</time></trkpt><trkpt lat="45.9408733" lon="8.7623933"><ele>342.6666666666667</ele><time>2026-03-22T09:05:29.155Z</time></trkpt><trkpt lat="45.9409117" lon="8.76229"><ele>344.33333333333337</ele><time>2026-03-22T09:05:31.155Z</time></trkpt><trkpt lat="45.9410067" lon="8.7622117"><ele>346.0</ele><time>2026-03-22T09:05:33.155Z</time></trkpt><trkpt lat="45.9410617" lon="8.7621633"><ele>347.6666666666667</ele><time>2026-03-22T09:05:34.156Z</time></trkpt><trkpt lat="45.9411433" lon="8.76212"><ele>349.3333333333333</ele><time>2026-03-22T09:05:36.155Z</time></trkpt><trkpt lat="45.9412067" lon="8.7620983"><ele>351.0</ele><time>2026-03-22T09:05:38.156Z</time></trkpt><trkpt lat="45.9412667" lon="8.7621433"><ele>351.0</ele><time>2026-03-22T09:05:40.156Z</time></trkpt><trkpt lat="45.9413383" lon="8.76221"><ele>351.0</ele><time>2026-03-22T09:05:42.155Z</time></trkpt><trkpt lat="45.9414117" lon="8.7622483"><ele>351.0</ele><time>2026-03-22T09:05:44.155Z</time></trkpt><trkpt lat="45.941485" lon="8.7622333"><ele>351.0</ele><time>2026-03-22T09:05:46.155Z</time></trkpt><trkpt lat="45.9415683" lon="8.7621867"><ele>351.0</ele><time>2026-03-22T09:05:48.155Z</time></trkpt><trkpt lat="45.9416333" lon="8.7621233"><ele>351.0</ele><time>2026-03-22T09:05:50.156Z</time></trkpt><trkpt lat="45.9416817" lon="8.762035"><ele>348.20000000000005</ele><time>2026-03-22T09:05:52.155Z</time></trkpt><trkpt lat="45.9417433" lon="8.7619033"><ele>345.40000000000003</ele><time>2026-03-22T09:05:54.155Z</time></trkpt><trkpt lat="45.9417767" lon="8.76175"><ele>342.6</ele><time>2026-03-22T09:05:56.156Z</time></trkpt><trkpt lat="45.9417983" lon="8.761575"><ele>339.8</ele><time>2026-03-22T09:05:58.155Z</time></trkpt><trkpt lat="45.941805" lon="8.761455"><ele>337.0</ele><time>2026-03-22T09:05:59.155Z</time></trkpt><trkpt lat="45.9418033" lon="8.7613283"><ele>337.0</ele><time>2026-03-22T09:06:00.155Z</time></trkpt><trkpt lat="45.9417983" lon="8.7612017"><ele>337.0</ele><time>2026-03-22T09:06:01.155Z</time></trkpt><trkpt lat="45.9417867" lon="8.761085"><ele>337.0</ele><time>2026-03-22T09:06:02.156Z</time></trkpt><trkpt lat="45.9417733" lon="8.7609767"><ele>337.0</ele><time>2026-03-22T09:06:03.155Z</time></trkpt><trkpt lat="45.941785" lon="8.7608717"><ele>337.0</ele><time>2026-03-22T09:06:04.155Z</time></trkpt><trkpt lat="45.9417983" lon="8.7607517"><ele>337.0</ele><time>2026-03-22T09:06:05.155Z</time></trkpt><trkpt lat="45.941815" lon="8.7606167"><ele>338.8</ele><time>2026-03-22T09:06:06.155Z</time></trkpt><trkpt lat="45.9418367" lon="8.7604833"><ele>340.6</ele><time>2026-03-22T09:06:07.156Z</time></trkpt><trkpt lat="45.94186" lon="8.760355"><ele>342.40000000000003</ele><time>2026-03-22T09:06:08.155Z</time></trkpt><trkpt lat="45.9418917" lon="8.7602383"><ele>344.20000000000005</ele><time>2026-03-22T09:06:09.155Z</time></trkpt><trkpt lat="45.9419317" lon="8.7601033"><ele>346.0</ele><time>2026-03-22T09:06:10.155Z</time></trkpt><trkpt lat="45.94197" lon="8.7599933"><ele>346.8333333333333</ele><time>2026-03-22T09:06:11.155Z</time></trkpt><trkpt lat="45.9419983" lon="8.759895"><ele>347.66666666666663</ele><time>2026-03-22T09:06:12.155Z</time></trkpt><trkpt lat="45.9420183" lon="8.7598083"><ele>348.5</ele><time>2026-03-22T09:06:13.156Z</time></trkpt><trkpt lat="45.94202" lon="8.7596683"><ele>349.3333333333333</ele><time>2026-03-22T09:06:15.155Z</time></trkpt><trkpt lat="45.9420233" lon="8.75954"><ele>350.1666666666667</ele><time>2026-03-22T09:06:17.155Z</time></trkpt><trkpt lat="45.942015" lon="8.7594317"><ele>351.0</ele><time>2026-03-22T09:06:19.155Z</time></trkpt><trkpt lat="45.9419817" lon="8.75935"><ele>351.0</ele><time>2026-03-22T09:06:21.155Z</time></trkpt><trkpt lat="45.9419617" lon="8.7592617"><ele>351.0</ele><time>2026-03-22T09:06:24.155Z</time></trkpt><trkpt lat="45.9420283" lon="8.7592833"><ele>351.0</ele><time>2026-03-22T09:06:29.155Z</time></trkpt><trkpt lat="45.94212" lon="8.759285"><ele>351.0</ele><time>2026-03-22T09:06:32.155Z</time></trkpt><trkpt lat="45.9422017" lon="8.7593017"><ele>351.0</ele><time>2026-03-22T09:06:34.155Z</time></trkpt><trkpt lat="45.942265" lon="8.7593133"><ele>351.0</ele><time>2026-03-22T09:06:35.156Z</time></trkpt><trkpt lat="45.9423683" lon="8.75943"><ele>351.0</ele><time>2026-03-22T09:06:37.155Z</time></trkpt><trkpt lat="45.94242" lon="8.75954"><ele>351.0</ele><time>2026-03-22T09:06:38.155Z</time></trkpt><trkpt lat="45.9424733" lon="8.75966"><ele>351.0</ele><time>2026-03-22T09:06:39.155Z</time></trkpt><trkpt lat="45.9425167" lon="8.759785"><ele>351.0</ele><time>2026-03-22T09:06:40.155Z</time></trkpt><trkpt lat="45.942565" lon="8.7599183"><ele>351.0</ele><time>2026-03-22T09:06:41.155Z</time></trkpt><trkpt lat="45.9426017" lon="8.76005"><ele>351.5</ele><time>2026-03-22T09:06:42.156Z</time></trkpt><trkpt lat="45.9426217" lon="8.7601867"><ele>352.0</ele><time>2026-03-22T09:06:43.155Z</time></trkpt><trkpt lat="45.9426117" lon="8.7603033"><ele>352.5</ele><time>2026-03-22T09:06:44.155Z</time></trkpt><trkpt lat="45.942605" lon="8.7604117"><ele>353.0</ele><time>2026-03-22T09:06:45.155Z</time></trkpt><trkpt lat="45.9426017" lon="8.760505"><ele>353.5</ele><time>2026-03-22T09:06:46.155Z</time></trkpt><trkpt lat="45.942625" lon="8.7606583"><ele>354.0</ele><time>2026-03-22T09:06:48.155Z</time></trkpt><trkpt lat="45.9427283" lon="8.7608133"><ele>352.79999999999995</ele><time>2026-03-22T09:06:50.155Z</time></trkpt><trkpt lat="45.9428317" lon="8.7608867"><ele>351.59999999999997</ele><time>2026-03-22T09:06:51.155Z</time></trkpt><trkpt lat="45.94292" lon="8.760975"><ele>350.4</ele><time>2026-03-22T09:06:52.155Z</time></trkpt><trkpt lat="45.9429917" lon="8.7610667"><ele>349.2</ele><time>2026-03-22T09:06:53.156Z</time></trkpt><trkpt lat="45.9430383" lon="8.7611683"><ele>348.0</ele><time>2026-03-22T09:06:54.156Z</time></trkpt><trkpt lat="45.94308" lon="8.761275"><ele>346.6666666666667</ele><time>2026-03-22T09:06:55.156Z</time></trkpt><trkpt lat="45.943105" lon="8.7613767"><ele>345.3333333333333</ele><time>2026-03-22T09:06:56.155Z</time></trkpt><trkpt lat="45.9431417" lon="8.7614733"><ele>344.0</ele><time>2026-03-22T09:06:57.155Z</time></trkpt><trkpt lat="45.943195" lon="8.7615717"><ele>342.66666666666663</ele><time>2026-03-22T09:06:58.156Z</time></trkpt><trkpt lat="45.94325" lon="8.7616617"><ele>341.3333333333333</ele><time>2026-03-22T09:06:59.156Z</time></trkpt><trkpt lat="45.9433267" lon="8.7617217"><ele>340.0</ele><time>2026-03-22T09:07:00.155Z</time></trkpt><trkpt lat="45.9434283" lon="8.7617617"><ele>336.8</ele><time>2026-03-22T09:07:01.155Z</time></trkpt><trkpt lat="45.9435367" lon="8.761805"><ele>333.6</ele><time>2026-03-22T09:07:02.155Z</time></trkpt><trkpt lat="45.9436367" lon="8.7618167"><ele>330.4</ele><time>2026-03-22T09:07:03.155Z</time></trkpt><trkpt lat="45.9437317" lon="8.7618233"><ele>327.2</ele><time>2026-03-22T09:07:04.155Z</time></trkpt><trkpt lat="45.9438183" lon="8.76182"><ele>324.0</ele><time>2026-03-22T09:07:05.156Z</time></trkpt><trkpt lat="45.9439067" lon="8.7617883"><ele>324.0</ele><time>2026-03-22T09:07:06.156Z</time></trkpt><trkpt lat="45.9439883" lon="8.7616767"><ele>324.0</ele><time>2026-03-22T09:07:07.155Z</time></trkpt><trkpt lat="45.9440567" lon="8.7615533"><ele>324.0</ele><time>2026-03-22T09:07:08.156Z</time></trkpt><trkpt lat="45.9441067" lon="8.76141"><ele>324.0</ele><time>2026-03-22T09:07:09.155Z</time></trkpt><trkpt lat="45.9441533" lon="8.7612717"><ele>324.0</ele><time>2026-03-22T09:07:10.155Z</time></trkpt><trkpt lat="45.9441933" lon="8.76114"><ele>318.2</ele><time>2026-03-22T09:07:11.155Z</time></trkpt><trkpt lat="45.9442417" lon="8.76102"><ele>312.4</ele><time>2026-03-22T09:07:12.155Z</time></trkpt><trkpt lat="45.9443067" lon="8.760915"><ele>306.6</ele><time>2026-03-22T09:07:13.155Z</time></trkpt><trkpt lat="45.9443817" lon="8.7608267"><ele>300.8</ele><time>2026-03-22T09:07:14.155Z</time></trkpt><trkpt lat="45.9444467" lon="8.7607383"><ele>295.0</ele><time>2026-03-22T09:07:15.155Z</time></trkpt><trkpt lat="45.9445067" lon="8.7606483"><ele>295.0</ele><time>2026-03-22T09:07:16.155Z</time></trkpt><trkpt lat="45.9445567" lon="8.760545"><ele>295.0</ele><time>2026-03-22T09:07:17.155Z</time></trkpt><trkpt lat="45.94459" lon="8.760425"><ele>295.0</ele><time>2026-03-22T09:07:18.155Z</time></trkpt><trkpt lat="45.944605" lon="8.760295"><ele>295.0</ele><time>2026-03-22T09:07:19.155Z</time></trkpt><trkpt lat="45.9446133" lon="8.7601617"><ele>295.0</ele><time>2026-03-22T09:07:20.155Z</time></trkpt><trkpt lat="45.94462" lon="8.7600317"><ele>296.4</ele><time>2026-03-22T09:07:21.155Z</time></trkpt><trkpt lat="45.9446417" lon="8.7598933"><ele>297.8</ele><time>2026-03-22T09:07:22.156Z</time></trkpt><trkpt lat="45.9446733" lon="8.7597533"><ele>299.2</ele><time>2026-03-22T09:07:23.155Z</time></trkpt><trkpt lat="45.944715" lon="8.7596167"><ele>300.6</ele><time>2026-03-22T09:07:24.155Z</time></trkpt><trkpt lat="45.9447583" lon="8.7594767"><ele>302.0</ele><time>2026-03-22T09:07:25.156Z</time></trkpt><trkpt lat="45.9447967" lon="8.7593433"><ele>302.0</ele><time>2026-03-22T09:07:26.155Z</time></trkpt><trkpt lat="45.9448167" lon="8.75921"><ele>302.0</ele><time>2026-03-22T09:07:27.156Z</time></trkpt><trkpt lat="45.944835" lon="8.7590383"><ele>302.0</ele><time>2026-03-22T09:07:28.155Z</time></trkpt><trkpt lat="45.9448433" lon="8.758875"><ele>302.0</ele><time>2026-03-22T09:07:29.155Z</time></trkpt><trkpt lat="45.94485" lon="8.7587417"><ele>302.0</ele><time>2026-03-22T09:07:30.155Z</time></trkpt><trkpt lat="45.944865" lon="8.7586367"><ele>302.8</ele><time>2026-03-22T09:07:31.155Z</time></trkpt><trkpt lat="45.9449" lon="8.7584833"><ele>303.6</ele><time>2026-03-22T09:07:33.155Z</time></trkpt><trkpt lat="45.9449883" lon="8.7584933"><ele>304.40000000000003</ele><time>2026-03-22T09:07:35.155Z</time></trkpt><trkpt lat="45.9450933" lon="8.7586067"><ele>305.2</ele><time>2026-03-22T09:07:37.155Z</time></trkpt><trkpt lat="45.9451717" lon="8.75871"><ele>306.0</ele><time>2026-03-22T09:07:38.155Z</time></trkpt><trkpt lat="45.9452467" lon="8.7588033"><ele>303.6</ele><time>2026-03-22T09:07:39.155Z</time></trkpt><trkpt lat="45.9453467" lon="8.7588833"><ele>301.20000000000005</ele><time>2026-03-22T09:07:40.155Z</time></trkpt><trkpt lat="45.945465" lon="8.7589367"><ele>298.79999999999995</ele><time>2026-03-22T09:07:41.155Z</time></trkpt><trkpt lat="45.945565" lon="8.7589783"><ele>296.4</ele><time>2026-03-22T09:07:42.156Z</time></trkpt><trkpt lat="45.9456483" lon="8.7590017"><ele>294.0</ele><time>2026-03-22T09:07:43.155Z</time></trkpt><trkpt lat="45.9457217" lon="8.75902"><ele>294.0</ele><time>2026-03-22T09:07:44.156Z</time></trkpt><trkpt lat="45.945795" lon="8.7590233"><ele>294.0</ele><time>2026-03-22T09:07:45.156Z</time></trkpt><trkpt lat="45.9458633" lon="8.7590083"><ele>294.0</ele><time>2026-03-22T09:07:46.155Z</time></trkpt><trkpt lat="45.94593" lon="8.7589833"><ele>294.0</ele><time>2026-03-22T09:07:47.156Z</time></trkpt><trkpt lat="45.946035" lon="8.7589083"><ele>294.0</ele><time>2026-03-22T09:07:49.155Z</time></trkpt><trkpt lat="45.94613" lon="8.7588067"><ele>294.0</ele><time>2026-03-22T09:07:51.156Z</time></trkpt><trkpt lat="45.9462067" lon="8.758695"><ele>290.8</ele><time>2026-03-22T09:07:53.155Z</time></trkpt><trkpt lat="45.9462683" lon="8.75858"><ele>287.59999999999997</ele><time>2026-03-22T09:07:55.155Z</time></trkpt><trkpt lat="45.9463183" lon="8.75847"><ele>284.4</ele><time>2026-03-22T09:07:57.155Z</time></trkpt><trkpt lat="45.94639" lon="8.7584017"><ele>281.2</ele><time>2026-03-22T09:07:59.155Z</time></trkpt><trkpt lat="45.946515" lon="8.7583483"><ele>278.0</ele><time>2026-03-22T09:08:01.155Z</time></trkpt><trkpt lat="45.9465867" lon="8.7583167"><ele>278.0</ele><time>2026-03-22T09:08:02.155Z</time></trkpt><trkpt lat="45.94666" lon="8.7582833"><ele>278.0</ele><time>2026-03-22T09:08:03.156Z</time></trkpt><trkpt lat="45.9467517" lon="8.758265"><ele>278.0</ele><time>2026-03-22T09:08:04.155Z</time></trkpt><trkpt lat="45.9468483" lon="8.758245"><ele>278.0</ele><time>2026-03-22T09:08:05.155Z</time></trkpt><trkpt lat="45.9469217" lon="8.7582183"><ele>278.0</ele><time>2026-03-22T09:08:06.155Z</time></trkpt><trkpt lat="45.94702" lon="8.7583"><ele>276.8</ele><time>2026-03-22T09:08:08.156Z</time></trkpt><trkpt lat="45.94707" lon="8.75838"><ele>275.6</ele><time>2026-03-22T09:08:09.155Z</time></trkpt><trkpt lat="45.947125" lon="8.75849"><ele>274.4</ele><time>2026-03-22T09:08:10.156Z</time></trkpt><trkpt lat="45.9471833" lon="8.7586167"><ele>273.2</ele><time>2026-03-22T09:08:11.155Z</time></trkpt><trkpt lat="45.9472467" lon="8.758725"><ele>272.0</ele><time>2026-03-22T09:08:12.155Z</time></trkpt><trkpt lat="45.947305" lon="8.7588233"><ele>271.6666666666667</ele><time>2026-03-22T09:08:13.156Z</time></trkpt><trkpt lat="45.94736" lon="8.7589167"><ele>271.33333333333337</ele><time>2026-03-22T09:08:14.155Z</time></trkpt><trkpt lat="45.947415" lon="8.758985"><ele>271.0</ele><time>2026-03-22T09:08:15.155Z</time></trkpt><trkpt lat="45.9474817" lon="8.7590033"><ele>270.6666666666667</ele><time>2026-03-22T09:08:16.155Z</time></trkpt><trkpt lat="45.9475533" lon="8.758985"><ele>270.3333333333333</ele><time>2026-03-22T09:08:17.156Z</time></trkpt><trkpt lat="45.9476167" lon="8.758955"><ele>270.0</ele><time>2026-03-22T09:08:18.155Z</time></trkpt><trkpt lat="45.94771" lon="8.7588767"><ele>270.0</ele><time>2026-03-22T09:08:20.155Z</time></trkpt><trkpt lat="45.9477733" lon="8.758805"><ele>270.0</ele><time>2026-03-22T09:10:36.155Z</time></trkpt><trkpt lat="45.9476833" lon="8.7588667"><ele>270.0</ele><time>2026-03-22T09:42:15.157Z</time></trkpt><trkpt lat="45.9476017" lon="8.7589183"><ele>270.0</ele><time>2026-03-22T09:42:17.157Z</time></trkpt><trkpt lat="45.9475283" lon="8.7589617"><ele>270.0</ele><time>2026-03-22T09:42:19.157Z</time></trkpt><trkpt lat="45.9474833" lon="8.7590883"><ele>270.0</ele><time>2026-03-22T09:42:21.157Z</time></trkpt><trkpt lat="45.9474783" lon="8.7591983"><ele>269.75</ele><time>2026-03-22T09:42:22.158Z</time></trkpt><trkpt lat="45.9474867" lon="8.7593367"><ele>269.5</ele><time>2026-03-22T09:42:23.157Z</time></trkpt><trkpt lat="45.9474983" lon="8.7595017"><ele>269.25</ele><time>2026-03-22T09:42:24.157Z</time></trkpt><trkpt lat="45.9475067" lon="8.759675"><ele>269.0</ele><time>2026-03-22T09:42:25.157Z</time></trkpt><trkpt lat="45.9475183" lon="8.759855"><ele>268.25</ele><time>2026-03-22T09:42:26.157Z</time></trkpt><trkpt lat="45.9475317" lon="8.7600383"><ele>267.5</ele><time>2026-03-22T09:42:27.158Z</time></trkpt><trkpt lat="45.9475417" lon="8.7602"><ele>266.75</ele><time>2026-03-22T09:42:28.157Z</time></trkpt><trkpt lat="45.9475417" lon="8.760355"><ele>266.0</ele><time>2026-03-22T09:42:29.157Z</time></trkpt><trkpt lat="45.9475183" lon="8.7605117"><ele>265.5</ele><time>2026-03-22T09:42:30.158Z</time></trkpt><trkpt lat="45.9474717" lon="8.7606583"><ele>265.0</ele><time>2026-03-22T09:42:31.157Z</time></trkpt><trkpt lat="45.947415" lon="8.7608067"><ele>264.5</ele><time>2026-03-22T09:42:32.157Z</time></trkpt><trkpt lat="45.947345" lon="8.76095"><ele>264.0</ele><time>2026-03-22T09:42:33.157Z</time></trkpt><trkpt lat="45.9472633" lon="8.7610983"><ele>263.0</ele><time>2026-03-22T09:42:34.157Z</time></trkpt><trkpt lat="45.9471867" lon="8.7612367"><ele>262.0</ele><time>2026-03-22T09:42:35.157Z</time></trkpt><trkpt lat="45.9471067" lon="8.76138"><ele>261.0</ele><time>2026-03-22T09:42:36.157Z</time></trkpt><trkpt lat="45.9470333" lon="8.7615083"><ele>260.0</ele><time>2026-03-22T09:42:37.157Z</time></trkpt><trkpt lat="45.946965" lon="8.7616417"><ele>260.0</ele><time>2026-03-22T09:42:38.158Z</time></trkpt><trkpt lat="45.9469" lon="8.7617667"><ele>260.0</ele><time>2026-03-22T09:42:39.158Z</time></trkpt><trkpt lat="45.9468667" lon="8.7619"><ele>260.0</ele><time>2026-03-22T09:42:40.158Z</time></trkpt><trkpt lat="45.9468567" lon="8.7620533"><ele>260.0</ele><time>2026-03-22T09:42:41.157Z</time></trkpt><trkpt lat="45.9468733" lon="8.7622117"><ele>260.0</ele><time>2026-03-22T09:42:42.157Z</time></trkpt><trkpt lat="45.9469067" lon="8.7623983"><ele>259.5</ele><time>2026-03-22T09:42:43.157Z</time></trkpt><trkpt lat="45.9469517" lon="8.76261"><ele>259.0</ele><time>2026-03-22T09:42:44.157Z</time></trkpt><trkpt lat="45.9469917" lon="8.7628117"><ele>258.5</ele><time>2026-03-22T09:42:45.157Z</time></trkpt><trkpt lat="45.9470233" lon="8.7630033"><ele>258.0</ele><time>2026-03-22T09:42:46.157Z</time></trkpt><trkpt lat="45.947055" lon="8.7631883"><ele>257.5</ele><time>2026-03-22T09:42:47.157Z</time></trkpt><trkpt lat="45.9470867" lon="8.7633583"><ele>257.0</ele><time>2026-03-22T09:42:48.157Z</time></trkpt><trkpt lat="45.9471183" lon="8.763525"><ele>256.5</ele><time>2026-03-22T09:42:49.157Z</time></trkpt><trkpt lat="45.94715" lon="8.76372"><ele>256.0</ele><time>2026-03-22T09:42:50.158Z</time></trkpt><trkpt lat="45.9471833" lon="8.7639133"><ele>254.66666666666666</ele><time>2026-03-22T09:42:51.157Z</time></trkpt><trkpt lat="45.94722" lon="8.7641283"><ele>253.33333333333331</ele><time>2026-03-22T09:42:52.157Z</time></trkpt><trkpt lat="45.947255" lon="8.7643383"><ele>252.0</ele><time>2026-03-22T09:42:53.157Z</time></trkpt><trkpt lat="45.94729" lon="8.7645517"><ele>251.25</ele><time>2026-03-22T09:42:54.157Z</time></trkpt><trkpt lat="45.947325" lon="8.7647533"><ele>250.5</ele><time>2026-03-22T09:42:55.158Z</time></trkpt><trkpt lat="45.94736" lon="8.7649433"><ele>249.75</ele><time>2026-03-22T09:42:56.157Z</time></trkpt><trkpt lat="45.9473933" lon="8.76512"><ele>249.0</ele><time>2026-03-22T09:42:57.157Z</time></trkpt><trkpt lat="45.9474233" lon="8.7653033"><ele>249.0</ele><time>2026-03-22T09:42:58.157Z</time></trkpt><trkpt lat="45.9474617" lon="8.7654983"><ele>249.0</ele><time>2026-03-22T09:42:59.158Z</time></trkpt><trkpt lat="45.9475" lon="8.7656883"><ele>249.0</ele><time>2026-03-22T09:43:00.157Z</time></trkpt><trkpt lat="45.9475333" lon="8.7658917"><ele>249.0</ele><time>2026-03-22T09:43:01.157Z</time></trkpt><trkpt lat="45.9475683" lon="8.766065"><ele>247.5</ele><time>2026-03-22T09:43:02.157Z</time></trkpt><trkpt lat="45.9476033" lon="8.766245"><ele>246.0</ele><time>2026-03-22T09:43:03.157Z</time></trkpt><trkpt lat="45.9476333" lon="8.766415"><ele>244.5</ele><time>2026-03-22T09:43:04.158Z</time></trkpt><trkpt lat="45.94766" lon="8.7665917"><ele>243.0</ele><time>2026-03-22T09:43:05.157Z</time></trkpt><trkpt lat="45.9476817" lon="8.766745"><ele>242.66666666666666</ele><time>2026-03-22T09:43:06.157Z</time></trkpt><trkpt lat="45.9477133" lon="8.7668817"><ele>242.33333333333331</ele><time>2026-03-22T09:43:07.157Z</time></trkpt><trkpt lat="45.9477317" lon="8.7670033"><ele>242.0</ele><time>2026-03-22T09:43:08.158Z</time></trkpt><trkpt lat="45.9477483" lon="8.7671"><ele>241.66666666666666</ele><time>2026-03-22T09:43:09.158Z</time></trkpt><trkpt lat="45.94777" lon="8.7671933"><ele>241.33333333333331</ele><time>2026-03-22T09:43:10.157Z</time></trkpt><trkpt lat="45.947785" lon="8.7672833"><ele>241.0</ele><time>2026-03-22T09:43:13.157Z</time></trkpt><trkpt lat="45.947795" lon="8.7674217"><ele>240.99999999999997</ele><time>2026-03-22T09:43:17.157Z</time></trkpt><trkpt lat="45.947845" lon="8.767535"><ele>241.0</ele><time>2026-03-22T09:43:19.157Z</time></trkpt><trkpt lat="45.9479533" lon="8.7675883"><ele>241.0</ele><time>2026-03-22T09:43:21.157Z</time></trkpt><trkpt lat="45.9480217" lon="8.7676117"><ele>241.0</ele><time>2026-03-22T09:43:22.157Z</time></trkpt><trkpt lat="45.9481033" lon="8.7676533"><ele>240.99999999999997</ele><time>2026-03-22T09:43:24.157Z</time></trkpt><trkpt lat="45.9481467" lon="8.7677283"><ele>241.0</ele><time>2026-03-22T09:43:26.157Z</time></trkpt><trkpt lat="45.9481667" lon="8.767835"><ele>240.20000000000002</ele><time>2026-03-22T09:43:30.158Z</time></trkpt><trkpt lat="45.9481733" lon="8.7679367"><ele>239.40000000000003</ele><time>2026-03-22T09:43:33.157Z</time></trkpt><trkpt lat="45.948195" lon="8.7680767"><ele>238.6</ele><time>2026-03-22T09:43:35.157Z</time></trkpt><trkpt lat="45.9482117" lon="8.768275"><ele>237.8</ele><time>2026-03-22T09:43:37.158Z</time></trkpt><trkpt lat="45.948215" lon="8.7684"><ele>237.0</ele><time>2026-03-22T09:43:38.157Z</time></trkpt><trkpt lat="45.9482267" lon="8.76855"><ele>236.25</ele><time>2026-03-22T09:43:39.157Z</time></trkpt><trkpt lat="45.9482367" lon="8.7687267"><ele>235.5</ele><time>2026-03-22T09:43:40.157Z</time></trkpt><trkpt lat="45.9482467" lon="8.7689083"><ele>234.75</ele><time>2026-03-22T09:43:41.158Z</time></trkpt><trkpt lat="45.9482583" lon="8.7690933"><ele>234.0</ele><time>2026-03-22T09:43:42.158Z</time></trkpt><trkpt lat="45.948275" lon="8.769275"><ele>234.2</ele><time>2026-03-22T09:43:43.158Z</time></trkpt><trkpt lat="45.94829" lon="8.7694367"><ele>234.39999999999998</ele><time>2026-03-22T09:43:44.157Z</time></trkpt><trkpt lat="45.948305" lon="8.7695817"><ele>234.6</ele><time>2026-03-22T09:43:45.157Z</time></trkpt><trkpt lat="45.9483133" lon="8.7697033"><ele>234.8</ele><time>2026-03-22T09:43:46.157Z</time></trkpt><trkpt lat="45.9483183" lon="8.7698133"><ele>235.0</ele><time>2026-03-22T09:43:47.158Z</time></trkpt><trkpt lat="45.94832" lon="8.76992"><ele>234.99999999999997</ele><time>2026-03-22T09:43:48.157Z</time></trkpt><trkpt lat="45.9483183" lon="8.770015"><ele>235.0</ele><time>2026-03-22T09:43:49.157Z</time></trkpt><trkpt lat="45.9483267" lon="8.7701533"><ele>235.0</ele><time>2026-03-22T09:43:51.157Z</time></trkpt><trkpt lat="45.9482517" lon="8.770145"><ele>235.0</ele><time>2026-03-22T09:43:55.157Z</time></trkpt><trkpt lat="45.9482133" lon="8.76997"><ele>234.99999999999997</ele><time>2026-03-22T09:43:57.157Z</time></trkpt><trkpt lat="45.9481817" lon="8.76989"><ele>235.0</ele><time>2026-03-22T09:43:58.157Z</time></trkpt><trkpt lat="45.9480933" lon="8.76981"><ele>235.0</ele><time>2026-03-22T09:44:00.157Z</time></trkpt><trkpt lat="45.9480267" lon="8.7698067"><ele>235.0</ele><time>2026-03-22T09:44:01.157Z</time></trkpt><trkpt lat="45.9479383" lon="8.7698183"><ele>235.0</ele><time>2026-03-22T09:44:02.158Z</time></trkpt><trkpt lat="45.9478267" lon="8.7698367"><ele>235.0</ele><time>2026-03-22T09:44:03.158Z</time></trkpt><trkpt lat="45.947695" lon="8.76986"><ele>235.0</ele><time>2026-03-22T09:44:04.158Z</time></trkpt><trkpt lat="45.9475517" lon="8.769885"><ele>234.75</ele><time>2026-03-22T09:44:05.158Z</time></trkpt><trkpt lat="45.94741" lon="8.76991"><ele>234.5</ele><time>2026-03-22T09:44:06.157Z</time></trkpt><trkpt lat="45.947285" lon="8.7699317"><ele>234.25</ele><time>2026-03-22T09:44:07.157Z</time></trkpt><trkpt lat="45.9471783" lon="8.7699583"><ele>234.0</ele><time>2026-03-22T09:44:08.157Z</time></trkpt><trkpt lat="45.9470783" lon="8.7699833"><ele>234.0</ele><time>2026-03-22T09:44:09.157Z</time></trkpt><trkpt lat="45.946975" lon="8.7700167"><ele>234.0</ele><time>2026-03-22T09:44:10.157Z</time></trkpt><trkpt lat="45.9468733" lon="8.770035"><ele>234.0</ele><time>2026-03-22T09:44:11.158Z</time></trkpt><trkpt lat="45.9467567" lon="8.77005"><ele>234.0</ele><time>2026-03-22T09:44:12.157Z</time></trkpt><trkpt lat="45.9466333" lon="8.770075"><ele>234.5</ele><time>2026-03-22T09:44:13.157Z</time></trkpt><trkpt lat="45.94651" lon="8.7701167"><ele>235.0</ele><time>2026-03-22T09:44:14.158Z</time></trkpt><trkpt lat="45.9463967" lon="8.7701683"><ele>235.5</ele><time>2026-03-22T09:44:15.157Z</time></trkpt><trkpt lat="45.9462933" lon="8.7702433"><ele>236.0</ele><time>2026-03-22T09:44:16.157Z</time></trkpt><trkpt lat="45.9462017" lon="8.7703333"><ele>236.0</ele><time>2026-03-22T09:44:17.157Z</time></trkpt><trkpt lat="45.9461033" lon="8.7704517"><ele>236.0</ele><time>2026-03-22T09:44:18.157Z</time></trkpt><trkpt lat="45.9460133" lon="8.77059"><ele>236.0</ele><time>2026-03-22T09:44:19.157Z</time></trkpt><trkpt lat="45.945935" lon="8.7707183"><ele>236.0</ele><time>2026-03-22T09:44:20.157Z</time></trkpt><trkpt lat="45.94587" lon="8.77082"><ele>236.20000000000002</ele><time>2026-03-22T09:44:21.157Z</time></trkpt><trkpt lat="45.9458083" lon="8.7709183"><ele>236.40000000000003</ele><time>2026-03-22T09:44:22.158Z</time></trkpt><trkpt lat="45.945765" lon="8.7710117"><ele>236.6</ele><time>2026-03-22T09:44:23.157Z</time></trkpt><trkpt lat="45.9456833" lon="8.771135"><ele>236.8</ele><time>2026-03-22T09:44:25.158Z</time></trkpt><trkpt lat="45.9456133" lon="8.771255"><ele>237.0</ele><time>2026-03-22T09:44:27.158Z</time></trkpt><trkpt lat="45.9455667" lon="8.7713167"><ele>236.66666666666666</ele><time>2026-03-22T09:44:28.158Z</time></trkpt><trkpt lat="45.9455183" lon="8.7713917"><ele>236.33333333333331</ele><time>2026-03-22T09:44:29.157Z</time></trkpt><trkpt lat="45.9454617" lon="8.7714783"><ele>236.0</ele><time>2026-03-22T09:44:30.157Z</time></trkpt><trkpt lat="45.9454083" lon="8.7715783"><ele>235.66666666666666</ele><time>2026-03-22T09:44:31.158Z</time></trkpt><trkpt lat="45.9453533" lon="8.7716867"><ele>235.33333333333331</ele><time>2026-03-22T09:44:32.157Z</time></trkpt><trkpt lat="45.9452933" lon="8.7718167"><ele>235.0</ele><time>2026-03-22T09:44:33.157Z</time></trkpt><trkpt lat="45.945235" lon="8.7719317"><ele>234.99999999999997</ele><time>2026-03-22T09:44:34.157Z</time></trkpt><trkpt lat="45.9451867" lon="8.7720383"><ele>235.0</ele><time>2026-03-22T09:44:35.157Z</time></trkpt><trkpt lat="45.9451483" lon="8.77212"><ele>235.0</ele><time>2026-03-22T09:44:36.157Z</time></trkpt><trkpt lat="45.945125" lon="8.7722067"><ele>235.0</ele><time>2026-03-22T09:44:37.157Z</time></trkpt><trkpt lat="45.9451117" lon="8.7722967"><ele>234.99999999999997</ele><time>2026-03-22T09:44:38.158Z</time></trkpt><trkpt lat="45.945105" lon="8.7724167"><ele>235.0</ele><time>2026-03-22T09:44:40.157Z</time></trkpt><trkpt lat="45.9450517" lon="8.7725133"><ele>235.6</ele><time>2026-03-22T09:44:42.157Z</time></trkpt><trkpt lat="45.9449233" lon="8.7725933"><ele>236.2</ele><time>2026-03-22T09:44:44.158Z</time></trkpt><trkpt lat="45.944845" lon="8.772655"><ele>236.8</ele><time>2026-03-22T09:44:45.157Z</time></trkpt><trkpt lat="45.94477" lon="8.772745"><ele>237.4</ele><time>2026-03-22T09:44:46.157Z</time></trkpt><trkpt lat="45.9446817" lon="8.7728567"><ele>238.0</ele><time>2026-03-22T09:44:47.157Z</time></trkpt><trkpt lat="45.9445683" lon="8.7730067"><ele>238.33333333333331</ele><time>2026-03-22T09:44:48.158Z</time></trkpt><trkpt lat="45.9444333" lon="8.773185"><ele>238.66666666666669</ele><time>2026-03-22T09:44:49.157Z</time></trkpt><trkpt lat="45.9442867" lon="8.7733517"><ele>239.0</ele><time>2026-03-22T09:44:50.157Z</time></trkpt><trkpt lat="45.944165" lon="8.773505"><ele>239.66666666666669</ele><time>2026-03-22T09:44:51.158Z</time></trkpt><trkpt lat="45.9440433" lon="8.7736333"><ele>240.33333333333331</ele><time>2026-03-22T09:44:52.157Z</time></trkpt><trkpt lat="45.9439083" lon="8.77376"><ele>241.0</ele><time>2026-03-22T09:44:53.157Z</time></trkpt><trkpt lat="45.9437733" lon="8.7738733"><ele>241.0</ele><time>2026-03-22T09:44:54.158Z</time></trkpt><trkpt lat="45.9436517" lon="8.7739567"><ele>241.0</ele><time>2026-03-22T09:44:55.157Z</time></trkpt><trkpt lat="45.9435383" lon="8.774035"><ele>241.0</ele><time>2026-03-22T09:44:56.157Z</time></trkpt><trkpt lat="45.943425" lon="8.774115"><ele>241.0</ele><time>2026-03-22T09:44:57.158Z</time></trkpt><trkpt lat="45.9433083" lon="8.7741783"><ele>239.33333333333331</ele><time>2026-03-22T09:44:58.157Z</time></trkpt><trkpt lat="45.9431683" lon="8.7742433"><ele>237.66666666666669</ele><time>2026-03-22T09:44:59.157Z</time></trkpt><trkpt lat="45.9430233" lon="8.774295"><ele>236.0</ele><time>2026-03-22T09:45:00.157Z</time></trkpt><trkpt lat="45.9428667" lon="8.7743567"><ele>236.0</ele><time>2026-03-22T09:45:01.158Z</time></trkpt><trkpt lat="45.9426917" lon="8.7744217"><ele>236.0</ele><time>2026-03-22T09:45:02.157Z</time></trkpt><trkpt lat="45.9424983" lon="8.774495"><ele>236.0</ele><time>2026-03-22T09:45:03.157Z</time></trkpt><trkpt lat="45.94233" lon="8.7745517"><ele>237.0</ele><time>2026-03-22T09:45:04.158Z</time></trkpt><trkpt lat="45.9421717" lon="8.7746083"><ele>238.0</ele><time>2026-03-22T09:45:05.157Z</time></trkpt><trkpt lat="45.94201" lon="8.7746583"><ele>239.0</ele><time>2026-03-22T09:45:06.158Z</time></trkpt><trkpt lat="45.9418633" lon="8.77472"><ele>239.0</ele><time>2026-03-22T09:45:07.157Z</time></trkpt><trkpt lat="45.9417333" lon="8.7747783"><ele>239.0</ele><time>2026-03-22T09:45:08.157Z</time></trkpt><trkpt lat="45.941605" lon="8.7748233"><ele>239.0</ele><time>2026-03-22T09:45:09.157Z</time></trkpt><trkpt lat="45.9414683" lon="8.7748633"><ele>239.0</ele><time>2026-03-22T09:45:10.158Z</time></trkpt><trkpt lat="45.941335" lon="8.774905"><ele>238.75</ele><time>2026-03-22T09:45:11.157Z</time></trkpt><trkpt lat="45.9412083" lon="8.77495"><ele>238.5</ele><time>2026-03-22T09:45:12.157Z</time></trkpt><trkpt lat="45.9410717" lon="8.7749917"><ele>238.25</ele><time>2026-03-22T09:45:13.157Z</time></trkpt><trkpt lat="45.9409433" lon="8.7750283"><ele>238.0</ele><time>2026-03-22T09:45:14.157Z</time></trkpt><trkpt lat="45.9408233" lon="8.775065"><ele>237.8</ele><time>2026-03-22T09:45:15.157Z</time></trkpt><trkpt lat="45.9407167" lon="8.7751017"><ele>237.60000000000002</ele><time>2026-03-22T09:45:16.157Z</time></trkpt><trkpt lat="45.9406083" lon="8.775145"><ele>237.39999999999998</ele><time>2026-03-22T09:45:17.157Z</time></trkpt><trkpt lat="45.9405" lon="8.7751833"><ele>237.2</ele><time>2026-03-22T09:45:18.157Z</time></trkpt><trkpt lat="45.9403933" lon="8.7752467"><ele>237.0</ele><time>2026-03-22T09:45:19.157Z</time></trkpt><trkpt lat="45.94029" lon="8.775295"><ele>237.0</ele><time>2026-03-22T09:45:20.158Z</time></trkpt><trkpt lat="45.940185" lon="8.77533"><ele>237.0</ele><time>2026-03-22T09:45:21.157Z</time></trkpt><trkpt lat="45.940075" lon="8.77536"><ele>237.0</ele><time>2026-03-22T09:45:22.157Z</time></trkpt><trkpt lat="45.9399733" lon="8.77539"><ele>237.0</ele><time>2026-03-22T09:45:23.157Z</time></trkpt><trkpt lat="45.9398733" lon="8.775415"><ele>237.0</ele><time>2026-03-22T09:45:24.157Z</time></trkpt><trkpt lat="45.9397717" lon="8.775445"><ele>237.5</ele><time>2026-03-22T09:45:25.157Z</time></trkpt><trkpt lat="45.9396717" lon="8.7754717"><ele>238.0</ele><time>2026-03-22T09:45:26.157Z</time></trkpt><trkpt lat="45.9395783" lon="8.7755017"><ele>238.5</ele><time>2026-03-22T09:45:27.157Z</time></trkpt><trkpt lat="45.9394917" lon="8.775525"><ele>239.0</ele><time>2026-03-22T09:45:28.157Z</time></trkpt><trkpt lat="45.93941" lon="8.7755483"><ele>239.5</ele><time>2026-03-22T09:45:29.157Z</time></trkpt><trkpt lat="45.939335" lon="8.775575"><ele>240.0</ele><time>2026-03-22T09:45:30.157Z</time></trkpt><trkpt lat="45.9392667" lon="8.7755967"><ele>240.57142857142858</ele><time>2026-03-22T09:45:31.157Z</time></trkpt><trkpt lat="45.9391983" lon="8.7756183"><ele>241.1428571428571</ele><time>2026-03-22T09:45:32.157Z</time></trkpt><trkpt lat="45.9391317" lon="8.77564"><ele>241.7142857142857</ele><time>2026-03-22T09:45:33.157Z</time></trkpt><trkpt lat="45.939065" lon="8.77566"><ele>242.28571428571428</ele><time>2026-03-22T09:45:34.158Z</time></trkpt><trkpt lat="45.9390033" lon="8.77569"><ele>242.85714285714283</ele><time>2026-03-22T09:45:35.157Z</time></trkpt><trkpt lat="45.9389383" lon="8.775715"><ele>243.4285714285714</ele><time>2026-03-22T09:45:36.158Z</time></trkpt><trkpt lat="45.938865" lon="8.7757433"><ele>243.99999999999997</ele><time>2026-03-22T09:45:37.157Z</time></trkpt><trkpt lat="45.9387817" lon="8.7757833"><ele>244.0</ele><time>2026-03-22T09:45:38.158Z</time></trkpt><trkpt lat="45.9386867" lon="8.7758067"><ele>244.0</ele><time>2026-03-22T09:45:39.157Z</time></trkpt><trkpt lat="45.938575" lon="8.775835"><ele>244.0</ele><time>2026-03-22T09:45:40.158Z</time></trkpt><trkpt lat="45.9384533" lon="8.7758733"><ele>244.0</ele><time>2026-03-22T09:45:41.157Z</time></trkpt><trkpt lat="45.9383283" lon="8.7759233"><ele>244.0</ele><time>2026-03-22T09:45:42.157Z</time></trkpt><trkpt lat="45.9381983" lon="8.7759717"><ele>244.0</ele><time>2026-03-22T09:45:43.158Z</time></trkpt><trkpt lat="45.9380583" lon="8.7760233"><ele>244.0</ele><time>2026-03-22T09:45:44.157Z</time></trkpt><trkpt lat="45.9379217" lon="8.7760817"><ele>244.0</ele><time>2026-03-22T09:45:45.157Z</time></trkpt><trkpt lat="45.93777" lon="8.7761467"><ele>244.0</ele><time>2026-03-22T09:45:46.157Z</time></trkpt><trkpt lat="45.9376133" lon="8.7762017"><ele>244.0</ele><time>2026-03-22T09:45:47.158Z</time></trkpt><trkpt lat="45.9374633" lon="8.7762483"><ele>244.0</ele><time>2026-03-22T09:45:48.157Z</time></trkpt><trkpt lat="45.9373317" lon="8.7762917"><ele>243.25</ele><time>2026-03-22T09:45:49.157Z</time></trkpt><trkpt lat="45.9372083" lon="8.7763267"><ele>242.5</ele><time>2026-03-22T09:45:50.157Z</time></trkpt><trkpt lat="45.93709" lon="8.7763617"><ele>241.75</ele><time>2026-03-22T09:45:51.157Z</time></trkpt><trkpt lat="45.93698" lon="8.776405"><ele>241.0</ele><time>2026-03-22T09:45:52.157Z</time></trkpt><trkpt lat="45.93686" lon="8.7764417"><ele>241.0</ele><time>2026-03-22T09:45:53.158Z</time></trkpt><trkpt lat="45.9367333" lon="8.776485"><ele>241.0</ele><time>2026-03-22T09:45:54.158Z</time></trkpt><trkpt lat="45.9366117" lon="8.7765267"><ele>241.0</ele><time>2026-03-22T09:45:55.158Z</time></trkpt><trkpt lat="45.9364917" lon="8.776565"><ele>241.0</ele><time>2026-03-22T09:45:56.158Z</time></trkpt><trkpt lat="45.9363767" lon="8.77661"><ele>241.0</ele><time>2026-03-22T09:45:57.159Z</time></trkpt><trkpt lat="45.93624" lon="8.7766533"><ele>241.0</ele><time>2026-03-22T09:45:58.159Z</time></trkpt><trkpt lat="45.9360817" lon="8.7767"><ele>241.0</ele><time>2026-03-22T09:45:59.158Z</time></trkpt><trkpt lat="45.9359033" lon="8.776765"><ele>241.33333333333331</ele><time>2026-03-22T09:46:00.158Z</time></trkpt><trkpt lat="45.9357233" lon="8.7768183"><ele>241.66666666666669</ele><time>2026-03-22T09:46:01.158Z</time></trkpt><trkpt lat="45.93556" lon="8.77688"><ele>242.0</ele><time>2026-03-22T09:46:02.158Z</time></trkpt><trkpt lat="45.9354" lon="8.7769367"><ele>242.0</ele><time>2026-03-22T09:46:03.158Z</time></trkpt><trkpt lat="45.9352533" lon="8.777"><ele>242.0</ele><time>2026-03-22T09:46:04.158Z</time></trkpt><trkpt lat="45.9351033" lon="8.777045"><ele>242.0</ele><time>2026-03-22T09:46:05.158Z</time></trkpt><trkpt lat="45.9349567" lon="8.777095"><ele>242.0</ele><time>2026-03-22T09:46:06.159Z</time></trkpt><trkpt lat="45.93481" lon="8.777135"><ele>242.0</ele><time>2026-03-22T09:46:07.158Z</time></trkpt><trkpt lat="45.93466" lon="8.777195"><ele>242.0</ele><time>2026-03-22T09:46:08.158Z</time></trkpt><trkpt lat="45.9345033" lon="8.7772317"><ele>242.0</ele><time>2026-03-22T09:46:09.158Z</time></trkpt><trkpt lat="45.9343483" lon="8.7772867"><ele>242.0</ele><time>2026-03-22T09:46:10.158Z</time></trkpt><trkpt lat="45.9342067" lon="8.7773317"><ele>242.0</ele><time>2026-03-22T09:46:11.159Z</time></trkpt><trkpt lat="45.934065" lon="8.7773783"><ele>242.0</ele><time>2026-03-22T09:46:12.158Z</time></trkpt><trkpt lat="45.9339367" lon="8.7774217"><ele>242.0</ele><time>2026-03-22T09:46:13.158Z</time></trkpt><trkpt lat="45.9338183" lon="8.7774633"><ele>242.0</ele><time>2026-03-22T09:46:14.158Z</time></trkpt><trkpt lat="45.9337017" lon="8.7775"><ele>242.0</ele><time>2026-03-22T09:46:15.158Z</time></trkpt><trkpt lat="45.93359" lon="8.7775367"><ele>242.00000000000003</ele><time>2026-03-22T09:46:16.158Z</time></trkpt><trkpt lat="45.9334917" lon="8.777575"><ele>242.0</ele><time>2026-03-22T09:46:17.158Z</time></trkpt><trkpt lat="45.93341" lon="8.77761"><ele>242.0</ele><time>2026-03-22T09:46:18.158Z</time></trkpt><trkpt lat="45.9333383" lon="8.7776433"><ele>242.0</ele><time>2026-03-22T09:46:19.158Z</time></trkpt><trkpt lat="45.9332667" lon="8.7776733"><ele>242.00000000000003</ele><time>2026-03-22T09:46:20.158Z</time></trkpt><trkpt lat="45.9332033" lon="8.7776983"><ele>242.0</ele><time>2026-03-22T09:46:21.158Z</time></trkpt><trkpt lat="45.933125" lon="8.7777467"><ele>242.39999999999998</ele><time>2026-03-22T09:46:23.159Z</time></trkpt><trkpt lat="45.9330717" lon="8.777835"><ele>242.79999999999998</ele><time>2026-03-22T09:46:26.159Z</time></trkpt><trkpt lat="45.9330517" lon="8.7780217"><ele>243.2</ele><time>2026-03-22T09:46:28.158Z</time></trkpt><trkpt lat="45.9330383" lon="8.778175"><ele>243.6</ele><time>2026-03-22T09:46:29.158Z</time></trkpt><trkpt lat="45.933025" lon="8.7783517"><ele>244.0</ele><time>2026-03-22T09:46:30.158Z</time></trkpt><trkpt lat="45.9330133" lon="8.7785283"><ele>244.25</ele><time>2026-03-22T09:46:31.158Z</time></trkpt><trkpt lat="45.9329933" lon="8.7787017"><ele>244.5</ele><time>2026-03-22T09:46:32.158Z</time></trkpt><trkpt lat="45.9329783" lon="8.778895"><ele>244.75</ele><time>2026-03-22T09:46:33.158Z</time></trkpt><trkpt lat="45.9329617" lon="8.779105"><ele>245.0</ele><time>2026-03-22T09:46:34.158Z</time></trkpt><trkpt lat="45.932945" lon="8.7792933"><ele>246.2</ele><time>2026-03-22T09:46:35.158Z</time></trkpt><trkpt lat="45.9329317" lon="8.7794667"><ele>247.4</ele><time>2026-03-22T09:46:36.158Z</time></trkpt><trkpt lat="45.9329183" lon="8.77962"><ele>248.60000000000002</ele><time>2026-03-22T09:46:37.159Z</time></trkpt><trkpt lat="45.9329133" lon="8.779755"><ele>249.8</ele><time>2026-03-22T09:46:38.158Z</time></trkpt><trkpt lat="45.932895" lon="8.7798633"><ele>251.0</ele><time>2026-03-22T09:46:39.158Z</time></trkpt><trkpt lat="45.9328667" lon="8.7799533"><ele>251.0</ele><time>2026-03-22T09:46:40.159Z</time></trkpt><trkpt lat="45.932815" lon="8.7800133"><ele>251.00000000000003</ele><time>2026-03-22T09:46:41.158Z</time></trkpt><trkpt lat="45.9327283" lon="8.780045"><ele>251.00000000000003</ele><time>2026-03-22T09:46:42.158Z</time></trkpt><trkpt lat="45.9326067" lon="8.7800483"><ele>251.0</ele><time>2026-03-22T09:46:43.158Z</time></trkpt><trkpt lat="45.9324883" lon="8.7800767"><ele>251.0</ele><time>2026-03-22T09:46:44.159Z</time></trkpt><trkpt lat="45.932385" lon="8.7801433"><ele>251.0</ele><time>2026-03-22T09:46:45.158Z</time></trkpt><trkpt lat="45.9322817" lon="8.780255"><ele>251.0</ele><time>2026-03-22T09:46:46.159Z</time></trkpt><trkpt lat="45.9321917" lon="8.7804017"><ele>251.0</ele><time>2026-03-22T09:46:47.158Z</time></trkpt><trkpt lat="45.9321233" lon="8.7805683"><ele>251.0</ele><time>2026-03-22T09:46:48.158Z</time></trkpt><trkpt lat="45.9320667" lon="8.78072"><ele>251.0</ele><time>2026-03-22T09:46:49.158Z</time></trkpt><trkpt lat="45.9320183" lon="8.7808567"><ele>251.00000000000003</ele><time>2026-03-22T09:46:50.158Z</time></trkpt><trkpt lat="45.9319717" lon="8.7809633"><ele>251.00000000000003</ele><time>2026-03-22T09:46:51.158Z</time></trkpt><trkpt lat="45.931915" lon="8.7810633"><ele>251.0</ele><time>2026-03-22T09:46:52.158Z</time></trkpt><trkpt lat="45.9318433" lon="8.78116"><ele>251.0</ele><time>2026-03-22T09:46:53.158Z</time></trkpt><trkpt lat="45.9317483" lon="8.78125"><ele>252.0</ele><time>2026-03-22T09:46:54.158Z</time></trkpt><trkpt lat="45.9316383" lon="8.781325"><ele>253.0</ele><time>2026-03-22T09:46:55.158Z</time></trkpt><trkpt lat="45.93152" lon="8.7813717"><ele>254.0</ele><time>2026-03-22T09:46:56.159Z</time></trkpt><trkpt lat="45.9314133" lon="8.7814367"><ele>255.0</ele><time>2026-03-22T09:46:57.158Z</time></trkpt><trkpt lat="45.9313233" lon="8.78147"><ele>255.0</ele><time>2026-03-22T09:46:58.158Z</time></trkpt><trkpt lat="45.93125" lon="8.7814967"><ele>255.0</ele><time>2026-03-22T09:46:59.159Z</time></trkpt><trkpt lat="45.93115" lon="8.781545"><ele>255.0</ele><time>2026-03-22T09:47:01.159Z</time></trkpt><trkpt lat="45.9310717" lon="8.78155"><ele>255.0</ele><time>2026-03-22T09:47:03.159Z</time></trkpt><trkpt lat="45.9310017" lon="8.781445"><ele>255.0</ele><time>2026-03-22T09:47:05.158Z</time></trkpt><trkpt lat="45.9309617" lon="8.7813217"><ele>255.0</ele><time>2026-03-22T09:47:06.159Z</time></trkpt><trkpt lat="45.9308967" lon="8.781155"><ele>255.0</ele><time>2026-03-22T09:47:07.158Z</time></trkpt><trkpt lat="45.930815" lon="8.780975"><ele>255.0</ele><time>2026-03-22T09:47:08.158Z</time></trkpt><trkpt lat="45.9307367" lon="8.7807817"><ele>255.0</ele><time>2026-03-22T09:47:09.159Z</time></trkpt><trkpt lat="45.9306533" lon="8.780575"><ele>254.66666666666669</ele><time>2026-03-22T09:47:10.158Z</time></trkpt><trkpt lat="45.9305717" lon="8.7803517"><ele>254.33333333333334</ele><time>2026-03-22T09:47:11.159Z</time></trkpt><trkpt lat="45.9305083" lon="8.7801267"><ele>254.0</ele><time>2026-03-22T09:47:12.158Z</time></trkpt><trkpt lat="45.93045" lon="8.7798983"><ele>251.66666666666669</ele><time>2026-03-22T09:47:13.159Z</time></trkpt><trkpt lat="45.930405" lon="8.7796683"><ele>249.33333333333331</ele><time>2026-03-22T09:47:14.159Z</time></trkpt><trkpt lat="45.9303617" lon="8.77944"><ele>247.0</ele><time>2026-03-22T09:47:15.158Z</time></trkpt><trkpt lat="45.9303183" lon="8.7792367"><ele>246.25</ele><time>2026-03-22T09:47:16.158Z</time></trkpt><trkpt lat="45.9302833" lon="8.7790417"><ele>245.5</ele><time>2026-03-22T09:47:17.159Z</time></trkpt><trkpt lat="45.93025" lon="8.77886"><ele>244.75</ele><time>2026-03-22T09:47:18.159Z</time></trkpt><trkpt lat="45.930215" lon="8.778695"><ele>244.0</ele><time>2026-03-22T09:47:19.158Z</time></trkpt><trkpt lat="45.9301883" lon="8.7785417"><ele>243.83333333333331</ele><time>2026-03-22T09:47:20.158Z</time></trkpt><trkpt lat="45.9301583" lon="8.7784117"><ele>243.66666666666666</ele><time>2026-03-22T09:47:21.159Z</time></trkpt><trkpt lat="45.9301317" lon="8.7783017"><ele>243.5</ele><time>2026-03-22T09:47:22.158Z</time></trkpt><trkpt lat="45.93011" lon="8.7782167"><ele>243.33333333333331</ele><time>2026-03-22T09:47:23.158Z</time></trkpt><trkpt lat="45.9300567" lon="8.7781117"><ele>243.16666666666666</ele><time>2026-03-22T09:47:25.158Z</time></trkpt><trkpt lat="45.9299917" lon="8.77815"><ele>243.0</ele><time>2026-03-22T09:47:27.158Z</time></trkpt><trkpt lat="45.9299433" lon="8.7782183"><ele>244.4</ele><time>2026-03-22T09:47:28.158Z</time></trkpt><trkpt lat="45.9298883" lon="8.7783133"><ele>245.8</ele><time>2026-03-22T09:47:29.158Z</time></trkpt><trkpt lat="45.929825" lon="8.77843"><ele>247.2</ele><time>2026-03-22T09:47:30.158Z</time></trkpt><trkpt lat="45.9297483" lon="8.7785617"><ele>248.6</ele><time>2026-03-22T09:47:31.158Z</time></trkpt><trkpt lat="45.92967" lon="8.7787033"><ele>250.0</ele><time>2026-03-22T09:47:32.158Z</time></trkpt><trkpt lat="45.929585" lon="8.7788517"><ele>250.75</ele><time>2026-03-22T09:47:33.158Z</time></trkpt><trkpt lat="45.9295067" lon="8.7790083"><ele>251.5</ele><time>2026-03-22T09:47:34.158Z</time></trkpt><trkpt lat="45.9294317" lon="8.7791367"><ele>252.25</ele><time>2026-03-22T09:47:35.158Z</time></trkpt><trkpt lat="45.929355" lon="8.7792633"><ele>253.0</ele><time>2026-03-22T09:47:36.158Z</time></trkpt><trkpt lat="45.9292833" lon="8.7793833"><ele>256.8</ele><time>2026-03-22T09:47:37.158Z</time></trkpt><trkpt lat="45.9292217" lon="8.7795033"><ele>260.6</ele><time>2026-03-22T09:47:38.158Z</time></trkpt><trkpt lat="45.9291717" lon="8.77962"><ele>264.4</ele><time>2026-03-22T09:47:39.158Z</time></trkpt><trkpt lat="45.9291183" lon="8.7797417"><ele>268.2</ele><time>2026-03-22T09:47:40.159Z</time></trkpt><trkpt lat="45.9290683" lon="8.779875"><ele>272.0</ele><time>2026-03-22T09:47:41.158Z</time></trkpt><trkpt lat="45.9290167" lon="8.779965"><ele>272.0</ele><time>2026-03-22T09:47:42.158Z</time></trkpt><trkpt lat="45.9289633" lon="8.7800383"><ele>272.0</ele><time>2026-03-22T09:47:43.158Z</time></trkpt><trkpt lat="45.9289083" lon="8.7800917"><ele>272.0</ele><time>2026-03-22T09:47:44.158Z</time></trkpt><trkpt lat="45.9288033" lon="8.7801267"><ele>272.0</ele><time>2026-03-22T09:47:46.158Z</time></trkpt><trkpt lat="45.928705" lon="8.7800883"><ele>272.0</ele><time>2026-03-22T09:47:48.158Z</time></trkpt><trkpt lat="45.9285917" lon="8.780025"><ele>272.0</ele><time>2026-03-22T09:47:50.158Z</time></trkpt><trkpt lat="45.9284917" lon="8.7800833"><ele>272.0</ele><time>2026-03-22T09:47:52.159Z</time></trkpt><trkpt lat="45.9284517" lon="8.7801783"><ele>272.0</ele><time>2026-03-22T09:47:53.158Z</time></trkpt><trkpt lat="45.9284067" lon="8.78026"><ele>272.0</ele><time>2026-03-22T09:47:54.158Z</time></trkpt><trkpt lat="45.92836" lon="8.7804033"><ele>272.0</ele><time>2026-03-22T09:47:56.158Z</time></trkpt><trkpt lat="45.92838" lon="8.7805533"><ele>274.0</ele><time>2026-03-22T09:47:58.159Z</time></trkpt><trkpt lat="45.9284383" lon="8.7807383"><ele>276.0</ele><time>2026-03-22T09:48:00.159Z</time></trkpt><trkpt lat="45.9284783" lon="8.7808367"><ele>278.0</ele><time>2026-03-22T09:48:01.158Z</time></trkpt><trkpt lat="45.92852" lon="8.7809267"><ele>280.0</ele><time>2026-03-22T09:48:02.158Z</time></trkpt><trkpt lat="45.928575" lon="8.781065"><ele>282.0</ele><time>2026-03-22T09:48:04.159Z</time></trkpt><trkpt lat="45.928595" lon="8.7811517"><ele>282.8333333333333</ele><time>2026-03-22T09:48:07.158Z</time></trkpt><trkpt lat="45.92858" lon="8.781255"><ele>283.6666666666667</ele><time>2026-03-22T09:48:10.158Z</time></trkpt><trkpt lat="45.9285083" lon="8.7814017"><ele>284.5</ele><time>2026-03-22T09:48:12.158Z</time></trkpt><trkpt lat="45.9284583" lon="8.7814767"><ele>285.33333333333337</ele><time>2026-03-22T09:48:13.158Z</time></trkpt><trkpt lat="45.9284133" lon="8.7815467"><ele>286.1666666666667</ele><time>2026-03-22T09:48:14.158Z</time></trkpt><trkpt lat="45.9283717" lon="8.7816333"><ele>287.0</ele><time>2026-03-22T09:48:15.158Z</time></trkpt><trkpt lat="45.9283433" lon="8.781725"><ele>287.33333333333337</ele><time>2026-03-22T09:48:16.158Z</time></trkpt><trkpt lat="45.9283083" lon="8.781825"><ele>287.6666666666667</ele><time>2026-03-22T09:48:17.158Z</time></trkpt><trkpt lat="45.9282683" lon="8.7819417"><ele>288.0</ele><time>2026-03-22T09:48:18.158Z</time></trkpt><trkpt lat="45.9282317" lon="8.782065"><ele>288.3333333333333</ele><time>2026-03-22T09:48:19.158Z</time></trkpt><trkpt lat="45.9281967" lon="8.782185"><ele>288.66666666666663</ele><time>2026-03-22T09:48:20.158Z</time></trkpt><trkpt lat="45.928165" lon="8.7823167"><ele>289.0</ele><time>2026-03-22T09:48:21.158Z</time></trkpt><trkpt lat="45.92814" lon="8.7824317"><ele>289.66666666666663</ele><time>2026-03-22T09:48:22.158Z</time></trkpt><trkpt lat="45.9281233" lon="8.7825367"><ele>290.3333333333333</ele><time>2026-03-22T09:48:23.158Z</time></trkpt><trkpt lat="45.9280883" lon="8.7826583"><ele>291.0</ele><time>2026-03-22T09:48:25.158Z</time></trkpt><trkpt lat="45.9280117" lon="8.782695"><ele>291.6666666666667</ele><time>2026-03-22T09:48:27.158Z</time></trkpt><trkpt lat="45.9279417" lon="8.7826883"><ele>292.33333333333337</ele><time>2026-03-22T09:48:28.159Z</time></trkpt><trkpt lat="45.9278433" lon="8.782655"><ele>293.0</ele><time>2026-03-22T09:48:29.158Z</time></trkpt><trkpt lat="45.9277283" lon="8.782615"><ele>293.0</ele><time>2026-03-22T09:48:30.158Z</time></trkpt><trkpt lat="45.92762" lon="8.7825767"><ele>293.0</ele><time>2026-03-22T09:48:31.159Z</time></trkpt><trkpt lat="45.9275283" lon="8.782545"><ele>293.0</ele><time>2026-03-22T09:48:32.158Z</time></trkpt><trkpt lat="45.9274433" lon="8.78253"><ele>293.0</ele><time>2026-03-22T09:48:33.158Z</time></trkpt><trkpt lat="45.927365" lon="8.7825367"><ele>293.0</ele><time>2026-03-22T09:48:34.158Z</time></trkpt><trkpt lat="45.9272917" lon="8.7825617"><ele>293.0</ele><time>2026-03-22T09:48:35.158Z</time></trkpt><trkpt lat="45.92721" lon="8.7826217"><ele>293.0</ele><time>2026-03-22T09:48:36.158Z</time></trkpt><trkpt lat="45.927135" lon="8.7826967"><ele>293.0</ele><time>2026-03-22T09:48:37.158Z</time></trkpt><trkpt lat="45.9270717" lon="8.7827733"><ele>293.0</ele><time>2026-03-22T09:48:38.159Z</time></trkpt><trkpt lat="45.9270217" lon="8.782855"><ele>293.0</ele><time>2026-03-22T09:48:39.159Z</time></trkpt><trkpt lat="45.9269683" lon="8.782935"><ele>293.0</ele><time>2026-03-22T09:48:40.158Z</time></trkpt><trkpt lat="45.9269233" lon="8.7830033"><ele>293.0</ele><time>2026-03-22T09:48:41.158Z</time></trkpt><trkpt lat="45.9268767" lon="8.7830733"><ele>292.99999999999994</ele><time>2026-03-22T09:48:42.158Z</time></trkpt><trkpt lat="45.92684" lon="8.7831517"><ele>293.0</ele><time>2026-03-22T09:48:43.159Z</time></trkpt><trkpt lat="45.9267933" lon="8.7832383"><ele>293.0</ele><time>2026-03-22T09:48:44.159Z</time></trkpt><trkpt lat="45.9267533" lon="8.78331"><ele>293.0</ele><time>2026-03-22T09:48:45.158Z</time></trkpt><trkpt lat="45.9267083" lon="8.7833783"><ele>293.0</ele><time>2026-03-22T09:48:46.158Z</time></trkpt><trkpt lat="45.926655" lon="8.783455"><ele>292.99999999999994</ele><time>2026-03-22T09:48:48.158Z</time></trkpt><trkpt lat="45.92656" lon="8.7834233"><ele>293.0</ele><time>2026-03-22T09:49:21.158Z</time></trkpt><trkpt lat="45.9265033" lon="8.7833517"><ele>294.75</ele><time>2026-03-22T09:49:22.158Z</time></trkpt><trkpt lat="45.9264333" lon="8.783265"><ele>296.5</ele><time>2026-03-22T09:49:23.158Z</time></trkpt><trkpt lat="45.9263533" lon="8.7831583"><ele>298.25</ele><time>2026-03-22T09:49:24.158Z</time></trkpt><trkpt lat="45.926255" lon="8.7830433"><ele>300.0</ele><time>2026-03-22T09:49:25.158Z</time></trkpt><trkpt lat="45.9261417" lon="8.7829267"><ele>300.0</ele><time>2026-03-22T09:49:26.158Z</time></trkpt><trkpt lat="45.92601" lon="8.7828267"><ele>300.0</ele><time>2026-03-22T09:49:27.159Z</time></trkpt><trkpt lat="45.92587" lon="8.7827533"><ele>300.0</ele><time>2026-03-22T09:49:28.158Z</time></trkpt><trkpt lat="45.9257367" lon="8.7826883"><ele>300.0</ele><time>2026-03-22T09:49:29.158Z</time></trkpt><trkpt lat="45.9256233" lon="8.7826267"><ele>299.4</ele><time>2026-03-22T09:49:30.158Z</time></trkpt><trkpt lat="45.925535" lon="8.782555"><ele>298.8</ele><time>2026-03-22T09:49:31.158Z</time></trkpt><trkpt lat="45.9254567" lon="8.7824767"><ele>298.2</ele><time>2026-03-22T09:49:32.158Z</time></trkpt><trkpt lat="45.9253867" lon="8.78239"><ele>297.6</ele><time>2026-03-22T09:49:33.158Z</time></trkpt><trkpt lat="45.9253267" lon="8.78232"><ele>297.0</ele><time>2026-03-22T09:49:34.158Z</time></trkpt><trkpt lat="45.9251933" lon="8.782275"><ele>297.0</ele><time>2026-03-22T09:49:36.159Z</time></trkpt><trkpt lat="45.9251067" lon="8.7822917"><ele>297.0</ele><time>2026-03-22T09:49:37.159Z</time></trkpt><trkpt lat="45.9249933" lon="8.782325"><ele>297.0</ele><time>2026-03-22T09:49:38.158Z</time></trkpt><trkpt lat="45.924865" lon="8.78236"><ele>297.0</ele><time>2026-03-22T09:49:39.158Z</time></trkpt><trkpt lat="45.9247333" lon="8.782405"><ele>297.25</ele><time>2026-03-22T09:49:40.158Z</time></trkpt><trkpt lat="45.9246183" lon="8.7824783"><ele>297.5</ele><time>2026-03-22T09:49:41.158Z</time></trkpt><trkpt lat="45.9245283" lon="8.7825733"><ele>297.75</ele><time>2026-03-22T09:49:42.158Z</time></trkpt><trkpt lat="45.9244633" lon="8.7826867"><ele>298.0</ele><time>2026-03-22T09:49:43.159Z</time></trkpt><trkpt lat="45.924385" lon="8.782825"><ele>298.5</ele><time>2026-03-22T09:49:44.159Z</time></trkpt><trkpt lat="45.9243133" lon="8.78295"><ele>299.0</ele><time>2026-03-22T09:49:45.158Z</time></trkpt><trkpt lat="45.9242567" lon="8.783045"><ele>299.5</ele><time>2026-03-22T09:49:46.159Z</time></trkpt><trkpt lat="45.9241933" lon="8.7831033"><ele>300.0</ele><time>2026-03-22T09:49:47.158Z</time></trkpt><trkpt lat="45.9241283" lon="8.7831483"><ele>300.5</ele><time>2026-03-22T09:49:48.158Z</time></trkpt><trkpt lat="45.9240433" lon="8.7831783"><ele>301.0</ele><time>2026-03-22T09:49:49.158Z</time></trkpt><trkpt lat="45.92393" lon="8.783215"><ele>301.0</ele><time>2026-03-22T09:49:50.159Z</time></trkpt><trkpt lat="45.9238033" lon="8.7832417"><ele>301.0</ele><time>2026-03-22T09:49:51.158Z</time></trkpt><trkpt lat="45.923665" lon="8.7832517"><ele>301.0</ele><time>2026-03-22T09:49:52.158Z</time></trkpt><trkpt lat="45.923525" lon="8.7832567"><ele>301.0</ele><time>2026-03-22T09:49:53.158Z</time></trkpt><trkpt lat="45.9233967" lon="8.7832667"><ele>300.5</ele><time>2026-03-22T09:49:54.158Z</time></trkpt><trkpt lat="45.9232733" lon="8.7832783"><ele>300.0</ele><time>2026-03-22T09:49:55.158Z</time></trkpt><trkpt lat="45.9231483" lon="8.7832933"><ele>299.5</ele><time>2026-03-22T09:49:56.159Z</time></trkpt><trkpt lat="45.9230267" lon="8.783305"><ele>299.0</ele><time>2026-03-22T09:49:57.158Z</time></trkpt><trkpt lat="45.9229167" lon="8.7833167"><ele>299.0</ele><time>2026-03-22T09:49:58.158Z</time></trkpt><trkpt lat="45.9228233" lon="8.7833233"><ele>299.0</ele><time>2026-03-22T09:49:59.158Z</time></trkpt><trkpt lat="45.9227317" lon="8.7833233"><ele>299.0</ele><time>2026-03-22T09:50:00.158Z</time></trkpt><trkpt lat="45.92266" lon="8.7833167"><ele>299.0</ele><time>2026-03-22T09:50:01.158Z</time></trkpt><trkpt lat="45.9225767" lon="8.7832883"><ele>299.0</ele><time>2026-03-22T09:50:02.158Z</time></trkpt><trkpt lat="45.922485" lon="8.7832367"><ele>299.0</ele><time>2026-03-22T09:50:03.158Z</time></trkpt><trkpt lat="45.9223783" lon="8.7831583"><ele>299.2</ele><time>2026-03-22T09:50:04.159Z</time></trkpt><trkpt lat="45.9222733" lon="8.78309"><ele>299.4</ele><time>2026-03-22T09:50:05.158Z</time></trkpt><trkpt lat="45.922175" lon="8.783025"><ele>299.6</ele><time>2026-03-22T09:50:06.158Z</time></trkpt><trkpt lat="45.922085" lon="8.78296"><ele>299.8</ele><time>2026-03-22T09:50:07.159Z</time></trkpt><trkpt lat="45.9220083" lon="8.7828833"><ele>300.0</ele><time>2026-03-22T09:50:08.158Z</time></trkpt><trkpt lat="45.9219467" lon="8.78281"><ele>300.0</ele><time>2026-03-22T09:50:09.158Z</time></trkpt><trkpt lat="45.92189" lon="8.78272"><ele>300.0</ele><time>2026-03-22T09:50:10.159Z</time></trkpt><trkpt lat="45.9218483" lon="8.7826017"><ele>300.0</ele><time>2026-03-22T09:50:11.158Z</time></trkpt><trkpt lat="45.9218233" lon="8.7824767"><ele>300.0</ele><time>2026-03-22T09:50:12.158Z</time></trkpt><trkpt lat="45.9217983" lon="8.7823517"><ele>300.0</ele><time>2026-03-22T09:50:13.159Z</time></trkpt><trkpt lat="45.9217667" lon="8.782235"><ele>300.0</ele><time>2026-03-22T09:50:14.158Z</time></trkpt><trkpt lat="45.9217133" lon="8.78211"><ele>299.4</ele><time>2026-03-22T09:50:15.158Z</time></trkpt><trkpt lat="45.9216383" lon="8.78197"><ele>298.8</ele><time>2026-03-22T09:50:16.158Z</time></trkpt><trkpt lat="45.92156" lon="8.7818417"><ele>298.2</ele><time>2026-03-22T09:50:17.158Z</time></trkpt><trkpt lat="45.9214817" lon="8.7817483"><ele>297.6</ele><time>2026-03-22T09:50:18.158Z</time></trkpt><trkpt lat="45.9214117" lon="8.781695"><ele>297.0</ele><time>2026-03-22T09:50:19.158Z</time></trkpt><trkpt lat="45.9213467" lon="8.7816617"><ele>298.0</ele><time>2026-03-22T09:50:20.159Z</time></trkpt><trkpt lat="45.9212783" lon="8.7816433"><ele>299.0</ele><time>2026-03-22T09:50:21.158Z</time></trkpt><trkpt lat="45.9212133" lon="8.78163"><ele>300.0</ele><time>2026-03-22T09:50:22.158Z</time></trkpt><trkpt lat="45.9211317" lon="8.781595"><ele>301.0</ele><time>2026-03-22T09:50:24.158Z</time></trkpt><trkpt lat="45.921135" lon="8.7814267"><ele>302.0</ele><time>2026-03-22T09:50:26.158Z</time></trkpt><trkpt lat="45.9211633" lon="8.7812967"><ele>303.0</ele><time>2026-03-22T09:50:27.158Z</time></trkpt><trkpt lat="45.9211933" lon="8.7811733"><ele>303.0</ele><time>2026-03-22T09:50:28.158Z</time></trkpt><trkpt lat="45.92122" lon="8.7810733"><ele>303.0</ele><time>2026-03-22T09:50:29.158Z</time></trkpt><trkpt lat="45.921245" lon="8.7809533"><ele>303.0</ele><time>2026-03-22T09:50:31.158Z</time></trkpt><trkpt lat="45.9211683" lon="8.7809433"><ele>303.0</ele><time>2026-03-22T09:50:35.159Z</time></trkpt><trkpt lat="45.9211133" lon="8.7810317"><ele>303.0</ele><time>2026-03-22T09:50:37.158Z</time></trkpt><trkpt lat="45.9210333" lon="8.7809933"><ele>303.0</ele><time>2026-03-22T09:50:40.158Z</time></trkpt><trkpt lat="45.92099" lon="8.78087"><ele>304.0</ele><time>2026-03-22T09:50:42.158Z</time></trkpt><trkpt lat="45.9209783" lon="8.7806767"><ele>305.0</ele><time>2026-03-22T09:50:44.159Z</time></trkpt><trkpt lat="45.9209633" lon="8.7805417"><ele>306.0</ele><time>2026-03-22T09:50:45.158Z</time></trkpt><trkpt lat="45.9209467" lon="8.7803717"><ele>307.0</ele><time>2026-03-22T09:50:46.158Z</time></trkpt><trkpt lat="45.9209317" lon="8.7802033"><ele>307.0</ele><time>2026-03-22T09:50:47.159Z</time></trkpt><trkpt lat="45.920915" lon="8.7800433"><ele>307.0</ele><time>2026-03-22T09:50:48.158Z</time></trkpt><trkpt lat="45.9208983" lon="8.77989"><ele>307.0</ele><time>2026-03-22T09:50:49.158Z</time></trkpt><trkpt lat="45.92088" lon="8.779765"><ele>307.0</ele><time>2026-03-22T09:50:50.159Z</time></trkpt><trkpt lat="45.9208683" lon="8.779665"><ele>307.0</ele><time>2026-03-22T09:50:51.158Z</time></trkpt><trkpt lat="45.9208567" lon="8.77956"><ele>306.71428571428567</ele><time>2026-03-22T09:50:52.158Z</time></trkpt><trkpt lat="45.920855" lon="8.7794617"><ele>306.42857142857144</ele><time>2026-03-22T09:50:53.158Z</time></trkpt><trkpt lat="45.9208583" lon="8.77936"><ele>306.1428571428571</ele><time>2026-03-22T09:50:54.159Z</time></trkpt><trkpt lat="45.9208633" lon="8.7792517"><ele>305.85714285714283</ele><time>2026-03-22T09:50:55.158Z</time></trkpt><trkpt lat="45.9208683" lon="8.7791483"><ele>305.57142857142856</ele><time>2026-03-22T09:50:56.158Z</time></trkpt><trkpt lat="45.920875" lon="8.7790567"><ele>305.2857142857143</ele><time>2026-03-22T09:50:57.158Z</time></trkpt><trkpt lat="45.9208783" lon="8.7789267"><ele>305.0</ele><time>2026-03-22T09:50:59.159Z</time></trkpt><trkpt lat="45.9209067" lon="8.7787283"><ele>305.0</ele><time>2026-03-22T09:51:08.158Z</time></trkpt><trkpt lat="45.9209133" lon="8.778625"><ele>305.0</ele><time>2026-03-22T09:51:11.159Z</time></trkpt><trkpt lat="45.9208583" lon="8.77854"><ele>305.0</ele><time>2026-03-22T09:51:14.158Z</time></trkpt><trkpt lat="45.9207817" lon="8.7784833"><ele>305.0</ele><time>2026-03-22T09:51:16.158Z</time></trkpt><trkpt lat="45.9206733" lon="8.7784217"><ele>305.0</ele><time>2026-03-22T09:51:18.158Z</time></trkpt><trkpt lat="45.9205583" lon="8.7784317"><ele>307.6</ele><time>2026-03-22T09:51:20.158Z</time></trkpt><trkpt lat="45.92046" lon="8.7785033"><ele>310.2</ele><time>2026-03-22T09:51:22.158Z</time></trkpt><trkpt lat="45.920375" lon="8.7786183"><ele>312.8</ele><time>2026-03-22T09:51:24.158Z</time></trkpt><trkpt lat="45.92031" lon="8.7786883"><ele>315.4</ele><time>2026-03-22T09:51:26.158Z</time></trkpt><trkpt lat="45.920215" lon="8.7787083"><ele>318.0</ele><time>2026-03-22T09:51:28.158Z</time></trkpt><trkpt lat="45.92009" lon="8.778725"><ele>319.2</ele><time>2026-03-22T09:51:30.158Z</time></trkpt><trkpt lat="45.9200183" lon="8.7787117"><ele>320.4</ele><time>2026-03-22T09:51:31.158Z</time></trkpt><trkpt lat="45.9199033" lon="8.7786633"><ele>321.59999999999997</ele><time>2026-03-22T09:51:33.159Z</time></trkpt><trkpt lat="45.9197983" lon="8.7785833"><ele>322.8</ele><time>2026-03-22T09:51:35.158Z</time></trkpt><trkpt lat="45.9197333" lon="8.77849"><ele>324.0</ele><time>2026-03-22T09:51:36.158Z</time></trkpt><trkpt lat="45.919655" lon="8.7783583"><ele>324.0</ele><time>2026-03-22T09:51:37.158Z</time></trkpt><trkpt lat="45.91959" lon="8.77827"><ele>324.0</ele><time>2026-03-22T09:51:38.159Z</time></trkpt><trkpt lat="45.9195133" lon="8.7781683"><ele>324.0</ele><time>2026-03-22T09:51:39.158Z</time></trkpt><trkpt lat="45.9194483" lon="8.778085"><ele>324.0</ele><time>2026-03-22T09:51:40.158Z</time></trkpt><trkpt lat="45.919385" lon="8.7780017"><ele>324.0</ele><time>2026-03-22T09:51:41.159Z</time></trkpt><trkpt lat="45.9193317" lon="8.7779383"><ele>324.0</ele><time>2026-03-22T09:51:42.158Z</time></trkpt><trkpt lat="45.9192433" lon="8.77785"><ele>323.7142857142857</ele><time>2026-03-22T09:51:44.158Z</time></trkpt><trkpt lat="45.9191833" lon="8.77781"><ele>323.42857142857144</ele><time>2026-03-22T09:51:45.158Z</time></trkpt><trkpt lat="45.91912" lon="8.777775"><ele>323.1428571428571</ele><time>2026-03-22T09:51:46.158Z</time></trkpt><trkpt lat="45.9190467" lon="8.77774"><ele>322.8571428571429</ele><time>2026-03-22T09:51:47.158Z</time></trkpt><trkpt lat="45.9189683" lon="8.7777217"><ele>322.57142857142856</ele><time>2026-03-22T09:51:48.158Z</time></trkpt><trkpt lat="45.918895" lon="8.777705"><ele>322.2857142857143</ele><time>2026-03-22T09:51:49.158Z</time></trkpt><trkpt lat="45.91883" lon="8.7776933"><ele>322.0</ele><time>2026-03-22T09:51:50.158Z</time></trkpt><trkpt lat="45.9187667" lon="8.77768"><ele>322.0</ele><time>2026-03-22T09:51:51.158Z</time></trkpt><trkpt lat="45.9187" lon="8.7776583"><ele>322.0</ele><time>2026-03-22T09:51:52.159Z</time></trkpt><trkpt lat="45.9186367" lon="8.7776367"><ele>322.0</ele><time>2026-03-22T09:51:53.158Z</time></trkpt><trkpt lat="45.9185717" lon="8.7776283"><ele>322.0</ele><time>2026-03-22T09:51:54.158Z</time></trkpt><trkpt lat="45.9184467" lon="8.7776367"><ele>322.0</ele><time>2026-03-22T09:51:56.158Z</time></trkpt><trkpt lat="45.918385" lon="8.777665"><ele>322.0</ele><time>2026-03-22T09:51:57.158Z</time></trkpt><trkpt lat="45.9183167" lon="8.77769"><ele>323.40000000000003</ele><time>2026-03-22T09:51:58.158Z</time></trkpt><trkpt lat="45.91823" lon="8.7777217"><ele>324.8</ele><time>2026-03-22T09:51:59.158Z</time></trkpt><trkpt lat="45.9181233" lon="8.77775"><ele>326.2</ele><time>2026-03-22T09:52:00.158Z</time></trkpt><trkpt lat="45.9180133" lon="8.7777867"><ele>327.6</ele><time>2026-03-22T09:52:01.158Z</time></trkpt><trkpt lat="45.917935" lon="8.7778267"><ele>329.0</ele><time>2026-03-22T09:52:02.158Z</time></trkpt><trkpt lat="45.9178667" lon="8.7778633"><ele>329.0</ele><time>2026-03-22T09:52:03.159Z</time></trkpt><trkpt lat="45.9177967" lon="8.7778933"><ele>329.0</ele><time>2026-03-22T09:52:04.158Z</time></trkpt><trkpt lat="45.9176967" lon="8.7779417"><ele>329.0</ele><time>2026-03-22T09:52:06.158Z</time></trkpt><trkpt lat="45.917615" lon="8.77794"><ele>329.0</ele><time>2026-03-22T09:52:08.158Z</time></trkpt><trkpt lat="45.9174867" lon="8.777885"><ele>329.0</ele><time>2026-03-22T09:52:20.158Z</time></trkpt><trkpt lat="45.91741" lon="8.777865"><ele>328.57142857142856</ele><time>2026-03-22T09:52:22.159Z</time></trkpt><trkpt lat="45.9173433" lon="8.7778783"><ele>328.1428571428571</ele><time>2026-03-22T09:52:24.158Z</time></trkpt><trkpt lat="45.91729" lon="8.7779733"><ele>327.7142857142857</ele><time>2026-03-22T09:52:27.158Z</time></trkpt><trkpt lat="45.9172167" lon="8.77799"><ele>327.2857142857143</ele><time>2026-03-22T09:52:32.159Z</time></trkpt><trkpt lat="45.9171533" lon="8.7779867"><ele>326.85714285714283</ele><time>2026-03-22T09:52:40.158Z</time></trkpt><trkpt lat="45.917085" lon="8.77799"><ele>326.42857142857144</ele><time>2026-03-22T09:52:46.158Z</time></trkpt><trkpt lat="45.9170183" lon="8.7779917"><ele>326.0</ele><time>2026-03-22T09:52:53.159Z</time></trkpt><trkpt lat="45.9169567" lon="8.77795"><ele>326.0</ele><time>2026-03-22T09:53:03.158Z</time></trkpt><trkpt lat="45.9168683" lon="8.7779383"><ele>326.0</ele><time>2026-03-22T09:53:20.158Z</time></trkpt><trkpt lat="45.9168067" lon="8.777975"><ele>326.0</ele><time>2026-03-22T09:53:31.158Z</time></trkpt><trkpt lat="45.9167367" lon="8.7779667"><ele>326.0</ele><time>2026-03-22T09:53:36.158Z</time></trkpt><trkpt lat="45.9166767" lon="8.7779183"><ele>326.0</ele><time>2026-03-22T09:53:40.158Z</time></trkpt><trkpt lat="45.9166" lon="8.777915"><ele>326.0</ele><time>2026-03-22T09:59:15.158Z</time></trkpt><trkpt lat="45.9165367" lon="8.7779167"><ele>326.0</ele><time>2026-03-22T09:59:19.158Z</time></trkpt><trkpt lat="45.9164533" lon="8.777945"><ele>325.0</ele><time>2026-03-22T09:59:25.159Z</time></trkpt><trkpt lat="45.9163717" lon="8.7778717"><ele>324.0</ele><time>2026-03-22T09:59:28.158Z</time></trkpt><trkpt lat="45.91634" lon="8.777785"><ele>323.0</ele><time>2026-03-22T09:59:31.158Z</time></trkpt><trkpt lat="45.9163133" lon="8.7776767"><ele>322.0</ele><time>2026-03-22T09:59:36.158Z</time></trkpt><trkpt lat="45.9162583" lon="8.7776267"><ele>321.0</ele><time>2026-03-22T09:59:45.158Z</time></trkpt><trkpt lat="45.9162367" lon="8.7775117"><ele>320.0</ele><time>2026-03-22T10:00:01.158Z</time></trkpt><trkpt lat="45.91618" lon="8.7774417"><ele>318.0</ele><time>2026-03-22T10:00:06.159Z</time></trkpt><trkpt lat="45.9161233" lon="8.7773833"><ele>316.0</ele><time>2026-03-22T10:00:11.158Z</time></trkpt><trkpt lat="45.91606" lon="8.7773383"><ele>314.0</ele><time>2026-03-22T10:00:16.159Z</time></trkpt><trkpt lat="45.9159917" lon="8.7773067"><ele>312.0</ele><time>2026-03-22T10:00:20.158Z</time></trkpt><trkpt lat="45.9159083" lon="8.7772867"><ele>310.0</ele><time>2026-03-22T10:00:24.159Z</time></trkpt><trkpt lat="45.9158383" lon="8.7772783"><ele>308.0</ele><time>2026-03-22T10:00:27.159Z</time></trkpt><trkpt lat="45.9157833" lon="8.7772083"><ele>306.0</ele><time>2026-03-22T10:00:31.158Z</time></trkpt><trkpt lat="45.91574" lon="8.7771167"><ele>304.8333333333333</ele><time>2026-03-22T10:00:34.159Z</time></trkpt><trkpt lat="45.9156967" lon="8.7770333"><ele>303.6666666666667</ele><time>2026-03-22T10:00:36.158Z</time></trkpt><trkpt lat="45.91566" lon="8.7769567"><ele>302.5</ele><time>2026-03-22T10:00:38.158Z</time></trkpt><trkpt lat="45.9156167" lon="8.7768333"><ele>301.33333333333337</ele><time>2026-03-22T10:00:40.158Z</time></trkpt><trkpt lat="45.9155967" lon="8.7767167"><ele>300.1666666666667</ele><time>2026-03-22T10:00:42.159Z</time></trkpt><trkpt lat="45.915555" lon="8.7765683"><ele>299.0</ele><time>2026-03-22T10:00:44.158Z</time></trkpt><trkpt lat="45.9155267" lon="8.7764217"><ele>297.0</ele><time>2026-03-22T10:00:46.158Z</time></trkpt><trkpt lat="45.9155183" lon="8.7762517"><ele>295.0</ele><time>2026-03-22T10:00:48.159Z</time></trkpt><trkpt lat="45.9155217" lon="8.7761417"><ele>293.0</ele><time>2026-03-22T10:00:49.159Z</time></trkpt><trkpt lat="45.9155317" lon="8.776"><ele>291.0</ele><time>2026-03-22T10:00:51.158Z</time></trkpt><trkpt lat="45.9155817" lon="8.775925"><ele>289.0</ele><time>2026-03-22T10:00:53.158Z</time></trkpt><trkpt lat="45.9156183" lon="8.7758483"><ele>287.0</ele><time>2026-03-22T10:00:56.158Z</time></trkpt><trkpt lat="45.915565" lon="8.7757967"><ele>285.6666666666667</ele><time>2026-03-22T10:00:59.158Z</time></trkpt><trkpt lat="45.9154933" lon="8.7757867"><ele>284.33333333333337</ele><time>2026-03-22T10:01:01.159Z</time></trkpt><trkpt lat="45.9153967" lon="8.7757583"><ele>283.0</ele><time>2026-03-22T10:01:03.158Z</time></trkpt><trkpt lat="45.915315" lon="8.77572"><ele>281.6666666666667</ele><time>2026-03-22T10:01:05.158Z</time></trkpt><trkpt lat="45.9152483" lon="8.7756417"><ele>280.3333333333333</ele><time>2026-03-22T10:01:07.158Z</time></trkpt><trkpt lat="45.9151867" lon="8.7755583"><ele>279.0</ele><time>2026-03-22T10:01:09.158Z</time></trkpt><trkpt lat="45.9151367" lon="8.775475"><ele>278.99999999999994</ele><time>2026-03-22T10:01:11.159Z</time></trkpt><trkpt lat="45.91511" lon="8.7753783"><ele>279.0</ele><time>2026-03-22T10:01:13.158Z</time></trkpt><trkpt lat="45.9151" lon="8.7752833"><ele>279.0</ele><time>2026-03-22T10:01:16.158Z</time></trkpt><trkpt lat="45.91508" lon="8.7751767"><ele>279.0</ele><time>2026-03-22T10:01:19.158Z</time></trkpt><trkpt lat="45.9150333" lon="8.7750717"><ele>279.0</ele><time>2026-03-22T10:01:22.158Z</time></trkpt><trkpt lat="45.9149667" lon="8.7750333"><ele>278.99999999999994</ele><time>2026-03-22T10:01:25.158Z</time></trkpt><trkpt lat="45.9149067" lon="8.7750733"><ele>279.0</ele><time>2026-03-22T10:01:27.159Z</time></trkpt><trkpt lat="45.9148067" lon="8.7751383"><ele>280.0</ele><time>2026-03-22T10:01:29.159Z</time></trkpt><trkpt lat="45.9146867" lon="8.7751967"><ele>281.0</ele><time>2026-03-22T10:01:31.158Z</time></trkpt><trkpt lat="45.914585" lon="8.7752533"><ele>282.0</ele><time>2026-03-22T10:01:33.159Z</time></trkpt><trkpt lat="45.91452" lon="8.7753283"><ele>283.0</ele><time>2026-03-22T10:01:35.159Z</time></trkpt><trkpt lat="45.914465" lon="8.775415"><ele>284.0</ele><time>2026-03-22T10:01:37.158Z</time></trkpt><trkpt lat="45.914405" lon="8.7754867"><ele>284.0</ele><time>2026-03-22T10:01:39.158Z</time></trkpt><trkpt lat="45.9143367" lon="8.7755383"><ele>284.0</ele><time>2026-03-22T10:01:42.158Z</time></trkpt><trkpt lat="45.9142683" lon="8.775585"><ele>284.0</ele><time>2026-03-22T10:01:45.158Z</time></trkpt><trkpt lat="45.914175" lon="8.77556"><ele>284.0</ele><time>2026-03-22T10:01:47.159Z</time></trkpt><trkpt lat="45.914105" lon="8.7755517"><ele>284.0</ele><time>2026-03-22T10:01:48.159Z</time></trkpt><trkpt lat="45.9140133" lon="8.7755333"><ele>284.0</ele><time>2026-03-22T10:01:50.159Z</time></trkpt><trkpt lat="45.9138817" lon="8.7754967"><ele>286.6666666666667</ele><time>2026-03-22T10:01:52.158Z</time></trkpt><trkpt lat="45.9137983" lon="8.7754967"><ele>289.33333333333337</ele><time>2026-03-22T10:01:53.158Z</time></trkpt><trkpt lat="45.9137133" lon="8.77551"><ele>292.0</ele><time>2026-03-22T10:01:54.158Z</time></trkpt><trkpt lat="45.91363" lon="8.7755383"><ele>294.6666666666667</ele><time>2026-03-22T10:01:55.158Z</time></trkpt><trkpt lat="45.91354" lon="8.77557"><ele>297.3333333333333</ele><time>2026-03-22T10:01:56.158Z</time></trkpt><trkpt lat="45.913455" lon="8.775585"><ele>300.0</ele><time>2026-03-22T10:01:57.158Z</time></trkpt><trkpt lat="45.9133817" lon="8.7756167"><ele>301.3333333333333</ele><time>2026-03-22T10:01:58.158Z</time></trkpt><trkpt lat="45.9132867" lon="8.7756067"><ele>302.6666666666667</ele><time>2026-03-22T10:02:00.158Z</time></trkpt><trkpt lat="45.91323" lon="8.7755083"><ele>304.0</ele><time>2026-03-22T10:02:02.158Z</time></trkpt><trkpt lat="45.9132167" lon="8.775415"><ele>305.33333333333337</ele><time>2026-03-22T10:02:03.158Z</time></trkpt><trkpt lat="45.9132" lon="8.7752917"><ele>306.6666666666667</ele><time>2026-03-22T10:02:04.158Z</time></trkpt><trkpt lat="45.9131967" lon="8.7751683"><ele>308.0</ele><time>2026-03-22T10:02:05.158Z</time></trkpt><trkpt lat="45.9132017" lon="8.7750633"><ele>308.0</ele><time>2026-03-22T10:02:06.158Z</time></trkpt><trkpt lat="45.913225" lon="8.7749767"><ele>308.0</ele><time>2026-03-22T10:02:07.158Z</time></trkpt><trkpt lat="45.9133083" lon="8.7748367"><ele>308.0</ele><time>2026-03-22T10:02:09.158Z</time></trkpt><trkpt lat="45.9133883" lon="8.7746933"><ele>308.0</ele><time>2026-03-22T10:02:11.158Z</time></trkpt><trkpt lat="45.913435" lon="8.7746117"><ele>308.0</ele><time>2026-03-22T10:02:12.158Z</time></trkpt><trkpt lat="45.9134883" lon="8.77452"><ele>306.6</ele><time>2026-03-22T10:02:13.158Z</time></trkpt><trkpt lat="45.9135567" lon="8.7744317"><ele>305.20000000000005</ele><time>2026-03-22T10:02:14.158Z</time></trkpt><trkpt lat="45.91363" lon="8.7743317"><ele>303.8</ele><time>2026-03-22T10:02:15.158Z</time></trkpt><trkpt lat="45.9136983" lon="8.7742417"><ele>302.40000000000003</ele><time>2026-03-22T10:02:16.159Z</time></trkpt><trkpt lat="45.91376" lon="8.7741583"><ele>301.0</ele><time>2026-03-22T10:02:17.158Z</time></trkpt><trkpt lat="45.9138283" lon="8.7740783"><ele>301.0</ele><time>2026-03-22T10:02:18.159Z</time></trkpt><trkpt lat="45.9138983" lon="8.7739833"><ele>301.0</ele><time>2026-03-22T10:02:19.158Z</time></trkpt><trkpt lat="45.913965" lon="8.7738917"><ele>301.0</ele><time>2026-03-22T10:02:20.158Z</time></trkpt><trkpt lat="45.9140267" lon="8.7737983"><ele>301.0</ele><time>2026-03-22T10:02:21.158Z</time></trkpt><trkpt lat="45.9140917" lon="8.7737217"><ele>301.0</ele><time>2026-03-22T10:02:22.158Z</time></trkpt><trkpt lat="45.9141817" lon="8.7736217"><ele>301.0</ele><time>2026-03-22T10:02:24.158Z</time></trkpt><trkpt lat="45.91425" lon="8.7735483"><ele>301.0</ele><time>2026-03-22T10:02:26.158Z</time></trkpt><trkpt lat="45.9142883" lon="8.77347"><ele>301.0</ele><time>2026-03-22T10:02:28.158Z</time></trkpt><trkpt lat="45.91427" lon="8.7733583"><ele>301.0</ele><time>2026-03-22T10:02:30.159Z</time></trkpt><trkpt lat="45.9141517" lon="8.7732533"><ele>301.0</ele><time>2026-03-22T10:02:32.158Z</time></trkpt><trkpt lat="45.9140783" lon="8.7731883"><ele>301.0</ele><time>2026-03-22T10:02:33.158Z</time></trkpt><trkpt lat="45.9140033" lon="8.7731333"><ele>301.0</ele><time>2026-03-22T10:02:34.159Z</time></trkpt><trkpt lat="45.9139367" lon="8.7730767"><ele>301.0</ele><time>2026-03-22T10:02:35.158Z</time></trkpt><trkpt lat="45.9138567" lon="8.772965"><ele>301.0</ele><time>2026-03-22T10:02:37.158Z</time></trkpt><trkpt lat="45.91384" lon="8.77284"><ele>301.0</ele><time>2026-03-22T10:02:39.158Z</time></trkpt><trkpt lat="45.9138683" lon="8.772755"><ele>301.0</ele><time>2026-03-22T10:02:40.158Z</time></trkpt><trkpt lat="45.9139067" lon="8.7726633"><ele>301.0</ele><time>2026-03-22T10:02:41.158Z</time></trkpt><trkpt lat="45.91396" lon="8.7725733"><ele>301.0</ele><time>2026-03-22T10:02:42.158Z</time></trkpt><trkpt lat="45.914015" lon="8.7724733"><ele>301.0</ele><time>2026-03-22T10:02:43.159Z</time></trkpt><trkpt lat="45.9140667" lon="8.7723733"><ele>301.0</ele><time>2026-03-22T10:02:44.159Z</time></trkpt><trkpt lat="45.9141017" lon="8.77227"><ele>301.0</ele><time>2026-03-22T10:02:45.158Z</time></trkpt><trkpt lat="45.9141283" lon="8.7721517"><ele>301.0</ele><time>2026-03-22T10:02:46.159Z</time></trkpt><trkpt lat="45.9141567" lon="8.77205"><ele>301.0</ele><time>2026-03-22T10:02:47.158Z</time></trkpt><trkpt lat="45.9141867" lon="8.77196"><ele>301.0</ele><time>2026-03-22T10:02:48.158Z</time></trkpt><trkpt lat="45.914235" lon="8.7718133"><ele>301.0</ele><time>2026-03-22T10:02:50.158Z</time></trkpt><trkpt lat="45.91433" lon="8.771685"><ele>301.0</ele><time>2026-03-22T10:02:52.158Z</time></trkpt><trkpt lat="45.91438" lon="8.7716133"><ele>301.0</ele><time>2026-03-22T10:02:53.158Z</time></trkpt><trkpt lat="45.9144617" lon="8.7714817"><ele>300.6</ele><time>2026-03-22T10:02:55.158Z</time></trkpt><trkpt lat="45.9144967" lon="8.7714"><ele>300.20000000000005</ele><time>2026-03-22T10:02:56.158Z</time></trkpt><trkpt lat="45.91455" lon="8.7712617"><ele>299.79999999999995</ele><time>2026-03-22T10:02:58.158Z</time></trkpt><trkpt lat="45.9144783" lon="8.77119"><ele>299.4</ele><time>2026-03-22T10:03:02.159Z</time></trkpt><trkpt lat="45.9143517" lon="8.7711133"><ele>299.0</ele><time>2026-03-22T10:03:04.158Z</time></trkpt><trkpt lat="45.91427" lon="8.7710583"><ele>300.33333333333337</ele><time>2026-03-22T10:03:05.159Z</time></trkpt><trkpt lat="45.9141817" lon="8.7710033"><ele>301.6666666666667</ele><time>2026-03-22T10:03:06.158Z</time></trkpt><trkpt lat="45.9141033" lon="8.7709533"><ele>303.0</ele><time>2026-03-22T10:03:07.158Z</time></trkpt><trkpt lat="45.91403" lon="8.7709267"><ele>304.3333333333333</ele><time>2026-03-22T10:03:08.158Z</time></trkpt><trkpt lat="45.91395" lon="8.7709183"><ele>305.66666666666663</ele><time>2026-03-22T10:03:09.158Z</time></trkpt><trkpt lat="45.9138617" lon="8.7709533"><ele>307.0</ele><time>2026-03-22T10:03:10.159Z</time></trkpt><trkpt lat="45.913775" lon="8.7709767"><ele>307.0</ele><time>2026-03-22T10:03:11.159Z</time></trkpt><trkpt lat="45.9136817" lon="8.7709883"><ele>307.0</ele><time>2026-03-22T10:03:12.159Z</time></trkpt><trkpt lat="45.9135667" lon="8.7709833"><ele>307.0</ele><time>2026-03-22T10:03:13.158Z</time></trkpt><trkpt lat="45.9134483" lon="8.7709883"><ele>307.0</ele><time>2026-03-22T10:03:14.159Z</time></trkpt><trkpt lat="45.9133267" lon="8.7709783"><ele>307.0</ele><time>2026-03-22T10:03:15.158Z</time></trkpt><trkpt lat="45.9132183" lon="8.770965"><ele>306.2</ele><time>2026-03-22T10:03:16.158Z</time></trkpt><trkpt lat="45.913125" lon="8.7709517"><ele>305.4</ele><time>2026-03-22T10:03:17.158Z</time></trkpt><trkpt lat="45.9130483" lon="8.7709433"><ele>304.6</ele><time>2026-03-22T10:03:18.158Z</time></trkpt><trkpt lat="45.9129433" lon="8.7709333"><ele>303.8</ele><time>2026-03-22T10:03:20.158Z</time></trkpt><trkpt lat="45.912865" lon="8.7709683"><ele>303.0</ele><time>2026-03-22T10:03:22.158Z</time></trkpt><trkpt lat="45.9127533" lon="8.7710483"><ele>303.5</ele><time>2026-03-22T10:03:24.158Z</time></trkpt><trkpt lat="45.912695" lon="8.7710933"><ele>304.0</ele><time>2026-03-22T10:03:25.158Z</time></trkpt><trkpt lat="45.912625" lon="8.7711267"><ele>304.5</ele><time>2026-03-22T10:03:26.158Z</time></trkpt><trkpt lat="45.912555" lon="8.771145"><ele>305.0</ele><time>2026-03-22T10:03:27.158Z</time></trkpt><trkpt lat="45.9124717" lon="8.7711567"><ele>305.5</ele><time>2026-03-22T10:03:28.158Z</time></trkpt><trkpt lat="45.912365" lon="8.7711583"><ele>306.0</ele><time>2026-03-22T10:03:29.158Z</time></trkpt><trkpt lat="45.912245" lon="8.7711717"><ele>306.0</ele><time>2026-03-22T10:03:30.158Z</time></trkpt><trkpt lat="45.9121467" lon="8.77119"><ele>306.0</ele><time>2026-03-22T10:03:31.158Z</time></trkpt><trkpt lat="45.9120533" lon="8.77121"><ele>306.0</ele><time>2026-03-22T10:03:32.159Z</time></trkpt><trkpt lat="45.9119567" lon="8.7712517"><ele>306.0</ele><time>2026-03-22T10:03:33.158Z</time></trkpt><trkpt lat="45.9118683" lon="8.7712833"><ele>306.0</ele><time>2026-03-22T10:03:34.159Z</time></trkpt><trkpt lat="45.9117817" lon="8.771325"><ele>308.6</ele><time>2026-03-22T10:03:35.158Z</time></trkpt><trkpt lat="45.9117033" lon="8.7713483"><ele>311.20000000000005</ele><time>2026-03-22T10:03:36.158Z</time></trkpt><trkpt lat="45.91157" lon="8.7713683"><ele>313.79999999999995</ele><time>2026-03-22T10:03:38.159Z</time></trkpt><trkpt lat="45.91147" lon="8.7713833"><ele>316.4</ele><time>2026-03-22T10:03:39.158Z</time></trkpt><trkpt lat="45.9113667" lon="8.7713967"><ele>319.0</ele><time>2026-03-22T10:03:40.158Z</time></trkpt><trkpt lat="45.9112683" lon="8.7714117"><ele>319.0</ele><time>2026-03-22T10:03:41.158Z</time></trkpt><trkpt lat="45.9111883" lon="8.7714083"><ele>319.0</ele><time>2026-03-22T10:03:42.158Z</time></trkpt><trkpt lat="45.91111" lon="8.77139"><ele>319.0</ele><time>2026-03-22T10:03:43.158Z</time></trkpt><trkpt lat="45.9110233" lon="8.771355"><ele>319.0</ele><time>2026-03-22T10:03:44.158Z</time></trkpt><trkpt lat="45.9109417" lon="8.771335"><ele>319.0</ele><time>2026-03-22T10:03:45.158Z</time></trkpt><trkpt lat="45.9108583" lon="8.7713083"><ele>319.0</ele><time>2026-03-22T10:03:46.158Z</time></trkpt><trkpt lat="45.910785" lon="8.7712917"><ele>321.0</ele><time>2026-03-22T10:03:47.158Z</time></trkpt><trkpt lat="45.9107183" lon="8.7712933"><ele>323.0</ele><time>2026-03-22T10:03:48.158Z</time></trkpt><trkpt lat="45.91065" lon="8.7713133"><ele>325.0</ele><time>2026-03-22T10:03:49.159Z</time></trkpt><trkpt lat="45.9105483" lon="8.771355"><ele>327.0</ele><time>2026-03-22T10:03:51.159Z</time></trkpt><trkpt lat="45.9105017" lon="8.7714533"><ele>329.0</ele><time>2026-03-22T10:03:55.158Z</time></trkpt><trkpt lat="45.9104667" lon="8.771555"><ele>331.0</ele><time>2026-03-22T10:03:57.158Z</time></trkpt><trkpt lat="45.91044" lon="8.7716383"><ele>331.0</ele><time>2026-03-22T10:03:58.158Z</time></trkpt><trkpt lat="45.9104033" lon="8.7717567"><ele>331.0</ele><time>2026-03-22T10:03:59.158Z</time></trkpt><trkpt lat="45.9103583" lon="8.7718917"><ele>331.0</ele><time>2026-03-22T10:04:00.159Z</time></trkpt><trkpt lat="45.91032" lon="8.77201"><ele>331.0</ele><time>2026-03-22T10:04:01.158Z</time></trkpt><trkpt lat="45.9102767" lon="8.7721017"><ele>331.0</ele><time>2026-03-22T10:04:02.158Z</time></trkpt><trkpt lat="45.9101867" lon="8.7721733"><ele>332.3333333333333</ele><time>2026-03-22T10:04:04.158Z</time></trkpt><trkpt lat="45.910115" lon="8.77221"><ele>333.66666666666663</ele><time>2026-03-22T10:04:05.158Z</time></trkpt><trkpt lat="45.910045" lon="8.7722733"><ele>335.0</ele><time>2026-03-22T10:04:06.158Z</time></trkpt><trkpt lat="45.9099583" lon="8.77232"><ele>336.3333333333333</ele><time>2026-03-22T10:04:07.158Z</time></trkpt><trkpt lat="45.90988" lon="8.7723617"><ele>337.6666666666667</ele><time>2026-03-22T10:04:08.158Z</time></trkpt><trkpt lat="45.9097983" lon="8.7724117"><ele>339.0</ele><time>2026-03-22T10:04:09.158Z</time></trkpt><trkpt lat="45.9097283" lon="8.7724317"><ele>339.0</ele><time>2026-03-22T10:04:10.158Z</time></trkpt><trkpt lat="45.909665" lon="8.7724333"><ele>339.0</ele><time>2026-03-22T10:04:11.158Z</time></trkpt><trkpt lat="45.909555" lon="8.7723717"><ele>339.0</ele><time>2026-03-22T10:04:13.158Z</time></trkpt><trkpt lat="45.909445" lon="8.7722883"><ele>339.0</ele><time>2026-03-22T10:04:15.158Z</time></trkpt><trkpt lat="45.90935" lon="8.7721817"><ele>339.0</ele><time>2026-03-22T10:04:17.158Z</time></trkpt><trkpt lat="45.9092867" lon="8.7721167"><ele>340.3333333333333</ele><time>2026-03-22T10:04:18.158Z</time></trkpt><trkpt lat="45.9092333" lon="8.7720467"><ele>341.6666666666667</ele><time>2026-03-22T10:04:19.158Z</time></trkpt><trkpt lat="45.9091867" lon="8.7719567"><ele>343.0</ele><time>2026-03-22T10:04:20.158Z</time></trkpt><trkpt lat="45.9091383" lon="8.7718583"><ele>344.33333333333337</ele><time>2026-03-22T10:04:21.158Z</time></trkpt><trkpt lat="45.9090933" lon="8.7717617"><ele>345.6666666666667</ele><time>2026-03-22T10:04:22.158Z</time></trkpt><trkpt lat="45.9090533" lon="8.7716683"><ele>347.0</ele><time>2026-03-22T10:04:23.159Z</time></trkpt><trkpt lat="45.90901" lon="8.771575"><ele>347.0</ele><time>2026-03-22T10:04:24.158Z</time></trkpt><trkpt lat="45.9089767" lon="8.7714883"><ele>347.0</ele><time>2026-03-22T10:04:25.158Z</time></trkpt><trkpt lat="45.9089483" lon="8.771405"><ele>347.0</ele><time>2026-03-22T10:04:26.158Z</time></trkpt><trkpt lat="45.9088883" lon="8.7712433"><ele>347.0</ele><time>2026-03-22T10:04:28.159Z</time></trkpt><trkpt lat="45.9088567" lon="8.7711517"><ele>347.0</ele><time>2026-03-22T10:04:29.158Z</time></trkpt><trkpt lat="45.9088233" lon="8.77106"><ele>347.0</ele><time>2026-03-22T10:04:30.158Z</time></trkpt><trkpt lat="45.908785" lon="8.77098"><ele>347.5</ele><time>2026-03-22T10:04:31.158Z</time></trkpt><trkpt lat="45.908725" lon="8.77085"><ele>348.0</ele><time>2026-03-22T10:04:33.158Z</time></trkpt><trkpt lat="45.9086817" lon="8.7706883"><ele>348.5</ele><time>2026-03-22T10:04:35.158Z</time></trkpt><trkpt lat="45.9086567" lon="8.7705983"><ele>349.0</ele><time>2026-03-22T10:04:36.158Z</time></trkpt><trkpt lat="45.9086333" lon="8.7705117"><ele>349.5</ele><time>2026-03-22T10:04:37.158Z</time></trkpt><trkpt lat="45.9086033" lon="8.770425"><ele>350.0</ele><time>2026-03-22T10:04:38.158Z</time></trkpt><trkpt lat="45.9085733" lon="8.7703383"><ele>350.0</ele><time>2026-03-22T10:04:39.159Z</time></trkpt><trkpt lat="45.90854" lon="8.7702467"><ele>350.0</ele><time>2026-03-22T10:04:40.158Z</time></trkpt><trkpt lat="45.9085167" lon="8.770155"><ele>350.0</ele><time>2026-03-22T10:04:41.158Z</time></trkpt><trkpt lat="45.90846" lon="8.7700083"><ele>350.0</ele><time>2026-03-22T10:04:43.158Z</time></trkpt><trkpt lat="45.9084017" lon="8.7698367"><ele>350.0</ele><time>2026-03-22T10:04:45.158Z</time></trkpt><trkpt lat="45.9083767" lon="8.7697217"><ele>350.33333333333337</ele><time>2026-03-22T10:04:46.158Z</time></trkpt><trkpt lat="45.9083433" lon="8.7695983"><ele>350.6666666666667</ele><time>2026-03-22T10:04:47.159Z</time></trkpt><trkpt lat="45.908315" lon="8.7694783"><ele>351.0</ele><time>2026-03-22T10:04:48.159Z</time></trkpt><trkpt lat="45.908295" lon="8.7693483"><ele>351.3333333333333</ele><time>2026-03-22T10:04:49.158Z</time></trkpt><trkpt lat="45.908275" lon="8.76924"><ele>351.66666666666663</ele><time>2026-03-22T10:04:50.158Z</time></trkpt><trkpt lat="45.9082567" lon="8.769145"><ele>352.0</ele><time>2026-03-22T10:04:51.159Z</time></trkpt><trkpt lat="45.9082483" lon="8.7690433"><ele>352.0</ele><time>2026-03-22T10:04:52.159Z</time></trkpt><trkpt lat="45.9082417" lon="8.7689433"><ele>352.0</ele><time>2026-03-22T10:04:53.158Z</time></trkpt><trkpt lat="45.9082333" lon="8.7688433"><ele>352.0</ele><time>2026-03-22T10:04:54.159Z</time></trkpt><trkpt lat="45.9082267" lon="8.76875"><ele>352.0</ele><time>2026-03-22T10:04:55.158Z</time></trkpt><trkpt lat="45.9082033" lon="8.7685933"><ele>352.0</ele><time>2026-03-22T10:04:57.158Z</time></trkpt><trkpt lat="45.9081867" lon="8.7684283"><ele>352.0</ele><time>2026-03-22T10:04:59.158Z</time></trkpt><trkpt lat="45.9081667" lon="8.7682667"><ele>352.16666666666663</ele><time>2026-03-22T10:05:01.158Z</time></trkpt><trkpt lat="45.9081367" lon="8.7681683"><ele>352.3333333333333</ele><time>2026-03-22T10:05:02.159Z</time></trkpt><trkpt lat="45.9081" lon="8.7680633"><ele>352.5</ele><time>2026-03-22T10:05:03.159Z</time></trkpt><trkpt lat="45.9080683" lon="8.7679717"><ele>352.6666666666667</ele><time>2026-03-22T10:05:04.159Z</time></trkpt><trkpt lat="45.90801" lon="8.76783"><ele>352.83333333333337</ele><time>2026-03-22T10:05:06.158Z</time></trkpt><trkpt lat="45.90796" lon="8.76774"><ele>353.0</ele><time>2026-03-22T10:05:08.158Z</time></trkpt><trkpt lat="45.907935" lon="8.7676533"><ele>353.0</ele><time>2026-03-22T10:05:10.158Z</time></trkpt><trkpt lat="45.9078917" lon="8.7675733"><ele>353.0</ele><time>2026-03-22T10:05:13.158Z</time></trkpt><trkpt lat="45.9078317" lon="8.7674217"><ele>353.0</ele><time>2026-03-22T10:06:11.159Z</time></trkpt><trkpt lat="45.9077833" lon="8.7673017"><ele>353.0</ele><time>2026-03-22T10:06:15.158Z</time></trkpt><trkpt lat="45.90774" lon="8.7672183"><ele>353.0</ele><time>2026-03-22T10:06:17.159Z</time></trkpt><trkpt lat="45.9076717" lon="8.7671267"><ele>353.0</ele><time>2026-03-22T10:06:20.158Z</time></trkpt><trkpt lat="45.9076083" lon="8.7670433"><ele>353.0</ele><time>2026-03-22T10:06:23.158Z</time></trkpt><trkpt lat="45.90756" lon="8.7669633"><ele>353.0</ele><time>2026-03-22T10:06:25.158Z</time></trkpt><trkpt lat="45.9075033" lon="8.7668733"><ele>353.0</ele><time>2026-03-22T10:06:28.159Z</time></trkpt><trkpt lat="45.9074583" lon="8.7668017"><ele>353.0</ele><time>2026-03-22T10:06:30.158Z</time></trkpt><trkpt lat="45.9074083" lon="8.7667467"><ele>353.0</ele><time>2026-03-22T10:06:32.158Z</time></trkpt><trkpt lat="45.907355" lon="8.7666683"><ele>351.0</ele><time>2026-03-22T10:06:34.158Z</time></trkpt><trkpt lat="45.907295" lon="8.7665683"><ele>349.0</ele><time>2026-03-22T10:06:37.158Z</time></trkpt><trkpt lat="45.907235" lon="8.7664733"><ele>347.0</ele><time>2026-03-22T10:06:39.158Z</time></trkpt><trkpt lat="45.9071833" lon="8.7664017"><ele>345.0</ele><time>2026-03-22T10:06:42.158Z</time></trkpt><trkpt lat="45.9071267" lon="8.766345"><ele>343.0</ele><time>2026-03-22T10:06:49.158Z</time></trkpt><trkpt lat="45.9070833" lon="8.7662783"><ele>341.0</ele><time>2026-03-22T10:07:00.159Z</time></trkpt><trkpt lat="45.907055" lon="8.7661917"><ele>341.0</ele><time>2026-03-22T10:07:37.158Z</time></trkpt><trkpt lat="45.907025" lon="8.7660917"><ele>341.0</ele><time>2026-03-22T10:07:40.158Z</time></trkpt><trkpt lat="45.9069883" lon="8.7660067"><ele>341.0</ele><time>2026-03-22T10:07:55.159Z</time></trkpt><trkpt lat="45.9069633" lon="8.765835"><ele>341.0</ele><time>2026-03-22T10:08:20.158Z</time></trkpt><trkpt lat="45.906945" lon="8.7657467"><ele>341.0</ele><time>2026-03-22T10:08:22.159Z</time></trkpt><trkpt lat="45.9069167" lon="8.7656533"><ele>341.0</ele><time>2026-03-22T10:08:24.158Z</time></trkpt><trkpt lat="45.90689" lon="8.765565"><ele>341.0</ele><time>2026-03-22T10:08:26.158Z</time></trkpt><trkpt lat="45.9068433" lon="8.76547"><ele>341.0</ele><time>2026-03-22T10:08:28.158Z</time></trkpt><trkpt lat="45.9067917" lon="8.7653517"><ele>341.0</ele><time>2026-03-22T10:08:30.159Z</time></trkpt><trkpt lat="45.9067367" lon="8.7652167"><ele>341.0</ele><time>2026-03-22T10:08:32.158Z</time></trkpt><trkpt lat="45.9067083" lon="8.7650717"><ele>341.0</ele><time>2026-03-22T10:08:34.158Z</time></trkpt><trkpt lat="45.9066983" lon="8.7649683"><ele>338.1666666666667</ele><time>2026-03-22T10:08:36.158Z</time></trkpt><trkpt lat="45.90669" lon="8.7648767"><ele>335.33333333333337</ele><time>2026-03-22T10:08:39.158Z</time></trkpt><trkpt lat="45.9067117" lon="8.7647833"><ele>332.5</ele><time>2026-03-22T10:08:44.159Z</time></trkpt><trkpt lat="45.906735" lon="8.76466"><ele>329.6666666666667</ele><time>2026-03-22T10:08:47.158Z</time></trkpt><trkpt lat="45.9067417" lon="8.7645483"><ele>326.8333333333333</ele><time>2026-03-22T10:08:50.158Z</time></trkpt><trkpt lat="45.90673" lon="8.764445"><ele>324.0</ele><time>2026-03-22T10:08:52.158Z</time></trkpt><trkpt lat="45.906685" lon="8.76431"><ele>321.0</ele><time>2026-03-22T10:08:53.159Z</time></trkpt><trkpt lat="45.90664" lon="8.76415"><ele>318.0</ele><time>2026-03-22T10:08:54.159Z</time></trkpt><trkpt lat="45.9065883" lon="8.763975"><ele>315.0</ele><time>2026-03-22T10:08:55.158Z</time></trkpt><trkpt lat="45.906535" lon="8.7637783"><ele>312.0</ele><time>2026-03-22T10:08:56.158Z</time></trkpt><trkpt lat="45.9064883" lon="8.7635783"><ele>309.75</ele><time>2026-03-22T10:08:57.158Z</time></trkpt><trkpt lat="45.9064433" lon="8.7633717"><ele>307.5</ele><time>2026-03-22T10:08:58.158Z</time></trkpt><trkpt lat="45.906395" lon="8.7631533"><ele>305.25</ele><time>2026-03-22T10:08:59.159Z</time></trkpt><trkpt lat="45.9063533" lon="8.762965"><ele>303.0</ele><time>2026-03-22T10:09:00.158Z</time></trkpt><trkpt lat="45.90632" lon="8.762795"><ele>303.5</ele><time>2026-03-22T10:09:01.158Z</time></trkpt><trkpt lat="45.906285" lon="8.762595"><ele>304.0</ele><time>2026-03-22T10:09:02.159Z</time></trkpt><trkpt lat="45.9062483" lon="8.7624067"><ele>304.5</ele><time>2026-03-22T10:09:03.158Z</time></trkpt><trkpt lat="45.9062133" lon="8.7622283"><ele>305.0</ele><time>2026-03-22T10:09:04.158Z</time></trkpt><trkpt lat="45.9061733" lon="8.7620483"><ele>305.0</ele><time>2026-03-22T10:09:05.158Z</time></trkpt><trkpt lat="45.90613" lon="8.7618683"><ele>305.0</ele><time>2026-03-22T10:09:06.158Z</time></trkpt><trkpt lat="45.9060833" lon="8.7616833"><ele>305.0</ele><time>2026-03-22T10:09:07.158Z</time></trkpt><trkpt lat="45.9060367" lon="8.7615133"><ele>305.0</ele><time>2026-03-22T10:09:08.158Z</time></trkpt><trkpt lat="45.9059933" lon="8.7613633"><ele>305.6</ele><time>2026-03-22T10:09:09.159Z</time></trkpt><trkpt lat="45.9059383" lon="8.7612333"><ele>306.2</ele><time>2026-03-22T10:09:10.158Z</time></trkpt><trkpt lat="45.9058783" lon="8.7611133"><ele>306.8</ele><time>2026-03-22T10:09:11.159Z</time></trkpt><trkpt lat="45.90581" lon="8.7609883"><ele>307.4</ele><time>2026-03-22T10:09:12.158Z</time></trkpt><trkpt lat="45.9057483" lon="8.7608567"><ele>308.0</ele><time>2026-03-22T10:09:13.158Z</time></trkpt><trkpt lat="45.9056967" lon="8.7607267"><ele>306.6</ele><time>2026-03-22T10:09:14.158Z</time></trkpt><trkpt lat="45.90564" lon="8.7605883"><ele>305.20000000000005</ele><time>2026-03-22T10:09:15.158Z</time></trkpt><trkpt lat="45.9055933" lon="8.7604483"><ele>303.8</ele><time>2026-03-22T10:09:16.158Z</time></trkpt><trkpt lat="45.905555" lon="8.7603283"><ele>302.40000000000003</ele><time>2026-03-22T10:09:17.159Z</time></trkpt><trkpt lat="45.9055133" lon="8.760215"><ele>301.0</ele><time>2026-03-22T10:09:18.158Z</time></trkpt><trkpt lat="45.9054733" lon="8.76012"><ele>301.0</ele><time>2026-03-22T10:09:19.158Z</time></trkpt><trkpt lat="45.9054333" lon="8.76005"><ele>301.0</ele><time>2026-03-22T10:09:20.158Z</time></trkpt><trkpt lat="45.9053483" lon="8.7599633"><ele>301.0</ele><time>2026-03-22T10:09:22.158Z</time></trkpt><trkpt lat="45.905295" lon="8.7599"><ele>301.0</ele><time>2026-03-22T10:09:23.158Z</time></trkpt><trkpt lat="45.9052417" lon="8.7597983"><ele>301.0</ele><time>2026-03-22T10:09:24.159Z</time></trkpt><trkpt lat="45.9051833" lon="8.75966"><ele>301.0</ele><time>2026-03-22T10:09:25.158Z</time></trkpt><trkpt lat="45.9051217" lon="8.7595"><ele>300.0</ele><time>2026-03-22T10:09:26.158Z</time></trkpt><trkpt lat="45.9050517" lon="8.759345"><ele>299.0</ele><time>2026-03-22T10:09:27.158Z</time></trkpt><trkpt lat="45.9049817" lon="8.7591983"><ele>298.0</ele><time>2026-03-22T10:09:28.158Z</time></trkpt><trkpt lat="45.9049067" lon="8.7590533"><ele>297.0</ele><time>2026-03-22T10:09:29.158Z</time></trkpt><trkpt lat="45.904835" lon="8.7589183"><ele>297.0</ele><time>2026-03-22T10:09:30.158Z</time></trkpt><trkpt lat="45.9047683" lon="8.7587933"><ele>297.0</ele><time>2026-03-22T10:09:31.158Z</time></trkpt><trkpt lat="45.9046933" lon="8.7586583"><ele>297.0</ele><time>2026-03-22T10:09:32.158Z</time></trkpt><trkpt lat="45.9046117" lon="8.75853"><ele>297.0</ele><time>2026-03-22T10:09:33.159Z</time></trkpt><trkpt lat="45.904525" lon="8.758405"><ele>296.8</ele><time>2026-03-22T10:09:34.158Z</time></trkpt><trkpt lat="45.9044417" lon="8.758295"><ele>296.6</ele><time>2026-03-22T10:09:35.158Z</time></trkpt><trkpt lat="45.904355" lon="8.7581933"><ele>296.40000000000003</ele><time>2026-03-22T10:09:36.159Z</time></trkpt><trkpt lat="45.9042717" lon="8.758085"><ele>296.2</ele><time>2026-03-22T10:09:37.158Z</time></trkpt><trkpt lat="45.904185" lon="8.7579867"><ele>296.0</ele><time>2026-03-22T10:09:38.158Z</time></trkpt><trkpt lat="45.904105" lon="8.7578833"><ele>295.83333333333337</ele><time>2026-03-22T10:09:39.158Z</time></trkpt><trkpt lat="45.9040317" lon="8.757775"><ele>295.6666666666667</ele><time>2026-03-22T10:09:40.159Z</time></trkpt><trkpt lat="45.9039733" lon="8.75767"><ele>295.5</ele><time>2026-03-22T10:09:41.159Z</time></trkpt><trkpt lat="45.90393" lon="8.7575783"><ele>295.3333333333333</ele><time>2026-03-22T10:09:42.159Z</time></trkpt><trkpt lat="45.9038917" lon="8.7575033"><ele>295.16666666666663</ele><time>2026-03-22T10:09:43.158Z</time></trkpt><trkpt lat="45.9038417" lon="8.757395"><ele>295.0</ele><time>2026-03-22T10:09:45.158Z</time></trkpt><trkpt lat="45.9037867" lon="8.7573117"><ele>295.5</ele><time>2026-03-22T10:09:47.158Z</time></trkpt><trkpt lat="45.9036767" lon="8.7571917"><ele>296.0</ele><time>2026-03-22T10:09:49.158Z</time></trkpt><trkpt lat="45.9035983" lon="8.7571017"><ele>296.5</ele><time>2026-03-22T10:09:50.158Z</time></trkpt><trkpt lat="45.9035083" lon="8.7570033"><ele>297.0</ele><time>2026-03-22T10:09:51.158Z</time></trkpt><trkpt lat="45.9034217" lon="8.7569067"><ele>296.5</ele><time>2026-03-22T10:09:52.158Z</time></trkpt><trkpt lat="45.9033483" lon="8.7568167"><ele>296.0</ele><time>2026-03-22T10:09:53.158Z</time></trkpt><trkpt lat="45.9032817" lon="8.7567267"><ele>295.5</ele><time>2026-03-22T10:09:54.159Z</time></trkpt><trkpt lat="45.9032183" lon="8.7566383"><ele>295.0</ele><time>2026-03-22T10:09:55.159Z</time></trkpt><trkpt lat="45.9031733" lon="8.7565567"><ele>294.5</ele><time>2026-03-22T10:09:56.158Z</time></trkpt><trkpt lat="45.903135" lon="8.7564783"><ele>294.0</ele><time>2026-03-22T10:09:57.159Z</time></trkpt><trkpt lat="45.9030833" lon="8.7563583"><ele>294.0</ele><time>2026-03-22T10:09:59.158Z</time></trkpt><trkpt lat="45.9030117" lon="8.7564"><ele>294.0</ele><time>2026-03-22T10:10:02.158Z</time></trkpt><trkpt lat="45.9029133" lon="8.7565067"><ele>294.0</ele><time>2026-03-22T10:10:04.159Z</time></trkpt><trkpt lat="45.902815" lon="8.7565433"><ele>294.0</ele><time>2026-03-22T10:10:06.159Z</time></trkpt><trkpt lat="45.9027067" lon="8.7564917"><ele>294.0</ele><time>2026-03-22T10:10:08.159Z</time></trkpt><trkpt lat="45.9026433" lon="8.7564683"><ele>294.0</ele><time>2026-03-22T10:10:09.158Z</time></trkpt><trkpt lat="45.90257" lon="8.7564533"><ele>294.0</ele><time>2026-03-22T10:10:10.158Z</time></trkpt><trkpt lat="45.90249" lon="8.7564433"><ele>294.0</ele><time>2026-03-22T10:10:11.158Z</time></trkpt><trkpt lat="45.9024017" lon="8.7564417"><ele>294.0</ele><time>2026-03-22T10:10:12.158Z</time></trkpt><trkpt lat="45.9023117" lon="8.7564467"><ele>294.0</ele><time>2026-03-22T10:10:13.159Z</time></trkpt><trkpt lat="45.902215" lon="8.7564583"><ele>294.0</ele><time>2026-03-22T10:10:14.159Z</time></trkpt><trkpt lat="45.90211" lon="8.7564817"><ele>294.0</ele><time>2026-03-22T10:10:15.159Z</time></trkpt><trkpt lat="45.90203" lon="8.756495"><ele>294.0</ele><time>2026-03-22T10:10:16.16Z</time></trkpt><trkpt lat="45.901965" lon="8.7565033"><ele>294.0</ele><time>2026-03-22T10:10:17.159Z</time></trkpt><trkpt lat="45.901855" lon="8.756455"><ele>294.0</ele><time>2026-03-22T10:10:19.159Z</time></trkpt><trkpt lat="45.90175" lon="8.7563267"><ele>294.0</ele><time>2026-03-22T10:10:21.16Z</time></trkpt><trkpt lat="45.90169" lon="8.75624"><ele>295.0</ele><time>2026-03-22T10:10:22.16Z</time></trkpt><trkpt lat="45.9016233" lon="8.7561483"><ele>296.0</ele><time>2026-03-22T10:10:23.159Z</time></trkpt><trkpt lat="45.9015467" lon="8.75605"><ele>297.0</ele><time>2026-03-22T10:10:24.16Z</time></trkpt><trkpt lat="45.9014733" lon="8.75594"><ele>298.0</ele><time>2026-03-22T10:10:25.159Z</time></trkpt><trkpt lat="45.9014017" lon="8.7558167"><ele>299.0</ele><time>2026-03-22T10:10:26.16Z</time></trkpt><trkpt lat="45.901325" lon="8.7557167"><ele>299.0</ele><time>2026-03-22T10:10:27.159Z</time></trkpt><trkpt lat="45.9012567" lon="8.75564"><ele>299.0</ele><time>2026-03-22T10:10:28.159Z</time></trkpt><trkpt lat="45.9012" lon="8.755565"><ele>299.0</ele><time>2026-03-22T10:10:29.16Z</time></trkpt><trkpt lat="45.90116" lon="8.7554817"><ele>299.0</ele><time>2026-03-22T10:10:30.159Z</time></trkpt><trkpt lat="45.9011367" lon="8.7553767"><ele>299.0</ele><time>2026-03-22T10:10:31.159Z</time></trkpt><trkpt lat="45.9011033" lon="8.755285"><ele>299.0</ele><time>2026-03-22T10:10:32.159Z</time></trkpt><trkpt lat="45.9010617" lon="8.75519"><ele>297.6666666666667</ele><time>2026-03-22T10:10:33.159Z</time></trkpt><trkpt lat="45.901025" lon="8.7550933"><ele>296.33333333333337</ele><time>2026-03-22T10:10:34.159Z</time></trkpt><trkpt lat="45.9009917" lon="8.7550133"><ele>295.0</ele><time>2026-03-22T10:10:35.16Z</time></trkpt><trkpt lat="45.90092" lon="8.7548817"><ele>293.6666666666667</ele><time>2026-03-22T10:10:37.159Z</time></trkpt><trkpt lat="45.900895" lon="8.7547967"><ele>292.3333333333333</ele><time>2026-03-22T10:10:38.159Z</time></trkpt><trkpt lat="45.9008767" lon="8.7547017"><ele>291.0</ele><time>2026-03-22T10:10:39.159Z</time></trkpt><trkpt lat="45.90085" lon="8.7545967"><ele>292.8333333333333</ele><time>2026-03-22T10:10:40.159Z</time></trkpt><trkpt lat="45.9008217" lon="8.7545017"><ele>294.6666666666667</ele><time>2026-03-22T10:10:41.16Z</time></trkpt><trkpt lat="45.9007883" lon="8.7544233"><ele>296.5</ele><time>2026-03-22T10:10:42.159Z</time></trkpt><trkpt lat="45.9007617" lon="8.7543367"><ele>298.33333333333337</ele><time>2026-03-22T10:10:43.159Z</time></trkpt><trkpt lat="45.900745" lon="8.7542483"><ele>300.1666666666667</ele><time>2026-03-22T10:10:44.159Z</time></trkpt><trkpt lat="45.9007267" lon="8.7540833"><ele>302.0</ele><time>2026-03-22T10:10:46.159Z</time></trkpt><trkpt lat="45.90069" lon="8.7538983"><ele>302.0</ele><time>2026-03-22T10:10:48.159Z</time></trkpt><trkpt lat="45.9006567" lon="8.7537733"><ele>302.0</ele><time>2026-03-22T10:10:49.159Z</time></trkpt><trkpt lat="45.9006083" lon="8.7536417"><ele>302.0</ele><time>2026-03-22T10:10:50.159Z</time></trkpt><trkpt lat="45.9005517" lon="8.7535183"><ele>302.0</ele><time>2026-03-22T10:10:51.159Z</time></trkpt><trkpt lat="45.9004717" lon="8.7533583"><ele>302.0</ele><time>2026-03-22T10:10:52.16Z</time></trkpt><trkpt lat="45.900395" lon="8.75322"><ele>300.2</ele><time>2026-03-22T10:10:53.159Z</time></trkpt><trkpt lat="45.9003283" lon="8.7530867"><ele>298.4</ele><time>2026-03-22T10:10:54.159Z</time></trkpt><trkpt lat="45.9002683" lon="8.7529633"><ele>296.6</ele><time>2026-03-22T10:10:55.159Z</time></trkpt><trkpt lat="45.9002083" lon="8.7528583"><ele>294.8</ele><time>2026-03-22T10:10:56.159Z</time></trkpt><trkpt lat="45.9001617" lon="8.752765"><ele>293.0</ele><time>2026-03-22T10:10:57.159Z</time></trkpt><trkpt lat="45.90012" lon="8.752675"><ele>296.2</ele><time>2026-03-22T10:10:58.159Z</time></trkpt><trkpt lat="45.9000767" lon="8.7525783"><ele>299.4</ele><time>2026-03-22T10:10:59.159Z</time></trkpt><trkpt lat="45.900035" lon="8.7524783"><ele>302.59999999999997</ele><time>2026-03-22T10:11:00.159Z</time></trkpt><trkpt lat="45.899995" lon="8.7523517"><ele>305.8</ele><time>2026-03-22T10:11:01.159Z</time></trkpt><trkpt lat="45.8999533" lon="8.7522033"><ele>309.0</ele><time>2026-03-22T10:11:02.159Z</time></trkpt><trkpt lat="45.8999133" lon="8.752045"><ele>309.0</ele><time>2026-03-22T10:11:03.16Z</time></trkpt><trkpt lat="45.8998733" lon="8.7518917"><ele>309.0</ele><time>2026-03-22T10:11:04.159Z</time></trkpt><trkpt lat="45.89983" lon="8.751735"><ele>309.0</ele><time>2026-03-22T10:11:05.159Z</time></trkpt><trkpt lat="45.8997917" lon="8.7516"><ele>309.0</ele><time>2026-03-22T10:11:06.159Z</time></trkpt><trkpt lat="45.8997617" lon="8.751465"><ele>309.0</ele><time>2026-03-22T10:11:07.159Z</time></trkpt><trkpt lat="45.899735" lon="8.7513533"><ele>307.5</ele><time>2026-03-22T10:11:08.159Z</time></trkpt><trkpt lat="45.899705" lon="8.75126"><ele>306.0</ele><time>2026-03-22T10:11:09.159Z</time></trkpt><trkpt lat="45.8996517" lon="8.7510917"><ele>304.5</ele><time>2026-03-22T10:11:11.159Z</time></trkpt><trkpt lat="45.89961" lon="8.7509967"><ele>303.0</ele><time>2026-03-22T10:11:12.159Z</time></trkpt><trkpt lat="45.89956" lon="8.7508967"><ele>301.5</ele><time>2026-03-22T10:11:13.159Z</time></trkpt><trkpt lat="45.89952" lon="8.7508133"><ele>300.0</ele><time>2026-03-22T10:11:14.16Z</time></trkpt><trkpt lat="45.89949" lon="8.7506833"><ele>299.2</ele><time>2026-03-22T10:11:16.159Z</time></trkpt><trkpt lat="45.8995117" lon="8.7505683"><ele>298.4</ele><time>2026-03-22T10:11:18.159Z</time></trkpt><trkpt lat="45.8994983" lon="8.7504267"><ele>297.6</ele><time>2026-03-22T10:11:20.159Z</time></trkpt><trkpt lat="45.8994933" lon="8.750245"><ele>296.8</ele><time>2026-03-22T10:11:22.159Z</time></trkpt><trkpt lat="45.8994817" lon="8.7500717"><ele>296.0</ele><time>2026-03-22T10:11:24.16Z</time></trkpt><trkpt lat="45.8994633" lon="8.7499583"><ele>295.0</ele><time>2026-03-22T10:11:25.159Z</time></trkpt><trkpt lat="45.8994333" lon="8.7498217"><ele>294.0</ele><time>2026-03-22T10:11:26.159Z</time></trkpt><trkpt lat="45.8993933" lon="8.7496917"><ele>293.0</ele><time>2026-03-22T10:11:27.159Z</time></trkpt><trkpt lat="45.8993433" lon="8.7495667"><ele>292.0</ele><time>2026-03-22T10:11:28.159Z</time></trkpt><trkpt lat="45.899295" lon="8.7494583"><ele>291.0</ele><time>2026-03-22T10:11:29.16Z</time></trkpt><trkpt lat="45.89925" lon="8.7493383"><ele>295.5</ele><time>2026-03-22T10:11:30.159Z</time></trkpt><trkpt lat="45.899225" lon="8.7491867"><ele>300.0</ele><time>2026-03-22T10:11:31.159Z</time></trkpt><trkpt lat="45.8992167" lon="8.7490233"><ele>304.5</ele><time>2026-03-22T10:11:32.16Z</time></trkpt><trkpt lat="45.8992217" lon="8.7488617"><ele>309.0</ele><time>2026-03-22T10:11:33.159Z</time></trkpt><trkpt lat="45.8992367" lon="8.7486917"><ele>303.5</ele><time>2026-03-22T10:11:34.16Z</time></trkpt><trkpt lat="45.89926" lon="8.7485183"><ele>298.0</ele><time>2026-03-22T10:11:35.159Z</time></trkpt><trkpt lat="45.8992767" lon="8.7483583"><ele>292.5</ele><time>2026-03-22T10:11:36.159Z</time></trkpt><trkpt lat="45.8992967" lon="8.7482033"><ele>287.0</ele><time>2026-03-22T10:11:37.159Z</time></trkpt><trkpt lat="45.89932" lon="8.7480567"><ele>287.0</ele><time>2026-03-22T10:11:38.16Z</time></trkpt><trkpt lat="45.89934" lon="8.7479133"><ele>287.0</ele><time>2026-03-22T10:11:39.159Z</time></trkpt><trkpt lat="45.89935" lon="8.74777"><ele>287.0</ele><time>2026-03-22T10:11:40.159Z</time></trkpt><trkpt lat="45.899345" lon="8.74762"><ele>287.0</ele><time>2026-03-22T10:11:41.159Z</time></trkpt><trkpt lat="45.8993217" lon="8.747455"><ele>287.0</ele><time>2026-03-22T10:11:42.16Z</time></trkpt><trkpt lat="45.8992967" lon="8.7472833"><ele>287.0</ele><time>2026-03-22T10:11:43.159Z</time></trkpt><trkpt lat="45.8992717" lon="8.7470967"><ele>287.0</ele><time>2026-03-22T10:11:44.159Z</time></trkpt><trkpt lat="45.8992467" lon="8.7469033"><ele>287.0</ele><time>2026-03-22T10:11:45.159Z</time></trkpt><trkpt lat="45.8992283" lon="8.7467067"><ele>287.0</ele><time>2026-03-22T10:11:46.159Z</time></trkpt><trkpt lat="45.8992233" lon="8.7465033"><ele>287.0</ele><time>2026-03-22T10:11:47.159Z</time></trkpt><trkpt lat="45.899225" lon="8.746305"><ele>287.0</ele><time>2026-03-22T10:11:48.16Z</time></trkpt><trkpt lat="45.89924" lon="8.7461183"><ele>287.0</ele><time>2026-03-22T10:11:49.16Z</time></trkpt><trkpt lat="45.8992567" lon="8.74594"><ele>287.0</ele><time>2026-03-22T10:11:50.16Z</time></trkpt><trkpt lat="45.899275" lon="8.7457983"><ele>287.0</ele><time>2026-03-22T10:11:51.159Z</time></trkpt><trkpt lat="45.8992817" lon="8.7456667"><ele>287.0</ele><time>2026-03-22T10:11:52.16Z</time></trkpt><trkpt lat="45.8992833" lon="8.7455267"><ele>287.0</ele><time>2026-03-22T10:11:53.159Z</time></trkpt><trkpt lat="45.8992883" lon="8.7453633"><ele>287.0</ele><time>2026-03-22T10:11:54.159Z</time></trkpt><trkpt lat="45.8992867" lon="8.7451733"><ele>287.0</ele><time>2026-03-22T10:11:55.16Z</time></trkpt><trkpt lat="45.8992867" lon="8.74497"><ele>285.6666666666667</ele><time>2026-03-22T10:11:56.159Z</time></trkpt><trkpt lat="45.8992917" lon="8.74474"><ele>284.3333333333333</ele><time>2026-03-22T10:11:57.16Z</time></trkpt><trkpt lat="45.8992983" lon="8.744515"><ele>283.0</ele><time>2026-03-22T10:11:58.159Z</time></trkpt><trkpt lat="45.8993033" lon="8.7443"><ele>281.66666666666663</ele><time>2026-03-22T10:11:59.16Z</time></trkpt><trkpt lat="45.8993" lon="8.7440633"><ele>280.3333333333333</ele><time>2026-03-22T10:12:00.16Z</time></trkpt><trkpt lat="45.89929" lon="8.743825"><ele>279.0</ele><time>2026-03-22T10:12:01.16Z</time></trkpt><trkpt lat="45.8992767" lon="8.7436117"><ele>279.25</ele><time>2026-03-22T10:12:02.159Z</time></trkpt><trkpt lat="45.8992683" lon="8.74341"><ele>279.5</ele><time>2026-03-22T10:12:03.16Z</time></trkpt><trkpt lat="45.8992567" lon="8.7432117"><ele>279.75</ele><time>2026-03-22T10:12:04.16Z</time></trkpt><trkpt lat="45.899255" lon="8.7430233"><ele>280.0</ele><time>2026-03-22T10:12:05.159Z</time></trkpt><trkpt lat="45.899235" lon="8.7428383"><ele>283.5</ele><time>2026-03-22T10:12:06.159Z</time></trkpt><trkpt lat="45.899215" lon="8.74264"><ele>287.0</ele><time>2026-03-22T10:12:07.159Z</time></trkpt><trkpt lat="45.8991733" lon="8.742435"><ele>290.5</ele><time>2026-03-22T10:12:08.16Z</time></trkpt><trkpt lat="45.8991217" lon="8.74223"><ele>294.0</ele><time>2026-03-22T10:12:09.159Z</time></trkpt><trkpt lat="45.899075" lon="8.742045"><ele>292.5</ele><time>2026-03-22T10:12:10.159Z</time></trkpt><trkpt lat="45.899035" lon="8.7418667"><ele>291.0</ele><time>2026-03-22T10:12:11.159Z</time></trkpt><trkpt lat="45.8990317" lon="8.7417"><ele>289.5</ele><time>2026-03-22T10:12:12.159Z</time></trkpt><trkpt lat="45.8990467" lon="8.7415267"><ele>288.0</ele><time>2026-03-22T10:12:13.159Z</time></trkpt><trkpt lat="45.8990933" lon="8.7413533"><ele>288.0</ele><time>2026-03-22T10:12:14.159Z</time></trkpt><trkpt lat="45.8991517" lon="8.7411617"><ele>288.0</ele><time>2026-03-22T10:12:15.159Z</time></trkpt><trkpt lat="45.899215" lon="8.740975"><ele>288.0</ele><time>2026-03-22T10:12:16.159Z</time></trkpt><trkpt lat="45.8992783" lon="8.74079"><ele>288.0</ele><time>2026-03-22T10:12:17.159Z</time></trkpt><trkpt lat="45.89933" lon="8.7405917"><ele>286.0</ele><time>2026-03-22T10:12:18.159Z</time></trkpt><trkpt lat="45.8993567" lon="8.74039"><ele>284.0</ele><time>2026-03-22T10:12:19.16Z</time></trkpt><trkpt lat="45.899365" lon="8.740185"><ele>282.0</ele><time>2026-03-22T10:12:20.159Z</time></trkpt><trkpt lat="45.8993717" lon="8.739975"><ele>280.0</ele><time>2026-03-22T10:12:21.16Z</time></trkpt><trkpt lat="45.8993717" lon="8.7397483"><ele>279.75</ele><time>2026-03-22T10:12:22.159Z</time></trkpt><trkpt lat="45.899365" lon="8.73955"><ele>279.5</ele><time>2026-03-22T10:12:23.159Z</time></trkpt><trkpt lat="45.8993567" lon="8.7393583"><ele>279.25</ele><time>2026-03-22T10:12:24.159Z</time></trkpt><trkpt lat="45.89935" lon="8.7391517"><ele>279.0</ele><time>2026-03-22T10:12:25.159Z</time></trkpt><trkpt lat="45.899345" lon="8.73894"><ele>278.75</ele><time>2026-03-22T10:12:26.159Z</time></trkpt><trkpt lat="45.8993383" lon="8.73874"><ele>278.5</ele><time>2026-03-22T10:12:27.159Z</time></trkpt><trkpt lat="45.899325" lon="8.7385617"><ele>278.25</ele><time>2026-03-22T10:12:28.159Z</time></trkpt><trkpt lat="45.899325" lon="8.7383867"><ele>278.0</ele><time>2026-03-22T10:12:29.159Z</time></trkpt><trkpt lat="45.89933" lon="8.7382317"><ele>278.0</ele><time>2026-03-22T10:12:30.159Z</time></trkpt><trkpt lat="45.8993333" lon="8.7380967"><ele>278.0</ele><time>2026-03-22T10:12:31.159Z</time></trkpt><trkpt lat="45.8993433" lon="8.7379817"><ele>278.0</ele><time>2026-03-22T10:12:32.159Z</time></trkpt><trkpt lat="45.89936" lon="8.7378833"><ele>278.0</ele><time>2026-03-22T10:12:33.159Z</time></trkpt><trkpt lat="45.8993633" lon="8.7377733"><ele>278.0</ele><time>2026-03-22T10:12:34.159Z</time></trkpt><trkpt lat="45.8993583" lon="8.7376533"><ele>278.0</ele><time>2026-03-22T10:12:35.159Z</time></trkpt><trkpt lat="45.8993333" lon="8.7375133"><ele>278.0</ele><time>2026-03-22T10:12:36.159Z</time></trkpt><trkpt lat="45.8992983" lon="8.737355"><ele>278.0</ele><time>2026-03-22T10:12:37.159Z</time></trkpt><trkpt lat="45.8992633" lon="8.73719"><ele>278.0</ele><time>2026-03-22T10:12:38.159Z</time></trkpt><trkpt lat="45.8992217" lon="8.7370383"><ele>278.0</ele><time>2026-03-22T10:12:39.159Z</time></trkpt><trkpt lat="45.89917" lon="8.7368733"><ele>278.6</ele><time>2026-03-22T10:12:40.159Z</time></trkpt><trkpt lat="45.8991117" lon="8.736715"><ele>279.20000000000005</ele><time>2026-03-22T10:12:41.16Z</time></trkpt><trkpt lat="45.899045" lon="8.7365917"><ele>279.8</ele><time>2026-03-22T10:12:42.159Z</time></trkpt><trkpt lat="45.898995" lon="8.736475"><ele>280.40000000000003</ele><time>2026-03-22T10:12:43.159Z</time></trkpt><trkpt lat="45.89895" lon="8.7363817"><ele>281.0</ele><time>2026-03-22T10:12:44.159Z</time></trkpt><trkpt lat="45.89891" lon="8.7363033"><ele>281.0</ele><time>2026-03-22T10:12:45.16Z</time></trkpt><trkpt lat="45.8988667" lon="8.736185"><ele>281.0</ele><time>2026-03-22T10:12:47.159Z</time></trkpt><trkpt lat="45.8989067" lon="8.7361033"><ele>281.0</ele><time>2026-03-22T10:12:48.159Z</time></trkpt><trkpt lat="45.898935" lon="8.735975"><ele>281.0</ele><time>2026-03-22T10:12:49.16Z</time></trkpt><trkpt lat="45.8989483" lon="8.7358183"><ele>281.0</ele><time>2026-03-22T10:12:50.16Z</time></trkpt><trkpt lat="45.8989517" lon="8.7356667"><ele>281.2</ele><time>2026-03-22T10:12:51.16Z</time></trkpt><trkpt lat="45.8989567" lon="8.7355533"><ele>281.40000000000003</ele><time>2026-03-22T10:12:52.159Z</time></trkpt><trkpt lat="45.898995" lon="8.7354033"><ele>281.6</ele><time>2026-03-22T10:12:54.159Z</time></trkpt><trkpt lat="45.8991333" lon="8.735375"><ele>281.8</ele><time>2026-03-22T10:12:56.159Z</time></trkpt><trkpt lat="45.8992367" lon="8.7353833"><ele>282.0</ele><time>2026-03-22T10:12:57.159Z</time></trkpt><trkpt lat="45.8993233" lon="8.7353817"><ele>281.8</ele><time>2026-03-22T10:12:58.159Z</time></trkpt><trkpt lat="45.8993867" lon="8.7353633"><ele>281.6</ele><time>2026-03-22T10:12:59.159Z</time></trkpt><trkpt lat="45.899455" lon="8.7352217"><ele>281.40000000000003</ele><time>2026-03-22T10:13:01.159Z</time></trkpt><trkpt lat="45.8994583" lon="8.7350833"><ele>281.2</ele><time>2026-03-22T10:13:02.159Z</time></trkpt><trkpt lat="45.89945" lon="8.7349267"><ele>281.0</ele><time>2026-03-22T10:13:03.16Z</time></trkpt><trkpt lat="45.899445" lon="8.734765"><ele>281.0</ele><time>2026-03-22T10:13:04.16Z</time></trkpt><trkpt lat="45.899445" lon="8.7345983"><ele>281.0</ele><time>2026-03-22T10:13:05.16Z</time></trkpt><trkpt lat="45.8994383" lon="8.734445"><ele>281.0</ele><time>2026-03-22T10:13:06.159Z</time></trkpt><trkpt lat="45.8994367" lon="8.7343183"><ele>281.0</ele><time>2026-03-22T10:13:07.159Z</time></trkpt><trkpt lat="45.8994417" lon="8.7342183"><ele>281.0</ele><time>2026-03-22T10:13:08.16Z</time></trkpt><trkpt lat="45.89944" lon="8.7340917"><ele>281.2</ele><time>2026-03-22T10:13:10.159Z</time></trkpt><trkpt lat="45.899415" lon="8.7338983"><ele>281.40000000000003</ele><time>2026-03-22T10:13:24.159Z</time></trkpt><trkpt lat="45.8994" lon="8.7337717"><ele>281.6</ele><time>2026-03-22T10:13:25.159Z</time></trkpt><trkpt lat="45.8993967" lon="8.7336433"><ele>281.8</ele><time>2026-03-22T10:13:26.159Z</time></trkpt><trkpt lat="45.8993917" lon="8.7335133"><ele>282.0</ele><time>2026-03-22T10:13:27.159Z</time></trkpt><trkpt lat="45.8993833" lon="8.7333817"><ele>282.2</ele><time>2026-03-22T10:13:28.159Z</time></trkpt><trkpt lat="45.8993717" lon="8.7332417"><ele>282.4</ele><time>2026-03-22T10:13:29.159Z</time></trkpt><trkpt lat="45.8993483" lon="8.7330967"><ele>282.6</ele><time>2026-03-22T10:13:30.16Z</time></trkpt><trkpt lat="45.8993267" lon="8.73296"><ele>282.8</ele><time>2026-03-22T10:13:31.159Z</time></trkpt><trkpt lat="45.89931" lon="8.7328517"><ele>283.0</ele><time>2026-03-22T10:13:32.159Z</time></trkpt><trkpt lat="45.8992967" lon="8.7327217"><ele>283.2</ele><time>2026-03-22T10:13:34.159Z</time></trkpt><trkpt lat="45.8994017" lon="8.7326417"><ele>283.4</ele><time>2026-03-22T10:13:37.159Z</time></trkpt><trkpt lat="45.8994817" lon="8.7326133"><ele>283.59999999999997</ele><time>2026-03-22T10:13:38.16Z</time></trkpt><trkpt lat="45.8995783" lon="8.7325783"><ele>283.8</ele><time>2026-03-22T10:13:39.16Z</time></trkpt><trkpt lat="45.8996833" lon="8.7325333"><ele>284.0</ele><time>2026-03-22T10:13:40.159Z</time></trkpt><trkpt lat="45.89979" lon="8.7324933"><ele>284.0</ele><time>2026-03-22T10:13:41.16Z</time></trkpt><trkpt lat="45.8998867" lon="8.73246"><ele>284.0</ele><time>2026-03-22T10:13:42.16Z</time></trkpt><trkpt lat="45.899975" lon="8.73242"><ele>284.0</ele><time>2026-03-22T10:13:43.16Z</time></trkpt><trkpt lat="45.9000533" lon="8.7323967"><ele>284.0</ele><time>2026-03-22T10:13:44.16Z</time></trkpt><trkpt lat="45.9001267" lon="8.7323667"><ele>284.0</ele><time>2026-03-22T10:13:45.159Z</time></trkpt><trkpt lat="45.900235" lon="8.7323333"><ele>283.59999999999997</ele><time>2026-03-22T10:13:47.159Z</time></trkpt><trkpt lat="45.9003467" lon="8.732405"><ele>283.2</ele><time>2026-03-22T10:13:49.16Z</time></trkpt><trkpt lat="45.900415" lon="8.7324733"><ele>282.79999999999995</ele><time>2026-03-22T10:13:50.159Z</time></trkpt><trkpt lat="45.90049" lon="8.732545"><ele>282.4</ele><time>2026-03-22T10:13:51.16Z</time></trkpt><trkpt lat="45.9005583" lon="8.7326183"><ele>282.0</ele><time>2026-03-22T10:13:52.159Z</time></trkpt><trkpt lat="45.9006133" lon="8.7326967"><ele>282.0</ele><time>2026-03-22T10:13:53.159Z</time></trkpt><trkpt lat="45.9006767" lon="8.7327717"><ele>282.0</ele><time>2026-03-22T10:13:54.159Z</time></trkpt><trkpt lat="45.90074" lon="8.732855"><ele>282.0</ele><time>2026-03-22T10:13:55.159Z</time></trkpt><trkpt lat="45.900805" lon="8.7329567"><ele>282.0</ele><time>2026-03-22T10:13:56.159Z</time></trkpt><trkpt lat="45.9008683" lon="8.7330567"><ele>282.0</ele><time>2026-03-22T10:13:57.159Z</time></trkpt><trkpt lat="45.9009217" lon="8.7331483"><ele>282.0</ele><time>2026-03-22T10:13:58.159Z</time></trkpt><trkpt lat="45.9009767" lon="8.733225"><ele>282.0</ele><time>2026-03-22T10:13:59.159Z</time></trkpt><trkpt lat="45.9010317" lon="8.7333"><ele>282.0</ele><time>2026-03-22T10:14:00.159Z</time></trkpt><trkpt lat="45.9010833" lon="8.73337"><ele>282.0</ele><time>2026-03-22T10:14:01.159Z</time></trkpt><trkpt lat="45.9011383" lon="8.7335017"><ele>282.0</ele><time>2026-03-22T10:14:03.16Z</time></trkpt><trkpt lat="45.9011483" lon="8.7336"><ele>282.0</ele><time>2026-03-22T10:14:05.159Z</time></trkpt><trkpt lat="45.9011467" lon="8.7337183"><ele>282.0</ele><time>2026-03-22T10:14:08.16Z</time></trkpt><trkpt lat="45.901205" lon="8.7337983"><ele>282.0</ele><time>2026-03-22T10:14:10.159Z</time></trkpt><trkpt lat="45.9013383" lon="8.7338367"><ele>282.0</ele><time>2026-03-22T10:14:12.159Z</time></trkpt><trkpt lat="45.9014417" lon="8.7338517"><ele>282.0</ele><time>2026-03-22T10:14:13.16Z</time></trkpt><trkpt lat="45.9015533" lon="8.7338567"><ele>282.0</ele><time>2026-03-22T10:14:14.16Z</time></trkpt><trkpt lat="45.9016733" lon="8.7338633"><ele>282.25</ele><time>2026-03-22T10:14:15.159Z</time></trkpt><trkpt lat="45.9018017" lon="8.7338567"><ele>282.5</ele><time>2026-03-22T10:14:16.159Z</time></trkpt><trkpt lat="45.9019283" lon="8.733845"><ele>282.75</ele><time>2026-03-22T10:14:17.16Z</time></trkpt><trkpt lat="45.9020467" lon="8.7338267"><ele>283.0</ele><time>2026-03-22T10:14:18.16Z</time></trkpt><trkpt lat="45.90216" lon="8.7338067"><ele>283.0</ele><time>2026-03-22T10:14:19.16Z</time></trkpt><trkpt lat="45.9022783" lon="8.733765"><ele>283.0</ele><time>2026-03-22T10:14:20.16Z</time></trkpt><trkpt lat="45.902395" lon="8.7337317"><ele>283.0</ele><time>2026-03-22T10:14:21.159Z</time></trkpt><trkpt lat="45.9025133" lon="8.733705"><ele>283.0</ele><time>2026-03-22T10:14:22.159Z</time></trkpt><trkpt lat="45.9026267" lon="8.7336767"><ele>283.6</ele><time>2026-03-22T10:14:23.159Z</time></trkpt><trkpt lat="45.9027433" lon="8.7336433"><ele>284.20000000000005</ele><time>2026-03-22T10:14:24.159Z</time></trkpt><trkpt lat="45.90286" lon="8.73361"><ele>284.8</ele><time>2026-03-22T10:14:25.159Z</time></trkpt><trkpt lat="45.9029633" lon="8.733585"><ele>285.40000000000003</ele><time>2026-03-22T10:14:26.159Z</time></trkpt><trkpt lat="45.903055" lon="8.7335583"><ele>286.0</ele><time>2026-03-22T10:14:27.159Z</time></trkpt><trkpt lat="45.90314" lon="8.7335417"><ele>286.0</ele><time>2026-03-22T10:14:28.159Z</time></trkpt><trkpt lat="45.9032183" lon="8.7335333"><ele>286.0</ele><time>2026-03-22T10:14:29.16Z</time></trkpt><trkpt lat="45.903295" lon="8.7335233"><ele>286.0</ele><time>2026-03-22T10:14:30.159Z</time></trkpt><trkpt lat="45.9033583" lon="8.733505"><ele>286.0</ele><time>2026-03-22T10:14:31.159Z</time></trkpt><trkpt lat="45.9034633" lon="8.7334767"><ele>286.0</ele><time>2026-03-22T10:14:33.159Z</time></trkpt><trkpt lat="45.9034967" lon="8.733355"><ele>286.0</ele><time>2026-03-22T10:14:35.16Z</time></trkpt><trkpt lat="45.9035" lon="8.7332333"><ele>286.75</ele><time>2026-03-22T10:14:36.159Z</time></trkpt><trkpt lat="45.9035133" lon="8.7330867"><ele>287.5</ele><time>2026-03-22T10:14:37.159Z</time></trkpt><trkpt lat="45.9035233" lon="8.73293"><ele>288.25</ele><time>2026-03-22T10:14:38.159Z</time></trkpt><trkpt lat="45.903545" lon="8.73276"><ele>289.0</ele><time>2026-03-22T10:14:39.16Z</time></trkpt><trkpt lat="45.90358" lon="8.73259"><ele>289.0</ele><time>2026-03-22T10:14:40.159Z</time></trkpt><trkpt lat="45.903605" lon="8.7324317"><ele>289.0</ele><time>2026-03-22T10:14:41.159Z</time></trkpt><trkpt lat="45.9036283" lon="8.73228"><ele>289.0</ele><time>2026-03-22T10:14:42.159Z</time></trkpt><trkpt lat="45.90365" lon="8.7321267"><ele>289.0</ele><time>2026-03-22T10:14:43.159Z</time></trkpt><trkpt lat="45.903675" lon="8.7319917"><ele>289.0</ele><time>2026-03-22T10:14:44.16Z</time></trkpt><trkpt lat="45.9037083" lon="8.7318567"><ele>289.0</ele><time>2026-03-22T10:14:45.159Z</time></trkpt><trkpt lat="45.9037467" lon="8.7317017"><ele>289.0</ele><time>2026-03-22T10:14:46.159Z</time></trkpt><trkpt lat="45.9037867" lon="8.7315117"><ele>289.0</ele><time>2026-03-22T10:14:47.159Z</time></trkpt><trkpt lat="45.90384" lon="8.7312933"><ele>289.0</ele><time>2026-03-22T10:14:48.159Z</time></trkpt><trkpt lat="45.9038883" lon="8.7311017"><ele>289.0</ele><time>2026-03-22T10:14:49.159Z</time></trkpt><trkpt lat="45.9039333" lon="8.7309133"><ele>289.0</ele><time>2026-03-22T10:14:50.159Z</time></trkpt><trkpt lat="45.9039933" lon="8.730705"><ele>289.0</ele><time>2026-03-22T10:14:51.159Z</time></trkpt><trkpt lat="45.9040667" lon="8.7304867"><ele>289.0</ele><time>2026-03-22T10:14:52.159Z</time></trkpt><trkpt lat="45.90414" lon="8.730275"><ele>289.0</ele><time>2026-03-22T10:14:53.16Z</time></trkpt><trkpt lat="45.9042083" lon="8.7300783"><ele>289.0</ele><time>2026-03-22T10:14:54.159Z</time></trkpt><trkpt lat="45.9042667" lon="8.72991"><ele>289.0</ele><time>2026-03-22T10:14:55.16Z</time></trkpt><trkpt lat="45.904335" lon="8.72976"><ele>289.2</ele><time>2026-03-22T10:14:56.159Z</time></trkpt><trkpt lat="45.9044033" lon="8.72962"><ele>289.4</ele><time>2026-03-22T10:14:57.16Z</time></trkpt><trkpt lat="45.9044617" lon="8.7295"><ele>289.6</ele><time>2026-03-22T10:14:58.159Z</time></trkpt><trkpt lat="45.9045167" lon="8.7293917"><ele>289.8</ele><time>2026-03-22T10:14:59.159Z</time></trkpt><trkpt lat="45.9045533" lon="8.7293033"><ele>290.0</ele><time>2026-03-22T10:15:00.159Z</time></trkpt><trkpt lat="45.9046383" lon="8.72921"><ele>290.0</ele><time>2026-03-22T10:15:02.159Z</time></trkpt><trkpt lat="45.904725" lon="8.7291583"><ele>290.0</ele><time>2026-03-22T10:15:05.159Z</time></trkpt><trkpt lat="45.904785" lon="8.7290183"><ele>290.0</ele><time>2026-03-22T10:15:07.16Z</time></trkpt><trkpt lat="45.9048167" lon="8.7289083"><ele>290.0</ele><time>2026-03-22T10:15:08.159Z</time></trkpt><trkpt lat="45.9048417" lon="8.72878"><ele>290.0</ele><time>2026-03-22T10:15:09.159Z</time></trkpt><trkpt lat="45.9048783" lon="8.728635"><ele>289.75</ele><time>2026-03-22T10:15:10.159Z</time></trkpt><trkpt lat="45.90492" lon="8.7284733"><ele>289.5</ele><time>2026-03-22T10:15:11.159Z</time></trkpt><trkpt lat="45.90496" lon="8.7283083"><ele>289.25</ele><time>2026-03-22T10:15:12.159Z</time></trkpt><trkpt lat="45.9049933" lon="8.72815"><ele>289.0</ele><time>2026-03-22T10:15:13.16Z</time></trkpt><trkpt lat="45.9050283" lon="8.7280033"><ele>289.0</ele><time>2026-03-22T10:15:14.159Z</time></trkpt><trkpt lat="45.9050633" lon="8.7278583"><ele>289.0</ele><time>2026-03-22T10:15:15.159Z</time></trkpt><trkpt lat="45.9050933" lon="8.7277217"><ele>289.0</ele><time>2026-03-22T10:15:16.159Z</time></trkpt><trkpt lat="45.9051167" lon="8.7275983"><ele>289.0</ele><time>2026-03-22T10:15:17.159Z</time></trkpt><trkpt lat="45.90514" lon="8.727495"><ele>289.0</ele><time>2026-03-22T10:15:18.159Z</time></trkpt><trkpt lat="45.905165" lon="8.727405"><ele>289.0</ele><time>2026-03-22T10:15:19.159Z</time></trkpt><trkpt lat="45.905195" lon="8.72732"><ele>289.14285714285717</ele><time>2026-03-22T10:15:20.159Z</time></trkpt><trkpt lat="45.9052333" lon="8.72724"><ele>289.2857142857143</ele><time>2026-03-22T10:15:21.159Z</time></trkpt><trkpt lat="45.9052783" lon="8.7271567"><ele>289.42857142857144</ele><time>2026-03-22T10:15:22.159Z</time></trkpt><trkpt lat="45.905315" lon="8.7270717"><ele>289.57142857142856</ele><time>2026-03-22T10:15:23.16Z</time></trkpt><trkpt lat="45.9053367" lon="8.7269733"><ele>289.7142857142857</ele><time>2026-03-22T10:15:24.159Z</time></trkpt><trkpt lat="45.90533" lon="8.7268783"><ele>289.8571428571429</ele><time>2026-03-22T10:15:25.159Z</time></trkpt><trkpt lat="45.905295" lon="8.7267933"><ele>290.0</ele><time>2026-03-22T10:15:26.16Z</time></trkpt><trkpt lat="45.9052417" lon="8.72673"><ele>289.6</ele><time>2026-03-22T10:15:27.16Z</time></trkpt><trkpt lat="45.9051617" lon="8.7266867"><ele>289.2</ele><time>2026-03-22T10:15:28.159Z</time></trkpt><trkpt lat="45.905065" lon="8.7266283"><ele>288.8</ele><time>2026-03-22T10:15:29.159Z</time></trkpt><trkpt lat="45.9049717" lon="8.72654"><ele>288.4</ele><time>2026-03-22T10:15:30.159Z</time></trkpt><trkpt lat="45.9048817" lon="8.7264233"><ele>288.0</ele><time>2026-03-22T10:15:31.16Z</time></trkpt><trkpt lat="45.9047883" lon="8.72628"><ele>287.5</ele><time>2026-03-22T10:15:32.16Z</time></trkpt><trkpt lat="45.9047" lon="8.72614"><ele>287.0</ele><time>2026-03-22T10:15:33.159Z</time></trkpt><trkpt lat="45.9046167" lon="8.726015"><ele>286.5</ele><time>2026-03-22T10:15:34.159Z</time></trkpt><trkpt lat="45.9045417" lon="8.7259017"><ele>286.0</ele><time>2026-03-22T10:15:35.159Z</time></trkpt><trkpt lat="45.9044667" lon="8.7258067"><ele>285.5</ele><time>2026-03-22T10:15:36.159Z</time></trkpt><trkpt lat="45.9043833" lon="8.72573"><ele>285.0</ele><time>2026-03-22T10:15:37.16Z</time></trkpt><trkpt lat="45.9042783" lon="8.7256733"><ele>284.5</ele><time>2026-03-22T10:15:38.159Z</time></trkpt><trkpt lat="45.904155" lon="8.7256267"><ele>284.0</ele><time>2026-03-22T10:15:39.159Z</time></trkpt><trkpt lat="45.9040217" lon="8.7255833"><ele>283.75</ele><time>2026-03-22T10:15:40.159Z</time></trkpt><trkpt lat="45.903895" lon="8.7255467"><ele>283.5</ele><time>2026-03-22T10:15:41.159Z</time></trkpt><trkpt lat="45.9037717" lon="8.725515"><ele>283.25</ele><time>2026-03-22T10:15:42.159Z</time></trkpt><trkpt lat="45.90365" lon="8.7254733"><ele>283.0</ele><time>2026-03-22T10:15:43.159Z</time></trkpt><trkpt lat="45.9035333" lon="8.725435"><ele>282.5</ele><time>2026-03-22T10:15:44.159Z</time></trkpt><trkpt lat="45.9034083" lon="8.7254083"><ele>282.0</ele><time>2026-03-22T10:15:45.159Z</time></trkpt><trkpt lat="45.9032783" lon="8.72538"><ele>281.5</ele><time>2026-03-22T10:15:46.16Z</time></trkpt><trkpt lat="45.9031433" lon="8.725355"><ele>281.0</ele><time>2026-03-22T10:15:47.159Z</time></trkpt><trkpt lat="45.9030033" lon="8.7253233"><ele>281.0</ele><time>2026-03-22T10:15:48.159Z</time></trkpt><trkpt lat="45.902875" lon="8.7252983"><ele>281.0</ele><time>2026-03-22T10:15:49.159Z</time></trkpt><trkpt lat="45.9027533" lon="8.7252733"><ele>281.0</ele><time>2026-03-22T10:15:50.159Z</time></trkpt><trkpt lat="45.9026467" lon="8.7252483"><ele>281.0</ele><time>2026-03-22T10:15:51.159Z</time></trkpt><trkpt lat="45.9025433" lon="8.725225"><ele>280.8</ele><time>2026-03-22T10:15:52.159Z</time></trkpt><trkpt lat="45.902455" lon="8.7252033"><ele>280.6</ele><time>2026-03-22T10:15:53.159Z</time></trkpt><trkpt lat="45.902365" lon="8.725195"><ele>280.4</ele><time>2026-03-22T10:15:54.159Z</time></trkpt><trkpt lat="45.902265" lon="8.72517"><ele>280.2</ele><time>2026-03-22T10:15:55.159Z</time></trkpt><trkpt lat="45.9021467" lon="8.7251417"><ele>280.0</ele><time>2026-03-22T10:15:56.159Z</time></trkpt><trkpt lat="45.90203" lon="8.7251033"><ele>280.0</ele><time>2026-03-22T10:15:57.159Z</time></trkpt><trkpt lat="45.9019067" lon="8.7250567"><ele>280.0</ele><time>2026-03-22T10:15:58.159Z</time></trkpt><trkpt lat="45.9017867" lon="8.725015"><ele>280.0</ele><time>2026-03-22T10:15:59.159Z</time></trkpt><trkpt lat="45.90167" lon="8.7249617"><ele>280.0</ele><time>2026-03-22T10:16:00.159Z</time></trkpt><trkpt lat="45.901555" lon="8.7249017"><ele>279.4</ele><time>2026-03-22T10:16:01.159Z</time></trkpt><trkpt lat="45.9014367" lon="8.7248317"><ele>278.8</ele><time>2026-03-22T10:16:02.159Z</time></trkpt><trkpt lat="45.9013267" lon="8.7247633"><ele>278.2</ele><time>2026-03-22T10:16:03.159Z</time></trkpt><trkpt lat="45.9012233" lon="8.7247233"><ele>277.6</ele><time>2026-03-22T10:16:04.159Z</time></trkpt><trkpt lat="45.9011383" lon="8.724695"><ele>277.0</ele><time>2026-03-22T10:16:05.16Z</time></trkpt><trkpt lat="45.90107" lon="8.7246633"><ele>277.0</ele><time>2026-03-22T10:16:06.16Z</time></trkpt><trkpt lat="45.90101" lon="8.7246317"><ele>277.0</ele><time>2026-03-22T10:16:07.159Z</time></trkpt><trkpt lat="45.9009317" lon="8.7246233"><ele>277.0</ele><time>2026-03-22T10:16:09.16Z</time></trkpt><trkpt lat="45.9008467" lon="8.7245967"><ele>277.0</ele><time>2026-03-22T10:16:11.159Z</time></trkpt><trkpt lat="45.90078" lon="8.7245817"><ele>277.0</ele><time>2026-03-22T10:16:12.159Z</time></trkpt><trkpt lat="45.9006933" lon="8.7245783"><ele>277.0</ele><time>2026-03-22T10:16:13.159Z</time></trkpt><trkpt lat="45.900595" lon="8.724585"><ele>277.5</ele><time>2026-03-22T10:16:14.16Z</time></trkpt><trkpt lat="45.900495" lon="8.7245933"><ele>278.0</ele><time>2026-03-22T10:16:15.159Z</time></trkpt><trkpt lat="45.9004117" lon="8.72459"><ele>278.5</ele><time>2026-03-22T10:16:16.16Z</time></trkpt><trkpt lat="45.900335" lon="8.7245867"><ele>279.0</ele><time>2026-03-22T10:16:17.159Z</time></trkpt><trkpt lat="45.90027" lon="8.7245917"><ele>279.5</ele><time>2026-03-22T10:16:18.16Z</time></trkpt><trkpt lat="45.900175" lon="8.7245933"><ele>280.0</ele><time>2026-03-22T10:16:20.16Z</time></trkpt><trkpt lat="45.9000833" lon="8.724615"><ele>279.6</ele><time>2026-03-22T10:16:23.16Z</time></trkpt><trkpt lat="45.90002" lon="8.72463"><ele>279.2</ele><time>2026-03-22T10:16:25.159Z</time></trkpt><trkpt lat="45.8999683" lon="8.72457"><ele>278.8</ele><time>2026-03-22T10:16:28.159Z</time></trkpt><trkpt lat="45.8999517" lon="8.7244"><ele>278.4</ele><time>2026-03-22T10:16:30.159Z</time></trkpt><trkpt lat="45.8999483" lon="8.7242717"><ele>278.0</ele><time>2026-03-22T10:16:31.159Z</time></trkpt><trkpt lat="45.899935" lon="8.7241117"><ele>278.0</ele><time>2026-03-22T10:16:32.16Z</time></trkpt><trkpt lat="45.8999133" lon="8.7239183"><ele>278.0</ele><time>2026-03-22T10:16:33.159Z</time></trkpt><trkpt lat="45.8998883" lon="8.723715"><ele>278.0</ele><time>2026-03-22T10:16:34.159Z</time></trkpt><trkpt lat="45.8998533" lon="8.7235083"><ele>278.0</ele><time>2026-03-22T10:16:35.16Z</time></trkpt><trkpt lat="45.8998133" lon="8.7232933"><ele>278.6666666666667</ele><time>2026-03-22T10:16:36.16Z</time></trkpt><trkpt lat="45.899775" lon="8.7230583"><ele>279.3333333333333</ele><time>2026-03-22T10:16:37.16Z</time></trkpt><trkpt lat="45.8997367" lon="8.72282"><ele>280.0</ele><time>2026-03-22T10:16:38.159Z</time></trkpt><trkpt lat="45.8997133" lon="8.722575"><ele>280.0</ele><time>2026-03-22T10:16:39.16Z</time></trkpt><trkpt lat="45.899685" lon="8.72234"><ele>280.0</ele><time>2026-03-22T10:16:40.16Z</time></trkpt><trkpt lat="45.8996683" lon="8.7221283"><ele>280.0</ele><time>2026-03-22T10:16:41.159Z</time></trkpt><trkpt lat="45.8996383" lon="8.7219267"><ele>279.75</ele><time>2026-03-22T10:16:42.16Z</time></trkpt><trkpt lat="45.89961" lon="8.7217367"><ele>279.5</ele><time>2026-03-22T10:16:43.16Z</time></trkpt><trkpt lat="45.89958" lon="8.7215333"><ele>279.25</ele><time>2026-03-22T10:16:44.16Z</time></trkpt><trkpt lat="45.8995483" lon="8.7213467"><ele>279.0</ele><time>2026-03-22T10:16:45.159Z</time></trkpt><trkpt lat="45.89952" lon="8.7211817"><ele>279.2</ele><time>2026-03-22T10:16:46.159Z</time></trkpt><trkpt lat="45.8994883" lon="8.7210317"><ele>279.4</ele><time>2026-03-22T10:16:47.159Z</time></trkpt><trkpt lat="45.8994633" lon="8.720895"><ele>279.6</ele><time>2026-03-22T10:16:48.159Z</time></trkpt><trkpt lat="45.899445" lon="8.7207433"><ele>279.8</ele><time>2026-03-22T10:16:49.159Z</time></trkpt><trkpt lat="45.899425" lon="8.720605"><ele>280.0</ele><time>2026-03-22T10:16:50.159Z</time></trkpt><trkpt lat="45.8994117" lon="8.7204733"><ele>280.0</ele><time>2026-03-22T10:16:51.16Z</time></trkpt><trkpt lat="45.8993983" lon="8.720345"><ele>280.0</ele><time>2026-03-22T10:16:52.159Z</time></trkpt><trkpt lat="45.89939" lon="8.7202333"><ele>280.0</ele><time>2026-03-22T10:16:53.16Z</time></trkpt><trkpt lat="45.8993683" lon="8.7200983"><ele>280.0</ele><time>2026-03-22T10:16:54.159Z</time></trkpt><trkpt lat="45.89935" lon="8.7199783"><ele>280.0</ele><time>2026-03-22T10:16:55.159Z</time></trkpt><trkpt lat="45.8993383" lon="8.7198533"><ele>280.0</ele><time>2026-03-22T10:16:56.159Z</time></trkpt><trkpt lat="45.8993217" lon="8.719725"><ele>280.4</ele><time>2026-03-22T10:16:57.159Z</time></trkpt><trkpt lat="45.8993017" lon="8.7195967"><ele>280.8</ele><time>2026-03-22T10:16:58.159Z</time></trkpt><trkpt lat="45.8992883" lon="8.7194667"><ele>281.2</ele><time>2026-03-22T10:16:59.159Z</time></trkpt><trkpt lat="45.899275" lon="8.719335"><ele>281.6</ele><time>2026-03-22T10:17:00.16Z</time></trkpt><trkpt lat="45.89926" lon="8.7192033"><ele>282.0</ele><time>2026-03-22T10:17:01.159Z</time></trkpt><trkpt lat="45.899245" lon="8.7190717"><ele>281.5</ele><time>2026-03-22T10:17:02.159Z</time></trkpt><trkpt lat="45.89923" lon="8.7189467"><ele>281.0</ele><time>2026-03-22T10:17:03.16Z</time></trkpt><trkpt lat="45.8992117" lon="8.7188267"><ele>280.5</ele><time>2026-03-22T10:17:04.16Z</time></trkpt><trkpt lat="45.899205" lon="8.7187217"><ele>280.0</ele><time>2026-03-22T10:17:05.159Z</time></trkpt><trkpt lat="45.8991983" lon="8.718605"><ele>279.5</ele><time>2026-03-22T10:17:06.16Z</time></trkpt><trkpt lat="45.899185" lon="8.718485"><ele>279.0</ele><time>2026-03-22T10:17:07.159Z</time></trkpt><trkpt lat="45.8991783" lon="8.7183783"><ele>279.0</ele><time>2026-03-22T10:17:08.159Z</time></trkpt><trkpt lat="45.8991717" lon="8.7182483"><ele>279.0</ele><time>2026-03-22T10:17:09.16Z</time></trkpt><trkpt lat="45.8991517" lon="8.71812"><ele>279.0</ele><time>2026-03-22T10:17:10.16Z</time></trkpt><trkpt lat="45.8991333" lon="8.71801"><ele>279.0</ele><time>2026-03-22T10:17:11.159Z</time></trkpt><trkpt lat="45.8991133" lon="8.7179"><ele>279.0</ele><time>2026-03-22T10:17:12.159Z</time></trkpt><trkpt lat="45.8990983" lon="8.7177817"><ele>279.0</ele><time>2026-03-22T10:17:13.159Z</time></trkpt><trkpt lat="45.8990867" lon="8.717645"><ele>278.59999999999997</ele><time>2026-03-22T10:17:14.16Z</time></trkpt><trkpt lat="45.8990583" lon="8.7174783"><ele>278.2</ele><time>2026-03-22T10:17:15.159Z</time></trkpt><trkpt lat="45.8990333" lon="8.7173167"><ele>277.79999999999995</ele><time>2026-03-22T10:17:16.159Z</time></trkpt><trkpt lat="45.8990133" lon="8.7171583"><ele>277.4</ele><time>2026-03-22T10:17:17.159Z</time></trkpt><trkpt lat="45.8990017" lon="8.7170233"><ele>277.0</ele><time>2026-03-22T10:17:18.159Z</time></trkpt><trkpt lat="45.898985" lon="8.7169067"><ele>277.2</ele><time>2026-03-22T10:17:19.159Z</time></trkpt><trkpt lat="45.898965" lon="8.7167783"><ele>277.4</ele><time>2026-03-22T10:17:20.16Z</time></trkpt><trkpt lat="45.8989417" lon="8.716635"><ele>277.6</ele><time>2026-03-22T10:17:21.159Z</time></trkpt><trkpt lat="45.898925" lon="8.7164767"><ele>277.8</ele><time>2026-03-22T10:17:22.16Z</time></trkpt><trkpt lat="45.898905" lon="8.7163367"><ele>278.0</ele><time>2026-03-22T10:17:23.159Z</time></trkpt><trkpt lat="45.8988833" lon="8.7161933"><ele>278.0</ele><time>2026-03-22T10:17:24.159Z</time></trkpt><trkpt lat="45.8988517" lon="8.7160233"><ele>278.0</ele><time>2026-03-22T10:17:25.16Z</time></trkpt><trkpt lat="45.8988233" lon="8.71586"><ele>278.0</ele><time>2026-03-22T10:17:26.159Z</time></trkpt><trkpt lat="45.898805" lon="8.7157083"><ele>278.0</ele><time>2026-03-22T10:17:27.159Z</time></trkpt><trkpt lat="45.8987833" lon="8.7155517"><ele>278.0</ele><time>2026-03-22T10:17:28.159Z</time></trkpt><trkpt lat="45.8987567" lon="8.7153867"><ele>278.0</ele><time>2026-03-22T10:17:29.16Z</time></trkpt><trkpt lat="45.89873" lon="8.71523"><ele>278.0</ele><time>2026-03-22T10:17:30.16Z</time></trkpt><trkpt lat="45.8987083" lon="8.71508"><ele>278.0</ele><time>2026-03-22T10:17:31.159Z</time></trkpt><trkpt lat="45.898695" lon="8.71495"><ele>278.0</ele><time>2026-03-22T10:17:32.159Z</time></trkpt><trkpt lat="45.8986833" lon="8.714815"><ele>277.6</ele><time>2026-03-22T10:17:33.159Z</time></trkpt><trkpt lat="45.8986633" lon="8.714685"><ele>277.20000000000005</ele><time>2026-03-22T10:17:34.16Z</time></trkpt><trkpt lat="45.8986517" lon="8.7145433"><ele>276.8</ele><time>2026-03-22T10:17:35.159Z</time></trkpt><trkpt lat="45.8986367" lon="8.714405"><ele>276.40000000000003</ele><time>2026-03-22T10:17:36.159Z</time></trkpt><trkpt lat="45.898625" lon="8.7142483"><ele>276.0</ele><time>2026-03-22T10:17:37.159Z</time></trkpt><trkpt lat="45.8986083" lon="8.714065"><ele>275.75</ele><time>2026-03-22T10:17:38.159Z</time></trkpt><trkpt lat="45.8985833" lon="8.7138883"><ele>275.5</ele><time>2026-03-22T10:17:39.159Z</time></trkpt><trkpt lat="45.8985683" lon="8.713715"><ele>275.25</ele><time>2026-03-22T10:17:40.16Z</time></trkpt><trkpt lat="45.8985567" lon="8.7135483"><ele>275.0</ele><time>2026-03-22T10:17:41.16Z</time></trkpt><trkpt lat="45.8985333" lon="8.71341"><ele>275.0</ele><time>2026-03-22T10:17:42.159Z</time></trkpt><trkpt lat="45.8985117" lon="8.7132717"><ele>275.0</ele><time>2026-03-22T10:17:43.159Z</time></trkpt><trkpt lat="45.898485" lon="8.71312"><ele>275.0</ele><time>2026-03-22T10:17:44.159Z</time></trkpt><trkpt lat="45.898455" lon="8.7129533"><ele>275.0</ele><time>2026-03-22T10:17:45.16Z</time></trkpt><trkpt lat="45.8984383" lon="8.7128067"><ele>275.0</ele><time>2026-03-22T10:17:46.16Z</time></trkpt><trkpt lat="45.8984267" lon="8.7126833"><ele>275.33333333333337</ele><time>2026-03-22T10:17:47.16Z</time></trkpt><trkpt lat="45.89842" lon="8.7125633"><ele>275.6666666666667</ele><time>2026-03-22T10:17:48.159Z</time></trkpt><trkpt lat="45.8984217" lon="8.7124483"><ele>276.0</ele><time>2026-03-22T10:17:49.159Z</time></trkpt><trkpt lat="45.8984183" lon="8.7123367"><ele>276.3333333333333</ele><time>2026-03-22T10:17:50.159Z</time></trkpt><trkpt lat="45.8984067" lon="8.712205"><ele>276.66666666666663</ele><time>2026-03-22T10:17:51.159Z</time></trkpt><trkpt lat="45.8983967" lon="8.712055"><ele>277.0</ele><time>2026-03-22T10:17:52.159Z</time></trkpt><trkpt lat="45.898385" lon="8.71191"><ele>276.6</ele><time>2026-03-22T10:17:53.159Z</time></trkpt><trkpt lat="45.8983667" lon="8.7117683"><ele>276.2</ele><time>2026-03-22T10:17:54.159Z</time></trkpt><trkpt lat="45.8983567" lon="8.711635"><ele>275.8</ele><time>2026-03-22T10:17:55.159Z</time></trkpt><trkpt lat="45.898355" lon="8.7114867"><ele>275.4</ele><time>2026-03-22T10:17:56.159Z</time></trkpt><trkpt lat="45.8983667" lon="8.711315"><ele>275.0</ele><time>2026-03-22T10:17:57.159Z</time></trkpt><trkpt lat="45.8983817" lon="8.7111467"><ele>274.5</ele><time>2026-03-22T10:17:58.159Z</time></trkpt><trkpt lat="45.89839" lon="8.7109917"><ele>274.0</ele><time>2026-03-22T10:17:59.159Z</time></trkpt><trkpt lat="45.89838" lon="8.7108367"><ele>273.5</ele><time>2026-03-22T10:18:00.159Z</time></trkpt><trkpt lat="45.8983617" lon="8.710665"><ele>273.0</ele><time>2026-03-22T10:18:01.159Z</time></trkpt><trkpt lat="45.898335" lon="8.7104967"><ele>273.0</ele><time>2026-03-22T10:18:02.159Z</time></trkpt><trkpt lat="45.8983117" lon="8.7103533"><ele>273.0</ele><time>2026-03-22T10:18:03.16Z</time></trkpt><trkpt lat="45.89828" lon="8.71022"><ele>273.0</ele><time>2026-03-22T10:18:04.16Z</time></trkpt><trkpt lat="45.898245" lon="8.7100767"><ele>273.0</ele><time>2026-03-22T10:18:05.16Z</time></trkpt><trkpt lat="45.8981867" lon="8.7099233"><ele>273.0</ele><time>2026-03-22T10:18:06.159Z</time></trkpt><trkpt lat="45.8981233" lon="8.70977"><ele>273.0</ele><time>2026-03-22T10:18:07.159Z</time></trkpt><trkpt lat="45.89805" lon="8.7096183"><ele>273.0</ele><time>2026-03-22T10:18:08.159Z</time></trkpt><trkpt lat="45.8979633" lon="8.70947"><ele>273.0</ele><time>2026-03-22T10:18:09.159Z</time></trkpt><trkpt lat="45.8978833" lon="8.70934"><ele>273.0</ele><time>2026-03-22T10:18:10.16Z</time></trkpt><trkpt lat="45.897805" lon="8.7092117"><ele>273.0</ele><time>2026-03-22T10:18:11.16Z</time></trkpt><trkpt lat="45.8977333" lon="8.70907"><ele>273.0</ele><time>2026-03-22T10:18:12.159Z</time></trkpt><trkpt lat="45.8976667" lon="8.70892"><ele>273.0</ele><time>2026-03-22T10:18:13.159Z</time></trkpt><trkpt lat="45.8976" lon="8.7087617"><ele>273.0</ele><time>2026-03-22T10:18:14.159Z</time></trkpt><trkpt lat="45.89754" lon="8.7085933"><ele>273.0</ele><time>2026-03-22T10:18:15.159Z</time></trkpt><trkpt lat="45.8974717" lon="8.70843"><ele>273.0</ele><time>2026-03-22T10:18:16.159Z</time></trkpt><trkpt lat="45.8973983" lon="8.7083033"><ele>273.0</ele><time>2026-03-22T10:18:17.159Z</time></trkpt><trkpt lat="45.8973267" lon="8.7081917"><ele>273.0</ele><time>2026-03-22T10:18:18.159Z</time></trkpt><trkpt lat="45.8972633" lon="8.70811"><ele>273.0</ele><time>2026-03-22T10:18:19.159Z</time></trkpt><trkpt lat="45.8972067" lon="8.7080467"><ele>273.0</ele><time>2026-03-22T10:18:20.159Z</time></trkpt><trkpt lat="45.8971533" lon="8.7079933"><ele>273.0</ele><time>2026-03-22T10:18:21.159Z</time></trkpt><trkpt lat="45.8970733" lon="8.7079367"><ele>273.0</ele><time>2026-03-22T10:18:23.159Z</time></trkpt><trkpt lat="45.89702" lon="8.7080083"><ele>273.0</ele><time>2026-03-22T10:18:25.159Z</time></trkpt><trkpt lat="45.8969433" lon="8.7081633"><ele>273.0</ele><time>2026-03-22T10:18:27.159Z</time></trkpt><trkpt lat="45.8968833" lon="8.7082867"><ele>273.0</ele><time>2026-03-22T10:18:28.159Z</time></trkpt><trkpt lat="45.8968067" lon="8.7084267"><ele>273.0</ele><time>2026-03-22T10:18:29.159Z</time></trkpt><trkpt lat="45.896695" lon="8.708625"><ele>273.0</ele><time>2026-03-22T10:18:30.159Z</time></trkpt><trkpt lat="45.8965567" lon="8.7088367"><ele>273.6666666666667</ele><time>2026-03-22T10:18:31.159Z</time></trkpt><trkpt lat="45.8964233" lon="8.7090567"><ele>274.33333333333337</ele><time>2026-03-22T10:18:32.159Z</time></trkpt><trkpt lat="45.896295" lon="8.709265"><ele>275.0</ele><time>2026-03-22T10:18:33.159Z</time></trkpt><trkpt lat="45.896175" lon="8.7094683"><ele>275.0</ele><time>2026-03-22T10:18:34.159Z</time></trkpt><trkpt lat="45.8960533" lon="8.70968"><ele>275.0</ele><time>2026-03-22T10:18:35.16Z</time></trkpt><trkpt lat="45.8959333" lon="8.7098667"><ele>275.0</ele><time>2026-03-22T10:18:36.159Z</time></trkpt><trkpt lat="45.8958233" lon="8.710025"><ele>276.0</ele><time>2026-03-22T10:18:37.159Z</time></trkpt><trkpt lat="45.895735" lon="8.7101617"><ele>277.0</ele><time>2026-03-22T10:18:38.16Z</time></trkpt><trkpt lat="45.8956517" lon="8.7102983"><ele>278.0</ele><time>2026-03-22T10:18:39.159Z</time></trkpt><trkpt lat="45.8955767" lon="8.71043"><ele>279.0</ele><time>2026-03-22T10:18:40.159Z</time></trkpt><trkpt lat="45.8955067" lon="8.7105617"><ele>279.0</ele><time>2026-03-22T10:18:41.159Z</time></trkpt><trkpt lat="45.8954483" lon="8.7106767"><ele>279.0</ele><time>2026-03-22T10:18:42.159Z</time></trkpt><trkpt lat="45.89539" lon="8.71077"><ele>279.0</ele><time>2026-03-22T10:18:43.16Z</time></trkpt><trkpt lat="45.895335" lon="8.7108367"><ele>279.0</ele><time>2026-03-22T10:18:44.159Z</time></trkpt><trkpt lat="45.8952283" lon="8.71089"><ele>279.0</ele><time>2026-03-22T10:18:46.159Z</time></trkpt><trkpt lat="45.89513" lon="8.71081"><ele>280.0</ele><time>2026-03-22T10:18:48.16Z</time></trkpt><trkpt lat="45.8950683" lon="8.7107083"><ele>281.0</ele><time>2026-03-22T10:18:50.159Z</time></trkpt><trkpt lat="45.8950017" lon="8.7106417"><ele>282.0</ele><time>2026-03-22T10:19:43.16Z</time></trkpt><trkpt lat="45.8949417" lon="8.7105533"><ele>283.0</ele><time>2026-03-22T10:19:44.159Z</time></trkpt><trkpt lat="45.8948817" lon="8.7104783"><ele>284.0</ele><time>2026-03-22T10:19:45.16Z</time></trkpt><trkpt lat="45.8948267" lon="8.7104117"><ele>285.0</ele><time>2026-03-22T10:19:46.159Z</time></trkpt><trkpt lat="45.8947867" lon="8.7103383"><ele>285.0</ele><time>2026-03-22T10:19:47.159Z</time></trkpt><trkpt lat="45.8947583" lon="8.710255"><ele>285.0</ele><time>2026-03-22T10:19:48.159Z</time></trkpt><trkpt lat="45.894735" lon="8.7101467"><ele>285.0</ele><time>2026-03-22T10:19:49.159Z</time></trkpt><trkpt lat="45.8947117" lon="8.7100267"><ele>285.0</ele><time>2026-03-22T10:19:50.159Z</time></trkpt><trkpt lat="45.8947067" lon="8.7099017"><ele>285.0</ele><time>2026-03-22T10:19:51.16Z</time></trkpt><trkpt lat="45.8947117" lon="8.7097983"><ele>285.0</ele><time>2026-03-22T10:19:52.159Z</time></trkpt><trkpt lat="45.8947317" lon="8.70967"><ele>285.3333333333333</ele><time>2026-03-22T10:19:54.159Z</time></trkpt><trkpt lat="45.894665" lon="8.7095833"><ele>285.6666666666667</ele><time>2026-03-22T10:20:02.159Z</time></trkpt><trkpt lat="45.89458" lon="8.7095433"><ele>286.0</ele><time>2026-03-22T10:20:05.159Z</time></trkpt><trkpt lat="45.894515" lon="8.709555"><ele>286.33333333333337</ele><time>2026-03-22T10:20:09.159Z</time></trkpt><trkpt lat="45.8944633" lon="8.709635"><ele>286.6666666666667</ele><time>2026-03-22T10:20:12.16Z</time></trkpt><trkpt lat="45.8944083" lon="8.7097917"><ele>287.0</ele><time>2026-03-22T10:20:14.159Z</time></trkpt><trkpt lat="45.8943633" lon="8.70988"><ele>287.0</ele><time>2026-03-22T10:20:15.159Z</time></trkpt><trkpt lat="45.894285" lon="8.709995"><ele>287.0</ele><time>2026-03-22T10:20:17.159Z</time></trkpt><trkpt lat="45.8942317" lon="8.7100583"><ele>287.0</ele><time>2026-03-22T10:20:19.159Z</time></trkpt><trkpt lat="45.89416" lon="8.7100683"><ele>287.0</ele><time>2026-03-22T10:20:22.159Z</time></trkpt><trkpt lat="45.8941217" lon="8.7099633"><ele>287.0</ele><time>2026-03-22T10:20:25.159Z</time></trkpt><trkpt lat="45.8940583" lon="8.709865"><ele>287.0</ele><time>2026-03-22T10:20:27.159Z</time></trkpt><trkpt lat="45.89402" lon="8.709755"><ele>292.5</ele><time>2026-03-22T10:20:29.159Z</time></trkpt><trkpt lat="45.89402" lon="8.7095383"><ele>298.0</ele><time>2026-03-22T10:20:31.16Z</time></trkpt><trkpt lat="45.8940333" lon="8.7093767"><ele>303.5</ele><time>2026-03-22T10:20:32.159Z</time></trkpt><trkpt lat="45.8940517" lon="8.709165"><ele>309.0</ele><time>2026-03-22T10:20:33.159Z</time></trkpt><trkpt lat="45.894065" lon="8.7089417"><ele>309.6666666666667</ele><time>2026-03-22T10:20:34.159Z</time></trkpt><trkpt lat="45.8940783" lon="8.7087133"><ele>310.33333333333337</ele><time>2026-03-22T10:20:35.159Z</time></trkpt><trkpt lat="45.894095" lon="8.7084783"><ele>311.0</ele><time>2026-03-22T10:20:36.159Z</time></trkpt><trkpt lat="45.89411" lon="8.7082583"><ele>311.25</ele><time>2026-03-22T10:20:37.16Z</time></trkpt><trkpt lat="45.8941133" lon="8.7080317"><ele>311.5</ele><time>2026-03-22T10:20:38.159Z</time></trkpt><trkpt lat="45.8941233" lon="8.70783"><ele>311.75</ele><time>2026-03-22T10:20:39.159Z</time></trkpt><trkpt lat="45.894135" lon="8.7076533"><ele>312.0</ele><time>2026-03-22T10:20:40.159Z</time></trkpt><trkpt lat="45.8941367" lon="8.707495"><ele>312.3333333333333</ele><time>2026-03-22T10:20:41.159Z</time></trkpt><trkpt lat="45.89415" lon="8.7073633"><ele>312.6666666666667</ele><time>2026-03-22T10:20:42.159Z</time></trkpt><trkpt lat="45.8941517" lon="8.7072467"><ele>313.0</ele><time>2026-03-22T10:20:43.159Z</time></trkpt><trkpt lat="45.894145" lon="8.707155"><ele>313.33333333333337</ele><time>2026-03-22T10:20:44.159Z</time></trkpt><trkpt lat="45.8940933" lon="8.70708"><ele>313.6666666666667</ele><time>2026-03-22T10:20:46.159Z</time></trkpt><trkpt lat="45.89403" lon="8.7070733"><ele>314.0</ele><time>2026-03-22T10:20:48.159Z</time></trkpt><trkpt lat="45.89394" lon="8.7070733"><ele>314.0</ele><time>2026-03-22T10:20:50.159Z</time></trkpt><trkpt lat="45.8938517" lon="8.7070717"><ele>314.0</ele><time>2026-03-22T10:20:52.159Z</time></trkpt><trkpt lat="45.8937817" lon="8.7069933"><ele>314.0</ele><time>2026-03-22T10:20:54.159Z</time></trkpt><trkpt lat="45.8937467" lon="8.7068617"><ele>314.0</ele><time>2026-03-22T10:20:56.159Z</time></trkpt><trkpt lat="45.8937267" lon="8.7067133"><ele>314.0</ele><time>2026-03-22T10:20:58.159Z</time></trkpt><trkpt lat="45.893705" lon="8.7065767"><ele>314.0</ele><time>2026-03-22T10:21:00.159Z</time></trkpt><trkpt lat="45.8936717" lon="8.706665"><ele>314.0</ele><time>2026-03-22T10:21:08.159Z</time></trkpt><trkpt lat="45.8936317" lon="8.7067417"><ele>314.0</ele><time>2026-03-22T10:21:10.16Z</time></trkpt><trkpt lat="45.8935983" lon="8.7068317"><ele>314.0</ele><time>2026-03-22T10:21:12.16Z</time></trkpt><trkpt lat="45.89356" lon="8.7069283"><ele>314.0</ele><time>2026-03-22T10:21:14.159Z</time></trkpt><trkpt lat="45.8935283" lon="8.70708"><ele>314.0</ele><time>2026-03-22T10:21:16.159Z</time></trkpt><trkpt lat="45.8934917" lon="8.7072617"><ele>314.0</ele><time>2026-03-22T10:21:18.16Z</time></trkpt><trkpt lat="45.8934667" lon="8.7073533"><ele>314.0</ele><time>2026-03-22T10:21:19.16Z</time></trkpt><trkpt lat="45.8934483" lon="8.70744"><ele>314.0</ele><time>2026-03-22T10:21:20.159Z</time></trkpt><trkpt lat="45.89342" lon="8.7076"><ele>314.0</ele><time>2026-03-22T10:21:22.16Z</time></trkpt><trkpt lat="45.8933567" lon="8.70759"><ele>314.0</ele><time>2026-03-22T10:21:27.159Z</time></trkpt><trkpt lat="45.893315" lon="8.7074933"><ele>314.0</ele><time>2026-03-22T10:21:30.159Z</time></trkpt><trkpt lat="45.8932417" lon="8.7074617"><ele>318.6666666666667</ele><time>2026-03-22T10:21:35.159Z</time></trkpt><trkpt lat="45.89316" lon="8.70747"><ele>323.33333333333337</ele><time>2026-03-22T10:21:37.159Z</time></trkpt><trkpt lat="45.8930917" lon="8.7074367"><ele>328.0</ele><time>2026-03-22T10:21:38.159Z</time></trkpt><trkpt lat="45.8930217" lon="8.7073917"><ele>332.6666666666667</ele><time>2026-03-22T10:21:39.159Z</time></trkpt><trkpt lat="45.89294" lon="8.7073433"><ele>337.3333333333333</ele><time>2026-03-22T10:21:40.16Z</time></trkpt><trkpt lat="45.8928633" lon="8.707295"><ele>342.0</ele><time>2026-03-22T10:21:41.159Z</time></trkpt><trkpt lat="45.8928017" lon="8.7072417"><ele>342.0</ele><time>2026-03-22T10:21:42.159Z</time></trkpt><trkpt lat="45.8927433" lon="8.7071817"><ele>342.0</ele><time>2026-03-22T10:21:43.16Z</time></trkpt><trkpt lat="45.892685" lon="8.7071033"><ele>342.0</ele><time>2026-03-22T10:21:44.159Z</time></trkpt><trkpt lat="45.8926217" lon="8.7070283"><ele>342.0</ele><time>2026-03-22T10:21:45.159Z</time></trkpt><trkpt lat="45.89256" lon="8.7069417"><ele>342.0</ele><time>2026-03-22T10:21:46.16Z</time></trkpt><trkpt lat="45.89251" lon="8.706855"><ele>342.0</ele><time>2026-03-22T10:21:47.16Z</time></trkpt><trkpt lat="45.8924667" lon="8.7067867"><ele>342.40000000000003</ele><time>2026-03-22T10:21:48.16Z</time></trkpt><trkpt lat="45.8923583" lon="8.70669"><ele>342.8</ele><time>2026-03-22T10:21:50.16Z</time></trkpt><trkpt lat="45.8922533" lon="8.70662"><ele>343.2</ele><time>2026-03-22T10:21:52.159Z</time></trkpt><trkpt lat="45.892165" lon="8.7065683"><ele>343.6</ele><time>2026-03-22T10:21:54.159Z</time></trkpt><trkpt lat="45.8921267" lon="8.706495"><ele>344.0</ele><time>2026-03-22T10:21:55.159Z</time></trkpt><trkpt lat="45.8920883" lon="8.7064"><ele>344.0</ele><time>2026-03-22T10:21:56.159Z</time></trkpt><trkpt lat="45.8920433" lon="8.706305"><ele>344.0</ele><time>2026-03-22T10:21:57.159Z</time></trkpt><trkpt lat="45.8920117" lon="8.706195"><ele>344.0</ele><time>2026-03-22T10:21:58.159Z</time></trkpt><trkpt lat="45.8919817" lon="8.7060883"><ele>344.0</ele><time>2026-03-22T10:21:59.159Z</time></trkpt><trkpt lat="45.8919633" lon="8.705985"><ele>344.0</ele><time>2026-03-22T10:22:00.16Z</time></trkpt><trkpt lat="45.8919517" lon="8.7058033"><ele>344.0</ele><time>2026-03-22T10:22:02.16Z</time></trkpt><trkpt lat="45.8919417" lon="8.7057017"><ele>341.79999999999995</ele><time>2026-03-22T10:22:03.16Z</time></trkpt><trkpt lat="45.8919217" lon="8.7055733"><ele>339.59999999999997</ele><time>2026-03-22T10:22:04.16Z</time></trkpt><trkpt lat="45.891895" lon="8.7054317"><ele>337.4</ele><time>2026-03-22T10:22:05.159Z</time></trkpt><trkpt lat="45.8918617" lon="8.70528"><ele>335.2</ele><time>2026-03-22T10:22:06.159Z</time></trkpt><trkpt lat="45.891835" lon="8.70515"><ele>333.0</ele><time>2026-03-22T10:22:07.16Z</time></trkpt><trkpt lat="45.8918083" lon="8.7050233"><ele>331.0</ele><time>2026-03-22T10:22:08.16Z</time></trkpt><trkpt lat="45.8917783" lon="8.70489"><ele>329.0</ele><time>2026-03-22T10:22:09.16Z</time></trkpt><trkpt lat="45.89174" lon="8.704745"><ele>327.0</ele><time>2026-03-22T10:22:10.159Z</time></trkpt><trkpt lat="45.8917017" lon="8.7045817"><ele>325.0</ele><time>2026-03-22T10:22:11.159Z</time></trkpt><trkpt lat="45.8916617" lon="8.7044433"><ele>323.0</ele><time>2026-03-22T10:22:12.159Z</time></trkpt><trkpt lat="45.8916217" lon="8.704335"><ele>326.33333333333337</ele><time>2026-03-22T10:22:13.159Z</time></trkpt><trkpt lat="45.8915867" lon="8.7042383"><ele>329.6666666666667</ele><time>2026-03-22T10:22:14.159Z</time></trkpt><trkpt lat="45.8915533" lon="8.7041317"><ele>333.0</ele><time>2026-03-22T10:22:15.159Z</time></trkpt><trkpt lat="45.891525" lon="8.70402"><ele>336.3333333333333</ele><time>2026-03-22T10:22:16.159Z</time></trkpt><trkpt lat="45.891495" lon="8.7039067"><ele>339.66666666666663</ele><time>2026-03-22T10:22:17.159Z</time></trkpt><trkpt lat="45.8914633" lon="8.703785"><ele>343.0</ele><time>2026-03-22T10:22:18.159Z</time></trkpt><trkpt lat="45.891425" lon="8.7036483"><ele>341.8333333333333</ele><time>2026-03-22T10:22:19.16Z</time></trkpt><trkpt lat="45.8913883" lon="8.7034983"><ele>340.66666666666663</ele><time>2026-03-22T10:22:20.159Z</time></trkpt><trkpt lat="45.8913517" lon="8.7033667"><ele>339.5</ele><time>2026-03-22T10:22:21.159Z</time></trkpt><trkpt lat="45.8913267" lon="8.7032483"><ele>338.3333333333333</ele><time>2026-03-22T10:22:22.16Z</time></trkpt><trkpt lat="45.8912983" lon="8.7031467"><ele>337.1666666666667</ele><time>2026-03-22T10:22:23.159Z</time></trkpt><trkpt lat="45.8912667" lon="8.7030683"><ele>336.0</ele><time>2026-03-22T10:22:24.159Z</time></trkpt><trkpt lat="45.8912317" lon="8.70293"><ele>336.0</ele><time>2026-03-22T10:22:26.159Z</time></trkpt><trkpt lat="45.8912083" lon="8.7027733"><ele>336.0</ele><time>2026-03-22T10:22:28.159Z</time></trkpt><trkpt lat="45.8911883" lon="8.7026733"><ele>336.0</ele><time>2026-03-22T10:22:29.159Z</time></trkpt><trkpt lat="45.8911717" lon="8.70257"><ele>336.0</ele><time>2026-03-22T10:22:30.159Z</time></trkpt><trkpt lat="45.89116" lon="8.702475"><ele>336.0</ele><time>2026-03-22T10:22:31.159Z</time></trkpt><trkpt lat="45.891145" lon="8.7023767"><ele>336.0</ele><time>2026-03-22T10:22:32.16Z</time></trkpt><trkpt lat="45.89111" lon="8.702275"><ele>336.5</ele><time>2026-03-22T10:22:33.159Z</time></trkpt><trkpt lat="45.891065" lon="8.7021533"><ele>337.0</ele><time>2026-03-22T10:22:34.16Z</time></trkpt><trkpt lat="45.8910117" lon="8.7020367"><ele>337.5</ele><time>2026-03-22T10:22:35.159Z</time></trkpt><trkpt lat="45.8909467" lon="8.701925"><ele>338.0</ele><time>2026-03-22T10:22:36.159Z</time></trkpt><trkpt lat="45.8909017" lon="8.7018467"><ele>338.5</ele><time>2026-03-22T10:22:37.159Z</time></trkpt><trkpt lat="45.890875" lon="8.7017583"><ele>339.0</ele><time>2026-03-22T10:22:38.159Z</time></trkpt><trkpt lat="45.890855" lon="8.7016583"><ele>339.0</ele><time>2026-03-22T10:22:39.16Z</time></trkpt><trkpt lat="45.8908517" lon="8.7015467"><ele>339.0</ele><time>2026-03-22T10:22:40.16Z</time></trkpt><trkpt lat="45.89083" lon="8.7014417"><ele>339.0</ele><time>2026-03-22T10:22:41.16Z</time></trkpt><trkpt lat="45.8908183" lon="8.70135"><ele>339.0</ele><time>2026-03-22T10:22:42.16Z</time></trkpt><trkpt lat="45.8907967" lon="8.7012633"><ele>339.0</ele><time>2026-03-22T10:22:43.16Z</time></trkpt><trkpt lat="45.8907733" lon="8.7011733"><ele>339.0</ele><time>2026-03-22T10:22:44.159Z</time></trkpt><trkpt lat="45.8907267" lon="8.7010583"><ele>339.0</ele><time>2026-03-22T10:22:46.159Z</time></trkpt><trkpt lat="45.8906617" lon="8.7010017"><ele>339.0</ele><time>2026-03-22T10:22:48.159Z</time></trkpt><trkpt lat="45.89058" lon="8.7009967"><ele>339.0</ele><time>2026-03-22T10:22:50.159Z</time></trkpt><trkpt lat="45.890505" lon="8.70102"><ele>339.0</ele><time>2026-03-22T10:22:52.16Z</time></trkpt><trkpt lat="45.8904367" lon="8.7010433"><ele>339.0</ele><time>2026-03-22T10:22:55.159Z</time></trkpt><trkpt lat="45.8903717" lon="8.7010717"><ele>339.0</ele><time>2026-03-22T10:22:57.16Z</time></trkpt><trkpt lat="45.89031" lon="8.70111"><ele>339.0</ele><time>2026-03-22T10:22:58.159Z</time></trkpt><trkpt lat="45.890195" lon="8.7011783"><ele>339.0</ele><time>2026-03-22T10:23:00.16Z</time></trkpt><trkpt lat="45.890125" lon="8.7012167"><ele>339.0</ele><time>2026-03-22T10:23:01.159Z</time></trkpt><trkpt lat="45.8900567" lon="8.7012517"><ele>339.0</ele><time>2026-03-22T10:23:02.159Z</time></trkpt><trkpt lat="45.8899883" lon="8.7012833"><ele>339.0</ele><time>2026-03-22T10:23:03.159Z</time></trkpt><trkpt lat="45.8899283" lon="8.701315"><ele>339.0</ele><time>2026-03-22T10:23:04.159Z</time></trkpt><trkpt lat="45.889865" lon="8.7013283"><ele>339.0</ele><time>2026-03-22T10:23:05.159Z</time></trkpt><trkpt lat="45.8897467" lon="8.7013483"><ele>340.2</ele><time>2026-03-22T10:23:07.159Z</time></trkpt><trkpt lat="45.889625" lon="8.70133"><ele>341.4</ele><time>2026-03-22T10:23:09.159Z</time></trkpt><trkpt lat="45.8895033" lon="8.7013283"><ele>342.6</ele><time>2026-03-22T10:23:11.16Z</time></trkpt><trkpt lat="45.8894383" lon="8.7013433"><ele>343.8</ele><time>2026-03-22T10:23:12.16Z</time></trkpt><trkpt lat="45.88937" lon="8.701355"><ele>345.0</ele><time>2026-03-22T10:23:13.159Z</time></trkpt><trkpt lat="45.88928" lon="8.7013867"><ele>345.8</ele><time>2026-03-22T10:23:15.159Z</time></trkpt><trkpt lat="45.8892083" lon="8.70142"><ele>346.6</ele><time>2026-03-22T10:23:19.159Z</time></trkpt><trkpt lat="45.8891917" lon="8.701295"><ele>347.4</ele><time>2026-03-22T10:23:24.159Z</time></trkpt><trkpt lat="45.8891933" lon="8.701175"><ele>348.2</ele><time>2026-03-22T10:23:26.159Z</time></trkpt><trkpt lat="45.889175" lon="8.7010267"><ele>349.0</ele><time>2026-03-22T10:23:28.16Z</time></trkpt><trkpt lat="45.88914" lon="8.7008633"><ele>347.4</ele><time>2026-03-22T10:23:30.16Z</time></trkpt><trkpt lat="45.8891017" lon="8.7006933"><ele>345.79999999999995</ele><time>2026-03-22T10:23:32.16Z</time></trkpt><trkpt lat="45.8890783" lon="8.700605"><ele>344.20000000000005</ele><time>2026-03-22T10:23:33.159Z</time></trkpt><trkpt lat="45.88903" lon="8.7004533"><ele>342.6</ele><time>2026-03-22T10:23:35.159Z</time></trkpt><trkpt lat="45.8890267" lon="8.7003517"><ele>341.0</ele><time>2026-03-22T10:23:37.16Z</time></trkpt><trkpt lat="45.8890583" lon="8.7002367"><ele>340.20000000000005</ele><time>2026-03-22T10:23:40.159Z</time></trkpt><trkpt lat="45.8890933" lon="8.7001433"><ele>339.40000000000003</ele><time>2026-03-22T10:23:43.16Z</time></trkpt><trkpt lat="45.8891217" lon="8.700025"><ele>338.6</ele><time>2026-03-22T10:23:46.159Z</time></trkpt><trkpt lat="45.8891267" lon="8.69986"><ele>337.8</ele><time>2026-03-22T10:23:48.159Z</time></trkpt><trkpt lat="45.8891183" lon="8.69977"><ele>337.0</ele><time>2026-03-22T10:23:49.159Z</time></trkpt><trkpt lat="45.8891117" lon="8.6995933"><ele>337.0</ele><time>2026-03-22T10:23:51.16Z</time></trkpt><trkpt lat="45.889115" lon="8.6994867"><ele>337.0</ele><time>2026-03-22T10:23:52.16Z</time></trkpt><trkpt lat="45.88912" lon="8.699305"><ele>337.0</ele><time>2026-03-22T10:23:54.159Z</time></trkpt><trkpt lat="45.8891183" lon="8.6992117"><ele>337.0</ele><time>2026-03-22T10:23:55.16Z</time></trkpt><trkpt lat="45.8891117" lon="8.6991"><ele>337.0</ele><time>2026-03-22T10:23:56.159Z</time></trkpt><trkpt lat="45.8891033" lon="8.6989917"><ele>337.0</ele><time>2026-03-22T10:23:57.16Z</time></trkpt><trkpt lat="45.88909" lon="8.6988883"><ele>337.5</ele><time>2026-03-22T10:23:58.159Z</time></trkpt><trkpt lat="45.88908" lon="8.6987817"><ele>338.0</ele><time>2026-03-22T10:23:59.159Z</time></trkpt><trkpt lat="45.8890733" lon="8.6986633"><ele>338.5</ele><time>2026-03-22T10:24:00.159Z</time></trkpt><trkpt lat="45.8890667" lon="8.6985433"><ele>339.0</ele><time>2026-03-22T10:24:01.16Z</time></trkpt><trkpt lat="45.8890583" lon="8.6984383"><ele>339.5</ele><time>2026-03-22T10:24:02.159Z</time></trkpt><trkpt lat="45.8890383" lon="8.6982517"><ele>340.0</ele><time>2026-03-22T10:24:04.159Z</time></trkpt><trkpt lat="45.8890267" lon="8.6981367"><ele>340.16666666666663</ele><time>2026-03-22T10:24:05.16Z</time></trkpt><trkpt lat="45.8890217" lon="8.6980233"><ele>340.3333333333333</ele><time>2026-03-22T10:24:06.16Z</time></trkpt><trkpt lat="45.889015" lon="8.6979167"><ele>340.5</ele><time>2026-03-22T10:24:07.159Z</time></trkpt><trkpt lat="45.8890117" lon="8.697815"><ele>340.6666666666667</ele><time>2026-03-22T10:24:08.16Z</time></trkpt><trkpt lat="45.88899" lon="8.6977183"><ele>340.83333333333337</ele><time>2026-03-22T10:24:09.159Z</time></trkpt><trkpt lat="45.888955" lon="8.69762"><ele>341.0</ele><time>2026-03-22T10:24:10.159Z</time></trkpt><trkpt lat="45.88892" lon="8.6975033"><ele>340.6</ele><time>2026-03-22T10:24:11.159Z</time></trkpt><trkpt lat="45.8888717" lon="8.6973567"><ele>340.20000000000005</ele><time>2026-03-22T10:24:12.159Z</time></trkpt><trkpt lat="45.888825" lon="8.69722"><ele>339.79999999999995</ele><time>2026-03-22T10:24:13.16Z</time></trkpt><trkpt lat="45.8887783" lon="8.697105"><ele>339.4</ele><time>2026-03-22T10:24:14.16Z</time></trkpt><trkpt lat="45.88873" lon="8.696985"><ele>339.0</ele><time>2026-03-22T10:24:15.16Z</time></trkpt><trkpt lat="45.88868" lon="8.696855"><ele>338.6666666666667</ele><time>2026-03-22T10:24:16.159Z</time></trkpt><trkpt lat="45.8886383" lon="8.69673"><ele>338.3333333333333</ele><time>2026-03-22T10:24:17.16Z</time></trkpt><trkpt lat="45.8885933" lon="8.69661"><ele>338.0</ele><time>2026-03-22T10:24:18.159Z</time></trkpt><trkpt lat="45.8885533" lon="8.696515"><ele>337.66666666666663</ele><time>2026-03-22T10:24:19.159Z</time></trkpt><trkpt lat="45.8885083" lon="8.6964133"><ele>337.3333333333333</ele><time>2026-03-22T10:24:20.159Z</time></trkpt><trkpt lat="45.8884617" lon="8.6963167"><ele>337.0</ele><time>2026-03-22T10:24:21.16Z</time></trkpt><trkpt lat="45.88842" lon="8.6962333"><ele>339.20000000000005</ele><time>2026-03-22T10:24:22.159Z</time></trkpt><trkpt lat="45.8883617" lon="8.6960817"><ele>341.4</ele><time>2026-03-22T10:24:24.16Z</time></trkpt><trkpt lat="45.8883217" lon="8.6959583"><ele>343.6</ele><time>2026-03-22T10:24:26.159Z</time></trkpt><trkpt lat="45.8882817" lon="8.6958483"><ele>345.79999999999995</ele><time>2026-03-22T10:24:28.159Z</time></trkpt><trkpt lat="45.8882133" lon="8.69582"><ele>348.0</ele><time>2026-03-22T10:24:33.159Z</time></trkpt><trkpt lat="45.8881233" lon="8.6958483"><ele>348.0</ele><time>2026-03-22T10:24:35.159Z</time></trkpt><trkpt lat="45.8880067" lon="8.6958383"><ele>348.0</ele><time>2026-03-22T10:24:37.159Z</time></trkpt><trkpt lat="45.887945" lon="8.6957883"><ele>348.0</ele><time>2026-03-22T10:24:38.159Z</time></trkpt><trkpt lat="45.887875" lon="8.6957133"><ele>348.0</ele><time>2026-03-22T10:24:39.159Z</time></trkpt><trkpt lat="45.8877983" lon="8.6956417"><ele>348.0</ele><time>2026-03-22T10:24:40.159Z</time></trkpt><trkpt lat="45.8877083" lon="8.6955783"><ele>348.0</ele><time>2026-03-22T10:24:41.16Z</time></trkpt><trkpt lat="45.8876283" lon="8.6954983"><ele>348.0</ele><time>2026-03-22T10:24:42.16Z</time></trkpt><trkpt lat="45.8875467" lon="8.695395"><ele>348.0</ele><time>2026-03-22T10:24:43.159Z</time></trkpt><trkpt lat="45.88747" lon="8.69526"><ele>348.0</ele><time>2026-03-22T10:24:44.159Z</time></trkpt><trkpt lat="45.8874067" lon="8.695105"><ele>348.59999999999997</ele><time>2026-03-22T10:24:45.159Z</time></trkpt><trkpt lat="45.8873517" lon="8.6949417"><ele>349.2</ele><time>2026-03-22T10:24:46.159Z</time></trkpt><trkpt lat="45.887305" lon="8.6947967"><ele>349.8</ele><time>2026-03-22T10:24:47.16Z</time></trkpt><trkpt lat="45.887265" lon="8.6946583"><ele>350.4</ele><time>2026-03-22T10:24:48.159Z</time></trkpt><trkpt lat="45.88723" lon="8.694515"><ele>351.0</ele><time>2026-03-22T10:24:49.159Z</time></trkpt><trkpt lat="45.8872067" lon="8.6943983"><ele>351.0</ele><time>2026-03-22T10:24:50.159Z</time></trkpt><trkpt lat="45.8871833" lon="8.6943"><ele>351.0</ele><time>2026-03-22T10:24:51.159Z</time></trkpt><trkpt lat="45.887155" lon="8.6941583"><ele>351.0</ele><time>2026-03-22T10:24:53.159Z</time></trkpt><trkpt lat="45.8871383" lon="8.693995"><ele>351.0</ele><time>2026-03-22T10:24:55.159Z</time></trkpt><trkpt lat="45.8871067" lon="8.6938017"><ele>351.0</ele><time>2026-03-22T10:24:57.159Z</time></trkpt><trkpt lat="45.8870767" lon="8.6937083"><ele>351.0</ele><time>2026-03-22T10:24:58.159Z</time></trkpt><trkpt lat="45.8870433" lon="8.6936117"><ele>351.0</ele><time>2026-03-22T10:24:59.159Z</time></trkpt><trkpt lat="45.8870033" lon="8.6935317"><ele>351.0</ele><time>2026-03-22T10:25:00.159Z</time></trkpt><trkpt lat="45.88696" lon="8.6934533"><ele>351.0</ele><time>2026-03-22T10:25:01.159Z</time></trkpt><trkpt lat="45.8868833" lon="8.6933283"><ele>351.0</ele><time>2026-03-22T10:25:03.16Z</time></trkpt><trkpt lat="45.8868533" lon="8.693215"><ele>351.0</ele><time>2026-03-22T10:25:05.159Z</time></trkpt><trkpt lat="45.8868867" lon="8.6930917"><ele>350.25</ele><time>2026-03-22T10:25:07.159Z</time></trkpt><trkpt lat="45.8869233" lon="8.6929617"><ele>349.5</ele><time>2026-03-22T10:25:09.159Z</time></trkpt><trkpt lat="45.8868767" lon="8.6927767"><ele>348.75</ele><time>2026-03-22T10:25:11.159Z</time></trkpt><trkpt lat="45.8868317" lon="8.69264"><ele>348.0</ele><time>2026-03-22T10:25:12.159Z</time></trkpt><trkpt lat="45.88678" lon="8.6924917"><ele>348.59999999999997</ele><time>2026-03-22T10:25:13.159Z</time></trkpt><trkpt lat="45.8867167" lon="8.69235"><ele>349.2</ele><time>2026-03-22T10:25:14.159Z</time></trkpt><trkpt lat="45.8866683" lon="8.69223"><ele>349.8</ele><time>2026-03-22T10:25:15.16Z</time></trkpt><trkpt lat="45.8866233" lon="8.6921283"><ele>350.4</ele><time>2026-03-22T10:25:16.159Z</time></trkpt><trkpt lat="45.8865767" lon="8.6920417"><ele>351.0</ele><time>2026-03-22T10:25:17.159Z</time></trkpt><trkpt lat="45.8865217" lon="8.6919467"><ele>351.1666666666667</ele><time>2026-03-22T10:25:18.16Z</time></trkpt><trkpt lat="45.8864717" lon="8.691875"><ele>351.3333333333333</ele><time>2026-03-22T10:25:19.159Z</time></trkpt><trkpt lat="45.8864233" lon="8.6918133"><ele>351.5</ele><time>2026-03-22T10:25:20.159Z</time></trkpt><trkpt lat="45.8863583" lon="8.6917683"><ele>351.66666666666663</ele><time>2026-03-22T10:25:21.16Z</time></trkpt><trkpt lat="45.886275" lon="8.6917133"><ele>351.8333333333333</ele><time>2026-03-22T10:25:22.159Z</time></trkpt><trkpt lat="45.886175" lon="8.6916467"><ele>352.0</ele><time>2026-03-22T10:25:23.159Z</time></trkpt><trkpt lat="45.8860517" lon="8.6915917"><ele>352.0</ele><time>2026-03-22T10:25:24.159Z</time></trkpt><trkpt lat="45.8859417" lon="8.6915233"><ele>352.0</ele><time>2026-03-22T10:25:25.159Z</time></trkpt><trkpt lat="45.88584" lon="8.6914517"><ele>352.0</ele><time>2026-03-22T10:25:26.159Z</time></trkpt><trkpt lat="45.885755" lon="8.691385"><ele>352.0</ele><time>2026-03-22T10:25:27.16Z</time></trkpt><trkpt lat="45.8856867" lon="8.6913267"><ele>352.0</ele><time>2026-03-22T10:25:28.159Z</time></trkpt><trkpt lat="45.8855833" lon="8.6912517"><ele>350.66666666666663</ele><time>2026-03-22T10:25:30.159Z</time></trkpt><trkpt lat="45.8855033" lon="8.69126"><ele>349.3333333333333</ele><time>2026-03-22T10:25:32.159Z</time></trkpt><trkpt lat="45.885445" lon="8.6913517"><ele>348.0</ele><time>2026-03-22T10:25:34.159Z</time></trkpt><trkpt lat="45.8854117" lon="8.6914367"><ele>346.6666666666667</ele><time>2026-03-22T10:25:35.16Z</time></trkpt><trkpt lat="45.88537" lon="8.69155"><ele>345.33333333333337</ele><time>2026-03-22T10:25:36.159Z</time></trkpt><trkpt lat="45.8853167" lon="8.6916683"><ele>344.0</ele><time>2026-03-22T10:25:37.159Z</time></trkpt><trkpt lat="45.8852633" lon="8.6917817"><ele>344.0</ele><time>2026-03-22T10:25:38.159Z</time></trkpt><trkpt lat="45.8852167" lon="8.691895"><ele>344.0</ele><time>2026-03-22T10:25:39.159Z</time></trkpt><trkpt lat="45.885165" lon="8.6920133"><ele>344.0</ele><time>2026-03-22T10:25:40.159Z</time></trkpt><trkpt lat="45.8851167" lon="8.692125"><ele>344.0</ele><time>2026-03-22T10:25:41.16Z</time></trkpt><trkpt lat="45.885075" lon="8.6922317"><ele>344.0</ele><time>2026-03-22T10:25:42.159Z</time></trkpt><trkpt lat="45.8850317" lon="8.692335"><ele>344.0</ele><time>2026-03-22T10:25:43.159Z</time></trkpt><trkpt lat="45.88498" lon="8.692425"><ele>343.00000000000006</ele><time>2026-03-22T10:25:44.16Z</time></trkpt><trkpt lat="45.8849283" lon="8.6924933"><ele>342.0</ele><time>2026-03-22T10:25:45.159Z</time></trkpt><trkpt lat="45.88487" lon="8.6925367"><ele>341.0</ele><time>2026-03-22T10:25:46.159Z</time></trkpt><trkpt lat="45.8848067" lon="8.69255"><ele>340.0</ele><time>2026-03-22T10:25:47.159Z</time></trkpt><trkpt lat="45.8847417" lon="8.69253"><ele>339.0</ele><time>2026-03-22T10:25:48.159Z</time></trkpt><trkpt lat="45.88466" lon="8.6924783"><ele>338.00000000000006</ele><time>2026-03-22T10:25:49.159Z</time></trkpt><trkpt lat="45.88458" lon="8.6924167"><ele>337.0</ele><time>2026-03-22T10:25:50.159Z</time></trkpt><trkpt lat="45.88451" lon="8.6923683"><ele>337.0</ele><time>2026-03-22T10:25:51.159Z</time></trkpt><trkpt lat="45.8844483" lon="8.6923483"><ele>337.0</ele><time>2026-03-22T10:25:52.159Z</time></trkpt><trkpt lat="45.8843433" lon="8.692395"><ele>337.0</ele><time>2026-03-22T10:25:54.159Z</time></trkpt><trkpt lat="45.88429" lon="8.692465"><ele>337.0</ele><time>2026-03-22T10:25:55.159Z</time></trkpt><trkpt lat="45.8842333" lon="8.6925467"><ele>337.0</ele><time>2026-03-22T10:25:56.159Z</time></trkpt><trkpt lat="45.8841683" lon="8.6926217"><ele>337.0</ele><time>2026-03-22T10:25:57.16Z</time></trkpt><trkpt lat="45.8841017" lon="8.6926667"><ele>336.6</ele><time>2026-03-22T10:25:58.159Z</time></trkpt><trkpt lat="45.8840317" lon="8.692675"><ele>336.20000000000005</ele><time>2026-03-22T10:25:59.16Z</time></trkpt><trkpt lat="45.8839567" lon="8.6926517"><ele>335.8</ele><time>2026-03-22T10:26:00.159Z</time></trkpt><trkpt lat="45.8838833" lon="8.6925967"><ele>335.4</ele><time>2026-03-22T10:26:01.159Z</time></trkpt><trkpt lat="45.8838033" lon="8.692505"><ele>335.0</ele><time>2026-03-22T10:26:02.16Z</time></trkpt><trkpt lat="45.88371" lon="8.6923867"><ele>335.0</ele><time>2026-03-22T10:26:03.159Z</time></trkpt><trkpt lat="45.8836133" lon="8.692275"><ele>335.0</ele><time>2026-03-22T10:26:04.159Z</time></trkpt><trkpt lat="45.883525" lon="8.6921717"><ele>335.0</ele><time>2026-03-22T10:26:05.159Z</time></trkpt><trkpt lat="45.8834533" lon="8.6920817"><ele>335.0</ele><time>2026-03-22T10:26:06.159Z</time></trkpt><trkpt lat="45.8833883" lon="8.6920067"><ele>335.0</ele><time>2026-03-22T10:26:07.159Z</time></trkpt><trkpt lat="45.8833233" lon="8.6919517"><ele>335.1666666666667</ele><time>2026-03-22T10:26:08.159Z</time></trkpt><trkpt lat="45.883255" lon="8.691935"><ele>335.33333333333337</ele><time>2026-03-22T10:26:09.16Z</time></trkpt><trkpt lat="45.8831867" lon="8.691955"><ele>335.5</ele><time>2026-03-22T10:26:10.16Z</time></trkpt><trkpt lat="45.883105" lon="8.692005"><ele>335.6666666666667</ele><time>2026-03-22T10:26:11.159Z</time></trkpt><trkpt lat="45.8830067" lon="8.6920667"><ele>335.8333333333333</ele><time>2026-03-22T10:26:12.16Z</time></trkpt><trkpt lat="45.88292" lon="8.69213"><ele>336.0</ele><time>2026-03-22T10:26:13.159Z</time></trkpt><trkpt lat="45.88283" lon="8.6922"><ele>336.0</ele><time>2026-03-22T10:26:14.16Z</time></trkpt><trkpt lat="45.8827617" lon="8.6922717"><ele>336.0</ele><time>2026-03-22T10:26:15.159Z</time></trkpt><trkpt lat="45.8827017" lon="8.6923333"><ele>336.0</ele><time>2026-03-22T10:26:16.159Z</time></trkpt><trkpt lat="45.8826067" lon="8.6924083"><ele>336.0</ele><time>2026-03-22T10:26:18.16Z</time></trkpt><trkpt lat="45.8825317" lon="8.69237"><ele>336.0</ele><time>2026-03-22T10:26:20.16Z</time></trkpt><trkpt lat="45.88248" lon="8.6922883"><ele>336.0</ele><time>2026-03-22T10:26:21.159Z</time></trkpt><trkpt lat="45.882425" lon="8.6921767"><ele>336.6</ele><time>2026-03-22T10:26:22.16Z</time></trkpt><trkpt lat="45.88236" lon="8.692055"><ele>337.20000000000005</ele><time>2026-03-22T10:26:23.159Z</time></trkpt><trkpt lat="45.8822983" lon="8.6919267"><ele>337.79999999999995</ele><time>2026-03-22T10:26:24.159Z</time></trkpt><trkpt lat="45.882235" lon="8.6918117"><ele>338.4</ele><time>2026-03-22T10:26:25.159Z</time></trkpt><trkpt lat="45.8821767" lon="8.6916967"><ele>339.0</ele><time>2026-03-22T10:26:26.159Z</time></trkpt><trkpt lat="45.882115" lon="8.69158"><ele>339.0</ele><time>2026-03-22T10:26:27.159Z</time></trkpt><trkpt lat="45.88206" lon="8.69146"><ele>339.0</ele><time>2026-03-22T10:26:28.159Z</time></trkpt><trkpt lat="45.8820033" lon="8.6913567"><ele>339.0</ele><time>2026-03-22T10:26:29.159Z</time></trkpt><trkpt lat="45.8819517" lon="8.69127"><ele>339.0</ele><time>2026-03-22T10:26:30.16Z</time></trkpt><trkpt lat="45.8819083" lon="8.6911833"><ele>339.0</ele><time>2026-03-22T10:26:31.159Z</time></trkpt><trkpt lat="45.8818483" lon="8.6910733"><ele>339.0</ele><time>2026-03-22T10:26:33.159Z</time></trkpt><trkpt lat="45.8817767" lon="8.6910583"><ele>341.0</ele><time>2026-03-22T10:26:36.159Z</time></trkpt><trkpt lat="45.8817233" lon="8.69112"><ele>343.0</ele><time>2026-03-22T10:26:40.16Z</time></trkpt><trkpt lat="45.8816767" lon="8.6911917"><ele>345.0</ele><time>2026-03-22T10:26:51.16Z</time></trkpt><trkpt lat="45.881625" lon="8.691245"><ele>347.0</ele><time>2026-03-22T10:26:56.16Z</time></trkpt><trkpt lat="45.88161" lon="8.6913483"><ele>349.0</ele><time>2026-03-22T10:26:59.16Z</time></trkpt><trkpt lat="45.881625" lon="8.691465"><ele>351.0</ele><time>2026-03-22T10:27:01.16Z</time></trkpt><trkpt lat="45.8816417" lon="8.691565"><ele>353.0</ele><time>2026-03-22T10:27:02.159Z</time></trkpt><trkpt lat="45.8816583" lon="8.6916767"><ele>353.0</ele><time>2026-03-22T10:27:03.159Z</time></trkpt><trkpt lat="45.8816683" lon="8.6917767"><ele>353.0</ele><time>2026-03-22T10:27:04.159Z</time></trkpt><trkpt lat="45.8816817" lon="8.6918733"><ele>353.0</ele><time>2026-03-22T10:27:05.16Z</time></trkpt><trkpt lat="45.8817067" lon="8.6920217"><ele>353.0</ele><time>2026-03-22T10:27:07.159Z</time></trkpt><trkpt lat="45.8816617" lon="8.6921167"><ele>353.0</ele><time>2026-03-22T10:27:10.159Z</time></trkpt><trkpt lat="45.8815683" lon="8.6921233"><ele>353.0</ele><time>2026-03-22T10:27:13.16Z</time></trkpt><trkpt lat="45.8814967" lon="8.692145"><ele>353.79999999999995</ele><time>2026-03-22T10:27:15.159Z</time></trkpt><trkpt lat="45.88143" lon="8.6921517"><ele>354.6</ele><time>2026-03-22T10:27:17.159Z</time></trkpt><trkpt lat="45.8812533" lon="8.69204"><ele>355.4</ele><time>2026-03-22T10:27:31.159Z</time></trkpt><trkpt lat="45.8811933" lon="8.692"><ele>356.20000000000005</ele><time>2026-03-22T10:27:34.159Z</time></trkpt><trkpt lat="45.8811033" lon="8.6920017"><ele>357.0</ele><time>2026-03-22T10:27:37.159Z</time></trkpt><trkpt lat="45.8810333" lon="8.6920483"><ele>357.0</ele><time>2026-03-22T10:27:39.159Z</time></trkpt><trkpt lat="45.8809533" lon="8.6921417"><ele>357.0</ele><time>2026-03-22T10:27:41.159Z</time></trkpt><trkpt lat="45.8808917" lon="8.6922267"><ele>357.0</ele><time>2026-03-22T10:27:43.159Z</time></trkpt><trkpt lat="45.8808483" lon="8.6923183"><ele>357.0</ele><time>2026-03-22T10:27:45.159Z</time></trkpt><trkpt lat="45.880825" lon="8.69248"><ele>357.0</ele><time>2026-03-22T10:27:47.159Z</time></trkpt><trkpt lat="45.8808217" lon="8.6925833"><ele>354.5</ele><time>2026-03-22T10:27:48.16Z</time></trkpt><trkpt lat="45.8808167" lon="8.69269"><ele>352.0</ele><time>2026-03-22T10:27:49.159Z</time></trkpt><trkpt lat="45.8808183" lon="8.6927883"><ele>349.5</ele><time>2026-03-22T10:27:50.159Z</time></trkpt><trkpt lat="45.8808267" lon="8.6928883"><ele>347.0</ele><time>2026-03-22T10:27:51.159Z</time></trkpt><trkpt lat="45.8808483" lon="8.6929783"><ele>344.5</ele><time>2026-03-22T10:27:52.159Z</time></trkpt><trkpt lat="45.8808817" lon="8.6931383"><ele>342.0</ele><time>2026-03-22T10:27:54.159Z</time></trkpt><trkpt lat="45.880905" lon="8.69331"><ele>341.5</ele><time>2026-03-22T10:27:56.159Z</time></trkpt><trkpt lat="45.8809183" lon="8.6934067"><ele>341.0</ele><time>2026-03-22T10:27:57.159Z</time></trkpt><trkpt lat="45.880935" lon="8.6935017"><ele>340.5</ele><time>2026-03-22T10:27:58.159Z</time></trkpt><trkpt lat="45.8809567" lon="8.6936267"><ele>340.0</ele><time>2026-03-22T10:27:59.159Z</time></trkpt><trkpt lat="45.8809733" lon="8.693765"><ele>339.5</ele><time>2026-03-22T10:28:00.159Z</time></trkpt><trkpt lat="45.88101" lon="8.6938983"><ele>339.0</ele><time>2026-03-22T10:28:01.16Z</time></trkpt><trkpt lat="45.8810517" lon="8.6940367"><ele>343.0</ele><time>2026-03-22T10:28:02.159Z</time></trkpt><trkpt lat="45.881105" lon="8.6941633"><ele>347.0</ele><time>2026-03-22T10:28:03.159Z</time></trkpt><trkpt lat="45.881155" lon="8.6942633"><ele>351.0</ele><time>2026-03-22T10:28:04.159Z</time></trkpt><trkpt lat="45.88119" lon="8.6943683"><ele>355.0</ele><time>2026-03-22T10:28:05.159Z</time></trkpt><trkpt lat="45.88122" lon="8.6944917"><ele>359.0</ele><time>2026-03-22T10:28:06.16Z</time></trkpt><trkpt lat="45.8812333" lon="8.6946433"><ele>359.4</ele><time>2026-03-22T10:28:07.16Z</time></trkpt><trkpt lat="45.8812317" lon="8.6948133"><ele>359.79999999999995</ele><time>2026-03-22T10:28:08.159Z</time></trkpt><trkpt lat="45.881225" lon="8.694975"><ele>360.20000000000005</ele><time>2026-03-22T10:28:09.159Z</time></trkpt><trkpt lat="45.8812167" lon="8.6951117"><ele>360.6</ele><time>2026-03-22T10:28:10.159Z</time></trkpt><trkpt lat="45.8811883" lon="8.6952433"><ele>361.0</ele><time>2026-03-22T10:28:11.159Z</time></trkpt><trkpt lat="45.88116" lon="8.6953633"><ele>361.3333333333333</ele><time>2026-03-22T10:28:12.159Z</time></trkpt><trkpt lat="45.8811433" lon="8.6954667"><ele>361.66666666666663</ele><time>2026-03-22T10:28:13.159Z</time></trkpt><trkpt lat="45.88114" lon="8.6955683"><ele>362.0</ele><time>2026-03-22T10:28:14.16Z</time></trkpt><trkpt lat="45.8811467" lon="8.69569"><ele>362.3333333333333</ele><time>2026-03-22T10:28:15.159Z</time></trkpt><trkpt lat="45.8811567" lon="8.69582"><ele>362.6666666666667</ele><time>2026-03-22T10:28:16.159Z</time></trkpt><trkpt lat="45.88117" lon="8.6959433"><ele>363.0</ele><time>2026-03-22T10:28:17.16Z</time></trkpt><trkpt lat="45.8811917" lon="8.6960433"><ele>363.2</ele><time>2026-03-22T10:28:18.159Z</time></trkpt><trkpt lat="45.88123" lon="8.6962"><ele>363.4</ele><time>2026-03-22T10:28:20.159Z</time></trkpt><trkpt lat="45.8812367" lon="8.6962917"><ele>363.59999999999997</ele><time>2026-03-22T10:28:21.159Z</time></trkpt><trkpt lat="45.8812383" lon="8.6964183"><ele>363.79999999999995</ele><time>2026-03-22T10:28:22.159Z</time></trkpt><trkpt lat="45.8812417" lon="8.6965667"><ele>364.0</ele><time>2026-03-22T10:28:23.159Z</time></trkpt><trkpt lat="45.8812283" lon="8.6967433"><ele>365.0</ele><time>2026-03-22T10:28:24.159Z</time></trkpt><trkpt lat="45.881225" lon="8.69693"><ele>366.0</ele><time>2026-03-22T10:28:25.16Z</time></trkpt><trkpt lat="45.8812083" lon="8.6971367"><ele>367.0</ele><time>2026-03-22T10:28:26.159Z</time></trkpt><trkpt lat="45.8812" lon="8.6973083"><ele>368.0</ele><time>2026-03-22T10:28:27.159Z</time></trkpt><trkpt lat="45.8812017" lon="8.6974467"><ele>368.0</ele><time>2026-03-22T10:28:28.159Z</time></trkpt><trkpt lat="45.881215" lon="8.6975717"><ele>368.0</ele><time>2026-03-22T10:28:29.159Z</time></trkpt><trkpt lat="45.88123" lon="8.6976717"><ele>368.0</ele><time>2026-03-22T10:28:30.16Z</time></trkpt><trkpt lat="45.8812383" lon="8.6977733"><ele>368.0</ele><time>2026-03-22T10:28:31.159Z</time></trkpt><trkpt lat="45.8812317" lon="8.697875"><ele>368.0</ele><time>2026-03-22T10:28:32.159Z</time></trkpt><trkpt lat="45.88121" lon="8.6979667"><ele>368.0</ele><time>2026-03-22T10:28:33.16Z</time></trkpt><trkpt lat="45.881175" lon="8.6980667"><ele>368.0</ele><time>2026-03-22T10:28:34.16Z</time></trkpt><trkpt lat="45.88115" lon="8.69817"><ele>367.4</ele><time>2026-03-22T10:28:35.159Z</time></trkpt><trkpt lat="45.8811217" lon="8.6982617"><ele>366.79999999999995</ele><time>2026-03-22T10:28:36.159Z</time></trkpt><trkpt lat="45.8810733" lon="8.6984167"><ele>366.2</ele><time>2026-03-22T10:28:38.159Z</time></trkpt><trkpt lat="45.88109" lon="8.6985517"><ele>365.6</ele><time>2026-03-22T10:28:40.159Z</time></trkpt><trkpt lat="45.8811733" lon="8.6987083"><ele>365.0</ele><time>2026-03-22T10:28:42.16Z</time></trkpt><trkpt lat="45.88122" lon="8.698815"><ele>364.0</ele><time>2026-03-22T10:28:43.159Z</time></trkpt><trkpt lat="45.881265" lon="8.6989133"><ele>363.0</ele><time>2026-03-22T10:28:44.159Z</time></trkpt><trkpt lat="45.8813033" lon="8.699"><ele>362.0</ele><time>2026-03-22T10:28:45.159Z</time></trkpt><trkpt lat="45.881355" lon="8.699085"><ele>361.0</ele><time>2026-03-22T10:28:46.16Z</time></trkpt><trkpt lat="45.88141" lon="8.69917"><ele>360.0</ele><time>2026-03-22T10:28:47.159Z</time></trkpt><trkpt lat="45.8814683" lon="8.69924"><ele>359.0</ele><time>2026-03-22T10:28:48.159Z</time></trkpt><trkpt lat="45.88153" lon="8.699295"><ele>359.0</ele><time>2026-03-22T10:28:49.159Z</time></trkpt><trkpt lat="45.8816033" lon="8.6993317"><ele>359.0</ele><time>2026-03-22T10:28:50.16Z</time></trkpt><trkpt lat="45.88169" lon="8.6993667"><ele>359.0</ele><time>2026-03-22T10:28:51.159Z</time></trkpt><trkpt lat="45.8817733" lon="8.6994083"><ele>359.0</ele><time>2026-03-22T10:28:52.159Z</time></trkpt><trkpt lat="45.8818617" lon="8.6994633"><ele>359.0</ele><time>2026-03-22T10:28:53.159Z</time></trkpt><trkpt lat="45.8819483" lon="8.6995533"><ele>358.5</ele><time>2026-03-22T10:28:54.16Z</time></trkpt><trkpt lat="45.88203" lon="8.6996483"><ele>358.0</ele><time>2026-03-22T10:28:55.159Z</time></trkpt><trkpt lat="45.8820967" lon="8.6997517"><ele>357.5</ele><time>2026-03-22T10:28:56.159Z</time></trkpt><trkpt lat="45.882155" lon="8.69983"><ele>357.0</ele><time>2026-03-22T10:28:57.16Z</time></trkpt><trkpt lat="45.8822083" lon="8.69989"><ele>356.5</ele><time>2026-03-22T10:28:58.159Z</time></trkpt><trkpt lat="45.8822867" lon="8.6999567"><ele>356.0</ele><time>2026-03-22T10:29:00.159Z</time></trkpt><trkpt lat="45.8823167" lon="8.7000617"><ele>356.0</ele><time>2026-03-22T10:29:04.159Z</time></trkpt><trkpt lat="45.8822783" lon="8.700235"><ele>356.0</ele><time>2026-03-22T10:29:06.159Z</time></trkpt><trkpt lat="45.8822683" lon="8.70034"><ele>356.0</ele><time>2026-03-22T10:29:07.16Z</time></trkpt><trkpt lat="45.88226" lon="8.7004483"><ele>356.0</ele><time>2026-03-22T10:29:08.159Z</time></trkpt><trkpt lat="45.8822533" lon="8.700545"><ele>356.0</ele><time>2026-03-22T10:29:09.159Z</time></trkpt><trkpt lat="45.8822" lon="8.70069"><ele>356.4</ele><time>2026-03-22T10:29:11.16Z</time></trkpt><trkpt lat="45.8821283" lon="8.7007367"><ele>356.8</ele><time>2026-03-22T10:29:12.159Z</time></trkpt><trkpt lat="45.882025" lon="8.7007533"><ele>357.2</ele><time>2026-03-22T10:29:13.159Z</time></trkpt><trkpt lat="45.8819217" lon="8.700755"><ele>357.59999999999997</ele><time>2026-03-22T10:29:14.16Z</time></trkpt><trkpt lat="45.8818133" lon="8.7007367"><ele>358.0</ele><time>2026-03-22T10:29:15.159Z</time></trkpt><trkpt lat="45.8817067" lon="8.700725"><ele>358.0</ele><time>2026-03-22T10:29:16.159Z</time></trkpt><trkpt lat="45.8816017" lon="8.7007017"><ele>358.0</ele><time>2026-03-22T10:29:17.159Z</time></trkpt><trkpt lat="45.881505" lon="8.70069"><ele>358.0</ele><time>2026-03-22T10:29:18.16Z</time></trkpt><trkpt lat="45.88142" lon="8.7006783"><ele>358.0</ele><time>2026-03-22T10:29:19.16Z</time></trkpt><trkpt lat="45.88135" lon="8.7006767"><ele>358.0</ele><time>2026-03-22T10:29:20.159Z</time></trkpt><trkpt lat="45.8812467" lon="8.70065"><ele>358.0</ele><time>2026-03-22T10:29:22.16Z</time></trkpt><trkpt lat="45.8811867" lon="8.7006133"><ele>358.0</ele><time>2026-03-22T10:29:23.159Z</time></trkpt><trkpt lat="45.8810533" lon="8.7005567"><ele>358.0</ele><time>2026-03-22T10:29:25.159Z</time></trkpt><trkpt lat="45.8809633" lon="8.7005233"><ele>358.0</ele><time>2026-03-22T10:29:26.159Z</time></trkpt><trkpt lat="45.8808933" lon="8.700495"><ele>358.0</ele><time>2026-03-22T10:29:27.159Z</time></trkpt><trkpt lat="45.880825" lon="8.7004617"><ele>358.0</ele><time>2026-03-22T10:29:28.16Z</time></trkpt><trkpt lat="45.880755" lon="8.7004167"><ele>358.59999999999997</ele><time>2026-03-22T10:29:29.159Z</time></trkpt><trkpt lat="45.8806883" lon="8.7003583"><ele>359.2</ele><time>2026-03-22T10:29:30.159Z</time></trkpt><trkpt lat="45.8806233" lon="8.7002617"><ele>359.8</ele><time>2026-03-22T10:29:31.159Z</time></trkpt><trkpt lat="45.88057" lon="8.7001183"><ele>360.4</ele><time>2026-03-22T10:29:32.159Z</time></trkpt><trkpt lat="45.880515" lon="8.6999817"><ele>361.0</ele><time>2026-03-22T10:29:33.159Z</time></trkpt><trkpt lat="45.8804767" lon="8.6998583"><ele>361.0</ele><time>2026-03-22T10:29:34.159Z</time></trkpt><trkpt lat="45.880445" lon="8.6997517"><ele>361.0</ele><time>2026-03-22T10:29:35.159Z</time></trkpt><trkpt lat="45.88041" lon="8.6996583"><ele>361.0</ele><time>2026-03-22T10:29:36.159Z</time></trkpt><trkpt lat="45.88034" lon="8.6995"><ele>361.0</ele><time>2026-03-22T10:29:38.159Z</time></trkpt><trkpt lat="45.8803033" lon="8.6994217"><ele>361.0</ele><time>2026-03-22T10:29:39.159Z</time></trkpt><trkpt lat="45.88027" lon="8.699325"><ele>361.0</ele><time>2026-03-22T10:29:40.16Z</time></trkpt><trkpt lat="45.8802417" lon="8.699215"><ele>360.5</ele><time>2026-03-22T10:29:41.159Z</time></trkpt><trkpt lat="45.8802133" lon="8.6991067"><ele>360.0</ele><time>2026-03-22T10:29:42.159Z</time></trkpt><trkpt lat="45.88022" lon="8.6989967"><ele>359.5</ele><time>2026-03-22T10:29:43.159Z</time></trkpt><trkpt lat="45.8802333" lon="8.6988983"><ele>359.0</ele><time>2026-03-22T10:29:44.16Z</time></trkpt><trkpt lat="45.88025" lon="8.69881"><ele>358.5</ele><time>2026-03-22T10:29:45.159Z</time></trkpt><trkpt lat="45.8802367" lon="8.69866"><ele>358.0</ele><time>2026-03-22T10:29:47.159Z</time></trkpt><trkpt lat="45.8801983" lon="8.6984983"><ele>357.5714285714286</ele><time>2026-03-22T10:29:49.159Z</time></trkpt><trkpt lat="45.8801667" lon="8.6984083"><ele>357.14285714285717</ele><time>2026-03-22T10:29:50.159Z</time></trkpt><trkpt lat="45.8801317" lon="8.6983183"><ele>356.7142857142857</ele><time>2026-03-22T10:29:51.16Z</time></trkpt><trkpt lat="45.8801" lon="8.69823"><ele>356.28571428571433</ele><time>2026-03-22T10:29:52.16Z</time></trkpt><trkpt lat="45.8800717" lon="8.6981417"><ele>355.8571428571429</ele><time>2026-03-22T10:29:53.159Z</time></trkpt><trkpt lat="45.8800433" lon="8.6980567"><ele>355.42857142857144</ele><time>2026-03-22T10:29:54.159Z</time></trkpt><trkpt lat="45.88001" lon="8.6979783"><ele>355.0</ele><time>2026-03-22T10:29:55.159Z</time></trkpt><trkpt lat="45.8799567" lon="8.6978683"><ele>358.8333333333333</ele><time>2026-03-22T10:29:57.159Z</time></trkpt><trkpt lat="45.8798917" lon="8.6978183"><ele>362.66666666666663</ele><time>2026-03-22T10:29:59.159Z</time></trkpt><trkpt lat="45.8797983" lon="8.6977767"><ele>366.5</ele><time>2026-03-22T10:30:01.159Z</time></trkpt><trkpt lat="45.8796983" lon="8.69772"><ele>370.3333333333333</ele><time>2026-03-22T10:30:03.159Z</time></trkpt><trkpt lat="45.8796317" lon="8.6976933"><ele>374.1666666666667</ele><time>2026-03-22T10:30:04.16Z</time></trkpt><trkpt lat="45.8795633" lon="8.69765"><ele>378.0</ele><time>2026-03-22T10:30:05.159Z</time></trkpt><trkpt lat="45.879465" lon="8.6976583"><ele>378.0</ele><time>2026-03-22T10:30:07.159Z</time></trkpt><trkpt lat="45.8794083" lon="8.6975883"><ele>378.0</ele><time>2026-03-22T10:30:11.159Z</time></trkpt><trkpt lat="45.8793883" lon="8.6974567"><ele>378.0</ele><time>2026-03-22T10:30:13.159Z</time></trkpt><trkpt lat="45.87939" lon="8.6973633"><ele>378.0</ele><time>2026-03-22T10:30:14.16Z</time></trkpt><trkpt lat="45.8793783" lon="8.69722"><ele>378.0</ele><time>2026-03-22T10:30:15.16Z</time></trkpt><trkpt lat="45.8793567" lon="8.69707"><ele>378.0</ele><time>2026-03-22T10:30:16.159Z</time></trkpt><trkpt lat="45.8793367" lon="8.6969483"><ele>378.0</ele><time>2026-03-22T10:30:17.159Z</time></trkpt><trkpt lat="45.8793133" lon="8.6968533"><ele>378.0</ele><time>2026-03-22T10:30:18.16Z</time></trkpt><trkpt lat="45.8792983" lon="8.6967583"><ele>378.0</ele><time>2026-03-22T10:30:19.159Z</time></trkpt><trkpt lat="45.8792967" lon="8.69666"><ele>378.0</ele><time>2026-03-22T10:30:20.159Z</time></trkpt><trkpt lat="45.8793" lon="8.6965617"><ele>378.0</ele><time>2026-03-22T10:30:21.159Z</time></trkpt><trkpt lat="45.8793067" lon="8.6964717"><ele>378.0</ele><time>2026-03-22T10:30:22.16Z</time></trkpt><trkpt lat="45.879305" lon="8.69638"><ele>378.0</ele><time>2026-03-22T10:30:23.159Z</time></trkpt><trkpt lat="45.879295" lon="8.6962783"><ele>378.0</ele><time>2026-03-22T10:30:24.16Z</time></trkpt><trkpt lat="45.8792783" lon="8.69618"><ele>378.0</ele><time>2026-03-22T10:30:25.16Z</time></trkpt><trkpt lat="45.879255" lon="8.6960833"><ele>378.0</ele><time>2026-03-22T10:30:26.16Z</time></trkpt><trkpt lat="45.8792217" lon="8.695985"><ele>378.0</ele><time>2026-03-22T10:30:27.159Z</time></trkpt><trkpt lat="45.8791767" lon="8.695895"><ele>378.0</ele><time>2026-03-22T10:30:28.159Z</time></trkpt><trkpt lat="45.8791133" lon="8.6957983"><ele>378.0</ele><time>2026-03-22T10:30:29.159Z</time></trkpt><trkpt lat="45.87904" lon="8.6956933"><ele>380.75</ele><time>2026-03-22T10:30:30.159Z</time></trkpt><trkpt lat="45.8789417" lon="8.6955567"><ele>383.5</ele><time>2026-03-22T10:30:31.159Z</time></trkpt><trkpt lat="45.8788383" lon="8.695405"><ele>386.25</ele><time>2026-03-22T10:30:32.16Z</time></trkpt><trkpt lat="45.8787533" lon="8.69527"><ele>389.0</ele><time>2026-03-22T10:30:33.159Z</time></trkpt><trkpt lat="45.8786767" lon="8.69513"><ele>389.0</ele><time>2026-03-22T10:30:34.159Z</time></trkpt><trkpt lat="45.8786017" lon="8.6950083"><ele>389.0</ele><time>2026-03-22T10:30:35.159Z</time></trkpt><trkpt lat="45.8785433" lon="8.694885"><ele>389.0</ele><time>2026-03-22T10:30:36.16Z</time></trkpt><trkpt lat="45.8784867" lon="8.694785"><ele>389.0</ele><time>2026-03-22T10:30:37.159Z</time></trkpt><trkpt lat="45.8784267" lon="8.6946817"><ele>389.0</ele><time>2026-03-22T10:30:38.159Z</time></trkpt><trkpt lat="45.87838" lon="8.69459"><ele>389.49999999999994</ele><time>2026-03-22T10:30:39.159Z</time></trkpt><trkpt lat="45.8783433" lon="8.6945133"><ele>390.0</ele><time>2026-03-22T10:30:40.159Z</time></trkpt><trkpt lat="45.8782933" lon="8.694385"><ele>390.5</ele><time>2026-03-22T10:30:42.159Z</time></trkpt><trkpt lat="45.8782317" lon="8.6942667"><ele>391.0</ele><time>2026-03-22T10:30:44.159Z</time></trkpt><trkpt lat="45.87821" lon="8.6941817"><ele>391.49999999999994</ele><time>2026-03-22T10:30:45.159Z</time></trkpt><trkpt lat="45.8781867" lon="8.6940817"><ele>392.0</ele><time>2026-03-22T10:30:46.159Z</time></trkpt><trkpt lat="45.8781717" lon="8.69398"><ele>391.8</ele><time>2026-03-22T10:30:47.16Z</time></trkpt><trkpt lat="45.8781533" lon="8.6938867"><ele>391.6</ele><time>2026-03-22T10:30:48.16Z</time></trkpt><trkpt lat="45.8780933" lon="8.6937433"><ele>391.40000000000003</ele><time>2026-03-22T10:30:50.159Z</time></trkpt><trkpt lat="45.878045" lon="8.6936133"><ele>391.20000000000005</ele><time>2026-03-22T10:30:52.16Z</time></trkpt><trkpt lat="45.8780133" lon="8.6935333"><ele>391.0</ele><time>2026-03-22T10:30:54.159Z</time></trkpt><trkpt lat="45.8779583" lon="8.6933983"><ele>391.0</ele><time>2026-03-22T10:30:57.159Z</time></trkpt><trkpt lat="45.87793" lon="8.6933033"><ele>391.0</ele><time>2026-03-22T10:30:58.159Z</time></trkpt><trkpt lat="45.87789" lon="8.6931867"><ele>391.0</ele><time>2026-03-22T10:30:59.159Z</time></trkpt><trkpt lat="45.8778383" lon="8.6930517"><ele>391.0</ele><time>2026-03-22T10:31:00.159Z</time></trkpt><trkpt lat="45.8777867" lon="8.6929217"><ele>391.0</ele><time>2026-03-22T10:31:01.159Z</time></trkpt><trkpt lat="45.87773" lon="8.69279"><ele>391.83333333333337</ele><time>2026-03-22T10:31:02.159Z</time></trkpt><trkpt lat="45.87768" lon="8.6926933"><ele>392.6666666666667</ele><time>2026-03-22T10:31:03.159Z</time></trkpt><trkpt lat="45.87763" lon="8.6926067"><ele>393.5</ele><time>2026-03-22T10:31:04.159Z</time></trkpt><trkpt lat="45.87758" lon="8.6925117"><ele>394.33333333333337</ele><time>2026-03-22T10:31:05.159Z</time></trkpt><trkpt lat="45.8775333" lon="8.6924217"><ele>395.1666666666667</ele><time>2026-03-22T10:31:06.159Z</time></trkpt><trkpt lat="45.8774867" lon="8.6923233"><ele>396.0</ele><time>2026-03-22T10:31:07.159Z</time></trkpt><trkpt lat="45.8774433" lon="8.6922367"><ele>396.0</ele><time>2026-03-22T10:31:08.159Z</time></trkpt><trkpt lat="45.8774017" lon="8.6921433"><ele>396.0</ele><time>2026-03-22T10:31:09.16Z</time></trkpt><trkpt lat="45.8773583" lon="8.6920733"><ele>396.0</ele><time>2026-03-22T10:31:10.16Z</time></trkpt><trkpt lat="45.8772883" lon="8.691955"><ele>396.0</ele><time>2026-03-22T10:31:12.16Z</time></trkpt><trkpt lat="45.8772367" lon="8.6918767"><ele>396.0</ele><time>2026-03-22T10:31:14.159Z</time></trkpt><trkpt lat="45.877115" lon="8.6917817"><ele>396.0</ele><time>2026-03-22T10:31:42.159Z</time></trkpt><trkpt lat="45.87705" lon="8.6917817"><ele>396.0</ele><time>2026-03-22T10:32:15.159Z</time></trkpt><trkpt lat="45.876995" lon="8.6918533"><ele>396.0</ele><time>2026-03-22T10:32:21.159Z</time></trkpt><trkpt lat="45.8769567" lon="8.6919267"><ele>396.0</ele><time>2026-03-22T10:32:23.159Z</time></trkpt><trkpt lat="45.8769067" lon="8.69201"><ele>396.0</ele><time>2026-03-22T10:32:26.16Z</time></trkpt><trkpt lat="45.8768533" lon="8.692085"><ele>396.0</ele><time>2026-03-22T10:32:29.16Z</time></trkpt><trkpt lat="45.8768067" lon="8.6921467"><ele>396.0</ele><time>2026-03-22T10:32:31.159Z</time></trkpt><trkpt lat="45.876745" lon="8.6922283"><ele>393.8</ele><time>2026-03-22T10:32:33.159Z</time></trkpt><trkpt lat="45.87668" lon="8.6922883"><ele>391.6</ele><time>2026-03-22T10:32:35.159Z</time></trkpt><trkpt lat="45.8766" lon="8.6923417"><ele>389.4</ele><time>2026-03-22T10:32:38.16Z</time></trkpt><trkpt lat="45.8765167" lon="8.692465"><ele>387.2</ele><time>2026-03-22T10:33:02.159Z</time></trkpt><trkpt lat="45.87659" lon="8.69241"><ele>385.0</ele><time>2026-03-22T10:33:09.159Z</time></trkpt><trkpt lat="45.8766867" lon="8.6923567"><ele>385.00000000000006</ele><time>2026-03-22T10:33:11.159Z</time></trkpt><trkpt lat="45.8767667" lon="8.6922733"><ele>385.0</ele><time>2026-03-22T10:33:13.159Z</time></trkpt><trkpt lat="45.8768183" lon="8.6921933"><ele>385.0</ele><time>2026-03-22T10:33:15.159Z</time></trkpt><trkpt lat="45.8768733" lon="8.6921217"><ele>385.0</ele><time>2026-03-22T10:33:17.16Z</time></trkpt><trkpt lat="45.87691" lon="8.6920417"><ele>385.00000000000006</ele><time>2026-03-22T10:33:19.159Z</time></trkpt><trkpt lat="45.8769467" lon="8.6919567"><ele>385.0</ele><time>2026-03-22T10:33:21.159Z</time></trkpt><trkpt lat="45.8769883" lon="8.69188"><ele>386.6</ele><time>2026-03-22T10:33:24.16Z</time></trkpt><trkpt lat="45.8770283" lon="8.69178"><ele>388.2</ele><time>2026-03-22T10:33:28.159Z</time></trkpt><trkpt lat="45.877065" lon="8.691615"><ele>389.79999999999995</ele><time>2026-03-22T10:35:36.16Z</time></trkpt><trkpt lat="45.8771083" lon="8.6914917"><ele>391.4</ele><time>2026-03-22T10:35:38.159Z</time></trkpt><trkpt lat="45.8771783" lon="8.6914"><ele>393.0</ele><time>2026-03-22T10:35:40.159Z</time></trkpt><trkpt lat="45.8772317" lon="8.69133"><ele>393.0</ele><time>2026-03-22T10:35:42.159Z</time></trkpt><trkpt lat="45.8772733" lon="8.6912217"><ele>393.0</ele><time>2026-03-22T10:35:45.159Z</time></trkpt><trkpt lat="45.8772933" lon="8.69113"><ele>393.0</ele><time>2026-03-22T10:35:47.159Z</time></trkpt><trkpt lat="45.877305" lon="8.691005"><ele>393.0</ele><time>2026-03-22T10:35:50.16Z</time></trkpt><trkpt lat="45.87732" lon="8.6908833"><ele>393.0</ele><time>2026-03-22T10:35:53.159Z</time></trkpt><trkpt lat="45.8773133" lon="8.6907883"><ele>393.0</ele><time>2026-03-22T10:35:55.16Z</time></trkpt><trkpt lat="45.87731" lon="8.690685"><ele>391.7142857142857</ele><time>2026-03-22T10:35:57.16Z</time></trkpt><trkpt lat="45.8773" lon="8.69058"><ele>390.42857142857144</ele><time>2026-03-22T10:36:00.159Z</time></trkpt><trkpt lat="45.877295" lon="8.6904667"><ele>389.1428571428571</ele><time>2026-03-22T10:36:02.159Z</time></trkpt><trkpt lat="45.877275" lon="8.6903683"><ele>387.8571428571429</ele><time>2026-03-22T10:36:04.159Z</time></trkpt><trkpt lat="45.8772533" lon="8.6902533"><ele>386.57142857142856</ele><time>2026-03-22T10:36:07.159Z</time></trkpt><trkpt lat="45.877255" lon="8.69016"><ele>385.2857142857143</ele><time>2026-03-22T10:36:09.159Z</time></trkpt><trkpt lat="45.8772583" lon="8.690065"><ele>384.0</ele><time>2026-03-22T10:36:11.159Z</time></trkpt><trkpt lat="45.8772467" lon="8.68997"><ele>382.1666666666667</ele><time>2026-03-22T10:36:13.159Z</time></trkpt><trkpt lat="45.87724" lon="8.6898383"><ele>380.3333333333333</ele><time>2026-03-22T10:36:15.159Z</time></trkpt><trkpt lat="45.8772433" lon="8.6897433"><ele>378.5</ele><time>2026-03-22T10:36:17.159Z</time></trkpt><trkpt lat="45.8772" lon="8.6896567"><ele>376.66666666666663</ele><time>2026-03-22T10:36:19.16Z</time></trkpt><trkpt lat="45.877165" lon="8.6895483"><ele>374.8333333333333</ele><time>2026-03-22T10:36:22.16Z</time></trkpt><trkpt lat="45.8771283" lon="8.689425"><ele>373.0</ele><time>2026-03-22T10:36:25.16Z</time></trkpt><trkpt lat="45.8771017" lon="8.68934"><ele>373.0</ele><time>2026-03-22T10:36:27.159Z</time></trkpt><trkpt lat="45.877175" lon="8.689335"><ele>373.0</ele><time>2026-03-22T10:36:34.159Z</time></trkpt><trkpt lat="45.877235" lon="8.6893733"><ele>373.0</ele><time>2026-03-22T10:36:36.159Z</time></trkpt><trkpt lat="45.8772917" lon="8.68942"><ele>373.0</ele><time>2026-03-22T10:36:38.159Z</time></trkpt><trkpt lat="45.8773467" lon="8.68949"><ele>373.0</ele><time>2026-03-22T10:36:40.159Z</time></trkpt><trkpt lat="45.877385" lon="8.689575"><ele>373.0</ele><time>2026-03-22T10:36:42.159Z</time></trkpt><trkpt lat="45.8774283" lon="8.6896717"><ele>373.0</ele><time>2026-03-22T10:36:44.159Z</time></trkpt><trkpt lat="45.8774767" lon="8.6897567"><ele>373.0</ele><time>2026-03-22T10:36:46.159Z</time></trkpt><trkpt lat="45.8775283" lon="8.6898417"><ele>373.0</ele><time>2026-03-22T10:36:48.159Z</time></trkpt><trkpt lat="45.87759" lon="8.689965"><ele>373.0</ele><time>2026-03-22T10:36:50.16Z</time></trkpt><trkpt lat="45.8776617" lon="8.6900833"><ele>373.0</ele><time>2026-03-22T10:36:52.16Z</time></trkpt><trkpt lat="45.877705" lon="8.690155"><ele>373.0</ele><time>2026-03-22T10:36:53.159Z</time></trkpt><trkpt lat="45.87776" lon="8.6902517"><ele>373.0</ele><time>2026-03-22T10:36:55.159Z</time></trkpt><trkpt lat="45.87781" lon="8.6903567"><ele>369.3333333333333</ele><time>2026-03-22T10:36:57.159Z</time></trkpt><trkpt lat="45.877855" lon="8.69045"><ele>365.66666666666663</ele><time>2026-03-22T10:36:59.16Z</time></trkpt><trkpt lat="45.8778983" lon="8.6905283"><ele>362.0</ele><time>2026-03-22T10:37:01.159Z</time></trkpt><trkpt lat="45.8779483" lon="8.690655"><ele>358.3333333333333</ele><time>2026-03-22T10:37:04.159Z</time></trkpt><trkpt lat="45.877985" lon="8.690755"><ele>354.6666666666667</ele><time>2026-03-22T10:37:06.159Z</time></trkpt><trkpt lat="45.8780417" lon="8.69084"><ele>351.0</ele><time>2026-03-22T10:37:08.16Z</time></trkpt><trkpt lat="45.8781217" lon="8.6909083"><ele>351.0</ele><time>2026-03-22T10:37:10.159Z</time></trkpt><trkpt lat="45.8782017" lon="8.69097"><ele>351.0</ele><time>2026-03-22T10:37:12.159Z</time></trkpt><trkpt lat="45.8782633" lon="8.6910383"><ele>351.0</ele><time>2026-03-22T10:37:15.159Z</time></trkpt><trkpt lat="45.8783267" lon="8.6910983"><ele>351.0</ele><time>2026-03-22T10:37:17.159Z</time></trkpt><trkpt lat="45.8783717" lon="8.6911617"><ele>351.0</ele><time>2026-03-22T10:37:19.159Z</time></trkpt><trkpt lat="45.8784217" lon="8.6912333"><ele>351.0</ele><time>2026-03-22T10:37:21.159Z</time></trkpt><trkpt lat="45.878485" lon="8.6912883"><ele>349.1666666666667</ele><time>2026-03-22T10:37:23.159Z</time></trkpt><trkpt lat="45.8785633" lon="8.6913417"><ele>347.3333333333333</ele><time>2026-03-22T10:37:25.159Z</time></trkpt><trkpt lat="45.8786567" lon="8.6914183"><ele>345.5</ele><time>2026-03-22T10:37:27.159Z</time></trkpt><trkpt lat="45.8787417" lon="8.691505"><ele>343.66666666666663</ele><time>2026-03-22T10:37:29.16Z</time></trkpt><trkpt lat="45.8788017" lon="8.6915733"><ele>341.8333333333333</ele><time>2026-03-22T10:37:31.159Z</time></trkpt><trkpt lat="45.87886" lon="8.6916333"><ele>340.0</ele><time>2026-03-22T10:37:33.16Z</time></trkpt><trkpt lat="45.8789283" lon="8.691685"><ele>340.0</ele><time>2026-03-22T10:37:35.159Z</time></trkpt><trkpt lat="45.8789967" lon="8.6917433"><ele>340.0</ele><time>2026-03-22T10:37:37.16Z</time></trkpt><trkpt lat="45.8790617" lon="8.6918"><ele>340.0</ele><time>2026-03-22T10:37:39.159Z</time></trkpt><trkpt lat="45.87913" lon="8.6918467"><ele>340.0</ele><time>2026-03-22T10:37:41.16Z</time></trkpt><trkpt lat="45.8792" lon="8.6918817"><ele>340.0</ele><time>2026-03-22T10:37:43.159Z</time></trkpt><trkpt lat="45.8792967" lon="8.69197"><ele>340.0</ele><time>2026-03-22T10:37:45.159Z</time></trkpt><trkpt lat="45.8793583" lon="8.69204"><ele>339.0</ele><time>2026-03-22T10:37:48.16Z</time></trkpt><trkpt lat="45.8794267" lon="8.6921"><ele>338.0</ele><time>2026-03-22T10:37:50.159Z</time></trkpt><trkpt lat="45.8795117" lon="8.6921483"><ele>337.0</ele><time>2026-03-22T10:37:52.159Z</time></trkpt><trkpt lat="45.8795767" lon="8.6922067"><ele>336.0</ele><time>2026-03-22T10:37:55.16Z</time></trkpt><trkpt lat="45.879635" lon="8.6921717"><ele>335.0</ele><time>2026-03-22T10:37:58.159Z</time></trkpt><trkpt lat="45.8796333" lon="8.6920317"><ele>334.0</ele><time>2026-03-22T10:38:00.16Z</time></trkpt><trkpt lat="45.8796033" lon="8.6919333"><ele>333.0</ele><time>2026-03-22T10:38:01.159Z</time></trkpt><trkpt lat="45.8795383" lon="8.6918133"><ele>332.0</ele><time>2026-03-22T10:38:02.159Z</time></trkpt><trkpt lat="45.879455" lon="8.6916917"><ele>331.0</ele><time>2026-03-22T10:38:03.159Z</time></trkpt><trkpt lat="45.879375" lon="8.691555"><ele>330.0</ele><time>2026-03-22T10:38:04.159Z</time></trkpt><trkpt lat="45.8792983" lon="8.69139"><ele>330.4</ele><time>2026-03-22T10:38:05.159Z</time></trkpt><trkpt lat="45.879235" lon="8.691225"><ele>330.8</ele><time>2026-03-22T10:38:06.16Z</time></trkpt><trkpt lat="45.8791783" lon="8.69108"><ele>331.20000000000005</ele><time>2026-03-22T10:38:07.159Z</time></trkpt><trkpt lat="45.8791317" lon="8.6909533"><ele>331.6</ele><time>2026-03-22T10:38:08.159Z</time></trkpt><trkpt lat="45.8790967" lon="8.690845"><ele>332.0</ele><time>2026-03-22T10:38:09.159Z</time></trkpt><trkpt lat="45.8790533" lon="8.69075"><ele>332.0</ele><time>2026-03-22T10:38:10.159Z</time></trkpt><trkpt lat="45.879005" lon="8.6906817"><ele>332.0</ele><time>2026-03-22T10:38:11.159Z</time></trkpt><trkpt lat="45.8789083" lon="8.690585"><ele>332.0</ele><time>2026-03-22T10:38:13.159Z</time></trkpt><trkpt lat="45.8788417" lon="8.69053"><ele>332.0</ele><time>2026-03-22T10:38:14.159Z</time></trkpt><trkpt lat="45.8787733" lon="8.6904683"><ele>332.0</ele><time>2026-03-22T10:38:15.159Z</time></trkpt><trkpt lat="45.8787083" lon="8.69041"><ele>332.0</ele><time>2026-03-22T10:38:16.159Z</time></trkpt><trkpt lat="45.8786517" lon="8.690345"><ele>332.0</ele><time>2026-03-22T10:38:17.159Z</time></trkpt><trkpt lat="45.878595" lon="8.690265"><ele>332.0</ele><time>2026-03-22T10:38:18.159Z</time></trkpt><trkpt lat="45.8785433" lon="8.69017"><ele>332.0</ele><time>2026-03-22T10:38:19.159Z</time></trkpt><trkpt lat="45.8784933" lon="8.6900617"><ele>332.0</ele><time>2026-03-22T10:38:20.159Z</time></trkpt><trkpt lat="45.878445" lon="8.6899267"><ele>332.0</ele><time>2026-03-22T10:38:21.16Z</time></trkpt><trkpt lat="45.8784" lon="8.6897933"><ele>332.0</ele><time>2026-03-22T10:38:22.159Z</time></trkpt><trkpt lat="45.8783467" lon="8.6896733"><ele>332.0</ele><time>2026-03-22T10:38:23.159Z</time></trkpt><trkpt lat="45.8782883" lon="8.689565"><ele>332.0</ele><time>2026-03-22T10:38:24.159Z</time></trkpt><trkpt lat="45.87823" lon="8.6894517"><ele>332.0</ele><time>2026-03-22T10:38:25.159Z</time></trkpt><trkpt lat="45.87815" lon="8.6893017"><ele>332.0</ele><time>2026-03-22T10:38:26.159Z</time></trkpt><trkpt lat="45.8780533" lon="8.68915"><ele>332.0</ele><time>2026-03-22T10:38:27.159Z</time></trkpt><trkpt lat="45.8779633" lon="8.6890233"><ele>332.0</ele><time>2026-03-22T10:38:28.16Z</time></trkpt><trkpt lat="45.8778883" lon="8.688895"><ele>332.0</ele><time>2026-03-22T10:38:29.159Z</time></trkpt><trkpt lat="45.8778383" lon="8.688765"><ele>332.0</ele><time>2026-03-22T10:38:30.159Z</time></trkpt><trkpt lat="45.877805" lon="8.6886433"><ele>332.0</ele><time>2026-03-22T10:38:31.16Z</time></trkpt><trkpt lat="45.8777667" lon="8.688535"><ele>330.83333333333337</ele><time>2026-03-22T10:38:32.16Z</time></trkpt><trkpt lat="45.8776983" lon="8.6884267"><ele>329.6666666666667</ele><time>2026-03-22T10:38:33.159Z</time></trkpt><trkpt lat="45.8776283" lon="8.6883133"><ele>328.5</ele><time>2026-03-22T10:38:34.159Z</time></trkpt><trkpt lat="45.8775667" lon="8.68822"><ele>327.3333333333333</ele><time>2026-03-22T10:38:35.159Z</time></trkpt><trkpt lat="45.8775133" lon="8.6881333"><ele>326.16666666666663</ele><time>2026-03-22T10:38:36.159Z</time></trkpt><trkpt lat="45.877485" lon="8.6880433"><ele>325.0</ele><time>2026-03-22T10:38:37.159Z</time></trkpt><trkpt lat="45.8774567" lon="8.6878683"><ele>326.8</ele><time>2026-03-22T10:38:39.159Z</time></trkpt><trkpt lat="45.8774183" lon="8.6877733"><ele>328.6</ele><time>2026-03-22T10:38:40.159Z</time></trkpt><trkpt lat="45.8773817" lon="8.687675"><ele>330.4</ele><time>2026-03-22T10:38:41.159Z</time></trkpt><trkpt lat="45.8773367" lon="8.6875433"><ele>332.2</ele><time>2026-03-22T10:38:42.159Z</time></trkpt><trkpt lat="45.8772683" lon="8.6874133"><ele>334.0</ele><time>2026-03-22T10:38:43.16Z</time></trkpt><trkpt lat="45.8772083" lon="8.6872783"><ele>334.0</ele><time>2026-03-22T10:38:44.159Z</time></trkpt><trkpt lat="45.87715" lon="8.68714"><ele>334.0</ele><time>2026-03-22T10:38:45.16Z</time></trkpt><trkpt lat="45.8770917" lon="8.6869983"><ele>334.0</ele><time>2026-03-22T10:38:46.16Z</time></trkpt><trkpt lat="45.87704" lon="8.6868983"><ele>334.0</ele><time>2026-03-22T10:38:47.16Z</time></trkpt><trkpt lat="45.8769767" lon="8.686795"><ele>334.0</ele><time>2026-03-22T10:38:48.16Z</time></trkpt><trkpt lat="45.876905" lon="8.6867217"><ele>335.0</ele><time>2026-03-22T10:38:49.16Z</time></trkpt><trkpt lat="45.87683" lon="8.6866"><ele>336.0</ele><time>2026-03-22T10:38:50.159Z</time></trkpt><trkpt lat="45.876755" lon="8.6864783"><ele>337.0</ele><time>2026-03-22T10:38:51.159Z</time></trkpt><trkpt lat="45.8766933" lon="8.6863417"><ele>338.0</ele><time>2026-03-22T10:38:52.159Z</time></trkpt><trkpt lat="45.8766417" lon="8.6862233"><ele>339.0</ele><time>2026-03-22T10:38:53.159Z</time></trkpt><trkpt lat="45.8765917" lon="8.686085"><ele>339.0</ele><time>2026-03-22T10:38:54.159Z</time></trkpt><trkpt lat="45.8765117" lon="8.6859483"><ele>339.0</ele><time>2026-03-22T10:38:55.16Z</time></trkpt><trkpt lat="45.876425" lon="8.6858083"><ele>339.0</ele><time>2026-03-22T10:38:56.16Z</time></trkpt><trkpt lat="45.8763417" lon="8.685675"><ele>339.0</ele><time>2026-03-22T10:38:57.159Z</time></trkpt><trkpt lat="45.8762533" lon="8.6855583"><ele>339.0</ele><time>2026-03-22T10:38:58.16Z</time></trkpt><trkpt lat="45.876165" lon="8.6854317"><ele>339.0</ele><time>2026-03-22T10:38:59.159Z</time></trkpt><trkpt lat="45.87608" lon="8.6853267"><ele>339.0</ele><time>2026-03-22T10:39:00.159Z</time></trkpt><trkpt lat="45.875995" lon="8.6852067"><ele>339.0</ele><time>2026-03-22T10:39:01.159Z</time></trkpt><trkpt lat="45.8759133" lon="8.6851367"><ele>339.5</ele><time>2026-03-22T10:39:02.159Z</time></trkpt><trkpt lat="45.8758283" lon="8.68508"><ele>340.0</ele><time>2026-03-22T10:39:03.159Z</time></trkpt><trkpt lat="45.875725" lon="8.6850083"><ele>340.5</ele><time>2026-03-22T10:39:04.159Z</time></trkpt><trkpt lat="45.8756117" lon="8.684955"><ele>341.0</ele><time>2026-03-22T10:39:05.16Z</time></trkpt><trkpt lat="45.8754917" lon="8.6849"><ele>341.0</ele><time>2026-03-22T10:39:06.159Z</time></trkpt><trkpt lat="45.87538" lon="8.6848433"><ele>341.0</ele><time>2026-03-22T10:39:07.159Z</time></trkpt><trkpt lat="45.8752717" lon="8.6847917"><ele>341.0</ele><time>2026-03-22T10:39:08.16Z</time></trkpt><trkpt lat="45.8751617" lon="8.6847467"><ele>341.0</ele><time>2026-03-22T10:39:09.159Z</time></trkpt><trkpt lat="45.8750733" lon="8.6847167"><ele>341.0</ele><time>2026-03-22T10:39:10.159Z</time></trkpt><trkpt lat="45.8749817" lon="8.684665"><ele>341.0</ele><time>2026-03-22T10:39:11.16Z</time></trkpt><trkpt lat="45.8748767" lon="8.684585"><ele>341.0</ele><time>2026-03-22T10:39:12.16Z</time></trkpt><trkpt lat="45.87476" lon="8.6844583"><ele>341.0</ele><time>2026-03-22T10:39:13.159Z</time></trkpt><trkpt lat="45.874645" lon="8.6843367"><ele>341.0</ele><time>2026-03-22T10:39:14.159Z</time></trkpt><trkpt lat="45.8745333" lon="8.6842417"><ele>340.0</ele><time>2026-03-22T10:39:15.159Z</time></trkpt><trkpt lat="45.8744367" lon="8.6841617"><ele>339.0</ele><time>2026-03-22T10:39:16.159Z</time></trkpt><trkpt lat="45.8743383" lon="8.6840733"><ele>338.0</ele><time>2026-03-22T10:39:17.159Z</time></trkpt><trkpt lat="45.8742617" lon="8.684005"><ele>337.0</ele><time>2026-03-22T10:39:18.159Z</time></trkpt><trkpt lat="45.87421" lon="8.6839417"><ele>336.0</ele><time>2026-03-22T10:39:19.159Z</time></trkpt><trkpt lat="45.874115" lon="8.6837967"><ele>335.8333333333333</ele><time>2026-03-22T10:40:48.16Z</time></trkpt><trkpt lat="45.8741817" lon="8.6837717"><ele>335.6666666666667</ele><time>2026-03-22T11:02:31.16Z</time></trkpt><trkpt lat="45.8742167" lon="8.683675"><ele>335.5</ele><time>2026-03-22T11:02:33.16Z</time></trkpt><trkpt lat="45.87427" lon="8.6835933"><ele>335.33333333333337</ele><time>2026-03-22T11:02:35.16Z</time></trkpt><trkpt lat="45.8743367" lon="8.68356"><ele>335.1666666666667</ele><time>2026-03-22T11:02:37.16Z</time></trkpt><trkpt lat="45.8744133" lon="8.68345"><ele>335.0</ele><time>2026-03-22T11:02:39.16Z</time></trkpt><trkpt lat="45.87444" lon="8.68336"><ele>334.1666666666667</ele><time>2026-03-22T11:02:40.16Z</time></trkpt><trkpt lat="45.8744617" lon="8.6831933"><ele>333.33333333333337</ele><time>2026-03-22T11:02:42.16Z</time></trkpt><trkpt lat="45.8744433" lon="8.6830967"><ele>332.5</ele><time>2026-03-22T11:02:43.16Z</time></trkpt><trkpt lat="45.8744033" lon="8.6829983"><ele>331.6666666666667</ele><time>2026-03-22T11:02:44.16Z</time></trkpt><trkpt lat="45.874355" lon="8.6829033"><ele>330.8333333333333</ele><time>2026-03-22T11:02:45.161Z</time></trkpt><trkpt lat="45.8743067" lon="8.6828133"><ele>330.0</ele><time>2026-03-22T11:02:46.161Z</time></trkpt><trkpt lat="45.8742683" lon="8.68272"><ele>328.8333333333333</ele><time>2026-03-22T11:02:47.16Z</time></trkpt><trkpt lat="45.8742433" lon="8.68262"><ele>327.6666666666667</ele><time>2026-03-22T11:02:48.161Z</time></trkpt><trkpt lat="45.8742267" lon="8.6825083"><ele>326.5</ele><time>2026-03-22T11:02:49.16Z</time></trkpt><trkpt lat="45.8742167" lon="8.6823967"><ele>325.33333333333337</ele><time>2026-03-22T11:02:50.16Z</time></trkpt><trkpt lat="45.8742117" lon="8.6823033"><ele>324.1666666666667</ele><time>2026-03-22T11:02:51.16Z</time></trkpt><trkpt lat="45.8742083" lon="8.68217"><ele>323.0</ele><time>2026-03-22T11:02:53.16Z</time></trkpt><trkpt lat="45.8741683" lon="8.6820933"><ele>323.0</ele><time>2026-03-22T11:02:55.16Z</time></trkpt><trkpt lat="45.87405" lon="8.682025"><ele>323.0</ele><time>2026-03-22T11:02:57.16Z</time></trkpt><trkpt lat="45.8739567" lon="8.6819933"><ele>323.0</ele><time>2026-03-22T11:02:58.16Z</time></trkpt><trkpt lat="45.8738267" lon="8.6819717"><ele>323.0</ele><time>2026-03-22T11:02:59.161Z</time></trkpt><trkpt lat="45.873695" lon="8.6819567"><ele>323.0</ele><time>2026-03-22T11:03:00.16Z</time></trkpt><trkpt lat="45.8735683" lon="8.6819517"><ele>323.0</ele><time>2026-03-22T11:03:01.16Z</time></trkpt><trkpt lat="45.8734533" lon="8.6819583"><ele>323.0</ele><time>2026-03-22T11:03:02.161Z</time></trkpt><trkpt lat="45.873365" lon="8.6819667"><ele>323.0</ele><time>2026-03-22T11:03:03.16Z</time></trkpt><trkpt lat="45.873295" lon="8.68198"><ele>323.0</ele><time>2026-03-22T11:03:04.16Z</time></trkpt><trkpt lat="45.8731867" lon="8.68203"><ele>323.1666666666667</ele><time>2026-03-22T11:03:06.16Z</time></trkpt><trkpt lat="45.873095" lon="8.68211"><ele>323.33333333333337</ele><time>2026-03-22T11:03:08.16Z</time></trkpt><trkpt lat="45.8730183" lon="8.6821583"><ele>323.5</ele><time>2026-03-22T11:03:10.16Z</time></trkpt><trkpt lat="45.87292" lon="8.682155"><ele>323.6666666666667</ele><time>2026-03-22T11:03:12.16Z</time></trkpt><trkpt lat="45.8728483" lon="8.682145"><ele>323.8333333333333</ele><time>2026-03-22T11:03:13.16Z</time></trkpt><trkpt lat="45.8727733" lon="8.682135"><ele>324.0</ele><time>2026-03-22T11:03:14.161Z</time></trkpt><trkpt lat="45.8726867" lon="8.6821533"><ele>324.0</ele><time>2026-03-22T11:03:15.161Z</time></trkpt><trkpt lat="45.8726083" lon="8.6821933"><ele>324.0</ele><time>2026-03-22T11:03:16.16Z</time></trkpt><trkpt lat="45.87254" lon="8.6822367"><ele>324.0</ele><time>2026-03-22T11:03:17.16Z</time></trkpt><trkpt lat="45.8724833" lon="8.6822817"><ele>324.0</ele><time>2026-03-22T11:03:18.16Z</time></trkpt><trkpt lat="45.872375" lon="8.6823333"><ele>324.0</ele><time>2026-03-22T11:03:20.16Z</time></trkpt><trkpt lat="45.8722633" lon="8.682375"><ele>322.59999999999997</ele><time>2026-03-22T11:03:22.16Z</time></trkpt><trkpt lat="45.872165" lon="8.6824267"><ele>321.2</ele><time>2026-03-22T11:03:24.16Z</time></trkpt><trkpt lat="45.872045" lon="8.6825333"><ele>319.79999999999995</ele><time>2026-03-22T11:03:26.16Z</time></trkpt><trkpt lat="45.8719667" lon="8.68259"><ele>318.4</ele><time>2026-03-22T11:03:27.16Z</time></trkpt><trkpt lat="45.871875" lon="8.6826583"><ele>317.0</ele><time>2026-03-22T11:03:28.16Z</time></trkpt><trkpt lat="45.8717883" lon="8.6827233"><ele>317.2</ele><time>2026-03-22T11:03:29.16Z</time></trkpt><trkpt lat="45.871695" lon="8.6827867"><ele>317.4</ele><time>2026-03-22T11:03:30.16Z</time></trkpt><trkpt lat="45.8716" lon="8.68285"><ele>317.6</ele><time>2026-03-22T11:03:31.16Z</time></trkpt><trkpt lat="45.87151" lon="8.682915"><ele>317.8</ele><time>2026-03-22T11:03:32.161Z</time></trkpt><trkpt lat="45.871425" lon="8.6829867"><ele>318.0</ele><time>2026-03-22T11:03:33.16Z</time></trkpt><trkpt lat="45.87135" lon="8.6830517"><ele>318.0</ele><time>2026-03-22T11:03:34.16Z</time></trkpt><trkpt lat="45.87127" lon="8.68311"><ele>318.0</ele><time>2026-03-22T11:03:35.161Z</time></trkpt><trkpt lat="45.8711917" lon="8.6831683"><ele>318.0</ele><time>2026-03-22T11:03:36.161Z</time></trkpt><trkpt lat="45.8711317" lon="8.68323"><ele>318.0</ele><time>2026-03-22T11:03:37.161Z</time></trkpt><trkpt lat="45.87107" lon="8.6832817"><ele>318.0</ele><time>2026-03-22T11:03:38.16Z</time></trkpt><trkpt lat="45.871" lon="8.683345"><ele>318.0</ele><time>2026-03-22T11:03:39.16Z</time></trkpt><trkpt lat="45.8709267" lon="8.683405"><ele>318.2857142857143</ele><time>2026-03-22T11:03:40.161Z</time></trkpt><trkpt lat="45.8708617" lon="8.6834533"><ele>318.5714285714286</ele><time>2026-03-22T11:03:41.161Z</time></trkpt><trkpt lat="45.870795" lon="8.6835067"><ele>318.8571428571429</ele><time>2026-03-22T11:03:42.161Z</time></trkpt><trkpt lat="45.8707367" lon="8.6835567"><ele>319.1428571428571</ele><time>2026-03-22T11:03:43.161Z</time></trkpt><trkpt lat="45.8706767" lon="8.6836017"><ele>319.42857142857144</ele><time>2026-03-22T11:03:44.16Z</time></trkpt><trkpt lat="45.8706133" lon="8.6836433"><ele>319.7142857142857</ele><time>2026-03-22T11:03:45.16Z</time></trkpt><trkpt lat="45.8705533" lon="8.6836783"><ele>320.0</ele><time>2026-03-22T11:03:46.16Z</time></trkpt><trkpt lat="45.8704467" lon="8.6837333"><ele>320.0</ele><time>2026-03-22T11:03:48.16Z</time></trkpt><trkpt lat="45.8703817" lon="8.683765"><ele>320.0</ele><time>2026-03-22T11:03:49.161Z</time></trkpt><trkpt lat="45.8703" lon="8.6837883"><ele>320.0</ele><time>2026-03-22T11:03:50.16Z</time></trkpt><trkpt lat="45.8702117" lon="8.6838133"><ele>320.0</ele><time>2026-03-22T11:03:51.161Z</time></trkpt><trkpt lat="45.8701083" lon="8.6838417"><ele>320.0</ele><time>2026-03-22T11:03:52.161Z</time></trkpt><trkpt lat="45.8700067" lon="8.6838633"><ele>318.5</ele><time>2026-03-22T11:03:53.161Z</time></trkpt><trkpt lat="45.86993" lon="8.683895"><ele>317.0</ele><time>2026-03-22T11:03:54.161Z</time></trkpt><trkpt lat="45.8698617" lon="8.6839533"><ele>315.5</ele><time>2026-03-22T11:03:55.161Z</time></trkpt><trkpt lat="45.8697967" lon="8.6840133"><ele>314.0</ele><time>2026-03-22T11:03:56.16Z</time></trkpt><trkpt lat="45.8697367" lon="8.68407"><ele>312.5</ele><time>2026-03-22T11:03:57.16Z</time></trkpt><trkpt lat="45.8696383" lon="8.6841117"><ele>311.0</ele><time>2026-03-22T11:03:59.16Z</time></trkpt><trkpt lat="45.8695483" lon="8.684145"><ele>311.0</ele><time>2026-03-22T11:04:01.16Z</time></trkpt><trkpt lat="45.8694367" lon="8.6842383"><ele>311.0</ele><time>2026-03-22T11:04:03.161Z</time></trkpt><trkpt lat="45.869375" lon="8.684325"><ele>311.0</ele><time>2026-03-22T11:04:04.16Z</time></trkpt><trkpt lat="45.8693017" lon="8.6844167"><ele>311.0</ele><time>2026-03-22T11:04:05.161Z</time></trkpt><trkpt lat="45.869215" lon="8.6845033"><ele>311.0</ele><time>2026-03-22T11:04:06.161Z</time></trkpt><trkpt lat="45.86912" lon="8.6845733"><ele>312.6666666666667</ele><time>2026-03-22T11:04:07.161Z</time></trkpt><trkpt lat="45.8690217" lon="8.6846517"><ele>314.33333333333337</ele><time>2026-03-22T11:04:08.16Z</time></trkpt><trkpt lat="45.8689317" lon="8.6847367"><ele>316.0</ele><time>2026-03-22T11:04:09.16Z</time></trkpt><trkpt lat="45.8688633" lon="8.68479"><ele>317.6666666666667</ele><time>2026-03-22T11:04:10.161Z</time></trkpt><trkpt lat="45.8688017" lon="8.68483"><ele>319.3333333333333</ele><time>2026-03-22T11:04:11.16Z</time></trkpt><trkpt lat="45.8687367" lon="8.6848517"><ele>321.0</ele><time>2026-03-22T11:04:12.16Z</time></trkpt><trkpt lat="45.8686467" lon="8.6848567"><ele>321.0</ele><time>2026-03-22T11:04:13.16Z</time></trkpt><trkpt lat="45.86853" lon="8.684875"><ele>321.0</ele><time>2026-03-22T11:04:14.16Z</time></trkpt><trkpt lat="45.8684167" lon="8.6848833"><ele>321.0</ele><time>2026-03-22T11:04:15.16Z</time></trkpt><trkpt lat="45.8683033" lon="8.6848933"><ele>321.0</ele><time>2026-03-22T11:04:16.16Z</time></trkpt><trkpt lat="45.8682017" lon="8.684895"><ele>321.0</ele><time>2026-03-22T11:04:17.16Z</time></trkpt><trkpt lat="45.868105" lon="8.6849033"><ele>319.6666666666667</ele><time>2026-03-22T11:04:18.161Z</time></trkpt><trkpt lat="45.8680033" lon="8.68493"><ele>318.3333333333333</ele><time>2026-03-22T11:04:19.16Z</time></trkpt><trkpt lat="45.8679183" lon="8.6849367"><ele>317.0</ele><time>2026-03-22T11:04:20.161Z</time></trkpt><trkpt lat="45.8678517" lon="8.6849383"><ele>315.66666666666663</ele><time>2026-03-22T11:04:21.16Z</time></trkpt><trkpt lat="45.8677517" lon="8.6848767"><ele>314.3333333333333</ele><time>2026-03-22T11:04:23.16Z</time></trkpt><trkpt lat="45.8676983" lon="8.684795"><ele>313.0</ele><time>2026-03-22T11:04:24.16Z</time></trkpt><trkpt lat="45.867655" lon="8.6846967"><ele>313.0</ele><time>2026-03-22T11:04:25.16Z</time></trkpt><trkpt lat="45.86762" lon="8.684585"><ele>313.0</ele><time>2026-03-22T11:04:26.16Z</time></trkpt><trkpt lat="45.8675767" lon="8.6844883"><ele>313.0</ele><time>2026-03-22T11:04:27.16Z</time></trkpt><trkpt lat="45.8675317" lon="8.6844033"><ele>313.0</ele><time>2026-03-22T11:04:28.16Z</time></trkpt><trkpt lat="45.8674683" lon="8.68435"><ele>313.0</ele><time>2026-03-22T11:04:29.16Z</time></trkpt><trkpt lat="45.8673983" lon="8.684315"><ele>313.0</ele><time>2026-03-22T11:04:30.16Z</time></trkpt><trkpt lat="45.867315" lon="8.6843067"><ele>310.0</ele><time>2026-03-22T11:04:31.161Z</time></trkpt><trkpt lat="45.86722" lon="8.68435"><ele>307.0</ele><time>2026-03-22T11:04:32.161Z</time></trkpt><trkpt lat="45.867115" lon="8.6844117"><ele>304.0</ele><time>2026-03-22T11:04:33.16Z</time></trkpt><trkpt lat="45.8670033" lon="8.6844817"><ele>301.0</ele><time>2026-03-22T11:04:34.16Z</time></trkpt><trkpt lat="45.8668917" lon="8.6845567"><ele>301.0</ele><time>2026-03-22T11:04:35.161Z</time></trkpt><trkpt lat="45.8667783" lon="8.6846317"><ele>301.0</ele><time>2026-03-22T11:04:36.16Z</time></trkpt><trkpt lat="45.8666717" lon="8.6847133"><ele>301.0</ele><time>2026-03-22T11:04:37.16Z</time></trkpt><trkpt lat="45.8665633" lon="8.6847883"><ele>301.0</ele><time>2026-03-22T11:04:38.16Z</time></trkpt><trkpt lat="45.86646" lon="8.684875"><ele>299.75</ele><time>2026-03-22T11:04:39.16Z</time></trkpt><trkpt lat="45.866355" lon="8.6849633"><ele>298.5</ele><time>2026-03-22T11:04:40.16Z</time></trkpt><trkpt lat="45.8662517" lon="8.6850533"><ele>297.25</ele><time>2026-03-22T11:04:41.16Z</time></trkpt><trkpt lat="45.8661533" lon="8.685135"><ele>296.0</ele><time>2026-03-22T11:04:42.16Z</time></trkpt><trkpt lat="45.8660483" lon="8.6852183"><ele>296.40000000000003</ele><time>2026-03-22T11:04:43.161Z</time></trkpt><trkpt lat="45.8659567" lon="8.6853017"><ele>296.8</ele><time>2026-03-22T11:04:44.16Z</time></trkpt><trkpt lat="45.86587" lon="8.685385"><ele>297.20000000000005</ele><time>2026-03-22T11:04:45.16Z</time></trkpt><trkpt lat="45.865795" lon="8.6854617"><ele>297.6</ele><time>2026-03-22T11:04:46.161Z</time></trkpt><trkpt lat="45.8657317" lon="8.6855217"><ele>298.0</ele><time>2026-03-22T11:04:47.161Z</time></trkpt><trkpt lat="45.865655" lon="8.6854983"><ele>298.0</ele><time>2026-03-22T11:04:49.16Z</time></trkpt><trkpt lat="45.865635" lon="8.6853333"><ele>298.0</ele><time>2026-03-22T11:04:51.16Z</time></trkpt><trkpt lat="45.86563" lon="8.685195"><ele>298.0</ele><time>2026-03-22T11:04:52.161Z</time></trkpt><trkpt lat="45.8656267" lon="8.6850367"><ele>298.0</ele><time>2026-03-22T11:04:53.16Z</time></trkpt><trkpt lat="45.86561" lon="8.6848617"><ele>298.0</ele><time>2026-03-22T11:04:54.161Z</time></trkpt><trkpt lat="45.86558" lon="8.6847083"><ele>297.0</ele><time>2026-03-22T11:04:55.16Z</time></trkpt><trkpt lat="45.865555" lon="8.6845767"><ele>296.0</ele><time>2026-03-22T11:04:56.16Z</time></trkpt><trkpt lat="45.8655167" lon="8.6844533"><ele>295.0</ele><time>2026-03-22T11:04:57.161Z</time></trkpt><trkpt lat="45.8654783" lon="8.684345"><ele>294.0</ele><time>2026-03-22T11:04:58.16Z</time></trkpt><trkpt lat="45.865425" lon="8.684255"><ele>293.0</ele><time>2026-03-22T11:04:59.16Z</time></trkpt><trkpt lat="45.8653667" lon="8.684185"><ele>292.0</ele><time>2026-03-22T11:05:00.16Z</time></trkpt><trkpt lat="45.8653217" lon="8.6841217"><ele>291.3333333333333</ele><time>2026-03-22T11:05:01.16Z</time></trkpt><trkpt lat="45.86531" lon="8.68395"><ele>290.66666666666663</ele><time>2026-03-22T11:05:03.16Z</time></trkpt><trkpt lat="45.865335" lon="8.6838383"><ele>290.0</ele><time>2026-03-22T11:05:04.16Z</time></trkpt><trkpt lat="45.8653567" lon="8.6837267"><ele>289.3333333333333</ele><time>2026-03-22T11:05:05.16Z</time></trkpt><trkpt lat="45.865385" lon="8.6836233"><ele>288.6666666666667</ele><time>2026-03-22T11:05:06.16Z</time></trkpt><trkpt lat="45.8654017" lon="8.6835317"><ele>288.0</ele><time>2026-03-22T11:05:07.161Z</time></trkpt><trkpt lat="45.865345" lon="8.6833867"><ele>286.8</ele><time>2026-03-22T11:05:09.16Z</time></trkpt><trkpt lat="45.86527" lon="8.68335"><ele>285.6</ele><time>2026-03-22T11:05:10.16Z</time></trkpt><trkpt lat="45.8651833" lon="8.6833433"><ele>284.4</ele><time>2026-03-22T11:05:11.16Z</time></trkpt><trkpt lat="45.8650867" lon="8.6833533"><ele>283.2</ele><time>2026-03-22T11:05:12.16Z</time></trkpt><trkpt lat="45.8649833" lon="8.6833617"><ele>282.0</ele><time>2026-03-22T11:05:13.16Z</time></trkpt><trkpt lat="45.8648833" lon="8.6833783"><ele>281.4</ele><time>2026-03-22T11:05:14.16Z</time></trkpt><trkpt lat="45.8647967" lon="8.6834017"><ele>280.79999999999995</ele><time>2026-03-22T11:05:15.16Z</time></trkpt><trkpt lat="45.8647033" lon="8.6834417"><ele>280.2</ele><time>2026-03-22T11:05:16.16Z</time></trkpt><trkpt lat="45.8646217" lon="8.6834967"><ele>279.59999999999997</ele><time>2026-03-22T11:05:17.161Z</time></trkpt><trkpt lat="45.8645467" lon="8.6835733"><ele>279.0</ele><time>2026-03-22T11:05:18.16Z</time></trkpt><trkpt lat="45.86447" lon="8.68365"><ele>278.5</ele><time>2026-03-22T11:05:19.16Z</time></trkpt><trkpt lat="45.864395" lon="8.6836867"><ele>278.0</ele><time>2026-03-22T11:05:20.16Z</time></trkpt><trkpt lat="45.8643133" lon="8.6836833"><ele>277.5</ele><time>2026-03-22T11:05:21.161Z</time></trkpt><trkpt lat="45.8642417" lon="8.68364"><ele>277.0</ele><time>2026-03-22T11:05:22.16Z</time></trkpt><trkpt lat="45.86417" lon="8.6835933"><ele>276.5</ele><time>2026-03-22T11:05:23.161Z</time></trkpt><trkpt lat="45.8640617" lon="8.6835333"><ele>276.0</ele><time>2026-03-22T11:05:25.16Z</time></trkpt><trkpt lat="45.8639667" lon="8.68341"><ele>275.0</ele><time>2026-03-22T11:05:27.16Z</time></trkpt><trkpt lat="45.863895" lon="8.6833367"><ele>274.0</ele><time>2026-03-22T11:05:28.161Z</time></trkpt><trkpt lat="45.86381" lon="8.683255"><ele>273.0</ele><time>2026-03-22T11:05:29.16Z</time></trkpt><trkpt lat="45.863715" lon="8.683175"><ele>272.0</ele><time>2026-03-22T11:05:30.161Z</time></trkpt><trkpt lat="45.86362" lon="8.6831017"><ele>271.0</ele><time>2026-03-22T11:05:31.16Z</time></trkpt><trkpt lat="45.86353" lon="8.6830283"><ele>269.6</ele><time>2026-03-22T11:05:32.161Z</time></trkpt><trkpt lat="45.8634267" lon="8.6829467"><ele>268.20000000000005</ele><time>2026-03-22T11:05:33.16Z</time></trkpt><trkpt lat="45.86333" lon="8.6828567"><ele>266.79999999999995</ele><time>2026-03-22T11:05:34.16Z</time></trkpt><trkpt lat="45.863245" lon="8.6827867"><ele>265.4</ele><time>2026-03-22T11:05:35.16Z</time></trkpt><trkpt lat="45.86318" lon="8.682725"><ele>264.0</ele><time>2026-03-22T11:05:36.16Z</time></trkpt><trkpt lat="45.8631283" lon="8.6826733"><ele>264.0</ele><time>2026-03-22T11:05:37.161Z</time></trkpt><trkpt lat="45.8630583" lon="8.6826517"><ele>264.0</ele><time>2026-03-22T11:06:01.16Z</time></trkpt><trkpt lat="45.86295" lon="8.68278"><ele>264.0</ele><time>2026-03-22T11:06:03.161Z</time></trkpt><trkpt lat="45.8628717" lon="8.6828933"><ele>264.0</ele><time>2026-03-22T11:06:04.16Z</time></trkpt><trkpt lat="45.8627883" lon="8.6830167"><ele>264.0</ele><time>2026-03-22T11:06:05.16Z</time></trkpt><trkpt lat="45.8627067" lon="8.6831517"><ele>264.0</ele><time>2026-03-22T11:06:06.16Z</time></trkpt><trkpt lat="45.8626233" lon="8.6832883"><ele>264.0</ele><time>2026-03-22T11:06:07.16Z</time></trkpt><trkpt lat="45.8625433" lon="8.6834333"><ele>264.0</ele><time>2026-03-22T11:06:08.161Z</time></trkpt><trkpt lat="45.8624683" lon="8.6835567"><ele>264.0</ele><time>2026-03-22T11:06:09.16Z</time></trkpt><trkpt lat="45.862395" lon="8.6836783"><ele>264.2</ele><time>2026-03-22T11:06:10.161Z</time></trkpt><trkpt lat="45.8623217" lon="8.6837983"><ele>264.4</ele><time>2026-03-22T11:06:11.16Z</time></trkpt><trkpt lat="45.8622517" lon="8.68391"><ele>264.6</ele><time>2026-03-22T11:06:12.16Z</time></trkpt><trkpt lat="45.8621817" lon="8.68402"><ele>264.8</ele><time>2026-03-22T11:06:13.16Z</time></trkpt><trkpt lat="45.862115" lon="8.684135"><ele>265.0</ele><time>2026-03-22T11:06:14.161Z</time></trkpt><trkpt lat="45.8620483" lon="8.6842333"><ele>265.0</ele><time>2026-03-22T11:06:15.161Z</time></trkpt><trkpt lat="45.8619717" lon="8.68433"><ele>265.0</ele><time>2026-03-22T11:06:16.16Z</time></trkpt><trkpt lat="45.8619017" lon="8.6844083"><ele>265.0</ele><time>2026-03-22T11:06:17.16Z</time></trkpt><trkpt lat="45.8618333" lon="8.6844833"><ele>265.0</ele><time>2026-03-22T11:06:18.16Z</time></trkpt><trkpt lat="45.86175" lon="8.6845617"><ele>265.0</ele><time>2026-03-22T11:06:19.16Z</time></trkpt><trkpt lat="45.8616583" lon="8.68464"><ele>265.2</ele><time>2026-03-22T11:06:20.16Z</time></trkpt><trkpt lat="45.8615783" lon="8.684715"><ele>265.4</ele><time>2026-03-22T11:06:21.161Z</time></trkpt><trkpt lat="45.8614967" lon="8.684795"><ele>265.6</ele><time>2026-03-22T11:06:22.161Z</time></trkpt><trkpt lat="45.8614017" lon="8.6848733"><ele>265.8</ele><time>2026-03-22T11:06:23.16Z</time></trkpt><trkpt lat="45.8613017" lon="8.6849583"><ele>266.0</ele><time>2026-03-22T11:06:24.161Z</time></trkpt><trkpt lat="45.861215" lon="8.6850317"><ele>266.0</ele><time>2026-03-22T11:06:25.16Z</time></trkpt><trkpt lat="45.8611317" lon="8.685105"><ele>266.0</ele><time>2026-03-22T11:06:26.161Z</time></trkpt><trkpt lat="45.8610483" lon="8.685175"><ele>266.0</ele><time>2026-03-22T11:06:27.161Z</time></trkpt><trkpt lat="45.8609633" lon="8.68525"><ele>266.0</ele><time>2026-03-22T11:06:28.16Z</time></trkpt><trkpt lat="45.860885" lon="8.6853233"><ele>266.0</ele><time>2026-03-22T11:06:29.16Z</time></trkpt><trkpt lat="45.86081" lon="8.6854"><ele>266.2</ele><time>2026-03-22T11:06:30.161Z</time></trkpt><trkpt lat="45.8607433" lon="8.6854633"><ele>266.40000000000003</ele><time>2026-03-22T11:06:31.16Z</time></trkpt><trkpt lat="45.8606933" lon="8.68552"><ele>266.6</ele><time>2026-03-22T11:06:32.16Z</time></trkpt><trkpt lat="45.8605883" lon="8.68561"><ele>266.8</ele><time>2026-03-22T11:06:34.16Z</time></trkpt><trkpt lat="45.8604817" lon="8.68569"><ele>267.0</ele><time>2026-03-22T11:06:36.161Z</time></trkpt><trkpt lat="45.8604017" lon="8.685745"><ele>267.0</ele><time>2026-03-22T11:06:38.16Z</time></trkpt><trkpt lat="45.860355" lon="8.6858217"><ele>267.0</ele><time>2026-03-22T11:06:42.16Z</time></trkpt><trkpt lat="45.8602433" lon="8.6858883"><ele>267.0</ele><time>2026-03-22T11:07:04.16Z</time></trkpt><trkpt lat="45.86018" lon="8.6859433"><ele>267.0</ele><time>2026-03-22T11:07:05.161Z</time></trkpt><trkpt lat="45.8601033" lon="8.6860233"><ele>267.0</ele><time>2026-03-22T11:07:06.161Z</time></trkpt><trkpt lat="45.8600167" lon="8.6861133"><ele>267.25</ele><time>2026-03-22T11:07:07.16Z</time></trkpt><trkpt lat="45.859915" lon="8.6861967"><ele>267.5</ele><time>2026-03-22T11:07:08.16Z</time></trkpt><trkpt lat="45.8598183" lon="8.6863083"><ele>267.75</ele><time>2026-03-22T11:07:09.16Z</time></trkpt><trkpt lat="45.8597367" lon="8.68645"><ele>268.0</ele><time>2026-03-22T11:07:10.16Z</time></trkpt><trkpt lat="45.85967" lon="8.6866133"><ele>268.0</ele><time>2026-03-22T11:07:11.16Z</time></trkpt><trkpt lat="45.8596117" lon="8.6867967"><ele>268.0</ele><time>2026-03-22T11:07:12.161Z</time></trkpt><trkpt lat="45.8595617" lon="8.68699"><ele>268.0</ele><time>2026-03-22T11:07:13.161Z</time></trkpt><trkpt lat="45.859505" lon="8.687185"><ele>268.0</ele><time>2026-03-22T11:07:14.16Z</time></trkpt><trkpt lat="45.859445" lon="8.6873867"><ele>268.0</ele><time>2026-03-22T11:07:15.16Z</time></trkpt><trkpt lat="45.8593867" lon="8.6876017"><ele>268.0</ele><time>2026-03-22T11:07:16.161Z</time></trkpt><trkpt lat="45.859335" lon="8.6878083"><ele>268.0</ele><time>2026-03-22T11:07:17.16Z</time></trkpt><trkpt lat="45.8592783" lon="8.6880133"><ele>267.5</ele><time>2026-03-22T11:07:18.161Z</time></trkpt><trkpt lat="45.8592133" lon="8.6882117"><ele>267.0</ele><time>2026-03-22T11:07:19.16Z</time></trkpt><trkpt lat="45.8591633" lon="8.688415"><ele>266.5</ele><time>2026-03-22T11:07:20.161Z</time></trkpt><trkpt lat="45.859115" lon="8.6886133"><ele>266.0</ele><time>2026-03-22T11:07:21.16Z</time></trkpt><trkpt lat="45.8590533" lon="8.6888"><ele>266.0</ele><time>2026-03-22T11:07:22.161Z</time></trkpt><trkpt lat="45.8589967" lon="8.6890033"><ele>266.0</ele><time>2026-03-22T11:07:23.161Z</time></trkpt><trkpt lat="45.8589317" lon="8.6892017"><ele>266.0</ele><time>2026-03-22T11:07:24.161Z</time></trkpt><trkpt lat="45.858855" lon="8.6894017"><ele>266.33333333333337</ele><time>2026-03-22T11:07:25.16Z</time></trkpt><trkpt lat="45.8587667" lon="8.6895983"><ele>266.6666666666667</ele><time>2026-03-22T11:07:26.16Z</time></trkpt><trkpt lat="45.8586883" lon="8.689795"><ele>267.0</ele><time>2026-03-22T11:07:27.16Z</time></trkpt><trkpt lat="45.85861" lon="8.689985"><ele>267.0</ele><time>2026-03-22T11:07:28.161Z</time></trkpt><trkpt lat="45.8585367" lon="8.6901783"><ele>267.0</ele><time>2026-03-22T11:07:29.16Z</time></trkpt><trkpt lat="45.85846" lon="8.6903667"><ele>267.0</ele><time>2026-03-22T11:07:30.16Z</time></trkpt><trkpt lat="45.8583867" lon="8.6905483"><ele>266.5</ele><time>2026-03-22T11:07:31.16Z</time></trkpt><trkpt lat="45.8583183" lon="8.6907333"><ele>266.0</ele><time>2026-03-22T11:07:32.16Z</time></trkpt><trkpt lat="45.85825" lon="8.69092"><ele>265.5</ele><time>2026-03-22T11:07:33.16Z</time></trkpt><trkpt lat="45.8581833" lon="8.691105"><ele>265.0</ele><time>2026-03-22T11:07:34.16Z</time></trkpt><trkpt lat="45.8581167" lon="8.6912933"><ele>265.0</ele><time>2026-03-22T11:07:35.161Z</time></trkpt><trkpt lat="45.85805" lon="8.691485"><ele>265.0</ele><time>2026-03-22T11:07:36.16Z</time></trkpt><trkpt lat="45.857975" lon="8.691675"><ele>265.0</ele><time>2026-03-22T11:07:37.16Z</time></trkpt><trkpt lat="45.857895" lon="8.6918717"><ele>265.0</ele><time>2026-03-22T11:07:38.161Z</time></trkpt><trkpt lat="45.85782" lon="8.692065"><ele>265.0</ele><time>2026-03-22T11:07:39.16Z</time></trkpt><trkpt lat="45.8577417" lon="8.69225"><ele>265.0</ele><time>2026-03-22T11:07:40.161Z</time></trkpt><trkpt lat="45.8576633" lon="8.6924417"><ele>265.0</ele><time>2026-03-22T11:07:41.161Z</time></trkpt><trkpt lat="45.85758" lon="8.692635"><ele>265.0</ele><time>2026-03-22T11:07:42.16Z</time></trkpt><trkpt lat="45.8574917" lon="8.6928317"><ele>265.0</ele><time>2026-03-22T11:07:43.16Z</time></trkpt><trkpt lat="45.857405" lon="8.6930333"><ele>265.0</ele><time>2026-03-22T11:07:44.161Z</time></trkpt><trkpt lat="45.8573217" lon="8.6932283"><ele>265.0</ele><time>2026-03-22T11:07:45.16Z</time></trkpt><trkpt lat="45.8572417" lon="8.6934217"><ele>265.0</ele><time>2026-03-22T11:07:46.16Z</time></trkpt><trkpt lat="45.857175" lon="8.6935983"><ele>265.0</ele><time>2026-03-22T11:07:47.161Z</time></trkpt><trkpt lat="45.8571017" lon="8.69378"><ele>265.0</ele><time>2026-03-22T11:07:48.161Z</time></trkpt><trkpt lat="45.85703" lon="8.693955"><ele>265.0</ele><time>2026-03-22T11:07:49.161Z</time></trkpt><trkpt lat="45.85695" lon="8.69414"><ele>265.0</ele><time>2026-03-22T11:07:50.16Z</time></trkpt><trkpt lat="45.85689" lon="8.69433"><ele>264.75</ele><time>2026-03-22T11:07:51.16Z</time></trkpt><trkpt lat="45.8568217" lon="8.6945167"><ele>264.5</ele><time>2026-03-22T11:07:52.16Z</time></trkpt><trkpt lat="45.8567483" lon="8.6947017"><ele>264.25</ele><time>2026-03-22T11:07:53.16Z</time></trkpt><trkpt lat="45.85668" lon="8.6948917"><ele>264.0</ele><time>2026-03-22T11:07:54.16Z</time></trkpt><trkpt lat="45.856605" lon="8.69508"><ele>264.0</ele><time>2026-03-22T11:07:55.161Z</time></trkpt><trkpt lat="45.856535" lon="8.6952683"><ele>264.0</ele><time>2026-03-22T11:07:56.16Z</time></trkpt><trkpt lat="45.8564633" lon="8.695455"><ele>264.0</ele><time>2026-03-22T11:07:57.161Z</time></trkpt><trkpt lat="45.8563967" lon="8.6956483"><ele>264.0</ele><time>2026-03-22T11:07:58.161Z</time></trkpt><trkpt lat="45.856315" lon="8.6958433"><ele>264.0</ele><time>2026-03-22T11:07:59.161Z</time></trkpt><trkpt lat="45.85624" lon="8.6960383"><ele>264.0</ele><time>2026-03-22T11:08:00.161Z</time></trkpt><trkpt lat="45.8561633" lon="8.6962333"><ele>264.0</ele><time>2026-03-22T11:08:01.16Z</time></trkpt><trkpt lat="45.8560883" lon="8.6964283"><ele>264.25</ele><time>2026-03-22T11:08:02.16Z</time></trkpt><trkpt lat="45.8560167" lon="8.6966167"><ele>264.5</ele><time>2026-03-22T11:08:03.16Z</time></trkpt><trkpt lat="45.855945" lon="8.6968033"><ele>264.75</ele><time>2026-03-22T11:08:04.161Z</time></trkpt><trkpt lat="45.8558667" lon="8.696985"><ele>265.0</ele><time>2026-03-22T11:08:05.161Z</time></trkpt><trkpt lat="45.8557933" lon="8.697165"><ele>265.0</ele><time>2026-03-22T11:08:06.16Z</time></trkpt><trkpt lat="45.85572" lon="8.6973633"><ele>265.0</ele><time>2026-03-22T11:08:07.161Z</time></trkpt><trkpt lat="45.85564" lon="8.6975683"><ele>265.0</ele><time>2026-03-22T11:08:08.16Z</time></trkpt><trkpt lat="45.8555667" lon="8.6977533"><ele>266.25</ele><time>2026-03-22T11:08:09.16Z</time></trkpt><trkpt lat="45.8554967" lon="8.697925"><ele>267.5</ele><time>2026-03-22T11:08:10.16Z</time></trkpt><trkpt lat="45.855425" lon="8.6980983"><ele>268.75</ele><time>2026-03-22T11:08:11.16Z</time></trkpt><trkpt lat="45.8553517" lon="8.698255"><ele>270.0</ele><time>2026-03-22T11:08:12.16Z</time></trkpt><trkpt lat="45.855275" lon="8.6983917"><ele>270.0</ele><time>2026-03-22T11:08:13.16Z</time></trkpt><trkpt lat="45.8551733" lon="8.6984933"><ele>270.0</ele><time>2026-03-22T11:08:14.161Z</time></trkpt><trkpt lat="45.8550583" lon="8.6985767"><ele>270.0</ele><time>2026-03-22T11:08:15.16Z</time></trkpt><trkpt lat="45.8549433" lon="8.69863"><ele>270.0</ele><time>2026-03-22T11:08:16.161Z</time></trkpt><trkpt lat="45.8548333" lon="8.6986667"><ele>270.0</ele><time>2026-03-22T11:08:17.16Z</time></trkpt><trkpt lat="45.854735" lon="8.6986883"><ele>270.0</ele><time>2026-03-22T11:08:18.16Z</time></trkpt><trkpt lat="45.854645" lon="8.698705"><ele>270.0</ele><time>2026-03-22T11:08:19.16Z</time></trkpt><trkpt lat="45.8545617" lon="8.698715"><ele>270.0</ele><time>2026-03-22T11:08:20.161Z</time></trkpt><trkpt lat="45.8544583" lon="8.6986883"><ele>270.0</ele><time>2026-03-22T11:08:22.16Z</time></trkpt><trkpt lat="45.8543783" lon="8.6986217"><ele>269.2</ele><time>2026-03-22T11:08:25.16Z</time></trkpt><trkpt lat="45.8542567" lon="8.6985417"><ele>268.4</ele><time>2026-03-22T11:08:27.161Z</time></trkpt><trkpt lat="45.8541717" lon="8.6985467"><ele>267.6</ele><time>2026-03-22T11:08:28.16Z</time></trkpt><trkpt lat="45.8540933" lon="8.6986133"><ele>266.8</ele><time>2026-03-22T11:08:29.161Z</time></trkpt><trkpt lat="45.854035" lon="8.6987333"><ele>266.0</ele><time>2026-03-22T11:08:30.16Z</time></trkpt><trkpt lat="45.853995" lon="8.6988883"><ele>266.0</ele><time>2026-03-22T11:08:31.16Z</time></trkpt><trkpt lat="45.8539517" lon="8.6990567"><ele>266.0</ele><time>2026-03-22T11:08:32.161Z</time></trkpt><trkpt lat="45.853885" lon="8.699195"><ele>266.0</ele><time>2026-03-22T11:08:33.16Z</time></trkpt><trkpt lat="45.8537983" lon="8.6993167"><ele>266.0</ele><time>2026-03-22T11:08:34.161Z</time></trkpt><trkpt lat="45.8537033" lon="8.69943"><ele>267.0</ele><time>2026-03-22T11:08:35.16Z</time></trkpt><trkpt lat="45.853585" lon="8.699535"><ele>268.0</ele><time>2026-03-22T11:08:36.161Z</time></trkpt><trkpt lat="45.85346" lon="8.6996267"><ele>269.0</ele><time>2026-03-22T11:08:37.16Z</time></trkpt><trkpt lat="45.8533217" lon="8.699685"><ele>270.0</ele><time>2026-03-22T11:08:38.16Z</time></trkpt><trkpt lat="45.853175" lon="8.6997117"><ele>270.0</ele><time>2026-03-22T11:08:39.16Z</time></trkpt><trkpt lat="45.85302" lon="8.699725"><ele>270.0</ele><time>2026-03-22T11:08:40.16Z</time></trkpt><trkpt lat="45.85287" lon="8.699715"><ele>270.0</ele><time>2026-03-22T11:08:41.16Z</time></trkpt><trkpt lat="45.852715" lon="8.6996967"><ele>268.0</ele><time>2026-03-22T11:08:42.16Z</time></trkpt><trkpt lat="45.852565" lon="8.6996833"><ele>266.0</ele><time>2026-03-22T11:08:43.16Z</time></trkpt><trkpt lat="45.852415" lon="8.6996767"><ele>264.0</ele><time>2026-03-22T11:08:44.16Z</time></trkpt><trkpt lat="45.852265" lon="8.699665"><ele>264.0</ele><time>2026-03-22T11:08:45.16Z</time></trkpt><trkpt lat="45.852105" lon="8.6996533"><ele>264.0</ele><time>2026-03-22T11:08:46.16Z</time></trkpt><trkpt lat="45.85195" lon="8.6996533"><ele>264.0</ele><time>2026-03-22T11:08:47.16Z</time></trkpt><trkpt lat="45.8517933" lon="8.6996733"><ele>264.6666666666667</ele><time>2026-03-22T11:08:48.16Z</time></trkpt><trkpt lat="45.8516367" lon="8.69971"><ele>265.33333333333337</ele><time>2026-03-22T11:08:49.161Z</time></trkpt><trkpt lat="45.8514833" lon="8.69977"><ele>266.0</ele><time>2026-03-22T11:08:50.16Z</time></trkpt><trkpt lat="45.8513233" lon="8.699835"><ele>266.0</ele><time>2026-03-22T11:08:51.16Z</time></trkpt><trkpt lat="45.851175" lon="8.6998917"><ele>266.0</ele><time>2026-03-22T11:08:52.161Z</time></trkpt><trkpt lat="45.85102" lon="8.6999483"><ele>266.0</ele><time>2026-03-22T11:08:53.161Z</time></trkpt><trkpt lat="45.8508583" lon="8.699975"><ele>264.0</ele><time>2026-03-22T11:08:54.16Z</time></trkpt><trkpt lat="45.850695" lon="8.6999983"><ele>262.0</ele><time>2026-03-22T11:08:55.16Z</time></trkpt><trkpt lat="45.8505317" lon="8.6999933"><ele>260.0</ele><time>2026-03-22T11:08:56.16Z</time></trkpt><trkpt lat="45.8503717" lon="8.69998"><ele>260.0</ele><time>2026-03-22T11:08:57.161Z</time></trkpt><trkpt lat="45.85023" lon="8.6999567"><ele>260.0</ele><time>2026-03-22T11:08:58.16Z</time></trkpt><trkpt lat="45.85008" lon="8.6999433"><ele>260.0</ele><time>2026-03-22T11:08:59.161Z</time></trkpt><trkpt lat="45.84993" lon="8.6999267"><ele>260.0</ele><time>2026-03-22T11:09:00.161Z</time></trkpt><trkpt lat="45.849775" lon="8.6998983"><ele>259.0</ele><time>2026-03-22T11:09:01.16Z</time></trkpt><trkpt lat="45.84962" lon="8.6998567"><ele>258.0</ele><time>2026-03-22T11:09:02.16Z</time></trkpt><trkpt lat="45.8494783" lon="8.6997917"><ele>257.0</ele><time>2026-03-22T11:09:03.16Z</time></trkpt><trkpt lat="45.8493483" lon="8.6996883"><ele>257.33333333333337</ele><time>2026-03-22T11:09:04.16Z</time></trkpt><trkpt lat="45.8492233" lon="8.6995617"><ele>257.6666666666667</ele><time>2026-03-22T11:09:05.16Z</time></trkpt><trkpt lat="45.84911" lon="8.6994167"><ele>258.0</ele><time>2026-03-22T11:09:06.161Z</time></trkpt><trkpt lat="45.8490017" lon="8.6992617"><ele>258.0</ele><time>2026-03-22T11:09:07.16Z</time></trkpt><trkpt lat="45.8488983" lon="8.69911"><ele>258.0</ele><time>2026-03-22T11:09:08.16Z</time></trkpt><trkpt lat="45.8487883" lon="8.6989733"><ele>258.0</ele><time>2026-03-22T11:09:09.16Z</time></trkpt><trkpt lat="45.848665" lon="8.69884"><ele>258.0</ele><time>2026-03-22T11:09:10.16Z</time></trkpt><trkpt lat="45.8485333" lon="8.698735"><ele>259.6666666666667</ele><time>2026-03-22T11:09:11.16Z</time></trkpt><trkpt lat="45.8483967" lon="8.6986517"><ele>261.33333333333337</ele><time>2026-03-22T11:09:12.16Z</time></trkpt><trkpt lat="45.848255" lon="8.6985717"><ele>263.0</ele><time>2026-03-22T11:09:13.16Z</time></trkpt><trkpt lat="45.8481067" lon="8.6985"><ele>263.0</ele><time>2026-03-22T11:09:14.16Z</time></trkpt><trkpt lat="45.8479567" lon="8.69843"><ele>263.0</ele><time>2026-03-22T11:09:15.16Z</time></trkpt><trkpt lat="45.8478083" lon="8.698365"><ele>263.0</ele><time>2026-03-22T11:09:16.16Z</time></trkpt><trkpt lat="45.8476567" lon="8.6983067"><ele>263.6666666666667</ele><time>2026-03-22T11:09:17.16Z</time></trkpt><trkpt lat="45.8475017" lon="8.698245"><ele>264.3333333333333</ele><time>2026-03-22T11:09:18.16Z</time></trkpt><trkpt lat="45.8473433" lon="8.6981933"><ele>265.0</ele><time>2026-03-22T11:09:19.16Z</time></trkpt><trkpt lat="45.84719" lon="8.6981517"><ele>265.0</ele><time>2026-03-22T11:09:20.16Z</time></trkpt><trkpt lat="45.8470333" lon="8.6981333"><ele>265.0</ele><time>2026-03-22T11:09:21.161Z</time></trkpt><trkpt lat="45.84688" lon="8.698125"><ele>265.0</ele><time>2026-03-22T11:09:22.16Z</time></trkpt><trkpt lat="45.846735" lon="8.6981483"><ele>265.3333333333333</ele><time>2026-03-22T11:09:23.161Z</time></trkpt><trkpt lat="45.846585" lon="8.6981967"><ele>265.6666666666667</ele><time>2026-03-22T11:09:24.161Z</time></trkpt><trkpt lat="45.8464367" lon="8.6982633"><ele>266.0</ele><time>2026-03-22T11:09:25.161Z</time></trkpt><trkpt lat="45.8463" lon="8.6983467"><ele>266.0</ele><time>2026-03-22T11:09:26.16Z</time></trkpt><trkpt lat="45.8461817" lon="8.6984383"><ele>266.0</ele><time>2026-03-22T11:09:27.16Z</time></trkpt><trkpt lat="45.8460733" lon="8.698525"><ele>266.0</ele><time>2026-03-22T11:09:28.161Z</time></trkpt><trkpt lat="45.8459667" lon="8.6986017"><ele>266.0</ele><time>2026-03-22T11:09:29.16Z</time></trkpt><trkpt lat="45.845865" lon="8.6986683"><ele>264.25</ele><time>2026-03-22T11:09:30.16Z</time></trkpt><trkpt lat="45.845795" lon="8.6987633"><ele>262.5</ele><time>2026-03-22T11:09:31.16Z</time></trkpt><trkpt lat="45.8457583" lon="8.698905"><ele>260.75</ele><time>2026-03-22T11:09:32.16Z</time></trkpt><trkpt lat="45.845735" lon="8.6990733"><ele>259.0</ele><time>2026-03-22T11:09:33.161Z</time></trkpt><trkpt lat="45.8456983" lon="8.699265"><ele>259.75</ele><time>2026-03-22T11:09:34.161Z</time></trkpt><trkpt lat="45.845655" lon="8.6994483"><ele>260.5</ele><time>2026-03-22T11:09:35.16Z</time></trkpt><trkpt lat="45.845615" lon="8.6996333"><ele>261.25</ele><time>2026-03-22T11:09:36.16Z</time></trkpt><trkpt lat="45.8455917" lon="8.6998317"><ele>262.0</ele><time>2026-03-22T11:09:37.16Z</time></trkpt><trkpt lat="45.8455717" lon="8.7000333"><ele>262.0</ele><time>2026-03-22T11:09:38.16Z</time></trkpt><trkpt lat="45.8455717" lon="8.70024"><ele>262.0</ele><time>2026-03-22T11:09:39.161Z</time></trkpt><trkpt lat="45.8455667" lon="8.700445"><ele>262.0</ele><time>2026-03-22T11:09:40.161Z</time></trkpt><trkpt lat="45.845565" lon="8.700655"><ele>262.0</ele><time>2026-03-22T11:09:41.16Z</time></trkpt><trkpt lat="45.84557" lon="8.7008783"><ele>262.75</ele><time>2026-03-22T11:09:42.16Z</time></trkpt><trkpt lat="45.8455733" lon="8.7010917"><ele>263.5</ele><time>2026-03-22T11:09:43.16Z</time></trkpt><trkpt lat="45.8455817" lon="8.701295"><ele>264.25</ele><time>2026-03-22T11:09:44.16Z</time></trkpt><trkpt lat="45.845585" lon="8.7015"><ele>265.0</ele><time>2026-03-22T11:09:45.16Z</time></trkpt><trkpt lat="45.8455883" lon="8.7017183"><ele>265.3333333333333</ele><time>2026-03-22T11:09:46.16Z</time></trkpt><trkpt lat="45.845595" lon="8.7019483"><ele>265.6666666666667</ele><time>2026-03-22T11:09:47.161Z</time></trkpt><trkpt lat="45.8455917" lon="8.7021633"><ele>266.0</ele><time>2026-03-22T11:09:48.16Z</time></trkpt><trkpt lat="45.845575" lon="8.7023767"><ele>266.0</ele><time>2026-03-22T11:09:49.16Z</time></trkpt><trkpt lat="45.8455517" lon="8.7025917"><ele>266.0</ele><time>2026-03-22T11:09:50.16Z</time></trkpt><trkpt lat="45.8455183" lon="8.7028067"><ele>266.0</ele><time>2026-03-22T11:09:51.16Z</time></trkpt><trkpt lat="45.845475" lon="8.7030133"><ele>265.33333333333337</ele><time>2026-03-22T11:09:52.16Z</time></trkpt><trkpt lat="45.84542" lon="8.703215"><ele>264.6666666666667</ele><time>2026-03-22T11:09:53.161Z</time></trkpt><trkpt lat="45.845355" lon="8.7034183"><ele>264.0</ele><time>2026-03-22T11:09:54.16Z</time></trkpt><trkpt lat="45.845275" lon="8.7036017"><ele>262.6666666666667</ele><time>2026-03-22T11:09:55.161Z</time></trkpt><trkpt lat="45.8451967" lon="8.7037867"><ele>261.33333333333337</ele><time>2026-03-22T11:09:56.16Z</time></trkpt><trkpt lat="45.8451017" lon="8.7039617"><ele>260.0</ele><time>2026-03-22T11:09:57.16Z</time></trkpt><trkpt lat="45.8450017" lon="8.7041333"><ele>257.6666666666667</ele><time>2026-03-22T11:09:58.16Z</time></trkpt><trkpt lat="45.8448967" lon="8.7042983"><ele>255.33333333333331</ele><time>2026-03-22T11:09:59.16Z</time></trkpt><trkpt lat="45.8447867" lon="8.7044467"><ele>253.0</ele><time>2026-03-22T11:10:00.16Z</time></trkpt><trkpt lat="45.8446783" lon="8.704595"><ele>253.0</ele><time>2026-03-22T11:10:01.16Z</time></trkpt><trkpt lat="45.844565" lon="8.70474"><ele>253.0</ele><time>2026-03-22T11:10:02.16Z</time></trkpt><trkpt lat="45.844445" lon="8.70488"><ele>253.0</ele><time>2026-03-22T11:10:03.16Z</time></trkpt><trkpt lat="45.84433" lon="8.705025"><ele>252.66666666666666</ele><time>2026-03-22T11:10:04.161Z</time></trkpt><trkpt lat="45.844215" lon="8.7051617"><ele>252.33333333333331</ele><time>2026-03-22T11:10:05.16Z</time></trkpt><trkpt lat="45.8440983" lon="8.7053017"><ele>252.0</ele><time>2026-03-22T11:10:06.16Z</time></trkpt><trkpt lat="45.8439817" lon="8.7054483"><ele>252.0</ele><time>2026-03-22T11:10:07.16Z</time></trkpt><trkpt lat="45.8438717" lon="8.70558"><ele>252.0</ele><time>2026-03-22T11:10:08.16Z</time></trkpt><trkpt lat="45.8437617" lon="8.70572"><ele>252.0</ele><time>2026-03-22T11:10:09.16Z</time></trkpt><trkpt lat="45.8436517" lon="8.705865"><ele>252.0</ele><time>2026-03-22T11:10:10.16Z</time></trkpt><trkpt lat="45.84354" lon="8.7059983"><ele>253.0</ele><time>2026-03-22T11:10:11.16Z</time></trkpt><trkpt lat="45.8434433" lon="8.7061267"><ele>254.0</ele><time>2026-03-22T11:10:12.16Z</time></trkpt><trkpt lat="45.8433533" lon="8.7062467"><ele>255.0</ele><time>2026-03-22T11:10:13.16Z</time></trkpt><trkpt lat="45.84327" lon="8.7063533"><ele>256.0</ele><time>2026-03-22T11:10:14.16Z</time></trkpt><trkpt lat="45.8431933" lon="8.706445"><ele>256.0</ele><time>2026-03-22T11:10:15.161Z</time></trkpt><trkpt lat="45.8431183" lon="8.7065217"><ele>256.0</ele><time>2026-03-22T11:10:16.16Z</time></trkpt><trkpt lat="45.8430333" lon="8.70658"><ele>256.0</ele><time>2026-03-22T11:10:17.16Z</time></trkpt><trkpt lat="45.842955" lon="8.7066167"><ele>256.0</ele><time>2026-03-22T11:10:18.16Z</time></trkpt><trkpt lat="45.8428817" lon="8.706685"><ele>256.0</ele><time>2026-03-22T11:10:19.161Z</time></trkpt><trkpt lat="45.8428167" lon="8.70679"><ele>256.25</ele><time>2026-03-22T11:10:20.16Z</time></trkpt><trkpt lat="45.8427633" lon="8.7069133"><ele>256.5</ele><time>2026-03-22T11:10:21.161Z</time></trkpt><trkpt lat="45.8426933" lon="8.70704"><ele>256.75</ele><time>2026-03-22T11:10:22.16Z</time></trkpt><trkpt lat="45.8426083" lon="8.7071633"><ele>257.0</ele><time>2026-03-22T11:10:23.16Z</time></trkpt><trkpt lat="45.8425133" lon="8.70728"><ele>257.0</ele><time>2026-03-22T11:10:24.161Z</time></trkpt><trkpt lat="45.8424133" lon="8.7074067"><ele>257.0</ele><time>2026-03-22T11:10:25.161Z</time></trkpt><trkpt lat="45.8423117" lon="8.7075433"><ele>257.0</ele><time>2026-03-22T11:10:26.16Z</time></trkpt><trkpt lat="45.8422067" lon="8.70768"><ele>257.0</ele><time>2026-03-22T11:10:27.16Z</time></trkpt><trkpt lat="45.8420833" lon="8.7078317"><ele>257.33333333333337</ele><time>2026-03-22T11:10:28.161Z</time></trkpt><trkpt lat="45.8419633" lon="8.7079783"><ele>257.6666666666667</ele><time>2026-03-22T11:10:29.16Z</time></trkpt><trkpt lat="45.841845" lon="8.7081267"><ele>258.0</ele><time>2026-03-22T11:10:30.16Z</time></trkpt><trkpt lat="45.841735" lon="8.7082567"><ele>257.4</ele><time>2026-03-22T11:10:31.161Z</time></trkpt><trkpt lat="45.8416383" lon="8.7083733"><ele>256.8</ele><time>2026-03-22T11:10:32.16Z</time></trkpt><trkpt lat="45.841545" lon="8.70848"><ele>256.2</ele><time>2026-03-22T11:10:33.16Z</time></trkpt><trkpt lat="45.8414533" lon="8.708555"><ele>255.6</ele><time>2026-03-22T11:10:34.16Z</time></trkpt><trkpt lat="45.8413633" lon="8.708565"><ele>255.0</ele><time>2026-03-22T11:10:35.16Z</time></trkpt><trkpt lat="45.841285" lon="8.7085067"><ele>255.0</ele><time>2026-03-22T11:10:36.161Z</time></trkpt><trkpt lat="45.841215" lon="8.708415"><ele>255.0</ele><time>2026-03-22T11:10:37.16Z</time></trkpt><trkpt lat="45.8411317" lon="8.7083383"><ele>255.0</ele><time>2026-03-22T11:10:38.161Z</time></trkpt><trkpt lat="45.8410383" lon="8.708305"><ele>255.0</ele><time>2026-03-22T11:10:39.16Z</time></trkpt><trkpt lat="45.840925" lon="8.7083117"><ele>255.0</ele><time>2026-03-22T11:10:40.161Z</time></trkpt><trkpt lat="45.8408133" lon="8.708345"><ele>255.2</ele><time>2026-03-22T11:10:41.16Z</time></trkpt><trkpt lat="45.8407183" lon="8.7083883"><ele>255.4</ele><time>2026-03-22T11:10:42.16Z</time></trkpt><trkpt lat="45.8406267" lon="8.7084283"><ele>255.60000000000002</ele><time>2026-03-22T11:10:43.16Z</time></trkpt><trkpt lat="45.8405383" lon="8.7084517"><ele>255.8</ele><time>2026-03-22T11:10:44.16Z</time></trkpt><trkpt lat="45.8404517" lon="8.708475"><ele>256.0</ele><time>2026-03-22T11:10:45.161Z</time></trkpt><trkpt lat="45.8403667" lon="8.708495"><ele>255.99999999999997</ele><time>2026-03-22T11:10:46.16Z</time></trkpt><trkpt lat="45.8402933" lon="8.7085033"><ele>256.0</ele><time>2026-03-22T11:10:47.161Z</time></trkpt><trkpt lat="45.8402217" lon="8.7085083"><ele>256.0</ele><time>2026-03-22T11:10:48.16Z</time></trkpt><trkpt lat="45.8401217" lon="8.7085083"><ele>256.0</ele><time>2026-03-22T11:10:50.16Z</time></trkpt><trkpt lat="45.8400583" lon="8.708505"><ele>255.99999999999997</ele><time>2026-03-22T11:10:53.16Z</time></trkpt><trkpt lat="45.83998" lon="8.7084867"><ele>256.0</ele><time>2026-03-22T11:10:55.16Z</time></trkpt><trkpt lat="45.8399133" lon="8.7084683"><ele>256.2</ele><time>2026-03-22T11:10:56.16Z</time></trkpt><trkpt lat="45.8398283" lon="8.7084417"><ele>256.40000000000003</ele><time>2026-03-22T11:10:57.161Z</time></trkpt><trkpt lat="45.83975" lon="8.7083883"><ele>256.6</ele><time>2026-03-22T11:10:58.16Z</time></trkpt><trkpt lat="45.8396717" lon="8.708305"><ele>256.8</ele><time>2026-03-22T11:10:59.16Z</time></trkpt><trkpt lat="45.8396083" lon="8.70821"><ele>257.0</ele><time>2026-03-22T11:11:00.16Z</time></trkpt><trkpt lat="45.839555" lon="8.7081117"><ele>257.0</ele><time>2026-03-22T11:11:01.16Z</time></trkpt><trkpt lat="45.839495" lon="8.7080133"><ele>257.0</ele><time>2026-03-22T11:11:02.16Z</time></trkpt><trkpt lat="45.8394267" lon="8.707915"><ele>257.0</ele><time>2026-03-22T11:11:03.16Z</time></trkpt><trkpt lat="45.8393617" lon="8.7078117"><ele>257.0</ele><time>2026-03-22T11:11:04.16Z</time></trkpt><trkpt lat="45.8392967" lon="8.70771"><ele>257.0</ele><time>2026-03-22T11:11:05.161Z</time></trkpt><trkpt lat="45.839235" lon="8.707605"><ele>256.6</ele><time>2026-03-22T11:11:06.16Z</time></trkpt><trkpt lat="45.83917" lon="8.7074933"><ele>256.2</ele><time>2026-03-22T11:11:07.16Z</time></trkpt><trkpt lat="45.839105" lon="8.7073783"><ele>255.8</ele><time>2026-03-22T11:11:08.16Z</time></trkpt><trkpt lat="45.839035" lon="8.7072583"><ele>255.4</ele><time>2026-03-22T11:11:09.16Z</time></trkpt><trkpt lat="45.838975" lon="8.707135"><ele>255.0</ele><time>2026-03-22T11:11:10.16Z</time></trkpt><trkpt lat="45.838905" lon="8.707015"><ele>253.75</ele><time>2026-03-22T11:11:11.161Z</time></trkpt><trkpt lat="45.8388383" lon="8.7068867"><ele>252.5</ele><time>2026-03-22T11:11:12.16Z</time></trkpt><trkpt lat="45.83876" lon="8.70675"><ele>251.25</ele><time>2026-03-22T11:11:13.161Z</time></trkpt><trkpt lat="45.8386833" lon="8.706615"><ele>250.0</ele><time>2026-03-22T11:11:14.16Z</time></trkpt><trkpt lat="45.8386" lon="8.7064833"><ele>250.0</ele><time>2026-03-22T11:11:15.161Z</time></trkpt><trkpt lat="45.838525" lon="8.7063567"><ele>250.0</ele><time>2026-03-22T11:11:16.16Z</time></trkpt><trkpt lat="45.8384483" lon="8.7062233"><ele>250.0</ele><time>2026-03-22T11:11:17.161Z</time></trkpt><trkpt lat="45.838375" lon="8.7060967"><ele>250.0</ele><time>2026-03-22T11:11:18.16Z</time></trkpt><trkpt lat="45.8383033" lon="8.7059817"><ele>250.0</ele><time>2026-03-22T11:11:19.16Z</time></trkpt><trkpt lat="45.8382367" lon="8.7058783"><ele>250.0</ele><time>2026-03-22T11:11:20.16Z</time></trkpt><trkpt lat="45.838185" lon="8.7057917"><ele>250.0</ele><time>2026-03-22T11:11:21.16Z</time></trkpt><trkpt lat="45.83814" lon="8.7057133"><ele>250.0</ele><time>2026-03-22T11:11:22.16Z</time></trkpt><trkpt lat="45.8380833" lon="8.7055683"><ele>250.0</ele><time>2026-03-22T11:11:24.16Z</time></trkpt><trkpt lat="45.8380667" lon="8.7054083"><ele>250.4</ele><time>2026-03-22T11:11:26.161Z</time></trkpt><trkpt lat="45.838075" lon="8.7052333"><ele>250.8</ele><time>2026-03-22T11:11:28.16Z</time></trkpt><trkpt lat="45.8380483" lon="8.705145"><ele>251.2</ele><time>2026-03-22T11:11:29.16Z</time></trkpt><trkpt lat="45.8379833" lon="8.70509"><ele>251.6</ele><time>2026-03-22T11:11:30.16Z</time></trkpt><trkpt lat="45.837895" lon="8.7050583"><ele>252.0</ele><time>2026-03-22T11:11:31.161Z</time></trkpt><trkpt lat="45.8378" lon="8.7050167"><ele>252.0</ele><time>2026-03-22T11:11:32.161Z</time></trkpt><trkpt lat="45.837725" lon="8.7049267"><ele>252.0</ele><time>2026-03-22T11:11:33.16Z</time></trkpt><trkpt lat="45.8376467" lon="8.7048"><ele>252.0</ele><time>2026-03-22T11:11:34.16Z</time></trkpt><trkpt lat="45.8375683" lon="8.704655"><ele>252.0</ele><time>2026-03-22T11:11:35.161Z</time></trkpt><trkpt lat="45.8374833" lon="8.704495"><ele>250.33333333333331</ele><time>2026-03-22T11:11:36.161Z</time></trkpt><trkpt lat="45.83738" lon="8.7043183"><ele>248.66666666666666</ele><time>2026-03-22T11:11:37.16Z</time></trkpt><trkpt lat="45.837285" lon="8.7041417"><ele>247.0</ele><time>2026-03-22T11:11:38.16Z</time></trkpt><trkpt lat="45.8371933" lon="8.7039783"><ele>247.0</ele><time>2026-03-22T11:11:39.16Z</time></trkpt><trkpt lat="45.8371117" lon="8.703815"><ele>247.0</ele><time>2026-03-22T11:11:40.161Z</time></trkpt><trkpt lat="45.8370417" lon="8.7036317"><ele>247.0</ele><time>2026-03-22T11:11:41.16Z</time></trkpt><trkpt lat="45.836995" lon="8.703435"><ele>247.0</ele><time>2026-03-22T11:11:42.16Z</time></trkpt><trkpt lat="45.83697" lon="8.7032333"><ele>246.25</ele><time>2026-03-22T11:11:43.161Z</time></trkpt><trkpt lat="45.8369533" lon="8.70303"><ele>245.5</ele><time>2026-03-22T11:11:44.16Z</time></trkpt><trkpt lat="45.8369317" lon="8.7028383"><ele>244.75</ele><time>2026-03-22T11:11:45.16Z</time></trkpt><trkpt lat="45.8369183" lon="8.7026717"><ele>244.0</ele><time>2026-03-22T11:11:46.16Z</time></trkpt><trkpt lat="45.836905" lon="8.7025083"><ele>243.6</ele><time>2026-03-22T11:11:47.16Z</time></trkpt><trkpt lat="45.8368917" lon="8.7023483"><ele>243.2</ele><time>2026-03-22T11:11:48.16Z</time></trkpt><trkpt lat="45.836875" lon="8.7021967"><ele>242.79999999999998</ele><time>2026-03-22T11:11:49.16Z</time></trkpt><trkpt lat="45.8368617" lon="8.7020567"><ele>242.39999999999998</ele><time>2026-03-22T11:11:50.16Z</time></trkpt><trkpt lat="45.83685" lon="8.7019267"><ele>242.0</ele><time>2026-03-22T11:11:51.16Z</time></trkpt><trkpt lat="45.83684" lon="8.7017917"><ele>242.0</ele><time>2026-03-22T11:11:52.16Z</time></trkpt><trkpt lat="45.8368383" lon="8.7016717"><ele>242.0</ele><time>2026-03-22T11:11:53.16Z</time></trkpt><trkpt lat="45.83681" lon="8.7015433"><ele>242.0</ele><time>2026-03-22T11:11:54.16Z</time></trkpt><trkpt lat="45.83674" lon="8.701395"><ele>242.0</ele><time>2026-03-22T11:11:56.161Z</time></trkpt><trkpt lat="45.836685" lon="8.70132"><ele>242.0</ele><time>2026-03-22T11:11:57.161Z</time></trkpt><trkpt lat="45.8366133" lon="8.7012317"><ele>242.0</ele><time>2026-03-22T11:11:58.16Z</time></trkpt><trkpt lat="45.8365417" lon="8.7011483"><ele>242.0</ele><time>2026-03-22T11:11:59.16Z</time></trkpt><trkpt lat="45.8364633" lon="8.7010683"><ele>242.0</ele><time>2026-03-22T11:12:00.161Z</time></trkpt><trkpt lat="45.836385" lon="8.7009967"><ele>242.0</ele><time>2026-03-22T11:12:01.16Z</time></trkpt><trkpt lat="45.8363067" lon="8.7009383"><ele>242.0</ele><time>2026-03-22T11:12:02.161Z</time></trkpt><trkpt lat="45.836235" lon="8.700885"><ele>243.2</ele><time>2026-03-22T11:12:03.16Z</time></trkpt><trkpt lat="45.836155" lon="8.7008233"><ele>244.39999999999998</ele><time>2026-03-22T11:12:04.16Z</time></trkpt><trkpt lat="45.8360767" lon="8.70076"><ele>245.60000000000002</ele><time>2026-03-22T11:12:05.16Z</time></trkpt><trkpt lat="45.83599" lon="8.7007"><ele>246.8</ele><time>2026-03-22T11:12:06.161Z</time></trkpt><trkpt lat="45.8359017" lon="8.70064"><ele>248.0</ele><time>2026-03-22T11:12:07.16Z</time></trkpt><trkpt lat="45.8358033" lon="8.70057"><ele>248.2</ele><time>2026-03-22T11:12:08.161Z</time></trkpt><trkpt lat="45.8357133" lon="8.7004967"><ele>248.4</ele><time>2026-03-22T11:12:09.161Z</time></trkpt><trkpt lat="45.8356183" lon="8.7004233"><ele>248.59999999999997</ele><time>2026-03-22T11:12:10.16Z</time></trkpt><trkpt lat="45.8355233" lon="8.700355"><ele>248.79999999999998</ele><time>2026-03-22T11:12:11.16Z</time></trkpt><trkpt lat="45.835435" lon="8.7002767"><ele>249.0</ele><time>2026-03-22T11:12:12.16Z</time></trkpt><trkpt lat="45.8353483" lon="8.7001983"><ele>251.39999999999998</ele><time>2026-03-22T11:12:13.16Z</time></trkpt><trkpt lat="45.8352683" lon="8.7001183"><ele>253.79999999999998</ele><time>2026-03-22T11:12:14.16Z</time></trkpt><trkpt lat="45.8351983" lon="8.7000083"><ele>256.20000000000005</ele><time>2026-03-22T11:12:15.161Z</time></trkpt><trkpt lat="45.8351467" lon="8.6998867"><ele>258.6</ele><time>2026-03-22T11:12:16.161Z</time></trkpt><trkpt lat="45.8351017" lon="8.6997633"><ele>261.0</ele><time>2026-03-22T11:12:17.16Z</time></trkpt><trkpt lat="45.8350817" lon="8.6996383"><ele>261.0</ele><time>2026-03-22T11:12:18.16Z</time></trkpt><trkpt lat="45.83508" lon="8.6995167"><ele>261.0</ele><time>2026-03-22T11:12:19.16Z</time></trkpt><trkpt lat="45.835105" lon="8.6993817"><ele>261.0</ele><time>2026-03-22T11:12:20.16Z</time></trkpt><trkpt lat="45.8351167" lon="8.6992533"><ele>261.0</ele><time>2026-03-22T11:12:21.16Z</time></trkpt><trkpt lat="45.835125" lon="8.6991133"><ele>261.0</ele><time>2026-03-22T11:12:22.161Z</time></trkpt><trkpt lat="45.8351217" lon="8.6989683"><ele>261.0</ele><time>2026-03-22T11:12:23.16Z</time></trkpt><trkpt lat="45.8351217" lon="8.69884"><ele>261.0</ele><time>2026-03-22T11:12:24.16Z</time></trkpt><trkpt lat="45.83512" lon="8.6987233"><ele>261.0</ele><time>2026-03-22T11:12:25.161Z</time></trkpt><trkpt lat="45.8351183" lon="8.6986133"><ele>261.0</ele><time>2026-03-22T11:12:26.161Z</time></trkpt><trkpt lat="45.8351033" lon="8.698495"><ele>261.0</ele><time>2026-03-22T11:12:27.16Z</time></trkpt><trkpt lat="45.8350783" lon="8.6983917"><ele>261.0</ele><time>2026-03-22T11:12:28.161Z</time></trkpt><trkpt lat="45.8350483" lon="8.6983017"><ele>260.6666666666667</ele><time>2026-03-22T11:12:29.16Z</time></trkpt><trkpt lat="45.8349917" lon="8.69814"><ele>260.3333333333333</ele><time>2026-03-22T11:12:31.16Z</time></trkpt><trkpt lat="45.8349483" lon="8.6980683"><ele>260.0</ele><time>2026-03-22T11:12:32.16Z</time></trkpt><trkpt lat="45.8349" lon="8.697985"><ele>259.66666666666663</ele><time>2026-03-22T11:12:33.161Z</time></trkpt><trkpt lat="45.834855" lon="8.697905"><ele>259.3333333333333</ele><time>2026-03-22T11:12:34.16Z</time></trkpt><trkpt lat="45.8348233" lon="8.6978267"><ele>259.0</ele><time>2026-03-22T11:12:35.16Z</time></trkpt><trkpt lat="45.83476" lon="8.6976983"><ele>258.8333333333333</ele><time>2026-03-22T11:12:37.16Z</time></trkpt><trkpt lat="45.8347267" lon="8.697595"><ele>258.66666666666663</ele><time>2026-03-22T11:12:39.161Z</time></trkpt><trkpt lat="45.8346983" lon="8.6974917"><ele>258.5</ele><time>2026-03-22T11:12:41.16Z</time></trkpt><trkpt lat="45.83466" lon="8.697415"><ele>258.3333333333333</ele><time>2026-03-22T11:12:43.16Z</time></trkpt><trkpt lat="45.8346" lon="8.697315"><ele>258.1666666666667</ele><time>2026-03-22T11:12:46.161Z</time></trkpt><trkpt lat="45.8345383" lon="8.6971967"><ele>258.0</ele><time>2026-03-22T11:12:49.16Z</time></trkpt><trkpt lat="45.834475" lon="8.6971117"><ele>258.0</ele><time>2026-03-22T11:12:51.16Z</time></trkpt><trkpt lat="45.8344217" lon="8.6970583"><ele>258.0</ele><time>2026-03-22T11:12:53.16Z</time></trkpt><trkpt lat="45.8343567" lon="8.6969867"><ele>258.0</ele><time>2026-03-22T11:12:55.16Z</time></trkpt><trkpt lat="45.8342667" lon="8.6969333"><ele>258.0</ele><time>2026-03-22T11:12:57.16Z</time></trkpt><trkpt lat="45.8341733" lon="8.696895"><ele>258.0</ele><time>2026-03-22T11:12:59.16Z</time></trkpt><trkpt lat="45.83411" lon="8.6968767"><ele>258.0</ele><time>2026-03-22T11:13:00.16Z</time></trkpt><trkpt lat="45.8340233" lon="8.696845"><ele>258.0</ele><time>2026-03-22T11:13:01.16Z</time></trkpt><trkpt lat="45.833945" lon="8.69682"><ele>258.0</ele><time>2026-03-22T11:13:02.161Z</time></trkpt><trkpt lat="45.83387" lon="8.6967967"><ele>258.0</ele><time>2026-03-22T11:13:03.16Z</time></trkpt><trkpt lat="45.8337917" lon="8.6967733"><ele>258.0</ele><time>2026-03-22T11:13:04.16Z</time></trkpt><trkpt lat="45.8337183" lon="8.6967583"><ele>258.0</ele><time>2026-03-22T11:13:05.161Z</time></trkpt><trkpt lat="45.8336383" lon="8.6967333"><ele>258.0</ele><time>2026-03-22T11:13:06.161Z</time></trkpt><trkpt lat="45.8335617" lon="8.6967167"><ele>258.0</ele><time>2026-03-22T11:13:07.161Z</time></trkpt><trkpt lat="45.8334867" lon="8.69669"><ele>258.0</ele><time>2026-03-22T11:13:08.16Z</time></trkpt><trkpt lat="45.833405" lon="8.6966733"><ele>258.0</ele><time>2026-03-22T11:13:09.16Z</time></trkpt><trkpt lat="45.8333233" lon="8.6966617"><ele>258.0</ele><time>2026-03-22T11:13:10.161Z</time></trkpt><trkpt lat="45.8332483" lon="8.6966667"><ele>258.0</ele><time>2026-03-22T11:13:11.16Z</time></trkpt><trkpt lat="45.8331433" lon="8.6966667"><ele>258.0</ele><time>2026-03-22T11:13:12.16Z</time></trkpt><trkpt lat="45.8330367" lon="8.6966783"><ele>258.0</ele><time>2026-03-22T11:13:13.16Z</time></trkpt><trkpt lat="45.8329433" lon="8.69669"><ele>258.0</ele><time>2026-03-22T11:13:14.16Z</time></trkpt><trkpt lat="45.8328433" lon="8.6966733"><ele>258.0</ele><time>2026-03-22T11:13:15.161Z</time></trkpt><trkpt lat="45.8327567" lon="8.6966683"><ele>258.0</ele><time>2026-03-22T11:13:16.16Z</time></trkpt><trkpt lat="45.83266" lon="8.6966867"><ele>258.0</ele><time>2026-03-22T11:13:17.161Z</time></trkpt><trkpt lat="45.8325617" lon="8.6967183"><ele>257.2</ele><time>2026-03-22T11:13:18.161Z</time></trkpt><trkpt lat="45.8324717" lon="8.6967517"><ele>256.4</ele><time>2026-03-22T11:13:19.16Z</time></trkpt><trkpt lat="45.8323783" lon="8.69677"><ele>255.59999999999997</ele><time>2026-03-22T11:13:20.16Z</time></trkpt><trkpt lat="45.8322767" lon="8.696765"><ele>254.79999999999998</ele><time>2026-03-22T11:13:21.16Z</time></trkpt><trkpt lat="45.8321767" lon="8.696755"><ele>254.0</ele><time>2026-03-22T11:13:22.16Z</time></trkpt><trkpt lat="45.83207" lon="8.696705"><ele>254.0</ele><time>2026-03-22T11:13:23.16Z</time></trkpt><trkpt lat="45.8319583" lon="8.6966333"><ele>254.0</ele><time>2026-03-22T11:13:24.16Z</time></trkpt><trkpt lat="45.8318383" lon="8.6965683"><ele>254.0</ele><time>2026-03-22T11:13:25.16Z</time></trkpt><trkpt lat="45.8317133" lon="8.69654"><ele>254.0</ele><time>2026-03-22T11:13:26.16Z</time></trkpt><trkpt lat="45.8315767" lon="8.69653"><ele>253.25</ele><time>2026-03-22T11:13:27.16Z</time></trkpt><trkpt lat="45.8314317" lon="8.6965283"><ele>252.5</ele><time>2026-03-22T11:13:28.161Z</time></trkpt><trkpt lat="45.8312983" lon="8.6965117"><ele>251.75</ele><time>2026-03-22T11:13:29.16Z</time></trkpt><trkpt lat="45.8311717" lon="8.6964833"><ele>251.0</ele><time>2026-03-22T11:13:30.16Z</time></trkpt><trkpt lat="45.83105" lon="8.696435"><ele>249.5</ele><time>2026-03-22T11:13:31.16Z</time></trkpt><trkpt lat="45.830935" lon="8.6963833"><ele>248.0</ele><time>2026-03-22T11:13:32.16Z</time></trkpt><trkpt lat="45.8308267" lon="8.69632"><ele>246.5</ele><time>2026-03-22T11:13:33.16Z</time></trkpt><trkpt lat="45.8307217" lon="8.6962217"><ele>245.0</ele><time>2026-03-22T11:13:34.16Z</time></trkpt><trkpt lat="45.8306167" lon="8.6961067"><ele>247.0</ele><time>2026-03-22T11:13:35.16Z</time></trkpt><trkpt lat="45.8305083" lon="8.6959683"><ele>249.0</ele><time>2026-03-22T11:13:36.16Z</time></trkpt><trkpt lat="45.8303883" lon="8.69583"><ele>251.0</ele><time>2026-03-22T11:13:37.16Z</time></trkpt><trkpt lat="45.83027" lon="8.695685"><ele>251.0</ele><time>2026-03-22T11:13:38.16Z</time></trkpt><trkpt lat="45.8301633" lon="8.6955367"><ele>251.0</ele><time>2026-03-22T11:13:39.16Z</time></trkpt><trkpt lat="45.8300633" lon="8.6953967"><ele>251.0</ele><time>2026-03-22T11:13:40.161Z</time></trkpt><trkpt lat="45.8299767" lon="8.6952533"><ele>251.0</ele><time>2026-03-22T11:13:41.16Z</time></trkpt><trkpt lat="45.8299" lon="8.6951083"><ele>250.75</ele><time>2026-03-22T11:13:42.16Z</time></trkpt><trkpt lat="45.829825" lon="8.694975"><ele>250.5</ele><time>2026-03-22T11:13:43.16Z</time></trkpt><trkpt lat="45.8297617" lon="8.6948233"><ele>250.25</ele><time>2026-03-22T11:13:44.16Z</time></trkpt><trkpt lat="45.8297167" lon="8.6946583"><ele>250.0</ele><time>2026-03-22T11:13:45.16Z</time></trkpt><trkpt lat="45.829675" lon="8.6944867"><ele>251.0</ele><time>2026-03-22T11:13:46.16Z</time></trkpt><trkpt lat="45.82962" lon="8.6943167"><ele>252.0</ele><time>2026-03-22T11:13:47.16Z</time></trkpt><trkpt lat="45.8295517" lon="8.6941667"><ele>253.0</ele><time>2026-03-22T11:13:48.16Z</time></trkpt><trkpt lat="45.8294617" lon="8.694025"><ele>254.0</ele><time>2026-03-22T11:13:49.16Z</time></trkpt><trkpt lat="45.8293717" lon="8.6939017"><ele>253.75</ele><time>2026-03-22T11:13:50.16Z</time></trkpt><trkpt lat="45.8292767" lon="8.693805"><ele>253.5</ele><time>2026-03-22T11:13:51.16Z</time></trkpt><trkpt lat="45.8291617" lon="8.6937483"><ele>253.25</ele><time>2026-03-22T11:13:52.16Z</time></trkpt><trkpt lat="45.8290367" lon="8.6937117"><ele>253.0</ele><time>2026-03-22T11:13:53.16Z</time></trkpt><trkpt lat="45.8289167" lon="8.6936517"><ele>253.0</ele><time>2026-03-22T11:13:54.161Z</time></trkpt><trkpt lat="45.828795" lon="8.693605"><ele>253.0</ele><time>2026-03-22T11:13:55.16Z</time></trkpt><trkpt lat="45.82868" lon="8.6935717"><ele>253.0</ele><time>2026-03-22T11:13:56.16Z</time></trkpt><trkpt lat="45.8285517" lon="8.6935783"><ele>253.0</ele><time>2026-03-22T11:13:57.16Z</time></trkpt><trkpt lat="45.82841" lon="8.6936133"><ele>252.66666666666666</ele><time>2026-03-22T11:13:58.16Z</time></trkpt><trkpt lat="45.8282617" lon="8.69365"><ele>252.33333333333331</ele><time>2026-03-22T11:13:59.16Z</time></trkpt><trkpt lat="45.828095" lon="8.6936667"><ele>252.0</ele><time>2026-03-22T11:14:00.16Z</time></trkpt><trkpt lat="45.8279283" lon="8.6936583"><ele>252.0</ele><time>2026-03-22T11:14:01.161Z</time></trkpt><trkpt lat="45.8277667" lon="8.6936383"><ele>252.0</ele><time>2026-03-22T11:14:02.16Z</time></trkpt><trkpt lat="45.8276117" lon="8.6936233"><ele>252.0</ele><time>2026-03-22T11:14:03.16Z</time></trkpt><trkpt lat="45.8274633" lon="8.6935983"><ele>258.6666666666667</ele><time>2026-03-22T11:14:04.16Z</time></trkpt><trkpt lat="45.8273183" lon="8.69357"><ele>265.33333333333337</ele><time>2026-03-22T11:14:05.16Z</time></trkpt><trkpt lat="45.8271633" lon="8.6935617"><ele>272.0</ele><time>2026-03-22T11:14:06.161Z</time></trkpt><trkpt lat="45.827015" lon="8.6935667"><ele>272.0</ele><time>2026-03-22T11:14:07.16Z</time></trkpt><trkpt lat="45.8268717" lon="8.6935667"><ele>272.0</ele><time>2026-03-22T11:14:08.16Z</time></trkpt><trkpt lat="45.8267267" lon="8.6935683"><ele>272.0</ele><time>2026-03-22T11:14:09.16Z</time></trkpt><trkpt lat="45.826585" lon="8.6935733"><ele>272.0</ele><time>2026-03-22T11:14:10.161Z</time></trkpt><trkpt lat="45.82643" lon="8.6935883"><ele>271.5</ele><time>2026-03-22T11:14:11.16Z</time></trkpt><trkpt lat="45.8262833" lon="8.6936067"><ele>271.0</ele><time>2026-03-22T11:14:12.161Z</time></trkpt><trkpt lat="45.8261383" lon="8.6936267"><ele>270.5</ele><time>2026-03-22T11:14:13.16Z</time></trkpt><trkpt lat="45.82601" lon="8.693635"><ele>270.0</ele><time>2026-03-22T11:14:14.16Z</time></trkpt><trkpt lat="45.8258983" lon="8.6936333"><ele>270.0</ele><time>2026-03-22T11:14:15.16Z</time></trkpt><trkpt lat="45.8258067" lon="8.693615"><ele>270.0</ele><time>2026-03-22T11:14:16.16Z</time></trkpt><trkpt lat="45.8257283" lon="8.6935667"><ele>270.0</ele><time>2026-03-22T11:14:17.161Z</time></trkpt><trkpt lat="45.825685" lon="8.69348"><ele>270.0</ele><time>2026-03-22T11:14:18.16Z</time></trkpt><trkpt lat="45.8256933" lon="8.6933517"><ele>270.0</ele><time>2026-03-22T11:14:19.16Z</time></trkpt><trkpt lat="45.8257083" lon="8.69321"><ele>270.0</ele><time>2026-03-22T11:14:20.161Z</time></trkpt><trkpt lat="45.8257417" lon="8.6930483"><ele>272.75</ele><time>2026-03-22T11:14:21.16Z</time></trkpt><trkpt lat="45.8257667" lon="8.69288"><ele>275.5</ele><time>2026-03-22T11:14:22.161Z</time></trkpt><trkpt lat="45.8257817" lon="8.692715"><ele>278.25</ele><time>2026-03-22T11:14:23.161Z</time></trkpt><trkpt lat="45.8257833" lon="8.6925483"><ele>281.0</ele><time>2026-03-22T11:14:24.16Z</time></trkpt><trkpt lat="45.8257817" lon="8.6923833"><ele>283.5</ele><time>2026-03-22T11:14:25.161Z</time></trkpt><trkpt lat="45.8257767" lon="8.69222"><ele>286.0</ele><time>2026-03-22T11:14:26.16Z</time></trkpt><trkpt lat="45.8257717" lon="8.6920483"><ele>288.5</ele><time>2026-03-22T11:14:27.161Z</time></trkpt><trkpt lat="45.8257717" lon="8.6918767"><ele>291.0</ele><time>2026-03-22T11:14:28.16Z</time></trkpt><trkpt lat="45.8257683" lon="8.6917083"><ele>291.0</ele><time>2026-03-22T11:14:29.161Z</time></trkpt><trkpt lat="45.825775" lon="8.6915417"><ele>291.0</ele><time>2026-03-22T11:14:30.16Z</time></trkpt><trkpt lat="45.82579" lon="8.6913833"><ele>291.0</ele><time>2026-03-22T11:14:31.16Z</time></trkpt><trkpt lat="45.8258183" lon="8.6912317"><ele>291.0</ele><time>2026-03-22T11:14:32.16Z</time></trkpt><trkpt lat="45.8258383" lon="8.6910883"><ele>291.0</ele><time>2026-03-22T11:14:33.16Z</time></trkpt><trkpt lat="45.8258433" lon="8.69094"><ele>291.40000000000003</ele><time>2026-03-22T11:14:34.16Z</time></trkpt><trkpt lat="45.8258267" lon="8.6907867"><ele>291.8</ele><time>2026-03-22T11:14:35.161Z</time></trkpt><trkpt lat="45.8257833" lon="8.6906267"><ele>292.20000000000005</ele><time>2026-03-22T11:14:36.161Z</time></trkpt><trkpt lat="45.8257317" lon="8.6904833"><ele>292.6</ele><time>2026-03-22T11:14:37.16Z</time></trkpt><trkpt lat="45.825675" lon="8.690365"><ele>293.0</ele><time>2026-03-22T11:14:38.16Z</time></trkpt><trkpt lat="45.82561" lon="8.6902817"><ele>293.0</ele><time>2026-03-22T11:14:39.16Z</time></trkpt><trkpt lat="45.8255483" lon="8.6902167"><ele>293.0</ele><time>2026-03-22T11:14:40.161Z</time></trkpt><trkpt lat="45.82549" lon="8.6901817"><ele>293.0</ele><time>2026-03-22T11:14:41.16Z</time></trkpt><trkpt lat="45.8254033" lon="8.6901517"><ele>293.0</ele><time>2026-03-22T11:14:43.161Z</time></trkpt><trkpt lat="45.8253283" lon="8.69022"><ele>293.0</ele><time>2026-03-22T11:14:45.16Z</time></trkpt><trkpt lat="45.825275" lon="8.690305"><ele>293.0</ele><time>2026-03-22T11:14:46.16Z</time></trkpt><trkpt lat="45.82521" lon="8.6904167"><ele>293.0</ele><time>2026-03-22T11:14:47.161Z</time></trkpt><trkpt lat="45.8251567" lon="8.6905383"><ele>293.0</ele><time>2026-03-22T11:14:48.16Z</time></trkpt><trkpt lat="45.825105" lon="8.69065"><ele>293.0</ele><time>2026-03-22T11:14:49.16Z</time></trkpt><trkpt lat="45.8250717" lon="8.69077"><ele>293.0</ele><time>2026-03-22T11:14:50.161Z</time></trkpt><trkpt lat="45.8250267" lon="8.69089"><ele>293.0</ele><time>2026-03-22T11:14:51.161Z</time></trkpt><trkpt lat="45.8249783" lon="8.6909983"><ele>293.5</ele><time>2026-03-22T11:14:52.16Z</time></trkpt><trkpt lat="45.824945" lon="8.6911"><ele>294.0</ele><time>2026-03-22T11:14:53.16Z</time></trkpt><trkpt lat="45.8249117" lon="8.6912"><ele>294.5</ele><time>2026-03-22T11:14:54.161Z</time></trkpt><trkpt lat="45.8248717" lon="8.6913283"><ele>295.0</ele><time>2026-03-22T11:14:55.16Z</time></trkpt><trkpt lat="45.824825" lon="8.69145"><ele>295.5</ele><time>2026-03-22T11:14:56.16Z</time></trkpt><trkpt lat="45.824795" lon="8.69157"><ele>296.0</ele><time>2026-03-22T11:14:57.16Z</time></trkpt><trkpt lat="45.82476" lon="8.6917017"><ele>296.0</ele><time>2026-03-22T11:14:58.16Z</time></trkpt><trkpt lat="45.8247117" lon="8.69179"><ele>296.0</ele><time>2026-03-22T11:14:59.16Z</time></trkpt><trkpt lat="45.82463" lon="8.6918667"><ele>296.0</ele><time>2026-03-22T11:15:00.161Z</time></trkpt><trkpt lat="45.8245633" lon="8.6919483"><ele>296.0</ele><time>2026-03-22T11:15:01.16Z</time></trkpt><trkpt lat="45.824505" lon="8.6920283"><ele>296.0</ele><time>2026-03-22T11:15:02.16Z</time></trkpt><trkpt lat="45.824455" lon="8.6921133"><ele>296.0</ele><time>2026-03-22T11:15:03.16Z</time></trkpt><trkpt lat="45.8244083" lon="8.6922017"><ele>295.5</ele><time>2026-03-22T11:15:04.16Z</time></trkpt><trkpt lat="45.8243567" lon="8.6922917"><ele>295.0</ele><time>2026-03-22T11:15:05.161Z</time></trkpt><trkpt lat="45.82431" lon="8.6923783"><ele>294.5</ele><time>2026-03-22T11:15:06.161Z</time></trkpt><trkpt lat="45.8242633" lon="8.6924583"><ele>294.0</ele><time>2026-03-22T11:15:07.161Z</time></trkpt><trkpt lat="45.8241767" lon="8.692515"><ele>293.5</ele><time>2026-03-22T11:15:09.16Z</time></trkpt><trkpt lat="45.824115" lon="8.692465"><ele>293.0</ele><time>2026-03-22T11:15:10.161Z</time></trkpt><trkpt lat="45.824045" lon="8.69238"><ele>292.4</ele><time>2026-03-22T11:15:11.16Z</time></trkpt><trkpt lat="45.823955" lon="8.6922967"><ele>291.8</ele><time>2026-03-22T11:15:12.16Z</time></trkpt><trkpt lat="45.823865" lon="8.6922183"><ele>291.2</ele><time>2026-03-22T11:15:13.16Z</time></trkpt><trkpt lat="45.8237733" lon="8.6921383"><ele>290.6</ele><time>2026-03-22T11:15:14.16Z</time></trkpt><trkpt lat="45.823695" lon="8.6920533"><ele>290.0</ele><time>2026-03-22T11:15:15.16Z</time></trkpt><trkpt lat="45.8236267" lon="8.6919583"><ele>290.2</ele><time>2026-03-22T11:15:16.16Z</time></trkpt><trkpt lat="45.82356" lon="8.6918617"><ele>290.4</ele><time>2026-03-22T11:15:17.161Z</time></trkpt><trkpt lat="45.8234867" lon="8.6917783"><ele>290.6</ele><time>2026-03-22T11:15:18.16Z</time></trkpt><trkpt lat="45.8233933" lon="8.691735"><ele>290.8</ele><time>2026-03-22T11:15:19.16Z</time></trkpt><trkpt lat="45.8232667" lon="8.691725"><ele>291.0</ele><time>2026-03-22T11:15:20.161Z</time></trkpt><trkpt lat="45.8231267" lon="8.6917133"><ele>287.75</ele><time>2026-03-22T11:15:21.161Z</time></trkpt><trkpt lat="45.82299" lon="8.6917"><ele>284.5</ele><time>2026-03-22T11:15:22.16Z</time></trkpt><trkpt lat="45.8228267" lon="8.6916783"><ele>281.25</ele><time>2026-03-22T11:15:23.16Z</time></trkpt><trkpt lat="45.8226883" lon="8.6916667"><ele>278.0</ele><time>2026-03-22T11:15:24.16Z</time></trkpt><trkpt lat="45.8225683" lon="8.6916367"><ele>276.4</ele><time>2026-03-22T11:15:25.16Z</time></trkpt><trkpt lat="45.8224633" lon="8.6915867"><ele>274.8</ele><time>2026-03-22T11:15:26.16Z</time></trkpt><trkpt lat="45.8223617" lon="8.691515"><ele>273.2</ele><time>2026-03-22T11:15:27.161Z</time></trkpt><trkpt lat="45.8222633" lon="8.69143"><ele>271.6</ele><time>2026-03-22T11:15:28.16Z</time></trkpt><trkpt lat="45.822175" lon="8.6913667"><ele>270.0</ele><time>2026-03-22T11:15:29.16Z</time></trkpt><trkpt lat="45.822085" lon="8.691315"><ele>270.0</ele><time>2026-03-22T11:15:30.161Z</time></trkpt><trkpt lat="45.822" lon="8.6912733"><ele>270.0</ele><time>2026-03-22T11:15:31.16Z</time></trkpt><trkpt lat="45.8219283" lon="8.6912483"><ele>270.0</ele><time>2026-03-22T11:15:32.161Z</time></trkpt><trkpt lat="45.8218583" lon="8.6912367"><ele>270.0</ele><time>2026-03-22T11:15:33.16Z</time></trkpt><trkpt lat="45.8217567" lon="8.6912367"><ele>270.0</ele><time>2026-03-22T11:15:35.161Z</time></trkpt><trkpt lat="45.8216417" lon="8.6913117"><ele>268.8333333333333</ele><time>2026-03-22T11:15:37.16Z</time></trkpt><trkpt lat="45.8215867" lon="8.6913883"><ele>267.6666666666667</ele><time>2026-03-22T11:15:38.16Z</time></trkpt><trkpt lat="45.82154" lon="8.6914867"><ele>266.5</ele><time>2026-03-22T11:15:39.16Z</time></trkpt><trkpt lat="45.8215" lon="8.6915967"><ele>265.33333333333337</ele><time>2026-03-22T11:15:40.16Z</time></trkpt><trkpt lat="45.8214633" lon="8.69169"><ele>264.1666666666667</ele><time>2026-03-22T11:15:41.161Z</time></trkpt><trkpt lat="45.8214333" lon="8.6917933"><ele>263.0</ele><time>2026-03-22T11:15:42.16Z</time></trkpt><trkpt lat="45.8214067" lon="8.69188"><ele>263.0</ele><time>2026-03-22T11:15:43.16Z</time></trkpt><trkpt lat="45.8213533" lon="8.692015"><ele>263.0</ele><time>2026-03-22T11:15:45.16Z</time></trkpt><trkpt lat="45.82128" lon="8.692085"><ele>263.0</ele><time>2026-03-22T11:15:47.161Z</time></trkpt><trkpt lat="45.8212417" lon="8.691985"><ele>263.0</ele><time>2026-03-22T11:15:51.16Z</time></trkpt><trkpt lat="45.8212783" lon="8.69183"><ele>263.0</ele><time>2026-03-22T11:15:53.161Z</time></trkpt><trkpt lat="45.82131" lon="8.691695"><ele>263.0</ele><time>2026-03-22T11:15:55.16Z</time></trkpt><trkpt lat="45.82129" lon="8.69157"><ele>263.0</ele><time>2026-03-22T11:15:57.161Z</time></trkpt><trkpt lat="45.82122" lon="8.6914867"><ele>263.0</ele><time>2026-03-22T11:15:59.16Z</time></trkpt><trkpt lat="45.8211233" lon="8.6914433"><ele>263.0</ele><time>2026-03-22T11:16:01.16Z</time></trkpt><trkpt lat="45.8210317" lon="8.6915083"><ele>263.0</ele><time>2026-03-22T11:16:03.16Z</time></trkpt><trkpt lat="45.82099" lon="8.6915883"><ele>262.2</ele><time>2026-03-22T11:16:04.16Z</time></trkpt><trkpt lat="45.8209483" lon="8.6916917"><ele>261.4</ele><time>2026-03-22T11:16:05.161Z</time></trkpt><trkpt lat="45.8209" lon="8.69179"><ele>260.59999999999997</ele><time>2026-03-22T11:16:06.16Z</time></trkpt><trkpt lat="45.8208383" lon="8.6918733"><ele>259.8</ele><time>2026-03-22T11:16:07.16Z</time></trkpt><trkpt lat="45.8207567" lon="8.6919517"><ele>259.0</ele><time>2026-03-22T11:16:08.16Z</time></trkpt><trkpt lat="45.820665" lon="8.6920383"><ele>259.0</ele><time>2026-03-22T11:16:09.16Z</time></trkpt><trkpt lat="45.820575" lon="8.6921467"><ele>259.0</ele><time>2026-03-22T11:16:10.161Z</time></trkpt><trkpt lat="45.8204833" lon="8.692265"><ele>259.0</ele><time>2026-03-22T11:16:11.161Z</time></trkpt><trkpt lat="45.8204033" lon="8.69239"><ele>259.0</ele><time>2026-03-22T11:16:12.16Z</time></trkpt><trkpt lat="45.8203317" lon="8.692525"><ele>259.0</ele><time>2026-03-22T11:16:13.16Z</time></trkpt><trkpt lat="45.8202583" lon="8.6926517"><ele>259.0</ele><time>2026-03-22T11:16:14.161Z</time></trkpt><trkpt lat="45.8201917" lon="8.6927783"><ele>259.0</ele><time>2026-03-22T11:16:15.16Z</time></trkpt><trkpt lat="45.8201167" lon="8.6929283"><ele>259.0</ele><time>2026-03-22T11:16:16.16Z</time></trkpt><trkpt lat="45.8200417" lon="8.6930717"><ele>258.0</ele><time>2026-03-22T11:16:17.161Z</time></trkpt><trkpt lat="45.81998" lon="8.69321"><ele>257.0</ele><time>2026-03-22T11:16:18.16Z</time></trkpt><trkpt lat="45.8199167" lon="8.6933617"><ele>256.0</ele><time>2026-03-22T11:16:19.161Z</time></trkpt><trkpt lat="45.819845" lon="8.6935283"><ele>255.0</ele><time>2026-03-22T11:16:20.16Z</time></trkpt><trkpt lat="45.81978" lon="8.69369"><ele>255.0</ele><time>2026-03-22T11:16:21.16Z</time></trkpt><trkpt lat="45.81972" lon="8.6938467"><ele>255.0</ele><time>2026-03-22T11:16:22.161Z</time></trkpt><trkpt lat="45.81966" lon="8.69398"><ele>255.0</ele><time>2026-03-22T11:16:23.16Z</time></trkpt><trkpt lat="45.819605" lon="8.6941083"><ele>255.0</ele><time>2026-03-22T11:16:24.16Z</time></trkpt><trkpt lat="45.81956" lon="8.6942367"><ele>255.0</ele><time>2026-03-22T11:16:25.161Z</time></trkpt><trkpt lat="45.8195133" lon="8.6943517"><ele>256.4</ele><time>2026-03-22T11:16:26.161Z</time></trkpt><trkpt lat="45.8194667" lon="8.694465"><ele>257.8</ele><time>2026-03-22T11:16:27.16Z</time></trkpt><trkpt lat="45.8194233" lon="8.6945933"><ele>259.2</ele><time>2026-03-22T11:16:28.16Z</time></trkpt><trkpt lat="45.819385" lon="8.69472"><ele>260.6</ele><time>2026-03-22T11:16:29.16Z</time></trkpt><trkpt lat="45.8193417" lon="8.6948417"><ele>262.0</ele><time>2026-03-22T11:16:30.16Z</time></trkpt><trkpt lat="45.819295" lon="8.6949583"><ele>258.8</ele><time>2026-03-22T11:16:31.16Z</time></trkpt><trkpt lat="45.8192383" lon="8.6950583"><ele>255.6</ele><time>2026-03-22T11:16:32.16Z</time></trkpt><trkpt lat="45.819185" lon="8.6951433"><ele>252.40000000000003</ele><time>2026-03-22T11:16:33.16Z</time></trkpt><trkpt lat="45.819105" lon="8.6952683"><ele>249.20000000000002</ele><time>2026-03-22T11:16:35.16Z</time></trkpt><trkpt lat="45.819065" lon="8.6954233"><ele>246.0</ele><time>2026-03-22T11:16:37.16Z</time></trkpt><trkpt lat="45.8190467" lon="8.6955133"><ele>246.0</ele><time>2026-03-22T11:16:38.161Z</time></trkpt><trkpt lat="45.8190233" lon="8.6955983"><ele>246.00000000000003</ele><time>2026-03-22T11:16:39.161Z</time></trkpt><trkpt lat="45.818955" lon="8.695705"><ele>246.00000000000003</ele><time>2026-03-22T11:16:41.16Z</time></trkpt><trkpt lat="45.8188783" lon="8.6957717"><ele>246.0</ele><time>2026-03-22T11:16:43.16Z</time></trkpt><trkpt lat="45.8188283" lon="8.6958817"><ele>246.0</ele><time>2026-03-22T11:16:45.16Z</time></trkpt><trkpt lat="45.8187983" lon="8.696055"><ele>247.0</ele><time>2026-03-22T11:16:47.16Z</time></trkpt><trkpt lat="45.81879" lon="8.696175"><ele>248.0</ele><time>2026-03-22T11:16:48.161Z</time></trkpt><trkpt lat="45.8187883" lon="8.696295"><ele>249.0</ele><time>2026-03-22T11:16:49.16Z</time></trkpt><trkpt lat="45.818775" lon="8.696415"><ele>250.0</ele><time>2026-03-22T11:16:50.161Z</time></trkpt><trkpt lat="45.8187533" lon="8.6965483"><ele>251.0</ele><time>2026-03-22T11:16:51.16Z</time></trkpt><trkpt lat="45.818725" lon="8.6966783"><ele>252.0</ele><time>2026-03-22T11:16:52.161Z</time></trkpt><trkpt lat="45.8187033" lon="8.6968017"><ele>252.83333333333334</ele><time>2026-03-22T11:16:53.16Z</time></trkpt><trkpt lat="45.8186983" lon="8.6969317"><ele>253.66666666666669</ele><time>2026-03-22T11:16:54.161Z</time></trkpt><trkpt lat="45.8186967" lon="8.6970667"><ele>254.5</ele><time>2026-03-22T11:16:55.16Z</time></trkpt><trkpt lat="45.8186933" lon="8.6972"><ele>255.33333333333334</ele><time>2026-03-22T11:16:56.16Z</time></trkpt><trkpt lat="45.81869" lon="8.6973233"><ele>256.1666666666667</ele><time>2026-03-22T11:16:57.16Z</time></trkpt><trkpt lat="45.81867" lon="8.69744"><ele>257.0</ele><time>2026-03-22T11:16:58.16Z</time></trkpt><trkpt lat="45.8186517" lon="8.6975867"><ele>257.0</ele><time>2026-03-22T11:16:59.161Z</time></trkpt><trkpt lat="45.8186167" lon="8.6977167"><ele>257.0</ele><time>2026-03-22T11:17:00.16Z</time></trkpt><trkpt lat="45.818595" lon="8.6978583"><ele>257.0</ele><time>2026-03-22T11:17:01.16Z</time></trkpt><trkpt lat="45.8185817" lon="8.6980133"><ele>257.0</ele><time>2026-03-22T11:17:02.16Z</time></trkpt><trkpt lat="45.81859" lon="8.698205"><ele>257.0</ele><time>2026-03-22T11:17:03.16Z</time></trkpt><trkpt lat="45.818595" lon="8.698385"><ele>257.0</ele><time>2026-03-22T11:17:04.161Z</time></trkpt><trkpt lat="45.818605" lon="8.69854"><ele>257.0</ele><time>2026-03-22T11:17:05.16Z</time></trkpt><trkpt lat="45.818595" lon="8.69867"><ele>257.0</ele><time>2026-03-22T11:17:06.16Z</time></trkpt><trkpt lat="45.8185733" lon="8.6988217"><ele>257.0</ele><time>2026-03-22T11:17:07.16Z</time></trkpt><trkpt lat="45.8185433" lon="8.6989867"><ele>257.0</ele><time>2026-03-22T11:17:08.16Z</time></trkpt><trkpt lat="45.8185133" lon="8.6991467"><ele>254.75</ele><time>2026-03-22T11:17:09.161Z</time></trkpt><trkpt lat="45.8184833" lon="8.6993033"><ele>252.5</ele><time>2026-03-22T11:17:10.161Z</time></trkpt><trkpt lat="45.81845" lon="8.699475"><ele>250.25</ele><time>2026-03-22T11:17:11.16Z</time></trkpt><trkpt lat="45.8184117" lon="8.6996533"><ele>248.0</ele><time>2026-03-22T11:17:12.161Z</time></trkpt><trkpt lat="45.8183767" lon="8.6998083"><ele>248.00000000000003</ele><time>2026-03-22T11:17:13.16Z</time></trkpt><trkpt lat="45.8183483" lon="8.6999533"><ele>248.0</ele><time>2026-03-22T11:17:14.161Z</time></trkpt><trkpt lat="45.8183283" lon="8.7000767"><ele>248.0</ele><time>2026-03-22T11:17:15.161Z</time></trkpt><trkpt lat="45.818315" lon="8.70018"><ele>248.0</ele><time>2026-03-22T11:17:16.16Z</time></trkpt><trkpt lat="45.8183067" lon="8.7002733"><ele>248.00000000000003</ele><time>2026-03-22T11:17:17.16Z</time></trkpt><trkpt lat="45.818315" lon="8.7003767"><ele>248.0</ele><time>2026-03-22T11:17:18.16Z</time></trkpt><trkpt lat="45.8183183" lon="8.7004917"><ele>248.2</ele><time>2026-03-22T11:17:19.161Z</time></trkpt><trkpt lat="45.8183117" lon="8.7006083"><ele>248.4</ele><time>2026-03-22T11:17:20.16Z</time></trkpt><trkpt lat="45.81831" lon="8.7007367"><ele>248.59999999999997</ele><time>2026-03-22T11:17:22.16Z</time></trkpt><trkpt lat="45.81822" lon="8.70077"><ele>248.79999999999998</ele><time>2026-03-22T11:17:25.16Z</time></trkpt><trkpt lat="45.8181033" lon="8.700725"><ele>249.0</ele><time>2026-03-22T11:17:27.161Z</time></trkpt><trkpt lat="45.8179767" lon="8.700675"><ele>249.0</ele><time>2026-03-22T11:17:29.16Z</time></trkpt><trkpt lat="45.8178733" lon="8.7006067"><ele>249.0</ele><time>2026-03-22T11:17:31.161Z</time></trkpt><trkpt lat="45.8178233" lon="8.70055"><ele>249.0</ele><time>2026-03-22T11:17:32.16Z</time></trkpt><trkpt lat="45.81776" lon="8.7004883"><ele>249.0</ele><time>2026-03-22T11:17:33.16Z</time></trkpt><trkpt lat="45.8176883" lon="8.7004283"><ele>249.0</ele><time>2026-03-22T11:17:34.161Z</time></trkpt><trkpt lat="45.817615" lon="8.7003483"><ele>249.0</ele><time>2026-03-22T11:17:35.16Z</time></trkpt><trkpt lat="45.817545" lon="8.7002717"><ele>248.0</ele><time>2026-03-22T11:17:36.161Z</time></trkpt><trkpt lat="45.81749" lon="8.700205"><ele>246.99999999999997</ele><time>2026-03-22T11:17:37.16Z</time></trkpt><trkpt lat="45.8174067" lon="8.7000983"><ele>245.99999999999997</ele><time>2026-03-22T11:17:39.16Z</time></trkpt><trkpt lat="45.8173367" lon="8.700005"><ele>245.0</ele><time>2026-03-22T11:17:41.16Z</time></trkpt><trkpt lat="45.81725" lon="8.6999817"><ele>244.0</ele><time>2026-03-22T11:17:43.16Z</time></trkpt><trkpt lat="45.8171467" lon="8.6999917"><ele>244.0</ele><time>2026-03-22T11:17:45.16Z</time></trkpt><trkpt lat="45.8170667" lon="8.7000017"><ele>243.99999999999997</ele><time>2026-03-22T11:17:46.161Z</time></trkpt><trkpt lat="45.8169633" lon="8.7000233"><ele>243.99999999999997</ele><time>2026-03-22T11:17:47.161Z</time></trkpt><trkpt lat="45.8168383" lon="8.70004"><ele>244.0</ele><time>2026-03-22T11:17:48.16Z</time></trkpt><trkpt lat="45.8167133" lon="8.7000667"><ele>244.0</ele><time>2026-03-22T11:17:49.16Z</time></trkpt><trkpt lat="45.8166067" lon="8.700085"><ele>245.2</ele><time>2026-03-22T11:17:50.16Z</time></trkpt><trkpt lat="45.8164817" lon="8.7000983"><ele>246.39999999999998</ele><time>2026-03-22T11:17:51.16Z</time></trkpt><trkpt lat="45.8163667" lon="8.7001017"><ele>247.6</ele><time>2026-03-22T11:17:52.16Z</time></trkpt><trkpt lat="45.8162633" lon="8.7001117"><ele>248.8</ele><time>2026-03-22T11:17:53.16Z</time></trkpt><trkpt lat="45.8161717" lon="8.7001417"><ele>250.0</ele><time>2026-03-22T11:17:54.16Z</time></trkpt><trkpt lat="45.81608" lon="8.7001733"><ele>250.0</ele><time>2026-03-22T11:17:55.16Z</time></trkpt><trkpt lat="45.8159967" lon="8.7002083"><ele>250.0</ele><time>2026-03-22T11:17:56.16Z</time></trkpt><trkpt lat="45.8159333" lon="8.700215"><ele>250.0</ele><time>2026-03-22T11:17:57.16Z</time></trkpt><trkpt lat="45.815865" lon="8.7002533"><ele>250.0</ele><time>2026-03-22T11:17:59.161Z</time></trkpt><trkpt lat="45.815775" lon="8.7003683"><ele>250.0</ele><time>2026-03-22T11:18:05.16Z</time></trkpt><trkpt lat="45.8156617" lon="8.7004667"><ele>250.49999999999997</ele><time>2026-03-22T11:18:07.16Z</time></trkpt><trkpt lat="45.8156133" lon="8.70053"><ele>251.0</ele><time>2026-03-22T11:18:08.16Z</time></trkpt><trkpt lat="45.8155667" lon="8.7006217"><ele>251.5</ele><time>2026-03-22T11:18:09.16Z</time></trkpt><trkpt lat="45.8155233" lon="8.7007133"><ele>252.0</ele><time>2026-03-22T11:18:10.16Z</time></trkpt><trkpt lat="45.8154783" lon="8.7007933"><ele>252.49999999999997</ele><time>2026-03-22T11:18:11.161Z</time></trkpt><trkpt lat="45.8154167" lon="8.70085"><ele>253.0</ele><time>2026-03-22T11:18:12.16Z</time></trkpt><trkpt lat="45.81533" lon="8.7009033"><ele>253.0</ele><time>2026-03-22T11:18:13.161Z</time></trkpt><trkpt lat="45.8152383" lon="8.7009717"><ele>253.0</ele><time>2026-03-22T11:18:14.16Z</time></trkpt><trkpt lat="45.81515" lon="8.7010467"><ele>253.0</ele><time>2026-03-22T11:18:15.161Z</time></trkpt><trkpt lat="45.81508" lon="8.70115"><ele>253.0</ele><time>2026-03-22T11:18:16.16Z</time></trkpt><trkpt lat="45.81501" lon="8.701275"><ele>253.0</ele><time>2026-03-22T11:18:17.16Z</time></trkpt><trkpt lat="45.814965" lon="8.701395"><ele>252.33333333333331</ele><time>2026-03-22T11:18:18.16Z</time></trkpt><trkpt lat="45.814935" lon="8.7014883"><ele>251.66666666666666</ele><time>2026-03-22T11:18:19.16Z</time></trkpt><trkpt lat="45.814905" lon="8.701575"><ele>251.0</ele><time>2026-03-22T11:18:20.16Z</time></trkpt><trkpt lat="45.8148717" lon="8.7016617"><ele>250.33333333333331</ele><time>2026-03-22T11:18:21.16Z</time></trkpt><trkpt lat="45.8148367" lon="8.70178"><ele>249.66666666666666</ele><time>2026-03-22T11:18:23.16Z</time></trkpt><trkpt lat="45.81476" lon="8.7017667"><ele>249.0</ele><time>2026-03-22T11:18:35.161Z</time></trkpt><trkpt lat="45.8146983" lon="8.7018367"><ele>249.6</ele><time>2026-03-22T11:18:37.16Z</time></trkpt><trkpt lat="45.81463" lon="8.7019317"><ele>250.2</ele><time>2026-03-22T11:18:39.16Z</time></trkpt><trkpt lat="45.8145533" lon="8.7020617"><ele>250.79999999999998</ele><time>2026-03-22T11:18:41.16Z</time></trkpt><trkpt lat="45.8145033" lon="8.7021567"><ele>251.39999999999998</ele><time>2026-03-22T11:18:42.16Z</time></trkpt><trkpt lat="45.8144533" lon="8.7022617"><ele>252.0</ele><time>2026-03-22T11:18:43.16Z</time></trkpt><trkpt lat="45.8144083" lon="8.70237"><ele>252.0</ele><time>2026-03-22T11:18:44.161Z</time></trkpt><trkpt lat="45.8143667" lon="8.70249"><ele>252.0</ele><time>2026-03-22T11:18:45.16Z</time></trkpt><trkpt lat="45.8143267" lon="8.702605"><ele>252.0</ele><time>2026-03-22T11:18:46.16Z</time></trkpt><trkpt lat="45.814295" lon="8.7027117"><ele>252.0</ele><time>2026-03-22T11:18:47.16Z</time></trkpt><trkpt lat="45.814265" lon="8.702825"><ele>252.0</ele><time>2026-03-22T11:18:48.16Z</time></trkpt><trkpt lat="45.8142283" lon="8.7029567"><ele>252.0</ele><time>2026-03-22T11:18:49.16Z</time></trkpt><trkpt lat="45.8141867" lon="8.7030883"><ele>252.0</ele><time>2026-03-22T11:18:50.16Z</time></trkpt><trkpt lat="45.8141533" lon="8.70322"><ele>252.0</ele><time>2026-03-22T11:18:51.161Z</time></trkpt><trkpt lat="45.8141283" lon="8.7033433"><ele>252.0</ele><time>2026-03-22T11:18:52.16Z</time></trkpt><trkpt lat="45.8141083" lon="8.7034517"><ele>252.0</ele><time>2026-03-22T11:18:53.16Z</time></trkpt><trkpt lat="45.8140833" lon="8.7035633"><ele>252.0</ele><time>2026-03-22T11:18:54.16Z</time></trkpt><trkpt lat="45.8140633" lon="8.7036717"><ele>252.0</ele><time>2026-03-22T11:18:55.16Z</time></trkpt><trkpt lat="45.8140383" lon="8.7037567"><ele>252.66666666666666</ele><time>2026-03-22T11:18:56.16Z</time></trkpt><trkpt lat="45.813975" lon="8.703915"><ele>253.33333333333331</ele><time>2026-03-22T11:18:58.161Z</time></trkpt><trkpt lat="45.8139433" lon="8.7039933"><ele>254.0</ele><time>2026-03-22T11:18:59.16Z</time></trkpt><trkpt lat="45.813875" lon="8.704095"><ele>254.66666666666666</ele><time>2026-03-22T11:19:01.16Z</time></trkpt><trkpt lat="45.8138217" lon="8.704165"><ele>255.33333333333331</ele><time>2026-03-22T11:19:03.16Z</time></trkpt><trkpt lat="45.813775" lon="8.704245"><ele>256.0</ele><time>2026-03-22T11:19:05.16Z</time></trkpt><trkpt lat="45.8137217" lon="8.7043617"><ele>257.0</ele><time>2026-03-22T11:19:07.161Z</time></trkpt><trkpt lat="45.8136633" lon="8.704485"><ele>258.0</ele><time>2026-03-22T11:19:09.16Z</time></trkpt><trkpt lat="45.8136217" lon="8.7045533"><ele>259.0</ele><time>2026-03-22T11:19:10.16Z</time></trkpt><trkpt lat="45.8135533" lon="8.70468"><ele>260.0</ele><time>2026-03-22T11:19:12.16Z</time></trkpt><trkpt lat="45.8135167" lon="8.7047917"><ele>261.0</ele><time>2026-03-22T11:19:14.161Z</time></trkpt><trkpt lat="45.8134917" lon="8.70491"><ele>260.0</ele><time>2026-03-22T11:19:16.16Z</time></trkpt><trkpt lat="45.81348" lon="8.7050467"><ele>259.0</ele><time>2026-03-22T11:19:18.161Z</time></trkpt><trkpt lat="45.8134567" lon="8.7051533"><ele>258.0</ele><time>2026-03-22T11:19:20.161Z</time></trkpt><trkpt lat="45.8134" lon="8.7052583"><ele>257.0</ele><time>2026-03-22T11:19:22.16Z</time></trkpt><trkpt lat="45.8133517" lon="8.7053233"><ele>256.0</ele><time>2026-03-22T11:19:23.16Z</time></trkpt><trkpt lat="45.81329" lon="8.705385"><ele>255.0</ele><time>2026-03-22T11:19:24.161Z</time></trkpt><trkpt lat="45.8132233" lon="8.705455"><ele>255.0</ele><time>2026-03-22T11:19:25.16Z</time></trkpt><trkpt lat="45.8131583" lon="8.7055267"><ele>255.0</ele><time>2026-03-22T11:19:26.16Z</time></trkpt><trkpt lat="45.8130983" lon="8.7056033"><ele>255.0</ele><time>2026-03-22T11:19:27.16Z</time></trkpt><trkpt lat="45.813045" lon="8.7056783"><ele>255.0</ele><time>2026-03-22T11:19:28.161Z</time></trkpt><trkpt lat="45.8129983" lon="8.7057467"><ele>255.0</ele><time>2026-03-22T11:19:29.161Z</time></trkpt><trkpt lat="45.81294" lon="8.70584"><ele>255.0</ele><time>2026-03-22T11:19:31.16Z</time></trkpt><trkpt lat="45.81292" lon="8.7059317"><ele>255.0</ele><time>2026-03-22T11:19:33.16Z</time></trkpt><trkpt lat="45.8129283" lon="8.7060217"><ele>255.0</ele><time>2026-03-22T11:19:36.161Z</time></trkpt><trkpt lat="45.8128667" lon="8.70607"><ele>255.0</ele><time>2026-03-22T11:19:40.16Z</time></trkpt><trkpt lat="45.8128017" lon="8.70611"><ele>255.0</ele><time>2026-03-22T11:19:42.16Z</time></trkpt><trkpt lat="45.8126867" lon="8.7062"><ele>255.0</ele><time>2026-03-22T11:19:44.161Z</time></trkpt><trkpt lat="45.81263" lon="8.70624"><ele>255.0</ele><time>2026-03-22T11:19:45.16Z</time></trkpt><trkpt lat="45.8125517" lon="8.7062633"><ele>256.0</ele><time>2026-03-22T11:19:47.16Z</time></trkpt><trkpt lat="45.8124867" lon="8.7061833"><ele>257.0</ele><time>2026-03-22T11:19:50.16Z</time></trkpt><trkpt lat="45.8124333" lon="8.706115"><ele>258.0</ele><time>2026-03-22T11:19:53.16Z</time></trkpt><trkpt lat="45.8123767" lon="8.7061567"><ele>259.0</ele><time>2026-03-22T11:19:55.16Z</time></trkpt><trkpt lat="45.8123567" lon="8.7062533"><ele>260.0</ele><time>2026-03-22T11:19:57.161Z</time></trkpt><trkpt lat="45.8123417" lon="8.7063883"><ele>261.0</ele><time>2026-03-22T11:19:59.161Z</time></trkpt><trkpt lat="45.8123217" lon="8.7065517"><ele>261.0</ele><time>2026-03-22T11:20:01.16Z</time></trkpt><trkpt lat="45.8122733" lon="8.706715"><ele>261.0</ele><time>2026-03-22T11:20:03.16Z</time></trkpt><trkpt lat="45.812245" lon="8.7068133"><ele>261.0</ele><time>2026-03-22T11:20:04.161Z</time></trkpt><trkpt lat="45.8122317" lon="8.70693"><ele>261.0</ele><time>2026-03-22T11:20:05.16Z</time></trkpt><trkpt lat="45.8122233" lon="8.7070567"><ele>261.0</ele><time>2026-03-22T11:20:06.161Z</time></trkpt><trkpt lat="45.8122117" lon="8.7071567"><ele>261.0</ele><time>2026-03-22T11:20:07.161Z</time></trkpt><trkpt lat="45.8122017" lon="8.707255"><ele>261.0</ele><time>2026-03-22T11:20:08.16Z</time></trkpt><trkpt lat="45.8121533" lon="8.7074033"><ele>261.0</ele><time>2026-03-22T11:20:10.161Z</time></trkpt><trkpt lat="45.8120783" lon="8.7075133"><ele>261.0</ele><time>2026-03-22T11:20:12.161Z</time></trkpt><trkpt lat="45.812055" lon="8.7073617"><ele>261.0</ele><time>2026-03-22T11:20:18.16Z</time></trkpt><trkpt lat="45.812055" lon="8.7072417"><ele>261.0</ele><time>2026-03-22T11:20:19.161Z</time></trkpt><trkpt lat="45.8120467" lon="8.7071217"><ele>261.0</ele><time>2026-03-22T11:20:20.16Z</time></trkpt><trkpt lat="45.81204" lon="8.7070033"><ele>261.0</ele><time>2026-03-22T11:20:21.16Z</time></trkpt><trkpt lat="45.812035" lon="8.706875"><ele>261.0</ele><time>2026-03-22T11:20:22.16Z</time></trkpt><trkpt lat="45.8120433" lon="8.70675"><ele>261.0</ele><time>2026-03-22T11:20:23.16Z</time></trkpt><trkpt lat="45.8120533" lon="8.70662"><ele>261.0</ele><time>2026-03-22T11:20:24.16Z</time></trkpt><trkpt lat="45.8120667" lon="8.706495"><ele>261.0</ele><time>2026-03-22T11:20:25.16Z</time></trkpt><trkpt lat="45.812085" lon="8.70637"><ele>261.0</ele><time>2026-03-22T11:20:26.16Z</time></trkpt><trkpt lat="45.8120983" lon="8.7062433"><ele>261.0</ele><time>2026-03-22T11:20:27.161Z</time></trkpt><trkpt lat="45.8121167" lon="8.7061233"><ele>261.0</ele><time>2026-03-22T11:20:28.16Z</time></trkpt><trkpt lat="45.81212" lon="8.7060067"><ele>261.0</ele><time>2026-03-22T11:20:29.161Z</time></trkpt><trkpt lat="45.8121183" lon="8.7058817"><ele>261.0</ele><time>2026-03-22T11:20:30.16Z</time></trkpt><trkpt lat="45.8120817" lon="8.7057233"><ele>259.5</ele><time>2026-03-22T11:20:31.16Z</time></trkpt><trkpt lat="45.8120367" lon="8.70556"><ele>258.0</ele><time>2026-03-22T11:20:32.16Z</time></trkpt><trkpt lat="45.8120033" lon="8.705405"><ele>256.5</ele><time>2026-03-22T11:20:33.16Z</time></trkpt><trkpt lat="45.8119833" lon="8.7052533"><ele>255.0</ele><time>2026-03-22T11:20:34.161Z</time></trkpt><trkpt lat="45.8119667" lon="8.7050917"><ele>255.4</ele><time>2026-03-22T11:20:35.16Z</time></trkpt><trkpt lat="45.8119467" lon="8.7049333"><ele>255.8</ele><time>2026-03-22T11:20:36.16Z</time></trkpt><trkpt lat="45.81193" lon="8.70479"><ele>256.2</ele><time>2026-03-22T11:20:37.16Z</time></trkpt><trkpt lat="45.8119017" lon="8.704655"><ele>256.6</ele><time>2026-03-22T11:20:38.16Z</time></trkpt><trkpt lat="45.811845" lon="8.70453"><ele>257.0</ele><time>2026-03-22T11:20:39.16Z</time></trkpt><trkpt lat="45.8117783" lon="8.7044"><ele>257.0</ele><time>2026-03-22T11:20:40.16Z</time></trkpt><trkpt lat="45.8117183" lon="8.70426"><ele>257.0</ele><time>2026-03-22T11:20:41.16Z</time></trkpt><trkpt lat="45.81165" lon="8.7041167"><ele>257.0</ele><time>2026-03-22T11:20:42.16Z</time></trkpt><trkpt lat="45.8116" lon="8.703995"><ele>257.0</ele><time>2026-03-22T11:20:43.161Z</time></trkpt><trkpt lat="45.811545" lon="8.7038767"><ele>257.0</ele><time>2026-03-22T11:20:44.16Z</time></trkpt><trkpt lat="45.8115083" lon="8.70377"><ele>257.0</ele><time>2026-03-22T11:20:45.16Z</time></trkpt><trkpt lat="45.811475" lon="8.7036717"><ele>257.0</ele><time>2026-03-22T11:20:46.16Z</time></trkpt><trkpt lat="45.8114267" lon="8.703575"><ele>257.0</ele><time>2026-03-22T11:20:47.16Z</time></trkpt><trkpt lat="45.8113983" lon="8.7034817"><ele>257.0</ele><time>2026-03-22T11:20:48.161Z</time></trkpt><trkpt lat="45.8113633" lon="8.703395"><ele>257.0</ele><time>2026-03-22T11:20:49.16Z</time></trkpt><trkpt lat="45.81134" lon="8.7033017"><ele>257.0</ele><time>2026-03-22T11:20:50.161Z</time></trkpt><trkpt lat="45.8113133" lon="8.70318"><ele>256.1666666666667</ele><time>2026-03-22T11:20:51.16Z</time></trkpt><trkpt lat="45.8112817" lon="8.7030483"><ele>255.33333333333334</ele><time>2026-03-22T11:20:52.16Z</time></trkpt><trkpt lat="45.8112583" lon="8.70292"><ele>254.5</ele><time>2026-03-22T11:20:53.16Z</time></trkpt><trkpt lat="45.81122" lon="8.70281"><ele>253.66666666666669</ele><time>2026-03-22T11:20:54.16Z</time></trkpt><trkpt lat="45.8111883" lon="8.7026983"><ele>252.83333333333334</ele><time>2026-03-22T11:20:55.16Z</time></trkpt><trkpt lat="45.8111567" lon="8.70259"><ele>252.0</ele><time>2026-03-22T11:20:56.16Z</time></trkpt><trkpt lat="45.81112" lon="8.7024617"><ele>251.0</ele><time>2026-03-22T11:20:57.161Z</time></trkpt><trkpt lat="45.81108" lon="8.7023267"><ele>250.0</ele><time>2026-03-22T11:20:58.161Z</time></trkpt><trkpt lat="45.8110567" lon="8.70219"><ele>249.0</ele><time>2026-03-22T11:20:59.16Z</time></trkpt><trkpt lat="45.8110367" lon="8.7020667"><ele>248.0</ele><time>2026-03-22T11:21:00.16Z</time></trkpt><trkpt lat="45.8110167" lon="8.7019583"><ele>247.0</ele><time>2026-03-22T11:21:01.16Z</time></trkpt><trkpt lat="45.810995" lon="8.7018633"><ele>246.0</ele><time>2026-03-22T11:21:02.161Z</time></trkpt><trkpt lat="45.8109583" lon="8.7017183"><ele>245.8</ele><time>2026-03-22T11:21:04.16Z</time></trkpt><trkpt lat="45.8108617" lon="8.7015817"><ele>245.60000000000002</ele><time>2026-03-22T11:21:06.16Z</time></trkpt><trkpt lat="45.8108117" lon="8.7015033"><ele>245.4</ele><time>2026-03-22T11:21:07.16Z</time></trkpt><trkpt lat="45.8107733" lon="8.7013967"><ele>245.2</ele><time>2026-03-22T11:21:08.16Z</time></trkpt><trkpt lat="45.8107517" lon="8.7012817"><ele>245.0</ele><time>2026-03-22T11:21:09.161Z</time></trkpt><trkpt lat="45.8107283" lon="8.7011583"><ele>245.00000000000003</ele><time>2026-03-22T11:21:10.161Z</time></trkpt><trkpt lat="45.8107133" lon="8.7010383"><ele>245.0</ele><time>2026-03-22T11:21:11.16Z</time></trkpt><trkpt lat="45.810705" lon="8.7009433"><ele>245.0</ele><time>2026-03-22T11:21:12.16Z</time></trkpt><trkpt lat="45.8107167" lon="8.7008367"><ele>245.0</ele><time>2026-03-22T11:21:14.161Z</time></trkpt><trkpt lat="45.8106533" lon="8.7007667"><ele>245.00000000000003</ele><time>2026-03-22T11:21:28.161Z</time></trkpt><trkpt lat="45.810605" lon="8.7007"><ele>245.0</ele><time>2026-03-22T11:21:31.16Z</time></trkpt><trkpt lat="45.81059" lon="8.7005933"><ele>245.0</ele><time>2026-03-22T11:21:35.16Z</time></trkpt><trkpt lat="45.8105667" lon="8.700505"><ele>245.0</ele><time>2026-03-22T11:21:38.16Z</time></trkpt><trkpt lat="45.8105467" lon="8.700405"><ele>245.0</ele><time>2026-03-22T11:21:41.16Z</time></trkpt><trkpt lat="45.8105417" lon="8.700295"><ele>245.0</ele><time>2026-03-22T11:21:51.16Z</time></trkpt><trkpt lat="45.81057" lon="8.7002067"><ele>245.0</ele><time>2026-03-22T11:21:54.161Z</time></trkpt><trkpt lat="45.810585" lon="8.70011"><ele>245.0</ele><time>2026-03-22T11:21:57.16Z</time></trkpt><trkpt lat="45.810585" lon="8.7000017"><ele>245.0</ele><time>2026-03-22T11:22:01.16Z</time></trkpt><trkpt lat="45.8105667" lon="8.6999117"><ele>245.16666666666669</ele><time>2026-03-22T11:22:05.161Z</time></trkpt><trkpt lat="45.8105583" lon="8.699815"><ele>245.33333333333334</ele><time>2026-03-22T11:22:10.16Z</time></trkpt><trkpt lat="45.8105433" lon="8.6997133"><ele>245.5</ele><time>2026-03-22T11:22:23.16Z</time></trkpt><trkpt lat="45.8105233" lon="8.6995617"><ele>245.66666666666669</ele><time>2026-03-22T11:23:43.159Z</time></trkpt><trkpt lat="45.810465" lon="8.6996617"><ele>245.83333333333334</ele><time>2026-03-22T11:23:59.16Z</time></trkpt><trkpt lat="45.81052" lon="8.6995983"><ele>246.0</ele><time>2026-03-22T11:24:33.16Z</time></trkpt><trkpt lat="45.8105083" lon="8.6994967"><ele>246.0</ele><time>2026-03-22T11:24:35.159Z</time></trkpt><trkpt lat="45.8104233" lon="8.6994617"><ele>246.0</ele><time>2026-03-22T11:24:37.16Z</time></trkpt><trkpt lat="45.8103433" lon="8.6995017"><ele>246.0</ele><time>2026-03-22T11:24:39.16Z</time></trkpt><trkpt lat="45.8102567" lon="8.6995383"><ele>246.0</ele><time>2026-03-22T11:24:41.159Z</time></trkpt><trkpt lat="45.81019" lon="8.6995667"><ele>246.0</ele><time>2026-03-22T11:24:42.159Z</time></trkpt><trkpt lat="45.81011" lon="8.6995867"><ele>246.0</ele><time>2026-03-22T11:24:43.159Z</time></trkpt><trkpt lat="45.8100283" lon="8.6996"><ele>248.4</ele><time>2026-03-22T11:24:44.16Z</time></trkpt><trkpt lat="45.809925" lon="8.69967"><ele>250.8</ele><time>2026-03-22T11:24:46.159Z</time></trkpt><trkpt lat="45.80987" lon="8.6997233"><ele>253.20000000000002</ele><time>2026-03-22T11:24:47.159Z</time></trkpt><trkpt lat="45.80976" lon="8.699805"><ele>255.60000000000002</ele><time>2026-03-22T11:24:49.159Z</time></trkpt><trkpt lat="45.80969" lon="8.69983"><ele>258.0</ele><time>2026-03-22T11:24:50.159Z</time></trkpt><trkpt lat="45.809615" lon="8.6998533"><ele>258.0</ele><time>2026-03-22T11:24:51.159Z</time></trkpt><trkpt lat="45.8095367" lon="8.6998717"><ele>258.0</ele><time>2026-03-22T11:24:52.16Z</time></trkpt><trkpt lat="45.809465" lon="8.6998933"><ele>258.0</ele><time>2026-03-22T11:24:53.159Z</time></trkpt><trkpt lat="45.809365" lon="8.6999133"><ele>258.0</ele><time>2026-03-22T11:24:55.159Z</time></trkpt><trkpt lat="45.8092733" lon="8.699775"><ele>258.0</ele><time>2026-03-22T11:24:57.159Z</time></trkpt><trkpt lat="45.8091967" lon="8.699685"><ele>259.2</ele><time>2026-03-22T11:24:58.159Z</time></trkpt><trkpt lat="45.8091133" lon="8.6996067"><ele>260.4</ele><time>2026-03-22T11:24:59.16Z</time></trkpt><trkpt lat="45.8090317" lon="8.6995317"><ele>261.59999999999997</ele><time>2026-03-22T11:25:00.159Z</time></trkpt><trkpt lat="45.80896" lon="8.6994617"><ele>262.8</ele><time>2026-03-22T11:25:01.16Z</time></trkpt><trkpt lat="45.808895" lon="8.6993767"><ele>264.0</ele><time>2026-03-22T11:25:02.159Z</time></trkpt><trkpt lat="45.8088267" lon="8.6992633"><ele>264.0</ele><time>2026-03-22T11:25:03.16Z</time></trkpt><trkpt lat="45.8087683" lon="8.6991333"><ele>264.0</ele><time>2026-03-22T11:25:04.159Z</time></trkpt><trkpt lat="45.8087033" lon="8.69901"><ele>264.0</ele><time>2026-03-22T11:25:05.159Z</time></trkpt><trkpt lat="45.8086583" lon="8.6989133"><ele>264.0</ele><time>2026-03-22T11:25:06.159Z</time></trkpt><trkpt lat="45.80859" lon="8.6987933"><ele>264.0</ele><time>2026-03-22T11:25:08.159Z</time></trkpt><trkpt lat="45.8085283" lon="8.6987467"><ele>264.0</ele><time>2026-03-22T11:25:13.159Z</time></trkpt><trkpt lat="45.8084583" lon="8.69869"><ele>264.0</ele><time>2026-03-22T11:25:15.16Z</time></trkpt><trkpt lat="45.8083883" lon="8.6986267"><ele>264.0</ele><time>2026-03-22T11:25:17.159Z</time></trkpt><trkpt lat="45.808315" lon="8.6985533"><ele>264.0</ele><time>2026-03-22T11:25:20.159Z</time></trkpt><trkpt lat="45.80827" lon="8.6984833"><ele>264.0</ele><time>2026-03-22T11:25:40.159Z</time></trkpt><trkpt lat="45.80818" lon="8.6984217"><ele>264.0</ele><time>2026-03-22T11:25:41.16Z</time></trkpt><trkpt lat="45.808205" lon="8.69853"><ele>264.0</ele><time>2026-03-22T11:26:13.159Z</time></trkpt><trkpt lat="45.808275" lon="8.6986083"><ele>264.0</ele><time>2026-03-22T11:26:16.16Z</time></trkpt><trkpt lat="45.8083533" lon="8.69866"><ele>264.0</ele><time>2026-03-22T11:26:19.159Z</time></trkpt><trkpt lat="45.808415" lon="8.6986817"><ele>264.0</ele><time>2026-03-22T11:26:21.16Z</time></trkpt><trkpt lat="45.8084583" lon="8.6987633"><ele>264.0</ele><time>2026-03-22T11:26:23.16Z</time></trkpt><trkpt lat="45.80849" lon="8.698845"><ele>264.0</ele><time>2026-03-22T11:26:24.16Z</time></trkpt><trkpt lat="45.8085467" lon="8.6989433"><ele>264.0</ele><time>2026-03-22T11:26:25.159Z</time></trkpt><trkpt lat="45.808605" lon="8.699035"><ele>264.0</ele><time>2026-03-22T11:26:26.159Z</time></trkpt><trkpt lat="45.8086733" lon="8.6991417"><ele>264.0</ele><time>2026-03-22T11:26:27.159Z</time></trkpt><trkpt lat="45.80874" lon="8.6992517"><ele>264.0</ele><time>2026-03-22T11:26:28.16Z</time></trkpt><trkpt lat="45.8088033" lon="8.6993567"><ele>264.0</ele><time>2026-03-22T11:26:29.16Z</time></trkpt><trkpt lat="45.8088767" lon="8.699445"><ele>264.1666666666667</ele><time>2026-03-22T11:26:30.16Z</time></trkpt><trkpt lat="45.8089483" lon="8.6995267"><ele>264.3333333333333</ele><time>2026-03-22T11:26:31.159Z</time></trkpt><trkpt lat="45.809" lon="8.6995833"><ele>264.5</ele><time>2026-03-22T11:26:32.159Z</time></trkpt><trkpt lat="45.8090517" lon="8.6996433"><ele>264.66666666666663</ele><time>2026-03-22T11:26:35.159Z</time></trkpt><trkpt lat="45.8089983" lon="8.69957"><ele>264.8333333333333</ele><time>2026-03-22T11:27:09.16Z</time></trkpt><trkpt lat="45.80906" lon="8.6995017"><ele>265.0</ele><time>2026-03-22T11:27:13.159Z</time></trkpt><trkpt lat="45.8091417" lon="8.6994583"><ele>264.85714285714283</ele><time>2026-03-22T11:27:16.16Z</time></trkpt><trkpt lat="45.8092033" lon="8.699405"><ele>264.7142857142857</ele><time>2026-03-22T11:27:19.159Z</time></trkpt><trkpt lat="45.8092567" lon="8.6993433"><ele>264.57142857142856</ele><time>2026-03-22T11:27:22.159Z</time></trkpt><trkpt lat="45.809315" lon="8.6992883"><ele>264.42857142857144</ele><time>2026-03-22T11:27:25.159Z</time></trkpt><trkpt lat="45.809385" lon="8.6992483"><ele>264.2857142857143</ele><time>2026-03-22T11:27:29.159Z</time></trkpt><trkpt lat="45.80945" lon="8.6992067"><ele>264.1428571428571</ele><time>2026-03-22T11:27:36.159Z</time></trkpt><trkpt lat="45.8094417" lon="8.6992967"><ele>264.0</ele><time>2026-03-22T11:27:44.16Z</time></trkpt><trkpt lat="45.8093733" lon="8.69928"><ele>264.0</ele><time>2026-03-22T11:27:54.159Z</time></trkpt><trkpt lat="45.8093017" lon="8.6992967"><ele>264.0</ele><time>2026-03-22T11:28:00.159Z</time></trkpt><trkpt lat="45.8092283" lon="8.6993433"><ele>264.0</ele><time>2026-03-22T11:28:02.16Z</time></trkpt><trkpt lat="45.809155" lon="8.699405"><ele>264.0</ele><time>2026-03-22T11:28:04.159Z</time></trkpt><trkpt lat="45.8091517" lon="8.69954"><ele>264.0</ele><time>2026-03-22T11:28:07.16Z</time></trkpt><trkpt lat="45.8091767" lon="8.69963"><ele>264.0</ele><time>2026-03-22T11:28:08.159Z</time></trkpt><trkpt lat="45.8092033" lon="8.6997333"><ele>264.2</ele><time>2026-03-22T11:28:09.159Z</time></trkpt><trkpt lat="45.8092267" lon="8.6998333"><ele>264.4</ele><time>2026-03-22T11:28:10.159Z</time></trkpt><trkpt lat="45.8092817" lon="8.7000017"><ele>264.6</ele><time>2026-03-22T11:28:12.16Z</time></trkpt><trkpt lat="45.8093367" lon="8.7001033"><ele>264.8</ele><time>2026-03-22T11:28:14.16Z</time></trkpt><trkpt lat="45.8094017" lon="8.7000617"><ele>265.0</ele><time>2026-03-22T11:28:29.159Z</time></trkpt><trkpt lat="45.809485" lon="8.6999933"><ele>263.8333333333333</ele><time>2026-03-22T11:28:32.159Z</time></trkpt><trkpt lat="45.8095567" lon="8.699955"><ele>262.66666666666663</ele><time>2026-03-22T11:28:34.159Z</time></trkpt><trkpt lat="45.80963" lon="8.6999083"><ele>261.5</ele><time>2026-03-22T11:28:36.159Z</time></trkpt><trkpt lat="45.8096917" lon="8.6998467"><ele>260.3333333333333</ele><time>2026-03-22T11:28:38.159Z</time></trkpt><trkpt lat="45.8097533" lon="8.6997833"><ele>259.1666666666667</ele><time>2026-03-22T11:28:40.16Z</time></trkpt><trkpt lat="45.809865" lon="8.6997467"><ele>258.0</ele><time>2026-03-22T11:28:42.16Z</time></trkpt><trkpt lat="45.8099567" lon="8.699705"><ele>258.0</ele><time>2026-03-22T11:28:44.159Z</time></trkpt><trkpt lat="45.81004" lon="8.69963"><ele>258.0</ele><time>2026-03-22T11:28:46.159Z</time></trkpt><trkpt lat="45.8101383" lon="8.6995633"><ele>258.0</ele><time>2026-03-22T11:28:48.159Z</time></trkpt><trkpt lat="45.8102683" lon="8.6994967"><ele>258.0</ele><time>2026-03-22T11:28:50.159Z</time></trkpt><trkpt lat="45.8103467" lon="8.6995283"><ele>258.0</ele><time>2026-03-22T11:28:52.16Z</time></trkpt><trkpt lat="45.81041" lon="8.6995833"><ele>256.2857142857143</ele><time>2026-03-22T11:28:54.16Z</time></trkpt><trkpt lat="45.8104517" lon="8.6996817"><ele>254.57142857142856</ele><time>2026-03-22T11:28:57.159Z</time></trkpt><trkpt lat="45.8104617" lon="8.6997733"><ele>252.85714285714286</ele><time>2026-03-22T11:29:34.159Z</time></trkpt><trkpt lat="45.8104633" lon="8.69987"><ele>251.14285714285714</ele><time>2026-03-22T11:29:40.159Z</time></trkpt><trkpt lat="45.8104583" lon="8.700005"><ele>249.42857142857144</ele><time>2026-03-22T11:29:43.159Z</time></trkpt><trkpt lat="45.8104517" lon="8.7001"><ele>247.71428571428575</ele><time>2026-03-22T11:29:45.16Z</time></trkpt><trkpt lat="45.8104583" lon="8.7001917"><ele>246.00000000000003</ele><time>2026-03-22T11:29:48.16Z</time></trkpt><trkpt lat="45.8104817" lon="8.7002833"><ele>245.83333333333334</ele><time>2026-03-22T11:29:56.16Z</time></trkpt><trkpt lat="45.8104867" lon="8.7003817"><ele>245.66666666666669</ele><time>2026-03-22T11:30:02.16Z</time></trkpt><trkpt lat="45.8105067" lon="8.7004967"><ele>245.5</ele><time>2026-03-22T11:30:07.159Z</time></trkpt><trkpt lat="45.81056" lon="8.70065"><ele>245.33333333333334</ele><time>2026-03-22T11:30:10.159Z</time></trkpt><trkpt lat="45.8106" lon="8.700725"><ele>245.16666666666669</ele><time>2026-03-22T11:30:12.159Z</time></trkpt><trkpt lat="45.8106083" lon="8.700875"><ele>245.0</ele><time>2026-03-22T11:30:15.159Z</time></trkpt><trkpt lat="45.8106383" lon="8.7010267"><ele>245.0</ele><time>2026-03-22T11:30:17.16Z</time></trkpt><trkpt lat="45.810665" lon="8.7012017"><ele>245.0</ele><time>2026-03-22T11:30:19.159Z</time></trkpt><trkpt lat="45.8107083" lon="8.7012933"><ele>245.0</ele><time>2026-03-22T11:30:20.16Z</time></trkpt><trkpt lat="45.8107517" lon="8.7013783"><ele>245.0</ele><time>2026-03-22T11:30:21.159Z</time></trkpt><trkpt lat="45.810815" lon="8.7014717"><ele>245.0</ele><time>2026-03-22T11:30:23.159Z</time></trkpt><trkpt lat="45.8109083" lon="8.701445"><ele>245.00000000000003</ele><time>2026-03-22T11:30:26.159Z</time></trkpt><trkpt lat="45.810955" lon="8.7013683"><ele>245.0</ele><time>2026-03-22T11:30:27.159Z</time></trkpt><trkpt lat="45.810995" lon="8.7012883"><ele>245.0</ele><time>2026-03-22T11:30:28.159Z</time></trkpt><trkpt lat="45.8110867" lon="8.7011383"><ele>245.0</ele><time>2026-03-22T11:30:30.159Z</time></trkpt><trkpt lat="45.8111483" lon="8.70106"><ele>245.00000000000003</ele><time>2026-03-22T11:30:31.159Z</time></trkpt><trkpt lat="45.81121" lon="8.700985"><ele>245.0</ele><time>2026-03-22T11:30:32.159Z</time></trkpt><trkpt lat="45.8112683" lon="8.700915"><ele>244.16666666666669</ele><time>2026-03-22T11:30:33.159Z</time></trkpt><trkpt lat="45.8113217" lon="8.7008583"><ele>243.33333333333334</ele><time>2026-03-22T11:30:34.159Z</time></trkpt><trkpt lat="45.8114283" lon="8.7007667"><ele>242.5</ele><time>2026-03-22T11:30:36.159Z</time></trkpt><trkpt lat="45.811505" lon="8.7007217"><ele>241.66666666666669</ele><time>2026-03-22T11:30:37.159Z</time></trkpt><trkpt lat="45.81158" lon="8.70068"><ele>240.83333333333334</ele><time>2026-03-22T11:30:38.159Z</time></trkpt><trkpt lat="45.8116517" lon="8.70064"><ele>240.0</ele><time>2026-03-22T11:30:39.159Z</time></trkpt><trkpt lat="45.8117133" lon="8.7006"><ele>240.0</ele><time>2026-03-22T11:30:40.16Z</time></trkpt><trkpt lat="45.81178" lon="8.70055"><ele>240.0</ele><time>2026-03-22T11:30:41.159Z</time></trkpt><trkpt lat="45.8118383" lon="8.7005033"><ele>240.0</ele><time>2026-03-22T11:30:42.159Z</time></trkpt><trkpt lat="45.8118967" lon="8.70046"><ele>240.0</ele><time>2026-03-22T11:30:43.16Z</time></trkpt><trkpt lat="45.8119517" lon="8.700415"><ele>240.0</ele><time>2026-03-22T11:30:44.159Z</time></trkpt><trkpt lat="45.8120417" lon="8.7003267"><ele>240.0</ele><time>2026-03-22T11:30:46.159Z</time></trkpt><trkpt lat="45.8121583" lon="8.7002767"><ele>240.16666666666666</ele><time>2026-03-22T11:30:48.16Z</time></trkpt><trkpt lat="45.81223" lon="8.70025"><ele>240.33333333333331</ele><time>2026-03-22T11:30:49.16Z</time></trkpt><trkpt lat="45.812305" lon="8.7002333"><ele>240.5</ele><time>2026-03-22T11:30:50.159Z</time></trkpt><trkpt lat="45.8123717" lon="8.7002183"><ele>240.66666666666666</ele><time>2026-03-22T11:30:51.159Z</time></trkpt><trkpt lat="45.812435" lon="8.700195"><ele>240.83333333333331</ele><time>2026-03-22T11:30:52.159Z</time></trkpt><trkpt lat="45.8125567" lon="8.700185"><ele>241.0</ele><time>2026-03-22T11:30:54.159Z</time></trkpt><trkpt lat="45.812675" lon="8.7001783"><ele>241.0</ele><time>2026-03-22T11:30:56.159Z</time></trkpt><trkpt lat="45.8127383" lon="8.7001667"><ele>241.00000000000003</ele><time>2026-03-22T11:30:57.159Z</time></trkpt><trkpt lat="45.812835" lon="8.700145"><ele>241.00000000000003</ele><time>2026-03-22T11:30:59.159Z</time></trkpt><trkpt lat="45.812905" lon="8.70007"><ele>241.0</ele><time>2026-03-22T11:31:02.16Z</time></trkpt><trkpt lat="45.8130033" lon="8.6998933"><ele>241.0</ele><time>2026-03-22T11:31:21.159Z</time></trkpt><trkpt lat="45.8131267" lon="8.6998817"><ele>241.0</ele><time>2026-03-22T11:31:32.159Z</time></trkpt><trkpt lat="45.8132267" lon="8.6998167"><ele>241.0</ele><time>2026-03-22T11:31:43.16Z</time></trkpt><trkpt lat="45.8133533" lon="8.6997233"><ele>241.0</ele><time>2026-03-22T11:31:54.159Z</time></trkpt><trkpt lat="45.81347" lon="8.6996267"><ele>241.0</ele><time>2026-03-22T11:32:18.159Z</time></trkpt><trkpt lat="45.8134133" lon="8.699675"><ele>240.99999999999997</ele><time>2026-03-22T11:32:34.159Z</time></trkpt><trkpt lat="45.8133167" lon="8.6997267"><ele>241.0</ele><time>2026-03-22T11:32:39.16Z</time></trkpt><trkpt lat="45.81327" lon="8.6997933"><ele>241.0</ele><time>2026-03-22T11:32:42.159Z</time></trkpt><trkpt lat="45.8132133" lon="8.699845"><ele>241.0</ele><time>2026-03-22T11:32:46.159Z</time></trkpt><trkpt lat="45.8131583" lon="8.6999233"><ele>240.99999999999997</ele><time>2026-03-22T11:32:50.159Z</time></trkpt><trkpt lat="45.8131183" lon="8.7000033"><ele>241.0</ele><time>2026-03-22T11:32:54.159Z</time></trkpt><trkpt lat="45.8130783" lon="8.7000917"><ele>240.99999999999997</ele><time>2026-03-22T11:32:58.159Z</time></trkpt><trkpt lat="45.8130033" lon="8.7001133"><ele>241.0</ele><time>2026-03-22T11:33:06.159Z</time></trkpt><trkpt lat="45.8129117" lon="8.7001267"><ele>241.0</ele><time>2026-03-22T11:33:09.159Z</time></trkpt><trkpt lat="45.812815" lon="8.7001367"><ele>241.0</ele><time>2026-03-22T11:33:11.159Z</time></trkpt><trkpt lat="45.8127483" lon="8.7001283"><ele>240.99999999999997</ele><time>2026-03-22T11:33:12.159Z</time></trkpt><trkpt lat="45.81268" lon="8.700125"><ele>241.0</ele><time>2026-03-22T11:33:13.16Z</time></trkpt><trkpt lat="45.8126083" lon="8.7001283"><ele>240.49999999999997</ele><time>2026-03-22T11:33:14.159Z</time></trkpt><trkpt lat="45.812545" lon="8.70013"><ele>240.0</ele><time>2026-03-22T11:33:15.159Z</time></trkpt><trkpt lat="45.8124767" lon="8.7001417"><ele>239.5</ele><time>2026-03-22T11:33:16.159Z</time></trkpt><trkpt lat="45.8124067" lon="8.7001633"><ele>239.0</ele><time>2026-03-22T11:33:17.16Z</time></trkpt><trkpt lat="45.8123" lon="8.7002067"><ele>238.49999999999997</ele><time>2026-03-22T11:33:18.159Z</time></trkpt><trkpt lat="45.8122267" lon="8.7002433"><ele>238.0</ele><time>2026-03-22T11:33:19.159Z</time></trkpt><trkpt lat="45.8121367" lon="8.70031"><ele>237.99999999999997</ele><time>2026-03-22T11:33:21.159Z</time></trkpt><trkpt lat="45.8120467" lon="8.7003833"><ele>238.0</ele><time>2026-03-22T11:33:23.159Z</time></trkpt><trkpt lat="45.81194" lon="8.70045"><ele>238.0</ele><time>2026-03-22T11:33:25.159Z</time></trkpt><trkpt lat="45.8118833" lon="8.70049"><ele>238.0</ele><time>2026-03-22T11:33:26.159Z</time></trkpt><trkpt lat="45.81182" lon="8.700535"><ele>237.99999999999997</ele><time>2026-03-22T11:33:27.159Z</time></trkpt><trkpt lat="45.8117367" lon="8.7005883"><ele>238.0</ele><time>2026-03-22T11:33:28.159Z</time></trkpt><trkpt lat="45.8116617" lon="8.70064"><ele>238.33333333333331</ele><time>2026-03-22T11:33:29.16Z</time></trkpt><trkpt lat="45.811585" lon="8.7006783"><ele>238.66666666666666</ele><time>2026-03-22T11:33:30.159Z</time></trkpt><trkpt lat="45.8115233" lon="8.700715"><ele>239.0</ele><time>2026-03-22T11:33:31.159Z</time></trkpt><trkpt lat="45.811455" lon="8.70078"><ele>239.33333333333331</ele><time>2026-03-22T11:33:33.159Z</time></trkpt><trkpt lat="45.8113667" lon="8.7008983"><ele>239.66666666666666</ele><time>2026-03-22T11:33:35.159Z</time></trkpt><trkpt lat="45.8113133" lon="8.7009717"><ele>240.0</ele><time>2026-03-22T11:33:36.159Z</time></trkpt><trkpt lat="45.8112533" lon="8.7010567"><ele>240.0</ele><time>2026-03-22T11:33:37.159Z</time></trkpt><trkpt lat="45.8112" lon="8.7011483"><ele>240.0</ele><time>2026-03-22T11:33:38.159Z</time></trkpt><trkpt lat="45.8111433" lon="8.7012417"><ele>240.0</ele><time>2026-03-22T11:33:39.159Z</time></trkpt><trkpt lat="45.811095" lon="8.70133"><ele>240.0</ele><time>2026-03-22T11:33:40.16Z</time></trkpt><trkpt lat="45.8110467" lon="8.7014133"><ele>240.0</ele><time>2026-03-22T11:33:41.16Z</time></trkpt><trkpt lat="45.8110033" lon="8.7014833"><ele>240.0</ele><time>2026-03-22T11:33:42.159Z</time></trkpt><trkpt lat="45.81095" lon="8.7015967"><ele>241.25</ele><time>2026-03-22T11:33:44.159Z</time></trkpt><trkpt lat="45.810925" lon="8.7017067"><ele>242.5</ele><time>2026-03-22T11:33:46.159Z</time></trkpt><trkpt lat="45.81093" lon="8.7019283"><ele>243.75</ele><time>2026-03-22T11:33:48.159Z</time></trkpt><trkpt lat="45.8109633" lon="8.7021083"><ele>245.0</ele><time>2026-03-22T11:33:49.159Z</time></trkpt><trkpt lat="45.8110383" lon="8.7023133"><ele>245.25</ele><time>2026-03-22T11:33:50.159Z</time></trkpt><trkpt lat="45.8110967" lon="8.7025033"><ele>245.5</ele><time>2026-03-22T11:33:51.159Z</time></trkpt><trkpt lat="45.8111617" lon="8.7026983"><ele>245.75</ele><time>2026-03-22T11:33:52.159Z</time></trkpt><trkpt lat="45.811205" lon="8.702865"><ele>246.0</ele><time>2026-03-22T11:33:53.159Z</time></trkpt><trkpt lat="45.81125" lon="8.7030233"><ele>247.20000000000002</ele><time>2026-03-22T11:33:54.159Z</time></trkpt><trkpt lat="45.8112817" lon="8.7031683"><ele>248.40000000000003</ele><time>2026-03-22T11:33:55.159Z</time></trkpt><trkpt lat="45.8113067" lon="8.7032983"><ele>249.6</ele><time>2026-03-22T11:33:56.159Z</time></trkpt><trkpt lat="45.811335" lon="8.7034317"><ele>250.8</ele><time>2026-03-22T11:33:57.159Z</time></trkpt><trkpt lat="45.81137" lon="8.70357"><ele>252.0</ele><time>2026-03-22T11:33:58.159Z</time></trkpt><trkpt lat="45.8114233" lon="8.7037183"><ele>253.25</ele><time>2026-03-22T11:33:59.159Z</time></trkpt><trkpt lat="45.8114867" lon="8.7038683"><ele>254.5</ele><time>2026-03-22T11:34:00.159Z</time></trkpt><trkpt lat="45.8115467" lon="8.70404"><ele>255.75</ele><time>2026-03-22T11:34:01.159Z</time></trkpt><trkpt lat="45.8116033" lon="8.7042217"><ele>257.0</ele><time>2026-03-22T11:34:02.159Z</time></trkpt><trkpt lat="45.8116633" lon="8.7043717"><ele>258.25</ele><time>2026-03-22T11:34:03.159Z</time></trkpt><trkpt lat="45.8117167" lon="8.7045"><ele>259.5</ele><time>2026-03-22T11:34:04.159Z</time></trkpt><trkpt lat="45.8117533" lon="8.704635"><ele>260.75</ele><time>2026-03-22T11:34:05.159Z</time></trkpt><trkpt lat="45.81178" lon="8.7048033"><ele>262.0</ele><time>2026-03-22T11:34:06.159Z</time></trkpt><trkpt lat="45.81179" lon="8.704985"><ele>262.0</ele><time>2026-03-22T11:34:07.159Z</time></trkpt><trkpt lat="45.81181" lon="8.705155"><ele>262.0</ele><time>2026-03-22T11:34:08.159Z</time></trkpt><trkpt lat="45.811835" lon="8.7053167"><ele>262.0</ele><time>2026-03-22T11:34:09.159Z</time></trkpt><trkpt lat="45.8118683" lon="8.7054783"><ele>262.0</ele><time>2026-03-22T11:34:10.159Z</time></trkpt><trkpt lat="45.8119" lon="8.7056583"><ele>261.75</ele><time>2026-03-22T11:34:11.159Z</time></trkpt><trkpt lat="45.8119383" lon="8.705825"><ele>261.5</ele><time>2026-03-22T11:34:12.159Z</time></trkpt><trkpt lat="45.8119667" lon="8.7059817"><ele>261.25</ele><time>2026-03-22T11:34:13.16Z</time></trkpt><trkpt lat="45.8119767" lon="8.7061317"><ele>261.0</ele><time>2026-03-22T11:34:14.159Z</time></trkpt><trkpt lat="45.8119767" lon="8.70632"><ele>261.0</ele><time>2026-03-22T11:34:15.159Z</time></trkpt><trkpt lat="45.8119683" lon="8.7065083"><ele>261.0</ele><time>2026-03-22T11:34:16.159Z</time></trkpt><trkpt lat="45.8119717" lon="8.7067133"><ele>261.0</ele><time>2026-03-22T11:34:17.159Z</time></trkpt><trkpt lat="45.81199" lon="8.706895"><ele>261.0</ele><time>2026-03-22T11:34:18.159Z</time></trkpt><trkpt lat="45.8120083" lon="8.707045"><ele>261.0</ele><time>2026-03-22T11:34:19.16Z</time></trkpt><trkpt lat="45.812015" lon="8.70719"><ele>261.0</ele><time>2026-03-22T11:34:20.16Z</time></trkpt><trkpt lat="45.8120217" lon="8.707345"><ele>261.0</ele><time>2026-03-22T11:34:21.159Z</time></trkpt><trkpt lat="45.8120317" lon="8.7074867"><ele>261.0</ele><time>2026-03-22T11:34:22.159Z</time></trkpt><trkpt lat="45.81202" lon="8.7076183"><ele>261.0</ele><time>2026-03-22T11:34:23.16Z</time></trkpt><trkpt lat="45.8120067" lon="8.7077383"><ele>261.1666666666667</ele><time>2026-03-22T11:34:24.159Z</time></trkpt><trkpt lat="45.811995" lon="8.7078417"><ele>261.3333333333333</ele><time>2026-03-22T11:34:25.159Z</time></trkpt><trkpt lat="45.81199" lon="8.7079533"><ele>261.5</ele><time>2026-03-22T11:34:26.16Z</time></trkpt><trkpt lat="45.8120183" lon="8.7080583"><ele>261.66666666666663</ele><time>2026-03-22T11:34:27.159Z</time></trkpt><trkpt lat="45.8120383" lon="8.7081733"><ele>261.8333333333333</ele><time>2026-03-22T11:34:28.159Z</time></trkpt><trkpt lat="45.8120633" lon="8.708305"><ele>262.0</ele><time>2026-03-22T11:34:29.16Z</time></trkpt><trkpt lat="45.8120817" lon="8.7084333"><ele>262.0</ele><time>2026-03-22T11:34:30.16Z</time></trkpt><trkpt lat="45.8120983" lon="8.7085533"><ele>262.0</ele><time>2026-03-22T11:34:31.159Z</time></trkpt><trkpt lat="45.8121267" lon="8.70865"><ele>262.0</ele><time>2026-03-22T11:34:32.159Z</time></trkpt><trkpt lat="45.8121817" lon="8.7087683"><ele>262.0</ele><time>2026-03-22T11:34:34.159Z</time></trkpt><trkpt lat="45.8122317" lon="8.7088617"><ele>262.0</ele><time>2026-03-22T11:34:36.159Z</time></trkpt><trkpt lat="45.8121867" lon="8.7087667"><ele>262.0</ele><time>2026-03-22T11:35:26.159Z</time></trkpt><trkpt lat="45.8121483" lon="8.7086"><ele>262.0</ele><time>2026-03-22T11:35:28.159Z</time></trkpt><trkpt lat="45.8121267" lon="8.70849"><ele>262.0</ele><time>2026-03-22T11:35:29.159Z</time></trkpt><trkpt lat="45.8121017" lon="8.7083733"><ele>262.0</ele><time>2026-03-22T11:35:30.16Z</time></trkpt><trkpt lat="45.81208" lon="8.7082533"><ele>262.0</ele><time>2026-03-22T11:35:31.159Z</time></trkpt><trkpt lat="45.8120567" lon="8.7081433"><ele>262.0</ele><time>2026-03-22T11:35:32.159Z</time></trkpt><trkpt lat="45.8120517" lon="8.7080217"><ele>262.0</ele><time>2026-03-22T11:35:33.159Z</time></trkpt><trkpt lat="45.8120433" lon="8.7079183"><ele>262.0</ele><time>2026-03-22T11:35:34.16Z</time></trkpt><trkpt lat="45.8120283" lon="8.707785"><ele>262.0</ele><time>2026-03-22T11:35:36.159Z</time></trkpt><trkpt lat="45.8120383" lon="8.707695"><ele>262.0</ele><time>2026-03-22T11:35:38.159Z</time></trkpt><trkpt lat="45.8120967" lon="8.707595"><ele>262.0</ele><time>2026-03-22T11:35:40.159Z</time></trkpt><trkpt lat="45.8121683" lon="8.7074767"><ele>262.0</ele><time>2026-03-22T11:35:42.159Z</time></trkpt><trkpt lat="45.8122167" lon="8.707315"><ele>261.8333333333333</ele><time>2026-03-22T11:35:44.16Z</time></trkpt><trkpt lat="45.812225" lon="8.70722"><ele>261.66666666666663</ele><time>2026-03-22T11:35:45.159Z</time></trkpt><trkpt lat="45.81223" lon="8.7071117"><ele>261.5</ele><time>2026-03-22T11:35:46.159Z</time></trkpt><trkpt lat="45.81223" lon="8.7070083"><ele>261.3333333333333</ele><time>2026-03-22T11:35:47.159Z</time></trkpt><trkpt lat="45.812235" lon="8.70691"><ele>261.1666666666667</ele><time>2026-03-22T11:35:48.159Z</time></trkpt><trkpt lat="45.81227" lon="8.7067517"><ele>261.0</ele><time>2026-03-22T11:35:50.159Z</time></trkpt><trkpt lat="45.81232" lon="8.706625"><ele>261.0</ele><time>2026-03-22T11:35:52.159Z</time></trkpt><trkpt lat="45.8123333" lon="8.7065067"><ele>261.0</ele><time>2026-03-22T11:35:54.159Z</time></trkpt><trkpt lat="45.8123133" lon="8.70636"><ele>261.0</ele><time>2026-03-22T11:35:56.159Z</time></trkpt><trkpt lat="45.8123017" lon="8.70624"><ele>261.0</ele><time>2026-03-22T11:35:58.159Z</time></trkpt><trkpt lat="45.8123417" lon="8.706165"><ele>261.0</ele><time>2026-03-22T11:36:00.159Z</time></trkpt><trkpt lat="45.812425" lon="8.706235"><ele>261.0</ele><time>2026-03-22T11:36:04.159Z</time></trkpt><trkpt lat="45.8124833" lon="8.706295"><ele>261.0</ele><time>2026-03-22T11:36:06.16Z</time></trkpt><trkpt lat="45.812575" lon="8.7062483"><ele>261.0</ele><time>2026-03-22T11:36:08.159Z</time></trkpt><trkpt lat="45.812645" lon="8.7061933"><ele>261.0</ele><time>2026-03-22T11:36:09.159Z</time></trkpt><trkpt lat="45.812705" lon="8.7061617"><ele>261.0</ele><time>2026-03-22T11:36:10.159Z</time></trkpt><trkpt lat="45.812795" lon="8.70611"><ele>261.0</ele><time>2026-03-22T11:36:12.159Z</time></trkpt><trkpt lat="45.8128617" lon="8.706105"><ele>261.0</ele><time>2026-03-22T11:36:15.159Z</time></trkpt><trkpt lat="45.8128917" lon="8.7060183"><ele>259.8</ele><time>2026-03-22T11:36:19.159Z</time></trkpt><trkpt lat="45.81293" lon="8.7058933"><ele>258.6</ele><time>2026-03-22T11:36:21.16Z</time></trkpt><trkpt lat="45.812975" lon="8.7058133"><ele>257.4</ele><time>2026-03-22T11:36:22.159Z</time></trkpt><trkpt lat="45.8130417" lon="8.7057133"><ele>256.2</ele><time>2026-03-22T11:36:23.16Z</time></trkpt><trkpt lat="45.813115" lon="8.7056067"><ele>255.0</ele><time>2026-03-22T11:36:24.159Z</time></trkpt><trkpt lat="45.813185" lon="8.7055117"><ele>255.0</ele><time>2026-03-22T11:36:25.159Z</time></trkpt><trkpt lat="45.8132633" lon="8.7054333"><ele>255.0</ele><time>2026-03-22T11:36:26.159Z</time></trkpt><trkpt lat="45.81334" lon="8.7053633"><ele>255.0</ele><time>2026-03-22T11:36:27.159Z</time></trkpt><trkpt lat="45.813405" lon="8.705295"><ele>255.0</ele><time>2026-03-22T11:36:28.159Z</time></trkpt><trkpt lat="45.8134567" lon="8.7052317"><ele>255.0</ele><time>2026-03-22T11:36:29.159Z</time></trkpt><trkpt lat="45.8135" lon="8.705105"><ele>255.0</ele><time>2026-03-22T11:36:31.159Z</time></trkpt><trkpt lat="45.8135133" lon="8.7049533"><ele>255.16666666666666</ele><time>2026-03-22T11:36:33.159Z</time></trkpt><trkpt lat="45.813545" lon="8.7047833"><ele>255.33333333333331</ele><time>2026-03-22T11:36:35.16Z</time></trkpt><trkpt lat="45.8135817" lon="8.7046983"><ele>255.5</ele><time>2026-03-22T11:36:36.16Z</time></trkpt><trkpt lat="45.813625" lon="8.7046"><ele>255.66666666666666</ele><time>2026-03-22T11:36:37.159Z</time></trkpt><trkpt lat="45.81367" lon="8.7044983"><ele>255.83333333333331</ele><time>2026-03-22T11:36:38.159Z</time></trkpt><trkpt lat="45.8137133" lon="8.7044033"><ele>256.0</ele><time>2026-03-22T11:36:39.159Z</time></trkpt><trkpt lat="45.813755" lon="8.7043217"><ele>255.99999999999997</ele><time>2026-03-22T11:36:40.16Z</time></trkpt><trkpt lat="45.813835" lon="8.7042083"><ele>256.0</ele><time>2026-03-22T11:36:42.159Z</time></trkpt><trkpt lat="45.8138933" lon="8.7041133"><ele>256.0</ele><time>2026-03-22T11:36:44.16Z</time></trkpt><trkpt lat="45.8139317" lon="8.7039917"><ele>256.0</ele><time>2026-03-22T11:36:46.159Z</time></trkpt><trkpt lat="45.8139683" lon="8.7038967"><ele>255.99999999999997</ele><time>2026-03-22T11:36:47.159Z</time></trkpt><trkpt lat="45.8140033" lon="8.7037983"><ele>256.0</ele><time>2026-03-22T11:36:48.159Z</time></trkpt><trkpt lat="45.8140367" lon="8.70367"><ele>255.0</ele><time>2026-03-22T11:36:49.159Z</time></trkpt><trkpt lat="45.8140683" lon="8.703505"><ele>254.0</ele><time>2026-03-22T11:36:50.159Z</time></trkpt><trkpt lat="45.8140967" lon="8.7033317"><ele>253.0</ele><time>2026-03-22T11:36:51.159Z</time></trkpt><trkpt lat="45.8141367" lon="8.7031633"><ele>252.0</ele><time>2026-03-22T11:36:52.159Z</time></trkpt><trkpt lat="45.8141833" lon="8.7029883"><ele>252.0</ele><time>2026-03-22T11:36:53.159Z</time></trkpt><trkpt lat="45.8142333" lon="8.702825"><ele>252.0</ele><time>2026-03-22T11:36:54.16Z</time></trkpt><trkpt lat="45.8142867" lon="8.7026667"><ele>252.0</ele><time>2026-03-22T11:36:55.16Z</time></trkpt><trkpt lat="45.8143433" lon="8.702505"><ele>252.0</ele><time>2026-03-22T11:36:56.159Z</time></trkpt><trkpt lat="45.814415" lon="8.70233"><ele>252.0</ele><time>2026-03-22T11:36:57.159Z</time></trkpt><trkpt lat="45.8144867" lon="8.7021617"><ele>252.0</ele><time>2026-03-22T11:36:58.159Z</time></trkpt><trkpt lat="45.814555" lon="8.702015"><ele>252.0</ele><time>2026-03-22T11:36:59.16Z</time></trkpt><trkpt lat="45.8146133" lon="8.7019067"><ele>252.0</ele><time>2026-03-22T11:37:00.159Z</time></trkpt><trkpt lat="45.81467" lon="8.7018233"><ele>252.0</ele><time>2026-03-22T11:37:01.16Z</time></trkpt><trkpt lat="45.81473" lon="8.7017667"><ele>251.39999999999998</ele><time>2026-03-22T11:37:02.159Z</time></trkpt><trkpt lat="45.8148333" lon="8.7017267"><ele>250.79999999999998</ele><time>2026-03-22T11:37:04.159Z</time></trkpt><trkpt lat="45.81488" lon="8.70161"><ele>250.2</ele><time>2026-03-22T11:37:08.159Z</time></trkpt><trkpt lat="45.81493" lon="8.701415"><ele>249.6</ele><time>2026-03-22T11:37:10.16Z</time></trkpt><trkpt lat="45.81498" lon="8.7013067"><ele>249.0</ele><time>2026-03-22T11:37:11.159Z</time></trkpt><trkpt lat="45.8150467" lon="8.7012"><ele>249.0</ele><time>2026-03-22T11:37:12.159Z</time></trkpt><trkpt lat="45.8151417" lon="8.701105"><ele>248.99999999999997</ele><time>2026-03-22T11:37:13.16Z</time></trkpt><trkpt lat="45.8152367" lon="8.7010283"><ele>248.99999999999997</ele><time>2026-03-22T11:37:14.159Z</time></trkpt><trkpt lat="45.8153117" lon="8.700975"><ele>249.0</ele><time>2026-03-22T11:37:15.159Z</time></trkpt><trkpt lat="45.8153767" lon="8.7009233"><ele>249.0</ele><time>2026-03-22T11:37:16.16Z</time></trkpt><trkpt lat="45.81544" lon="8.7008683"><ele>249.66666666666666</ele><time>2026-03-22T11:37:17.16Z</time></trkpt><trkpt lat="45.8154867" lon="8.7007983"><ele>250.33333333333331</ele><time>2026-03-22T11:37:18.159Z</time></trkpt><trkpt lat="45.815545" lon="8.70066"><ele>251.0</ele><time>2026-03-22T11:37:20.16Z</time></trkpt><trkpt lat="45.8155967" lon="8.70059"><ele>251.66666666666666</ele><time>2026-03-22T11:37:23.159Z</time></trkpt><trkpt lat="45.8155333" lon="8.7004617"><ele>252.33333333333331</ele><time>2026-03-22T11:37:58.159Z</time></trkpt><trkpt lat="45.8154883" lon="8.7003983"><ele>253.0</ele><time>2026-03-22T11:37:59.159Z</time></trkpt><trkpt lat="45.815385" lon="8.7002983"><ele>253.2</ele><time>2026-03-22T11:38:01.16Z</time></trkpt><trkpt lat="45.8152617" lon="8.7002383"><ele>253.4</ele><time>2026-03-22T11:38:03.159Z</time></trkpt><trkpt lat="45.8151883" lon="8.700205"><ele>253.59999999999997</ele><time>2026-03-22T11:38:04.159Z</time></trkpt><trkpt lat="45.8150683" lon="8.70016"><ele>253.79999999999998</ele><time>2026-03-22T11:38:06.16Z</time></trkpt><trkpt lat="45.8149733" lon="8.7001383"><ele>254.0</ele><time>2026-03-22T11:38:08.159Z</time></trkpt><trkpt lat="45.8148433" lon="8.7001367"><ele>253.50000000000003</ele><time>2026-03-22T11:38:10.159Z</time></trkpt><trkpt lat="45.8147667" lon="8.7001283"><ele>253.0</ele><time>2026-03-22T11:38:11.159Z</time></trkpt><trkpt lat="45.814695" lon="8.7001283"><ele>252.5</ele><time>2026-03-22T11:38:12.159Z</time></trkpt><trkpt lat="45.8146317" lon="8.7001117"><ele>252.0</ele><time>2026-03-22T11:38:13.159Z</time></trkpt><trkpt lat="45.814555" lon="8.7000267"><ele>251.50000000000003</ele><time>2026-03-22T11:38:15.159Z</time></trkpt><trkpt lat="45.8145167" lon="8.6999117"><ele>251.0</ele><time>2026-03-22T11:38:17.159Z</time></trkpt><trkpt lat="45.8144883" lon="8.69979"><ele>251.00000000000003</ele><time>2026-03-22T11:38:19.159Z</time></trkpt><trkpt lat="45.81447" lon="8.69964"><ele>251.0</ele><time>2026-03-22T11:38:21.159Z</time></trkpt><trkpt lat="45.8144683" lon="8.6995483"><ele>251.0</ele><time>2026-03-22T11:38:22.16Z</time></trkpt><trkpt lat="45.814475" lon="8.699455"><ele>251.0</ele><time>2026-03-22T11:38:23.159Z</time></trkpt><trkpt lat="45.8144783" lon="8.6992917"><ele>251.00000000000003</ele><time>2026-03-22T11:38:25.159Z</time></trkpt><trkpt lat="45.8144883" lon="8.6991633"><ele>251.0</ele><time>2026-03-22T11:38:27.159Z</time></trkpt><trkpt lat="45.8144767" lon="8.6990567"><ele>251.0</ele><time>2026-03-22T11:38:29.16Z</time></trkpt><trkpt lat="45.8144117" lon="8.6989783"><ele>251.00000000000003</ele><time>2026-03-22T11:38:31.159Z</time></trkpt><trkpt lat="45.8143217" lon="8.6989317"><ele>251.00000000000003</ele><time>2026-03-22T11:38:33.16Z</time></trkpt><trkpt lat="45.81423" lon="8.6988783"><ele>251.0</ele><time>2026-03-22T11:38:35.159Z</time></trkpt><trkpt lat="45.81412" lon="8.6988133"><ele>251.0</ele><time>2026-03-22T11:38:37.159Z</time></trkpt><trkpt lat="45.81401" lon="8.698765"><ele>249.8</ele><time>2026-03-22T11:38:39.159Z</time></trkpt><trkpt lat="45.81393" lon="8.6987383"><ele>248.60000000000002</ele><time>2026-03-22T11:38:41.16Z</time></trkpt><trkpt lat="45.813895" lon="8.6986567"><ele>247.4</ele><time>2026-03-22T11:38:44.159Z</time></trkpt><trkpt lat="45.8139167" lon="8.6985267"><ele>246.2</ele><time>2026-03-22T11:38:46.159Z</time></trkpt><trkpt lat="45.8139733" lon="8.698385"><ele>245.0</ele><time>2026-03-22T11:38:48.159Z</time></trkpt><trkpt lat="45.8140367" lon="8.6982217"><ele>244.66666666666669</ele><time>2026-03-22T11:38:50.16Z</time></trkpt><trkpt lat="45.81408" lon="8.698045"><ele>244.33333333333334</ele><time>2026-03-22T11:38:52.16Z</time></trkpt><trkpt lat="45.81409" lon="8.6979517"><ele>244.0</ele><time>2026-03-22T11:38:53.16Z</time></trkpt><trkpt lat="45.8141067" lon="8.6978"><ele>243.66666666666669</ele><time>2026-03-22T11:38:55.159Z</time></trkpt><trkpt lat="45.8141217" lon="8.6977117"><ele>243.33333333333334</ele><time>2026-03-22T11:38:56.159Z</time></trkpt><trkpt lat="45.814145" lon="8.69762"><ele>243.0</ele><time>2026-03-22T11:38:57.16Z</time></trkpt><trkpt lat="45.8141633" lon="8.6975067"><ele>242.60000000000002</ele><time>2026-03-22T11:38:58.159Z</time></trkpt><trkpt lat="45.8141917" lon="8.6973933"><ele>242.20000000000002</ele><time>2026-03-22T11:38:59.159Z</time></trkpt><trkpt lat="45.8142283" lon="8.6972683"><ele>241.8</ele><time>2026-03-22T11:39:00.159Z</time></trkpt><trkpt lat="45.8142717" lon="8.6971433"><ele>241.4</ele><time>2026-03-22T11:39:01.16Z</time></trkpt><trkpt lat="45.8143183" lon="8.6970067"><ele>241.0</ele><time>2026-03-22T11:39:02.16Z</time></trkpt><trkpt lat="45.8143517" lon="8.6968833"><ele>241.0</ele><time>2026-03-22T11:39:03.159Z</time></trkpt><trkpt lat="45.81439" lon="8.6967883"><ele>241.00000000000003</ele><time>2026-03-22T11:39:04.159Z</time></trkpt><trkpt lat="45.8144333" lon="8.6966517"><ele>241.00000000000003</ele><time>2026-03-22T11:39:06.159Z</time></trkpt><trkpt lat="45.814425" lon="8.69646"><ele>241.0</ele><time>2026-03-22T11:39:16.16Z</time></trkpt><trkpt lat="45.8144417" lon="8.6962833"><ele>241.0</ele><time>2026-03-22T11:39:18.159Z</time></trkpt><trkpt lat="45.814455" lon="8.6961233"><ele>240.83333333333331</ele><time>2026-03-22T11:39:20.159Z</time></trkpt><trkpt lat="45.8144683" lon="8.6959617"><ele>240.66666666666666</ele><time>2026-03-22T11:39:22.159Z</time></trkpt><trkpt lat="45.81445" lon="8.695815"><ele>240.5</ele><time>2026-03-22T11:39:24.16Z</time></trkpt><trkpt lat="45.8144417" lon="8.69572"><ele>240.33333333333331</ele><time>2026-03-22T11:39:26.159Z</time></trkpt><trkpt lat="45.8145067" lon="8.6956867"><ele>240.16666666666666</ele><time>2026-03-22T11:39:30.159Z</time></trkpt><trkpt lat="45.8145467" lon="8.6956167"><ele>240.0</ele><time>2026-03-22T11:39:33.159Z</time></trkpt><trkpt lat="45.8145983" lon="8.6955467"><ele>240.0</ele><time>2026-03-22T11:39:36.16Z</time></trkpt><trkpt lat="45.8146417" lon="8.6954167"><ele>240.0</ele><time>2026-03-22T11:39:39.159Z</time></trkpt><trkpt lat="45.8146683" lon="8.6952767"><ele>240.0</ele><time>2026-03-22T11:39:41.159Z</time></trkpt><trkpt lat="45.814695" lon="8.6951567"><ele>240.0</ele><time>2026-03-22T11:39:43.159Z</time></trkpt><trkpt lat="45.8147233" lon="8.69505"><ele>240.0</ele><time>2026-03-22T11:39:45.159Z</time></trkpt><trkpt lat="45.814735" lon="8.6949583"><ele>240.0</ele><time>2026-03-22T11:39:48.16Z</time></trkpt><trkpt lat="45.8148" lon="8.6947883"><ele>239.66666666666666</ele><time>2026-03-22T11:40:07.159Z</time></trkpt><trkpt lat="45.8148517" lon="8.69472"><ele>239.33333333333331</ele><time>2026-03-22T11:40:08.159Z</time></trkpt><trkpt lat="45.81491" lon="8.69464"><ele>239.0</ele><time>2026-03-22T11:40:09.159Z</time></trkpt><trkpt lat="45.814965" lon="8.6945483"><ele>238.66666666666666</ele><time>2026-03-22T11:40:10.16Z</time></trkpt><trkpt lat="45.8150183" lon="8.6944417"><ele>238.33333333333331</ele><time>2026-03-22T11:40:11.159Z</time></trkpt><trkpt lat="45.8150617" lon="8.6943433"><ele>238.0</ele><time>2026-03-22T11:40:12.16Z</time></trkpt><trkpt lat="45.8150983" lon="8.6942517"><ele>238.16666666666666</ele><time>2026-03-22T11:40:13.159Z</time></trkpt><trkpt lat="45.8151667" lon="8.6941"><ele>238.33333333333331</ele><time>2026-03-22T11:40:15.159Z</time></trkpt><trkpt lat="45.8152183" lon="8.69404"><ele>238.5</ele><time>2026-03-22T11:40:16.159Z</time></trkpt><trkpt lat="45.81529" lon="8.6939717"><ele>238.66666666666669</ele><time>2026-03-22T11:40:17.16Z</time></trkpt><trkpt lat="45.8153533" lon="8.69391"><ele>238.83333333333334</ele><time>2026-03-22T11:40:18.159Z</time></trkpt><trkpt lat="45.8154033" lon="8.69385"><ele>239.0</ele><time>2026-03-22T11:40:19.159Z</time></trkpt><trkpt lat="45.8154517" lon="8.693785"><ele>239.0</ele><time>2026-03-22T11:40:20.159Z</time></trkpt><trkpt lat="45.8154983" lon="8.6937083"><ele>238.99999999999997</ele><time>2026-03-22T11:40:21.159Z</time></trkpt><trkpt lat="45.8155333" lon="8.69363"><ele>238.99999999999997</ele><time>2026-03-22T11:40:22.159Z</time></trkpt><trkpt lat="45.81555" lon="8.69348"><ele>239.0</ele><time>2026-03-22T11:40:24.159Z</time></trkpt><trkpt lat="45.815475" lon="8.6933233"><ele>239.0</ele><time>2026-03-22T11:40:26.159Z</time></trkpt><trkpt lat="45.8154267" lon="8.6932383"><ele>238.79999999999998</ele><time>2026-03-22T11:40:27.159Z</time></trkpt><trkpt lat="45.8153583" lon="8.693145"><ele>238.59999999999997</ele><time>2026-03-22T11:40:28.16Z</time></trkpt><trkpt lat="45.815295" lon="8.6930517"><ele>238.4</ele><time>2026-03-22T11:40:29.16Z</time></trkpt><trkpt lat="45.8152133" lon="8.6929567"><ele>238.2</ele><time>2026-03-22T11:40:30.16Z</time></trkpt><trkpt lat="45.8151267" lon="8.6928667"><ele>238.0</ele><time>2026-03-22T11:40:31.16Z</time></trkpt><trkpt lat="45.8150417" lon="8.692795"><ele>237.83333333333331</ele><time>2026-03-22T11:40:32.159Z</time></trkpt><trkpt lat="45.8149717" lon="8.69273"><ele>237.66666666666666</ele><time>2026-03-22T11:40:33.159Z</time></trkpt><trkpt lat="45.81491" lon="8.6926917"><ele>237.5</ele><time>2026-03-22T11:40:34.159Z</time></trkpt><trkpt lat="45.81479" lon="8.692715"><ele>237.33333333333331</ele><time>2026-03-22T11:40:36.16Z</time></trkpt><trkpt lat="45.814725" lon="8.6927667"><ele>237.16666666666666</ele><time>2026-03-22T11:40:37.159Z</time></trkpt><trkpt lat="45.8146483" lon="8.692855"><ele>237.0</ele><time>2026-03-22T11:40:38.159Z</time></trkpt><trkpt lat="45.8145583" lon="8.692955"><ele>237.0</ele><time>2026-03-22T11:40:39.159Z</time></trkpt><trkpt lat="45.8144417" lon="8.6930833"><ele>237.0</ele><time>2026-03-22T11:40:40.159Z</time></trkpt><trkpt lat="45.81431" lon="8.6932117"><ele>237.0</ele><time>2026-03-22T11:40:41.159Z</time></trkpt><trkpt lat="45.8141833" lon="8.69333"><ele>237.0</ele><time>2026-03-22T11:40:42.159Z</time></trkpt><trkpt lat="45.814065" lon="8.69344"><ele>237.0</ele><time>2026-03-22T11:40:43.16Z</time></trkpt><trkpt lat="45.8139667" lon="8.6935567"><ele>237.0</ele><time>2026-03-22T11:40:44.16Z</time></trkpt><trkpt lat="45.81387" lon="8.693665"><ele>237.0</ele><time>2026-03-22T11:40:45.159Z</time></trkpt><trkpt lat="45.8137783" lon="8.6937717"><ele>236.8</ele><time>2026-03-22T11:40:46.159Z</time></trkpt><trkpt lat="45.8136867" lon="8.693875"><ele>236.6</ele><time>2026-03-22T11:40:47.159Z</time></trkpt><trkpt lat="45.8135967" lon="8.6939683"><ele>236.40000000000003</ele><time>2026-03-22T11:40:48.159Z</time></trkpt><trkpt lat="45.8135" lon="8.69405"><ele>236.20000000000002</ele><time>2026-03-22T11:40:49.16Z</time></trkpt><trkpt lat="45.8134133" lon="8.6941267"><ele>236.0</ele><time>2026-03-22T11:40:50.16Z</time></trkpt><trkpt lat="45.813335" lon="8.6941967"><ele>236.0</ele><time>2026-03-22T11:40:51.159Z</time></trkpt><trkpt lat="45.81325" lon="8.6942683"><ele>236.00000000000003</ele><time>2026-03-22T11:40:52.159Z</time></trkpt><trkpt lat="45.8131633" lon="8.69434"><ele>236.00000000000003</ele><time>2026-03-22T11:40:53.159Z</time></trkpt><trkpt lat="45.8130733" lon="8.6944033"><ele>236.0</ele><time>2026-03-22T11:40:54.16Z</time></trkpt><trkpt lat="45.8129917" lon="8.694445"><ele>236.0</ele><time>2026-03-22T11:40:55.159Z</time></trkpt><trkpt lat="45.8129217" lon="8.694485"><ele>236.00000000000003</ele><time>2026-03-22T11:40:56.159Z</time></trkpt><trkpt lat="45.81285" lon="8.694535"><ele>236.0</ele><time>2026-03-22T11:40:57.159Z</time></trkpt><trkpt lat="45.8127817" lon="8.694595"><ele>236.0</ele><time>2026-03-22T11:40:58.159Z</time></trkpt><trkpt lat="45.812705" lon="8.6946633"><ele>236.0</ele><time>2026-03-22T11:40:59.159Z</time></trkpt><trkpt lat="45.8126267" lon="8.694725"><ele>236.00000000000003</ele><time>2026-03-22T11:41:00.159Z</time></trkpt><trkpt lat="45.8125383" lon="8.6947867"><ele>236.0</ele><time>2026-03-22T11:41:01.159Z</time></trkpt><trkpt lat="45.8124467" lon="8.6948533"><ele>236.00000000000003</ele><time>2026-03-22T11:41:02.159Z</time></trkpt><trkpt lat="45.812355" lon="8.6949167"><ele>236.0</ele><time>2026-03-22T11:41:03.159Z</time></trkpt><trkpt lat="45.8122867" lon="8.6949867"><ele>236.0</ele><time>2026-03-22T11:41:04.159Z</time></trkpt><trkpt lat="45.8122167" lon="8.69505"><ele>236.0</ele><time>2026-03-22T11:41:05.159Z</time></trkpt><trkpt lat="45.8121633" lon="8.6951"><ele>236.00000000000003</ele><time>2026-03-22T11:41:06.159Z</time></trkpt><trkpt lat="45.8121" lon="8.695145"><ele>236.0</ele><time>2026-03-22T11:41:07.159Z</time></trkpt><trkpt lat="45.8120367" lon="8.6951883"><ele>236.0</ele><time>2026-03-22T11:41:08.159Z</time></trkpt><trkpt lat="45.8119617" lon="8.6952333"><ele>236.00000000000003</ele><time>2026-03-22T11:41:09.159Z</time></trkpt><trkpt lat="45.8118833" lon="8.6952833"><ele>236.00000000000003</ele><time>2026-03-22T11:41:10.159Z</time></trkpt><trkpt lat="45.8117833" lon="8.6953483"><ele>236.0</ele><time>2026-03-22T11:41:11.16Z</time></trkpt><trkpt lat="45.8116733" lon="8.695415"><ele>236.0</ele><time>2026-03-22T11:41:12.159Z</time></trkpt><trkpt lat="45.811575" lon="8.6954717"><ele>236.5</ele><time>2026-03-22T11:41:13.159Z</time></trkpt><trkpt lat="45.8114633" lon="8.695525"><ele>237.0</ele><time>2026-03-22T11:41:14.159Z</time></trkpt><trkpt lat="45.81134" lon="8.6955833"><ele>237.5</ele><time>2026-03-22T11:41:15.159Z</time></trkpt><trkpt lat="45.8112117" lon="8.6956483"><ele>238.0</ele><time>2026-03-22T11:41:16.159Z</time></trkpt><trkpt lat="45.8110817" lon="8.6956983"><ele>240.0</ele><time>2026-03-22T11:41:17.16Z</time></trkpt><trkpt lat="45.81096" lon="8.6957533"><ele>242.0</ele><time>2026-03-22T11:41:18.159Z</time></trkpt><trkpt lat="45.8108567" lon="8.6958233"><ele>244.0</ele><time>2026-03-22T11:41:19.159Z</time></trkpt><trkpt lat="45.8107567" lon="8.69591"><ele>246.0</ele><time>2026-03-22T11:41:20.159Z</time></trkpt><trkpt lat="45.8106517" lon="8.6959933"><ele>246.0</ele><time>2026-03-22T11:41:21.159Z</time></trkpt><trkpt lat="45.8105567" lon="8.6960417"><ele>246.00000000000003</ele><time>2026-03-22T11:41:22.16Z</time></trkpt><trkpt lat="45.810485" lon="8.6960783"><ele>246.00000000000003</ele><time>2026-03-22T11:41:23.159Z</time></trkpt><trkpt lat="45.8103967" lon="8.6961183"><ele>246.0</ele><time>2026-03-22T11:41:25.159Z</time></trkpt><trkpt lat="45.8103717" lon="8.6959867"><ele>246.0</ele><time>2026-03-22T11:41:30.16Z</time></trkpt><trkpt lat="45.8103633" lon="8.6958533"><ele>246.0</ele><time>2026-03-22T11:41:32.159Z</time></trkpt><trkpt lat="45.8102767" lon="8.6958017"><ele>246.0</ele><time>2026-03-22T11:41:34.16Z</time></trkpt><trkpt lat="45.810185" lon="8.6958"><ele>246.0</ele><time>2026-03-22T11:41:36.159Z</time></trkpt><trkpt lat="45.8101283" lon="8.6956883"><ele>246.0</ele><time>2026-03-22T11:41:39.16Z</time></trkpt><trkpt lat="45.8101167" lon="8.6955983"><ele>246.0</ele><time>2026-03-22T11:41:40.16Z</time></trkpt><trkpt lat="45.8101083" lon="8.6954667"><ele>246.0</ele><time>2026-03-22T11:41:41.16Z</time></trkpt><trkpt lat="45.8100867" lon="8.695305"><ele>246.75</ele><time>2026-03-22T11:41:42.159Z</time></trkpt><trkpt lat="45.8100467" lon="8.6951367"><ele>247.5</ele><time>2026-03-22T11:41:43.16Z</time></trkpt><trkpt lat="45.809995" lon="8.6949783"><ele>248.25</ele><time>2026-03-22T11:41:44.159Z</time></trkpt><trkpt lat="45.8099467" lon="8.69483"><ele>249.0</ele><time>2026-03-22T11:41:45.16Z</time></trkpt><trkpt lat="45.8099067" lon="8.6946917"><ele>249.0</ele><time>2026-03-22T11:41:46.159Z</time></trkpt><trkpt lat="45.809875" lon="8.6945767"><ele>248.99999999999997</ele><time>2026-03-22T11:41:47.16Z</time></trkpt><trkpt lat="45.8098483" lon="8.6944667"><ele>248.99999999999997</ele><time>2026-03-22T11:41:48.159Z</time></trkpt><trkpt lat="45.8098367" lon="8.69437"><ele>249.0</ele><time>2026-03-22T11:41:49.159Z</time></trkpt><trkpt lat="45.809885" lon="8.6942283"><ele>249.0</ele><time>2026-03-22T11:41:51.159Z</time></trkpt><trkpt lat="45.8099967" lon="8.694155"><ele>248.66666666666666</ele><time>2026-03-22T11:41:53.159Z</time></trkpt><trkpt lat="45.8100767" lon="8.69411"><ele>248.33333333333331</ele><time>2026-03-22T11:41:54.16Z</time></trkpt><trkpt lat="45.8101633" lon="8.694065"><ele>248.0</ele><time>2026-03-22T11:41:55.159Z</time></trkpt><trkpt lat="45.810225" lon="8.6940117"><ele>247.66666666666666</ele><time>2026-03-22T11:41:56.159Z</time></trkpt><trkpt lat="45.810285" lon="8.69393"><ele>247.33333333333331</ele><time>2026-03-22T11:41:57.159Z</time></trkpt><trkpt lat="45.8103433" lon="8.6938383"><ele>247.0</ele><time>2026-03-22T11:41:58.159Z</time></trkpt><trkpt lat="45.8104067" lon="8.69374"><ele>247.0</ele><time>2026-03-22T11:41:59.16Z</time></trkpt><trkpt lat="45.810485" lon="8.6936367"><ele>247.0</ele><time>2026-03-22T11:42:00.159Z</time></trkpt><trkpt lat="45.810555" lon="8.6935217"><ele>247.0</ele><time>2026-03-22T11:42:01.159Z</time></trkpt><trkpt lat="45.8106117" lon="8.6934067"><ele>247.0</ele><time>2026-03-22T11:42:02.159Z</time></trkpt><trkpt lat="45.8106767" lon="8.6932733"><ele>247.0</ele><time>2026-03-22T11:42:03.159Z</time></trkpt><trkpt lat="45.81076" lon="8.69314"><ele>247.0</ele><time>2026-03-22T11:42:04.159Z</time></trkpt><trkpt lat="45.8108333" lon="8.6930167"><ele>247.0</ele><time>2026-03-22T11:42:05.16Z</time></trkpt><trkpt lat="45.8109117" lon="8.6929167"><ele>247.0</ele><time>2026-03-22T11:42:06.159Z</time></trkpt><trkpt lat="45.8109867" lon="8.6928383"><ele>247.0</ele><time>2026-03-22T11:42:07.159Z</time></trkpt><trkpt lat="45.8110633" lon="8.6927783"><ele>247.0</ele><time>2026-03-22T11:42:08.159Z</time></trkpt><trkpt lat="45.8111467" lon="8.6927333"><ele>246.99999999999997</ele><time>2026-03-22T11:42:09.159Z</time></trkpt><trkpt lat="45.81124" lon="8.6926967"><ele>247.0</ele><time>2026-03-22T11:42:10.16Z</time></trkpt><trkpt lat="45.8113433" lon="8.6926617"><ele>247.0</ele><time>2026-03-22T11:42:11.159Z</time></trkpt><trkpt lat="45.8114317" lon="8.6926383"><ele>247.0</ele><time>2026-03-22T11:42:12.159Z</time></trkpt><trkpt lat="45.8115083" lon="8.692625"><ele>246.99999999999997</ele><time>2026-03-22T11:42:13.159Z</time></trkpt><trkpt lat="45.811575" lon="8.6926133"><ele>247.0</ele><time>2026-03-22T11:42:14.159Z</time></trkpt><trkpt lat="45.8116383" lon="8.6926017"><ele>247.0</ele><time>2026-03-22T11:42:15.159Z</time></trkpt><trkpt lat="45.8117567" lon="8.6925467"><ele>247.0</ele><time>2026-03-22T11:42:17.159Z</time></trkpt><trkpt lat="45.8118267" lon="8.6924667"><ele>247.0</ele><time>2026-03-22T11:42:18.159Z</time></trkpt><trkpt lat="45.8119033" lon="8.6923667"><ele>247.0</ele><time>2026-03-22T11:42:19.159Z</time></trkpt><trkpt lat="45.8119783" lon="8.6922583"><ele>247.0</ele><time>2026-03-22T11:42:20.159Z</time></trkpt><trkpt lat="45.8120533" lon="8.6921667"><ele>245.39999999999998</ele><time>2026-03-22T11:42:21.159Z</time></trkpt><trkpt lat="45.8121267" lon="8.6920917"><ele>243.79999999999998</ele><time>2026-03-22T11:42:22.16Z</time></trkpt><trkpt lat="45.81219" lon="8.6920333"><ele>242.2</ele><time>2026-03-22T11:42:23.16Z</time></trkpt><trkpt lat="45.81228" lon="8.6919567"><ele>240.6</ele><time>2026-03-22T11:42:25.16Z</time></trkpt><trkpt lat="45.8123067" lon="8.6918633"><ele>239.0</ele><time>2026-03-22T11:42:27.159Z</time></trkpt><trkpt lat="45.8122483" lon="8.6916983"><ele>239.00000000000003</ele><time>2026-03-22T11:42:29.159Z</time></trkpt><trkpt lat="45.8122117" lon="8.6915983"><ele>239.0</ele><time>2026-03-22T11:42:30.16Z</time></trkpt><trkpt lat="45.81217" lon="8.6914833"><ele>239.0</ele><time>2026-03-22T11:42:31.16Z</time></trkpt><trkpt lat="45.8121233" lon="8.6913817"><ele>239.0</ele><time>2026-03-22T11:42:32.16Z</time></trkpt><trkpt lat="45.8120617" lon="8.691295"><ele>239.00000000000003</ele><time>2026-03-22T11:42:33.16Z</time></trkpt><trkpt lat="45.811985" lon="8.6912217"><ele>239.0</ele><time>2026-03-22T11:42:34.16Z</time></trkpt><trkpt lat="45.8119183" lon="8.6911533"><ele>238.83333333333334</ele><time>2026-03-22T11:42:35.16Z</time></trkpt><trkpt lat="45.811865" lon="8.6910783"><ele>238.66666666666669</ele><time>2026-03-22T11:42:36.159Z</time></trkpt><trkpt lat="45.8118333" lon="8.6909917"><ele>238.5</ele><time>2026-03-22T11:42:37.16Z</time></trkpt><trkpt lat="45.811835" lon="8.69088"><ele>238.33333333333331</ele><time>2026-03-22T11:42:38.159Z</time></trkpt><trkpt lat="45.81186" lon="8.69077"><ele>238.16666666666666</ele><time>2026-03-22T11:42:39.16Z</time></trkpt><trkpt lat="45.8118933" lon="8.6906833"><ele>238.0</ele><time>2026-03-22T11:42:40.159Z</time></trkpt><trkpt lat="45.8119583" lon="8.690585"><ele>238.0</ele><time>2026-03-22T11:42:42.159Z</time></trkpt><trkpt lat="45.812065" lon="8.69057"><ele>238.0</ele><time>2026-03-22T11:42:44.16Z</time></trkpt><trkpt lat="45.8121767" lon="8.6904983"><ele>238.0</ele><time>2026-03-22T11:42:46.16Z</time></trkpt><trkpt lat="45.812225" lon="8.690435"><ele>238.0</ele><time>2026-03-22T11:42:47.159Z</time></trkpt><trkpt lat="45.8122467" lon="8.6903317"><ele>238.0</ele><time>2026-03-22T11:42:48.16Z</time></trkpt><trkpt lat="45.81225" lon="8.6902117"><ele>237.83333333333331</ele><time>2026-03-22T11:42:49.159Z</time></trkpt><trkpt lat="45.812235" lon="8.6901017"><ele>237.66666666666666</ele><time>2026-03-22T11:42:50.159Z</time></trkpt><trkpt lat="45.8122317" lon="8.689995"><ele>237.5</ele><time>2026-03-22T11:42:51.159Z</time></trkpt><trkpt lat="45.812225" lon="8.68989"><ele>237.33333333333331</ele><time>2026-03-22T11:42:52.159Z</time></trkpt><trkpt lat="45.8122417" lon="8.689775"><ele>237.16666666666666</ele><time>2026-03-22T11:42:53.16Z</time></trkpt><trkpt lat="45.8122733" lon="8.6896367"><ele>237.0</ele><time>2026-03-22T11:42:54.159Z</time></trkpt><trkpt lat="45.8123083" lon="8.6894983"><ele>238.6</ele><time>2026-03-22T11:42:55.16Z</time></trkpt><trkpt lat="45.8123433" lon="8.689375"><ele>240.2</ele><time>2026-03-22T11:42:56.16Z</time></trkpt><trkpt lat="45.8123667" lon="8.68927"><ele>241.8</ele><time>2026-03-22T11:42:57.159Z</time></trkpt><trkpt lat="45.8123867" lon="8.689105"><ele>243.4</ele><time>2026-03-22T11:42:59.159Z</time></trkpt><trkpt lat="45.8123717" lon="8.6889733"><ele>245.0</ele><time>2026-03-22T11:43:01.159Z</time></trkpt><trkpt lat="45.812415" lon="8.6888567"><ele>245.00000000000003</ele><time>2026-03-22T11:43:03.159Z</time></trkpt><trkpt lat="45.812515" lon="8.6887633"><ele>245.0</ele><time>2026-03-22T11:43:05.159Z</time></trkpt><trkpt lat="45.812595" lon="8.6887333"><ele>245.0</ele><time>2026-03-22T11:43:06.159Z</time></trkpt><trkpt lat="45.8126767" lon="8.688705"><ele>245.0</ele><time>2026-03-22T11:43:07.159Z</time></trkpt><trkpt lat="45.81275" lon="8.6886617"><ele>245.00000000000003</ele><time>2026-03-22T11:43:08.159Z</time></trkpt><trkpt lat="45.8128117" lon="8.6885967"><ele>245.0</ele><time>2026-03-22T11:43:09.159Z</time></trkpt><trkpt lat="45.8128633" lon="8.6885117"><ele>244.00000000000003</ele><time>2026-03-22T11:43:10.16Z</time></trkpt><trkpt lat="45.81291" lon="8.688415"><ele>243.0</ele><time>2026-03-22T11:43:11.16Z</time></trkpt><trkpt lat="45.8129583" lon="8.68833"><ele>242.0</ele><time>2026-03-22T11:43:12.16Z</time></trkpt><trkpt lat="45.813005" lon="8.6882633"><ele>241.0</ele><time>2026-03-22T11:43:13.159Z</time></trkpt><trkpt lat="45.81308" lon="8.6881883"><ele>240.00000000000003</ele><time>2026-03-22T11:43:15.159Z</time></trkpt><trkpt lat="45.8131483" lon="8.6881317"><ele>239.0</ele><time>2026-03-22T11:43:17.159Z</time></trkpt><trkpt lat="45.813215" lon="8.688095"><ele>239.00000000000003</ele><time>2026-03-22T11:43:19.159Z</time></trkpt><trkpt lat="45.8132833" lon="8.6880683"><ele>239.0</ele><time>2026-03-22T11:43:21.159Z</time></trkpt><trkpt lat="45.8133583" lon="8.688015"><ele>239.0</ele><time>2026-03-22T11:43:24.16Z</time></trkpt><trkpt lat="45.813405" lon="8.6879083"><ele>239.0</ele><time>2026-03-22T11:43:26.159Z</time></trkpt><trkpt lat="45.813445" lon="8.687815"><ele>239.00000000000003</ele><time>2026-03-22T11:43:28.159Z</time></trkpt><trkpt lat="45.8135067" lon="8.6877083"><ele>239.0</ele><time>2026-03-22T11:43:30.16Z</time></trkpt><trkpt lat="45.8135483" lon="8.6876333"><ele>238.6</ele><time>2026-03-22T11:43:31.16Z</time></trkpt><trkpt lat="45.8135983" lon="8.6875483"><ele>238.2</ele><time>2026-03-22T11:43:32.159Z</time></trkpt><trkpt lat="45.8136617" lon="8.6874417"><ele>237.79999999999998</ele><time>2026-03-22T11:43:33.159Z</time></trkpt><trkpt lat="45.81373" lon="8.6873267"><ele>237.39999999999998</ele><time>2026-03-22T11:43:34.16Z</time></trkpt><trkpt lat="45.8138067" lon="8.6872133"><ele>237.0</ele><time>2026-03-22T11:43:35.159Z</time></trkpt><trkpt lat="45.8138783" lon="8.6871133"><ele>237.0</ele><time>2026-03-22T11:43:36.16Z</time></trkpt><trkpt lat="45.8139417" lon="8.6870233"><ele>237.0</ele><time>2026-03-22T11:43:37.159Z</time></trkpt><trkpt lat="45.813995" lon="8.68695"><ele>237.0</ele><time>2026-03-22T11:43:38.159Z</time></trkpt><trkpt lat="45.8140317" lon="8.6868033"><ele>237.0</ele><time>2026-03-22T11:43:40.159Z</time></trkpt><trkpt lat="45.8140317" lon="8.6867017"><ele>237.0</ele><time>2026-03-22T11:43:41.159Z</time></trkpt><trkpt lat="45.8140333" lon="8.686565"><ele>237.0</ele><time>2026-03-22T11:43:42.16Z</time></trkpt><trkpt lat="45.8140167" lon="8.68639"><ele>236.75</ele><time>2026-03-22T11:43:43.16Z</time></trkpt><trkpt lat="45.81398" lon="8.6861933"><ele>236.5</ele><time>2026-03-22T11:43:44.159Z</time></trkpt><trkpt lat="45.81394" lon="8.6859783"><ele>236.25</ele><time>2026-03-22T11:43:45.159Z</time></trkpt><trkpt lat="45.8139067" lon="8.6857917"><ele>236.0</ele><time>2026-03-22T11:43:46.159Z</time></trkpt><trkpt lat="45.8138917" lon="8.6856283"><ele>236.00000000000003</ele><time>2026-03-22T11:43:47.159Z</time></trkpt><trkpt lat="45.8138917" lon="8.6854917"><ele>236.0</ele><time>2026-03-22T11:43:48.159Z</time></trkpt><trkpt lat="45.8139167" lon="8.6853733"><ele>236.0</ele><time>2026-03-22T11:43:49.159Z</time></trkpt><trkpt lat="45.8139433" lon="8.6852717"><ele>236.0</ele><time>2026-03-22T11:43:50.159Z</time></trkpt><trkpt lat="45.8139783" lon="8.6851883"><ele>236.00000000000003</ele><time>2026-03-22T11:43:51.16Z</time></trkpt><trkpt lat="45.81402" lon="8.68512"><ele>236.0</ele><time>2026-03-22T11:43:52.16Z</time></trkpt><trkpt lat="45.8141033" lon="8.6850017"><ele>236.0</ele><time>2026-03-22T11:43:54.16Z</time></trkpt><trkpt lat="45.8141783" lon="8.6848983"><ele>236.00000000000003</ele><time>2026-03-22T11:43:56.159Z</time></trkpt><trkpt lat="45.81426" lon="8.6848017"><ele>236.00000000000003</ele><time>2026-03-22T11:43:58.159Z</time></trkpt><trkpt lat="45.8143633" lon="8.6846617"><ele>236.0</ele><time>2026-03-22T11:44:00.159Z</time></trkpt><trkpt lat="45.8144283" lon="8.68457"><ele>236.0</ele><time>2026-03-22T11:44:01.159Z</time></trkpt><trkpt lat="45.8145067" lon="8.68443"><ele>237.20000000000002</ele><time>2026-03-22T11:44:02.159Z</time></trkpt><trkpt lat="45.814585" lon="8.684285"><ele>238.40000000000003</ele><time>2026-03-22T11:44:03.159Z</time></trkpt><trkpt lat="45.81465" lon="8.6841617"><ele>239.6</ele><time>2026-03-22T11:44:04.159Z</time></trkpt><trkpt lat="45.8146967" lon="8.6840667"><ele>240.8</ele><time>2026-03-22T11:44:05.159Z</time></trkpt><trkpt lat="45.8147433" lon="8.6838983"><ele>242.0</ele><time>2026-03-22T11:44:07.16Z</time></trkpt><trkpt lat="45.81476" lon="8.683795"><ele>242.00000000000003</ele><time>2026-03-22T11:44:08.159Z</time></trkpt><trkpt lat="45.814775" lon="8.6836867"><ele>242.0</ele><time>2026-03-22T11:44:09.159Z</time></trkpt><trkpt lat="45.8148" lon="8.6835767"><ele>242.0</ele><time>2026-03-22T11:44:10.159Z</time></trkpt><trkpt lat="45.8148383" lon="8.6834733"><ele>242.0</ele><time>2026-03-22T11:44:11.159Z</time></trkpt><trkpt lat="45.8148933" lon="8.6833667"><ele>242.00000000000003</ele><time>2026-03-22T11:44:12.16Z</time></trkpt><trkpt lat="45.8149667" lon="8.683245"><ele>242.0</ele><time>2026-03-22T11:44:13.16Z</time></trkpt><trkpt lat="45.8150517" lon="8.6831283"><ele>242.0</ele><time>2026-03-22T11:44:14.159Z</time></trkpt><trkpt lat="45.815135" lon="8.68302"><ele>242.0</ele><time>2026-03-22T11:44:15.159Z</time></trkpt><trkpt lat="45.8152267" lon="8.6829317"><ele>242.0</ele><time>2026-03-22T11:44:16.159Z</time></trkpt><trkpt lat="45.8153217" lon="8.682855"><ele>242.0</ele><time>2026-03-22T11:44:17.159Z</time></trkpt><trkpt lat="45.8153817" lon="8.6828033"><ele>242.0</ele><time>2026-03-22T11:44:18.159Z</time></trkpt><trkpt lat="45.8154933" lon="8.6827033"><ele>240.6</ele><time>2026-03-22T11:44:20.159Z</time></trkpt><trkpt lat="45.81553" lon="8.6825333"><ele>239.2</ele><time>2026-03-22T11:44:22.159Z</time></trkpt><trkpt lat="45.8155217" lon="8.68241"><ele>237.8</ele><time>2026-03-22T11:44:23.159Z</time></trkpt><trkpt lat="45.8155017" lon="8.6822883"><ele>236.4</ele><time>2026-03-22T11:44:24.159Z</time></trkpt><trkpt lat="45.81547" lon="8.68217"><ele>235.0</ele><time>2026-03-22T11:44:25.16Z</time></trkpt><trkpt lat="45.8154367" lon="8.6820733"><ele>235.0</ele><time>2026-03-22T11:44:26.16Z</time></trkpt><trkpt lat="45.815445" lon="8.6819533"><ele>235.0</ele><time>2026-03-22T11:44:28.16Z</time></trkpt><trkpt lat="45.8155217" lon="8.681895"><ele>235.0</ele><time>2026-03-22T11:44:30.16Z</time></trkpt><trkpt lat="45.81561" lon="8.6818817"><ele>235.0</ele><time>2026-03-22T11:44:31.16Z</time></trkpt><trkpt lat="45.81574" lon="8.6818683"><ele>235.0</ele><time>2026-03-22T11:44:32.16Z</time></trkpt><trkpt lat="45.8158933" lon="8.6818533"><ele>235.0</ele><time>2026-03-22T11:44:33.159Z</time></trkpt><trkpt lat="45.8160483" lon="8.6818567"><ele>235.0</ele><time>2026-03-22T11:44:34.159Z</time></trkpt><trkpt lat="45.816215" lon="8.6818633"><ele>235.0</ele><time>2026-03-22T11:44:35.16Z</time></trkpt><trkpt lat="45.8163717" lon="8.6818667"><ele>235.0</ele><time>2026-03-22T11:44:36.16Z</time></trkpt><trkpt lat="45.816525" lon="8.681875"><ele>235.0</ele><time>2026-03-22T11:44:37.16Z</time></trkpt><trkpt lat="45.8166933" lon="8.681895"><ele>235.0</ele><time>2026-03-22T11:44:38.159Z</time></trkpt><trkpt lat="45.8168467" lon="8.6819083"><ele>235.0</ele><time>2026-03-22T11:44:39.16Z</time></trkpt><trkpt lat="45.8170067" lon="8.6819267"><ele>235.0</ele><time>2026-03-22T11:44:40.159Z</time></trkpt><trkpt lat="45.817155" lon="8.6819533"><ele>235.0</ele><time>2026-03-22T11:44:41.159Z</time></trkpt><trkpt lat="45.817285" lon="8.6820067"><ele>235.0</ele><time>2026-03-22T11:44:42.159Z</time></trkpt><trkpt lat="45.8174317" lon="8.6820783"><ele>234.66666666666666</ele><time>2026-03-22T11:44:43.159Z</time></trkpt><trkpt lat="45.8175717" lon="8.6821733"><ele>234.33333333333331</ele><time>2026-03-22T11:44:44.159Z</time></trkpt><trkpt lat="45.8177133" lon="8.6822633"><ele>234.0</ele><time>2026-03-22T11:44:45.16Z</time></trkpt><trkpt lat="45.8178633" lon="8.6823383"><ele>234.0</ele><time>2026-03-22T11:44:46.159Z</time></trkpt><trkpt lat="45.8179983" lon="8.6824083"><ele>234.0</ele><time>2026-03-22T11:44:47.159Z</time></trkpt><trkpt lat="45.8181167" lon="8.6824683"><ele>234.0</ele><time>2026-03-22T11:44:48.159Z</time></trkpt><trkpt lat="45.8182133" lon="8.6825167"><ele>234.0</ele><time>2026-03-22T11:44:49.16Z</time></trkpt><trkpt lat="45.8182983" lon="8.6825617"><ele>234.0</ele><time>2026-03-22T11:44:50.16Z</time></trkpt><trkpt lat="45.8183683" lon="8.6826117"><ele>234.00000000000003</ele><time>2026-03-22T11:44:51.159Z</time></trkpt><trkpt lat="45.8184283" lon="8.68266"><ele>234.0</ele><time>2026-03-22T11:44:52.159Z</time></trkpt><trkpt lat="45.8184883" lon="8.682695"><ele>234.0</ele><time>2026-03-22T11:44:53.16Z</time></trkpt><trkpt lat="45.8185533" lon="8.68274"><ele>234.00000000000003</ele><time>2026-03-22T11:44:54.159Z</time></trkpt><trkpt lat="45.81861" lon="8.6827883"><ele>234.0</ele><time>2026-03-22T11:44:55.159Z</time></trkpt><trkpt lat="45.8186817" lon="8.682885"><ele>234.0</ele><time>2026-03-22T11:44:57.159Z</time></trkpt><trkpt lat="45.81875" lon="8.68296"><ele>233.0</ele><time>2026-03-22T11:44:59.16Z</time></trkpt><trkpt lat="45.81884" lon="8.683065"><ele>232.0</ele><time>2026-03-22T11:45:01.159Z</time></trkpt><trkpt lat="45.8189117" lon="8.6831217"><ele>231.0</ele><time>2026-03-22T11:45:02.159Z</time></trkpt><trkpt lat="45.8190117" lon="8.6831933"><ele>230.0</ele><time>2026-03-22T11:45:03.159Z</time></trkpt><trkpt lat="45.81915" lon="8.6833033"><ele>230.0</ele><time>2026-03-22T11:45:04.159Z</time></trkpt><trkpt lat="45.8192967" lon="8.6834367"><ele>230.0</ele><time>2026-03-22T11:45:05.159Z</time></trkpt><trkpt lat="45.819435" lon="8.68356"><ele>230.0</ele><time>2026-03-22T11:45:06.159Z</time></trkpt><trkpt lat="45.81957" lon="8.6836617"><ele>229.75</ele><time>2026-03-22T11:45:07.159Z</time></trkpt><trkpt lat="45.8197" lon="8.6837567"><ele>229.5</ele><time>2026-03-22T11:45:08.16Z</time></trkpt><trkpt lat="45.8198283" lon="8.6838117"><ele>229.25</ele><time>2026-03-22T11:45:09.159Z</time></trkpt><trkpt lat="45.8199683" lon="8.6838467"><ele>229.0</ele><time>2026-03-22T11:45:10.159Z</time></trkpt><trkpt lat="45.8201067" lon="8.6838767"><ele>230.75</ele><time>2026-03-22T11:45:11.159Z</time></trkpt><trkpt lat="45.8202333" lon="8.68391"><ele>232.5</ele><time>2026-03-22T11:45:12.159Z</time></trkpt><trkpt lat="45.8203417" lon="8.68396"><ele>234.25</ele><time>2026-03-22T11:45:13.159Z</time></trkpt><trkpt lat="45.8204317" lon="8.6840417"><ele>236.0</ele><time>2026-03-22T11:45:14.16Z</time></trkpt><trkpt lat="45.8205117" lon="8.68414"><ele>236.0</ele><time>2026-03-22T11:45:15.159Z</time></trkpt><trkpt lat="45.8205917" lon="8.68425"><ele>236.00000000000003</ele><time>2026-03-22T11:45:16.159Z</time></trkpt><trkpt lat="45.8206667" lon="8.6843567"><ele>236.00000000000003</ele><time>2026-03-22T11:45:17.159Z</time></trkpt><trkpt lat="45.8207467" lon="8.684475"><ele>236.0</ele><time>2026-03-22T11:45:18.159Z</time></trkpt><trkpt lat="45.8208233" lon="8.68458"><ele>236.0</ele><time>2026-03-22T11:45:19.159Z</time></trkpt><trkpt lat="45.8208933" lon="8.6846683"><ele>237.4</ele><time>2026-03-22T11:45:20.159Z</time></trkpt><trkpt lat="45.8209533" lon="8.6847417"><ele>238.8</ele><time>2026-03-22T11:45:21.16Z</time></trkpt><trkpt lat="45.8210667" lon="8.68484"><ele>240.20000000000002</ele><time>2026-03-22T11:45:23.159Z</time></trkpt><trkpt lat="45.821135" lon="8.6848467"><ele>241.60000000000002</ele><time>2026-03-22T11:45:24.16Z</time></trkpt><trkpt lat="45.821205" lon="8.6848017"><ele>243.0</ele><time>2026-03-22T11:45:25.16Z</time></trkpt><trkpt lat="45.82129" lon="8.684745"><ele>243.5</ele><time>2026-03-22T11:45:26.159Z</time></trkpt><trkpt lat="45.8214" lon="8.68467"><ele>244.0</ele><time>2026-03-22T11:45:27.159Z</time></trkpt><trkpt lat="45.821505" lon="8.6845767"><ele>244.5</ele><time>2026-03-22T11:45:28.16Z</time></trkpt><trkpt lat="45.8216267" lon="8.6844667"><ele>245.0</ele><time>2026-03-22T11:45:29.159Z</time></trkpt><trkpt lat="45.8217367" lon="8.6843583"><ele>248.33333333333334</ele><time>2026-03-22T11:45:30.16Z</time></trkpt><trkpt lat="45.8218667" lon="8.6842617"><ele>251.66666666666669</ele><time>2026-03-22T11:45:31.16Z</time></trkpt><trkpt lat="45.8220033" lon="8.6841467"><ele>255.0</ele><time>2026-03-22T11:45:32.159Z</time></trkpt><trkpt lat="45.8221567" lon="8.6840167"><ele>255.0</ele><time>2026-03-22T11:45:33.159Z</time></trkpt><trkpt lat="45.8223083" lon="8.683885"><ele>255.0</ele><time>2026-03-22T11:45:34.159Z</time></trkpt><trkpt lat="45.8224667" lon="8.6837517"><ele>255.0</ele><time>2026-03-22T11:45:35.159Z</time></trkpt><trkpt lat="45.822605" lon="8.6836367"><ele>257.2</ele><time>2026-03-22T11:45:36.16Z</time></trkpt><trkpt lat="45.8227283" lon="8.6835433"><ele>259.4</ele><time>2026-03-22T11:45:37.159Z</time></trkpt><trkpt lat="45.82284" lon="8.68345"><ele>261.6</ele><time>2026-03-22T11:45:38.159Z</time></trkpt><trkpt lat="45.8229033" lon="8.683395"><ele>263.8</ele><time>2026-03-22T11:45:39.159Z</time></trkpt><trkpt lat="45.8229633" lon="8.6833533"><ele>266.0</ele><time>2026-03-22T11:45:40.159Z</time></trkpt><trkpt lat="45.82307" lon="8.6833167"><ele>266.0</ele><time>2026-03-22T11:45:42.16Z</time></trkpt><trkpt lat="45.8231533" lon="8.6834383"><ele>266.0</ele><time>2026-03-22T11:45:44.159Z</time></trkpt><trkpt lat="45.8232183" lon="8.68358"><ele>266.0</ele><time>2026-03-22T11:45:46.159Z</time></trkpt><trkpt lat="45.82319" lon="8.68377"><ele>266.0</ele><time>2026-03-22T11:45:48.159Z</time></trkpt><trkpt lat="45.8231383" lon="8.683895"><ele>268.0</ele><time>2026-03-22T11:45:49.159Z</time></trkpt><trkpt lat="45.8230817" lon="8.6840467"><ele>270.0</ele><time>2026-03-22T11:45:50.159Z</time></trkpt><trkpt lat="45.823005" lon="8.684235"><ele>272.0</ele><time>2026-03-22T11:45:51.159Z</time></trkpt><trkpt lat="45.8229233" lon="8.6844283"><ele>274.0</ele><time>2026-03-22T11:45:52.159Z</time></trkpt><trkpt lat="45.8228317" lon="8.68465"><ele>275.66666666666663</ele><time>2026-03-22T11:45:53.16Z</time></trkpt><trkpt lat="45.8227333" lon="8.68488"><ele>277.3333333333333</ele><time>2026-03-22T11:45:54.159Z</time></trkpt><trkpt lat="45.8226417" lon="8.68511"><ele>279.0</ele><time>2026-03-22T11:45:55.16Z</time></trkpt><trkpt lat="45.8225517" lon="8.6853233"><ele>279.0</ele><time>2026-03-22T11:45:56.16Z</time></trkpt><trkpt lat="45.8224617" lon="8.68553"><ele>279.0</ele><time>2026-03-22T11:45:57.159Z</time></trkpt><trkpt lat="45.8223917" lon="8.6857417"><ele>279.0</ele><time>2026-03-22T11:45:58.159Z</time></trkpt><trkpt lat="45.8223283" lon="8.6859267"><ele>280.25</ele><time>2026-03-22T11:45:59.159Z</time></trkpt><trkpt lat="45.8222733" lon="8.6861083"><ele>281.5</ele><time>2026-03-22T11:46:00.16Z</time></trkpt><trkpt lat="45.8222433" lon="8.686285"><ele>282.75</ele><time>2026-03-22T11:46:01.16Z</time></trkpt><trkpt lat="45.8222283" lon="8.6864583"><ele>284.0</ele><time>2026-03-22T11:46:02.159Z</time></trkpt><trkpt lat="45.82223" lon="8.6866267"><ele>284.0</ele><time>2026-03-22T11:46:03.16Z</time></trkpt><trkpt lat="45.8222367" lon="8.6867833"><ele>284.0</ele><time>2026-03-22T11:46:04.159Z</time></trkpt><trkpt lat="45.8222583" lon="8.686915"><ele>284.0</ele><time>2026-03-22T11:46:05.159Z</time></trkpt><trkpt lat="45.82228" lon="8.6870217"><ele>284.0</ele><time>2026-03-22T11:46:06.159Z</time></trkpt><trkpt lat="45.8223067" lon="8.68712"><ele>284.0</ele><time>2026-03-22T11:46:07.159Z</time></trkpt><trkpt lat="45.8223483" lon="8.6872133"><ele>284.0</ele><time>2026-03-22T11:46:08.159Z</time></trkpt><trkpt lat="45.8224017" lon="8.6872983"><ele>284.2</ele><time>2026-03-22T11:46:09.159Z</time></trkpt><trkpt lat="45.822465" lon="8.687375"><ele>284.4</ele><time>2026-03-22T11:46:10.159Z</time></trkpt><trkpt lat="45.822525" lon="8.687435"><ele>284.6</ele><time>2026-03-22T11:46:11.159Z</time></trkpt><trkpt lat="45.822625" lon="8.687515"><ele>284.8</ele><time>2026-03-22T11:46:13.16Z</time></trkpt><trkpt lat="45.822715" lon="8.687585"><ele>285.0</ele><time>2026-03-22T11:46:16.16Z</time></trkpt><trkpt lat="45.8228117" lon="8.68769"><ele>286.0</ele><time>2026-03-22T11:46:18.16Z</time></trkpt><trkpt lat="45.82287" lon="8.68775"><ele>287.0</ele><time>2026-03-22T11:46:19.159Z</time></trkpt><trkpt lat="45.8229317" lon="8.68781"><ele>288.0</ele><time>2026-03-22T11:46:20.16Z</time></trkpt><trkpt lat="45.8229933" lon="8.6878783"><ele>289.0</ele><time>2026-03-22T11:46:21.16Z</time></trkpt><trkpt lat="45.82306" lon="8.6879467"><ele>290.0</ele><time>2026-03-22T11:46:22.159Z</time></trkpt><trkpt lat="45.823125" lon="8.6880067"><ele>291.0</ele><time>2026-03-22T11:46:23.159Z</time></trkpt><trkpt lat="45.823185" lon="8.6880667"><ele>291.0</ele><time>2026-03-22T11:46:24.159Z</time></trkpt><trkpt lat="45.8232467" lon="8.68813"><ele>291.0</ele><time>2026-03-22T11:46:25.16Z</time></trkpt><trkpt lat="45.8233133" lon="8.6881967"><ele>291.0</ele><time>2026-03-22T11:46:26.16Z</time></trkpt><trkpt lat="45.8233933" lon="8.6882617"><ele>291.0</ele><time>2026-03-22T11:46:27.159Z</time></trkpt><trkpt lat="45.823465" lon="8.6883383"><ele>291.0</ele><time>2026-03-22T11:46:28.159Z</time></trkpt><trkpt lat="45.823545" lon="8.6884183"><ele>291.0</ele><time>2026-03-22T11:46:29.159Z</time></trkpt><trkpt lat="45.82362" lon="8.6884917"><ele>290.40000000000003</ele><time>2026-03-22T11:46:30.159Z</time></trkpt><trkpt lat="45.82369" lon="8.68855"><ele>289.8</ele><time>2026-03-22T11:46:31.159Z</time></trkpt><trkpt lat="45.8237817" lon="8.6885833"><ele>289.20000000000005</ele><time>2026-03-22T11:46:32.159Z</time></trkpt><trkpt lat="45.823885" lon="8.6885883"><ele>288.6</ele><time>2026-03-22T11:46:33.159Z</time></trkpt><trkpt lat="45.823995" lon="8.68859"><ele>288.0</ele><time>2026-03-22T11:46:34.159Z</time></trkpt><trkpt lat="45.824105" lon="8.6885983"><ele>288.0</ele><time>2026-03-22T11:46:35.159Z</time></trkpt><trkpt lat="45.824215" lon="8.688625"><ele>288.0</ele><time>2026-03-22T11:46:36.16Z</time></trkpt><trkpt lat="45.824325" lon="8.6886717"><ele>288.0</ele><time>2026-03-22T11:46:37.16Z</time></trkpt><trkpt lat="45.82444" lon="8.6887367"><ele>288.0</ele><time>2026-03-22T11:46:38.159Z</time></trkpt><trkpt lat="45.8245333" lon="8.688805"><ele>290.4</ele><time>2026-03-22T11:46:39.16Z</time></trkpt><trkpt lat="45.8246217" lon="8.6888867"><ele>292.8</ele><time>2026-03-22T11:46:40.159Z</time></trkpt><trkpt lat="45.82469" lon="8.6889817"><ele>295.2</ele><time>2026-03-22T11:46:41.159Z</time></trkpt><trkpt lat="45.8247283" lon="8.6891083"><ele>297.6</ele><time>2026-03-22T11:46:42.159Z</time></trkpt><trkpt lat="45.8247533" lon="8.689255"><ele>300.0</ele><time>2026-03-22T11:46:43.159Z</time></trkpt><trkpt lat="45.82477" lon="8.68942"><ele>299.4</ele><time>2026-03-22T11:46:44.159Z</time></trkpt><trkpt lat="45.8247883" lon="8.6895917"><ele>298.8</ele><time>2026-03-22T11:46:45.159Z</time></trkpt><trkpt lat="45.8248017" lon="8.68975"><ele>298.2</ele><time>2026-03-22T11:46:46.159Z</time></trkpt><trkpt lat="45.8248233" lon="8.6898917"><ele>297.6</ele><time>2026-03-22T11:46:47.16Z</time></trkpt><trkpt lat="45.8248583" lon="8.690015"><ele>297.0</ele><time>2026-03-22T11:46:48.159Z</time></trkpt><trkpt lat="45.82491" lon="8.69014"><ele>297.0</ele><time>2026-03-22T11:46:49.159Z</time></trkpt><trkpt lat="45.8249867" lon="8.690245"><ele>297.0</ele><time>2026-03-22T11:46:50.159Z</time></trkpt><trkpt lat="45.8250517" lon="8.6903467"><ele>297.0</ele><time>2026-03-22T11:46:51.159Z</time></trkpt><trkpt lat="45.8251033" lon="8.690435"><ele>297.0</ele><time>2026-03-22T11:46:52.16Z</time></trkpt><trkpt lat="45.8251767" lon="8.6904933"><ele>297.0</ele><time>2026-03-22T11:46:54.159Z</time></trkpt><trkpt lat="45.825255" lon="8.690395"><ele>296.8</ele><time>2026-03-22T11:46:56.159Z</time></trkpt><trkpt lat="45.8253317" lon="8.690265"><ele>296.6</ele><time>2026-03-22T11:46:58.159Z</time></trkpt><trkpt lat="45.8254483" lon="8.6902233"><ele>296.40000000000003</ele><time>2026-03-22T11:47:00.16Z</time></trkpt><trkpt lat="45.8255183" lon="8.690255"><ele>296.2</ele><time>2026-03-22T11:47:01.159Z</time></trkpt><trkpt lat="45.82559" lon="8.6903083"><ele>296.0</ele><time>2026-03-22T11:47:02.159Z</time></trkpt><trkpt lat="45.8256583" lon="8.690385"><ele>295.40000000000003</ele><time>2026-03-22T11:47:03.159Z</time></trkpt><trkpt lat="45.82571" lon="8.6904967"><ele>294.8</ele><time>2026-03-22T11:47:04.159Z</time></trkpt><trkpt lat="45.8257567" lon="8.6906383"><ele>294.20000000000005</ele><time>2026-03-22T11:47:05.159Z</time></trkpt><trkpt lat="45.8258" lon="8.6907783"><ele>293.6</ele><time>2026-03-22T11:47:06.159Z</time></trkpt><trkpt lat="45.82582" lon="8.690915"><ele>293.0</ele><time>2026-03-22T11:47:07.159Z</time></trkpt><trkpt lat="45.82581" lon="8.6910617"><ele>292.5</ele><time>2026-03-22T11:47:08.159Z</time></trkpt><trkpt lat="45.82578" lon="8.6912133"><ele>292.0</ele><time>2026-03-22T11:47:09.159Z</time></trkpt><trkpt lat="45.8257467" lon="8.6913883"><ele>291.5</ele><time>2026-03-22T11:47:10.159Z</time></trkpt><trkpt lat="45.8257233" lon="8.6915683"><ele>291.0</ele><time>2026-03-22T11:47:11.159Z</time></trkpt><trkpt lat="45.82572" lon="8.6917617"><ele>291.0</ele><time>2026-03-22T11:47:12.159Z</time></trkpt><trkpt lat="45.825715" lon="8.6919467"><ele>291.0</ele><time>2026-03-22T11:47:13.16Z</time></trkpt><trkpt lat="45.8257233" lon="8.69213"><ele>291.0</ele><time>2026-03-22T11:47:14.159Z</time></trkpt><trkpt lat="45.8257317" lon="8.6922967"><ele>291.0</ele><time>2026-03-22T11:47:15.159Z</time></trkpt><trkpt lat="45.8257467" lon="8.6924667"><ele>291.0</ele><time>2026-03-22T11:47:16.159Z</time></trkpt><trkpt lat="45.8257533" lon="8.6926317"><ele>291.0</ele><time>2026-03-22T11:47:17.159Z</time></trkpt><trkpt lat="45.8257417" lon="8.6927983"><ele>291.0</ele><time>2026-03-22T11:47:18.159Z</time></trkpt><trkpt lat="45.8257283" lon="8.6929583"><ele>291.0</ele><time>2026-03-22T11:47:19.159Z</time></trkpt><trkpt lat="45.8257133" lon="8.6931167"><ele>289.3333333333333</ele><time>2026-03-22T11:47:20.159Z</time></trkpt><trkpt lat="45.825685" lon="8.693265"><ele>287.6666666666667</ele><time>2026-03-22T11:47:21.16Z</time></trkpt><trkpt lat="45.8256567" lon="8.6934"><ele>286.0</ele><time>2026-03-22T11:47:22.159Z</time></trkpt><trkpt lat="45.8256433" lon="8.69351"><ele>284.33333333333337</ele><time>2026-03-22T11:47:23.159Z</time></trkpt><trkpt lat="45.8256667" lon="8.6935983"><ele>282.6666666666667</ele><time>2026-03-22T11:47:24.159Z</time></trkpt><trkpt lat="45.825705" lon="8.693675"><ele>281.0</ele><time>2026-03-22T11:47:25.159Z</time></trkpt><trkpt lat="45.82576" lon="8.6937583"><ele>278.25</ele><time>2026-03-22T11:47:26.159Z</time></trkpt><trkpt lat="45.8258717" lon="8.69377"><ele>275.5</ele><time>2026-03-22T11:47:27.159Z</time></trkpt><trkpt lat="45.8259967" lon="8.6937717"><ele>272.75</ele><time>2026-03-22T11:47:28.159Z</time></trkpt><trkpt lat="45.8261383" lon="8.6937667"><ele>270.0</ele><time>2026-03-22T11:47:29.159Z</time></trkpt><trkpt lat="45.8262933" lon="8.6937483"><ele>268.3333333333333</ele><time>2026-03-22T11:47:30.159Z</time></trkpt><trkpt lat="45.8264533" lon="8.69373"><ele>266.66666666666663</ele><time>2026-03-22T11:47:31.159Z</time></trkpt><trkpt lat="45.8266133" lon="8.6937167"><ele>265.0</ele><time>2026-03-22T11:47:32.159Z</time></trkpt><trkpt lat="45.826775" lon="8.6936967"><ele>262.3333333333333</ele><time>2026-03-22T11:47:33.159Z</time></trkpt><trkpt lat="45.826945" lon="8.6936817"><ele>259.6666666666667</ele><time>2026-03-22T11:47:34.159Z</time></trkpt><trkpt lat="45.8271217" lon="8.693675"><ele>257.0</ele><time>2026-03-22T11:47:35.159Z</time></trkpt><trkpt lat="45.827285" lon="8.6936833"><ele>257.0</ele><time>2026-03-22T11:47:36.16Z</time></trkpt><trkpt lat="45.82744" lon="8.69369"><ele>257.0</ele><time>2026-03-22T11:47:37.16Z</time></trkpt><trkpt lat="45.8275833" lon="8.6937083"><ele>257.0</ele><time>2026-03-22T11:47:38.159Z</time></trkpt><trkpt lat="45.8277" lon="8.6937417"><ele>257.0</ele><time>2026-03-22T11:47:39.16Z</time></trkpt><trkpt lat="45.827815" lon="8.6937783"><ele>255.75</ele><time>2026-03-22T11:47:40.16Z</time></trkpt><trkpt lat="45.8279467" lon="8.6937867"><ele>254.5</ele><time>2026-03-22T11:47:41.159Z</time></trkpt><trkpt lat="45.8280733" lon="8.69379"><ele>253.25</ele><time>2026-03-22T11:47:42.159Z</time></trkpt><trkpt lat="45.8281967" lon="8.6937667"><ele>252.0</ele><time>2026-03-22T11:47:43.159Z</time></trkpt><trkpt lat="45.8283133" lon="8.69372"><ele>252.0</ele><time>2026-03-22T11:47:44.16Z</time></trkpt><trkpt lat="45.8284267" lon="8.693685"><ele>252.0</ele><time>2026-03-22T11:47:45.159Z</time></trkpt><trkpt lat="45.8285317" lon="8.6936683"><ele>252.0</ele><time>2026-03-22T11:47:46.159Z</time></trkpt><trkpt lat="45.8286433" lon="8.69367"><ele>252.0</ele><time>2026-03-22T11:47:47.159Z</time></trkpt><trkpt lat="45.8287517" lon="8.693695"><ele>252.0</ele><time>2026-03-22T11:47:48.16Z</time></trkpt><trkpt lat="45.8288683" lon="8.6937383"><ele>252.25</ele><time>2026-03-22T11:47:49.159Z</time></trkpt><trkpt lat="45.8289833" lon="8.6937817"><ele>252.5</ele><time>2026-03-22T11:47:50.16Z</time></trkpt><trkpt lat="45.829105" lon="8.693815"><ele>252.75</ele><time>2026-03-22T11:47:51.159Z</time></trkpt><trkpt lat="45.8292217" lon="8.69386"><ele>253.0</ele><time>2026-03-22T11:47:52.159Z</time></trkpt><trkpt lat="45.8293283" lon="8.6939317"><ele>253.25</ele><time>2026-03-22T11:47:53.16Z</time></trkpt><trkpt lat="45.82942" lon="8.6940367"><ele>253.5</ele><time>2026-03-22T11:47:54.159Z</time></trkpt><trkpt lat="45.8295" lon="8.6941517"><ele>253.75</ele><time>2026-03-22T11:47:55.16Z</time></trkpt><trkpt lat="45.829575" lon="8.6942883"><ele>254.0</ele><time>2026-03-22T11:47:56.16Z</time></trkpt><trkpt lat="45.829635" lon="8.6944383"><ele>253.0</ele><time>2026-03-22T11:47:57.159Z</time></trkpt><trkpt lat="45.8296883" lon="8.6946167"><ele>252.0</ele><time>2026-03-22T11:47:58.159Z</time></trkpt><trkpt lat="45.8297467" lon="8.694795"><ele>251.0</ele><time>2026-03-22T11:47:59.16Z</time></trkpt><trkpt lat="45.829815" lon="8.6949717"><ele>250.0</ele><time>2026-03-22T11:48:00.159Z</time></trkpt><trkpt lat="45.82989" lon="8.6951483"><ele>250.25</ele><time>2026-03-22T11:48:01.159Z</time></trkpt><trkpt lat="45.8299783" lon="8.6953083"><ele>250.5</ele><time>2026-03-22T11:48:02.16Z</time></trkpt><trkpt lat="45.8300633" lon="8.6954683"><ele>250.75</ele><time>2026-03-22T11:48:03.16Z</time></trkpt><trkpt lat="45.830155" lon="8.695615"><ele>251.0</ele><time>2026-03-22T11:48:04.159Z</time></trkpt><trkpt lat="45.8302633" lon="8.6957467"><ele>251.0</ele><time>2026-03-22T11:48:05.16Z</time></trkpt><trkpt lat="45.8303683" lon="8.6958717"><ele>251.0</ele><time>2026-03-22T11:48:06.159Z</time></trkpt><trkpt lat="45.8304783" lon="8.6959933"><ele>251.0</ele><time>2026-03-22T11:48:07.16Z</time></trkpt><trkpt lat="45.8305883" lon="8.6961133"><ele>251.0</ele><time>2026-03-22T11:48:08.159Z</time></trkpt><trkpt lat="45.8306967" lon="8.69621"><ele>251.0</ele><time>2026-03-22T11:48:09.159Z</time></trkpt><trkpt lat="45.830795" lon="8.6963"><ele>251.0</ele><time>2026-03-22T11:48:10.159Z</time></trkpt><trkpt lat="45.8308983" lon="8.6963883"><ele>251.0</ele><time>2026-03-22T11:48:11.16Z</time></trkpt><trkpt lat="45.831015" lon="8.696465"><ele>251.0</ele><time>2026-03-22T11:48:12.159Z</time></trkpt><trkpt lat="45.8311517" lon="8.6965117"><ele>251.0</ele><time>2026-03-22T11:48:13.16Z</time></trkpt><trkpt lat="45.83129" lon="8.6965583"><ele>251.0</ele><time>2026-03-22T11:48:14.159Z</time></trkpt><trkpt lat="45.8314167" lon="8.69658"><ele>251.0</ele><time>2026-03-22T11:48:15.16Z</time></trkpt><trkpt lat="45.83155" lon="8.6965733"><ele>251.0</ele><time>2026-03-22T11:48:16.159Z</time></trkpt><trkpt lat="45.8316733" lon="8.6965733"><ele>251.0</ele><time>2026-03-22T11:48:17.159Z</time></trkpt><trkpt lat="45.8317917" lon="8.6966"><ele>251.0</ele><time>2026-03-22T11:48:18.159Z</time></trkpt><trkpt lat="45.8319317" lon="8.6966517"><ele>251.0</ele><time>2026-03-22T11:48:19.159Z</time></trkpt><trkpt lat="45.83206" lon="8.69673"><ele>251.0</ele><time>2026-03-22T11:48:20.16Z</time></trkpt><trkpt lat="45.8321733" lon="8.6967817"><ele>251.60000000000002</ele><time>2026-03-22T11:48:21.159Z</time></trkpt><trkpt lat="45.8322917" lon="8.6968033"><ele>252.20000000000002</ele><time>2026-03-22T11:48:22.159Z</time></trkpt><trkpt lat="45.8324017" lon="8.696805"><ele>252.79999999999998</ele><time>2026-03-22T11:48:23.159Z</time></trkpt><trkpt lat="45.8325033" lon="8.6967883"><ele>253.39999999999998</ele><time>2026-03-22T11:48:24.159Z</time></trkpt><trkpt lat="45.8325967" lon="8.6967533"><ele>254.0</ele><time>2026-03-22T11:48:25.159Z</time></trkpt><trkpt lat="45.8326717" lon="8.696715"><ele>254.57142857142858</ele><time>2026-03-22T11:48:26.159Z</time></trkpt><trkpt lat="45.8327417" lon="8.6966983"><ele>255.1428571428571</ele><time>2026-03-22T11:48:27.16Z</time></trkpt><trkpt lat="45.8328167" lon="8.6966983"><ele>255.7142857142857</ele><time>2026-03-22T11:48:28.159Z</time></trkpt><trkpt lat="45.8328883" lon="8.6967167"><ele>256.2857142857143</ele><time>2026-03-22T11:48:29.159Z</time></trkpt><trkpt lat="45.8329617" lon="8.696735"><ele>256.85714285714283</ele><time>2026-03-22T11:48:30.159Z</time></trkpt><trkpt lat="45.8330417" lon="8.6967433"><ele>257.4285714285714</ele><time>2026-03-22T11:48:31.16Z</time></trkpt><trkpt lat="45.8331067" lon="8.6967383"><ele>258.0</ele><time>2026-03-22T11:48:32.16Z</time></trkpt><trkpt lat="45.8332133" lon="8.6967183"><ele>258.0</ele><time>2026-03-22T11:48:34.159Z</time></trkpt><trkpt lat="45.8333017" lon="8.6967083"><ele>258.0</ele><time>2026-03-22T11:48:36.159Z</time></trkpt><trkpt lat="45.8333933" lon="8.6966967"><ele>258.0</ele><time>2026-03-22T11:48:47.159Z</time></trkpt><trkpt lat="45.8334583" lon="8.696695"><ele>258.0</ele><time>2026-03-22T11:48:49.159Z</time></trkpt><trkpt lat="45.8335283" lon="8.696715"><ele>258.0</ele><time>2026-03-22T11:48:50.16Z</time></trkpt><trkpt lat="45.8336067" lon="8.6967333"><ele>258.0</ele><time>2026-03-22T11:48:51.159Z</time></trkpt><trkpt lat="45.833675" lon="8.696755"><ele>258.0</ele><time>2026-03-22T11:48:52.159Z</time></trkpt><trkpt lat="45.8337467" lon="8.6967833"><ele>258.0</ele><time>2026-03-22T11:48:53.159Z</time></trkpt><trkpt lat="45.8338233" lon="8.6967933"><ele>258.0</ele><time>2026-03-22T11:48:54.159Z</time></trkpt><trkpt lat="45.8339017" lon="8.696825"><ele>258.0</ele><time>2026-03-22T11:48:55.159Z</time></trkpt><trkpt lat="45.8339667" lon="8.69685"><ele>258.0</ele><time>2026-03-22T11:48:56.16Z</time></trkpt><trkpt lat="45.8340317" lon="8.6968733"><ele>258.0</ele><time>2026-03-22T11:48:57.159Z</time></trkpt><trkpt lat="45.8341483" lon="8.6969117"><ele>258.0</ele><time>2026-03-22T11:48:59.159Z</time></trkpt><trkpt lat="45.834235" lon="8.6969183"><ele>258.0</ele><time>2026-03-22T11:49:01.159Z</time></trkpt><trkpt lat="45.8343017" lon="8.6968983"><ele>258.0</ele><time>2026-03-22T11:49:05.159Z</time></trkpt><trkpt lat="45.834385" lon="8.6968683"><ele>258.0</ele><time>2026-03-22T11:52:42.159Z</time></trkpt><trkpt lat="45.834425" lon="8.696795"><ele>258.0</ele><time>2026-03-22T11:52:43.159Z</time></trkpt><trkpt lat="45.8344783" lon="8.696695"><ele>258.0</ele><time>2026-03-22T11:52:44.159Z</time></trkpt><trkpt lat="45.8345317" lon="8.6966033"><ele>257.4</ele><time>2026-03-22T11:52:45.159Z</time></trkpt><trkpt lat="45.8345833" lon="8.6965233"><ele>256.8</ele><time>2026-03-22T11:52:46.159Z</time></trkpt><trkpt lat="45.83464" lon="8.6964583"><ele>256.2</ele><time>2026-03-22T11:52:47.16Z</time></trkpt><trkpt lat="45.83475" lon="8.6964133"><ele>255.6</ele><time>2026-03-22T11:52:49.159Z</time></trkpt><trkpt lat="45.8348633" lon="8.6965283"><ele>255.0</ele><time>2026-03-22T11:52:51.16Z</time></trkpt><trkpt lat="45.8349167" lon="8.6966233"><ele>255.0</ele><time>2026-03-22T11:52:52.16Z</time></trkpt><trkpt lat="45.834975" lon="8.6967267"><ele>255.0</ele><time>2026-03-22T11:52:53.159Z</time></trkpt><trkpt lat="45.8350233" lon="8.6968217"><ele>255.0</ele><time>2026-03-22T11:52:54.159Z</time></trkpt><trkpt lat="45.835065" lon="8.69691"><ele>255.0</ele><time>2026-03-22T11:52:55.16Z</time></trkpt><trkpt lat="45.8351067" lon="8.696995"><ele>255.0</ele><time>2026-03-22T11:52:56.16Z</time></trkpt><trkpt lat="45.8351533" lon="8.6970733"><ele>255.0</ele><time>2026-03-22T11:52:57.159Z</time></trkpt><trkpt lat="45.8351917" lon="8.69716"><ele>255.0</ele><time>2026-03-22T11:52:58.159Z</time></trkpt><trkpt lat="45.8352283" lon="8.6972567"><ele>255.0</ele><time>2026-03-22T11:52:59.16Z</time></trkpt><trkpt lat="45.8352683" lon="8.697355"><ele>255.0</ele><time>2026-03-22T11:53:00.159Z</time></trkpt><trkpt lat="45.8353083" lon="8.69744"><ele>255.0</ele><time>2026-03-22T11:53:01.159Z</time></trkpt><trkpt lat="45.835345" lon="8.69759"><ele>255.0</ele><time>2026-03-22T11:53:03.159Z</time></trkpt><trkpt lat="45.8352983" lon="8.6977267"><ele>255.0</ele><time>2026-03-22T11:53:05.159Z</time></trkpt><trkpt lat="45.83525" lon="8.697785"><ele>255.4</ele><time>2026-03-22T11:53:06.16Z</time></trkpt><trkpt lat="45.83514" lon="8.6978733"><ele>255.8</ele><time>2026-03-22T11:53:08.159Z</time></trkpt><trkpt lat="45.8350817" lon="8.6979167"><ele>256.2</ele><time>2026-03-22T11:53:09.159Z</time></trkpt><trkpt lat="45.8350033" lon="8.6979767"><ele>256.6</ele><time>2026-03-22T11:53:11.159Z</time></trkpt><trkpt lat="45.8349167" lon="8.6980467"><ele>257.0</ele><time>2026-03-22T11:53:20.159Z</time></trkpt><trkpt lat="45.8349233" lon="8.6981583"><ele>257.33333333333337</ele><time>2026-03-22T11:53:22.159Z</time></trkpt><trkpt lat="45.834975" lon="8.69831"><ele>257.6666666666667</ele><time>2026-03-22T11:53:24.16Z</time></trkpt><trkpt lat="45.835" lon="8.6984017"><ele>258.0</ele><time>2026-03-22T11:53:25.16Z</time></trkpt><trkpt lat="45.83502" lon="8.6985033"><ele>258.3333333333333</ele><time>2026-03-22T11:53:26.159Z</time></trkpt><trkpt lat="45.83504" lon="8.6986183"><ele>258.66666666666663</ele><time>2026-03-22T11:53:27.16Z</time></trkpt><trkpt lat="45.8350517" lon="8.6987467"><ele>259.0</ele><time>2026-03-22T11:53:28.159Z</time></trkpt><trkpt lat="45.8350583" lon="8.6988867"><ele>259.4</ele><time>2026-03-22T11:53:29.159Z</time></trkpt><trkpt lat="45.8350517" lon="8.6990483"><ele>259.79999999999995</ele><time>2026-03-22T11:53:30.159Z</time></trkpt><trkpt lat="45.835055" lon="8.6992017"><ele>260.20000000000005</ele><time>2026-03-22T11:53:31.159Z</time></trkpt><trkpt lat="45.835055" lon="8.6993433"><ele>260.6</ele><time>2026-03-22T11:53:32.159Z</time></trkpt><trkpt lat="45.835055" lon="8.6994767"><ele>261.0</ele><time>2026-03-22T11:53:33.16Z</time></trkpt><trkpt lat="45.8350567" lon="8.6996067"><ele>261.0</ele><time>2026-03-22T11:53:34.159Z</time></trkpt><trkpt lat="45.835065" lon="8.699735"><ele>261.0</ele><time>2026-03-22T11:53:35.159Z</time></trkpt><trkpt lat="45.83508" lon="8.6998583"><ele>261.0</ele><time>2026-03-22T11:53:36.159Z</time></trkpt><trkpt lat="45.835115" lon="8.699975"><ele>261.0</ele><time>2026-03-22T11:53:37.159Z</time></trkpt><trkpt lat="45.835185" lon="8.7000917"><ele>261.0</ele><time>2026-03-22T11:53:38.159Z</time></trkpt><trkpt lat="45.835275" lon="8.7001933"><ele>258.0</ele><time>2026-03-22T11:53:39.16Z</time></trkpt><trkpt lat="45.8353817" lon="8.7002817"><ele>255.0</ele><time>2026-03-22T11:53:40.16Z</time></trkpt><trkpt lat="45.8354933" lon="8.7003617"><ele>252.0</ele><time>2026-03-22T11:53:41.159Z</time></trkpt><trkpt lat="45.835595" lon="8.7004533"><ele>249.0</ele><time>2026-03-22T11:53:42.16Z</time></trkpt><trkpt lat="45.8356833" lon="8.7005183"><ele>249.0</ele><time>2026-03-22T11:53:43.159Z</time></trkpt><trkpt lat="45.835765" lon="8.7005967"><ele>248.99999999999997</ele><time>2026-03-22T11:53:44.159Z</time></trkpt><trkpt lat="45.8358467" lon="8.7006683"><ele>248.99999999999997</ele><time>2026-03-22T11:53:45.159Z</time></trkpt><trkpt lat="45.835935" lon="8.70073"><ele>249.0</ele><time>2026-03-22T11:53:46.159Z</time></trkpt><trkpt lat="45.83603" lon="8.7007967"><ele>249.0</ele><time>2026-03-22T11:53:47.159Z</time></trkpt><trkpt lat="45.8361067" lon="8.700855"><ele>248.79999999999998</ele><time>2026-03-22T11:53:48.159Z</time></trkpt><trkpt lat="45.83619" lon="8.7009083"><ele>248.59999999999997</ele><time>2026-03-22T11:53:49.16Z</time></trkpt><trkpt lat="45.8362683" lon="8.70097"><ele>248.4</ele><time>2026-03-22T11:53:50.159Z</time></trkpt><trkpt lat="45.83635" lon="8.7010367"><ele>248.2</ele><time>2026-03-22T11:53:51.16Z</time></trkpt><trkpt lat="45.8364267" lon="8.70111"><ele>248.0</ele><time>2026-03-22T11:53:52.159Z</time></trkpt><trkpt lat="45.836495" lon="8.7011883"><ele>246.8</ele><time>2026-03-22T11:53:53.16Z</time></trkpt><trkpt lat="45.83655" lon="8.701255"><ele>245.60000000000002</ele><time>2026-03-22T11:53:54.159Z</time></trkpt><trkpt lat="45.8366167" lon="8.7013833"><ele>244.39999999999998</ele><time>2026-03-22T11:53:56.159Z</time></trkpt><trkpt lat="45.8366567" lon="8.7015017"><ele>243.2</ele><time>2026-03-22T11:53:58.16Z</time></trkpt><trkpt lat="45.83673" lon="8.7015867"><ele>242.0</ele><time>2026-03-22T11:54:00.159Z</time></trkpt><trkpt lat="45.8368233" lon="8.7015483"><ele>241.8</ele><time>2026-03-22T11:54:02.16Z</time></trkpt><trkpt lat="45.8368617" lon="8.701475"><ele>241.6</ele><time>2026-03-22T11:54:03.159Z</time></trkpt><trkpt lat="45.83691" lon="8.7013733"><ele>241.40000000000003</ele><time>2026-03-22T11:54:04.159Z</time></trkpt><trkpt lat="45.83698" lon="8.7012483"><ele>241.20000000000002</ele><time>2026-03-22T11:54:05.159Z</time></trkpt><trkpt lat="45.8370667" lon="8.7011267"><ele>241.0</ele><time>2026-03-22T11:54:06.159Z</time></trkpt><trkpt lat="45.8371517" lon="8.701015"><ele>241.75</ele><time>2026-03-22T11:54:07.159Z</time></trkpt><trkpt lat="45.83725" lon="8.70091"><ele>242.5</ele><time>2026-03-22T11:54:08.159Z</time></trkpt><trkpt lat="45.83736" lon="8.7007933"><ele>243.25</ele><time>2026-03-22T11:54:09.159Z</time></trkpt><trkpt lat="45.8374783" lon="8.7006717"><ele>244.0</ele><time>2026-03-22T11:54:10.16Z</time></trkpt><trkpt lat="45.8376133" lon="8.7005483"><ele>243.66666666666666</ele><time>2026-03-22T11:54:11.159Z</time></trkpt><trkpt lat="45.8377467" lon="8.7004217"><ele>243.33333333333331</ele><time>2026-03-22T11:54:12.159Z</time></trkpt><trkpt lat="45.8378867" lon="8.7002967"><ele>243.0</ele><time>2026-03-22T11:54:13.159Z</time></trkpt><trkpt lat="45.8380367" lon="8.700165"><ele>243.5</ele><time>2026-03-22T11:54:14.159Z</time></trkpt><trkpt lat="45.8381667" lon="8.7000333"><ele>244.0</ele><time>2026-03-22T11:54:15.159Z</time></trkpt><trkpt lat="45.83828" lon="8.6999133"><ele>244.5</ele><time>2026-03-22T11:54:16.159Z</time></trkpt><trkpt lat="45.838375" lon="8.6998133"><ele>245.0</ele><time>2026-03-22T11:54:17.159Z</time></trkpt><trkpt lat="45.8384617" lon="8.6997217"><ele>245.00000000000003</ele><time>2026-03-22T11:54:18.16Z</time></trkpt><trkpt lat="45.8385333" lon="8.6996433"><ele>245.0</ele><time>2026-03-22T11:54:19.159Z</time></trkpt><trkpt lat="45.8386" lon="8.6995667"><ele>245.0</ele><time>2026-03-22T11:54:20.159Z</time></trkpt><trkpt lat="45.8386617" lon="8.699505"><ele>245.0</ele><time>2026-03-22T11:54:21.16Z</time></trkpt><trkpt lat="45.8387167" lon="8.6994367"><ele>245.00000000000003</ele><time>2026-03-22T11:54:24.159Z</time></trkpt><trkpt lat="45.838645" lon="8.6993433"><ele>245.0</ele><time>2026-03-22T11:54:27.16Z</time></trkpt><trkpt lat="45.83858" lon="8.69931"><ele>245.00000000000003</ele><time>2026-03-22T11:54:30.159Z</time></trkpt><trkpt lat="45.83851" lon="8.6993433"><ele>245.0</ele><time>2026-03-22T11:54:35.159Z</time></trkpt><trkpt lat="45.8384333" lon="8.6993367"><ele>245.0</ele><time>2026-03-22T11:55:22.159Z</time></trkpt><trkpt lat="45.8385183" lon="8.69937"><ele>245.0</ele><time>2026-03-22T12:02:42.159Z</time></trkpt><trkpt lat="45.8385983" lon="8.6993583"><ele>245.00000000000003</ele><time>2026-03-22T12:02:46.159Z</time></trkpt><trkpt lat="45.838515" lon="8.6994533"><ele>245.0</ele><time>2026-03-22T12:02:49.159Z</time></trkpt><trkpt lat="45.8384317" lon="8.6995617"><ele>245.0</ele><time>2026-03-22T12:02:51.159Z</time></trkpt><trkpt lat="45.83835" lon="8.69965"><ele>245.0</ele><time>2026-03-22T12:02:52.159Z</time></trkpt><trkpt lat="45.8382767" lon="8.6997517"><ele>245.0</ele><time>2026-03-22T12:02:53.159Z</time></trkpt><trkpt lat="45.8381983" lon="8.6998567"><ele>245.0</ele><time>2026-03-22T12:02:54.159Z</time></trkpt><trkpt lat="45.8381033" lon="8.6999617"><ele>245.0</ele><time>2026-03-22T12:02:55.159Z</time></trkpt><trkpt lat="45.8379967" lon="8.700075"><ele>245.0</ele><time>2026-03-22T12:02:56.159Z</time></trkpt><trkpt lat="45.8378833" lon="8.70019"><ele>245.0</ele><time>2026-03-22T12:02:57.159Z</time></trkpt><trkpt lat="45.83778" lon="8.7002983"><ele>245.0</ele><time>2026-03-22T12:02:58.159Z</time></trkpt><trkpt lat="45.837675" lon="8.7004067"><ele>245.0</ele><time>2026-03-22T12:02:59.159Z</time></trkpt><trkpt lat="45.83756" lon="8.70052"><ele>244.75</ele><time>2026-03-22T12:03:00.159Z</time></trkpt><trkpt lat="45.837455" lon="8.7006267"><ele>244.5</ele><time>2026-03-22T12:03:01.16Z</time></trkpt><trkpt lat="45.8373383" lon="8.70073"><ele>244.25</ele><time>2026-03-22T12:03:02.159Z</time></trkpt><trkpt lat="45.837235" lon="8.7008233"><ele>244.0</ele><time>2026-03-22T12:03:03.16Z</time></trkpt><trkpt lat="45.8371417" lon="8.70092"><ele>243.99999999999997</ele><time>2026-03-22T12:03:04.159Z</time></trkpt><trkpt lat="45.8370483" lon="8.701025"><ele>244.0</ele><time>2026-03-22T12:03:05.159Z</time></trkpt><trkpt lat="45.83698" lon="8.7011217"><ele>244.0</ele><time>2026-03-22T12:03:06.159Z</time></trkpt><trkpt lat="45.8369217" lon="8.7012067"><ele>244.0</ele><time>2026-03-22T12:03:07.159Z</time></trkpt><trkpt lat="45.8368633" lon="8.701285"><ele>243.99999999999997</ele><time>2026-03-22T12:03:08.159Z</time></trkpt><trkpt lat="45.83681" lon="8.7013467"><ele>244.0</ele><time>2026-03-22T12:03:09.159Z</time></trkpt><trkpt lat="45.83674" lon="8.7014517"><ele>243.5</ele><time>2026-03-22T12:03:11.159Z</time></trkpt><trkpt lat="45.8367267" lon="8.7015467"><ele>243.0</ele><time>2026-03-22T12:03:12.159Z</time></trkpt><trkpt lat="45.8367283" lon="8.70171"><ele>242.5</ele><time>2026-03-22T12:03:14.16Z</time></trkpt><trkpt lat="45.836755" lon="8.701905"><ele>242.0</ele><time>2026-03-22T12:03:15.159Z</time></trkpt><trkpt lat="45.8367783" lon="8.7021633"><ele>242.0</ele><time>2026-03-22T12:03:16.16Z</time></trkpt><trkpt lat="45.836815" lon="8.7023983"><ele>242.0</ele><time>2026-03-22T12:03:17.159Z</time></trkpt><trkpt lat="45.8368467" lon="8.7026283"><ele>242.0</ele><time>2026-03-22T12:03:18.159Z</time></trkpt><trkpt lat="45.83688" lon="8.7028517"><ele>242.66666666666669</ele><time>2026-03-22T12:03:19.159Z</time></trkpt><trkpt lat="45.8368983" lon="8.70306"><ele>243.33333333333331</ele><time>2026-03-22T12:03:20.159Z</time></trkpt><trkpt lat="45.8369217" lon="8.7032667"><ele>244.0</ele><time>2026-03-22T12:03:21.159Z</time></trkpt><trkpt lat="45.83695" lon="8.70349"><ele>244.75</ele><time>2026-03-22T12:03:22.159Z</time></trkpt><trkpt lat="45.836995" lon="8.7036783"><ele>245.5</ele><time>2026-03-22T12:03:23.16Z</time></trkpt><trkpt lat="45.8370567" lon="8.7038533"><ele>246.25</ele><time>2026-03-22T12:03:24.159Z</time></trkpt><trkpt lat="45.8371483" lon="8.70402"><ele>247.0</ele><time>2026-03-22T12:03:25.159Z</time></trkpt><trkpt lat="45.83725" lon="8.7041867"><ele>247.0</ele><time>2026-03-22T12:03:26.159Z</time></trkpt><trkpt lat="45.8373417" lon="8.7043383"><ele>247.0</ele><time>2026-03-22T12:03:27.159Z</time></trkpt><trkpt lat="45.8374317" lon="8.7044883"><ele>247.0</ele><time>2026-03-22T12:03:28.159Z</time></trkpt><trkpt lat="45.8375233" lon="8.7046317"><ele>247.0</ele><time>2026-03-22T12:03:29.159Z</time></trkpt><trkpt lat="45.8376083" lon="8.7047717"><ele>247.75</ele><time>2026-03-22T12:03:30.159Z</time></trkpt><trkpt lat="45.8376983" lon="8.704925"><ele>248.5</ele><time>2026-03-22T12:03:31.16Z</time></trkpt><trkpt lat="45.837785" lon="8.70505"><ele>249.25</ele><time>2026-03-22T12:03:32.159Z</time></trkpt><trkpt lat="45.837875" lon="8.70517"><ele>250.0</ele><time>2026-03-22T12:03:33.159Z</time></trkpt><trkpt lat="45.8379683" lon="8.7053133"><ele>250.0</ele><time>2026-03-22T12:03:34.16Z</time></trkpt><trkpt lat="45.8380533" lon="8.70548"><ele>250.0</ele><time>2026-03-22T12:03:35.159Z</time></trkpt><trkpt lat="45.8381433" lon="8.70565"><ele>250.0</ele><time>2026-03-22T12:03:36.159Z</time></trkpt><trkpt lat="45.83824" lon="8.7058383"><ele>250.0</ele><time>2026-03-22T12:03:37.159Z</time></trkpt><trkpt lat="45.83834" lon="8.7060267"><ele>250.0</ele><time>2026-03-22T12:03:38.159Z</time></trkpt><trkpt lat="45.838435" lon="8.7062017"><ele>250.0</ele><time>2026-03-22T12:03:39.159Z</time></trkpt><trkpt lat="45.8385317" lon="8.7063867"><ele>250.0</ele><time>2026-03-22T12:03:40.159Z</time></trkpt><trkpt lat="45.83863" lon="8.70657"><ele>250.0</ele><time>2026-03-22T12:03:41.16Z</time></trkpt><trkpt lat="45.838725" lon="8.7067267"><ele>250.0</ele><time>2026-03-22T12:03:42.159Z</time></trkpt><trkpt lat="45.83881" lon="8.70688"><ele>250.0</ele><time>2026-03-22T12:03:43.16Z</time></trkpt><trkpt lat="45.8389083" lon="8.7070417"><ele>251.25</ele><time>2026-03-22T12:03:44.16Z</time></trkpt><trkpt lat="45.8390133" lon="8.7071833"><ele>252.5</ele><time>2026-03-22T12:03:45.159Z</time></trkpt><trkpt lat="45.839105" lon="8.7073233"><ele>253.75</ele><time>2026-03-22T12:03:46.159Z</time></trkpt><trkpt lat="45.83919" lon="8.707475"><ele>255.0</ele><time>2026-03-22T12:03:47.159Z</time></trkpt><trkpt lat="45.8392833" lon="8.7076283"><ele>255.5</ele><time>2026-03-22T12:03:48.159Z</time></trkpt><trkpt lat="45.8393667" lon="8.7077783"><ele>256.0</ele><time>2026-03-22T12:03:49.159Z</time></trkpt><trkpt lat="45.839475" lon="8.70794"><ele>256.5</ele><time>2026-03-22T12:03:50.159Z</time></trkpt><trkpt lat="45.839565" lon="8.7081"><ele>257.0</ele><time>2026-03-22T12:03:51.159Z</time></trkpt><trkpt lat="45.839655" lon="8.708245"><ele>257.0</ele><time>2026-03-22T12:03:52.159Z</time></trkpt><trkpt lat="45.8397383" lon="8.7083917"><ele>257.0</ele><time>2026-03-22T12:03:53.159Z</time></trkpt><trkpt lat="45.8398083" lon="8.7085217"><ele>257.0</ele><time>2026-03-22T12:03:54.16Z</time></trkpt><trkpt lat="45.8398933" lon="8.7086467"><ele>257.0</ele><time>2026-03-22T12:03:55.159Z</time></trkpt><trkpt lat="45.8399917" lon="8.7087967"><ele>257.5</ele><time>2026-03-22T12:03:56.16Z</time></trkpt><trkpt lat="45.8400933" lon="8.7089583"><ele>258.0</ele><time>2026-03-22T12:03:57.159Z</time></trkpt><trkpt lat="45.8401833" lon="8.7091217"><ele>258.5</ele><time>2026-03-22T12:03:58.16Z</time></trkpt><trkpt lat="45.8402733" lon="8.7092683"><ele>259.0</ele><time>2026-03-22T12:03:59.159Z</time></trkpt><trkpt lat="45.8403467" lon="8.709395"><ele>259.5</ele><time>2026-03-22T12:04:00.159Z</time></trkpt><trkpt lat="45.8404133" lon="8.7095267"><ele>260.0</ele><time>2026-03-22T12:04:01.159Z</time></trkpt><trkpt lat="45.84047" lon="8.70966"><ele>260.5</ele><time>2026-03-22T12:04:02.159Z</time></trkpt><trkpt lat="45.8405267" lon="8.709795"><ele>261.0</ele><time>2026-03-22T12:04:03.159Z</time></trkpt><trkpt lat="45.8406017" lon="8.7099283"><ele>261.0</ele><time>2026-03-22T12:04:04.159Z</time></trkpt><trkpt lat="45.8406717" lon="8.7100717"><ele>261.0</ele><time>2026-03-22T12:04:05.16Z</time></trkpt><trkpt lat="45.8407267" lon="8.7102367"><ele>261.0</ele><time>2026-03-22T12:04:06.159Z</time></trkpt><trkpt lat="45.840775" lon="8.710415"><ele>261.0</ele><time>2026-03-22T12:04:07.159Z</time></trkpt><trkpt lat="45.8408433" lon="8.7105867"><ele>261.0</ele><time>2026-03-22T12:04:08.159Z</time></trkpt><trkpt lat="45.8409133" lon="8.7107617"><ele>261.0</ele><time>2026-03-22T12:04:09.159Z</time></trkpt><trkpt lat="45.8409933" lon="8.7109467"><ele>261.0</ele><time>2026-03-22T12:04:10.159Z</time></trkpt><trkpt lat="45.8410883" lon="8.711125"><ele>261.0</ele><time>2026-03-22T12:04:11.159Z</time></trkpt><trkpt lat="45.84117" lon="8.711325"><ele>261.5</ele><time>2026-03-22T12:04:12.159Z</time></trkpt><trkpt lat="45.8412367" lon="8.71153"><ele>262.0</ele><time>2026-03-22T12:04:13.159Z</time></trkpt><trkpt lat="45.8413083" lon="8.7116933"><ele>262.5</ele><time>2026-03-22T12:04:14.159Z</time></trkpt><trkpt lat="45.8413717" lon="8.7118783"><ele>263.0</ele><time>2026-03-22T12:04:15.159Z</time></trkpt><trkpt lat="45.84144" lon="8.7120517"><ele>263.25</ele><time>2026-03-22T12:04:16.159Z</time></trkpt><trkpt lat="45.8415017" lon="8.712215"><ele>263.5</ele><time>2026-03-22T12:04:17.159Z</time></trkpt><trkpt lat="45.8415717" lon="8.7123817"><ele>263.75</ele><time>2026-03-22T12:04:18.159Z</time></trkpt><trkpt lat="45.8416267" lon="8.7125567"><ele>264.0</ele><time>2026-03-22T12:04:19.16Z</time></trkpt><trkpt lat="45.8416883" lon="8.7127183"><ele>264.1666666666667</ele><time>2026-03-22T12:04:20.159Z</time></trkpt><trkpt lat="45.8417483" lon="8.71286"><ele>264.3333333333333</ele><time>2026-03-22T12:04:21.159Z</time></trkpt><trkpt lat="45.8418" lon="8.7129817"><ele>264.5</ele><time>2026-03-22T12:04:22.159Z</time></trkpt><trkpt lat="45.8418383" lon="8.7130633"><ele>264.66666666666663</ele><time>2026-03-22T12:04:23.159Z</time></trkpt><trkpt lat="45.84188" lon="8.7131467"><ele>264.8333333333333</ele><time>2026-03-22T12:04:24.159Z</time></trkpt><trkpt lat="45.8419" lon="8.7132367"><ele>265.0</ele><time>2026-03-22T12:04:25.16Z</time></trkpt><trkpt lat="45.8419067" lon="8.713335"><ele>265.0</ele><time>2026-03-22T12:04:26.159Z</time></trkpt><trkpt lat="45.8418583" lon="8.7134233"><ele>265.0</ele><time>2026-03-22T12:04:27.159Z</time></trkpt><trkpt lat="45.841795" lon="8.7135033"><ele>265.0</ele><time>2026-03-22T12:04:28.16Z</time></trkpt><trkpt lat="45.8417083" lon="8.7135783"><ele>265.0</ele><time>2026-03-22T12:04:29.159Z</time></trkpt><trkpt lat="45.8416033" lon="8.7136517"><ele>265.0</ele><time>2026-03-22T12:04:30.16Z</time></trkpt><trkpt lat="45.841485" lon="8.7137267"><ele>264.75</ele><time>2026-03-22T12:04:31.159Z</time></trkpt><trkpt lat="45.8413667" lon="8.7137983"><ele>264.5</ele><time>2026-03-22T12:04:32.159Z</time></trkpt><trkpt lat="45.8412483" lon="8.7139"><ele>264.25</ele><time>2026-03-22T12:04:33.16Z</time></trkpt><trkpt lat="45.8411333" lon="8.7139833"><ele>264.0</ele><time>2026-03-22T12:04:34.16Z</time></trkpt><trkpt lat="45.8410217" lon="8.71407"><ele>263.4</ele><time>2026-03-22T12:04:35.159Z</time></trkpt><trkpt lat="45.8409217" lon="8.714115"><ele>262.79999999999995</ele><time>2026-03-22T12:04:36.159Z</time></trkpt><trkpt lat="45.8408117" lon="8.7141533"><ele>262.20000000000005</ele><time>2026-03-22T12:04:37.159Z</time></trkpt><trkpt lat="45.8407083" lon="8.714195"><ele>261.6</ele><time>2026-03-22T12:04:38.16Z</time></trkpt><trkpt lat="45.8406083" lon="8.7142417"><ele>261.0</ele><time>2026-03-22T12:04:39.159Z</time></trkpt><trkpt lat="45.84052" lon="8.7143017"><ele>261.0</ele><time>2026-03-22T12:04:40.159Z</time></trkpt><trkpt lat="45.8404267" lon="8.7143683"><ele>261.0</ele><time>2026-03-22T12:04:41.159Z</time></trkpt><trkpt lat="45.840365" lon="8.7144333"><ele>261.0</ele><time>2026-03-22T12:04:42.16Z</time></trkpt><trkpt lat="45.8403217" lon="8.714505"><ele>261.0</ele><time>2026-03-22T12:04:43.159Z</time></trkpt><trkpt lat="45.84033" lon="8.7146617"><ele>261.0</ele><time>2026-03-22T12:04:45.159Z</time></trkpt><trkpt lat="45.8403533" lon="8.7147717"><ele>261.0</ele><time>2026-03-22T12:04:46.16Z</time></trkpt><trkpt lat="45.8403833" lon="8.7148567"><ele>261.0</ele><time>2026-03-22T12:04:47.159Z</time></trkpt><trkpt lat="45.8404183" lon="8.714945"><ele>261.0</ele><time>2026-03-22T12:04:48.159Z</time></trkpt><trkpt lat="45.8404567" lon="8.7150233"><ele>261.0</ele><time>2026-03-22T12:04:49.159Z</time></trkpt><trkpt lat="45.840505" lon="8.7151067"><ele>261.0</ele><time>2026-03-22T12:04:50.159Z</time></trkpt><trkpt lat="45.8405567" lon="8.7152033"><ele>261.0</ele><time>2026-03-22T12:04:51.16Z</time></trkpt><trkpt lat="45.840615" lon="8.7153033"><ele>261.0</ele><time>2026-03-22T12:04:52.159Z</time></trkpt><trkpt lat="45.8406717" lon="8.71539"><ele>261.2</ele><time>2026-03-22T12:04:53.159Z</time></trkpt><trkpt lat="45.8407133" lon="8.7154683"><ele>261.40000000000003</ele><time>2026-03-22T12:04:54.159Z</time></trkpt><trkpt lat="45.84077" lon="8.7155417"><ele>261.6</ele><time>2026-03-22T12:04:55.159Z</time></trkpt><trkpt lat="45.84083" lon="8.7156417"><ele>261.8</ele><time>2026-03-22T12:04:56.159Z</time></trkpt><trkpt lat="45.8408933" lon="8.71576"><ele>262.0</ele><time>2026-03-22T12:04:57.159Z</time></trkpt><trkpt lat="45.8409733" lon="8.7158783"><ele>262.25</ele><time>2026-03-22T12:04:58.159Z</time></trkpt><trkpt lat="45.8410517" lon="8.7160167"><ele>262.5</ele><time>2026-03-22T12:04:59.159Z</time></trkpt><trkpt lat="45.8411283" lon="8.716175"><ele>262.75</ele><time>2026-03-22T12:05:00.159Z</time></trkpt><trkpt lat="45.8412117" lon="8.71633"><ele>263.0</ele><time>2026-03-22T12:05:01.159Z</time></trkpt><trkpt lat="45.8412933" lon="8.716475"><ele>262.6666666666667</ele><time>2026-03-22T12:05:02.159Z</time></trkpt><trkpt lat="45.8413617" lon="8.7166033"><ele>262.33333333333337</ele><time>2026-03-22T12:05:03.159Z</time></trkpt><trkpt lat="45.8413933" lon="8.7166917"><ele>262.0</ele><time>2026-03-22T12:05:04.159Z</time></trkpt><trkpt lat="45.8414333" lon="8.7167833"><ele>261.6666666666667</ele><time>2026-03-22T12:05:05.16Z</time></trkpt><trkpt lat="45.8414867" lon="8.7168817"><ele>261.3333333333333</ele><time>2026-03-22T12:05:06.159Z</time></trkpt><trkpt lat="45.8415567" lon="8.7169717"><ele>261.0</ele><time>2026-03-22T12:05:07.159Z</time></trkpt><trkpt lat="45.8416467" lon="8.7170633"><ele>261.0</ele><time>2026-03-22T12:05:08.16Z</time></trkpt><trkpt lat="45.841735" lon="8.7171567"><ele>261.0</ele><time>2026-03-22T12:05:09.159Z</time></trkpt><trkpt lat="45.8418517" lon="8.7172817"><ele>261.0</ele><time>2026-03-22T12:05:10.159Z</time></trkpt><trkpt lat="45.84196" lon="8.7173767"><ele>261.0</ele><time>2026-03-22T12:05:11.159Z</time></trkpt><trkpt lat="45.842065" lon="8.7174933"><ele>261.8</ele><time>2026-03-22T12:05:12.159Z</time></trkpt><trkpt lat="45.8421483" lon="8.7176083"><ele>262.6</ele><time>2026-03-22T12:05:13.159Z</time></trkpt><trkpt lat="45.8422183" lon="8.71773"><ele>263.4</ele><time>2026-03-22T12:05:14.159Z</time></trkpt><trkpt lat="45.8422733" lon="8.71785"><ele>264.2</ele><time>2026-03-22T12:05:15.159Z</time></trkpt><trkpt lat="45.8423267" lon="8.7179683"><ele>265.0</ele><time>2026-03-22T12:05:16.159Z</time></trkpt><trkpt lat="45.842355" lon="8.7180583"><ele>265.0</ele><time>2026-03-22T12:05:17.16Z</time></trkpt><trkpt lat="45.8423833" lon="8.718225"><ele>265.0</ele><time>2026-03-22T12:05:19.159Z</time></trkpt><trkpt lat="45.84238" lon="8.7183167"><ele>265.0</ele><time>2026-03-22T12:05:20.159Z</time></trkpt><trkpt lat="45.84231" lon="8.71839"><ele>265.0</ele><time>2026-03-22T12:05:21.159Z</time></trkpt><trkpt lat="45.8423117" lon="8.7185117"><ele>265.0</ele><time>2026-03-22T12:05:23.159Z</time></trkpt><trkpt lat="45.8423083" lon="8.7186717"><ele>265.0</ele><time>2026-03-22T12:05:25.159Z</time></trkpt><trkpt lat="45.842325" lon="8.7188283"><ele>265.0</ele><time>2026-03-22T12:05:27.159Z</time></trkpt><trkpt lat="45.8423583" lon="8.718985"><ele>265.0</ele><time>2026-03-22T12:05:29.16Z</time></trkpt><trkpt lat="45.842405" lon="8.71907"><ele>265.0</ele><time>2026-03-22T12:05:30.159Z</time></trkpt><trkpt lat="45.84245" lon="8.71918"><ele>265.0</ele><time>2026-03-22T12:05:32.16Z</time></trkpt><trkpt lat="45.8423783" lon="8.719225"><ele>265.0</ele><time>2026-03-22T12:05:34.16Z</time></trkpt><trkpt lat="45.8423517" lon="8.7193567"><ele>265.0</ele><time>2026-03-22T12:05:40.16Z</time></trkpt><trkpt lat="45.8422967" lon="8.71948"><ele>265.0</ele><time>2026-03-22T12:05:42.159Z</time></trkpt><trkpt lat="45.8422017" lon="8.7196383"><ele>265.0</ele><time>2026-03-22T12:05:43.159Z</time></trkpt><trkpt lat="45.842065" lon="8.719745"><ele>264.5</ele><time>2026-03-22T12:05:44.159Z</time></trkpt><trkpt lat="45.8419567" lon="8.7198417"><ele>264.0</ele><time>2026-03-22T12:05:45.159Z</time></trkpt><trkpt lat="45.84183" lon="8.71992"><ele>263.5</ele><time>2026-03-22T12:05:46.159Z</time></trkpt><trkpt lat="45.841735" lon="8.7199767"><ele>263.0</ele><time>2026-03-22T12:05:47.159Z</time></trkpt><trkpt lat="45.8416333" lon="8.7200167"><ele>261.8</ele><time>2026-03-22T12:05:48.16Z</time></trkpt><trkpt lat="45.841545" lon="8.7200667"><ele>260.6</ele><time>2026-03-22T12:05:49.16Z</time></trkpt><trkpt lat="45.84146" lon="8.72014"><ele>259.4</ele><time>2026-03-22T12:05:50.159Z</time></trkpt><trkpt lat="45.84138" lon="8.7201783"><ele>258.2</ele><time>2026-03-22T12:05:51.159Z</time></trkpt><trkpt lat="45.8412883" lon="8.720195"><ele>257.0</ele><time>2026-03-22T12:05:52.159Z</time></trkpt><trkpt lat="45.8412017" lon="8.72016"><ele>257.0</ele><time>2026-03-22T12:05:54.16Z</time></trkpt><trkpt lat="45.84115" lon="8.72023"><ele>257.0</ele><time>2026-03-22T12:05:56.159Z</time></trkpt><trkpt lat="45.8411583" lon="8.7203217"><ele>257.0</ele><time>2026-03-22T12:05:57.159Z</time></trkpt><trkpt lat="45.8411883" lon="8.7204867"><ele>257.0</ele><time>2026-03-22T12:05:58.16Z</time></trkpt><trkpt lat="45.8412133" lon="8.720705"><ele>257.0</ele><time>2026-03-22T12:05:59.159Z</time></trkpt><trkpt lat="45.8412267" lon="8.7209467"><ele>257.6</ele><time>2026-03-22T12:06:00.159Z</time></trkpt><trkpt lat="45.84124" lon="8.721135"><ele>258.2</ele><time>2026-03-22T12:06:01.159Z</time></trkpt><trkpt lat="45.84123" lon="8.7212917"><ele>258.8</ele><time>2026-03-22T12:06:02.159Z</time></trkpt><trkpt lat="45.8412217" lon="8.7214483"><ele>259.4</ele><time>2026-03-22T12:06:03.159Z</time></trkpt><trkpt lat="45.8412117" lon="8.72156"><ele>260.0</ele><time>2026-03-22T12:06:04.16Z</time></trkpt><trkpt lat="45.8411933" lon="8.7216583"><ele>260.0</ele><time>2026-03-22T12:06:05.159Z</time></trkpt><trkpt lat="45.841165" lon="8.7217483"><ele>260.0</ele><time>2026-03-22T12:06:09.159Z</time></trkpt><trkpt lat="45.8411017" lon="8.7217383"><ele>260.0</ele><time>2026-03-22T12:06:14.159Z</time></trkpt><trkpt lat="45.84103" lon="8.7218117"><ele>260.0</ele><time>2026-03-22T12:06:36.159Z</time></trkpt><trkpt lat="45.841095" lon="8.721715"><ele>260.0</ele><time>2026-03-22T12:06:41.159Z</time></trkpt><trkpt lat="45.841125" lon="8.72162"><ele>260.0</ele><time>2026-03-22T12:07:29.16Z</time></trkpt><trkpt lat="45.841185" lon="8.72159"><ele>260.0</ele><time>2026-03-22T12:08:01.158Z</time></trkpt><trkpt lat="45.8411117" lon="8.7215517"><ele>260.0</ele><time>2026-03-22T12:08:52.158Z</time></trkpt><trkpt lat="45.8410683" lon="8.7216217"><ele>260.0</ele><time>2026-03-22T12:08:59.158Z</time></trkpt><trkpt lat="45.8411833" lon="8.7216517"><ele>260.0</ele><time>2026-03-22T12:09:08.158Z</time></trkpt><trkpt lat="45.8412083" lon="8.7215667"><ele>260.0</ele><time>2026-03-22T12:09:09.158Z</time></trkpt><trkpt lat="45.8412567" lon="8.7214467"><ele>260.0</ele><time>2026-03-22T12:09:10.158Z</time></trkpt><trkpt lat="45.8412883" lon="8.7213067"><ele>260.0</ele><time>2026-03-22T12:09:11.158Z</time></trkpt><trkpt lat="45.8413117" lon="8.7210933"><ele>260.0</ele><time>2026-03-22T12:09:12.158Z</time></trkpt><trkpt lat="45.8413067" lon="8.7208533"><ele>260.0</ele><time>2026-03-22T12:09:13.158Z</time></trkpt><trkpt lat="45.8412983" lon="8.7206483"><ele>259.5</ele><time>2026-03-22T12:09:14.158Z</time></trkpt><trkpt lat="45.8412867" lon="8.7204733"><ele>259.0</ele><time>2026-03-22T12:09:15.158Z</time></trkpt><trkpt lat="45.8412833" lon="8.7203267"><ele>258.5</ele><time>2026-03-22T12:09:16.158Z</time></trkpt><trkpt lat="45.8412783" lon="8.7202083"><ele>258.0</ele><time>2026-03-22T12:09:17.158Z</time></trkpt><trkpt lat="45.84128" lon="8.7201017"><ele>257.5</ele><time>2026-03-22T12:09:18.159Z</time></trkpt><trkpt lat="45.8413" lon="8.7200133"><ele>257.0</ele><time>2026-03-22T12:09:19.158Z</time></trkpt><trkpt lat="45.84137" lon="8.7199683"><ele>257.0</ele><time>2026-03-22T12:09:21.159Z</time></trkpt><trkpt lat="45.841475" lon="8.719875"><ele>257.0</ele><time>2026-03-22T12:09:23.158Z</time></trkpt><trkpt lat="45.8415417" lon="8.7198267"><ele>257.0</ele><time>2026-03-22T12:09:24.158Z</time></trkpt><trkpt lat="45.8416133" lon="8.7197633"><ele>257.0</ele><time>2026-03-22T12:09:25.158Z</time></trkpt><trkpt lat="45.841685" lon="8.7196967"><ele>257.0</ele><time>2026-03-22T12:09:26.158Z</time></trkpt><trkpt lat="45.8417733" lon="8.7195967"><ele>258.2</ele><time>2026-03-22T12:09:27.158Z</time></trkpt><trkpt lat="45.8418583" lon="8.7195283"><ele>259.4</ele><time>2026-03-22T12:09:28.158Z</time></trkpt><trkpt lat="45.8419267" lon="8.7194433"><ele>260.6</ele><time>2026-03-22T12:09:29.158Z</time></trkpt><trkpt lat="45.8420017" lon="8.719335"><ele>261.8</ele><time>2026-03-22T12:09:30.159Z</time></trkpt><trkpt lat="45.8420617" lon="8.7192683"><ele>263.0</ele><time>2026-03-22T12:09:31.158Z</time></trkpt><trkpt lat="45.8421317" lon="8.7191667"><ele>263.4</ele><time>2026-03-22T12:09:32.158Z</time></trkpt><trkpt lat="45.84221" lon="8.71907"><ele>263.8</ele><time>2026-03-22T12:09:33.159Z</time></trkpt><trkpt lat="45.8422833" lon="8.7189733"><ele>264.2</ele><time>2026-03-22T12:09:34.158Z</time></trkpt><trkpt lat="45.84236" lon="8.7188717"><ele>264.6</ele><time>2026-03-22T12:09:35.159Z</time></trkpt><trkpt lat="45.8424117" lon="8.7187633"><ele>265.0</ele><time>2026-03-22T12:09:36.158Z</time></trkpt><trkpt lat="45.84249" lon="8.7186833"><ele>265.0</ele><time>2026-03-22T12:09:37.158Z</time></trkpt><trkpt lat="45.8425517" lon="8.7185867"><ele>265.0</ele><time>2026-03-22T12:09:38.158Z</time></trkpt><trkpt lat="45.8426133" lon="8.7184817"><ele>265.0</ele><time>2026-03-22T12:09:39.158Z</time></trkpt><trkpt lat="45.8426783" lon="8.718385"><ele>265.0</ele><time>2026-03-22T12:09:40.158Z</time></trkpt><trkpt lat="45.8427417" lon="8.718285"><ele>265.0</ele><time>2026-03-22T12:09:41.158Z</time></trkpt><trkpt lat="45.8429633" lon="8.7187967"><ele>267.0</ele><time>2026-03-22T12:09:59.155Z</time></trkpt><trkpt lat="45.8428317" lon="8.7189983"><ele>269.0</ele><time>2026-03-22T12:10:00.155Z</time></trkpt><trkpt lat="45.8427767" lon="8.7190733"><ele>271.0</ele><time>2026-03-22T12:10:02.155Z</time></trkpt><trkpt lat="45.8426617" lon="8.7191317"><ele>273.0</ele><time>2026-03-22T12:10:17.155Z</time></trkpt><trkpt lat="45.8427117" lon="8.7190067"><ele>273.0</ele><time>2026-03-22T12:10:26.156Z</time></trkpt><trkpt lat="45.842645" lon="8.7189833"><ele>273.0</ele><time>2026-03-22T12:10:43.155Z</time></trkpt><trkpt lat="45.8425483" lon="8.7190467"><ele>273.0</ele><time>2026-03-22T12:10:46.156Z</time></trkpt><trkpt lat="45.8424567" lon="8.7190767"><ele>273.0</ele><time>2026-03-22T12:10:49.155Z</time></trkpt><trkpt lat="45.84241" lon="8.7191833"><ele>273.0</ele><time>2026-03-22T12:10:52.155Z</time></trkpt><trkpt lat="45.8424083" lon="8.719275"><ele>273.0</ele><time>2026-03-22T12:10:54.155Z</time></trkpt><trkpt lat="45.8424217" lon="8.7193633"><ele>274.5</ele><time>2026-03-22T12:10:56.155Z</time></trkpt><trkpt lat="45.8424183" lon="8.71951"><ele>276.0</ele><time>2026-03-22T12:10:58.155Z</time></trkpt><trkpt lat="45.8425267" lon="8.7196083"><ele>277.5</ele><time>2026-03-22T12:10:59.156Z</time></trkpt><trkpt lat="45.8426417" lon="8.719635"><ele>279.0</ele><time>2026-03-22T12:11:01.155Z</time></trkpt><trkpt lat="45.84273" lon="8.7197183"><ele>277.0</ele><time>2026-03-22T12:11:04.155Z</time></trkpt><trkpt lat="45.8426851" lon="8.7192313"><ele>275.0</ele><time>2026-03-22T12:14:57.084Z</time></trkpt><trkpt lat="45.8427258" lon="8.7191567"><ele>273.0</ele><time>2026-03-22T12:15:50.843Z</time></trkpt><trkpt lat="45.8426627" lon="8.7191734"><ele>273.0</ele><time>2026-03-22T12:15:58.484Z</time></trkpt><trkpt lat="45.8425226" lon="8.7190389"><ele>273.0</ele><time>2026-03-22T12:18:59.155Z</time></trkpt><trkpt lat="45.8425908" lon="8.719097"><ele>273.0</ele><time>2026-03-22T12:19:06.173Z</time></trkpt><trkpt lat="45.8427004" lon="8.719173"><ele>273.0</ele><time>2026-03-22T12:19:12.155Z</time></trkpt><trkpt lat="45.8427331" lon="8.7190382"><ele>265.0</ele><time>2026-03-22T12:24:32.775Z</time></trkpt><trkpt lat="45.8420313" lon="8.7186034"><ele>265.0</ele><time>2026-03-22T12:24:40.154Z</time></trkpt><trkpt lat="45.8420935" lon="8.7185687"><ele>265.0</ele><time>2026-03-22T12:24:59.169Z</time></trkpt><trkpt lat="45.8421575" lon="8.7185213"><ele>265.0</ele><time>2026-03-22T12:25:03.157Z</time></trkpt><trkpt lat="45.8422289" lon="8.7184666"><ele>265.0</ele><time>2026-03-22T12:25:05.255Z</time></trkpt><trkpt lat="45.8423517" lon="8.7183889"><ele>265.0</ele><time>2026-03-22T12:25:11.97Z</time></trkpt><trkpt lat="45.8424054" lon="8.7184677"><ele>265.0</ele><time>2026-03-22T12:25:18.294Z</time></trkpt><trkpt lat="45.8427331" lon="8.7190425"><ele>265.0</ele><time>2026-03-22T12:25:27.081Z</time></trkpt><trkpt lat="45.8422997" lon="8.7193341"><ele>273.0</ele><time>2026-03-22T12:25:33.451Z</time></trkpt><trkpt lat="45.8427332" lon="8.7190498"><ele>273.0</ele><time>2026-03-22T12:26:35.236Z</time></trkpt><trkpt lat="45.8427338" lon="8.719179"><ele>273.0</ele><time>2026-03-22T12:27:04.385Z</time></trkpt><trkpt lat="45.842735" lon="8.7190603"><ele>273.0</ele><time>2026-03-22T12:28:29.139Z</time></trkpt><trkpt lat="45.8428333" lon="8.7190424"><ele>273.0</ele><time>2026-03-22T12:28:35.522Z</time></trkpt><trkpt lat="45.8427272" lon="8.7190696"><ele>273.0</ele><time>2026-03-22T12:30:37.684Z</time></trkpt><trkpt lat="45.8427275" lon="8.7192103"><ele>273.0</ele><time>2026-03-22T12:30:43.981Z</time></trkpt><trkpt lat="45.8427311" lon="8.7190621"><ele>273.0</ele><time>2026-03-22T12:32:16.111Z</time></trkpt><trkpt lat="45.8426449" lon="8.7190858"><ele>273.0</ele><time>2026-03-22T12:32:22.491Z</time></trkpt><trkpt lat="45.8427316" lon="8.7190654"><ele>273.0</ele><time>2026-03-22T12:33:47.194Z</time></trkpt><trkpt lat="45.842727" lon="8.7192176"><ele>273.0</ele><time>2026-03-22T12:35:54.729Z</time></trkpt><trkpt lat="45.8427304" lon="8.7190667"><ele>273.0</ele><time>2026-03-22T12:37:57.25Z</time></trkpt><trkpt lat="45.842735" lon="8.7192442"><ele>273.0</ele><time>2026-03-22T12:38:42.784Z</time></trkpt><trkpt lat="45.8427305" lon="8.7190719"><ele>273.0</ele><time>2026-03-22T12:40:51.44Z</time></trkpt><trkpt lat="45.8427161" lon="8.7189803"><ele>273.0</ele><time>2026-03-22T12:41:42.226Z</time></trkpt><trkpt lat="45.8426954" lon="8.7188918"><ele>273.0</ele><time>2026-03-22T12:41:50.201Z</time></trkpt><trkpt lat="45.8427558" lon="8.7189266"><ele>273.0</ele><time>2026-03-22T12:42:08.251Z</time></trkpt><trkpt lat="45.8428226" lon="8.7190602"><ele>273.0</ele><time>2026-03-22T12:42:39.205Z</time></trkpt><trkpt lat="45.8428686" lon="8.719144"><ele>273.0</ele><time>2026-03-22T12:42:43.192Z</time></trkpt><trkpt lat="45.8427926" lon="8.7191312"><ele>273.0</ele><time>2026-03-22T12:42:47.18Z</time></trkpt></trkseg></trk></gpx>